<?xml version='1.0' encoding='UTF-8'?><gpx version="1.1" creator="JPX - https://github.com/jenetics/jpx" xmlns="http://www.topografix.com/GPX/1/1"><trk><trkseg><trkpt lat="43.8933015" lon="8.0461297"><ele>63.0</ele><time>2026-04-18T07:28:21.099Z</time></trkpt><trkpt lat="43.8932474" lon="8.0462025"><ele>63.0</ele><time>2026-04-18T07:28:23.098Z</time></trkpt><trkpt lat="43.8931988" lon="8.0463549"><ele>63.0</ele><time>2026-04-18T07:28:25.1Z</time></trkpt><trkpt lat="43.8931523" lon="8.046595"><ele>63.0</ele><time>2026-04-18T07:28:29.1Z</time></trkpt><trkpt lat="43.8932431" lon="8.0466571"><ele>61.599999999999994</ele><time>2026-04-18T07:28:32.099Z</time></trkpt><trkpt lat="43.8933365" lon="8.0466918"><ele>60.199999999999996</ele><time>2026-04-18T07:28:33.1Z</time></trkpt><trkpt lat="43.8934203" lon="8.0467785"><ele>58.8</ele><time>2026-04-18T07:28:34.1Z</time></trkpt><trkpt lat="43.8934755" lon="8.0468959"><ele>57.4</ele><time>2026-04-18T07:28:35.1Z</time></trkpt><trkpt lat="43.8934966" lon="8.0470408"><ele>56.0</ele><time>2026-04-18T07:28:36.099Z</time></trkpt><trkpt lat="43.8935164" lon="8.047196"><ele>59.5</ele><time>2026-04-18T07:28:37.1Z</time></trkpt><trkpt lat="43.8935252" lon="8.0473514"><ele>63.0</ele><time>2026-04-18T07:28:38.1Z</time></trkpt><trkpt lat="43.8935288" lon="8.0475114"><ele>66.5</ele><time>2026-04-18T07:28:39.1Z</time></trkpt><trkpt lat="43.8935444" lon="8.0476756"><ele>70.0</ele><time>2026-04-18T07:28:40.1Z</time></trkpt><trkpt lat="43.893584" lon="8.0478313"><ele>70.0</ele><time>2026-04-18T07:28:41.1Z</time></trkpt><trkpt lat="43.8936572" lon="8.0479699"><ele>70.0</ele><time>2026-04-18T07:28:42.1Z</time></trkpt><trkpt lat="43.8937509" lon="8.0481034"><ele>70.0</ele><time>2026-04-18T07:28:43.1Z</time></trkpt><trkpt lat="43.8938595" lon="8.0482064"><ele>70.0</ele><time>2026-04-18T07:28:44.1Z</time></trkpt><trkpt lat="43.8939743" lon="8.0483151"><ele>67.33333333333333</ele><time>2026-04-18T07:28:45.1Z</time></trkpt><trkpt lat="43.8940944" lon="8.0484131"><ele>64.66666666666667</ele><time>2026-04-18T07:28:46.1Z</time></trkpt><trkpt lat="43.8942955" lon="8.0485967"><ele>62.0</ele><time>2026-04-18T07:28:48.1Z</time></trkpt><trkpt lat="43.8943641" lon="8.0487172"><ele>62.0</ele><time>2026-04-18T07:28:49.1Z</time></trkpt><trkpt lat="43.8944141" lon="8.0488328"><ele>62.0</ele><time>2026-04-18T07:28:50.099Z</time></trkpt><trkpt lat="43.8945023" lon="8.0489134"><ele>62.0</ele><time>2026-04-18T07:28:51.1Z</time></trkpt><trkpt lat="43.8946089" lon="8.0489808"><ele>62.0</ele><time>2026-04-18T07:28:52.1Z</time></trkpt><trkpt lat="43.8946945" lon="8.0490972"><ele>62.0</ele><time>2026-04-18T07:28:53.1Z</time></trkpt><trkpt lat="43.8947539" lon="8.049255"><ele>59.0</ele><time>2026-04-18T07:28:54.099Z</time></trkpt><trkpt lat="43.8947651" lon="8.0494188"><ele>56.0</ele><time>2026-04-18T07:28:55.1Z</time></trkpt><trkpt lat="43.8947343" lon="8.0495852"><ele>53.0</ele><time>2026-04-18T07:28:56.1Z</time></trkpt><trkpt lat="43.8946921" lon="8.0497361"><ele>50.0</ele><time>2026-04-18T07:28:57.099Z</time></trkpt><trkpt lat="43.8946329" lon="8.0498474"><ele>50.00000000000001</ele><time>2026-04-18T07:28:58.1Z</time></trkpt><trkpt lat="43.8945719" lon="8.0499113"><ele>50.0</ele><time>2026-04-18T07:28:59.099Z</time></trkpt><trkpt lat="43.8944754" lon="8.0499188"><ele>50.0</ele><time>2026-04-18T07:29:01.1Z</time></trkpt><trkpt lat="43.8944105" lon="8.0498877"><ele>50.0</ele><time>2026-04-18T07:29:02.099Z</time></trkpt><trkpt lat="43.8943349" lon="8.0498373"><ele>50.00000000000001</ele><time>2026-04-18T07:29:03.1Z</time></trkpt><trkpt lat="43.8942341" lon="8.0498159"><ele>50.0</ele><time>2026-04-18T07:29:04.1Z</time></trkpt><trkpt lat="43.8941266" lon="8.0498116"><ele>47.333333333333336</ele><time>2026-04-18T07:29:05.1Z</time></trkpt><trkpt lat="43.8940275" lon="8.049787"><ele>44.66666666666667</ele><time>2026-04-18T07:29:06.099Z</time></trkpt><trkpt lat="43.8939245" lon="8.049729"><ele>42.0</ele><time>2026-04-18T07:29:07.1Z</time></trkpt><trkpt lat="43.8937062" lon="8.0495191"><ele>42.0</ele><time>2026-04-18T07:29:09.1Z</time></trkpt><trkpt lat="43.8935997" lon="8.0494165"><ele>42.0</ele><time>2026-04-18T07:29:10.099Z</time></trkpt><trkpt lat="43.8934843" lon="8.0493145"><ele>42.0</ele><time>2026-04-18T07:29:11.099Z</time></trkpt><trkpt lat="43.893367" lon="8.0492266"><ele>42.0</ele><time>2026-04-18T07:29:12.099Z</time></trkpt><trkpt lat="43.8932489" lon="8.0491701"><ele>41.25</ele><time>2026-04-18T07:29:13.099Z</time></trkpt><trkpt lat="43.8931316" lon="8.049085"><ele>40.5</ele><time>2026-04-18T07:29:14.1Z</time></trkpt><trkpt lat="43.8930046" lon="8.0489933"><ele>39.75</ele><time>2026-04-18T07:29:15.1Z</time></trkpt><trkpt lat="43.8928759" lon="8.0488983"><ele>39.0</ele><time>2026-04-18T07:29:16.1Z</time></trkpt><trkpt lat="43.8927565" lon="8.0488096"><ele>39.0</ele><time>2026-04-18T07:29:17.099Z</time></trkpt><trkpt lat="43.8926377" lon="8.0487245"><ele>39.0</ele><time>2026-04-18T07:29:18.1Z</time></trkpt><trkpt lat="43.89252" lon="8.0486391"><ele>39.0</ele><time>2026-04-18T07:29:19.1Z</time></trkpt><trkpt lat="43.8924075" lon="8.0485405"><ele>39.0</ele><time>2026-04-18T07:29:20.1Z</time></trkpt><trkpt lat="43.8923212" lon="8.0484126"><ele>37.5</ele><time>2026-04-18T07:29:21.099Z</time></trkpt><trkpt lat="43.8922649" lon="8.0482661"><ele>36.0</ele><time>2026-04-18T07:29:22.099Z</time></trkpt><trkpt lat="43.8922365" lon="8.0481065"><ele>34.5</ele><time>2026-04-18T07:29:23.099Z</time></trkpt><trkpt lat="43.8922341" lon="8.047925"><ele>33.0</ele><time>2026-04-18T07:29:24.1Z</time></trkpt><trkpt lat="43.8922416" lon="8.0477575"><ele>33.0</ele><time>2026-04-18T07:29:25.1Z</time></trkpt><trkpt lat="43.8922232" lon="8.047609"><ele>33.0</ele><time>2026-04-18T07:29:26.1Z</time></trkpt><trkpt lat="43.892156" lon="8.0474784"><ele>33.0</ele><time>2026-04-18T07:29:27.1Z</time></trkpt><trkpt lat="43.8920721" lon="8.0473631"><ele>33.0</ele><time>2026-04-18T07:29:28.1Z</time></trkpt><trkpt lat="43.8918342" lon="8.0472838"><ele>32.25</ele><time>2026-04-18T07:29:30.099Z</time></trkpt><trkpt lat="43.8917104" lon="8.0472854"><ele>31.5</ele><time>2026-04-18T07:29:31.1Z</time></trkpt><trkpt lat="43.8915802" lon="8.0472625"><ele>30.75</ele><time>2026-04-18T07:29:32.099Z</time></trkpt><trkpt lat="43.891454" lon="8.0471955"><ele>30.0</ele><time>2026-04-18T07:29:33.1Z</time></trkpt><trkpt lat="43.89134" lon="8.0470899"><ele>30.0</ele><time>2026-04-18T07:29:34.1Z</time></trkpt><trkpt lat="43.8912248" lon="8.0469657"><ele>30.0</ele><time>2026-04-18T07:29:35.1Z</time></trkpt><trkpt lat="43.8911191" lon="8.0468068"><ele>30.0</ele><time>2026-04-18T07:29:36.1Z</time></trkpt><trkpt lat="43.8909913" lon="8.0466769"><ele>30.75</ele><time>2026-04-18T07:29:37.1Z</time></trkpt><trkpt lat="43.8908645" lon="8.0465687"><ele>31.5</ele><time>2026-04-18T07:29:38.099Z</time></trkpt><trkpt lat="43.8907481" lon="8.046472"><ele>32.25</ele><time>2026-04-18T07:29:39.1Z</time></trkpt><trkpt lat="43.8906277" lon="8.0463653"><ele>33.0</ele><time>2026-04-18T07:29:40.099Z</time></trkpt><trkpt lat="43.8905172" lon="8.0462389"><ele>33.0</ele><time>2026-04-18T07:29:41.1Z</time></trkpt><trkpt lat="43.8903985" lon="8.0461187"><ele>33.0</ele><time>2026-04-18T07:29:42.1Z</time></trkpt><trkpt lat="43.8902767" lon="8.0459889"><ele>33.0</ele><time>2026-04-18T07:29:43.099Z</time></trkpt><trkpt lat="43.8901633" lon="8.0458781"><ele>33.0</ele><time>2026-04-18T07:29:44.099Z</time></trkpt><trkpt lat="43.8900523" lon="8.0457821"><ele>33.0</ele><time>2026-04-18T07:29:45.1Z</time></trkpt><trkpt lat="43.8899393" lon="8.0456708"><ele>33.0</ele><time>2026-04-18T07:29:46.1Z</time></trkpt><trkpt lat="43.8898243" lon="8.0455429"><ele>33.0</ele><time>2026-04-18T07:29:47.1Z</time></trkpt><trkpt lat="43.8897207" lon="8.045433"><ele>33.0</ele><time>2026-04-18T07:29:48.1Z</time></trkpt><trkpt lat="43.8896252" lon="8.045346"><ele>33.0</ele><time>2026-04-18T07:29:49.099Z</time></trkpt><trkpt lat="43.8894808" lon="8.0451011"><ele>33.0</ele><time>2026-04-18T07:29:51.1Z</time></trkpt><trkpt lat="43.8894503" lon="8.0449439"><ele>33.0</ele><time>2026-04-18T07:29:52.1Z</time></trkpt><trkpt lat="43.8894296" lon="8.0448327"><ele>33.0</ele><time>2026-04-18T07:29:53.1Z</time></trkpt><trkpt lat="43.8894143" lon="8.0447409"><ele>33.333333333333336</ele><time>2026-04-18T07:29:54.1Z</time></trkpt><trkpt lat="43.8893977" lon="8.0446256"><ele>33.666666666666664</ele><time>2026-04-18T07:29:57.1Z</time></trkpt><trkpt lat="43.8893844" lon="8.0445337"><ele>34.0</ele><time>2026-04-18T07:29:59.1Z</time></trkpt><trkpt lat="43.8893707" lon="8.0444187"><ele>34.33333333333333</ele><time>2026-04-18T07:30:01.1Z</time></trkpt><trkpt lat="43.8893651" lon="8.0442561"><ele>34.666666666666664</ele><time>2026-04-18T07:30:03.1Z</time></trkpt><trkpt lat="43.8893916" lon="8.0441319"><ele>35.0</ele><time>2026-04-18T07:30:04.099Z</time></trkpt><trkpt lat="43.8894278" lon="8.0439877"><ele>33.2</ele><time>2026-04-18T07:30:05.099Z</time></trkpt><trkpt lat="43.8894718" lon="8.0438437"><ele>31.4</ele><time>2026-04-18T07:30:06.1Z</time></trkpt><trkpt lat="43.88951" lon="8.0437091"><ele>29.6</ele><time>2026-04-18T07:30:07.1Z</time></trkpt><trkpt lat="43.8895432" lon="8.0435739"><ele>27.8</ele><time>2026-04-18T07:30:08.1Z</time></trkpt><trkpt lat="43.8895743" lon="8.043435"><ele>26.0</ele><time>2026-04-18T07:30:09.099Z</time></trkpt><trkpt lat="43.8896104" lon="8.0432903"><ele>25.25</ele><time>2026-04-18T07:30:10.1Z</time></trkpt><trkpt lat="43.8896844" lon="8.0430092"><ele>24.5</ele><time>2026-04-18T07:30:12.1Z</time></trkpt><trkpt lat="43.8897255" lon="8.0428885"><ele>23.75</ele><time>2026-04-18T07:30:13.1Z</time></trkpt><trkpt lat="43.8897894" lon="8.0428023"><ele>23.0</ele><time>2026-04-18T07:30:14.1Z</time></trkpt><trkpt lat="43.8898584" lon="8.0427268"><ele>23.0</ele><time>2026-04-18T07:30:15.1Z</time></trkpt><trkpt lat="43.8899328" lon="8.0426522"><ele>23.0</ele><time>2026-04-18T07:30:16.099Z</time></trkpt><trkpt lat="43.8900069" lon="8.0425817"><ele>23.0</ele><time>2026-04-18T07:30:17.101Z</time></trkpt><trkpt lat="43.8900749" lon="8.0425209"><ele>23.0</ele><time>2026-04-18T07:30:18.101Z</time></trkpt><trkpt lat="43.8901463" lon="8.0424835"><ele>23.0</ele><time>2026-04-18T07:30:19.1Z</time></trkpt><trkpt lat="43.890225" lon="8.0424679"><ele>23.0</ele><time>2026-04-18T07:30:20.101Z</time></trkpt><trkpt lat="43.8903033" lon="8.0424503"><ele>21.833333333333336</ele><time>2026-04-18T07:30:21.101Z</time></trkpt><trkpt lat="43.8903742" lon="8.0424333"><ele>20.666666666666668</ele><time>2026-04-18T07:30:22.101Z</time></trkpt><trkpt lat="43.8904395" lon="8.0424132"><ele>19.5</ele><time>2026-04-18T07:30:23.101Z</time></trkpt><trkpt lat="43.8905002" lon="8.0423876"><ele>18.333333333333332</ele><time>2026-04-18T07:30:24.101Z</time></trkpt><trkpt lat="43.8906153" lon="8.042354"><ele>17.166666666666664</ele><time>2026-04-18T07:30:26.101Z</time></trkpt><trkpt lat="43.8907169" lon="8.0423138"><ele>16.0</ele><time>2026-04-18T07:30:28.101Z</time></trkpt><trkpt lat="43.8908057" lon="8.0422904"><ele>16.0</ele><time>2026-04-18T07:30:30.101Z</time></trkpt><trkpt lat="43.8908744" lon="8.0422742"><ele>16.0</ele><time>2026-04-18T07:30:32.101Z</time></trkpt><trkpt lat="43.8910246" lon="8.0422435"><ele>16.0</ele><time>2026-04-18T07:30:36.101Z</time></trkpt><trkpt lat="43.8911027" lon="8.0422213"><ele>16.0</ele><time>2026-04-18T07:30:38.1Z</time></trkpt><trkpt lat="43.8911905" lon="8.0421801"><ele>16.0</ele><time>2026-04-18T07:30:40.101Z</time></trkpt><trkpt lat="43.8912942" lon="8.0421218"><ele>16.833333333333332</ele><time>2026-04-18T07:30:42.101Z</time></trkpt><trkpt lat="43.8913684" lon="8.042067"><ele>17.666666666666664</ele><time>2026-04-18T07:30:44.101Z</time></trkpt><trkpt lat="43.8914365" lon="8.0420018"><ele>18.5</ele><time>2026-04-18T07:30:46.101Z</time></trkpt><trkpt lat="43.8914964" lon="8.0419394"><ele>19.333333333333332</ele><time>2026-04-18T07:30:48.101Z</time></trkpt><trkpt lat="43.8915439" lon="8.0418778"><ele>20.166666666666668</ele><time>2026-04-18T07:30:50.101Z</time></trkpt><trkpt lat="43.8916008" lon="8.0418209"><ele>21.0</ele><time>2026-04-18T07:30:52.101Z</time></trkpt><trkpt lat="43.8916733" lon="8.0417398"><ele>20.75</ele><time>2026-04-18T07:30:54.101Z</time></trkpt><trkpt lat="43.8918195" lon="8.0415717"><ele>20.5</ele><time>2026-04-18T07:30:58.1Z</time></trkpt><trkpt lat="43.8918871" lon="8.0414806"><ele>20.25</ele><time>2026-04-18T07:31:00.101Z</time></trkpt><trkpt lat="43.8919738" lon="8.0413835"><ele>20.0</ele><time>2026-04-18T07:31:02.101Z</time></trkpt><trkpt lat="43.8920243" lon="8.0413277"><ele>20.0</ele><time>2026-04-18T07:31:03.1Z</time></trkpt><trkpt lat="43.8920874" lon="8.0412619"><ele>20.0</ele><time>2026-04-18T07:31:04.1Z</time></trkpt><trkpt lat="43.8921554" lon="8.0411952"><ele>20.0</ele><time>2026-04-18T07:31:05.101Z</time></trkpt><trkpt lat="43.8922337" lon="8.0411336"><ele>20.0</ele><time>2026-04-18T07:31:06.101Z</time></trkpt><trkpt lat="43.8923145" lon="8.0410844"><ele>20.0</ele><time>2026-04-18T07:31:07.101Z</time></trkpt><trkpt lat="43.892408" lon="8.0410338"><ele>20.0</ele><time>2026-04-18T07:31:08.101Z</time></trkpt><trkpt lat="43.8924996" lon="8.0409783"><ele>20.4</ele><time>2026-04-18T07:31:09.101Z</time></trkpt><trkpt lat="43.8925951" lon="8.0409285"><ele>20.8</ele><time>2026-04-18T07:31:10.101Z</time></trkpt><trkpt lat="43.8926915" lon="8.0408826"><ele>21.200000000000003</ele><time>2026-04-18T07:31:11.1Z</time></trkpt><trkpt lat="43.8927832" lon="8.0408347"><ele>21.6</ele><time>2026-04-18T07:31:12.1Z</time></trkpt><trkpt lat="43.8928756" lon="8.0407874"><ele>22.0</ele><time>2026-04-18T07:31:13.1Z</time></trkpt><trkpt lat="43.8929704" lon="8.0407404"><ele>21.200000000000003</ele><time>2026-04-18T07:31:14.1Z</time></trkpt><trkpt lat="43.8930602" lon="8.0406813"><ele>20.400000000000002</ele><time>2026-04-18T07:31:15.1Z</time></trkpt><trkpt lat="43.8932256" lon="8.0405957"><ele>19.6</ele><time>2026-04-18T07:31:17.1Z</time></trkpt><trkpt lat="43.8932939" lon="8.0405652"><ele>18.8</ele><time>2026-04-18T07:31:18.099Z</time></trkpt><trkpt lat="43.8933607" lon="8.0405324"><ele>18.0</ele><time>2026-04-18T07:31:19.099Z</time></trkpt><trkpt lat="43.8934721" lon="8.040527"><ele>17.833333333333332</ele><time>2026-04-18T07:31:21.099Z</time></trkpt><trkpt lat="43.8935824" lon="8.0404758"><ele>17.666666666666668</ele><time>2026-04-18T07:31:23.1Z</time></trkpt><trkpt lat="43.8936444" lon="8.040451"><ele>17.5</ele><time>2026-04-18T07:31:24.1Z</time></trkpt><trkpt lat="43.893707" lon="8.0404275"><ele>17.333333333333336</ele><time>2026-04-18T07:31:25.1Z</time></trkpt><trkpt lat="43.8937816" lon="8.0403961"><ele>17.166666666666668</ele><time>2026-04-18T07:31:26.1Z</time></trkpt><trkpt lat="43.8938599" lon="8.0403466"><ele>17.0</ele><time>2026-04-18T07:31:27.1Z</time></trkpt><trkpt lat="43.8939456" lon="8.0403007"><ele>17.0</ele><time>2026-04-18T07:31:28.1Z</time></trkpt><trkpt lat="43.8940371" lon="8.040247"><ele>17.0</ele><time>2026-04-18T07:31:29.1Z</time></trkpt><trkpt lat="43.8941344" lon="8.0401871"><ele>17.0</ele><time>2026-04-18T07:31:30.1Z</time></trkpt><trkpt lat="43.8942276" lon="8.0401373"><ele>17.0</ele><time>2026-04-18T07:31:31.101Z</time></trkpt><trkpt lat="43.8943138" lon="8.0400853"><ele>17.0</ele><time>2026-04-18T07:31:32.101Z</time></trkpt><trkpt lat="43.8943935" lon="8.0400408"><ele>17.25</ele><time>2026-04-18T07:31:33.101Z</time></trkpt><trkpt lat="43.894476" lon="8.0399886"><ele>17.5</ele><time>2026-04-18T07:31:34.101Z</time></trkpt><trkpt lat="43.8945741" lon="8.0399497"><ele>17.75</ele><time>2026-04-18T07:31:35.101Z</time></trkpt><trkpt lat="43.8946738" lon="8.0398924"><ele>18.0</ele><time>2026-04-18T07:31:36.1Z</time></trkpt><trkpt lat="43.8948624" lon="8.0397953"><ele>18.0</ele><time>2026-04-18T07:31:38.101Z</time></trkpt><trkpt lat="43.8949508" lon="8.0397424"><ele>18.0</ele><time>2026-04-18T07:31:39.101Z</time></trkpt><trkpt lat="43.8950419" lon="8.0396833"><ele>18.0</ele><time>2026-04-18T07:31:40.101Z</time></trkpt><trkpt lat="43.8951251" lon="8.0396121"><ele>18.0</ele><time>2026-04-18T07:31:41.101Z</time></trkpt><trkpt lat="43.8952052" lon="8.039534"><ele>18.0</ele><time>2026-04-18T07:31:42.101Z</time></trkpt><trkpt lat="43.8952782" lon="8.0394414"><ele>18.4</ele><time>2026-04-18T07:31:43.1Z</time></trkpt><trkpt lat="43.8953525" lon="8.0393468"><ele>18.8</ele><time>2026-04-18T07:31:44.1Z</time></trkpt><trkpt lat="43.8954353" lon="8.0392448"><ele>19.2</ele><time>2026-04-18T07:31:45.1Z</time></trkpt><trkpt lat="43.8955225" lon="8.0391438"><ele>19.6</ele><time>2026-04-18T07:31:46.101Z</time></trkpt><trkpt lat="43.8956006" lon="8.0390529"><ele>20.0</ele><time>2026-04-18T07:31:47.101Z</time></trkpt><trkpt lat="43.8956733" lon="8.0389653"><ele>19.833333333333336</ele><time>2026-04-18T07:31:48.101Z</time></trkpt><trkpt lat="43.8957412" lon="8.0388782"><ele>19.666666666666668</ele><time>2026-04-18T07:31:49.101Z</time></trkpt><trkpt lat="43.8958007" lon="8.0388136"><ele>19.5</ele><time>2026-04-18T07:31:50.101Z</time></trkpt><trkpt lat="43.8959037" lon="8.0387981"><ele>19.333333333333332</ele><time>2026-04-18T07:31:52.101Z</time></trkpt><trkpt lat="43.8959696" lon="8.0388085"><ele>19.166666666666664</ele><time>2026-04-18T07:31:54.101Z</time></trkpt><trkpt lat="43.8960399" lon="8.0387979"><ele>19.0</ele><time>2026-04-18T07:31:56.1Z</time></trkpt><trkpt lat="43.896098" lon="8.0387128"><ele>19.0</ele><time>2026-04-18T07:31:58.1Z</time></trkpt><trkpt lat="43.8960734" lon="8.0386476"><ele>19.0</ele><time>2026-04-18T07:34:00.101Z</time></trkpt><trkpt lat="43.8961143" lon="8.0385789"><ele>19.0</ele><time>2026-04-18T07:34:18.102Z</time></trkpt><trkpt lat="43.8961765" lon="8.0385497"><ele>19.0</ele><time>2026-04-18T07:34:21.102Z</time></trkpt><trkpt lat="43.8961747" lon="8.0384205"><ele>19.0</ele><time>2026-04-18T07:34:24.102Z</time></trkpt><trkpt lat="43.8961829" lon="8.0383099"><ele>19.0</ele><time>2026-04-18T07:34:27.101Z</time></trkpt><trkpt lat="43.8962743" lon="8.0381785"><ele>18.8</ele><time>2026-04-18T07:34:29.101Z</time></trkpt><trkpt lat="43.8963451" lon="8.0380911"><ele>18.599999999999998</ele><time>2026-04-18T07:34:30.102Z</time></trkpt><trkpt lat="43.89642" lon="8.0379911"><ele>18.4</ele><time>2026-04-18T07:34:31.101Z</time></trkpt><trkpt lat="43.8965012" lon="8.0378912"><ele>18.2</ele><time>2026-04-18T07:34:32.101Z</time></trkpt><trkpt lat="43.8965874" lon="8.0377944"><ele>18.0</ele><time>2026-04-18T07:34:33.101Z</time></trkpt><trkpt lat="43.8966755" lon="8.037693"><ele>18.0</ele><time>2026-04-18T07:34:34.102Z</time></trkpt><trkpt lat="43.8967642" lon="8.0375884"><ele>18.0</ele><time>2026-04-18T07:34:35.102Z</time></trkpt><trkpt lat="43.8968495" lon="8.0374795"><ele>18.0</ele><time>2026-04-18T07:34:36.101Z</time></trkpt><trkpt lat="43.8969301" lon="8.0373713"><ele>18.0</ele><time>2026-04-18T07:34:37.102Z</time></trkpt><trkpt lat="43.8970012" lon="8.0372655"><ele>18.0</ele><time>2026-04-18T07:34:38.102Z</time></trkpt><trkpt lat="43.8970573" lon="8.0371826"><ele>17.833333333333332</ele><time>2026-04-18T07:34:39.102Z</time></trkpt><trkpt lat="43.8971337" lon="8.0370941"><ele>17.666666666666668</ele><time>2026-04-18T07:34:41.102Z</time></trkpt><trkpt lat="43.8971908" lon="8.0369948"><ele>17.5</ele><time>2026-04-18T07:34:43.102Z</time></trkpt><trkpt lat="43.8972381" lon="8.0369279"><ele>17.333333333333336</ele><time>2026-04-18T07:34:45.101Z</time></trkpt><trkpt lat="43.8973039" lon="8.0368816"><ele>17.166666666666668</ele><time>2026-04-18T07:34:47.102Z</time></trkpt><trkpt lat="43.89736" lon="8.0368255"><ele>17.0</ele><time>2026-04-18T07:34:50.101Z</time></trkpt><trkpt lat="43.897402" lon="8.036739"><ele>17.0</ele><time>2026-04-18T07:34:53.101Z</time></trkpt><trkpt lat="43.8975045" lon="8.0366778"><ele>17.0</ele><time>2026-04-18T07:34:55.102Z</time></trkpt><trkpt lat="43.8975983" lon="8.036625"><ele>17.0</ele><time>2026-04-18T07:34:57.102Z</time></trkpt><trkpt lat="43.8976841" lon="8.0365943"><ele>17.0</ele><time>2026-04-18T07:34:59.101Z</time></trkpt><trkpt lat="43.8977588" lon="8.0365491"><ele>17.0</ele><time>2026-04-18T07:35:01.102Z</time></trkpt><trkpt lat="43.8978325" lon="8.0365318"><ele>17.0</ele><time>2026-04-18T07:35:03.102Z</time></trkpt><trkpt lat="43.897933" lon="8.0365125"><ele>17.0</ele><time>2026-04-18T07:35:05.102Z</time></trkpt><trkpt lat="43.8979962" lon="8.0365191"><ele>17.0</ele><time>2026-04-18T07:35:06.102Z</time></trkpt><trkpt lat="43.8980968" lon="8.0365697"><ele>17.0</ele><time>2026-04-18T07:35:08.101Z</time></trkpt><trkpt lat="43.8981508" lon="8.0366323"><ele>17.0</ele><time>2026-04-18T07:35:10.101Z</time></trkpt><trkpt lat="43.8982031" lon="8.0367383"><ele>17.0</ele><time>2026-04-18T07:35:12.102Z</time></trkpt><trkpt lat="43.8982271" lon="8.0368197"><ele>17.0</ele><time>2026-04-18T07:35:13.101Z</time></trkpt><trkpt lat="43.8982692" lon="8.0369042"><ele>17.0</ele><time>2026-04-18T07:35:14.102Z</time></trkpt><trkpt lat="43.898306" lon="8.0369816"><ele>17.0</ele><time>2026-04-18T07:35:15.101Z</time></trkpt><trkpt lat="43.8983651" lon="8.0370278"><ele>17.0</ele><time>2026-04-18T07:35:16.102Z</time></trkpt><trkpt lat="43.8984303" lon="8.0370798"><ele>17.0</ele><time>2026-04-18T07:35:17.102Z</time></trkpt><trkpt lat="43.898517" lon="8.0370572"><ele>17.0</ele><time>2026-04-18T07:35:18.102Z</time></trkpt><trkpt lat="43.8985877" lon="8.0370058"><ele>17.6</ele><time>2026-04-18T07:35:19.102Z</time></trkpt><trkpt lat="43.8986813" lon="8.0368881"><ele>18.2</ele><time>2026-04-18T07:35:21.102Z</time></trkpt><trkpt lat="43.8987065" lon="8.03673"><ele>18.8</ele><time>2026-04-18T07:35:23.101Z</time></trkpt><trkpt lat="43.8986919" lon="8.0366429"><ele>19.4</ele><time>2026-04-18T07:35:24.102Z</time></trkpt><trkpt lat="43.8986662" lon="8.036561"><ele>20.0</ele><time>2026-04-18T07:35:25.102Z</time></trkpt><trkpt lat="43.8986295" lon="8.0364136"><ele>20.25</ele><time>2026-04-18T07:35:27.102Z</time></trkpt><trkpt lat="43.8986157" lon="8.0362614"><ele>20.5</ele><time>2026-04-18T07:35:29.102Z</time></trkpt><trkpt lat="43.8986675" lon="8.0361244"><ele>20.75</ele><time>2026-04-18T07:35:31.102Z</time></trkpt><trkpt lat="43.8987564" lon="8.0360259"><ele>21.0</ele><time>2026-04-18T07:35:33.103Z</time></trkpt><trkpt lat="43.898861" lon="8.0359226"><ele>21.0</ele><time>2026-04-18T07:35:35.103Z</time></trkpt><trkpt lat="43.89892" lon="8.0358721"><ele>21.0</ele><time>2026-04-18T07:35:36.103Z</time></trkpt><trkpt lat="43.898978" lon="8.035822"><ele>21.0</ele><time>2026-04-18T07:35:37.103Z</time></trkpt><trkpt lat="43.8990379" lon="8.0357682"><ele>21.0</ele><time>2026-04-18T07:35:38.103Z</time></trkpt><trkpt lat="43.8991005" lon="8.0357138"><ele>21.0</ele><time>2026-04-18T07:35:39.103Z</time></trkpt><trkpt lat="43.8991633" lon="8.035659"><ele>21.0</ele><time>2026-04-18T07:35:40.102Z</time></trkpt><trkpt lat="43.8992166" lon="8.0356117"><ele>21.0</ele><time>2026-04-18T07:35:41.103Z</time></trkpt><trkpt lat="43.8992738" lon="8.0355522"><ele>21.333333333333332</ele><time>2026-04-18T07:35:47.103Z</time></trkpt><trkpt lat="43.8993822" lon="8.0354788"><ele>21.666666666666668</ele><time>2026-04-18T07:35:49.103Z</time></trkpt><trkpt lat="43.8994354" lon="8.0354302"><ele>22.0</ele><time>2026-04-18T07:35:50.102Z</time></trkpt><trkpt lat="43.8994962" lon="8.0353795"><ele>22.333333333333336</ele><time>2026-04-18T07:35:51.103Z</time></trkpt><trkpt lat="43.899564" lon="8.0353181"><ele>22.666666666666668</ele><time>2026-04-18T07:35:52.102Z</time></trkpt><trkpt lat="43.899627" lon="8.0352596"><ele>23.0</ele><time>2026-04-18T07:35:53.103Z</time></trkpt><trkpt lat="43.8996857" lon="8.035199"><ele>23.0</ele><time>2026-04-18T07:35:54.103Z</time></trkpt><trkpt lat="43.8997552" lon="8.0351194"><ele>23.0</ele><time>2026-04-18T07:35:55.102Z</time></trkpt><trkpt lat="43.8998345" lon="8.0350296"><ele>23.0</ele><time>2026-04-18T07:35:56.103Z</time></trkpt><trkpt lat="43.8999004" lon="8.0349441"><ele>23.0</ele><time>2026-04-18T07:35:57.103Z</time></trkpt><trkpt lat="43.8999592" lon="8.0348708"><ele>23.0</ele><time>2026-04-18T07:35:58.103Z</time></trkpt><trkpt lat="43.9000219" lon="8.0348048"><ele>23.0</ele><time>2026-04-18T07:35:59.103Z</time></trkpt><trkpt lat="43.9000891" lon="8.0347335"><ele>24.4</ele><time>2026-04-18T07:36:00.103Z</time></trkpt><trkpt lat="43.9001598" lon="8.0346537"><ele>25.799999999999997</ele><time>2026-04-18T07:36:01.103Z</time></trkpt><trkpt lat="43.9002298" lon="8.0345742"><ele>27.2</ele><time>2026-04-18T07:36:02.103Z</time></trkpt><trkpt lat="43.9002987" lon="8.0344896"><ele>28.6</ele><time>2026-04-18T07:36:03.103Z</time></trkpt><trkpt lat="43.900371" lon="8.0344028"><ele>30.0</ele><time>2026-04-18T07:36:04.103Z</time></trkpt><trkpt lat="43.9004502" lon="8.0343194"><ele>30.0</ele><time>2026-04-18T07:36:05.103Z</time></trkpt><trkpt lat="43.9005349" lon="8.0342319"><ele>30.0</ele><time>2026-04-18T07:36:06.103Z</time></trkpt><trkpt lat="43.9006184" lon="8.0341342"><ele>30.0</ele><time>2026-04-18T07:36:07.103Z</time></trkpt><trkpt lat="43.9006983" lon="8.0340316"><ele>30.0</ele><time>2026-04-18T07:36:08.103Z</time></trkpt><trkpt lat="43.90078" lon="8.0339321"><ele>30.0</ele><time>2026-04-18T07:36:09.103Z</time></trkpt><trkpt lat="43.900853" lon="8.0338226"><ele>31.0</ele><time>2026-04-18T07:36:10.103Z</time></trkpt><trkpt lat="43.90094" lon="8.0337594"><ele>32.0</ele><time>2026-04-18T07:36:11.103Z</time></trkpt><trkpt lat="43.9010286" lon="8.0336902"><ele>33.0</ele><time>2026-04-18T07:36:12.102Z</time></trkpt><trkpt lat="43.9010942" lon="8.0335881"><ele>34.0</ele><time>2026-04-18T07:36:13.103Z</time></trkpt><trkpt lat="43.9011698" lon="8.033495"><ele>35.0</ele><time>2026-04-18T07:36:14.103Z</time></trkpt><trkpt lat="43.9012394" lon="8.0334039"><ele>35.0</ele><time>2026-04-18T07:36:15.103Z</time></trkpt><trkpt lat="43.9013052" lon="8.0333243"><ele>35.0</ele><time>2026-04-18T07:36:16.102Z</time></trkpt><trkpt lat="43.90137" lon="8.0332355"><ele>35.0</ele><time>2026-04-18T07:36:17.103Z</time></trkpt><trkpt lat="43.9014392" lon="8.0331327"><ele>35.0</ele><time>2026-04-18T07:36:18.103Z</time></trkpt><trkpt lat="43.9014878" lon="8.0330019"><ele>35.0</ele><time>2026-04-18T07:36:19.103Z</time></trkpt><trkpt lat="43.9015295" lon="8.0328734"><ele>33.4</ele><time>2026-04-18T07:36:20.102Z</time></trkpt><trkpt lat="43.901572" lon="8.0327506"><ele>31.8</ele><time>2026-04-18T07:36:21.103Z</time></trkpt><trkpt lat="43.9016199" lon="8.0326396"><ele>30.200000000000003</ele><time>2026-04-18T07:36:22.103Z</time></trkpt><trkpt lat="43.9016744" lon="8.0325335"><ele>28.6</ele><time>2026-04-18T07:36:23.102Z</time></trkpt><trkpt lat="43.9017311" lon="8.032434"><ele>27.0</ele><time>2026-04-18T07:36:24.102Z</time></trkpt><trkpt lat="43.9018002" lon="8.0323413"><ele>27.0</ele><time>2026-04-18T07:36:25.102Z</time></trkpt><trkpt lat="43.9018755" lon="8.0322543"><ele>27.000000000000004</ele><time>2026-04-18T07:36:26.102Z</time></trkpt><trkpt lat="43.9019586" lon="8.0321792"><ele>27.000000000000004</ele><time>2026-04-18T07:36:27.103Z</time></trkpt><trkpt lat="43.9020451" lon="8.0321041"><ele>27.0</ele><time>2026-04-18T07:36:28.103Z</time></trkpt><trkpt lat="43.9021281" lon="8.0320295"><ele>27.0</ele><time>2026-04-18T07:36:29.102Z</time></trkpt><trkpt lat="43.9022048" lon="8.0319586"><ele>27.0</ele><time>2026-04-18T07:36:30.103Z</time></trkpt><trkpt lat="43.9022824" lon="8.0318914"><ele>27.000000000000004</ele><time>2026-04-18T07:36:31.103Z</time></trkpt><trkpt lat="43.9023627" lon="8.0318119"><ele>27.000000000000004</ele><time>2026-04-18T07:36:32.103Z</time></trkpt><trkpt lat="43.9024363" lon="8.0317272"><ele>27.0</ele><time>2026-04-18T07:36:33.103Z</time></trkpt><trkpt lat="43.9025015" lon="8.0316345"><ele>27.0</ele><time>2026-04-18T07:36:34.103Z</time></trkpt><trkpt lat="43.9025464" lon="8.031514"><ele>26.6</ele><time>2026-04-18T07:36:35.103Z</time></trkpt><trkpt lat="43.902573" lon="8.0313847"><ele>26.200000000000003</ele><time>2026-04-18T07:36:36.103Z</time></trkpt><trkpt lat="43.9025851" lon="8.0312609"><ele>25.8</ele><time>2026-04-18T07:36:37.103Z</time></trkpt><trkpt lat="43.9025904" lon="8.0311347"><ele>25.4</ele><time>2026-04-18T07:36:38.103Z</time></trkpt><trkpt lat="43.9025938" lon="8.031006"><ele>25.0</ele><time>2026-04-18T07:36:39.103Z</time></trkpt><trkpt lat="43.9025965" lon="8.0308786"><ele>32.5</ele><time>2026-04-18T07:36:40.103Z</time></trkpt><trkpt lat="43.9026013" lon="8.0307217"><ele>40.0</ele><time>2026-04-18T07:36:41.102Z</time></trkpt><trkpt lat="43.9026208" lon="8.0305405"><ele>47.5</ele><time>2026-04-18T07:36:42.102Z</time></trkpt><trkpt lat="43.9026409" lon="8.0303392"><ele>55.0</ele><time>2026-04-18T07:36:43.103Z</time></trkpt><trkpt lat="43.9026577" lon="8.0301574"><ele>56.25</ele><time>2026-04-18T07:36:44.103Z</time></trkpt><trkpt lat="43.9026689" lon="8.0299742"><ele>57.5</ele><time>2026-04-18T07:36:45.103Z</time></trkpt><trkpt lat="43.9026907" lon="8.0297983"><ele>58.75</ele><time>2026-04-18T07:36:46.102Z</time></trkpt><trkpt lat="43.9027128" lon="8.0296466"><ele>60.0</ele><time>2026-04-18T07:36:47.102Z</time></trkpt><trkpt lat="43.9027337" lon="8.0294937"><ele>60.0</ele><time>2026-04-18T07:36:48.102Z</time></trkpt><trkpt lat="43.9027454" lon="8.0293492"><ele>60.0</ele><time>2026-04-18T07:36:49.102Z</time></trkpt><trkpt lat="43.9027656" lon="8.0292169"><ele>60.0</ele><time>2026-04-18T07:36:50.103Z</time></trkpt><trkpt lat="43.9027849" lon="8.0290982"><ele>60.0</ele><time>2026-04-18T07:36:51.103Z</time></trkpt><trkpt lat="43.9027948" lon="8.0289826"><ele>60.0</ele><time>2026-04-18T07:36:52.103Z</time></trkpt><trkpt lat="43.9028133" lon="8.0288553"><ele>58.6</ele><time>2026-04-18T07:36:53.103Z</time></trkpt><trkpt lat="43.9028343" lon="8.028726"><ele>57.2</ele><time>2026-04-18T07:36:54.103Z</time></trkpt><trkpt lat="43.9028611" lon="8.0285847"><ele>55.8</ele><time>2026-04-18T07:36:55.103Z</time></trkpt><trkpt lat="43.9028946" lon="8.0284392"><ele>54.4</ele><time>2026-04-18T07:36:56.103Z</time></trkpt><trkpt lat="43.9029372" lon="8.0282958"><ele>53.0</ele><time>2026-04-18T07:36:57.102Z</time></trkpt><trkpt lat="43.9029843" lon="8.0281527"><ele>49.0</ele><time>2026-04-18T07:36:58.103Z</time></trkpt><trkpt lat="43.903037" lon="8.0279973"><ele>45.0</ele><time>2026-04-18T07:36:59.103Z</time></trkpt><trkpt lat="43.9030892" lon="8.0278399"><ele>41.0</ele><time>2026-04-18T07:37:00.103Z</time></trkpt><trkpt lat="43.9031348" lon="8.0277035"><ele>37.0</ele><time>2026-04-18T07:37:01.103Z</time></trkpt><trkpt lat="43.9031762" lon="8.0275851"><ele>37.0</ele><time>2026-04-18T07:37:02.102Z</time></trkpt><trkpt lat="43.9032257" lon="8.0274787"><ele>37.0</ele><time>2026-04-18T07:37:03.102Z</time></trkpt><trkpt lat="43.9032983" lon="8.027403"><ele>37.0</ele><time>2026-04-18T07:37:04.103Z</time></trkpt><trkpt lat="43.9033984" lon="8.0273576"><ele>37.0</ele><time>2026-04-18T07:37:05.103Z</time></trkpt><trkpt lat="43.9035057" lon="8.0273174"><ele>37.0</ele><time>2026-04-18T07:37:06.102Z</time></trkpt><trkpt lat="43.903637" lon="8.0272761"><ele>30.666666666666668</ele><time>2026-04-18T07:37:07.103Z</time></trkpt><trkpt lat="43.9038082" lon="8.0272467"><ele>24.333333333333336</ele><time>2026-04-18T07:37:08.103Z</time></trkpt><trkpt lat="43.9039877" lon="8.0272265"><ele>18.0</ele><time>2026-04-18T07:37:09.103Z</time></trkpt><trkpt lat="43.9041501" lon="8.027242"><ele>19.0</ele><time>2026-04-18T07:37:10.103Z</time></trkpt><trkpt lat="43.9042929" lon="8.0272788"><ele>20.0</ele><time>2026-04-18T07:37:11.103Z</time></trkpt><trkpt lat="43.9044073" lon="8.0273033"><ele>21.0</ele><time>2026-04-18T07:37:12.102Z</time></trkpt><trkpt lat="43.9045208" lon="8.0273098"><ele>22.0</ele><time>2026-04-18T07:37:13.103Z</time></trkpt><trkpt lat="43.9046447" lon="8.027293"><ele>22.0</ele><time>2026-04-18T07:37:14.103Z</time></trkpt><trkpt lat="43.9047719" lon="8.0272673"><ele>22.0</ele><time>2026-04-18T07:37:15.103Z</time></trkpt><trkpt lat="43.9048751" lon="8.0272504"><ele>22.0</ele><time>2026-04-18T07:37:16.103Z</time></trkpt><trkpt lat="43.9049738" lon="8.0272405"><ele>22.0</ele><time>2026-04-18T07:37:17.103Z</time></trkpt><trkpt lat="43.9050989" lon="8.0272189"><ele>23.0</ele><time>2026-04-18T07:37:18.102Z</time></trkpt><trkpt lat="43.9052489" lon="8.0271991"><ele>24.0</ele><time>2026-04-18T07:37:19.103Z</time></trkpt><trkpt lat="43.9053993" lon="8.0271741"><ele>25.0</ele><time>2026-04-18T07:37:20.103Z</time></trkpt><trkpt lat="43.905548" lon="8.0271377"><ele>25.0</ele><time>2026-04-18T07:37:21.104Z</time></trkpt><trkpt lat="43.9056868" lon="8.0270972"><ele>25.0</ele><time>2026-04-18T07:37:22.103Z</time></trkpt><trkpt lat="43.905822" lon="8.0270755"><ele>25.0</ele><time>2026-04-18T07:37:23.104Z</time></trkpt><trkpt lat="43.9059502" lon="8.0270839"><ele>25.0</ele><time>2026-04-18T07:37:24.103Z</time></trkpt><trkpt lat="43.9060782" lon="8.0271141"><ele>25.5</ele><time>2026-04-18T07:37:25.104Z</time></trkpt><trkpt lat="43.9062068" lon="8.0271448"><ele>26.0</ele><time>2026-04-18T07:37:26.104Z</time></trkpt><trkpt lat="43.9063327" lon="8.0271624"><ele>26.5</ele><time>2026-04-18T07:37:27.104Z</time></trkpt><trkpt lat="43.9064561" lon="8.0271398"><ele>27.0</ele><time>2026-04-18T07:37:28.104Z</time></trkpt><trkpt lat="43.906575" lon="8.0270845"><ele>27.0</ele><time>2026-04-18T07:37:29.103Z</time></trkpt><trkpt lat="43.9066893" lon="8.027016"><ele>27.0</ele><time>2026-04-18T07:37:30.103Z</time></trkpt><trkpt lat="43.9068098" lon="8.0269442"><ele>27.0</ele><time>2026-04-18T07:37:31.104Z</time></trkpt><trkpt lat="43.9069311" lon="8.026878"><ele>27.0</ele><time>2026-04-18T07:37:32.103Z</time></trkpt><trkpt lat="43.9070533" lon="8.0268151"><ele>25.25</ele><time>2026-04-18T07:37:33.104Z</time></trkpt><trkpt lat="43.9071767" lon="8.0267589"><ele>23.5</ele><time>2026-04-18T07:37:34.104Z</time></trkpt><trkpt lat="43.9073102" lon="8.0267099"><ele>21.75</ele><time>2026-04-18T07:37:35.104Z</time></trkpt><trkpt lat="43.9074408" lon="8.0266676"><ele>20.0</ele><time>2026-04-18T07:37:36.103Z</time></trkpt><trkpt lat="43.907573" lon="8.0266287"><ele>20.25</ele><time>2026-04-18T07:37:37.104Z</time></trkpt><trkpt lat="43.9077025" lon="8.0266058"><ele>20.5</ele><time>2026-04-18T07:37:38.104Z</time></trkpt><trkpt lat="43.9078363" lon="8.0266039"><ele>20.75</ele><time>2026-04-18T07:37:39.104Z</time></trkpt><trkpt lat="43.9079738" lon="8.0266233"><ele>21.0</ele><time>2026-04-18T07:37:40.104Z</time></trkpt><trkpt lat="43.9081161" lon="8.0266536"><ele>25.666666666666664</ele><time>2026-04-18T07:37:41.104Z</time></trkpt><trkpt lat="43.9082607" lon="8.0267028"><ele>30.333333333333332</ele><time>2026-04-18T07:37:42.103Z</time></trkpt><trkpt lat="43.9084183" lon="8.0267494"><ele>35.0</ele><time>2026-04-18T07:37:43.103Z</time></trkpt><trkpt lat="43.9085715" lon="8.0267876"><ele>35.0</ele><time>2026-04-18T07:37:44.104Z</time></trkpt><trkpt lat="43.9087282" lon="8.0268147"><ele>35.0</ele><time>2026-04-18T07:37:45.104Z</time></trkpt><trkpt lat="43.9088818" lon="8.0268364"><ele>35.0</ele><time>2026-04-18T07:37:46.103Z</time></trkpt><trkpt lat="43.9090264" lon="8.0268535"><ele>35.0</ele><time>2026-04-18T07:37:47.103Z</time></trkpt><trkpt lat="43.9091539" lon="8.0268612"><ele>35.0</ele><time>2026-04-18T07:37:48.104Z</time></trkpt><trkpt lat="43.9092781" lon="8.0268722"><ele>35.0</ele><time>2026-04-18T07:37:49.103Z</time></trkpt><trkpt lat="43.9093946" lon="8.0269005"><ele>35.0</ele><time>2026-04-18T07:37:50.104Z</time></trkpt><trkpt lat="43.9094964" lon="8.0269572"><ele>32.5</ele><time>2026-04-18T07:37:51.104Z</time></trkpt><trkpt lat="43.9095921" lon="8.027074"><ele>30.0</ele><time>2026-04-18T07:37:52.104Z</time></trkpt><trkpt lat="43.9096823" lon="8.027211"><ele>27.5</ele><time>2026-04-18T07:37:53.104Z</time></trkpt><trkpt lat="43.9097728" lon="8.0273414"><ele>25.0</ele><time>2026-04-18T07:37:54.103Z</time></trkpt><trkpt lat="43.9098809" lon="8.0274406"><ele>27.5</ele><time>2026-04-18T07:37:55.104Z</time></trkpt><trkpt lat="43.9100045" lon="8.0275057"><ele>30.0</ele><time>2026-04-18T07:37:56.103Z</time></trkpt><trkpt lat="43.9101304" lon="8.0275587"><ele>32.5</ele><time>2026-04-18T07:37:57.104Z</time></trkpt><trkpt lat="43.9102627" lon="8.0276079"><ele>35.0</ele><time>2026-04-18T07:37:58.104Z</time></trkpt><trkpt lat="43.9104126" lon="8.0276624"><ele>35.0</ele><time>2026-04-18T07:37:59.104Z</time></trkpt><trkpt lat="43.9105646" lon="8.0277004"><ele>35.0</ele><time>2026-04-18T07:38:00.104Z</time></trkpt><trkpt lat="43.9107076" lon="8.0277112"><ele>35.0</ele><time>2026-04-18T07:38:01.104Z</time></trkpt><trkpt lat="43.9108576" lon="8.0277046"><ele>35.0</ele><time>2026-04-18T07:38:02.104Z</time></trkpt><trkpt lat="43.9110172" lon="8.0276926"><ele>36.25</ele><time>2026-04-18T07:38:03.103Z</time></trkpt><trkpt lat="43.9111649" lon="8.0276809"><ele>37.5</ele><time>2026-04-18T07:38:04.104Z</time></trkpt><trkpt lat="43.9112994" lon="8.0276686"><ele>38.75</ele><time>2026-04-18T07:38:05.104Z</time></trkpt><trkpt lat="43.9114286" lon="8.0276648"><ele>40.0</ele><time>2026-04-18T07:38:06.104Z</time></trkpt><trkpt lat="43.9115577" lon="8.0276535"><ele>40.0</ele><time>2026-04-18T07:38:07.104Z</time></trkpt><trkpt lat="43.9116908" lon="8.0276321"><ele>40.0</ele><time>2026-04-18T07:38:08.104Z</time></trkpt><trkpt lat="43.9118206" lon="8.0275751"><ele>40.0</ele><time>2026-04-18T07:38:09.104Z</time></trkpt><trkpt lat="43.911936" lon="8.0274724"><ele>40.0</ele><time>2026-04-18T07:38:10.104Z</time></trkpt><trkpt lat="43.9120466" lon="8.0273627"><ele>37.75</ele><time>2026-04-18T07:38:11.104Z</time></trkpt><trkpt lat="43.9121536" lon="8.0272626"><ele>35.5</ele><time>2026-04-18T07:38:12.103Z</time></trkpt><trkpt lat="43.9122749" lon="8.0271949"><ele>33.25</ele><time>2026-04-18T07:38:13.104Z</time></trkpt><trkpt lat="43.9124062" lon="8.0271354"><ele>31.0</ele><time>2026-04-18T07:38:14.104Z</time></trkpt><trkpt lat="43.9125437" lon="8.0270782"><ele>32.0</ele><time>2026-04-18T07:38:15.104Z</time></trkpt><trkpt lat="43.9126681" lon="8.0270258"><ele>33.0</ele><time>2026-04-18T07:38:16.104Z</time></trkpt><trkpt lat="43.9127885" lon="8.026973"><ele>34.0</ele><time>2026-04-18T07:38:17.104Z</time></trkpt><trkpt lat="43.9129076" lon="8.0269049"><ele>35.0</ele><time>2026-04-18T07:38:18.103Z</time></trkpt><trkpt lat="43.9130222" lon="8.0268465"><ele>35.0</ele><time>2026-04-18T07:38:19.103Z</time></trkpt><trkpt lat="43.9131467" lon="8.0268025"><ele>35.0</ele><time>2026-04-18T07:38:20.103Z</time></trkpt><trkpt lat="43.9132699" lon="8.0267862"><ele>35.0</ele><time>2026-04-18T07:38:21.104Z</time></trkpt><trkpt lat="43.9133815" lon="8.0267891"><ele>35.0</ele><time>2026-04-18T07:38:22.104Z</time></trkpt><trkpt lat="43.9134953" lon="8.0268"><ele>35.4</ele><time>2026-04-18T07:38:23.104Z</time></trkpt><trkpt lat="43.9136022" lon="8.0268219"><ele>35.8</ele><time>2026-04-18T07:38:24.104Z</time></trkpt><trkpt lat="43.9136995" lon="8.0268768"><ele>36.2</ele><time>2026-04-18T07:38:25.104Z</time></trkpt><trkpt lat="43.9137784" lon="8.0269544"><ele>36.6</ele><time>2026-04-18T07:38:26.104Z</time></trkpt><trkpt lat="43.9138529" lon="8.0270458"><ele>37.0</ele><time>2026-04-18T07:38:27.104Z</time></trkpt><trkpt lat="43.9139213" lon="8.0271315"><ele>37.0</ele><time>2026-04-18T07:38:28.104Z</time></trkpt><trkpt lat="43.9139881" lon="8.0271799"><ele>37.0</ele><time>2026-04-18T07:38:29.104Z</time></trkpt><trkpt lat="43.9140679" lon="8.0272009"><ele>37.0</ele><time>2026-04-18T07:38:30.103Z</time></trkpt><trkpt lat="43.9141652" lon="8.0271875"><ele>37.0</ele><time>2026-04-18T07:38:31.104Z</time></trkpt><trkpt lat="43.9142627" lon="8.027125"><ele>37.0</ele><time>2026-04-18T07:38:32.104Z</time></trkpt><trkpt lat="43.9143678" lon="8.0270189"><ele>39.0</ele><time>2026-04-18T07:38:33.103Z</time></trkpt><trkpt lat="43.914492" lon="8.0269209"><ele>41.0</ele><time>2026-04-18T07:38:34.104Z</time></trkpt><trkpt lat="43.9146306" lon="8.0268222"><ele>43.0</ele><time>2026-04-18T07:38:35.104Z</time></trkpt><trkpt lat="43.9147701" lon="8.0267218"><ele>41.0</ele><time>2026-04-18T07:38:36.104Z</time></trkpt><trkpt lat="43.9149022" lon="8.0266237"><ele>39.0</ele><time>2026-04-18T07:38:37.104Z</time></trkpt><trkpt lat="43.9150264" lon="8.0265412"><ele>37.0</ele><time>2026-04-18T07:38:38.104Z</time></trkpt><trkpt lat="43.915135" lon="8.0264576"><ele>35.0</ele><time>2026-04-18T07:38:39.103Z</time></trkpt><trkpt lat="43.9152352" lon="8.0263993"><ele>35.0</ele><time>2026-04-18T07:38:40.104Z</time></trkpt><trkpt lat="43.9153456" lon="8.0263443"><ele>35.0</ele><time>2026-04-18T07:38:41.104Z</time></trkpt><trkpt lat="43.9154597" lon="8.0262905"><ele>35.0</ele><time>2026-04-18T07:38:42.104Z</time></trkpt><trkpt lat="43.9155703" lon="8.0262394"><ele>35.0</ele><time>2026-04-18T07:38:43.104Z</time></trkpt><trkpt lat="43.9156765" lon="8.0261772"><ele>35.0</ele><time>2026-04-18T07:38:44.104Z</time></trkpt><trkpt lat="43.9157737" lon="8.0260979"><ele>35.0</ele><time>2026-04-18T07:38:45.104Z</time></trkpt><trkpt lat="43.9158546" lon="8.026011"><ele>35.0</ele><time>2026-04-18T07:38:46.104Z</time></trkpt><trkpt lat="43.9159372" lon="8.0259223"><ele>35.0</ele><time>2026-04-18T07:38:47.104Z</time></trkpt><trkpt lat="43.9160307" lon="8.025852"><ele>35.0</ele><time>2026-04-18T07:38:48.104Z</time></trkpt><trkpt lat="43.9161309" lon="8.0258114"><ele>35.666666666666664</ele><time>2026-04-18T07:38:49.104Z</time></trkpt><trkpt lat="43.916224" lon="8.0257956"><ele>36.33333333333333</ele><time>2026-04-18T07:38:50.103Z</time></trkpt><trkpt lat="43.9163125" lon="8.0257933"><ele>37.0</ele><time>2026-04-18T07:38:51.104Z</time></trkpt><trkpt lat="43.9163892" lon="8.0258009"><ele>37.666666666666664</ele><time>2026-04-18T07:38:52.104Z</time></trkpt><trkpt lat="43.9164552" lon="8.0258091"><ele>38.333333333333336</ele><time>2026-04-18T07:38:53.103Z</time></trkpt><trkpt lat="43.9165218" lon="8.0258244"><ele>39.0</ele><time>2026-04-18T07:38:54.104Z</time></trkpt><trkpt lat="43.9165961" lon="8.0258445"><ele>39.0</ele><time>2026-04-18T07:38:55.103Z</time></trkpt><trkpt lat="43.9166896" lon="8.0258776"><ele>39.0</ele><time>2026-04-18T07:38:56.104Z</time></trkpt><trkpt lat="43.9167799" lon="8.0259289"><ele>39.0</ele><time>2026-04-18T07:38:57.104Z</time></trkpt><trkpt lat="43.9168597" lon="8.0259684"><ele>39.0</ele><time>2026-04-18T07:38:58.104Z</time></trkpt><trkpt lat="43.9169182" lon="8.0260022"><ele>39.0</ele><time>2026-04-18T07:38:59.103Z</time></trkpt><trkpt lat="43.91703" lon="8.0260367"><ele>39.0</ele><time>2026-04-18T07:39:01.104Z</time></trkpt><trkpt lat="43.9171418" lon="8.0260683"><ele>39.0</ele><time>2026-04-18T07:39:03.104Z</time></trkpt><trkpt lat="43.9172294" lon="8.026075"><ele>39.0</ele><time>2026-04-18T07:39:04.103Z</time></trkpt><trkpt lat="43.917331" lon="8.0260809"><ele>39.0</ele><time>2026-04-18T07:39:05.104Z</time></trkpt><trkpt lat="43.9174283" lon="8.0260848"><ele>39.0</ele><time>2026-04-18T07:39:06.105Z</time></trkpt><trkpt lat="43.9175207" lon="8.0260739"><ele>39.2</ele><time>2026-04-18T07:39:07.105Z</time></trkpt><trkpt lat="43.9176174" lon="8.0260551"><ele>39.4</ele><time>2026-04-18T07:39:08.105Z</time></trkpt><trkpt lat="43.9177083" lon="8.026032"><ele>39.6</ele><time>2026-04-18T07:39:09.105Z</time></trkpt><trkpt lat="43.9178096" lon="8.0259931"><ele>39.8</ele><time>2026-04-18T07:39:10.104Z</time></trkpt><trkpt lat="43.9179103" lon="8.025936"><ele>40.0</ele><time>2026-04-18T07:39:11.104Z</time></trkpt><trkpt lat="43.9180309" lon="8.025863"><ele>39.0</ele><time>2026-04-18T07:39:12.105Z</time></trkpt><trkpt lat="43.9181737" lon="8.0257869"><ele>38.0</ele><time>2026-04-18T07:39:13.105Z</time></trkpt><trkpt lat="43.9183242" lon="8.0257083"><ele>37.0</ele><time>2026-04-18T07:39:14.105Z</time></trkpt><trkpt lat="43.9184628" lon="8.0256429"><ele>37.0</ele><time>2026-04-18T07:39:15.105Z</time></trkpt><trkpt lat="43.9186017" lon="8.025592"><ele>37.0</ele><time>2026-04-18T07:39:16.105Z</time></trkpt><trkpt lat="43.9187373" lon="8.0255414"><ele>37.0</ele><time>2026-04-18T07:39:17.105Z</time></trkpt><trkpt lat="43.9188981" lon="8.0254899"><ele>37.0</ele><time>2026-04-18T07:39:18.105Z</time></trkpt><trkpt lat="43.9190635" lon="8.0254514"><ele>37.0</ele><time>2026-04-18T07:39:19.105Z</time></trkpt><trkpt lat="43.9192264" lon="8.0254197"><ele>37.0</ele><time>2026-04-18T07:39:20.105Z</time></trkpt><trkpt lat="43.9193757" lon="8.025391"><ele>37.0</ele><time>2026-04-18T07:39:21.105Z</time></trkpt><trkpt lat="43.91951" lon="8.0253633"><ele>38.75</ele><time>2026-04-18T07:39:22.105Z</time></trkpt><trkpt lat="43.9196336" lon="8.0253337"><ele>40.5</ele><time>2026-04-18T07:39:23.104Z</time></trkpt><trkpt lat="43.9197567" lon="8.0253088"><ele>42.25</ele><time>2026-04-18T07:39:24.104Z</time></trkpt><trkpt lat="43.9198636" lon="8.0252916"><ele>44.0</ele><time>2026-04-18T07:39:25.105Z</time></trkpt><trkpt lat="43.9199678" lon="8.0252745"><ele>44.25</ele><time>2026-04-18T07:39:26.105Z</time></trkpt><trkpt lat="43.9200833" lon="8.0252518"><ele>44.5</ele><time>2026-04-18T07:39:27.104Z</time></trkpt><trkpt lat="43.9202175" lon="8.0252355"><ele>44.75</ele><time>2026-04-18T07:39:28.104Z</time></trkpt><trkpt lat="43.9203542" lon="8.0252198"><ele>45.0</ele><time>2026-04-18T07:39:29.105Z</time></trkpt><trkpt lat="43.9204794" lon="8.0252109"><ele>45.0</ele><time>2026-04-18T07:39:30.105Z</time></trkpt><trkpt lat="43.9205954" lon="8.0251987"><ele>45.0</ele><time>2026-04-18T07:39:31.105Z</time></trkpt><trkpt lat="43.9206993" lon="8.0251877"><ele>45.0</ele><time>2026-04-18T07:39:32.105Z</time></trkpt><trkpt lat="43.9208036" lon="8.0251804"><ele>45.0</ele><time>2026-04-18T07:39:33.105Z</time></trkpt><trkpt lat="43.9209062" lon="8.0251648"><ele>45.0</ele><time>2026-04-18T07:39:34.105Z</time></trkpt><trkpt lat="43.9210006" lon="8.0251501"><ele>45.0</ele><time>2026-04-18T07:39:35.105Z</time></trkpt><trkpt lat="43.9210901" lon="8.0251411"><ele>45.0</ele><time>2026-04-18T07:39:36.105Z</time></trkpt><trkpt lat="43.9211878" lon="8.025127"><ele>45.0</ele><time>2026-04-18T07:39:37.105Z</time></trkpt><trkpt lat="43.9213023" lon="8.0251159"><ele>45.0</ele><time>2026-04-18T07:39:38.105Z</time></trkpt><trkpt lat="43.9214213" lon="8.0251062"><ele>45.0</ele><time>2026-04-18T07:39:39.104Z</time></trkpt><trkpt lat="43.921532" lon="8.0250954"><ele>45.0</ele><time>2026-04-18T07:39:40.105Z</time></trkpt><trkpt lat="43.9216355" lon="8.0250796"><ele>45.0</ele><time>2026-04-18T07:39:41.105Z</time></trkpt><trkpt lat="43.9217427" lon="8.0250688"><ele>45.0</ele><time>2026-04-18T07:39:42.105Z</time></trkpt><trkpt lat="43.9218555" lon="8.0250629"><ele>45.0</ele><time>2026-04-18T07:39:43.104Z</time></trkpt><trkpt lat="43.9219742" lon="8.0250544"><ele>45.0</ele><time>2026-04-18T07:39:44.105Z</time></trkpt><trkpt lat="43.9220937" lon="8.0250451"><ele>45.5</ele><time>2026-04-18T07:39:45.104Z</time></trkpt><trkpt lat="43.9222142" lon="8.0250396"><ele>46.0</ele><time>2026-04-18T07:39:46.105Z</time></trkpt><trkpt lat="43.9223373" lon="8.0250263"><ele>46.5</ele><time>2026-04-18T07:39:47.105Z</time></trkpt><trkpt lat="43.9224627" lon="8.0250159"><ele>47.0</ele><time>2026-04-18T07:39:48.105Z</time></trkpt><trkpt lat="43.9225854" lon="8.0250063"><ele>46.25</ele><time>2026-04-18T07:39:49.105Z</time></trkpt><trkpt lat="43.9227025" lon="8.0249878"><ele>45.5</ele><time>2026-04-18T07:39:50.105Z</time></trkpt><trkpt lat="43.9228301" lon="8.0249601"><ele>44.75</ele><time>2026-04-18T07:39:51.105Z</time></trkpt><trkpt lat="43.9229524" lon="8.0248939"><ele>44.0</ele><time>2026-04-18T07:39:52.105Z</time></trkpt><trkpt lat="43.9230706" lon="8.0248024"><ele>44.0</ele><time>2026-04-18T07:39:53.104Z</time></trkpt><trkpt lat="43.9231754" lon="8.0246836"><ele>44.0</ele><time>2026-04-18T07:39:54.105Z</time></trkpt><trkpt lat="43.9232752" lon="8.0245586"><ele>44.0</ele><time>2026-04-18T07:39:55.105Z</time></trkpt><trkpt lat="43.9233774" lon="8.0244298"><ele>44.0</ele><time>2026-04-18T07:39:56.105Z</time></trkpt><trkpt lat="43.9234815" lon="8.0243013"><ele>43.75</ele><time>2026-04-18T07:39:57.105Z</time></trkpt><trkpt lat="43.9235874" lon="8.0241736"><ele>43.5</ele><time>2026-04-18T07:39:58.104Z</time></trkpt><trkpt lat="43.923689" lon="8.02404"><ele>43.25</ele><time>2026-04-18T07:39:59.105Z</time></trkpt><trkpt lat="43.9237866" lon="8.0239097"><ele>43.0</ele><time>2026-04-18T07:40:00.104Z</time></trkpt><trkpt lat="43.9238832" lon="8.0237846"><ele>43.0</ele><time>2026-04-18T07:40:01.105Z</time></trkpt><trkpt lat="43.9239867" lon="8.0236642"><ele>43.0</ele><time>2026-04-18T07:40:02.104Z</time></trkpt><trkpt lat="43.924105" lon="8.0235484"><ele>43.0</ele><time>2026-04-18T07:40:03.105Z</time></trkpt><trkpt lat="43.9242268" lon="8.0234271"><ele>43.0</ele><time>2026-04-18T07:40:04.104Z</time></trkpt><trkpt lat="43.9243577" lon="8.0232939"><ele>44.333333333333336</ele><time>2026-04-18T07:40:05.105Z</time></trkpt><trkpt lat="43.9244853" lon="8.0231417"><ele>45.666666666666664</ele><time>2026-04-18T07:40:06.105Z</time></trkpt><trkpt lat="43.9246194" lon="8.0229936"><ele>47.0</ele><time>2026-04-18T07:40:07.105Z</time></trkpt><trkpt lat="43.9247488" lon="8.0228405"><ele>47.0</ele><time>2026-04-18T07:40:08.105Z</time></trkpt><trkpt lat="43.9248713" lon="8.0226898"><ele>47.0</ele><time>2026-04-18T07:40:09.105Z</time></trkpt><trkpt lat="43.9249909" lon="8.0225467"><ele>47.0</ele><time>2026-04-18T07:40:10.104Z</time></trkpt><trkpt lat="43.9251044" lon="8.0223993"><ele>47.75</ele><time>2026-04-18T07:40:11.104Z</time></trkpt><trkpt lat="43.9252144" lon="8.0222543"><ele>48.5</ele><time>2026-04-18T07:40:12.105Z</time></trkpt><trkpt lat="43.9253202" lon="8.0221086"><ele>49.25</ele><time>2026-04-18T07:40:13.104Z</time></trkpt><trkpt lat="43.9254213" lon="8.0219666"><ele>50.0</ele><time>2026-04-18T07:40:14.104Z</time></trkpt><trkpt lat="43.9255146" lon="8.0218323"><ele>50.0</ele><time>2026-04-18T07:40:15.104Z</time></trkpt><trkpt lat="43.9256031" lon="8.0217032"><ele>50.0</ele><time>2026-04-18T07:40:16.104Z</time></trkpt><trkpt lat="43.9257055" lon="8.0215657"><ele>50.0</ele><time>2026-04-18T07:40:17.105Z</time></trkpt><trkpt lat="43.9258113" lon="8.0214212"><ele>50.0</ele><time>2026-04-18T07:40:18.104Z</time></trkpt><trkpt lat="43.9259125" lon="8.021296"><ele>49.8</ele><time>2026-04-18T07:40:19.104Z</time></trkpt><trkpt lat="43.9260031" lon="8.0211997"><ele>49.6</ele><time>2026-04-18T07:40:20.104Z</time></trkpt><trkpt lat="43.9260796" lon="8.0211203"><ele>49.400000000000006</ele><time>2026-04-18T07:40:21.105Z</time></trkpt><trkpt lat="43.9261502" lon="8.021041"><ele>49.2</ele><time>2026-04-18T07:40:22.105Z</time></trkpt><trkpt lat="43.9262235" lon="8.0209337"><ele>49.0</ele><time>2026-04-18T07:40:23.104Z</time></trkpt><trkpt lat="43.9262902" lon="8.0207953"><ele>49.0</ele><time>2026-04-18T07:40:24.104Z</time></trkpt><trkpt lat="43.9263637" lon="8.0206193"><ele>49.0</ele><time>2026-04-18T07:40:25.104Z</time></trkpt><trkpt lat="43.9264564" lon="8.0204288"><ele>49.0</ele><time>2026-04-18T07:40:26.105Z</time></trkpt><trkpt lat="43.9265645" lon="8.0202199"><ele>49.0</ele><time>2026-04-18T07:40:27.105Z</time></trkpt><trkpt lat="43.9266951" lon="8.0200162"><ele>49.0</ele><time>2026-04-18T07:40:28.105Z</time></trkpt><trkpt lat="43.9268572" lon="8.0198282"><ele>49.0</ele><time>2026-04-18T07:40:29.104Z</time></trkpt><trkpt lat="43.9270503" lon="8.0196891"><ele>48.33333333333333</ele><time>2026-04-18T07:40:30.105Z</time></trkpt><trkpt lat="43.9272532" lon="8.0196016"><ele>47.666666666666664</ele><time>2026-04-18T07:40:31.105Z</time></trkpt><trkpt lat="43.9274721" lon="8.0195588"><ele>47.0</ele><time>2026-04-18T07:40:32.104Z</time></trkpt><trkpt lat="43.9276892" lon="8.0195747"><ele>46.33333333333333</ele><time>2026-04-18T07:40:33.105Z</time></trkpt><trkpt lat="43.9278798" lon="8.0196688"><ele>45.666666666666664</ele><time>2026-04-18T07:40:34.105Z</time></trkpt><trkpt lat="43.9280636" lon="8.0198239"><ele>45.0</ele><time>2026-04-18T07:40:35.104Z</time></trkpt><trkpt lat="43.9282395" lon="8.0199978"><ele>46.0</ele><time>2026-04-18T07:40:36.105Z</time></trkpt><trkpt lat="43.9284025" lon="8.0201892"><ele>47.0</ele><time>2026-04-18T07:40:37.105Z</time></trkpt><trkpt lat="43.9285739" lon="8.0203603"><ele>48.0</ele><time>2026-04-18T07:40:38.105Z</time></trkpt><trkpt lat="43.9287756" lon="8.0205153"><ele>48.0</ele><time>2026-04-18T07:40:39.105Z</time></trkpt><trkpt lat="43.9290034" lon="8.0206401"><ele>48.0</ele><time>2026-04-18T07:40:40.104Z</time></trkpt><trkpt lat="43.9292446" lon="8.0207409"><ele>50.0</ele><time>2026-04-18T07:40:41.105Z</time></trkpt><trkpt lat="43.9294807" lon="8.0208331"><ele>52.0</ele><time>2026-04-18T07:40:42.105Z</time></trkpt><trkpt lat="43.9297225" lon="8.0209311"><ele>52.0</ele><time>2026-04-18T07:40:43.105Z</time></trkpt><trkpt lat="43.9299628" lon="8.0210327"><ele>52.0</ele><time>2026-04-18T07:40:44.104Z</time></trkpt><trkpt lat="43.9301876" lon="8.0211445"><ele>52.666666666666664</ele><time>2026-04-18T07:40:45.105Z</time></trkpt><trkpt lat="43.9304049" lon="8.0212541"><ele>53.33333333333333</ele><time>2026-04-18T07:40:46.104Z</time></trkpt><trkpt lat="43.9306039" lon="8.0213289"><ele>54.0</ele><time>2026-04-18T07:40:47.105Z</time></trkpt><trkpt lat="43.9308051" lon="8.0213796"><ele>54.33333333333333</ele><time>2026-04-18T07:40:48.105Z</time></trkpt><trkpt lat="43.931004" lon="8.0214067"><ele>54.666666666666664</ele><time>2026-04-18T07:40:49.105Z</time></trkpt><trkpt lat="43.9312018" lon="8.0214251"><ele>55.0</ele><time>2026-04-18T07:40:50.106Z</time></trkpt><trkpt lat="43.9314" lon="8.0214103"><ele>55.0</ele><time>2026-04-18T07:40:51.105Z</time></trkpt><trkpt lat="43.9316004" lon="8.021345"><ele>55.0</ele><time>2026-04-18T07:40:52.106Z</time></trkpt><trkpt lat="43.9318142" lon="8.0212248"><ele>55.0</ele><time>2026-04-18T07:40:53.105Z</time></trkpt><trkpt lat="43.9319937" lon="8.0210396"><ele>56.5</ele><time>2026-04-18T07:40:54.106Z</time></trkpt><trkpt lat="43.9321633" lon="8.0207999"><ele>58.0</ele><time>2026-04-18T07:40:55.106Z</time></trkpt><trkpt lat="43.9323187" lon="8.0205514"><ele>58.0</ele><time>2026-04-18T07:40:56.106Z</time></trkpt><trkpt lat="43.9324632" lon="8.0203069"><ele>58.0</ele><time>2026-04-18T07:40:57.106Z</time></trkpt><trkpt lat="43.9325635" lon="8.0200341"><ele>58.0</ele><time>2026-04-18T07:40:58.106Z</time></trkpt><trkpt lat="43.9326146" lon="8.019718"><ele>64.0</ele><time>2026-04-18T07:40:59.105Z</time></trkpt><trkpt lat="43.9326392" lon="8.0193889"><ele>70.0</ele><time>2026-04-18T07:41:00.106Z</time></trkpt><trkpt lat="43.9326531" lon="8.0190404"><ele>70.0</ele><time>2026-04-18T07:41:01.106Z</time></trkpt><trkpt lat="43.932665" lon="8.0186902"><ele>70.0</ele><time>2026-04-18T07:41:02.106Z</time></trkpt><trkpt lat="43.9327014" lon="8.0183556"><ele>66.0</ele><time>2026-04-18T07:41:03.105Z</time></trkpt><trkpt lat="43.9327625" lon="8.0180445"><ele>62.0</ele><time>2026-04-18T07:41:04.106Z</time></trkpt><trkpt lat="43.9328382" lon="8.0177392"><ele>57.5</ele><time>2026-04-18T07:41:05.105Z</time></trkpt><trkpt lat="43.9329283" lon="8.0174273"><ele>53.0</ele><time>2026-04-18T07:41:06.106Z</time></trkpt><trkpt lat="43.9330437" lon="8.0171279"><ele>53.0</ele><time>2026-04-18T07:41:07.106Z</time></trkpt><trkpt lat="43.9331854" lon="8.0168257"><ele>53.0</ele><time>2026-04-18T07:41:08.106Z</time></trkpt><trkpt lat="43.9333496" lon="8.0165259"><ele>54.0</ele><time>2026-04-18T07:41:09.106Z</time></trkpt><trkpt lat="43.9335286" lon="8.0162241"><ele>55.0</ele><time>2026-04-18T07:41:10.106Z</time></trkpt><trkpt lat="43.9337169" lon="8.0159133"><ele>54.5</ele><time>2026-04-18T07:41:11.105Z</time></trkpt><trkpt lat="43.9339004" lon="8.0155823"><ele>54.0</ele><time>2026-04-18T07:41:12.106Z</time></trkpt><trkpt lat="43.9340924" lon="8.0152476"><ele>54.0</ele><time>2026-04-18T07:41:13.105Z</time></trkpt><trkpt lat="43.9342802" lon="8.0148997"><ele>54.0</ele><time>2026-04-18T07:41:14.105Z</time></trkpt><trkpt lat="43.9344731" lon="8.0145425"><ele>54.0</ele><time>2026-04-18T07:41:15.106Z</time></trkpt><trkpt lat="43.9346612" lon="8.0141896"><ele>54.0</ele><time>2026-04-18T07:41:16.106Z</time></trkpt><trkpt lat="43.934844" lon="8.013843"><ele>68.0</ele><time>2026-04-18T07:41:17.106Z</time></trkpt><trkpt lat="43.9350253" lon="8.0135039"><ele>82.0</ele><time>2026-04-18T07:41:18.106Z</time></trkpt><trkpt lat="43.9352032" lon="8.0131766"><ele>97.5</ele><time>2026-04-18T07:41:19.106Z</time></trkpt><trkpt lat="43.9353839" lon="8.0128547"><ele>113.0</ele><time>2026-04-18T07:41:20.105Z</time></trkpt><trkpt lat="43.9410489" lon="8.0024563"><ele>113.0</ele><time>2026-04-18T07:41:51.105Z</time></trkpt><trkpt lat="43.9415035" lon="8.0018939"><ele>110.5</ele><time>2026-04-18T07:41:53.106Z</time></trkpt><trkpt lat="43.9416632" lon="8.0016235"><ele>108.0</ele><time>2026-04-18T07:41:54.106Z</time></trkpt><trkpt lat="43.9471611" lon="8.0006749"><ele>108.0</ele><time>2026-04-18T07:42:14.105Z</time></trkpt><trkpt lat="43.9474441" lon="8.0007931"><ele>108.0</ele><time>2026-04-18T07:42:15.106Z</time></trkpt><trkpt lat="43.9477178" lon="8.00088"><ele>103.0</ele><time>2026-04-18T07:42:16.106Z</time></trkpt><trkpt lat="43.9480036" lon="8.0009752"><ele>98.0</ele><time>2026-04-18T07:42:17.106Z</time></trkpt><trkpt lat="43.9483019" lon="8.0010524"><ele>101.0</ele><time>2026-04-18T07:42:18.105Z</time></trkpt><trkpt lat="43.9485983" lon="8.0011224"><ele>104.0</ele><time>2026-04-18T07:42:19.106Z</time></trkpt><trkpt lat="43.9488934" lon="8.0011908"><ele>104.0</ele><time>2026-04-18T07:42:20.106Z</time></trkpt><trkpt lat="43.949186" lon="8.0012606"><ele>104.0</ele><time>2026-04-18T07:42:21.105Z</time></trkpt><trkpt lat="43.9494798" lon="8.0013295"><ele>98.0</ele><time>2026-04-18T07:42:22.105Z</time></trkpt><trkpt lat="43.9497739" lon="8.0013998"><ele>92.0</ele><time>2026-04-18T07:42:23.106Z</time></trkpt><trkpt lat="43.9500695" lon="8.0014751"><ele>90.0</ele><time>2026-04-18T07:42:24.106Z</time></trkpt><trkpt lat="43.9503633" lon="8.0015494"><ele>88.0</ele><time>2026-04-18T07:42:25.106Z</time></trkpt><trkpt lat="43.9506563" lon="8.0016209"><ele>92.5</ele><time>2026-04-18T07:42:26.106Z</time></trkpt><trkpt lat="43.9509494" lon="8.0016895"><ele>97.0</ele><time>2026-04-18T07:42:27.106Z</time></trkpt><trkpt lat="43.9512393" lon="8.0017544"><ele>97.0</ele><time>2026-04-18T07:42:28.106Z</time></trkpt><trkpt lat="43.9515294" lon="8.0018223"><ele>97.0</ele><time>2026-04-18T07:42:29.106Z</time></trkpt><trkpt lat="43.9518156" lon="8.0018952"><ele>113.5</ele><time>2026-04-18T07:42:30.106Z</time></trkpt><trkpt lat="43.952109" lon="8.0019733"><ele>130.0</ele><time>2026-04-18T07:42:31.106Z</time></trkpt><trkpt lat="43.9572668" lon="7.99771"><ele>127.0</ele><time>2026-04-18T07:42:55.106Z</time></trkpt><trkpt lat="43.957321" lon="7.9972932"><ele>124.0</ele><time>2026-04-18T07:42:56.107Z</time></trkpt><trkpt lat="43.9574314" lon="7.9969857"><ele>124.0</ele><time>2026-04-18T07:42:57.107Z</time></trkpt><trkpt lat="43.957516" lon="7.9966789"><ele>124.0</ele><time>2026-04-18T07:42:58.107Z</time></trkpt><trkpt lat="43.9575789" lon="7.9963884"><ele>125.66666666666667</ele><time>2026-04-18T07:42:59.106Z</time></trkpt><trkpt lat="43.9576367" lon="7.9961157"><ele>127.33333333333334</ele><time>2026-04-18T07:43:00.106Z</time></trkpt><trkpt lat="43.9576903" lon="7.9958651"><ele>129.0</ele><time>2026-04-18T07:43:01.107Z</time></trkpt><trkpt lat="43.957743" lon="7.9956352"><ele>129.0</ele><time>2026-04-18T07:43:02.106Z</time></trkpt><trkpt lat="43.9577952" lon="7.9954186"><ele>129.0</ele><time>2026-04-18T07:43:03.107Z</time></trkpt><trkpt lat="43.957845" lon="7.9952093"><ele>129.0</ele><time>2026-04-18T07:43:04.107Z</time></trkpt><trkpt lat="43.9578938" lon="7.9949996"><ele>126.33333333333334</ele><time>2026-04-18T07:43:05.107Z</time></trkpt><trkpt lat="43.9579436" lon="7.994789"><ele>123.66666666666667</ele><time>2026-04-18T07:43:06.107Z</time></trkpt><trkpt lat="43.9579966" lon="7.9945717"><ele>121.0</ele><time>2026-04-18T07:43:07.106Z</time></trkpt><trkpt lat="43.958062" lon="7.9943636"><ele>118.66666666666667</ele><time>2026-04-18T07:43:08.106Z</time></trkpt><trkpt lat="43.958143" lon="7.9941692"><ele>116.33333333333334</ele><time>2026-04-18T07:43:09.107Z</time></trkpt><trkpt lat="43.9582311" lon="7.9939801"><ele>114.0</ele><time>2026-04-18T07:43:10.107Z</time></trkpt><trkpt lat="43.9583391" lon="7.9938079"><ele>123.0</ele><time>2026-04-18T07:43:11.106Z</time></trkpt><trkpt lat="43.9584512" lon="7.9936495"><ele>132.0</ele><time>2026-04-18T07:43:12.107Z</time></trkpt><trkpt lat="43.9585762" lon="7.9935139"><ele>141.0</ele><time>2026-04-18T07:43:13.107Z</time></trkpt><trkpt lat="43.9587087" lon="7.993377"><ele>135.66666666666666</ele><time>2026-04-18T07:43:14.107Z</time></trkpt><trkpt lat="43.9588442" lon="7.9932438"><ele>130.33333333333331</ele><time>2026-04-18T07:43:15.106Z</time></trkpt><trkpt lat="43.9589766" lon="7.9931042"><ele>125.0</ele><time>2026-04-18T07:43:16.107Z</time></trkpt><trkpt lat="43.9590975" lon="7.9929538"><ele>132.0</ele><time>2026-04-18T07:43:17.106Z</time></trkpt><trkpt lat="43.9592273" lon="7.9928084"><ele>139.0</ele><time>2026-04-18T07:43:18.107Z</time></trkpt><trkpt lat="43.9593616" lon="7.9926618"><ele>146.0</ele><time>2026-04-18T07:43:19.107Z</time></trkpt><trkpt lat="43.9595" lon="7.9925109"><ele>137.33333333333331</ele><time>2026-04-18T07:43:20.107Z</time></trkpt><trkpt lat="43.9596421" lon="7.9923591"><ele>128.66666666666666</ele><time>2026-04-18T07:43:21.107Z</time></trkpt><trkpt lat="43.9597826" lon="7.9922076"><ele>120.0</ele><time>2026-04-18T07:43:22.106Z</time></trkpt><trkpt lat="43.9599225" lon="7.9920537"><ele>121.33333333333334</ele><time>2026-04-18T07:43:23.107Z</time></trkpt><trkpt lat="43.9600528" lon="7.9919222"><ele>122.66666666666667</ele><time>2026-04-18T07:43:24.107Z</time></trkpt><trkpt lat="43.9601678" lon="7.99179"><ele>124.0</ele><time>2026-04-18T07:43:25.107Z</time></trkpt><trkpt lat="43.9602877" lon="7.9916618"><ele>124.0</ele><time>2026-04-18T07:43:26.107Z</time></trkpt><trkpt lat="43.9604095" lon="7.9915419"><ele>124.0</ele><time>2026-04-18T07:43:27.107Z</time></trkpt><trkpt lat="43.9605274" lon="7.99143"><ele>124.0</ele><time>2026-04-18T07:43:28.106Z</time></trkpt><trkpt lat="43.9606461" lon="7.991346"><ele>124.0</ele><time>2026-04-18T07:43:29.106Z</time></trkpt><trkpt lat="43.9607698" lon="7.9912619"><ele>129.0</ele><time>2026-04-18T07:43:30.107Z</time></trkpt><trkpt lat="43.9609" lon="7.9911804"><ele>134.0</ele><time>2026-04-18T07:43:31.106Z</time></trkpt><trkpt lat="43.9610419" lon="7.9911165"><ele>139.0</ele><time>2026-04-18T07:43:32.107Z</time></trkpt><trkpt lat="43.9611745" lon="7.9910619"><ele>144.0</ele><time>2026-04-18T07:43:33.106Z</time></trkpt><trkpt lat="43.9613063" lon="7.9910245"><ele>144.0</ele><time>2026-04-18T07:43:34.107Z</time></trkpt><trkpt lat="43.9614413" lon="7.9909918"><ele>144.0</ele><time>2026-04-18T07:43:35.107Z</time></trkpt><trkpt lat="43.9615789" lon="7.9909732"><ele>144.0</ele><time>2026-04-18T07:43:36.107Z</time></trkpt><trkpt lat="43.9617254" lon="7.990952"><ele>144.0</ele><time>2026-04-18T07:43:37.107Z</time></trkpt><trkpt lat="43.9618982" lon="7.9909302"><ele>147.0</ele><time>2026-04-18T07:43:38.107Z</time></trkpt><trkpt lat="43.9620902" lon="7.9909215"><ele>150.0</ele><time>2026-04-18T07:43:39.107Z</time></trkpt><trkpt lat="43.9622877" lon="7.9909078"><ele>153.0</ele><time>2026-04-18T07:43:40.107Z</time></trkpt><trkpt lat="43.9624994" lon="7.9908917"><ele>146.0</ele><time>2026-04-18T07:43:41.106Z</time></trkpt><trkpt lat="43.962727" lon="7.9908634"><ele>139.0</ele><time>2026-04-18T07:43:42.106Z</time></trkpt><trkpt lat="43.9629682" lon="7.9908353"><ele>137.5</ele><time>2026-04-18T07:43:43.107Z</time></trkpt><trkpt lat="43.9632138" lon="7.990813"><ele>136.0</ele><time>2026-04-18T07:43:44.106Z</time></trkpt><trkpt lat="43.9634604" lon="7.9907919"><ele>187.0</ele><time>2026-04-18T07:43:45.106Z</time></trkpt><trkpt lat="43.9744384" lon="7.9810201"><ele>194.33333333333334</ele><time>2026-04-18T07:44:35.108Z</time></trkpt><trkpt lat="43.9745441" lon="7.9807968"><ele>201.66666666666669</ele><time>2026-04-18T07:44:36.108Z</time></trkpt><trkpt lat="43.9746441" lon="7.9805782"><ele>209.0</ele><time>2026-04-18T07:44:37.107Z</time></trkpt><trkpt lat="43.97478" lon="7.9803637"><ele>215.0</ele><time>2026-04-18T07:44:38.108Z</time></trkpt><trkpt lat="43.9753612" lon="7.974778"><ele>215.0</ele><time>2026-04-18T07:45:00.108Z</time></trkpt><trkpt lat="43.9753809" lon="7.9745381"><ele>215.0</ele><time>2026-04-18T07:45:01.107Z</time></trkpt><trkpt lat="43.9754215" lon="7.9743111"><ele>215.0</ele><time>2026-04-18T07:45:02.108Z</time></trkpt><trkpt lat="43.9754736" lon="7.9740865"><ele>207.66666666666669</ele><time>2026-04-18T07:45:03.108Z</time></trkpt><trkpt lat="43.9755427" lon="7.9738674"><ele>200.33333333333331</ele><time>2026-04-18T07:45:04.107Z</time></trkpt><trkpt lat="43.9756209" lon="7.9736487"><ele>193.0</ele><time>2026-04-18T07:45:05.107Z</time></trkpt><trkpt lat="43.9757104" lon="7.9734372"><ele>190.0</ele><time>2026-04-18T07:45:06.107Z</time></trkpt><trkpt lat="43.9758184" lon="7.9732362"><ele>187.0</ele><time>2026-04-18T07:45:07.108Z</time></trkpt><trkpt lat="43.9759376" lon="7.973039"><ele>184.0</ele><time>2026-04-18T07:45:08.108Z</time></trkpt><trkpt lat="43.9760594" lon="7.9728338"><ele>190.66666666666669</ele><time>2026-04-18T07:45:09.108Z</time></trkpt><trkpt lat="43.9762022" lon="7.9726262"><ele>197.33333333333334</ele><time>2026-04-18T07:45:10.108Z</time></trkpt><trkpt lat="43.9763677" lon="7.9724282"><ele>204.0</ele><time>2026-04-18T07:45:11.107Z</time></trkpt><trkpt lat="43.9765546" lon="7.9722519"><ele>222.5</ele><time>2026-04-18T07:45:12.107Z</time></trkpt><trkpt lat="43.9767578" lon="7.9720887"><ele>241.0</ele><time>2026-04-18T07:45:13.108Z</time></trkpt><trkpt lat="43.9769618" lon="7.971933"><ele>241.0</ele><time>2026-04-18T07:45:14.108Z</time></trkpt><trkpt lat="43.977153" lon="7.9717795"><ele>241.0</ele><time>2026-04-18T07:45:15.107Z</time></trkpt><trkpt lat="43.9773385" lon="7.9716366"><ele>241.0</ele><time>2026-04-18T07:45:16.108Z</time></trkpt><trkpt lat="43.977518" lon="7.9715063"><ele>237.66666666666666</ele><time>2026-04-18T07:45:17.108Z</time></trkpt><trkpt lat="43.9776919" lon="7.9713748"><ele>234.33333333333331</ele><time>2026-04-18T07:45:18.107Z</time></trkpt><trkpt lat="43.9778741" lon="7.9712477"><ele>231.0</ele><time>2026-04-18T07:45:19.108Z</time></trkpt><trkpt lat="43.9780506" lon="7.9711254"><ele>231.0</ele><time>2026-04-18T07:45:20.108Z</time></trkpt><trkpt lat="43.9782324" lon="7.9710374"><ele>231.0</ele><time>2026-04-18T07:45:21.107Z</time></trkpt><trkpt lat="43.9784182" lon="7.9710296"><ele>231.0</ele><time>2026-04-18T07:45:22.107Z</time></trkpt><trkpt lat="43.9786034" lon="7.9710351"><ele>230.0</ele><time>2026-04-18T07:45:23.108Z</time></trkpt><trkpt lat="43.9787774" lon="7.9710587"><ele>229.0</ele><time>2026-04-18T07:45:24.108Z</time></trkpt><trkpt lat="43.9789553" lon="7.9711329"><ele>228.0</ele><time>2026-04-18T07:45:25.107Z</time></trkpt><trkpt lat="43.9791261" lon="7.9712501"><ele>220.66666666666669</ele><time>2026-04-18T07:45:26.108Z</time></trkpt><trkpt lat="43.9793126" lon="7.9713369"><ele>213.33333333333334</ele><time>2026-04-18T07:45:27.108Z</time></trkpt><trkpt lat="43.9795141" lon="7.9714192"><ele>206.0</ele><time>2026-04-18T07:45:28.108Z</time></trkpt><trkpt lat="43.9797195" lon="7.9715249"><ele>206.0</ele><time>2026-04-18T07:45:29.108Z</time></trkpt><trkpt lat="43.9799288" lon="7.9716672"><ele>206.0</ele><time>2026-04-18T07:45:30.108Z</time></trkpt><trkpt lat="43.9801496" lon="7.9717682"><ele>216.5</ele><time>2026-04-18T07:45:31.108Z</time></trkpt><trkpt lat="43.9803789" lon="7.9719094"><ele>227.0</ele><time>2026-04-18T07:45:32.108Z</time></trkpt><trkpt lat="43.9805963" lon="7.9720476"><ele>227.0</ele><time>2026-04-18T07:45:33.108Z</time></trkpt><trkpt lat="43.9808135" lon="7.9721854"><ele>227.0</ele><time>2026-04-18T07:45:34.108Z</time></trkpt><trkpt lat="43.9810413" lon="7.9723225"><ele>224.5</ele><time>2026-04-18T07:45:35.108Z</time></trkpt><trkpt lat="43.9812685" lon="7.9724646"><ele>222.0</ele><time>2026-04-18T07:45:36.107Z</time></trkpt><trkpt lat="43.9814949" lon="7.9726023"><ele>230.0</ele><time>2026-04-18T07:45:37.108Z</time></trkpt><trkpt lat="43.9817194" lon="7.9727225"><ele>238.0</ele><time>2026-04-18T07:45:38.107Z</time></trkpt><trkpt lat="43.981951" lon="7.9728121"><ele>238.0</ele><time>2026-04-18T07:45:39.108Z</time></trkpt><trkpt lat="43.9821919" lon="7.9728606"><ele>238.0</ele><time>2026-04-18T07:45:40.108Z</time></trkpt><trkpt lat="43.9824297" lon="7.9728627"><ele>240.5</ele><time>2026-04-18T07:45:41.108Z</time></trkpt><trkpt lat="43.9826615" lon="7.9728224"><ele>243.0</ele><time>2026-04-18T07:45:42.108Z</time></trkpt><trkpt lat="43.9828845" lon="7.9727495"><ele>243.0</ele><time>2026-04-18T07:45:43.108Z</time></trkpt><trkpt lat="43.9830965" lon="7.9726395"><ele>243.0</ele><time>2026-04-18T07:45:44.108Z</time></trkpt><trkpt lat="43.983287" lon="7.9724986"><ele>243.0</ele><time>2026-04-18T07:45:45.108Z</time></trkpt><trkpt lat="43.9834687" lon="7.9723318"><ele>246.0</ele><time>2026-04-18T07:45:46.108Z</time></trkpt><trkpt lat="43.9836325" lon="7.9721306"><ele>249.0</ele><time>2026-04-18T07:45:47.108Z</time></trkpt><trkpt lat="43.983775" lon="7.9719153"><ele>252.0</ele><time>2026-04-18T07:45:48.107Z</time></trkpt><trkpt lat="43.9839009" lon="7.9717064"><ele>250.33333333333331</ele><time>2026-04-18T07:45:49.108Z</time></trkpt><trkpt lat="43.9840249" lon="7.9715047"><ele>248.66666666666666</ele><time>2026-04-18T07:45:50.109Z</time></trkpt><trkpt lat="43.9841425" lon="7.971312"><ele>247.0</ele><time>2026-04-18T07:45:51.109Z</time></trkpt><trkpt lat="43.984259" lon="7.9711345"><ele>250.66666666666666</ele><time>2026-04-18T07:45:52.108Z</time></trkpt><trkpt lat="43.9843837" lon="7.9709569"><ele>254.33333333333331</ele><time>2026-04-18T07:45:53.109Z</time></trkpt><trkpt lat="43.9845193" lon="7.9707897"><ele>258.0</ele><time>2026-04-18T07:45:54.109Z</time></trkpt><trkpt lat="43.9846782" lon="7.9706431"><ele>258.0</ele><time>2026-04-18T07:45:55.109Z</time></trkpt><trkpt lat="43.9848455" lon="7.9705255"><ele>258.0</ele><time>2026-04-18T07:45:56.108Z</time></trkpt><trkpt lat="43.9850155" lon="7.97042"><ele>258.0</ele><time>2026-04-18T07:45:57.109Z</time></trkpt><trkpt lat="43.9851849" lon="7.9703324"><ele>265.3333333333333</ele><time>2026-04-18T07:45:58.109Z</time></trkpt><trkpt lat="43.9853554" lon="7.97029"><ele>272.66666666666663</ele><time>2026-04-18T07:45:59.109Z</time></trkpt><trkpt lat="43.9855355" lon="7.9702645"><ele>280.0</ele><time>2026-04-18T07:46:00.109Z</time></trkpt><trkpt lat="43.9857168" lon="7.9702356"><ele>282.66666666666663</ele><time>2026-04-18T07:46:01.109Z</time></trkpt><trkpt lat="43.9858967" lon="7.9702028"><ele>285.3333333333333</ele><time>2026-04-18T07:46:02.109Z</time></trkpt><trkpt lat="43.9860878" lon="7.9701763"><ele>288.0</ele><time>2026-04-18T07:46:03.108Z</time></trkpt><trkpt lat="43.9862796" lon="7.9701483"><ele>288.0</ele><time>2026-04-18T07:46:04.109Z</time></trkpt><trkpt lat="43.9864632" lon="7.9701214"><ele>288.0</ele><time>2026-04-18T07:46:05.109Z</time></trkpt><trkpt lat="43.9866401" lon="7.970092"><ele>288.0</ele><time>2026-04-18T07:46:06.108Z</time></trkpt><trkpt lat="43.9868286" lon="7.9700726"><ele>287.0</ele><time>2026-04-18T07:46:07.109Z</time></trkpt><trkpt lat="43.9870225" lon="7.9700662"><ele>286.0</ele><time>2026-04-18T07:46:08.108Z</time></trkpt><trkpt lat="43.9872086" lon="7.9700843"><ele>285.0</ele><time>2026-04-18T07:46:09.108Z</time></trkpt><trkpt lat="43.9873925" lon="7.9701317"><ele>283.0</ele><time>2026-04-18T07:46:10.108Z</time></trkpt><trkpt lat="43.9875699" lon="7.9702039"><ele>281.0</ele><time>2026-04-18T07:46:11.109Z</time></trkpt><trkpt lat="43.9877384" lon="7.9702962"><ele>279.0</ele><time>2026-04-18T07:46:12.109Z</time></trkpt><trkpt lat="43.9879083" lon="7.9704065"><ele>279.0</ele><time>2026-04-18T07:46:13.108Z</time></trkpt><trkpt lat="43.9880711" lon="7.9705172"><ele>279.0</ele><time>2026-04-18T07:46:14.108Z</time></trkpt><trkpt lat="43.988235" lon="7.9706244"><ele>279.0</ele><time>2026-04-18T07:46:15.109Z</time></trkpt><trkpt lat="43.9884008" lon="7.9707346"><ele>276.3333333333333</ele><time>2026-04-18T07:46:16.109Z</time></trkpt><trkpt lat="43.9885596" lon="7.9708297"><ele>273.66666666666663</ele><time>2026-04-18T07:46:17.108Z</time></trkpt><trkpt lat="43.988736" lon="7.9709228"><ele>271.0</ele><time>2026-04-18T07:46:18.109Z</time></trkpt><trkpt lat="43.988913" lon="7.970999"><ele>279.3333333333333</ele><time>2026-04-18T07:46:19.108Z</time></trkpt><trkpt lat="43.9890797" lon="7.9710252"><ele>287.6666666666667</ele><time>2026-04-18T07:46:20.109Z</time></trkpt><trkpt lat="43.9892564" lon="7.9710512"><ele>296.0</ele><time>2026-04-18T07:46:21.108Z</time></trkpt><trkpt lat="43.9894395" lon="7.9710442"><ele>296.33333333333337</ele><time>2026-04-18T07:46:22.109Z</time></trkpt><trkpt lat="43.9896386" lon="7.9710201"><ele>296.6666666666667</ele><time>2026-04-18T07:46:23.108Z</time></trkpt><trkpt lat="43.9898502" lon="7.970956"><ele>297.0</ele><time>2026-04-18T07:46:24.109Z</time></trkpt><trkpt lat="43.990064" lon="7.970894"><ele>294.6666666666667</ele><time>2026-04-18T07:46:25.108Z</time></trkpt><trkpt lat="43.9902597" lon="7.9708507"><ele>292.33333333333337</ele><time>2026-04-18T07:46:26.108Z</time></trkpt><trkpt lat="43.9904429" lon="7.9708133"><ele>290.0</ele><time>2026-04-18T07:46:27.109Z</time></trkpt><trkpt lat="43.9906194" lon="7.9707783"><ele>290.0</ele><time>2026-04-18T07:46:28.109Z</time></trkpt><trkpt lat="43.9907951" lon="7.9707478"><ele>290.0</ele><time>2026-04-18T07:46:29.109Z</time></trkpt><trkpt lat="43.990967" lon="7.9707404"><ele>290.0</ele><time>2026-04-18T07:46:30.108Z</time></trkpt><trkpt lat="43.9911414" lon="7.9707641"><ele>288.33333333333337</ele><time>2026-04-18T07:46:31.108Z</time></trkpt><trkpt lat="43.9913102" lon="7.970816"><ele>286.6666666666667</ele><time>2026-04-18T07:46:32.109Z</time></trkpt><trkpt lat="43.9914795" lon="7.9708905"><ele>285.0</ele><time>2026-04-18T07:46:33.108Z</time></trkpt><trkpt lat="43.9916456" lon="7.9709817"><ele>288.0</ele><time>2026-04-18T07:46:34.108Z</time></trkpt><trkpt lat="43.9917953" lon="7.9710867"><ele>291.0</ele><time>2026-04-18T07:46:35.108Z</time></trkpt><trkpt lat="43.9919363" lon="7.9712093"><ele>294.0</ele><time>2026-04-18T07:46:36.108Z</time></trkpt><trkpt lat="43.9920694" lon="7.9713628"><ele>294.0</ele><time>2026-04-18T07:46:37.108Z</time></trkpt><trkpt lat="43.992201" lon="7.9715465"><ele>294.0</ele><time>2026-04-18T07:46:38.109Z</time></trkpt><trkpt lat="43.9923387" lon="7.9717549"><ele>294.0</ele><time>2026-04-18T07:46:39.109Z</time></trkpt><trkpt lat="43.9924677" lon="7.9719789"><ele>295.3333333333333</ele><time>2026-04-18T07:46:40.109Z</time></trkpt><trkpt lat="43.9926021" lon="7.972197"><ele>296.66666666666663</ele><time>2026-04-18T07:46:41.108Z</time></trkpt><trkpt lat="43.9927618" lon="7.9723926"><ele>298.0</ele><time>2026-04-18T07:46:42.109Z</time></trkpt><trkpt lat="43.9929464" lon="7.9725534"><ele>303.0</ele><time>2026-04-18T07:46:43.109Z</time></trkpt><trkpt lat="43.993141" lon="7.9727179"><ele>308.0</ele><time>2026-04-18T07:46:44.109Z</time></trkpt><trkpt lat="43.9933519" lon="7.9729025"><ele>308.0</ele><time>2026-04-18T07:46:45.109Z</time></trkpt><trkpt lat="43.9935543" lon="7.9731091"><ele>308.0</ele><time>2026-04-18T07:46:46.108Z</time></trkpt><trkpt lat="43.9937619" lon="7.9733198"><ele>310.5</ele><time>2026-04-18T07:46:47.109Z</time></trkpt><trkpt lat="43.9939754" lon="7.9735369"><ele>313.0</ele><time>2026-04-18T07:46:48.109Z</time></trkpt><trkpt lat="43.9941969" lon="7.9737468"><ele>313.0</ele><time>2026-04-18T07:46:49.109Z</time></trkpt><trkpt lat="43.9944217" lon="7.9739525"><ele>313.0</ele><time>2026-04-18T07:46:50.108Z</time></trkpt><trkpt lat="43.9946441" lon="7.9741625"><ele>312.0</ele><time>2026-04-18T07:46:51.108Z</time></trkpt><trkpt lat="43.9948649" lon="7.9743629"><ele>311.0</ele><time>2026-04-18T07:46:52.108Z</time></trkpt><trkpt lat="43.9950742" lon="7.9745532"><ele>311.0</ele><time>2026-04-18T07:46:53.109Z</time></trkpt><trkpt lat="43.9952783" lon="7.974736"><ele>311.0</ele><time>2026-04-18T07:46:54.108Z</time></trkpt><trkpt lat="43.9954794" lon="7.9749028"><ele>319.0</ele><time>2026-04-18T07:46:55.108Z</time></trkpt><trkpt lat="43.9956809" lon="7.9750565"><ele>327.0</ele><time>2026-04-18T07:46:56.108Z</time></trkpt><trkpt lat="43.9958977" lon="7.9752037"><ele>334.0</ele><time>2026-04-18T07:46:57.108Z</time></trkpt><trkpt lat="43.9961189" lon="7.9753289"><ele>341.0</ele><time>2026-04-18T07:46:58.109Z</time></trkpt><trkpt lat="43.9963401" lon="7.9754386"><ele>341.0</ele><time>2026-04-18T07:46:59.109Z</time></trkpt><trkpt lat="43.9965519" lon="7.9755361"><ele>341.0</ele><time>2026-04-18T07:47:00.109Z</time></trkpt><trkpt lat="44.001282" lon="7.9739499"><ele>329.5</ele><time>2026-04-18T07:47:24.108Z</time></trkpt><trkpt lat="44.0015472" lon="7.9737589"><ele>318.0</ele><time>2026-04-18T07:47:25.108Z</time></trkpt><trkpt lat="44.00181" lon="7.9735774"><ele>306.5</ele><time>2026-04-18T07:47:26.109Z</time></trkpt><trkpt lat="44.0020745" lon="7.9733928"><ele>295.0</ele><time>2026-04-18T07:47:27.109Z</time></trkpt><trkpt lat="44.0023291" lon="7.9732033"><ele>296.0</ele><time>2026-04-18T07:47:28.11Z</time></trkpt><trkpt lat="44.0025847" lon="7.9730066"><ele>297.0</ele><time>2026-04-18T07:47:29.11Z</time></trkpt><trkpt lat="44.0028446" lon="7.9728127"><ele>297.0</ele><time>2026-04-18T07:47:30.11Z</time></trkpt><trkpt lat="44.0031049" lon="7.9726226"><ele>297.0</ele><time>2026-04-18T07:47:31.109Z</time></trkpt><trkpt lat="44.0033649" lon="7.972437"><ele>352.0</ele><time>2026-04-18T07:47:32.11Z</time></trkpt><trkpt lat="44.0084344" lon="7.9687391"><ele>352.0</ele><time>2026-04-18T07:47:52.11Z</time></trkpt><trkpt lat="44.0086624" lon="7.9685059"><ele>352.0</ele><time>2026-04-18T07:47:53.109Z</time></trkpt><trkpt lat="44.0089232" lon="7.9683144"><ele>347.0</ele><time>2026-04-18T07:47:54.109Z</time></trkpt><trkpt lat="44.0091772" lon="7.9681113"><ele>342.0</ele><time>2026-04-18T07:47:55.109Z</time></trkpt><trkpt lat="44.0094303" lon="7.9678942"><ele>342.0</ele><time>2026-04-18T07:47:56.109Z</time></trkpt><trkpt lat="44.0096687" lon="7.9676835"><ele>342.0</ele><time>2026-04-18T07:47:57.11Z</time></trkpt><trkpt lat="44.0099032" lon="7.9674989"><ele>360.0</ele><time>2026-04-18T07:47:58.11Z</time></trkpt><trkpt lat="44.0213299" lon="7.9510056"><ele>360.6666666666667</ele><time>2026-04-18T07:48:51.109Z</time></trkpt><trkpt lat="44.021417" lon="7.9507808"><ele>361.33333333333337</ele><time>2026-04-18T07:48:52.109Z</time></trkpt><trkpt lat="44.0215189" lon="7.9505527"><ele>362.0</ele><time>2026-04-18T07:48:53.11Z</time></trkpt><trkpt lat="44.021606" lon="7.9503511"><ele>356.5</ele><time>2026-04-18T07:48:54.109Z</time></trkpt><trkpt lat="44.0216866" lon="7.9501614"><ele>351.0</ele><time>2026-04-18T07:48:55.11Z</time></trkpt><trkpt lat="44.0217632" lon="7.949984"><ele>345.5</ele><time>2026-04-18T07:48:56.109Z</time></trkpt><trkpt lat="44.0218299" lon="7.9498196"><ele>340.0</ele><time>2026-04-18T07:48:57.11Z</time></trkpt><trkpt lat="44.0218962" lon="7.9496747"><ele>338.2</ele><time>2026-04-18T07:48:58.11Z</time></trkpt><trkpt lat="44.0219564" lon="7.9495423"><ele>336.4</ele><time>2026-04-18T07:48:59.11Z</time></trkpt><trkpt lat="44.02201" lon="7.9494142"><ele>334.6</ele><time>2026-04-18T07:49:00.109Z</time></trkpt><trkpt lat="44.0220571" lon="7.9493007"><ele>332.8</ele><time>2026-04-18T07:49:01.11Z</time></trkpt><trkpt lat="44.0221005" lon="7.9491996"><ele>331.0</ele><time>2026-04-18T07:49:02.11Z</time></trkpt><trkpt lat="44.0221366" lon="7.9491128"><ele>330.6</ele><time>2026-04-18T07:49:03.111Z</time></trkpt><trkpt lat="44.0221723" lon="7.9490267"><ele>330.20000000000005</ele><time>2026-04-18T07:49:04.111Z</time></trkpt><trkpt lat="44.0222343" lon="7.9488816"><ele>329.79999999999995</ele><time>2026-04-18T07:49:06.111Z</time></trkpt><trkpt lat="44.0222872" lon="7.9487382"><ele>329.4</ele><time>2026-04-18T07:49:08.111Z</time></trkpt><trkpt lat="44.0223412" lon="7.9486106"><ele>329.0</ele><time>2026-04-18T07:49:10.111Z</time></trkpt><trkpt lat="44.0223817" lon="7.948535"><ele>329.0</ele><time>2026-04-18T07:49:13.111Z</time></trkpt><trkpt lat="44.0224124" lon="7.9484536"><ele>329.0</ele><time>2026-04-18T07:50:41.111Z</time></trkpt><trkpt lat="44.0224556" lon="7.9483517"><ele>329.0</ele><time>2026-04-18T07:50:42.111Z</time></trkpt><trkpt lat="44.022511" lon="7.9482384"><ele>329.0</ele><time>2026-04-18T07:50:43.112Z</time></trkpt><trkpt lat="44.0225755" lon="7.9480938"><ele>329.0</ele><time>2026-04-18T07:50:44.112Z</time></trkpt><trkpt lat="44.0226484" lon="7.9479315"><ele>327.33333333333337</ele><time>2026-04-18T07:50:45.112Z</time></trkpt><trkpt lat="44.0227309" lon="7.9477482"><ele>325.6666666666667</ele><time>2026-04-18T07:50:46.112Z</time></trkpt><trkpt lat="44.0228177" lon="7.9475534"><ele>324.0</ele><time>2026-04-18T07:50:47.112Z</time></trkpt><trkpt lat="44.0229115" lon="7.9473426"><ele>324.0</ele><time>2026-04-18T07:50:48.111Z</time></trkpt><trkpt lat="44.0230055" lon="7.947122"><ele>324.0</ele><time>2026-04-18T07:50:49.112Z</time></trkpt><trkpt lat="44.0231086" lon="7.946896"><ele>324.0</ele><time>2026-04-18T07:50:50.112Z</time></trkpt><trkpt lat="44.0232116" lon="7.9466744"><ele>328.0</ele><time>2026-04-18T07:50:51.112Z</time></trkpt><trkpt lat="44.0233096" lon="7.9464505"><ele>332.0</ele><time>2026-04-18T07:50:52.111Z</time></trkpt><trkpt lat="44.0234096" lon="7.9462274"><ele>336.0</ele><time>2026-04-18T07:50:53.112Z</time></trkpt><trkpt lat="44.0235066" lon="7.9459998"><ele>327.0</ele><time>2026-04-18T07:50:54.111Z</time></trkpt><trkpt lat="44.0236071" lon="7.945777"><ele>318.0</ele><time>2026-04-18T07:50:55.111Z</time></trkpt><trkpt lat="44.0237037" lon="7.9455575"><ele>309.0</ele><time>2026-04-18T07:50:56.112Z</time></trkpt><trkpt lat="44.0237916" lon="7.9453482"><ele>309.0</ele><time>2026-04-18T07:50:57.112Z</time></trkpt><trkpt lat="44.023877" lon="7.9451504"><ele>309.0</ele><time>2026-04-18T07:50:58.111Z</time></trkpt><trkpt lat="44.0239602" lon="7.9449544"><ele>309.0</ele><time>2026-04-18T07:50:59.112Z</time></trkpt><trkpt lat="44.0240468" lon="7.9447606"><ele>308.0</ele><time>2026-04-18T07:51:00.112Z</time></trkpt><trkpt lat="44.0241362" lon="7.9445713"><ele>307.0</ele><time>2026-04-18T07:51:01.112Z</time></trkpt><trkpt lat="44.0242204" lon="7.9443751"><ele>306.0</ele><time>2026-04-18T07:51:02.112Z</time></trkpt><trkpt lat="44.0243104" lon="7.944186"><ele>301.3333333333333</ele><time>2026-04-18T07:51:03.112Z</time></trkpt><trkpt lat="44.0244034" lon="7.9439971"><ele>296.66666666666663</ele><time>2026-04-18T07:51:04.111Z</time></trkpt><trkpt lat="44.0244971" lon="7.9438098"><ele>292.0</ele><time>2026-04-18T07:51:05.112Z</time></trkpt><trkpt lat="44.024596" lon="7.9436208"><ele>292.0</ele><time>2026-04-18T07:51:06.112Z</time></trkpt><trkpt lat="44.0246963" lon="7.9434366"><ele>292.0</ele><time>2026-04-18T07:51:07.112Z</time></trkpt><trkpt lat="44.0247958" lon="7.9432566"><ele>292.0</ele><time>2026-04-18T07:51:08.112Z</time></trkpt><trkpt lat="44.024902" lon="7.9430852"><ele>292.3333333333333</ele><time>2026-04-18T07:51:09.112Z</time></trkpt><trkpt lat="44.0250174" lon="7.9428975"><ele>292.6666666666667</ele><time>2026-04-18T07:51:10.112Z</time></trkpt><trkpt lat="44.0251398" lon="7.9427027"><ele>293.0</ele><time>2026-04-18T07:51:11.112Z</time></trkpt><trkpt lat="44.0252725" lon="7.9424879"><ele>293.0</ele><time>2026-04-18T07:51:12.112Z</time></trkpt><trkpt lat="44.025417" lon="7.942264"><ele>293.0</ele><time>2026-04-18T07:51:13.111Z</time></trkpt><trkpt lat="44.0255925" lon="7.9420368"><ele>293.0</ele><time>2026-04-18T07:51:14.111Z</time></trkpt><trkpt lat="44.0257815" lon="7.941831"><ele>293.0</ele><time>2026-04-18T07:51:15.112Z</time></trkpt><trkpt lat="44.0259789" lon="7.9416267"><ele>302.5</ele><time>2026-04-18T07:51:16.112Z</time></trkpt><trkpt lat="44.0261878" lon="7.9414174"><ele>312.0</ele><time>2026-04-18T07:51:17.111Z</time></trkpt><trkpt lat="44.0264072" lon="7.941209"><ele>312.0</ele><time>2026-04-18T07:51:18.112Z</time></trkpt><trkpt lat="44.0266364" lon="7.941008"><ele>312.0</ele><time>2026-04-18T07:51:19.112Z</time></trkpt><trkpt lat="44.0268736" lon="7.9408161"><ele>314.5</ele><time>2026-04-18T07:51:20.111Z</time></trkpt><trkpt lat="44.0271153" lon="7.9406417"><ele>317.0</ele><time>2026-04-18T07:51:21.112Z</time></trkpt><trkpt lat="44.0273571" lon="7.9404793"><ele>316.0</ele><time>2026-04-18T07:51:22.112Z</time></trkpt><trkpt lat="44.0275978" lon="7.940338"><ele>315.0</ele><time>2026-04-18T07:51:23.111Z</time></trkpt><trkpt lat="44.0278364" lon="7.9402088"><ele>315.0</ele><time>2026-04-18T07:51:24.112Z</time></trkpt><trkpt lat="44.0280737" lon="7.9400948"><ele>315.0</ele><time>2026-04-18T07:51:25.112Z</time></trkpt><trkpt lat="44.0283156" lon="7.9399864"><ele>330.0</ele><time>2026-04-18T07:51:26.112Z</time></trkpt><trkpt lat="44.0285645" lon="7.9398957"><ele>345.0</ele><time>2026-04-18T07:51:27.112Z</time></trkpt><trkpt lat="44.0288209" lon="7.9398268"><ele>345.0</ele><time>2026-04-18T07:51:28.112Z</time></trkpt><trkpt lat="44.0290848" lon="7.9397627"><ele>345.0</ele><time>2026-04-18T07:51:29.111Z</time></trkpt><trkpt lat="44.0293525" lon="7.9397103"><ele>333.5</ele><time>2026-04-18T07:51:30.112Z</time></trkpt><trkpt lat="44.0296231" lon="7.9396712"><ele>322.0</ele><time>2026-04-18T07:51:31.111Z</time></trkpt><trkpt lat="44.0298944" lon="7.9396374"><ele>320.0</ele><time>2026-04-18T07:51:32.111Z</time></trkpt><trkpt lat="44.0301622" lon="7.9396255"><ele>318.0</ele><time>2026-04-18T07:51:33.111Z</time></trkpt><trkpt lat="44.0304288" lon="7.9396227"><ele>318.0</ele><time>2026-04-18T07:51:34.112Z</time></trkpt><trkpt lat="44.0306973" lon="7.939625"><ele>318.0</ele><time>2026-04-18T07:51:35.112Z</time></trkpt><trkpt lat="44.0309741" lon="7.9396252"><ele>322.5</ele><time>2026-04-18T07:51:36.111Z</time></trkpt><trkpt lat="44.0312556" lon="7.939623"><ele>327.0</ele><time>2026-04-18T07:51:37.112Z</time></trkpt><trkpt lat="44.0315423" lon="7.9396194"><ele>324.0</ele><time>2026-04-18T07:51:38.111Z</time></trkpt><trkpt lat="44.0318278" lon="7.9396165"><ele>321.0</ele><time>2026-04-18T07:51:39.112Z</time></trkpt><trkpt lat="44.0321167" lon="7.9396098"><ele>321.0</ele><time>2026-04-18T07:51:40.111Z</time></trkpt><trkpt lat="44.0324068" lon="7.9396094"><ele>321.0</ele><time>2026-04-18T07:51:41.112Z</time></trkpt><trkpt lat="44.032703" lon="7.9396082"><ele>316.0</ele><time>2026-04-18T07:51:42.112Z</time></trkpt><trkpt lat="44.0329922" lon="7.9396016"><ele>311.0</ele><time>2026-04-18T07:51:43.112Z</time></trkpt><trkpt lat="44.0332875" lon="7.9396036"><ele>312.5</ele><time>2026-04-18T07:51:44.112Z</time></trkpt><trkpt lat="44.03358" lon="7.9396035"><ele>314.0</ele><time>2026-04-18T07:51:45.112Z</time></trkpt><trkpt lat="44.0353497" lon="7.939041"><ele>323.5</ele><time>2026-04-18T07:51:52.112Z</time></trkpt><trkpt lat="44.035532" lon="7.9388042"><ele>333.0</ele><time>2026-04-18T07:51:53.112Z</time></trkpt><trkpt lat="44.0356996" lon="7.9385318"><ele>315.5</ele><time>2026-04-18T07:51:54.111Z</time></trkpt><trkpt lat="44.0358491" lon="7.938225"><ele>298.0</ele><time>2026-04-18T07:51:55.112Z</time></trkpt><trkpt lat="44.0359722" lon="7.9378847"><ele>303.0</ele><time>2026-04-18T07:51:56.112Z</time></trkpt><trkpt lat="44.0360783" lon="7.9375285"><ele>308.0</ele><time>2026-04-18T07:51:57.112Z</time></trkpt><trkpt lat="44.0361792" lon="7.9371738"><ele>308.0</ele><time>2026-04-18T07:51:58.111Z</time></trkpt><trkpt lat="44.0362819" lon="7.9368177"><ele>308.0</ele><time>2026-04-18T07:51:59.112Z</time></trkpt><trkpt lat="44.0363852" lon="7.9364647"><ele>308.5</ele><time>2026-04-18T07:52:00.111Z</time></trkpt><trkpt lat="44.0364822" lon="7.9361156"><ele>309.0</ele><time>2026-04-18T07:52:01.112Z</time></trkpt><trkpt lat="44.0365828" lon="7.935775"><ele>295.5</ele><time>2026-04-18T07:52:02.111Z</time></trkpt><trkpt lat="44.0366982" lon="7.935449"><ele>282.0</ele><time>2026-04-18T07:52:03.112Z</time></trkpt><trkpt lat="44.0368338" lon="7.93514"><ele>289.0</ele><time>2026-04-18T07:52:04.112Z</time></trkpt><trkpt lat="44.0369822" lon="7.9348461"><ele>296.0</ele><time>2026-04-18T07:52:05.112Z</time></trkpt><trkpt lat="44.037137" lon="7.9345462"><ele>296.0</ele><time>2026-04-18T07:52:06.112Z</time></trkpt><trkpt lat="44.037274" lon="7.9342331"><ele>296.0</ele><time>2026-04-18T07:52:07.111Z</time></trkpt><trkpt lat="44.0373946" lon="7.9339104"><ele>287.0</ele><time>2026-04-18T07:52:08.112Z</time></trkpt><trkpt lat="44.0374986" lon="7.9335921"><ele>278.0</ele><time>2026-04-18T07:52:09.112Z</time></trkpt><trkpt lat="44.0375929" lon="7.9332989"><ele>278.0</ele><time>2026-04-18T07:52:10.112Z</time></trkpt><trkpt lat="44.0376738" lon="7.9330247"><ele>278.0</ele><time>2026-04-18T07:52:11.112Z</time></trkpt><trkpt lat="44.0377195" lon="7.9327486"><ele>278.0</ele><time>2026-04-18T07:52:12.111Z</time></trkpt><trkpt lat="44.0377319" lon="7.9324531"><ele>278.5</ele><time>2026-04-18T07:52:13.112Z</time></trkpt><trkpt lat="44.037701" lon="7.9321555"><ele>279.0</ele><time>2026-04-18T07:52:14.112Z</time></trkpt><trkpt lat="44.0376309" lon="7.9318414"><ele>269.5</ele><time>2026-04-18T07:52:15.112Z</time></trkpt><trkpt lat="44.0375307" lon="7.9315281"><ele>260.0</ele><time>2026-04-18T07:52:16.113Z</time></trkpt><trkpt lat="44.0374149" lon="7.9312248"><ele>272.5</ele><time>2026-04-18T07:52:17.113Z</time></trkpt><trkpt lat="44.0372939" lon="7.9309373"><ele>285.0</ele><time>2026-04-18T07:52:18.113Z</time></trkpt><trkpt lat="44.0371624" lon="7.9306711"><ele>285.0</ele><time>2026-04-18T07:52:19.113Z</time></trkpt><trkpt lat="44.0370331" lon="7.9304242"><ele>285.0</ele><time>2026-04-18T07:52:20.113Z</time></trkpt><trkpt lat="44.0369046" lon="7.9301877"><ele>285.0</ele><time>2026-04-18T07:52:21.113Z</time></trkpt><trkpt lat="44.0367913" lon="7.9299627"><ele>280.0</ele><time>2026-04-18T07:52:22.113Z</time></trkpt><trkpt lat="44.0366973" lon="7.9297308"><ele>275.0</ele><time>2026-04-18T07:52:23.113Z</time></trkpt><trkpt lat="44.0366343" lon="7.9294708"><ele>270.0</ele><time>2026-04-18T07:52:24.113Z</time></trkpt><trkpt lat="44.0366038" lon="7.9291887"><ele>270.0</ele><time>2026-04-18T07:52:25.113Z</time></trkpt><trkpt lat="44.0366132" lon="7.9288963"><ele>270.0</ele><time>2026-04-18T07:52:26.113Z</time></trkpt><trkpt lat="44.0366613" lon="7.9286027"><ele>270.0</ele><time>2026-04-18T07:52:27.113Z</time></trkpt><trkpt lat="44.0367542" lon="7.9283103"><ele>248.0</ele><time>2026-04-18T07:52:28.112Z</time></trkpt><trkpt lat="44.0368689" lon="7.9280312"><ele>226.0</ele><time>2026-04-18T07:52:29.112Z</time></trkpt><trkpt lat="44.0369732" lon="7.927733"><ele>226.0</ele><time>2026-04-18T07:52:30.113Z</time></trkpt><trkpt lat="44.0370531" lon="7.9274177"><ele>226.0</ele><time>2026-04-18T07:52:31.112Z</time></trkpt><trkpt lat="44.0371461" lon="7.9270918"><ele>226.0</ele><time>2026-04-18T07:52:32.113Z</time></trkpt><trkpt lat="44.0372804" lon="7.9267696"><ele>226.0</ele><time>2026-04-18T07:52:33.113Z</time></trkpt><trkpt lat="44.0374171" lon="7.9264504"><ele>230.0</ele><time>2026-04-18T07:52:34.113Z</time></trkpt><trkpt lat="44.0375477" lon="7.9261387"><ele>234.0</ele><time>2026-04-18T07:52:35.113Z</time></trkpt><trkpt lat="44.037665" lon="7.9258539"><ele>236.0</ele><time>2026-04-18T07:52:36.113Z</time></trkpt><trkpt lat="44.037783" lon="7.925579"><ele>238.0</ele><time>2026-04-18T07:52:37.112Z</time></trkpt><trkpt lat="44.0378874" lon="7.9253215"><ele>240.0</ele><time>2026-04-18T07:52:38.113Z</time></trkpt><trkpt lat="44.0379863" lon="7.9251034"><ele>237.5</ele><time>2026-04-18T07:52:39.113Z</time></trkpt><trkpt lat="44.0380792" lon="7.9249138"><ele>235.0</ele><time>2026-04-18T07:52:40.113Z</time></trkpt><trkpt lat="44.0381577" lon="7.9247529"><ele>232.5</ele><time>2026-04-18T07:52:41.113Z</time></trkpt><trkpt lat="44.0382441" lon="7.9246275"><ele>230.0</ele><time>2026-04-18T07:52:42.113Z</time></trkpt><trkpt lat="44.0383299" lon="7.9245619"><ele>230.0</ele><time>2026-04-18T07:52:43.112Z</time></trkpt><trkpt lat="44.0384242" lon="7.9245516"><ele>230.0</ele><time>2026-04-18T07:52:44.113Z</time></trkpt><trkpt lat="44.03853" lon="7.9245585"><ele>230.0</ele><time>2026-04-18T07:52:45.113Z</time></trkpt><trkpt lat="44.0386271" lon="7.9244964"><ele>230.0</ele><time>2026-04-18T07:52:46.113Z</time></trkpt><trkpt lat="44.0386687" lon="7.9243888"><ele>230.0</ele><time>2026-04-18T07:52:47.113Z</time></trkpt><trkpt lat="44.0386737" lon="7.9242581"><ele>233.2</ele><time>2026-04-18T07:52:48.112Z</time></trkpt><trkpt lat="44.0386299" lon="7.9241449"><ele>236.4</ele><time>2026-04-18T07:52:49.113Z</time></trkpt><trkpt lat="44.0385927" lon="7.924039"><ele>239.60000000000002</ele><time>2026-04-18T07:52:50.112Z</time></trkpt><trkpt lat="44.0386004" lon="7.9238959"><ele>242.8</ele><time>2026-04-18T07:52:51.113Z</time></trkpt><trkpt lat="44.0386768" lon="7.9237547"><ele>246.0</ele><time>2026-04-18T07:52:52.113Z</time></trkpt><trkpt lat="44.0387788" lon="7.9235917"><ele>246.0</ele><time>2026-04-18T07:52:53.112Z</time></trkpt><trkpt lat="44.0388876" lon="7.9234012"><ele>246.0</ele><time>2026-04-18T07:52:54.113Z</time></trkpt><trkpt lat="44.0390038" lon="7.9231749"><ele>246.0</ele><time>2026-04-18T07:52:55.112Z</time></trkpt><trkpt lat="44.0391062" lon="7.9228988"><ele>250.5</ele><time>2026-04-18T07:52:56.112Z</time></trkpt><trkpt lat="44.0391998" lon="7.9226086"><ele>255.0</ele><time>2026-04-18T07:52:57.112Z</time></trkpt><trkpt lat="44.0392945" lon="7.922306"><ele>269.0</ele><time>2026-04-18T07:52:58.113Z</time></trkpt><trkpt lat="44.049405" lon="7.9022846"><ele>300.0</ele><time>2026-04-18T07:53:50.108Z</time></trkpt><trkpt lat="44.0488113" lon="7.904654"><ele>300.0</ele><time>2026-04-18T07:53:51.112Z</time></trkpt><trkpt lat="44.0490124" lon="7.9045344"><ele>300.0</ele><time>2026-04-18T07:53:52.114Z</time></trkpt><trkpt lat="44.0491968" lon="7.9044301"><ele>300.0</ele><time>2026-04-18T07:53:53.113Z</time></trkpt><trkpt lat="44.0493683" lon="7.9043431"><ele>290.6666666666667</ele><time>2026-04-18T07:53:54.114Z</time></trkpt><trkpt lat="44.0495263" lon="7.9042545"><ele>281.33333333333337</ele><time>2026-04-18T07:53:55.113Z</time></trkpt><trkpt lat="44.0496804" lon="7.9041713"><ele>272.0</ele><time>2026-04-18T07:53:56.114Z</time></trkpt><trkpt lat="44.0498277" lon="7.9040859"><ele>276.25</ele><time>2026-04-18T07:53:57.114Z</time></trkpt><trkpt lat="44.049962" lon="7.904007"><ele>280.5</ele><time>2026-04-18T07:53:58.114Z</time></trkpt><trkpt lat="44.0500872" lon="7.9039456"><ele>284.75</ele><time>2026-04-18T07:53:59.114Z</time></trkpt><trkpt lat="44.0502072" lon="7.9039063"><ele>289.0</ele><time>2026-04-18T07:54:00.114Z</time></trkpt><trkpt lat="44.0503166" lon="7.9038481"><ele>289.0</ele><time>2026-04-18T07:54:01.114Z</time></trkpt><trkpt lat="44.0504162" lon="7.9037349"><ele>289.0</ele><time>2026-04-18T07:54:02.113Z</time></trkpt><trkpt lat="44.0504928" lon="7.9035891"><ele>289.0</ele><time>2026-04-18T07:54:03.114Z</time></trkpt><trkpt lat="44.0505395" lon="7.9033707"><ele>289.0</ele><time>2026-04-18T07:54:04.113Z</time></trkpt><trkpt lat="44.0505762" lon="7.9031246"><ele>287.3333333333333</ele><time>2026-04-18T07:54:05.114Z</time></trkpt><trkpt lat="44.0506235" lon="7.9028723"><ele>285.6666666666667</ele><time>2026-04-18T07:54:06.114Z</time></trkpt><trkpt lat="44.0507016" lon="7.9026046"><ele>284.0</ele><time>2026-04-18T07:54:07.113Z</time></trkpt><trkpt lat="44.0508149" lon="7.9023559"><ele>299.5</ele><time>2026-04-18T07:54:08.114Z</time></trkpt><trkpt lat="44.0509439" lon="7.9020881"><ele>315.0</ele><time>2026-04-18T07:54:09.114Z</time></trkpt><trkpt lat="44.0510694" lon="7.901811"><ele>310.0</ele><time>2026-04-18T07:54:10.113Z</time></trkpt><trkpt lat="44.0512062" lon="7.9015282"><ele>305.0</ele><time>2026-04-18T07:54:11.114Z</time></trkpt><trkpt lat="44.0513308" lon="7.901231"><ele>305.0</ele><time>2026-04-18T07:54:12.114Z</time></trkpt><trkpt lat="44.0514454" lon="7.9009232"><ele>305.0</ele><time>2026-04-18T07:54:13.113Z</time></trkpt><trkpt lat="44.0515492" lon="7.9005977"><ele>316.5</ele><time>2026-04-18T07:54:14.114Z</time></trkpt><trkpt lat="44.0516301" lon="7.9002571"><ele>328.0</ele><time>2026-04-18T07:54:15.114Z</time></trkpt><trkpt lat="44.0516946" lon="7.8999073"><ele>328.0</ele><time>2026-04-18T07:54:16.113Z</time></trkpt><trkpt lat="44.0517441" lon="7.8995691"><ele>328.0</ele><time>2026-04-18T07:54:17.113Z</time></trkpt><trkpt lat="44.0517952" lon="7.8992547"><ele>326.3333333333333</ele><time>2026-04-18T07:54:18.114Z</time></trkpt><trkpt lat="44.0518709" lon="7.8989678"><ele>324.6666666666667</ele><time>2026-04-18T07:54:19.113Z</time></trkpt><trkpt lat="44.0519719" lon="7.8986808"><ele>323.0</ele><time>2026-04-18T07:54:20.114Z</time></trkpt><trkpt lat="44.0521179" lon="7.8984189"><ele>320.5</ele><time>2026-04-18T07:54:21.114Z</time></trkpt><trkpt lat="44.052266" lon="7.8981513"><ele>318.0</ele><time>2026-04-18T07:54:22.114Z</time></trkpt><trkpt lat="44.0524002" lon="7.8978473"><ele>331.5</ele><time>2026-04-18T07:54:23.114Z</time></trkpt><trkpt lat="44.052534" lon="7.8975485"><ele>345.0</ele><time>2026-04-18T07:54:24.114Z</time></trkpt><trkpt lat="44.0526458" lon="7.897258"><ele>345.0</ele><time>2026-04-18T07:54:25.114Z</time></trkpt><trkpt lat="44.0527225" lon="7.8969522"><ele>345.0</ele><time>2026-04-18T07:54:26.114Z</time></trkpt><trkpt lat="44.0527713" lon="7.8966272"><ele>341.0</ele><time>2026-04-18T07:54:27.114Z</time></trkpt><trkpt lat="44.0528001" lon="7.8963098"><ele>337.0</ele><time>2026-04-18T07:54:28.114Z</time></trkpt><trkpt lat="44.0528216" lon="7.8960327"><ele>333.0</ele><time>2026-04-18T07:54:29.114Z</time></trkpt><trkpt lat="44.0528509" lon="7.8957991"><ele>333.0</ele><time>2026-04-18T07:54:30.114Z</time></trkpt><trkpt lat="44.052898" lon="7.895614"><ele>333.0</ele><time>2026-04-18T07:54:31.114Z</time></trkpt><trkpt lat="44.0529759" lon="7.8954941"><ele>333.0</ele><time>2026-04-18T07:54:32.113Z</time></trkpt><trkpt lat="44.0530924" lon="7.8954247"><ele>333.0</ele><time>2026-04-18T07:54:33.113Z</time></trkpt><trkpt lat="44.0532214" lon="7.8954005"><ele>342.75</ele><time>2026-04-18T07:54:34.114Z</time></trkpt><trkpt lat="44.0533714" lon="7.8953749"><ele>352.5</ele><time>2026-04-18T07:54:35.113Z</time></trkpt><trkpt lat="44.0535162" lon="7.8953417"><ele>362.25</ele><time>2026-04-18T07:54:36.114Z</time></trkpt><trkpt lat="44.0536361" lon="7.8953005"><ele>372.0</ele><time>2026-04-18T07:54:37.113Z</time></trkpt><trkpt lat="44.0537336" lon="7.8952505"><ele>372.0</ele><time>2026-04-18T07:54:38.114Z</time></trkpt><trkpt lat="44.0538017" lon="7.8951676"><ele>372.0</ele><time>2026-04-18T07:54:39.114Z</time></trkpt><trkpt lat="44.0538294" lon="7.8950521"><ele>372.0</ele><time>2026-04-18T07:54:40.113Z</time></trkpt><trkpt lat="44.0538224" lon="7.894939"><ele>372.0</ele><time>2026-04-18T07:54:41.113Z</time></trkpt><trkpt lat="44.0537811" lon="7.8948521"><ele>372.0</ele><time>2026-04-18T07:54:42.114Z</time></trkpt><trkpt lat="44.0537139" lon="7.894779"><ele>372.0</ele><time>2026-04-18T07:54:43.114Z</time></trkpt><trkpt lat="44.053635" lon="7.8947187"><ele>372.40000000000003</ele><time>2026-04-18T07:54:44.114Z</time></trkpt><trkpt lat="44.0535678" lon="7.8946601"><ele>372.8</ele><time>2026-04-18T07:54:45.114Z</time></trkpt><trkpt lat="44.0535052" lon="7.8945864"><ele>373.2</ele><time>2026-04-18T07:54:46.114Z</time></trkpt><trkpt lat="44.0534471" lon="7.8944957"><ele>373.6</ele><time>2026-04-18T07:54:47.114Z</time></trkpt><trkpt lat="44.0533929" lon="7.894384"><ele>374.0</ele><time>2026-04-18T07:54:48.114Z</time></trkpt><trkpt lat="44.0533378" lon="7.8942327"><ele>362.33333333333337</ele><time>2026-04-18T07:54:49.113Z</time></trkpt><trkpt lat="44.0532861" lon="7.8940363"><ele>350.6666666666667</ele><time>2026-04-18T07:54:50.113Z</time></trkpt><trkpt lat="44.0532328" lon="7.8938255"><ele>339.0</ele><time>2026-04-18T07:54:51.114Z</time></trkpt><trkpt lat="44.0531617" lon="7.8936133"><ele>341.75</ele><time>2026-04-18T07:54:52.114Z</time></trkpt><trkpt lat="44.0530828" lon="7.893422"><ele>344.5</ele><time>2026-04-18T07:54:53.114Z</time></trkpt><trkpt lat="44.0530309" lon="7.893257"><ele>347.25</ele><time>2026-04-18T07:54:54.114Z</time></trkpt><trkpt lat="44.0530267" lon="7.8931217"><ele>350.0</ele><time>2026-04-18T07:54:55.114Z</time></trkpt><trkpt lat="44.0530723" lon="7.892997"><ele>350.0</ele><time>2026-04-18T07:54:56.114Z</time></trkpt><trkpt lat="44.0531641" lon="7.8929018"><ele>350.0</ele><time>2026-04-18T07:54:57.114Z</time></trkpt><trkpt lat="44.0532751" lon="7.8928369"><ele>350.0</ele><time>2026-04-18T07:54:58.114Z</time></trkpt><trkpt lat="44.0533142" lon="7.8926902"><ele>350.0</ele><time>2026-04-18T07:54:59.113Z</time></trkpt><trkpt lat="44.0532543" lon="7.892474"><ele>354.25</ele><time>2026-04-18T07:55:00.114Z</time></trkpt><trkpt lat="44.053164" lon="7.8923051"><ele>358.5</ele><time>2026-04-18T07:55:01.114Z</time></trkpt><trkpt lat="44.0531013" lon="7.8921564"><ele>362.75</ele><time>2026-04-18T07:55:02.114Z</time></trkpt><trkpt lat="44.0530917" lon="7.8920114"><ele>367.0</ele><time>2026-04-18T07:55:03.113Z</time></trkpt><trkpt lat="44.0531179" lon="7.8918454"><ele>368.0</ele><time>2026-04-18T07:55:04.114Z</time></trkpt><trkpt lat="44.0531782" lon="7.8916654"><ele>369.0</ele><time>2026-04-18T07:55:05.113Z</time></trkpt><trkpt lat="44.053271" lon="7.891482"><ele>370.0</ele><time>2026-04-18T07:55:06.114Z</time></trkpt><trkpt lat="44.0533928" lon="7.8912933"><ele>375.66666666666663</ele><time>2026-04-18T07:55:07.114Z</time></trkpt><trkpt lat="44.0535478" lon="7.8911008"><ele>381.3333333333333</ele><time>2026-04-18T07:55:08.114Z</time></trkpt><trkpt lat="44.0537153" lon="7.8908873"><ele>387.0</ele><time>2026-04-18T07:55:09.114Z</time></trkpt><trkpt lat="44.0538826" lon="7.8906657"><ele>387.0</ele><time>2026-04-18T07:55:10.113Z</time></trkpt><trkpt lat="44.0540349" lon="7.8904455"><ele>387.0</ele><time>2026-04-18T07:55:11.114Z</time></trkpt><trkpt lat="44.0541547" lon="7.8902234"><ele>387.0</ele><time>2026-04-18T07:55:12.113Z</time></trkpt><trkpt lat="44.054235" lon="7.8899709"><ele>392.0</ele><time>2026-04-18T07:55:13.114Z</time></trkpt><trkpt lat="44.0543109" lon="7.8897223"><ele>397.0</ele><time>2026-04-18T07:55:14.114Z</time></trkpt><trkpt lat="44.0544173" lon="7.8895088"><ele>402.0</ele><time>2026-04-18T07:55:15.114Z</time></trkpt><trkpt lat="44.0545687" lon="7.8893202"><ele>397.0</ele><time>2026-04-18T07:55:16.113Z</time></trkpt><trkpt lat="44.0547569" lon="7.8891646"><ele>392.0</ele><time>2026-04-18T07:55:17.114Z</time></trkpt><trkpt lat="44.0549531" lon="7.8889854"><ele>401.0</ele><time>2026-04-18T07:55:18.113Z</time></trkpt><trkpt lat="44.0551469" lon="7.8887871"><ele>410.0</ele><time>2026-04-18T07:55:19.114Z</time></trkpt><trkpt lat="44.0553407" lon="7.8885654"><ele>406.5</ele><time>2026-04-18T07:55:20.114Z</time></trkpt><trkpt lat="44.0555309" lon="7.8883277"><ele>403.0</ele><time>2026-04-18T07:55:21.114Z</time></trkpt><trkpt lat="44.0557233" lon="7.8881168"><ele>409.6666666666667</ele><time>2026-04-18T07:55:22.113Z</time></trkpt><trkpt lat="44.0559045" lon="7.8879304"><ele>416.33333333333337</ele><time>2026-04-18T07:55:23.114Z</time></trkpt><trkpt lat="44.0560693" lon="7.8877686"><ele>423.0</ele><time>2026-04-18T07:55:24.115Z</time></trkpt><trkpt lat="44.0561994" lon="7.8876076"><ele>418.33333333333337</ele><time>2026-04-18T07:55:25.115Z</time></trkpt><trkpt lat="44.0563018" lon="7.8874286"><ele>413.6666666666667</ele><time>2026-04-18T07:55:26.115Z</time></trkpt><trkpt lat="44.0563468" lon="7.8871923"><ele>409.0</ele><time>2026-04-18T07:55:27.115Z</time></trkpt><trkpt lat="44.056357" lon="7.8869675"><ele>405.6666666666667</ele><time>2026-04-18T07:55:28.115Z</time></trkpt><trkpt lat="44.0563777" lon="7.8867566"><ele>402.33333333333337</ele><time>2026-04-18T07:55:29.115Z</time></trkpt><trkpt lat="44.0564521" lon="7.886546"><ele>399.0</ele><time>2026-04-18T07:55:30.115Z</time></trkpt><trkpt lat="44.056576" lon="7.8863402"><ele>404.66666666666663</ele><time>2026-04-18T07:55:31.115Z</time></trkpt><trkpt lat="44.0567134" lon="7.8861417"><ele>410.3333333333333</ele><time>2026-04-18T07:55:32.115Z</time></trkpt><trkpt lat="44.0568323" lon="7.8859564"><ele>416.0</ele><time>2026-04-18T07:55:33.115Z</time></trkpt><trkpt lat="44.0569438" lon="7.8858242"><ele>416.0</ele><time>2026-04-18T07:55:34.114Z</time></trkpt><trkpt lat="44.05708" lon="7.8857689"><ele>416.0</ele><time>2026-04-18T07:55:35.115Z</time></trkpt><trkpt lat="44.0572463" lon="7.8857601"><ele>416.0</ele><time>2026-04-18T07:55:36.115Z</time></trkpt><trkpt lat="44.057403" lon="7.8857346"><ele>421.6</ele><time>2026-04-18T07:55:37.114Z</time></trkpt><trkpt lat="44.0575495" lon="7.8857001"><ele>427.20000000000005</ele><time>2026-04-18T07:55:38.115Z</time></trkpt><trkpt lat="44.0576349" lon="7.8856682"><ele>432.79999999999995</ele><time>2026-04-18T07:55:39.115Z</time></trkpt><trkpt lat="44.0576931" lon="7.8856285"><ele>438.4</ele><time>2026-04-18T07:55:40.115Z</time></trkpt><trkpt lat="44.057767" lon="7.8854832"><ele>444.0</ele><time>2026-04-18T07:55:42.115Z</time></trkpt><trkpt lat="44.0577849" lon="7.8853859"><ele>444.0</ele><time>2026-04-18T07:55:43.115Z</time></trkpt><trkpt lat="44.0577667" lon="7.8852612"><ele>444.0</ele><time>2026-04-18T07:55:44.114Z</time></trkpt><trkpt lat="44.057723" lon="7.8850996"><ele>444.0</ele><time>2026-04-18T07:55:45.115Z</time></trkpt><trkpt lat="44.0576587" lon="7.8849096"><ele>444.0</ele><time>2026-04-18T07:55:46.115Z</time></trkpt><trkpt lat="44.0575852" lon="7.8847015"><ele>442.25</ele><time>2026-04-18T07:55:47.115Z</time></trkpt><trkpt lat="44.0575247" lon="7.8845157"><ele>440.5</ele><time>2026-04-18T07:55:48.115Z</time></trkpt><trkpt lat="44.0574933" lon="7.8843542"><ele>438.75</ele><time>2026-04-18T07:55:49.115Z</time></trkpt><trkpt lat="44.0575166" lon="7.8842121"><ele>437.0</ele><time>2026-04-18T07:55:50.115Z</time></trkpt><trkpt lat="44.0575936" lon="7.8840975"><ele>437.0</ele><time>2026-04-18T07:55:51.115Z</time></trkpt><trkpt lat="44.057709" lon="7.8840223"><ele>437.0</ele><time>2026-04-18T07:55:52.115Z</time></trkpt><trkpt lat="44.0578185" lon="7.883922"><ele>437.0</ele><time>2026-04-18T07:55:53.114Z</time></trkpt><trkpt lat="44.0578869" lon="7.8837461"><ele>437.0</ele><time>2026-04-18T07:55:54.114Z</time></trkpt><trkpt lat="44.0579122" lon="7.8835277"><ele>437.0</ele><time>2026-04-18T07:55:55.114Z</time></trkpt><trkpt lat="44.0579063" lon="7.8832947"><ele>437.0</ele><time>2026-04-18T07:55:56.115Z</time></trkpt><trkpt lat="44.0578693" lon="7.8830825"><ele>437.0</ele><time>2026-04-18T07:55:57.114Z</time></trkpt><trkpt lat="44.0577937" lon="7.8829214"><ele>437.0</ele><time>2026-04-18T07:55:58.115Z</time></trkpt><trkpt lat="44.0577365" lon="7.8827856"><ele>437.0</ele><time>2026-04-18T07:55:59.115Z</time></trkpt><trkpt lat="44.057717" lon="7.8826218"><ele>437.0</ele><time>2026-04-18T07:56:00.115Z</time></trkpt><trkpt lat="44.0577487" lon="7.8824382"><ele>437.0</ele><time>2026-04-18T07:56:01.114Z</time></trkpt><trkpt lat="44.0578348" lon="7.8822479"><ele>436.25</ele><time>2026-04-18T07:56:02.115Z</time></trkpt><trkpt lat="44.0579421" lon="7.8820856"><ele>435.5</ele><time>2026-04-18T07:56:03.115Z</time></trkpt><trkpt lat="44.0580396" lon="7.8819843"><ele>434.75</ele><time>2026-04-18T07:56:04.115Z</time></trkpt><trkpt lat="44.058175" lon="7.8819709"><ele>434.0</ele><time>2026-04-18T07:56:05.115Z</time></trkpt><trkpt lat="44.0583175" lon="7.8820285"><ele>446.0</ele><time>2026-04-18T07:56:06.115Z</time></trkpt><trkpt lat="44.0584573" lon="7.8821397"><ele>458.0</ele><time>2026-04-18T07:56:07.114Z</time></trkpt><trkpt lat="44.0586036" lon="7.8822691"><ele>470.0</ele><time>2026-04-18T07:56:08.115Z</time></trkpt><trkpt lat="44.0587774" lon="7.8823672"><ele>470.0</ele><time>2026-04-18T07:56:09.115Z</time></trkpt><trkpt lat="44.0589827" lon="7.8824122"><ele>470.0</ele><time>2026-04-18T07:56:10.115Z</time></trkpt><trkpt lat="44.0591939" lon="7.8824246"><ele>470.0</ele><time>2026-04-18T07:56:11.115Z</time></trkpt><trkpt lat="44.059407" lon="7.8823749"><ele>471.66666666666663</ele><time>2026-04-18T07:56:12.115Z</time></trkpt><trkpt lat="44.0596108" lon="7.8823127"><ele>473.33333333333337</ele><time>2026-04-18T07:56:13.115Z</time></trkpt><trkpt lat="44.0598057" lon="7.8822815"><ele>475.0</ele><time>2026-04-18T07:56:14.115Z</time></trkpt><trkpt lat="44.0600009" lon="7.8823341"><ele>479.33333333333337</ele><time>2026-04-18T07:56:15.114Z</time></trkpt><trkpt lat="44.0602061" lon="7.8824474"><ele>483.66666666666663</ele><time>2026-04-18T07:56:16.114Z</time></trkpt><trkpt lat="44.0604074" lon="7.882586"><ele>488.0</ele><time>2026-04-18T07:56:17.115Z</time></trkpt><trkpt lat="44.0605852" lon="7.8827229"><ele>492.5</ele><time>2026-04-18T07:56:18.115Z</time></trkpt><trkpt lat="44.0607351" lon="7.882841"><ele>497.0</ele><time>2026-04-18T07:56:19.115Z</time></trkpt><trkpt lat="44.0608694" lon="7.8829294"><ele>501.5</ele><time>2026-04-18T07:56:20.115Z</time></trkpt><trkpt lat="44.0609767" lon="7.8829203"><ele>506.0</ele><time>2026-04-18T07:56:21.114Z</time></trkpt><trkpt lat="44.0610919" lon="7.8828294"><ele>506.0</ele><time>2026-04-18T07:56:22.115Z</time></trkpt><trkpt lat="44.0611802" lon="7.8826831"><ele>506.0</ele><time>2026-04-18T07:56:23.115Z</time></trkpt><trkpt lat="44.0612194" lon="7.8825016"><ele>506.0</ele><time>2026-04-18T07:56:24.114Z</time></trkpt><trkpt lat="44.0612077" lon="7.8823001"><ele>506.0</ele><time>2026-04-18T07:56:25.114Z</time></trkpt><trkpt lat="44.0611548" lon="7.8820931"><ele>499.66666666666663</ele><time>2026-04-18T07:56:26.114Z</time></trkpt><trkpt lat="44.0610844" lon="7.8818438"><ele>493.33333333333337</ele><time>2026-04-18T07:56:27.115Z</time></trkpt><trkpt lat="44.0610167" lon="7.8815632"><ele>487.0</ele><time>2026-04-18T07:56:28.115Z</time></trkpt><trkpt lat="44.0609508" lon="7.8812652"><ele>485.5</ele><time>2026-04-18T07:56:29.114Z</time></trkpt><trkpt lat="44.0608909" lon="7.8809463"><ele>484.0</ele><time>2026-04-18T07:56:30.115Z</time></trkpt><trkpt lat="44.060831" lon="7.8806163"><ele>476.0</ele><time>2026-04-18T07:56:31.115Z</time></trkpt><trkpt lat="44.0607676" lon="7.8802777"><ele>468.0</ele><time>2026-04-18T07:56:32.115Z</time></trkpt><trkpt lat="44.0606891" lon="7.8799424"><ele>468.0</ele><time>2026-04-18T07:56:33.115Z</time></trkpt><trkpt lat="44.0605884" lon="7.8796446"><ele>468.0</ele><time>2026-04-18T07:56:34.115Z</time></trkpt><trkpt lat="44.0604819" lon="7.879405"><ele>468.0</ele><time>2026-04-18T07:56:35.115Z</time></trkpt><trkpt lat="44.0603721" lon="7.8792032"><ele>473.0</ele><time>2026-04-18T07:56:36.115Z</time></trkpt><trkpt lat="44.0603011" lon="7.8790056"><ele>478.0</ele><time>2026-04-18T07:56:37.115Z</time></trkpt><trkpt lat="44.0602796" lon="7.878796"><ele>483.0</ele><time>2026-04-18T07:56:38.114Z</time></trkpt><trkpt lat="44.0602989" lon="7.8786059"><ele>488.0</ele><time>2026-04-18T07:56:39.114Z</time></trkpt><trkpt lat="44.0603674" lon="7.8784354"><ele>490.0</ele><time>2026-04-18T07:56:40.114Z</time></trkpt><trkpt lat="44.0604747" lon="7.8782725"><ele>492.0</ele><time>2026-04-18T07:56:41.115Z</time></trkpt><trkpt lat="44.060599" lon="7.8781289"><ele>494.0</ele><time>2026-04-18T07:56:42.115Z</time></trkpt><trkpt lat="44.0607231" lon="7.8780139"><ele>505.66666666666663</ele><time>2026-04-18T07:56:43.115Z</time></trkpt><trkpt lat="44.0608576" lon="7.8779584"><ele>517.3333333333334</ele><time>2026-04-18T07:56:44.115Z</time></trkpt><trkpt lat="44.0610025" lon="7.8779388"><ele>529.0</ele><time>2026-04-18T07:56:45.114Z</time></trkpt><trkpt lat="44.0611724" lon="7.877962"><ele>529.0</ele><time>2026-04-18T07:56:46.114Z</time></trkpt><trkpt lat="44.0613654" lon="7.8779708"><ele>529.0</ele><time>2026-04-18T07:56:47.114Z</time></trkpt><trkpt lat="44.0615773" lon="7.8779718"><ele>529.0</ele><time>2026-04-18T07:56:48.114Z</time></trkpt><trkpt lat="44.0617974" lon="7.8779624"><ele>537.0</ele><time>2026-04-18T07:56:49.114Z</time></trkpt><trkpt lat="44.0620177" lon="7.8779258"><ele>545.0</ele><time>2026-04-18T07:56:50.115Z</time></trkpt><trkpt lat="44.0622333" lon="7.8778754"><ele>553.0</ele><time>2026-04-18T07:56:51.115Z</time></trkpt><trkpt lat="44.0624311" lon="7.8778045"><ele>560.0</ele><time>2026-04-18T07:56:52.114Z</time></trkpt><trkpt lat="44.0626178" lon="7.8777164"><ele>567.0</ele><time>2026-04-18T07:56:53.114Z</time></trkpt><trkpt lat="44.0627818" lon="7.8776554"><ele>574.0</ele><time>2026-04-18T07:56:54.115Z</time></trkpt><trkpt lat="44.0629316" lon="7.8776417"><ele>574.0</ele><time>2026-04-18T07:56:55.115Z</time></trkpt><trkpt lat="44.0630779" lon="7.8776746"><ele>574.0</ele><time>2026-04-18T07:56:56.115Z</time></trkpt><trkpt lat="44.0632214" lon="7.877683"><ele>574.0</ele><time>2026-04-18T07:56:57.115Z</time></trkpt><trkpt lat="44.0633665" lon="7.8776774"><ele>574.0</ele><time>2026-04-18T07:56:58.115Z</time></trkpt><trkpt lat="44.0634978" lon="7.8776387"><ele>562.3333333333334</ele><time>2026-04-18T07:56:59.114Z</time></trkpt><trkpt lat="44.0636319" lon="7.8775699"><ele>550.6666666666666</ele><time>2026-04-18T07:57:00.116Z</time></trkpt><trkpt lat="44.0637741" lon="7.8774434"><ele>539.0</ele><time>2026-04-18T07:57:01.116Z</time></trkpt><trkpt lat="44.0639332" lon="7.8772852"><ele>539.0</ele><time>2026-04-18T07:57:02.115Z</time></trkpt><trkpt lat="44.0641017" lon="7.8771267"><ele>539.0</ele><time>2026-04-18T07:57:03.116Z</time></trkpt><trkpt lat="44.0642977" lon="7.8769729"><ele>539.0</ele><time>2026-04-18T07:57:04.116Z</time></trkpt><trkpt lat="44.0644938" lon="7.8768057"><ele>537.5</ele><time>2026-04-18T07:57:05.116Z</time></trkpt><trkpt lat="44.0646869" lon="7.8766185"><ele>536.0</ele><time>2026-04-18T07:57:06.116Z</time></trkpt><trkpt lat="44.0648768" lon="7.8764271"><ele>544.3333333333333</ele><time>2026-04-18T07:57:07.116Z</time></trkpt><trkpt lat="44.0650531" lon="7.8762447"><ele>552.6666666666666</ele><time>2026-04-18T07:57:08.116Z</time></trkpt><trkpt lat="44.0652085" lon="7.8760866"><ele>561.0</ele><time>2026-04-18T07:57:09.116Z</time></trkpt><trkpt lat="44.0653523" lon="7.8759474"><ele>555.6666666666666</ele><time>2026-04-18T07:57:10.116Z</time></trkpt><trkpt lat="44.0654717" lon="7.8758101"><ele>550.3333333333333</ele><time>2026-04-18T07:57:11.116Z</time></trkpt><trkpt lat="44.0655475" lon="7.8756297"><ele>545.0</ele><time>2026-04-18T07:57:12.116Z</time></trkpt><trkpt lat="44.0655718" lon="7.8754234"><ele>545.0</ele><time>2026-04-18T07:57:13.116Z</time></trkpt><trkpt lat="44.0655343" lon="7.8751846"><ele>545.0</ele><time>2026-04-18T07:57:14.115Z</time></trkpt><trkpt lat="44.0654568" lon="7.8749373"><ele>545.0</ele><time>2026-04-18T07:57:15.116Z</time></trkpt><trkpt lat="44.0653847" lon="7.8747128"><ele>543.75</ele><time>2026-04-18T07:57:16.116Z</time></trkpt><trkpt lat="44.0653405" lon="7.8745193"><ele>542.5</ele><time>2026-04-18T07:57:17.115Z</time></trkpt><trkpt lat="44.0653406" lon="7.8743447"><ele>541.25</ele><time>2026-04-18T07:57:18.116Z</time></trkpt><trkpt lat="44.065387" lon="7.8741962"><ele>540.0</ele><time>2026-04-18T07:57:19.116Z</time></trkpt><trkpt lat="44.0654595" lon="7.874056"><ele>539.3333333333334</ele><time>2026-04-18T07:57:20.116Z</time></trkpt><trkpt lat="44.0655802" lon="7.8739593"><ele>538.6666666666667</ele><time>2026-04-18T07:57:21.116Z</time></trkpt><trkpt lat="44.065717" lon="7.8738734"><ele>538.0</ele><time>2026-04-18T07:57:22.116Z</time></trkpt><trkpt lat="44.0658809" lon="7.8737831"><ele>553.6666666666667</ele><time>2026-04-18T07:57:23.116Z</time></trkpt><trkpt lat="44.0660511" lon="7.8737062"><ele>569.3333333333334</ele><time>2026-04-18T07:57:24.116Z</time></trkpt><trkpt lat="44.0662084" lon="7.8736573"><ele>585.0</ele><time>2026-04-18T07:57:25.116Z</time></trkpt><trkpt lat="44.0663477" lon="7.8736162"><ele>585.0</ele><time>2026-04-18T07:57:26.116Z</time></trkpt><trkpt lat="44.0664739" lon="7.8735705"><ele>585.0</ele><time>2026-04-18T07:57:27.116Z</time></trkpt><trkpt lat="44.0665814" lon="7.8735004"><ele>585.0</ele><time>2026-04-18T07:57:28.116Z</time></trkpt><trkpt lat="44.0666737" lon="7.8734089"><ele>585.0</ele><time>2026-04-18T07:57:29.116Z</time></trkpt><trkpt lat="44.0667559" lon="7.8733145"><ele>583.2</ele><time>2026-04-18T07:57:30.115Z</time></trkpt><trkpt lat="44.0668342" lon="7.873221"><ele>581.4</ele><time>2026-04-18T07:57:31.116Z</time></trkpt><trkpt lat="44.0669227" lon="7.8731453"><ele>579.6</ele><time>2026-04-18T07:57:32.116Z</time></trkpt><trkpt lat="44.0670153" lon="7.8731088"><ele>577.8</ele><time>2026-04-18T07:57:33.116Z</time></trkpt><trkpt lat="44.067112" lon="7.8731181"><ele>576.0</ele><time>2026-04-18T07:57:34.116Z</time></trkpt><trkpt lat="44.0672084" lon="7.8731451"><ele>576.0</ele><time>2026-04-18T07:57:35.116Z</time></trkpt><trkpt lat="44.0673033" lon="7.8731834"><ele>576.0</ele><time>2026-04-18T07:57:36.116Z</time></trkpt><trkpt lat="44.0674126" lon="7.873203"><ele>576.0</ele><time>2026-04-18T07:57:37.115Z</time></trkpt><trkpt lat="44.0675491" lon="7.8731975"><ele>576.0</ele><time>2026-04-18T07:57:38.116Z</time></trkpt><trkpt lat="44.0677077" lon="7.8731703"><ele>581.25</ele><time>2026-04-18T07:57:39.116Z</time></trkpt><trkpt lat="44.0678573" lon="7.8731129"><ele>586.5</ele><time>2026-04-18T07:57:40.116Z</time></trkpt><trkpt lat="44.0679908" lon="7.8730523"><ele>591.75</ele><time>2026-04-18T07:57:41.116Z</time></trkpt><trkpt lat="44.0681265" lon="7.8730322"><ele>597.0</ele><time>2026-04-18T07:57:42.115Z</time></trkpt><trkpt lat="44.0682802" lon="7.8730383"><ele>601.0</ele><time>2026-04-18T07:57:43.115Z</time></trkpt><trkpt lat="44.0684549" lon="7.8730711"><ele>605.0</ele><time>2026-04-18T07:57:44.115Z</time></trkpt><trkpt lat="44.06862" lon="7.8731348"><ele>609.0</ele><time>2026-04-18T07:57:45.115Z</time></trkpt><trkpt lat="44.0687671" lon="7.8731983"><ele>609.0</ele><time>2026-04-18T07:57:46.116Z</time></trkpt><trkpt lat="44.068891" lon="7.8731967"><ele>609.0</ele><time>2026-04-18T07:57:47.116Z</time></trkpt><trkpt lat="44.0690008" lon="7.8731205"><ele>609.0</ele><time>2026-04-18T07:57:48.116Z</time></trkpt><trkpt lat="44.0691083" lon="7.8729719"><ele>609.0</ele><time>2026-04-18T07:57:49.115Z</time></trkpt><trkpt lat="44.0692163" lon="7.8728683"><ele>609.5</ele><time>2026-04-18T07:57:50.116Z</time></trkpt><trkpt lat="44.0693392" lon="7.8728017"><ele>610.0</ele><time>2026-04-18T07:57:51.115Z</time></trkpt><trkpt lat="44.0694858" lon="7.8728109"><ele>610.5</ele><time>2026-04-18T07:57:52.116Z</time></trkpt><trkpt lat="44.0696426" lon="7.8728345"><ele>611.0</ele><time>2026-04-18T07:57:53.116Z</time></trkpt><trkpt lat="44.0698187" lon="7.8728588"><ele>615.0</ele><time>2026-04-18T07:57:54.116Z</time></trkpt><trkpt lat="44.0699905" lon="7.872901"><ele>619.0</ele><time>2026-04-18T07:57:55.116Z</time></trkpt><trkpt lat="44.0701295" lon="7.8729451"><ele>623.0</ele><time>2026-04-18T07:57:56.115Z</time></trkpt><trkpt lat="44.0702383" lon="7.8729637"><ele>627.0</ele><time>2026-04-18T07:57:57.116Z</time></trkpt><trkpt lat="44.0703246" lon="7.8729409"><ele>627.0</ele><time>2026-04-18T07:57:58.115Z</time></trkpt><trkpt lat="44.0703742" lon="7.8728276"><ele>627.0</ele><time>2026-04-18T07:57:59.116Z</time></trkpt><trkpt lat="44.0703721" lon="7.8726639"><ele>627.0</ele><time>2026-04-18T07:58:00.115Z</time></trkpt><trkpt lat="44.0703435" lon="7.8724802"><ele>627.0</ele><time>2026-04-18T07:58:01.116Z</time></trkpt><trkpt lat="44.0702918" lon="7.8722948"><ele>623.0</ele><time>2026-04-18T07:58:02.116Z</time></trkpt><trkpt lat="44.0702148" lon="7.8721065"><ele>619.0</ele><time>2026-04-18T07:58:03.116Z</time></trkpt><trkpt lat="44.0701534" lon="7.871915"><ele>615.0</ele><time>2026-04-18T07:58:04.116Z</time></trkpt><trkpt lat="44.0701174" lon="7.8717169"><ele>615.0</ele><time>2026-04-18T07:58:05.116Z</time></trkpt><trkpt lat="44.0701031" lon="7.8714966"><ele>615.0</ele><time>2026-04-18T07:58:06.116Z</time></trkpt><trkpt lat="44.0700826" lon="7.8712552"><ele>615.0</ele><time>2026-04-18T07:58:07.116Z</time></trkpt><trkpt lat="44.0700577" lon="7.8709775"><ele>617.0</ele><time>2026-04-18T07:58:08.116Z</time></trkpt><trkpt lat="44.0700227" lon="7.8706829"><ele>619.0</ele><time>2026-04-18T07:58:09.116Z</time></trkpt><trkpt lat="44.0699944" lon="7.8703805"><ele>621.0</ele><time>2026-04-18T07:58:10.115Z</time></trkpt><trkpt lat="44.0699708" lon="7.8700769"><ele>624.3333333333334</ele><time>2026-04-18T07:58:11.115Z</time></trkpt><trkpt lat="44.0699513" lon="7.8697855"><ele>627.6666666666667</ele><time>2026-04-18T07:58:12.115Z</time></trkpt><trkpt lat="44.0699274" lon="7.8695244"><ele>631.0</ele><time>2026-04-18T07:58:13.115Z</time></trkpt><trkpt lat="44.0698921" lon="7.8693051"><ele>626.0</ele><time>2026-04-18T07:58:14.115Z</time></trkpt><trkpt lat="44.0698305" lon="7.8691303"><ele>621.0</ele><time>2026-04-18T07:58:15.115Z</time></trkpt><trkpt lat="44.0697418" lon="7.8689736"><ele>616.0</ele><time>2026-04-18T07:58:16.116Z</time></trkpt><trkpt lat="44.0696345" lon="7.8688606"><ele>611.0</ele><time>2026-04-18T07:58:17.116Z</time></trkpt><trkpt lat="44.0695472" lon="7.8687403"><ele>611.0</ele><time>2026-04-18T07:58:18.115Z</time></trkpt><trkpt lat="44.0695029" lon="7.8685811"><ele>611.0</ele><time>2026-04-18T07:58:19.116Z</time></trkpt><trkpt lat="44.0694934" lon="7.8684034"><ele>611.0</ele><time>2026-04-18T07:58:20.116Z</time></trkpt><trkpt lat="44.0695367" lon="7.8682165"><ele>611.0</ele><time>2026-04-18T07:58:21.116Z</time></trkpt><trkpt lat="44.0696156" lon="7.868034"><ele>613.0</ele><time>2026-04-18T07:58:22.116Z</time></trkpt><trkpt lat="44.069736" lon="7.8678818"><ele>615.0</ele><time>2026-04-18T07:58:23.115Z</time></trkpt><trkpt lat="44.0698768" lon="7.8677499"><ele>617.0</ele><time>2026-04-18T07:58:24.115Z</time></trkpt><trkpt lat="44.0700087" lon="7.867603"><ele>623.3333333333333</ele><time>2026-04-18T07:58:25.116Z</time></trkpt><trkpt lat="44.0701312" lon="7.8674219"><ele>629.6666666666666</ele><time>2026-04-18T07:58:26.115Z</time></trkpt><trkpt lat="44.0702303" lon="7.8671713"><ele>636.0</ele><time>2026-04-18T07:58:27.115Z</time></trkpt><trkpt lat="44.0703125" lon="7.8669515"><ele>632.75</ele><time>2026-04-18T07:58:28.115Z</time></trkpt><trkpt lat="44.0703819" lon="7.8667532"><ele>629.5</ele><time>2026-04-18T07:58:29.116Z</time></trkpt><trkpt lat="44.0704381" lon="7.8665761"><ele>626.25</ele><time>2026-04-18T07:58:30.115Z</time></trkpt><trkpt lat="44.0705054" lon="7.8664311"><ele>623.0</ele><time>2026-04-18T07:58:31.116Z</time></trkpt><trkpt lat="44.0705951" lon="7.866356"><ele>623.0</ele><time>2026-04-18T07:58:32.116Z</time></trkpt><trkpt lat="44.0706988" lon="7.8663522"><ele>623.0</ele><time>2026-04-18T07:58:33.115Z</time></trkpt><trkpt lat="44.0707847" lon="7.8664192"><ele>623.0</ele><time>2026-04-18T07:58:34.116Z</time></trkpt><trkpt lat="44.0708828" lon="7.8665572"><ele>623.0</ele><time>2026-04-18T07:58:35.116Z</time></trkpt><trkpt lat="44.0710079" lon="7.8666897"><ele>632.0</ele><time>2026-04-18T07:58:36.117Z</time></trkpt><trkpt lat="44.0711477" lon="7.8667663"><ele>641.0</ele><time>2026-04-18T07:58:37.117Z</time></trkpt><trkpt lat="44.0713109" lon="7.8668013"><ele>650.0</ele><time>2026-04-18T07:58:38.117Z</time></trkpt><trkpt lat="44.07147" lon="7.8668619"><ele>663.3333333333333</ele><time>2026-04-18T07:58:39.117Z</time></trkpt><trkpt lat="44.0716225" lon="7.866975"><ele>676.6666666666666</ele><time>2026-04-18T07:58:40.117Z</time></trkpt><trkpt lat="44.0717945" lon="7.8670864"><ele>690.0</ele><time>2026-04-18T07:58:41.117Z</time></trkpt><trkpt lat="44.0719818" lon="7.8671456"><ele>690.0</ele><time>2026-04-18T07:58:42.117Z</time></trkpt><trkpt lat="44.0721791" lon="7.867166"><ele>690.0</ele><time>2026-04-18T07:58:43.117Z</time></trkpt><trkpt lat="44.0723332" lon="7.8671389"><ele>690.0</ele><time>2026-04-18T07:58:44.117Z</time></trkpt><trkpt lat="44.0724827" lon="7.8671771"><ele>689.75</ele><time>2026-04-18T07:58:45.117Z</time></trkpt><trkpt lat="44.0726285" lon="7.8672562"><ele>689.5</ele><time>2026-04-18T07:58:46.117Z</time></trkpt><trkpt lat="44.0727659" lon="7.8673101"><ele>689.25</ele><time>2026-04-18T07:58:47.117Z</time></trkpt><trkpt lat="44.0729149" lon="7.8672858"><ele>689.0</ele><time>2026-04-18T07:58:48.117Z</time></trkpt><trkpt lat="44.0730793" lon="7.8672372"><ele>689.0</ele><time>2026-04-18T07:58:49.117Z</time></trkpt><trkpt lat="44.0732304" lon="7.8672429"><ele>689.0</ele><time>2026-04-18T07:58:50.116Z</time></trkpt><trkpt lat="44.0734075" lon="7.8673067"><ele>689.0</ele><time>2026-04-18T07:58:51.117Z</time></trkpt><trkpt lat="44.073612" lon="7.8673354"><ele>688.0</ele><time>2026-04-18T07:58:52.117Z</time></trkpt><trkpt lat="44.073822" lon="7.8673113"><ele>687.0</ele><time>2026-04-18T07:58:53.116Z</time></trkpt><trkpt lat="44.0740146" lon="7.8672749"><ele>686.0</ele><time>2026-04-18T07:58:54.117Z</time></trkpt><trkpt lat="44.0741975" lon="7.8672553"><ele>688.3333333333333</ele><time>2026-04-18T07:58:55.117Z</time></trkpt><trkpt lat="44.0743623" lon="7.8672752"><ele>690.6666666666666</ele><time>2026-04-18T07:58:56.117Z</time></trkpt><trkpt lat="44.0745032" lon="7.8673295"><ele>693.0</ele><time>2026-04-18T07:58:57.117Z</time></trkpt><trkpt lat="44.0746415" lon="7.867414"><ele>693.0</ele><time>2026-04-18T07:58:58.117Z</time></trkpt><trkpt lat="44.0747741" lon="7.8674934"><ele>693.0</ele><time>2026-04-18T07:58:59.117Z</time></trkpt><trkpt lat="44.0749019" lon="7.8675499"><ele>693.0</ele><time>2026-04-18T07:59:00.116Z</time></trkpt><trkpt lat="44.0750289" lon="7.8675884"><ele>693.0</ele><time>2026-04-18T07:59:01.117Z</time></trkpt><trkpt lat="44.0751503" lon="7.8676091"><ele>703.5</ele><time>2026-04-18T07:59:02.117Z</time></trkpt><trkpt lat="44.0752672" lon="7.8676222"><ele>714.0</ele><time>2026-04-18T07:59:03.117Z</time></trkpt><trkpt lat="44.0753788" lon="7.8676403"><ele>724.5</ele><time>2026-04-18T07:59:04.117Z</time></trkpt><trkpt lat="44.0754909" lon="7.8676714"><ele>735.0</ele><time>2026-04-18T07:59:05.116Z</time></trkpt><trkpt lat="44.0755954" lon="7.8676967"><ele>735.0</ele><time>2026-04-18T07:59:06.117Z</time></trkpt><trkpt lat="44.075687" lon="7.8677188"><ele>735.0</ele><time>2026-04-18T07:59:07.117Z</time></trkpt><trkpt lat="44.0757734" lon="7.8677504"><ele>735.0</ele><time>2026-04-18T07:59:08.116Z</time></trkpt><trkpt lat="44.0758628" lon="7.8678049"><ele>735.0</ele><time>2026-04-18T07:59:09.117Z</time></trkpt><trkpt lat="44.0759468" lon="7.8678488"><ele>735.0</ele><time>2026-04-18T07:59:10.116Z</time></trkpt><trkpt lat="44.0760246" lon="7.8678813"><ele>734.2857142857143</ele><time>2026-04-18T07:59:11.117Z</time></trkpt><trkpt lat="44.0760988" lon="7.8679011"><ele>733.5714285714286</ele><time>2026-04-18T07:59:12.116Z</time></trkpt><trkpt lat="44.0761704" lon="7.8679272"><ele>732.8571428571429</ele><time>2026-04-18T07:59:13.117Z</time></trkpt><trkpt lat="44.0762355" lon="7.8679291"><ele>732.1428571428571</ele><time>2026-04-18T07:59:14.116Z</time></trkpt><trkpt lat="44.0762983" lon="7.8678963"><ele>731.4285714285714</ele><time>2026-04-18T07:59:15.117Z</time></trkpt><trkpt lat="44.0763541" lon="7.8678211"><ele>730.7142857142858</ele><time>2026-04-18T07:59:16.117Z</time></trkpt><trkpt lat="44.0763945" lon="7.867738"><ele>730.0</ele><time>2026-04-18T07:59:17.117Z</time></trkpt><trkpt lat="44.0763865" lon="7.8676174"><ele>723.0</ele><time>2026-04-18T07:59:18.116Z</time></trkpt><trkpt lat="44.0763531" lon="7.8674976"><ele>716.0</ele><time>2026-04-18T07:59:19.117Z</time></trkpt><trkpt lat="44.0763017" lon="7.8673699"><ele>709.0</ele><time>2026-04-18T07:59:20.116Z</time></trkpt><trkpt lat="44.076238" lon="7.8672282"><ele>702.0</ele><time>2026-04-18T07:59:21.117Z</time></trkpt><trkpt lat="44.0761762" lon="7.867067"><ele>695.0</ele><time>2026-04-18T07:59:22.117Z</time></trkpt><trkpt lat="44.0761224" lon="7.8668872"><ele>694.25</ele><time>2026-04-18T07:59:23.117Z</time></trkpt><trkpt lat="44.0760798" lon="7.8667029"><ele>693.5</ele><time>2026-04-18T07:59:24.116Z</time></trkpt><trkpt lat="44.0760471" lon="7.8665283"><ele>692.75</ele><time>2026-04-18T07:59:25.116Z</time></trkpt><trkpt lat="44.0760283" lon="7.8663662"><ele>692.0</ele><time>2026-04-18T07:59:26.117Z</time></trkpt><trkpt lat="44.076011" lon="7.8662088"><ele>692.0</ele><time>2026-04-18T07:59:27.117Z</time></trkpt><trkpt lat="44.0759972" lon="7.8660446"><ele>692.0</ele><time>2026-04-18T07:59:28.116Z</time></trkpt><trkpt lat="44.0759981" lon="7.865859"><ele>692.0</ele><time>2026-04-18T07:59:29.117Z</time></trkpt><trkpt lat="44.0760075" lon="7.865674"><ele>692.0</ele><time>2026-04-18T07:59:30.117Z</time></trkpt><trkpt lat="44.0760144" lon="7.8655051"><ele>694.5</ele><time>2026-04-18T07:59:31.117Z</time></trkpt><trkpt lat="44.0760122" lon="7.8653354"><ele>697.0</ele><time>2026-04-18T07:59:32.117Z</time></trkpt><trkpt lat="44.0760037" lon="7.8651563"><ele>699.5</ele><time>2026-04-18T07:59:33.117Z</time></trkpt><trkpt lat="44.0759688" lon="7.864971"><ele>702.0</ele><time>2026-04-18T07:59:34.116Z</time></trkpt><trkpt lat="44.0759069" lon="7.8648073"><ele>703.2</ele><time>2026-04-18T07:59:35.117Z</time></trkpt><trkpt lat="44.0758426" lon="7.86467"><ele>704.4000000000001</ele><time>2026-04-18T07:59:36.117Z</time></trkpt><trkpt lat="44.0757904" lon="7.8645348"><ele>705.5999999999999</ele><time>2026-04-18T07:59:37.117Z</time></trkpt><trkpt lat="44.0757578" lon="7.8643973"><ele>706.8</ele><time>2026-04-18T07:59:38.116Z</time></trkpt><trkpt lat="44.0757545" lon="7.8642567"><ele>708.0</ele><time>2026-04-18T07:59:39.116Z</time></trkpt><trkpt lat="44.0757848" lon="7.864111"><ele>710.0</ele><time>2026-04-18T07:59:40.117Z</time></trkpt><trkpt lat="44.0758198" lon="7.8639724"><ele>712.0</ele><time>2026-04-18T07:59:41.117Z</time></trkpt><trkpt lat="44.0758518" lon="7.8638529"><ele>714.0</ele><time>2026-04-18T07:59:42.116Z</time></trkpt><trkpt lat="44.0758862" lon="7.8637322"><ele>716.0</ele><time>2026-04-18T07:59:43.116Z</time></trkpt><trkpt lat="44.0759217" lon="7.8636065"><ele>718.0</ele><time>2026-04-18T07:59:44.117Z</time></trkpt><trkpt lat="44.0759813" lon="7.8634878"><ele>718.0</ele><time>2026-04-18T07:59:45.117Z</time></trkpt><trkpt lat="44.0760644" lon="7.8633881"><ele>718.0</ele><time>2026-04-18T07:59:46.117Z</time></trkpt><trkpt lat="44.0761553" lon="7.8633007"><ele>718.0</ele><time>2026-04-18T07:59:47.117Z</time></trkpt><trkpt lat="44.0762387" lon="7.8632094"><ele>718.0</ele><time>2026-04-18T07:59:48.116Z</time></trkpt><trkpt lat="44.0763175" lon="7.8631158"><ele>718.0</ele><time>2026-04-18T07:59:49.117Z</time></trkpt><trkpt lat="44.0763832" lon="7.8630164"><ele>718.0</ele><time>2026-04-18T07:59:50.117Z</time></trkpt><trkpt lat="44.0764465" lon="7.8629072"><ele>718.0</ele><time>2026-04-18T07:59:51.117Z</time></trkpt><trkpt lat="44.0764862" lon="7.8627791"><ele>718.0</ele><time>2026-04-18T07:59:52.116Z</time></trkpt><trkpt lat="44.0764995" lon="7.862648"><ele>718.0</ele><time>2026-04-18T07:59:53.117Z</time></trkpt><trkpt lat="44.0765053" lon="7.8625309"><ele>718.0</ele><time>2026-04-18T07:59:54.117Z</time></trkpt><trkpt lat="44.0765177" lon="7.8624244"><ele>715.8</ele><time>2026-04-18T07:59:55.117Z</time></trkpt><trkpt lat="44.0765513" lon="7.862318"><ele>713.5999999999999</ele><time>2026-04-18T07:59:56.117Z</time></trkpt><trkpt lat="44.0766149" lon="7.8622194"><ele>711.4000000000001</ele><time>2026-04-18T07:59:57.117Z</time></trkpt><trkpt lat="44.0766921" lon="7.8621048"><ele>709.2</ele><time>2026-04-18T07:59:58.117Z</time></trkpt><trkpt lat="44.07677" lon="7.8619803"><ele>707.0</ele><time>2026-04-18T07:59:59.117Z</time></trkpt><trkpt lat="44.0768499" lon="7.8618731"><ele>709.0</ele><time>2026-04-18T08:00:00.117Z</time></trkpt><trkpt lat="44.0769423" lon="7.8617931"><ele>711.0</ele><time>2026-04-18T08:00:01.117Z</time></trkpt><trkpt lat="44.0770469" lon="7.8617381"><ele>713.0</ele><time>2026-04-18T08:00:02.116Z</time></trkpt><trkpt lat="44.0771535" lon="7.861698"><ele>715.0</ele><time>2026-04-18T08:00:03.116Z</time></trkpt><trkpt lat="44.0772548" lon="7.8616835"><ele>717.0</ele><time>2026-04-18T08:00:04.116Z</time></trkpt><trkpt lat="44.0773606" lon="7.8617008"><ele>720.0</ele><time>2026-04-18T08:00:05.117Z</time></trkpt><trkpt lat="44.0774591" lon="7.8617359"><ele>723.0</ele><time>2026-04-18T08:00:06.117Z</time></trkpt><trkpt lat="44.0775351" lon="7.8617826"><ele>726.0</ele><time>2026-04-18T08:00:07.117Z</time></trkpt><trkpt lat="44.0776023" lon="7.8618348"><ele>729.0</ele><time>2026-04-18T08:00:08.117Z</time></trkpt><trkpt lat="44.0776619" lon="7.8619001"><ele>732.0</ele><time>2026-04-18T08:00:09.117Z</time></trkpt><trkpt lat="44.0777296" lon="7.8619532"><ele>735.0</ele><time>2026-04-18T08:00:10.118Z</time></trkpt><trkpt lat="44.0778089" lon="7.8619589"><ele>735.0</ele><time>2026-04-18T08:00:11.118Z</time></trkpt><trkpt lat="44.0778931" lon="7.8619269"><ele>735.0</ele><time>2026-04-18T08:00:12.117Z</time></trkpt><trkpt lat="44.0779598" lon="7.8618347"><ele>735.0</ele><time>2026-04-18T08:00:13.118Z</time></trkpt><trkpt lat="44.0780001" lon="7.8617151"><ele>735.0</ele><time>2026-04-18T08:00:14.118Z</time></trkpt><trkpt lat="44.0780504" lon="7.8615767"><ele>735.0</ele><time>2026-04-18T08:00:15.118Z</time></trkpt><trkpt lat="44.0781" lon="7.8614469"><ele>735.0</ele><time>2026-04-18T08:00:16.118Z</time></trkpt><trkpt lat="44.0781519" lon="7.8613287"><ele>735.0</ele><time>2026-04-18T08:00:17.117Z</time></trkpt><trkpt lat="44.0782047" lon="7.8612226"><ele>735.0</ele><time>2026-04-18T08:00:18.118Z</time></trkpt><trkpt lat="44.0782678" lon="7.8611103"><ele>735.0</ele><time>2026-04-18T08:00:19.118Z</time></trkpt><trkpt lat="44.0783461" lon="7.8610282"><ele>735.0</ele><time>2026-04-18T08:00:20.118Z</time></trkpt><trkpt lat="44.0784327" lon="7.8609553"><ele>737.8</ele><time>2026-04-18T08:00:21.117Z</time></trkpt><trkpt lat="44.0785169" lon="7.8608775"><ele>740.6</ele><time>2026-04-18T08:00:22.117Z</time></trkpt><trkpt lat="44.0786009" lon="7.8607663"><ele>743.4000000000001</ele><time>2026-04-18T08:00:23.118Z</time></trkpt><trkpt lat="44.0786783" lon="7.8606404"><ele>746.2</ele><time>2026-04-18T08:00:24.118Z</time></trkpt><trkpt lat="44.0787418" lon="7.8605221"><ele>749.0</ele><time>2026-04-18T08:00:25.118Z</time></trkpt><trkpt lat="44.0788136" lon="7.860414"><ele>749.0</ele><time>2026-04-18T08:00:26.118Z</time></trkpt><trkpt lat="44.0788851" lon="7.8602936"><ele>749.0</ele><time>2026-04-18T08:00:27.118Z</time></trkpt><trkpt lat="44.0789554" lon="7.8601715"><ele>749.0</ele><time>2026-04-18T08:00:28.118Z</time></trkpt><trkpt lat="44.079007" lon="7.8600388"><ele>749.0</ele><time>2026-04-18T08:00:29.117Z</time></trkpt><trkpt lat="44.0790436" lon="7.8598913"><ele>749.0</ele><time>2026-04-18T08:00:30.118Z</time></trkpt><trkpt lat="44.0790621" lon="7.8597385"><ele>746.8000000000001</ele><time>2026-04-18T08:00:31.117Z</time></trkpt><trkpt lat="44.0790714" lon="7.8595945"><ele>744.6</ele><time>2026-04-18T08:00:32.117Z</time></trkpt><trkpt lat="44.0790793" lon="7.8594591"><ele>742.4</ele><time>2026-04-18T08:00:33.117Z</time></trkpt><trkpt lat="44.0790826" lon="7.8593383"><ele>740.2</ele><time>2026-04-18T08:00:34.118Z</time></trkpt><trkpt lat="44.0790931" lon="7.8592196"><ele>738.0</ele><time>2026-04-18T08:00:35.118Z</time></trkpt><trkpt lat="44.0791163" lon="7.8590908"><ele>744.75</ele><time>2026-04-18T08:00:36.117Z</time></trkpt><trkpt lat="44.0791646" lon="7.8589551"><ele>751.5</ele><time>2026-04-18T08:00:37.118Z</time></trkpt><trkpt lat="44.0792319" lon="7.8588169"><ele>758.25</ele><time>2026-04-18T08:00:38.118Z</time></trkpt><trkpt lat="44.079312" lon="7.8587028"><ele>765.0</ele><time>2026-04-18T08:00:39.117Z</time></trkpt><trkpt lat="44.0794057" lon="7.8586096"><ele>765.0</ele><time>2026-04-18T08:00:40.118Z</time></trkpt><trkpt lat="44.0795023" lon="7.8585402"><ele>765.0</ele><time>2026-04-18T08:00:41.118Z</time></trkpt><trkpt lat="44.0795965" lon="7.8584982"><ele>765.0</ele><time>2026-04-18T08:00:42.118Z</time></trkpt><trkpt lat="44.0796882" lon="7.858483"><ele>765.0</ele><time>2026-04-18T08:00:43.118Z</time></trkpt><trkpt lat="44.0797768" lon="7.8584672"><ele>765.0</ele><time>2026-04-18T08:00:44.118Z</time></trkpt><trkpt lat="44.079863" lon="7.8584229"><ele>768.25</ele><time>2026-04-18T08:00:45.118Z</time></trkpt><trkpt lat="44.0799389" lon="7.8583338"><ele>771.5</ele><time>2026-04-18T08:00:46.118Z</time></trkpt><trkpt lat="44.0799948" lon="7.858215"><ele>774.75</ele><time>2026-04-18T08:00:47.118Z</time></trkpt><trkpt lat="44.0800349" lon="7.8580387"><ele>778.0</ele><time>2026-04-18T08:00:48.118Z</time></trkpt><trkpt lat="44.0800669" lon="7.8578402"><ele>778.0</ele><time>2026-04-18T08:00:49.118Z</time></trkpt><trkpt lat="44.0800755" lon="7.8576691"><ele>778.0</ele><time>2026-04-18T08:00:50.118Z</time></trkpt><trkpt lat="44.080052" lon="7.857526"><ele>778.0</ele><time>2026-04-18T08:00:51.118Z</time></trkpt><trkpt lat="44.0800037" lon="7.857395"><ele>778.0</ele><time>2026-04-18T08:00:52.118Z</time></trkpt><trkpt lat="44.0799213" lon="7.8572754"><ele>773.0</ele><time>2026-04-18T08:00:53.118Z</time></trkpt><trkpt lat="44.0798271" lon="7.8571669"><ele>768.0</ele><time>2026-04-18T08:00:54.118Z</time></trkpt><trkpt lat="44.0797409" lon="7.8570455"><ele>763.0</ele><time>2026-04-18T08:00:55.117Z</time></trkpt><trkpt lat="44.0796715" lon="7.8569113"><ele>758.0</ele><time>2026-04-18T08:00:56.118Z</time></trkpt><trkpt lat="44.079634" lon="7.8567659"><ele>758.0</ele><time>2026-04-18T08:00:57.118Z</time></trkpt><trkpt lat="44.0796281" lon="7.8566199"><ele>758.0</ele><time>2026-04-18T08:00:58.118Z</time></trkpt><trkpt lat="44.079641" lon="7.8564894"><ele>758.0</ele><time>2026-04-18T08:00:59.118Z</time></trkpt><trkpt lat="44.0796792" lon="7.8563702"><ele>758.0</ele><time>2026-04-18T08:01:00.118Z</time></trkpt><trkpt lat="44.0797426" lon="7.8562726"><ele>758.0</ele><time>2026-04-18T08:01:01.118Z</time></trkpt><trkpt lat="44.0798319" lon="7.8562024"><ele>758.0</ele><time>2026-04-18T08:01:02.118Z</time></trkpt><trkpt lat="44.0799332" lon="7.8561453"><ele>758.0</ele><time>2026-04-18T08:01:03.117Z</time></trkpt><trkpt lat="44.0800407" lon="7.8560919"><ele>758.0</ele><time>2026-04-18T08:01:04.117Z</time></trkpt><trkpt lat="44.0801473" lon="7.8560283"><ele>758.0</ele><time>2026-04-18T08:01:05.117Z</time></trkpt><trkpt lat="44.0802366" lon="7.8559496"><ele>758.0</ele><time>2026-04-18T08:01:06.118Z</time></trkpt><trkpt lat="44.0803152" lon="7.8558528"><ele>762.1666666666666</ele><time>2026-04-18T08:01:07.117Z</time></trkpt><trkpt lat="44.0803817" lon="7.8557388"><ele>766.3333333333333</ele><time>2026-04-18T08:01:08.118Z</time></trkpt><trkpt lat="44.0804246" lon="7.8556292"><ele>770.5</ele><time>2026-04-18T08:01:09.118Z</time></trkpt><trkpt lat="44.0804468" lon="7.8555138"><ele>774.6666666666666</ele><time>2026-04-18T08:01:10.117Z</time></trkpt><trkpt lat="44.0804556" lon="7.8554253"><ele>778.8333333333334</ele><time>2026-04-18T08:01:11.118Z</time></trkpt><trkpt lat="44.0804819" lon="7.8552866"><ele>783.0</ele><time>2026-04-18T08:01:13.118Z</time></trkpt><trkpt lat="44.0805235" lon="7.8551341"><ele>783.0</ele><time>2026-04-18T08:01:15.118Z</time></trkpt><trkpt lat="44.0806245" lon="7.8550424"><ele>783.0</ele><time>2026-04-18T08:01:17.118Z</time></trkpt><trkpt lat="44.0806874" lon="7.8550656"><ele>783.0</ele><time>2026-04-18T08:01:18.118Z</time></trkpt><trkpt lat="44.0807278" lon="7.8552326"><ele>783.0</ele><time>2026-04-18T08:01:20.118Z</time></trkpt><trkpt lat="44.0807105" lon="7.8553434"><ele>783.0</ele><time>2026-04-18T08:01:21.117Z</time></trkpt><trkpt lat="44.0806676" lon="7.8554715"><ele>783.0</ele><time>2026-04-18T08:01:22.118Z</time></trkpt><trkpt lat="44.0806263" lon="7.8556071"><ele>783.0</ele><time>2026-04-18T08:01:23.118Z</time></trkpt><trkpt lat="44.080582" lon="7.8557409"><ele>783.0</ele><time>2026-04-18T08:01:24.117Z</time></trkpt><trkpt lat="44.0805202" lon="7.8558527"><ele>783.0</ele><time>2026-04-18T08:01:25.118Z</time></trkpt><trkpt lat="44.0804455" lon="7.85597"><ele>783.0</ele><time>2026-04-18T08:01:26.118Z</time></trkpt><trkpt lat="44.0803659" lon="7.8560674"><ele>784.8</ele><time>2026-04-18T08:01:27.118Z</time></trkpt><trkpt lat="44.0802822" lon="7.8561368"><ele>786.5999999999999</ele><time>2026-04-18T08:01:28.118Z</time></trkpt><trkpt lat="44.0802075" lon="7.8561953"><ele>788.4000000000001</ele><time>2026-04-18T08:01:29.118Z</time></trkpt><trkpt lat="44.08015" lon="7.8563019"><ele>790.2</ele><time>2026-04-18T08:01:30.117Z</time></trkpt><trkpt lat="44.0801307" lon="7.8564472"><ele>792.0</ele><time>2026-04-18T08:01:31.117Z</time></trkpt><trkpt lat="44.0801342" lon="7.8566101"><ele>792.0</ele><time>2026-04-18T08:01:32.118Z</time></trkpt><trkpt lat="44.0801595" lon="7.8567753"><ele>792.0</ele><time>2026-04-18T08:01:33.118Z</time></trkpt><trkpt lat="44.0802199" lon="7.8569089"><ele>792.0</ele><time>2026-04-18T08:01:34.118Z</time></trkpt><trkpt lat="44.08031" lon="7.8570097"><ele>792.0</ele><time>2026-04-18T08:01:35.118Z</time></trkpt><trkpt lat="44.0804065" lon="7.8570789"><ele>789.6666666666666</ele><time>2026-04-18T08:01:36.118Z</time></trkpt><trkpt lat="44.0804918" lon="7.8571399"><ele>787.3333333333333</ele><time>2026-04-18T08:01:37.117Z</time></trkpt><trkpt lat="44.0805662" lon="7.8571942"><ele>785.0</ele><time>2026-04-18T08:01:38.118Z</time></trkpt><trkpt lat="44.0806194" lon="7.857262"><ele>782.6666666666666</ele><time>2026-04-18T08:01:39.118Z</time></trkpt><trkpt lat="44.0806431" lon="7.8574215"><ele>780.3333333333333</ele><time>2026-04-18T08:01:41.118Z</time></trkpt><trkpt lat="44.0806218" lon="7.8575285"><ele>778.0</ele><time>2026-04-18T08:01:42.117Z</time></trkpt><trkpt lat="44.0805895" lon="7.8576556"><ele>778.0</ele><time>2026-04-18T08:01:43.117Z</time></trkpt><trkpt lat="44.0805723" lon="7.8577982"><ele>778.0</ele><time>2026-04-18T08:01:44.118Z</time></trkpt><trkpt lat="44.0805845" lon="7.8579476"><ele>778.0</ele><time>2026-04-18T08:01:45.117Z</time></trkpt><trkpt lat="44.0806131" lon="7.8581016"><ele>778.0</ele><time>2026-04-18T08:01:46.118Z</time></trkpt><trkpt lat="44.0806652" lon="7.8582428"><ele>778.0</ele><time>2026-04-18T08:01:47.118Z</time></trkpt><trkpt lat="44.0807366" lon="7.8583505"><ele>786.2</ele><time>2026-04-18T08:01:48.119Z</time></trkpt><trkpt lat="44.0808184" lon="7.8584221"><ele>794.4</ele><time>2026-04-18T08:01:49.118Z</time></trkpt><trkpt lat="44.0809019" lon="7.8584795"><ele>802.6</ele><time>2026-04-18T08:01:50.119Z</time></trkpt><trkpt lat="44.0809704" lon="7.8585253"><ele>810.8000000000001</ele><time>2026-04-18T08:01:51.119Z</time></trkpt><trkpt lat="44.0810397" lon="7.8586448"><ele>819.0</ele><time>2026-04-18T08:01:53.119Z</time></trkpt><trkpt lat="44.0809809" lon="7.8587829"><ele>821.6</ele><time>2026-04-18T08:01:55.119Z</time></trkpt><trkpt lat="44.0809176" lon="7.8588414"><ele>824.2</ele><time>2026-04-18T08:01:56.118Z</time></trkpt><trkpt lat="44.0808355" lon="7.8588993"><ele>826.8000000000001</ele><time>2026-04-18T08:01:57.119Z</time></trkpt><trkpt lat="44.0807397" lon="7.8589611"><ele>829.4000000000001</ele><time>2026-04-18T08:01:58.118Z</time></trkpt><trkpt lat="44.0806413" lon="7.8590245"><ele>832.0</ele><time>2026-04-18T08:01:59.119Z</time></trkpt><trkpt lat="44.0805481" lon="7.8590924"><ele>827.75</ele><time>2026-04-18T08:02:00.119Z</time></trkpt><trkpt lat="44.0804455" lon="7.8591685"><ele>823.5</ele><time>2026-04-18T08:02:01.119Z</time></trkpt><trkpt lat="44.0803492" lon="7.8592806"><ele>819.25</ele><time>2026-04-18T08:02:02.118Z</time></trkpt><trkpt lat="44.0802619" lon="7.85943"><ele>815.0</ele><time>2026-04-18T08:02:03.119Z</time></trkpt><trkpt lat="44.0802137" lon="7.8596016"><ele>815.0</ele><time>2026-04-18T08:02:04.119Z</time></trkpt><trkpt lat="44.0802067" lon="7.8597962"><ele>815.0</ele><time>2026-04-18T08:02:05.118Z</time></trkpt><trkpt lat="44.0802274" lon="7.8600063"><ele>815.0</ele><time>2026-04-18T08:02:06.118Z</time></trkpt><trkpt lat="44.0802593" lon="7.8602291"><ele>815.0</ele><time>2026-04-18T08:02:07.119Z</time></trkpt><trkpt lat="44.0802918" lon="7.8604454"><ele>815.0</ele><time>2026-04-18T08:02:08.118Z</time></trkpt><trkpt lat="44.0803331" lon="7.8606666"><ele>815.0</ele><time>2026-04-18T08:02:09.119Z</time></trkpt><trkpt lat="44.0803828" lon="7.8609303"><ele>815.3333333333334</ele><time>2026-04-18T08:02:10.119Z</time></trkpt><trkpt lat="44.0804487" lon="7.8612275"><ele>815.6666666666667</ele><time>2026-04-18T08:02:11.119Z</time></trkpt><trkpt lat="44.0805191" lon="7.8615241"><ele>816.0</ele><time>2026-04-18T08:02:12.119Z</time></trkpt><trkpt lat="44.0805788" lon="7.8618"><ele>816.3333333333333</ele><time>2026-04-18T08:02:13.118Z</time></trkpt><trkpt lat="44.0806392" lon="7.8620388"><ele>816.6666666666666</ele><time>2026-04-18T08:02:14.119Z</time></trkpt><trkpt lat="44.0806991" lon="7.8622418"><ele>817.0</ele><time>2026-04-18T08:02:15.119Z</time></trkpt><trkpt lat="44.0807511" lon="7.8624146"><ele>824.75</ele><time>2026-04-18T08:02:16.119Z</time></trkpt><trkpt lat="44.0807948" lon="7.8625692"><ele>832.5</ele><time>2026-04-18T08:02:17.118Z</time></trkpt><trkpt lat="44.08082" lon="7.8627288"><ele>840.25</ele><time>2026-04-18T08:02:18.119Z</time></trkpt><trkpt lat="44.0808138" lon="7.8628914"><ele>848.0</ele><time>2026-04-18T08:02:19.118Z</time></trkpt><trkpt lat="44.0807687" lon="7.8630407"><ele>847.0</ele><time>2026-04-18T08:02:20.119Z</time></trkpt><trkpt lat="44.0807066" lon="7.8631805"><ele>846.0</ele><time>2026-04-18T08:02:21.118Z</time></trkpt><trkpt lat="44.0806335" lon="7.8633086"><ele>845.0</ele><time>2026-04-18T08:02:22.119Z</time></trkpt><trkpt lat="44.0805632" lon="7.8634369"><ele>844.0</ele><time>2026-04-18T08:02:23.118Z</time></trkpt><trkpt lat="44.080489" lon="7.863573"><ele>844.0</ele><time>2026-04-18T08:02:24.119Z</time></trkpt><trkpt lat="44.0804188" lon="7.8637048"><ele>844.0</ele><time>2026-04-18T08:02:25.118Z</time></trkpt><trkpt lat="44.0803491" lon="7.8638291"><ele>844.0</ele><time>2026-04-18T08:02:26.118Z</time></trkpt><trkpt lat="44.0803066" lon="7.863971"><ele>844.0</ele><time>2026-04-18T08:02:27.119Z</time></trkpt><trkpt lat="44.080277" lon="7.8641236"><ele>843.9999999999999</ele><time>2026-04-18T08:02:28.119Z</time></trkpt><trkpt lat="44.0802487" lon="7.8642678"><ele>844.0</ele><time>2026-04-18T08:02:29.119Z</time></trkpt><trkpt lat="44.0802262" lon="7.8643965"><ele>844.0</ele><time>2026-04-18T08:02:30.119Z</time></trkpt><trkpt lat="44.0802125" lon="7.8645137"><ele>844.0</ele><time>2026-04-18T08:02:31.118Z</time></trkpt><trkpt lat="44.0802165" lon="7.8646261"><ele>843.9999999999999</ele><time>2026-04-18T08:02:32.119Z</time></trkpt><trkpt lat="44.0802522" lon="7.8647258"><ele>844.0</ele><time>2026-04-18T08:02:33.119Z</time></trkpt><trkpt lat="44.0803064" lon="7.8647962"><ele>844.4000000000001</ele><time>2026-04-18T08:02:34.119Z</time></trkpt><trkpt lat="44.0803795" lon="7.8648498"><ele>844.8</ele><time>2026-04-18T08:02:35.119Z</time></trkpt><trkpt lat="44.0804745" lon="7.8648827"><ele>845.2</ele><time>2026-04-18T08:02:36.118Z</time></trkpt><trkpt lat="44.0805797" lon="7.8649042"><ele>845.5999999999999</ele><time>2026-04-18T08:02:37.119Z</time></trkpt><trkpt lat="44.08068" lon="7.864944"><ele>846.0</ele><time>2026-04-18T08:02:38.119Z</time></trkpt><trkpt lat="44.0807671" lon="7.8650305"><ele>850.1999999999999</ele><time>2026-04-18T08:02:39.119Z</time></trkpt><trkpt lat="44.0808297" lon="7.8651365"><ele>854.4</ele><time>2026-04-18T08:02:40.119Z</time></trkpt><trkpt lat="44.0808615" lon="7.8652649"><ele>858.6</ele><time>2026-04-18T08:02:41.119Z</time></trkpt><trkpt lat="44.0808637" lon="7.8654002"><ele>862.8</ele><time>2026-04-18T08:02:42.119Z</time></trkpt><trkpt lat="44.0808489" lon="7.8655471"><ele>867.0</ele><time>2026-04-18T08:02:43.118Z</time></trkpt><trkpt lat="44.080832" lon="7.8657104"><ele>867.0</ele><time>2026-04-18T08:02:44.119Z</time></trkpt><trkpt lat="44.0808226" lon="7.8658895"><ele>867.0</ele><time>2026-04-18T08:02:45.119Z</time></trkpt><trkpt lat="44.0808227" lon="7.8660998"><ele>867.0</ele><time>2026-04-18T08:02:46.119Z</time></trkpt><trkpt lat="44.0808313" lon="7.8663301"><ele>867.0</ele><time>2026-04-18T08:02:47.119Z</time></trkpt><trkpt lat="44.0808328" lon="7.8665736"><ele>862.0</ele><time>2026-04-18T08:02:48.119Z</time></trkpt><trkpt lat="44.0807936" lon="7.8667993"><ele>857.0</ele><time>2026-04-18T08:02:49.119Z</time></trkpt><trkpt lat="44.0807185" lon="7.867038"><ele>852.0</ele><time>2026-04-18T08:02:50.119Z</time></trkpt><trkpt lat="44.0806121" lon="7.8672909"><ele>852.0</ele><time>2026-04-18T08:02:51.119Z</time></trkpt><trkpt lat="44.0805036" lon="7.86753"><ele>852.0</ele><time>2026-04-18T08:02:52.118Z</time></trkpt><trkpt lat="44.0804097" lon="7.8677491"><ele>852.0</ele><time>2026-04-18T08:02:53.119Z</time></trkpt><trkpt lat="44.0803434" lon="7.8679624"><ele>859.0</ele><time>2026-04-18T08:02:54.118Z</time></trkpt><trkpt lat="44.0803127" lon="7.8682019"><ele>866.0</ele><time>2026-04-18T08:02:55.119Z</time></trkpt><trkpt lat="44.080293" lon="7.8684178"><ele>873.0</ele><time>2026-04-18T08:02:56.119Z</time></trkpt><trkpt lat="44.0802317" lon="7.8686113"><ele>868.3333333333333</ele><time>2026-04-18T08:02:57.119Z</time></trkpt><trkpt lat="44.080123" lon="7.8687778"><ele>863.6666666666666</ele><time>2026-04-18T08:02:58.119Z</time></trkpt><trkpt lat="44.0799871" lon="7.8689355"><ele>859.0</ele><time>2026-04-18T08:02:59.119Z</time></trkpt><trkpt lat="44.0798578" lon="7.8690868"><ele>859.0</ele><time>2026-04-18T08:03:00.118Z</time></trkpt><trkpt lat="44.0797481" lon="7.8692334"><ele>859.0</ele><time>2026-04-18T08:03:01.118Z</time></trkpt><trkpt lat="44.0796693" lon="7.8693744"><ele>859.0</ele><time>2026-04-18T08:03:02.119Z</time></trkpt><trkpt lat="44.0796248" lon="7.8695256"><ele>859.0</ele><time>2026-04-18T08:03:03.119Z</time></trkpt><trkpt lat="44.0796239" lon="7.869688"><ele>858.2</ele><time>2026-04-18T08:03:04.119Z</time></trkpt><trkpt lat="44.0796708" lon="7.8698356"><ele>857.4000000000001</ele><time>2026-04-18T08:03:05.119Z</time></trkpt><trkpt lat="44.0797311" lon="7.8699686"><ele>856.6</ele><time>2026-04-18T08:03:06.119Z</time></trkpt><trkpt lat="44.0797912" lon="7.8700799"><ele>855.8</ele><time>2026-04-18T08:03:07.119Z</time></trkpt><trkpt lat="44.0798539" lon="7.8702021"><ele>855.0</ele><time>2026-04-18T08:03:08.119Z</time></trkpt><trkpt lat="44.0799069" lon="7.8703398"><ele>865.75</ele><time>2026-04-18T08:03:09.119Z</time></trkpt><trkpt lat="44.0799388" lon="7.8705086"><ele>876.5</ele><time>2026-04-18T08:03:10.119Z</time></trkpt><trkpt lat="44.079951" lon="7.8706732"><ele>887.25</ele><time>2026-04-18T08:03:11.119Z</time></trkpt><trkpt lat="44.0799518" lon="7.8708303"><ele>898.0</ele><time>2026-04-18T08:03:12.119Z</time></trkpt><trkpt lat="44.0799586" lon="7.8709776"><ele>898.0</ele><time>2026-04-18T08:03:13.118Z</time></trkpt><trkpt lat="44.0799755" lon="7.8711234"><ele>898.0</ele><time>2026-04-18T08:03:14.119Z</time></trkpt><trkpt lat="44.0800153" lon="7.8712705"><ele>898.0</ele><time>2026-04-18T08:03:15.119Z</time></trkpt><trkpt lat="44.080064" lon="7.8714184"><ele>898.0</ele><time>2026-04-18T08:03:16.119Z</time></trkpt><trkpt lat="44.080115" lon="7.8715567"><ele>898.0</ele><time>2026-04-18T08:03:17.119Z</time></trkpt><trkpt lat="44.0801818" lon="7.8716874"><ele>895.75</ele><time>2026-04-18T08:03:18.119Z</time></trkpt><trkpt lat="44.0802765" lon="7.8717843"><ele>893.5</ele><time>2026-04-18T08:03:19.119Z</time></trkpt><trkpt lat="44.0803829" lon="7.8718611"><ele>891.25</ele><time>2026-04-18T08:03:20.119Z</time></trkpt><trkpt lat="44.0805069" lon="7.8719131"><ele>889.0</ele><time>2026-04-18T08:03:21.119Z</time></trkpt><trkpt lat="44.0806398" lon="7.8719674"><ele>896.5</ele><time>2026-04-18T08:03:22.119Z</time></trkpt><trkpt lat="44.0807708" lon="7.8720187"><ele>904.0</ele><time>2026-04-18T08:03:23.119Z</time></trkpt><trkpt lat="44.0809058" lon="7.8720753"><ele>911.5</ele><time>2026-04-18T08:03:24.12Z</time></trkpt><trkpt lat="44.0810431" lon="7.872131"><ele>919.0</ele><time>2026-04-18T08:03:25.119Z</time></trkpt><trkpt lat="44.0811767" lon="7.8721924"><ele>919.0</ele><time>2026-04-18T08:03:26.12Z</time></trkpt><trkpt lat="44.0813026" lon="7.8722498"><ele>919.0</ele><time>2026-04-18T08:03:27.12Z</time></trkpt><trkpt lat="44.0814268" lon="7.8723085"><ele>919.0</ele><time>2026-04-18T08:03:28.12Z</time></trkpt><trkpt lat="44.0815452" lon="7.8723635"><ele>919.0</ele><time>2026-04-18T08:03:29.12Z</time></trkpt><trkpt lat="44.0816646" lon="7.8724232"><ele>921.0</ele><time>2026-04-18T08:03:30.12Z</time></trkpt><trkpt lat="44.0817865" lon="7.8724845"><ele>923.0</ele><time>2026-04-18T08:03:31.119Z</time></trkpt><trkpt lat="44.0819106" lon="7.8725474"><ele>925.0</ele><time>2026-04-18T08:03:32.12Z</time></trkpt><trkpt lat="44.0820413" lon="7.8726038"><ele>927.0</ele><time>2026-04-18T08:03:33.12Z</time></trkpt><trkpt lat="44.0821744" lon="7.8726642"><ele>929.0</ele><time>2026-04-18T08:03:34.12Z</time></trkpt><trkpt lat="44.0823043" lon="7.8727245"><ele>931.0</ele><time>2026-04-18T08:03:35.119Z</time></trkpt><trkpt lat="44.0824294" lon="7.8727844"><ele>933.0</ele><time>2026-04-18T08:03:36.12Z</time></trkpt><trkpt lat="44.0825511" lon="7.8728378"><ele>935.0</ele><time>2026-04-18T08:03:37.12Z</time></trkpt><trkpt lat="44.0826719" lon="7.8728777"><ele>935.0</ele><time>2026-04-18T08:03:38.12Z</time></trkpt><trkpt lat="44.0827896" lon="7.8729004"><ele>935.0</ele><time>2026-04-18T08:03:39.12Z</time></trkpt><trkpt lat="44.0829129" lon="7.8729044"><ele>935.0</ele><time>2026-04-18T08:03:40.119Z</time></trkpt><trkpt lat="44.0830353" lon="7.8728843"><ele>935.0</ele><time>2026-04-18T08:03:41.119Z</time></trkpt><trkpt lat="44.0831637" lon="7.8728554"><ele>935.25</ele><time>2026-04-18T08:03:42.12Z</time></trkpt><trkpt lat="44.0832887" lon="7.8728251"><ele>935.5</ele><time>2026-04-18T08:03:43.119Z</time></trkpt><trkpt lat="44.0834208" lon="7.8727862"><ele>935.75</ele><time>2026-04-18T08:03:44.12Z</time></trkpt><trkpt lat="44.0835537" lon="7.8727506"><ele>936.0</ele><time>2026-04-18T08:03:45.12Z</time></trkpt><trkpt lat="44.0836839" lon="7.8727235"><ele>936.0</ele><time>2026-04-18T08:03:46.12Z</time></trkpt><trkpt lat="44.0838194" lon="7.872705"><ele>936.0</ele><time>2026-04-18T08:03:47.12Z</time></trkpt><trkpt lat="44.0839589" lon="7.8727045"><ele>936.0</ele><time>2026-04-18T08:03:48.12Z</time></trkpt><trkpt lat="44.0840916" lon="7.8727309"><ele>936.0</ele><time>2026-04-18T08:03:49.12Z</time></trkpt><trkpt lat="44.0842222" lon="7.8727661"><ele>937.25</ele><time>2026-04-18T08:03:50.119Z</time></trkpt><trkpt lat="44.0843509" lon="7.872803"><ele>938.5</ele><time>2026-04-18T08:03:51.12Z</time></trkpt><trkpt lat="44.0844764" lon="7.8728332"><ele>939.75</ele><time>2026-04-18T08:03:52.12Z</time></trkpt><trkpt lat="44.0846058" lon="7.8728575"><ele>941.0</ele><time>2026-04-18T08:03:53.119Z</time></trkpt><trkpt lat="44.0847359" lon="7.8728747"><ele>941.0</ele><time>2026-04-18T08:03:54.12Z</time></trkpt><trkpt lat="44.0848644" lon="7.8728766"><ele>941.0</ele><time>2026-04-18T08:03:55.12Z</time></trkpt><trkpt lat="44.0849985" lon="7.8728781"><ele>941.0</ele><time>2026-04-18T08:03:56.12Z</time></trkpt><trkpt lat="44.0851443" lon="7.872866"><ele>941.0</ele><time>2026-04-18T08:03:57.12Z</time></trkpt><trkpt lat="44.0853047" lon="7.8728567"><ele>939.3333333333334</ele><time>2026-04-18T08:03:58.119Z</time></trkpt><trkpt lat="44.0854661" lon="7.8728479"><ele>937.6666666666667</ele><time>2026-04-18T08:03:59.12Z</time></trkpt><trkpt lat="44.0856452" lon="7.872831"><ele>936.0</ele><time>2026-04-18T08:04:00.12Z</time></trkpt><trkpt lat="44.0858458" lon="7.8728212"><ele>934.3333333333333</ele><time>2026-04-18T08:04:01.12Z</time></trkpt><trkpt lat="44.0860509" lon="7.8728228"><ele>932.6666666666666</ele><time>2026-04-18T08:04:02.119Z</time></trkpt><trkpt lat="44.0862648" lon="7.8728295"><ele>931.0</ele><time>2026-04-18T08:04:03.12Z</time></trkpt><trkpt lat="44.0864801" lon="7.8728348"><ele>930.6666666666666</ele><time>2026-04-18T08:04:04.12Z</time></trkpt><trkpt lat="44.0866909" lon="7.8728466"><ele>930.3333333333333</ele><time>2026-04-18T08:04:05.12Z</time></trkpt><trkpt lat="44.0868865" lon="7.8728652"><ele>930.0</ele><time>2026-04-18T08:04:06.12Z</time></trkpt><trkpt lat="44.0870627" lon="7.8728959"><ele>930.0</ele><time>2026-04-18T08:04:07.12Z</time></trkpt><trkpt lat="44.0872239" lon="7.8729489"><ele>930.0</ele><time>2026-04-18T08:04:08.12Z</time></trkpt><trkpt lat="44.0873757" lon="7.8730159"><ele>930.0</ele><time>2026-04-18T08:04:09.12Z</time></trkpt><trkpt lat="44.0875302" lon="7.8730631"><ele>929.6666666666667</ele><time>2026-04-18T08:04:10.12Z</time></trkpt><trkpt lat="44.0876856" lon="7.8730912"><ele>929.3333333333334</ele><time>2026-04-18T08:04:11.12Z</time></trkpt><trkpt lat="44.0878392" lon="7.8731038"><ele>929.0</ele><time>2026-04-18T08:04:12.119Z</time></trkpt><trkpt lat="44.0879834" lon="7.8731159"><ele>929.0</ele><time>2026-04-18T08:04:13.12Z</time></trkpt><trkpt lat="44.0881243" lon="7.873131"><ele>929.0</ele><time>2026-04-18T08:04:14.12Z</time></trkpt><trkpt lat="44.0882599" lon="7.8731535"><ele>929.0</ele><time>2026-04-18T08:04:15.12Z</time></trkpt><trkpt lat="44.0883837" lon="7.8732017"><ele>929.0</ele><time>2026-04-18T08:04:16.12Z</time></trkpt><trkpt lat="44.0885056" lon="7.8732788"><ele>929.25</ele><time>2026-04-18T08:04:17.12Z</time></trkpt><trkpt lat="44.0886285" lon="7.8733678"><ele>929.5</ele><time>2026-04-18T08:04:18.12Z</time></trkpt><trkpt lat="44.0887562" lon="7.8734552"><ele>929.75</ele><time>2026-04-18T08:04:19.12Z</time></trkpt><trkpt lat="44.0888912" lon="7.8735448"><ele>930.0</ele><time>2026-04-18T08:04:20.12Z</time></trkpt><trkpt lat="44.0890266" lon="7.873632"><ele>926.75</ele><time>2026-04-18T08:04:21.12Z</time></trkpt><trkpt lat="44.0891579" lon="7.8736966"><ele>923.5</ele><time>2026-04-18T08:04:22.12Z</time></trkpt><trkpt lat="44.089291" lon="7.8737228"><ele>920.25</ele><time>2026-04-18T08:04:23.12Z</time></trkpt><trkpt lat="44.0894508" lon="7.8737267"><ele>917.0</ele><time>2026-04-18T08:04:24.12Z</time></trkpt><trkpt lat="44.0896256" lon="7.8736951"><ele>917.0</ele><time>2026-04-18T08:04:25.12Z</time></trkpt><trkpt lat="44.0898228" lon="7.8736598"><ele>917.0</ele><time>2026-04-18T08:04:26.12Z</time></trkpt><trkpt lat="44.0900315" lon="7.8736454"><ele>917.0</ele><time>2026-04-18T08:04:27.12Z</time></trkpt><trkpt lat="44.0902477" lon="7.8736335"><ele>916.6666666666667</ele><time>2026-04-18T08:04:28.12Z</time></trkpt><trkpt lat="44.0904654" lon="7.8736145"><ele>916.3333333333333</ele><time>2026-04-18T08:04:29.12Z</time></trkpt><trkpt lat="44.0906842" lon="7.8735896"><ele>916.0</ele><time>2026-04-18T08:04:30.12Z</time></trkpt><trkpt lat="44.090903" lon="7.8735618"><ele>915.3333333333333</ele><time>2026-04-18T08:04:31.119Z</time></trkpt><trkpt lat="44.0911131" lon="7.8735399"><ele>914.6666666666667</ele><time>2026-04-18T08:04:32.12Z</time></trkpt><trkpt lat="44.0913071" lon="7.8735145"><ele>914.0</ele><time>2026-04-18T08:04:33.119Z</time></trkpt><trkpt lat="44.0914781" lon="7.8734615"><ele>914.6666666666667</ele><time>2026-04-18T08:04:34.12Z</time></trkpt><trkpt lat="44.0916314" lon="7.8733755"><ele>915.3333333333333</ele><time>2026-04-18T08:04:35.119Z</time></trkpt><trkpt lat="44.0917803" lon="7.8732793"><ele>916.0</ele><time>2026-04-18T08:04:36.12Z</time></trkpt><trkpt lat="44.0919369" lon="7.8731867"><ele>916.0</ele><time>2026-04-18T08:04:37.12Z</time></trkpt><trkpt lat="44.0921091" lon="7.873132"><ele>916.0</ele><time>2026-04-18T08:04:38.119Z</time></trkpt><trkpt lat="44.0922932" lon="7.8731152"><ele>916.0</ele><time>2026-04-18T08:04:39.12Z</time></trkpt><trkpt lat="44.0924811" lon="7.8731423"><ele>914.0</ele><time>2026-04-18T08:04:40.119Z</time></trkpt><trkpt lat="44.0926663" lon="7.8731788"><ele>912.0</ele><time>2026-04-18T08:04:41.12Z</time></trkpt><trkpt lat="44.0928513" lon="7.873191"><ele>910.0</ele><time>2026-04-18T08:04:42.119Z</time></trkpt><trkpt lat="44.0930411" lon="7.8731508"><ele>910.0</ele><time>2026-04-18T08:04:43.119Z</time></trkpt><trkpt lat="44.0932158" lon="7.873056"><ele>910.0</ele><time>2026-04-18T08:04:44.12Z</time></trkpt><trkpt lat="44.0933881" lon="7.8729341"><ele>910.0</ele><time>2026-04-18T08:04:45.12Z</time></trkpt><trkpt lat="44.0935647" lon="7.8728072"><ele>909.6666666666666</ele><time>2026-04-18T08:04:46.12Z</time></trkpt><trkpt lat="44.0937627" lon="7.8727177"><ele>909.3333333333333</ele><time>2026-04-18T08:04:47.12Z</time></trkpt><trkpt lat="44.0939662" lon="7.8726499"><ele>909.0</ele><time>2026-04-18T08:04:48.119Z</time></trkpt><trkpt lat="44.0941873" lon="7.8725872"><ele>909.0</ele><time>2026-04-18T08:04:49.12Z</time></trkpt><trkpt lat="44.0944131" lon="7.8725205"><ele>909.0</ele><time>2026-04-18T08:04:50.12Z</time></trkpt><trkpt lat="44.0946396" lon="7.8724401"><ele>909.0</ele><time>2026-04-18T08:04:51.12Z</time></trkpt><trkpt lat="44.0948759" lon="7.8723706"><ele>909.0</ele><time>2026-04-18T08:04:52.119Z</time></trkpt><trkpt lat="44.0951069" lon="7.8723027"><ele>907.0</ele><time>2026-04-18T08:04:53.12Z</time></trkpt><trkpt lat="44.0953421" lon="7.872225"><ele>905.0</ele><time>2026-04-18T08:04:54.12Z</time></trkpt><trkpt lat="44.0955737" lon="7.8721541"><ele>903.0</ele><time>2026-04-18T08:04:55.12Z</time></trkpt><trkpt lat="44.0958084" lon="7.8720928"><ele>901.0</ele><time>2026-04-18T08:04:56.12Z</time></trkpt><trkpt lat="44.0960412" lon="7.8720253"><ele>901.0</ele><time>2026-04-18T08:04:57.12Z</time></trkpt><trkpt lat="44.0962777" lon="7.8719476"><ele>901.0</ele><time>2026-04-18T08:04:58.119Z</time></trkpt><trkpt lat="44.0965084" lon="7.8718732"><ele>900.5</ele><time>2026-04-18T08:04:59.12Z</time></trkpt><trkpt lat="44.0967416" lon="7.8718018"><ele>900.0</ele><time>2026-04-18T08:05:00.12Z</time></trkpt><trkpt lat="44.0969807" lon="7.8717324"><ele>900.0</ele><time>2026-04-18T08:05:01.121Z</time></trkpt><trkpt lat="44.097222" lon="7.8716475"><ele>900.0</ele><time>2026-04-18T08:05:02.121Z</time></trkpt><trkpt lat="44.0974518" lon="7.8715516"><ele>897.5</ele><time>2026-04-18T08:05:03.121Z</time></trkpt><trkpt lat="44.0976939" lon="7.8714839"><ele>895.0</ele><time>2026-04-18T08:05:04.121Z</time></trkpt><trkpt lat="44.0979304" lon="7.8714133"><ele>895.0</ele><time>2026-04-18T08:05:05.121Z</time></trkpt><trkpt lat="44.098167" lon="7.8713393"><ele>895.0</ele><time>2026-04-18T08:05:06.12Z</time></trkpt><trkpt lat="44.0983958" lon="7.8712631"><ele>894.0</ele><time>2026-04-18T08:05:07.12Z</time></trkpt><trkpt lat="44.0986125" lon="7.8711864"><ele>893.0</ele><time>2026-04-18T08:05:08.121Z</time></trkpt><trkpt lat="44.098817" lon="7.8711195"><ele>892.0</ele><time>2026-04-18T08:05:09.121Z</time></trkpt><trkpt lat="44.0990112" lon="7.8710808"><ele>891.3333333333333</ele><time>2026-04-18T08:05:10.121Z</time></trkpt><trkpt lat="44.0992135" lon="7.8710853"><ele>890.6666666666667</ele><time>2026-04-18T08:05:11.121Z</time></trkpt><trkpt lat="44.0994148" lon="7.8711386"><ele>890.0</ele><time>2026-04-18T08:05:12.121Z</time></trkpt><trkpt lat="44.0996175" lon="7.8711972"><ele>890.0</ele><time>2026-04-18T08:05:13.121Z</time></trkpt><trkpt lat="44.0998346" lon="7.8711962"><ele>890.0</ele><time>2026-04-18T08:05:14.121Z</time></trkpt><trkpt lat="44.1000613" lon="7.8711622"><ele>890.0</ele><time>2026-04-18T08:05:15.121Z</time></trkpt><trkpt lat="44.100299" lon="7.8711162"><ele>888.0</ele><time>2026-04-18T08:05:16.121Z</time></trkpt><trkpt lat="44.1005419" lon="7.8710691"><ele>886.0</ele><time>2026-04-18T08:05:17.121Z</time></trkpt><trkpt lat="44.1007903" lon="7.8710103"><ele>886.0</ele><time>2026-04-18T08:05:18.121Z</time></trkpt><trkpt lat="44.1010385" lon="7.870952"><ele>886.0</ele><time>2026-04-18T08:05:19.121Z</time></trkpt><trkpt lat="44.1012942" lon="7.8708911"><ele>888.5</ele><time>2026-04-18T08:05:20.12Z</time></trkpt><trkpt lat="44.1015471" lon="7.8708267"><ele>891.0</ele><time>2026-04-18T08:05:21.12Z</time></trkpt><trkpt lat="44.1017966" lon="7.8707532"><ele>891.0</ele><time>2026-04-18T08:05:22.121Z</time></trkpt><trkpt lat="44.1020431" lon="7.870685"><ele>891.0</ele><time>2026-04-18T08:05:23.121Z</time></trkpt><trkpt lat="44.1022863" lon="7.8706141"><ele>888.0</ele><time>2026-04-18T08:05:24.121Z</time></trkpt><trkpt lat="44.1025202" lon="7.870539"><ele>885.0</ele><time>2026-04-18T08:05:25.121Z</time></trkpt><trkpt lat="44.1027404" lon="7.8704879"><ele>885.0</ele><time>2026-04-18T08:05:26.121Z</time></trkpt><trkpt lat="44.1029616" lon="7.8704793"><ele>885.0</ele><time>2026-04-18T08:05:27.121Z</time></trkpt><trkpt lat="44.103187" lon="7.870517"><ele>885.0</ele><time>2026-04-18T08:05:28.121Z</time></trkpt><trkpt lat="44.1034172" lon="7.8705942"><ele>884.0</ele><time>2026-04-18T08:05:29.121Z</time></trkpt><trkpt lat="44.1036437" lon="7.8706756"><ele>883.0</ele><time>2026-04-18T08:05:30.121Z</time></trkpt><trkpt lat="44.1038615" lon="7.8707521"><ele>883.0</ele><time>2026-04-18T08:05:31.121Z</time></trkpt><trkpt lat="44.1040738" lon="7.8708217"><ele>883.0</ele><time>2026-04-18T08:05:32.121Z</time></trkpt><trkpt lat="44.1042731" lon="7.8708787"><ele>883.0</ele><time>2026-04-18T08:05:33.121Z</time></trkpt><trkpt lat="44.1044628" lon="7.8709159"><ele>882.0</ele><time>2026-04-18T08:05:34.12Z</time></trkpt><trkpt lat="44.1046435" lon="7.8709337"><ele>881.0</ele><time>2026-04-18T08:05:35.12Z</time></trkpt><trkpt lat="44.1048178" lon="7.870942"><ele>880.0</ele><time>2026-04-18T08:05:36.121Z</time></trkpt><trkpt lat="44.1049817" lon="7.8709418"><ele>878.75</ele><time>2026-04-18T08:05:37.121Z</time></trkpt><trkpt lat="44.1051355" lon="7.8709527"><ele>877.5</ele><time>2026-04-18T08:05:38.121Z</time></trkpt><trkpt lat="44.1052738" lon="7.8709573"><ele>876.25</ele><time>2026-04-18T08:05:39.121Z</time></trkpt><trkpt lat="44.105397" lon="7.8709606"><ele>875.0</ele><time>2026-04-18T08:05:40.12Z</time></trkpt><trkpt lat="44.1054944" lon="7.8709663"><ele>875.0000000000001</ele><time>2026-04-18T08:05:41.121Z</time></trkpt><trkpt lat="44.1055894" lon="7.8709769"><ele>875.0</ele><time>2026-04-18T08:05:42.12Z</time></trkpt><trkpt lat="44.1056658" lon="7.8709845"><ele>875.0</ele><time>2026-04-18T08:05:43.12Z</time></trkpt><trkpt lat="44.1057494" lon="7.8709904"><ele>875.0</ele><time>2026-04-18T08:05:45.12Z</time></trkpt><trkpt lat="44.1058437" lon="7.8709842"><ele>875.0000000000001</ele><time>2026-04-18T08:06:56.121Z</time></trkpt><trkpt lat="44.1059273" lon="7.8709844"><ele>875.0</ele><time>2026-04-18T08:06:57.121Z</time></trkpt><trkpt lat="44.1060214" lon="7.8709918"><ele>874.0</ele><time>2026-04-18T08:06:58.122Z</time></trkpt><trkpt lat="44.1061237" lon="7.8710173"><ele>873.0</ele><time>2026-04-18T08:06:59.122Z</time></trkpt><trkpt lat="44.1062334" lon="7.8710443"><ele>872.0</ele><time>2026-04-18T08:07:00.122Z</time></trkpt><trkpt lat="44.1063453" lon="7.8710814"><ele>871.0</ele><time>2026-04-18T08:07:01.122Z</time></trkpt><trkpt lat="44.1064567" lon="7.8711195"><ele>870.0</ele><time>2026-04-18T08:07:02.122Z</time></trkpt><trkpt lat="44.1065746" lon="7.8711677"><ele>870.25</ele><time>2026-04-18T08:07:03.121Z</time></trkpt><trkpt lat="44.1067121" lon="7.8712205"><ele>870.5</ele><time>2026-04-18T08:07:04.122Z</time></trkpt><trkpt lat="44.1068568" lon="7.8712434"><ele>870.75</ele><time>2026-04-18T08:07:05.122Z</time></trkpt><trkpt lat="44.1070122" lon="7.8712404"><ele>871.0</ele><time>2026-04-18T08:07:06.122Z</time></trkpt><trkpt lat="44.1071557" lon="7.8712044"><ele>871.0</ele><time>2026-04-18T08:07:07.122Z</time></trkpt><trkpt lat="44.1072968" lon="7.8711411"><ele>871.0</ele><time>2026-04-18T08:07:08.121Z</time></trkpt><trkpt lat="44.1074398" lon="7.8710669"><ele>871.0</ele><time>2026-04-18T08:07:09.121Z</time></trkpt><trkpt lat="44.1075974" lon="7.8710071"><ele>870.0</ele><time>2026-04-18T08:07:10.122Z</time></trkpt><trkpt lat="44.107763" lon="7.8709825"><ele>869.0</ele><time>2026-04-18T08:07:11.122Z</time></trkpt><trkpt lat="44.107935" lon="7.8709686"><ele>868.0</ele><time>2026-04-18T08:07:12.122Z</time></trkpt><trkpt lat="44.1081098" lon="7.8709302"><ele>867.0</ele><time>2026-04-18T08:07:13.122Z</time></trkpt><trkpt lat="44.1082818" lon="7.8708631"><ele>866.0</ele><time>2026-04-18T08:07:14.122Z</time></trkpt><trkpt lat="44.1084416" lon="7.8707609"><ele>865.0</ele><time>2026-04-18T08:07:15.121Z</time></trkpt><trkpt lat="44.1086002" lon="7.8706443"><ele>865.0</ele><time>2026-04-18T08:07:16.122Z</time></trkpt><trkpt lat="44.1087431" lon="7.8704877"><ele>865.0</ele><time>2026-04-18T08:07:17.122Z</time></trkpt><trkpt lat="44.1088724" lon="7.8702927"><ele>865.0</ele><time>2026-04-18T08:07:18.122Z</time></trkpt><trkpt lat="44.1089934" lon="7.8700917"><ele>866.3333333333333</ele><time>2026-04-18T08:07:19.122Z</time></trkpt><trkpt lat="44.1091085" lon="7.8698879"><ele>867.6666666666667</ele><time>2026-04-18T08:07:20.121Z</time></trkpt><trkpt lat="44.1092345" lon="7.8696963"><ele>869.0</ele><time>2026-04-18T08:07:21.122Z</time></trkpt><trkpt lat="44.1093725" lon="7.8695401"><ele>869.0</ele><time>2026-04-18T08:07:22.122Z</time></trkpt><trkpt lat="44.1095204" lon="7.8694347"><ele>869.0</ele><time>2026-04-18T08:07:23.122Z</time></trkpt><trkpt lat="44.1096732" lon="7.8693924"><ele>869.0</ele><time>2026-04-18T08:07:24.122Z</time></trkpt><trkpt lat="44.1098407" lon="7.8694084"><ele>868.6666666666667</ele><time>2026-04-18T08:07:25.121Z</time></trkpt><trkpt lat="44.1100233" lon="7.8694284"><ele>868.3333333333333</ele><time>2026-04-18T08:07:26.122Z</time></trkpt><trkpt lat="44.1102171" lon="7.8693995"><ele>868.0</ele><time>2026-04-18T08:07:27.122Z</time></trkpt><trkpt lat="44.1104235" lon="7.8693281"><ele>867.3333333333333</ele><time>2026-04-18T08:07:28.122Z</time></trkpt><trkpt lat="44.1106289" lon="7.8692391"><ele>866.6666666666667</ele><time>2026-04-18T08:07:29.121Z</time></trkpt><trkpt lat="44.1108235" lon="7.8691592"><ele>866.0</ele><time>2026-04-18T08:07:30.122Z</time></trkpt><trkpt lat="44.1110125" lon="7.8690964"><ele>866.0</ele><time>2026-04-18T08:07:31.122Z</time></trkpt><trkpt lat="44.1112114" lon="7.8690746"><ele>866.0</ele><time>2026-04-18T08:07:32.121Z</time></trkpt><trkpt lat="44.111419" lon="7.8691092"><ele>866.0</ele><time>2026-04-18T08:07:33.122Z</time></trkpt><trkpt lat="44.111628" lon="7.8691745"><ele>864.0</ele><time>2026-04-18T08:07:34.122Z</time></trkpt><trkpt lat="44.1118314" lon="7.8692327"><ele>862.0</ele><time>2026-04-18T08:07:35.122Z</time></trkpt><trkpt lat="44.1120319" lon="7.8692284"><ele>860.0</ele><time>2026-04-18T08:07:36.122Z</time></trkpt><trkpt lat="44.1122402" lon="7.8691879"><ele>858.6666666666667</ele><time>2026-04-18T08:07:37.122Z</time></trkpt><trkpt lat="44.1124417" lon="7.8691304"><ele>857.3333333333333</ele><time>2026-04-18T08:07:38.122Z</time></trkpt><trkpt lat="44.1126418" lon="7.8690948"><ele>856.0</ele><time>2026-04-18T08:07:39.122Z</time></trkpt><trkpt lat="44.1128282" lon="7.869016"><ele>856.0</ele><time>2026-04-18T08:07:40.122Z</time></trkpt><trkpt lat="44.1130096" lon="7.8688914"><ele>856.0</ele><time>2026-04-18T08:07:41.122Z</time></trkpt><trkpt lat="44.1131845" lon="7.8687515"><ele>856.0</ele><time>2026-04-18T08:07:42.121Z</time></trkpt><trkpt lat="44.1133473" lon="7.8686096"><ele>853.3333333333333</ele><time>2026-04-18T08:07:43.122Z</time></trkpt><trkpt lat="44.1135334" lon="7.8685069"><ele>850.6666666666667</ele><time>2026-04-18T08:07:44.122Z</time></trkpt><trkpt lat="44.1137427" lon="7.8684444"><ele>848.0</ele><time>2026-04-18T08:07:45.122Z</time></trkpt><trkpt lat="44.1139491" lon="7.8684214"><ele>845.3333333333334</ele><time>2026-04-18T08:07:46.121Z</time></trkpt><trkpt lat="44.1141449" lon="7.8684208"><ele>842.6666666666667</ele><time>2026-04-18T08:07:47.121Z</time></trkpt><trkpt lat="44.1143272" lon="7.8683797"><ele>840.0</ele><time>2026-04-18T08:07:48.121Z</time></trkpt><trkpt lat="44.1145034" lon="7.8682571"><ele>840.0</ele><time>2026-04-18T08:07:49.122Z</time></trkpt><trkpt lat="44.1146798" lon="7.868102"><ele>840.0</ele><time>2026-04-18T08:07:50.122Z</time></trkpt><trkpt lat="44.1148608" lon="7.8679597"><ele>840.0</ele><time>2026-04-18T08:07:51.122Z</time></trkpt><trkpt lat="44.1150564" lon="7.8678509"><ele>838.3333333333333</ele><time>2026-04-18T08:07:52.122Z</time></trkpt><trkpt lat="44.1152692" lon="7.8677656"><ele>836.6666666666666</ele><time>2026-04-18T08:07:53.121Z</time></trkpt><trkpt lat="44.1154902" lon="7.8676991"><ele>835.0</ele><time>2026-04-18T08:07:54.122Z</time></trkpt><trkpt lat="44.1157119" lon="7.8676489"><ele>837.0</ele><time>2026-04-18T08:07:55.122Z</time></trkpt><trkpt lat="44.1159239" lon="7.867605"><ele>839.0</ele><time>2026-04-18T08:07:56.122Z</time></trkpt><trkpt lat="44.1161346" lon="7.8675663"><ele>841.0</ele><time>2026-04-18T08:07:57.122Z</time></trkpt><trkpt lat="44.1163474" lon="7.8675593"><ele>841.0</ele><time>2026-04-18T08:07:58.122Z</time></trkpt><trkpt lat="44.116565" lon="7.8675805"><ele>841.0</ele><time>2026-04-18T08:07:59.122Z</time></trkpt><trkpt lat="44.1167787" lon="7.8675965"><ele>841.0</ele><time>2026-04-18T08:08:00.122Z</time></trkpt><trkpt lat="44.1169781" lon="7.8675906"><ele>838.3333333333333</ele><time>2026-04-18T08:08:01.122Z</time></trkpt><trkpt lat="44.1171645" lon="7.8675658"><ele>835.6666666666667</ele><time>2026-04-18T08:08:02.121Z</time></trkpt><trkpt lat="44.1173364" lon="7.8675245"><ele>833.0</ele><time>2026-04-18T08:08:03.122Z</time></trkpt><trkpt lat="44.1174824" lon="7.8674916"><ele>830.0</ele><time>2026-04-18T08:08:04.122Z</time></trkpt><trkpt lat="44.1176055" lon="7.8675124"><ele>827.0</ele><time>2026-04-18T08:08:05.121Z</time></trkpt><trkpt lat="44.1177212" lon="7.8675755"><ele>824.0</ele><time>2026-04-18T08:08:06.122Z</time></trkpt><trkpt lat="44.1178351" lon="7.8676794"><ele>821.0</ele><time>2026-04-18T08:08:07.121Z</time></trkpt><trkpt lat="44.1179396" lon="7.8677784"><ele>819.5999999999999</ele><time>2026-04-18T08:08:08.121Z</time></trkpt><trkpt lat="44.11803" lon="7.8678659"><ele>818.2</ele><time>2026-04-18T08:08:09.122Z</time></trkpt><trkpt lat="44.118109" lon="7.8679442"><ele>816.8</ele><time>2026-04-18T08:08:10.122Z</time></trkpt><trkpt lat="44.1181696" lon="7.8680254"><ele>815.4000000000001</ele><time>2026-04-18T08:08:11.122Z</time></trkpt><trkpt lat="44.1182015" lon="7.8681317"><ele>814.0</ele><time>2026-04-18T08:08:12.122Z</time></trkpt><trkpt lat="44.1181883" lon="7.8682616"><ele>814.0</ele><time>2026-04-18T08:08:13.122Z</time></trkpt><trkpt lat="44.1181525" lon="7.8684216"><ele>814.0</ele><time>2026-04-18T08:08:14.122Z</time></trkpt><trkpt lat="44.1181085" lon="7.8686223"><ele>814.0</ele><time>2026-04-18T08:08:15.122Z</time></trkpt><trkpt lat="44.1180677" lon="7.8688492"><ele>814.0</ele><time>2026-04-18T08:08:16.122Z</time></trkpt><trkpt lat="44.1180182" lon="7.8690913"><ele>812.6666666666666</ele><time>2026-04-18T08:08:17.122Z</time></trkpt><trkpt lat="44.1179641" lon="7.8693397"><ele>811.3333333333333</ele><time>2026-04-18T08:08:18.122Z</time></trkpt><trkpt lat="44.1179186" lon="7.8695805"><ele>810.0</ele><time>2026-04-18T08:08:19.121Z</time></trkpt><trkpt lat="44.1178834" lon="7.8698018"><ele>810.0</ele><time>2026-04-18T08:08:20.122Z</time></trkpt><trkpt lat="44.1179042" lon="7.8700215"><ele>810.0</ele><time>2026-04-18T08:08:21.121Z</time></trkpt><trkpt lat="44.1179618" lon="7.8702631"><ele>810.0</ele><time>2026-04-18T08:08:22.121Z</time></trkpt><trkpt lat="44.1180515" lon="7.8705002"><ele>809.6666666666667</ele><time>2026-04-18T08:08:23.123Z</time></trkpt><trkpt lat="44.1181512" lon="7.8707481"><ele>809.3333333333334</ele><time>2026-04-18T08:08:24.123Z</time></trkpt><trkpt lat="44.1182311" lon="7.8710304"><ele>809.0</ele><time>2026-04-18T08:08:25.123Z</time></trkpt><trkpt lat="44.1182926" lon="7.8713204"><ele>811.6666666666667</ele><time>2026-04-18T08:08:26.123Z</time></trkpt><trkpt lat="44.1183246" lon="7.8715909"><ele>814.3333333333333</ele><time>2026-04-18T08:08:27.123Z</time></trkpt><trkpt lat="44.1183224" lon="7.8718723"><ele>817.0</ele><time>2026-04-18T08:08:28.123Z</time></trkpt><trkpt lat="44.1182867" lon="7.8721561"><ele>817.3333333333333</ele><time>2026-04-18T08:08:29.123Z</time></trkpt><trkpt lat="44.1182558" lon="7.8724615"><ele>817.6666666666667</ele><time>2026-04-18T08:08:30.123Z</time></trkpt><trkpt lat="44.118235" lon="7.872773"><ele>818.0</ele><time>2026-04-18T08:08:31.123Z</time></trkpt><trkpt lat="44.1182429" lon="7.8730873"><ele>818.0</ele><time>2026-04-18T08:08:32.123Z</time></trkpt><trkpt lat="44.1182702" lon="7.8734076"><ele>818.0</ele><time>2026-04-18T08:08:33.123Z</time></trkpt><trkpt lat="44.1183067" lon="7.8737162"><ele>815.6666666666667</ele><time>2026-04-18T08:08:34.123Z</time></trkpt><trkpt lat="44.1183667" lon="7.8740091"><ele>813.3333333333333</ele><time>2026-04-18T08:08:35.123Z</time></trkpt><trkpt lat="44.1184592" lon="7.8743006"><ele>811.0</ele><time>2026-04-18T08:08:36.122Z</time></trkpt><trkpt lat="44.1185654" lon="7.8745979"><ele>808.0</ele><time>2026-04-18T08:08:37.123Z</time></trkpt><trkpt lat="44.118668" lon="7.8749072"><ele>805.0</ele><time>2026-04-18T08:08:38.123Z</time></trkpt><trkpt lat="44.1187679" lon="7.8752168"><ele>803.6666666666666</ele><time>2026-04-18T08:08:39.122Z</time></trkpt><trkpt lat="44.1188588" lon="7.8755084"><ele>802.3333333333333</ele><time>2026-04-18T08:08:40.122Z</time></trkpt><trkpt lat="44.1189338" lon="7.8757898"><ele>801.0</ele><time>2026-04-18T08:08:41.123Z</time></trkpt><trkpt lat="44.1189694" lon="7.8760683"><ele>801.0</ele><time>2026-04-18T08:08:42.122Z</time></trkpt><trkpt lat="44.1189536" lon="7.876333"><ele>801.0</ele><time>2026-04-18T08:08:43.123Z</time></trkpt><trkpt lat="44.1188888" lon="7.8765975"><ele>801.0</ele><time>2026-04-18T08:08:44.123Z</time></trkpt><trkpt lat="44.1187988" lon="7.8768323"><ele>800.3333333333333</ele><time>2026-04-18T08:08:45.123Z</time></trkpt><trkpt lat="44.1187212" lon="7.8770732"><ele>799.6666666666666</ele><time>2026-04-18T08:08:46.123Z</time></trkpt><trkpt lat="44.1186874" lon="7.8773267"><ele>799.0</ele><time>2026-04-18T08:08:47.123Z</time></trkpt><trkpt lat="44.1187137" lon="7.877607"><ele>798.0</ele><time>2026-04-18T08:08:48.123Z</time></trkpt><trkpt lat="44.1187782" lon="7.8779035"><ele>797.0</ele><time>2026-04-18T08:08:49.123Z</time></trkpt><trkpt lat="44.1188668" lon="7.8782073"><ele>796.5</ele><time>2026-04-18T08:08:50.123Z</time></trkpt><trkpt lat="44.118954" lon="7.8785196"><ele>796.0</ele><time>2026-04-18T08:08:51.122Z</time></trkpt><trkpt lat="44.1190297" lon="7.8788392"><ele>801.0</ele><time>2026-04-18T08:08:52.122Z</time></trkpt><trkpt lat="44.1191066" lon="7.8791776"><ele>806.0</ele><time>2026-04-18T08:08:53.123Z</time></trkpt><trkpt lat="44.1191798" lon="7.8795217"><ele>806.0</ele><time>2026-04-18T08:08:54.122Z</time></trkpt><trkpt lat="44.119253" lon="7.8798607"><ele>806.0</ele><time>2026-04-18T08:08:55.123Z</time></trkpt><trkpt lat="44.1193184" lon="7.8802085"><ele>801.5</ele><time>2026-04-18T08:08:56.123Z</time></trkpt><trkpt lat="44.1193974" lon="7.8805404"><ele>797.0</ele><time>2026-04-18T08:08:57.123Z</time></trkpt><trkpt lat="44.1194931" lon="7.8808557"><ele>795.0</ele><time>2026-04-18T08:08:58.123Z</time></trkpt><trkpt lat="44.1195975" lon="7.8811571"><ele>793.0</ele><time>2026-04-18T08:08:59.122Z</time></trkpt><trkpt lat="44.1197098" lon="7.8814559"><ele>793.0</ele><time>2026-04-18T08:09:00.123Z</time></trkpt><trkpt lat="44.1198267" lon="7.881729"><ele>793.0</ele><time>2026-04-18T08:09:01.123Z</time></trkpt><trkpt lat="44.1199544" lon="7.8819752"><ele>793.0</ele><time>2026-04-18T08:09:02.123Z</time></trkpt><trkpt lat="44.1201029" lon="7.8821967"><ele>793.0</ele><time>2026-04-18T08:09:03.123Z</time></trkpt><trkpt lat="44.1202684" lon="7.8824013"><ele>793.0</ele><time>2026-04-18T08:09:04.123Z</time></trkpt><trkpt lat="44.1204376" lon="7.8825976"><ele>793.0</ele><time>2026-04-18T08:09:05.122Z</time></trkpt><trkpt lat="44.1205982" lon="7.8828009"><ele>793.0</ele><time>2026-04-18T08:09:06.123Z</time></trkpt><trkpt lat="44.1207279" lon="7.8830338"><ele>793.0</ele><time>2026-04-18T08:09:07.123Z</time></trkpt><trkpt lat="44.1208286" lon="7.8832935"><ele>793.0</ele><time>2026-04-18T08:09:08.122Z</time></trkpt><trkpt lat="44.1209065" lon="7.883586"><ele>799.5</ele><time>2026-04-18T08:09:09.123Z</time></trkpt><trkpt lat="44.1209639" lon="7.8839075"><ele>806.0</ele><time>2026-04-18T08:09:10.123Z</time></trkpt><trkpt lat="44.1210066" lon="7.8842452"><ele>803.0</ele><time>2026-04-18T08:09:11.122Z</time></trkpt><trkpt lat="44.1210473" lon="7.8845919"><ele>800.0</ele><time>2026-04-18T08:09:12.123Z</time></trkpt><trkpt lat="44.1211075" lon="7.8849246"><ele>794.5</ele><time>2026-04-18T08:09:13.123Z</time></trkpt><trkpt lat="44.1211877" lon="7.8852472"><ele>789.0</ele><time>2026-04-18T08:09:14.122Z</time></trkpt><trkpt lat="44.121289" lon="7.885559"><ele>789.0</ele><time>2026-04-18T08:09:15.122Z</time></trkpt><trkpt lat="44.1213773" lon="7.8858699"><ele>789.0</ele><time>2026-04-18T08:09:16.123Z</time></trkpt><trkpt lat="44.1214382" lon="7.886195"><ele>789.5</ele><time>2026-04-18T08:09:17.123Z</time></trkpt><trkpt lat="44.1214763" lon="7.8865226"><ele>790.0</ele><time>2026-04-18T08:09:18.123Z</time></trkpt><trkpt lat="44.1214901" lon="7.8868562"><ele>788.5</ele><time>2026-04-18T08:09:19.123Z</time></trkpt><trkpt lat="44.1214813" lon="7.8871914"><ele>787.0</ele><time>2026-04-18T08:09:20.123Z</time></trkpt><trkpt lat="44.1214548" lon="7.8875367"><ele>787.0</ele><time>2026-04-18T08:09:21.123Z</time></trkpt><trkpt lat="44.1214249" lon="7.8878958"><ele>787.0</ele><time>2026-04-18T08:09:22.123Z</time></trkpt><trkpt lat="44.1213949" lon="7.8882506"><ele>785.5</ele><time>2026-04-18T08:09:23.123Z</time></trkpt><trkpt lat="44.1213685" lon="7.888591"><ele>784.0</ele><time>2026-04-18T08:09:24.122Z</time></trkpt><trkpt lat="44.1213435" lon="7.8889192"><ele>784.0</ele><time>2026-04-18T08:09:25.122Z</time></trkpt><trkpt lat="44.1213281" lon="7.889234"><ele>784.0</ele><time>2026-04-18T08:09:26.123Z</time></trkpt><trkpt lat="44.1213312" lon="7.8895477"><ele>782.6666666666666</ele><time>2026-04-18T08:09:27.122Z</time></trkpt><trkpt lat="44.1213676" lon="7.8898523"><ele>781.3333333333333</ele><time>2026-04-18T08:09:28.123Z</time></trkpt><trkpt lat="44.1213994" lon="7.8901495"><ele>780.0</ele><time>2026-04-18T08:09:29.122Z</time></trkpt><trkpt lat="44.1213908" lon="7.8904533"><ele>779.6666666666667</ele><time>2026-04-18T08:09:30.122Z</time></trkpt><trkpt lat="44.1213608" lon="7.8907289"><ele>779.3333333333334</ele><time>2026-04-18T08:09:31.122Z</time></trkpt><trkpt lat="44.1213366" lon="7.8909495"><ele>779.0</ele><time>2026-04-18T08:09:32.123Z</time></trkpt><trkpt lat="44.1213535" lon="7.8911331"><ele>779.0</ele><time>2026-04-18T08:09:33.123Z</time></trkpt><trkpt lat="44.1214245" lon="7.8912994"><ele>779.0</ele><time>2026-04-18T08:09:34.123Z</time></trkpt><trkpt lat="44.1215248" lon="7.8914556"><ele>779.0</ele><time>2026-04-18T08:09:35.123Z</time></trkpt><trkpt lat="44.1216256" lon="7.8916038"><ele>779.0</ele><time>2026-04-18T08:09:36.123Z</time></trkpt><trkpt lat="44.1217013" lon="7.8917444"><ele>778.6</ele><time>2026-04-18T08:09:37.123Z</time></trkpt><trkpt lat="44.1217293" lon="7.8918532"><ele>778.2</ele><time>2026-04-18T08:09:38.123Z</time></trkpt><trkpt lat="44.1216861" lon="7.8920112"><ele>777.8000000000001</ele><time>2026-04-18T08:09:40.123Z</time></trkpt><trkpt lat="44.1216172" lon="7.892075"><ele>777.4000000000001</ele><time>2026-04-18T08:09:41.123Z</time></trkpt><trkpt lat="44.1215098" lon="7.8921458"><ele>777.0</ele><time>2026-04-18T08:09:42.123Z</time></trkpt><trkpt lat="44.1213682" lon="7.8921861"><ele>777.0</ele><time>2026-04-18T08:09:43.123Z</time></trkpt><trkpt lat="44.1212141" lon="7.892196"><ele>777.0</ele><time>2026-04-18T08:09:44.123Z</time></trkpt><trkpt lat="44.1210388" lon="7.8921826"><ele>777.0</ele><time>2026-04-18T08:09:45.123Z</time></trkpt><trkpt lat="44.1208478" lon="7.8921729"><ele>779.6666666666667</ele><time>2026-04-18T08:09:46.123Z</time></trkpt><trkpt lat="44.1206459" lon="7.8921659"><ele>782.3333333333334</ele><time>2026-04-18T08:09:47.123Z</time></trkpt><trkpt lat="44.1204316" lon="7.8921551"><ele>785.0</ele><time>2026-04-18T08:09:48.122Z</time></trkpt><trkpt lat="44.1201991" lon="7.8921394"><ele>785.0</ele><time>2026-04-18T08:09:49.123Z</time></trkpt><trkpt lat="44.1199736" lon="7.8921186"><ele>785.0</ele><time>2026-04-18T08:09:50.123Z</time></trkpt><trkpt lat="44.1197431" lon="7.89209"><ele>794.0</ele><time>2026-04-18T08:09:51.123Z</time></trkpt><trkpt lat="44.1195111" lon="7.8920485"><ele>803.0</ele><time>2026-04-18T08:09:52.123Z</time></trkpt><trkpt lat="44.1192733" lon="7.8919977"><ele>819.5</ele><time>2026-04-18T08:09:53.123Z</time></trkpt><trkpt lat="44.1190388" lon="7.8919445"><ele>836.0</ele><time>2026-04-18T08:09:54.123Z</time></trkpt><trkpt lat="44.1188097" lon="7.8918938"><ele>836.0</ele><time>2026-04-18T08:09:55.123Z</time></trkpt><trkpt lat="44.1185861" lon="7.891873"><ele>836.0</ele><time>2026-04-18T08:09:56.123Z</time></trkpt><trkpt lat="44.1183708" lon="7.8918801"><ele>836.0</ele><time>2026-04-18T08:09:57.123Z</time></trkpt><trkpt lat="44.1181646" lon="7.8918933"><ele>841.3333333333334</ele><time>2026-04-18T08:09:58.123Z</time></trkpt><trkpt lat="44.117969" lon="7.8918783"><ele>846.6666666666667</ele><time>2026-04-18T08:09:59.124Z</time></trkpt><trkpt lat="44.1177907" lon="7.8918572"><ele>852.0</ele><time>2026-04-18T08:10:00.124Z</time></trkpt><trkpt lat="44.1176098" lon="7.8918968"><ele>852.0</ele><time>2026-04-18T08:10:01.123Z</time></trkpt><trkpt lat="44.1174225" lon="7.8919585"><ele>852.0</ele><time>2026-04-18T08:10:02.124Z</time></trkpt><trkpt lat="44.117231" lon="7.8920387"><ele>852.0</ele><time>2026-04-18T08:10:03.124Z</time></trkpt><trkpt lat="44.117053" lon="7.8921825"><ele>851.6666666666667</ele><time>2026-04-18T08:10:04.124Z</time></trkpt><trkpt lat="44.1168827" lon="7.8923565"><ele>851.3333333333334</ele><time>2026-04-18T08:10:05.123Z</time></trkpt><trkpt lat="44.1167031" lon="7.8925405"><ele>851.0</ele><time>2026-04-18T08:10:06.123Z</time></trkpt><trkpt lat="44.1165205" lon="7.8926907"><ele>851.0</ele><time>2026-04-18T08:10:07.123Z</time></trkpt><trkpt lat="44.116346" lon="7.8928313"><ele>851.0</ele><time>2026-04-18T08:10:08.124Z</time></trkpt><trkpt lat="44.1162101" lon="7.8929837"><ele>851.0</ele><time>2026-04-18T08:10:09.123Z</time></trkpt><trkpt lat="44.1160969" lon="7.893121"><ele>851.0</ele><time>2026-04-18T08:10:10.123Z</time></trkpt><trkpt lat="44.1159858" lon="7.8932073"><ele>851.0</ele><time>2026-04-18T08:10:11.124Z</time></trkpt><trkpt lat="44.1158657" lon="7.8932377"><ele>851.0</ele><time>2026-04-18T08:10:12.124Z</time></trkpt><trkpt lat="44.1157341" lon="7.8932139"><ele>851.0</ele><time>2026-04-18T08:10:13.123Z</time></trkpt><trkpt lat="44.1156078" lon="7.8931527"><ele>853.25</ele><time>2026-04-18T08:10:14.124Z</time></trkpt><trkpt lat="44.1154787" lon="7.8930567"><ele>855.5</ele><time>2026-04-18T08:10:15.123Z</time></trkpt><trkpt lat="44.1153555" lon="7.8929772"><ele>857.75</ele><time>2026-04-18T08:10:16.124Z</time></trkpt><trkpt lat="44.1152176" lon="7.892921"><ele>860.0</ele><time>2026-04-18T08:10:17.124Z</time></trkpt><trkpt lat="44.1150687" lon="7.8929395"><ele>864.3333333333334</ele><time>2026-04-18T08:10:18.124Z</time></trkpt><trkpt lat="44.1148931" lon="7.8929688"><ele>868.6666666666667</ele><time>2026-04-18T08:10:19.124Z</time></trkpt><trkpt lat="44.1147029" lon="7.8929983"><ele>873.0</ele><time>2026-04-18T08:10:20.123Z</time></trkpt><trkpt lat="44.1145109" lon="7.8930444"><ele>873.0</ele><time>2026-04-18T08:10:21.124Z</time></trkpt><trkpt lat="44.1143267" lon="7.8930909"><ele>873.0</ele><time>2026-04-18T08:10:22.124Z</time></trkpt><trkpt lat="44.1141465" lon="7.8931028"><ele>873.0</ele><time>2026-04-18T08:10:23.124Z</time></trkpt><trkpt lat="44.1139708" lon="7.8930791"><ele>875.0</ele><time>2026-04-18T08:10:24.124Z</time></trkpt><trkpt lat="44.1138149" lon="7.8930617"><ele>877.0</ele><time>2026-04-18T08:10:25.124Z</time></trkpt><trkpt lat="44.1136596" lon="7.8930861"><ele>879.0</ele><time>2026-04-18T08:10:26.124Z</time></trkpt><trkpt lat="44.1135053" lon="7.89317"><ele>879.0</ele><time>2026-04-18T08:10:27.124Z</time></trkpt><trkpt lat="44.113339" lon="7.8932823"><ele>879.0</ele><time>2026-04-18T08:10:28.124Z</time></trkpt><trkpt lat="44.1131861" lon="7.8933821"><ele>879.0</ele><time>2026-04-18T08:10:29.123Z</time></trkpt><trkpt lat="44.1130505" lon="7.8934539"><ele>882.6666666666666</ele><time>2026-04-18T08:10:30.124Z</time></trkpt><trkpt lat="44.1129388" lon="7.8935065"><ele>886.3333333333333</ele><time>2026-04-18T08:10:31.123Z</time></trkpt><trkpt lat="44.1128564" lon="7.8935668"><ele>890.0</ele><time>2026-04-18T08:10:32.124Z</time></trkpt><trkpt lat="44.1128083" lon="7.8936427"><ele>893.6666666666666</ele><time>2026-04-18T08:10:33.124Z</time></trkpt><trkpt lat="44.1128055" lon="7.8937503"><ele>897.3333333333333</ele><time>2026-04-18T08:10:34.124Z</time></trkpt><trkpt lat="44.1128492" lon="7.8938214"><ele>901.0</ele><time>2026-04-18T08:10:35.123Z</time></trkpt><trkpt lat="44.1129321" lon="7.8938348"><ele>901.0</ele><time>2026-04-18T08:10:36.123Z</time></trkpt><trkpt lat="44.1130314" lon="7.8937823"><ele>901.0</ele><time>2026-04-18T08:10:37.124Z</time></trkpt><trkpt lat="44.113147" lon="7.8937153"><ele>901.0</ele><time>2026-04-18T08:10:38.123Z</time></trkpt><trkpt lat="44.1132684" lon="7.8936389"><ele>901.0</ele><time>2026-04-18T08:10:39.124Z</time></trkpt><trkpt lat="44.1134102" lon="7.8935815"><ele>903.0</ele><time>2026-04-18T08:10:40.124Z</time></trkpt><trkpt lat="44.1135672" lon="7.8935653"><ele>905.0</ele><time>2026-04-18T08:10:41.124Z</time></trkpt><trkpt lat="44.1137277" lon="7.8935919"><ele>907.0</ele><time>2026-04-18T08:10:42.124Z</time></trkpt><trkpt lat="44.1138931" lon="7.8936457"><ele>907.0</ele><time>2026-04-18T08:10:43.124Z</time></trkpt><trkpt lat="44.1140522" lon="7.8937342"><ele>907.0</ele><time>2026-04-18T08:10:44.124Z</time></trkpt><trkpt lat="44.1142145" lon="7.8938713"><ele>907.0</ele><time>2026-04-18T08:10:45.124Z</time></trkpt><trkpt lat="44.1143687" lon="7.8940442"><ele>907.0</ele><time>2026-04-18T08:10:46.124Z</time></trkpt><trkpt lat="44.1145189" lon="7.8942242"><ele>907.0</ele><time>2026-04-18T08:10:47.124Z</time></trkpt><trkpt lat="44.1146867" lon="7.894371"><ele>907.0</ele><time>2026-04-18T08:10:48.124Z</time></trkpt><trkpt lat="44.1148724" lon="7.8944758"><ele>913.0</ele><time>2026-04-18T08:10:49.124Z</time></trkpt><trkpt lat="44.1150604" lon="7.8945709"><ele>919.0</ele><time>2026-04-18T08:10:50.124Z</time></trkpt><trkpt lat="44.1152278" lon="7.8946541"><ele>925.0</ele><time>2026-04-18T08:10:51.124Z</time></trkpt><trkpt lat="44.1153703" lon="7.8947339"><ele>925.0</ele><time>2026-04-18T08:10:52.124Z</time></trkpt><trkpt lat="44.1154777" lon="7.8948215"><ele>925.0</ele><time>2026-04-18T08:10:53.124Z</time></trkpt><trkpt lat="44.1155721" lon="7.8949507"><ele>925.0</ele><time>2026-04-18T08:10:54.124Z</time></trkpt><trkpt lat="44.115644" lon="7.8951371"><ele>925.0</ele><time>2026-04-18T08:10:55.124Z</time></trkpt><trkpt lat="44.1156914" lon="7.8953634"><ele>924.3333333333333</ele><time>2026-04-18T08:10:56.123Z</time></trkpt><trkpt lat="44.1157393" lon="7.8955945"><ele>923.6666666666667</ele><time>2026-04-18T08:10:57.124Z</time></trkpt><trkpt lat="44.1157915" lon="7.8958011"><ele>923.0</ele><time>2026-04-18T08:10:58.124Z</time></trkpt><trkpt lat="44.1158343" lon="7.8959778"><ele>929.0</ele><time>2026-04-18T08:10:59.124Z</time></trkpt><trkpt lat="44.1158913" lon="7.8961237"><ele>935.0</ele><time>2026-04-18T08:11:00.124Z</time></trkpt><trkpt lat="44.1159797" lon="7.8962093"><ele>941.0</ele><time>2026-04-18T08:11:01.123Z</time></trkpt><trkpt lat="44.1160964" lon="7.8962354"><ele>947.0</ele><time>2026-04-18T08:11:02.124Z</time></trkpt><trkpt lat="44.1162269" lon="7.8961923"><ele>947.0</ele><time>2026-04-18T08:11:03.123Z</time></trkpt><trkpt lat="44.1163634" lon="7.8961204"><ele>947.0</ele><time>2026-04-18T08:11:04.124Z</time></trkpt><trkpt lat="44.1164941" lon="7.8960559"><ele>947.0</ele><time>2026-04-18T08:11:05.124Z</time></trkpt><trkpt lat="44.1166194" lon="7.8960343"><ele>947.0</ele><time>2026-04-18T08:11:06.124Z</time></trkpt><trkpt lat="44.1167223" lon="7.896048"><ele>945.5</ele><time>2026-04-18T08:11:07.124Z</time></trkpt><trkpt lat="44.116814" lon="7.8961201"><ele>944.0</ele><time>2026-04-18T08:11:08.123Z</time></trkpt><trkpt lat="44.1168854" lon="7.8962461"><ele>942.5</ele><time>2026-04-18T08:11:09.124Z</time></trkpt><trkpt lat="44.1169416" lon="7.8964112"><ele>941.0</ele><time>2026-04-18T08:11:10.124Z</time></trkpt><trkpt lat="44.1170139" lon="7.8965904"><ele>952.6666666666667</ele><time>2026-04-18T08:11:11.124Z</time></trkpt><trkpt lat="44.1171193" lon="7.8967562"><ele>964.3333333333333</ele><time>2026-04-18T08:11:12.123Z</time></trkpt><trkpt lat="44.1172414" lon="7.8969091"><ele>976.0</ele><time>2026-04-18T08:11:13.124Z</time></trkpt><trkpt lat="44.117377" lon="7.8970669"><ele>967.3333333333333</ele><time>2026-04-18T08:11:14.124Z</time></trkpt><trkpt lat="44.1175237" lon="7.8972122"><ele>958.6666666666667</ele><time>2026-04-18T08:11:15.124Z</time></trkpt><trkpt lat="44.1176837" lon="7.8973427"><ele>950.0</ele><time>2026-04-18T08:11:16.123Z</time></trkpt><trkpt lat="44.1178453" lon="7.8974464"><ele>950.0</ele><time>2026-04-18T08:11:17.124Z</time></trkpt><trkpt lat="44.1180039" lon="7.8975333"><ele>950.0</ele><time>2026-04-18T08:11:18.123Z</time></trkpt><trkpt lat="44.1181455" lon="7.8976111"><ele>950.0</ele><time>2026-04-18T08:11:19.124Z</time></trkpt><trkpt lat="44.1182595" lon="7.8976748"><ele>950.0</ele><time>2026-04-18T08:11:20.124Z</time></trkpt><trkpt lat="44.1183561" lon="7.8977515"><ele>947.25</ele><time>2026-04-18T08:11:21.124Z</time></trkpt><trkpt lat="44.1184219" lon="7.8978744"><ele>944.5</ele><time>2026-04-18T08:11:22.124Z</time></trkpt><trkpt lat="44.1184735" lon="7.8980148"><ele>941.75</ele><time>2026-04-18T08:11:23.124Z</time></trkpt><trkpt lat="44.1184966" lon="7.8981659"><ele>939.0</ele><time>2026-04-18T08:11:24.123Z</time></trkpt><trkpt lat="44.118478" lon="7.8983359"><ele>936.0</ele><time>2026-04-18T08:11:25.124Z</time></trkpt><trkpt lat="44.118425" lon="7.8985168"><ele>933.0</ele><time>2026-04-18T08:11:26.123Z</time></trkpt><trkpt lat="44.1183601" lon="7.8987286"><ele>930.0</ele><time>2026-04-18T08:11:27.124Z</time></trkpt><trkpt lat="44.1182903" lon="7.8989563"><ele>936.6666666666667</ele><time>2026-04-18T08:11:28.124Z</time></trkpt><trkpt lat="44.1182111" lon="7.8991969"><ele>943.3333333333334</ele><time>2026-04-18T08:11:29.124Z</time></trkpt><trkpt lat="44.1181269" lon="7.8994515"><ele>950.0</ele><time>2026-04-18T08:11:30.124Z</time></trkpt><trkpt lat="44.1180399" lon="7.899705"><ele>950.0</ele><time>2026-04-18T08:11:31.125Z</time></trkpt><trkpt lat="44.1179533" lon="7.899957"><ele>950.0</ele><time>2026-04-18T08:11:32.125Z</time></trkpt><trkpt lat="44.1178691" lon="7.900205"><ele>950.0</ele><time>2026-04-18T08:11:33.125Z</time></trkpt><trkpt lat="44.1177881" lon="7.9004471"><ele>945.0</ele><time>2026-04-18T08:11:34.125Z</time></trkpt><trkpt lat="44.1177228" lon="7.9006839"><ele>940.0</ele><time>2026-04-18T08:11:35.125Z</time></trkpt><trkpt lat="44.1176872" lon="7.9009336"><ele>935.0</ele><time>2026-04-18T08:11:36.125Z</time></trkpt><trkpt lat="44.1176642" lon="7.9011797"><ele>932.0</ele><time>2026-04-18T08:11:37.125Z</time></trkpt><trkpt lat="44.1176396" lon="7.9014214"><ele>929.0</ele><time>2026-04-18T08:11:38.125Z</time></trkpt><trkpt lat="44.1175982" lon="7.9016501"><ele>926.0</ele><time>2026-04-18T08:11:39.125Z</time></trkpt><trkpt lat="44.1175481" lon="7.9018576"><ele>926.0</ele><time>2026-04-18T08:11:40.124Z</time></trkpt><trkpt lat="44.1175083" lon="7.9020491"><ele>926.0</ele><time>2026-04-18T08:11:41.125Z</time></trkpt><trkpt lat="44.1175049" lon="7.9022416"><ele>926.0</ele><time>2026-04-18T08:11:42.125Z</time></trkpt><trkpt lat="44.1175241" lon="7.9024456"><ele>926.0</ele><time>2026-04-18T08:11:43.125Z</time></trkpt><trkpt lat="44.1175255" lon="7.9026565"><ele>931.0</ele><time>2026-04-18T08:11:44.125Z</time></trkpt><trkpt lat="44.1174714" lon="7.902857"><ele>936.0</ele><time>2026-04-18T08:11:45.124Z</time></trkpt><trkpt lat="44.117385" lon="7.9030543"><ele>941.0</ele><time>2026-04-18T08:11:46.124Z</time></trkpt><trkpt lat="44.1172754" lon="7.9032544"><ele>941.0</ele><time>2026-04-18T08:11:47.125Z</time></trkpt><trkpt lat="44.1171516" lon="7.9034682"><ele>941.0</ele><time>2026-04-18T08:11:48.125Z</time></trkpt><trkpt lat="44.1170214" lon="7.903687"><ele>941.0</ele><time>2026-04-18T08:11:49.125Z</time></trkpt><trkpt lat="44.116883" lon="7.9039047"><ele>941.0</ele><time>2026-04-18T08:11:50.125Z</time></trkpt><trkpt lat="44.1167369" lon="7.9041206"><ele>941.0</ele><time>2026-04-18T08:11:51.124Z</time></trkpt><trkpt lat="44.1165887" lon="7.9043243"><ele>941.0</ele><time>2026-04-18T08:11:52.125Z</time></trkpt><trkpt lat="44.1164502" lon="7.9045094"><ele>943.6666666666667</ele><time>2026-04-18T08:11:53.124Z</time></trkpt><trkpt lat="44.1163444" lon="7.904683"><ele>946.3333333333333</ele><time>2026-04-18T08:11:54.125Z</time></trkpt><trkpt lat="44.1162497" lon="7.9048694"><ele>949.0</ele><time>2026-04-18T08:11:55.124Z</time></trkpt><trkpt lat="44.1161842" lon="7.9051014"><ele>950.3333333333333</ele><time>2026-04-18T08:11:56.125Z</time></trkpt><trkpt lat="44.1161503" lon="7.9053558"><ele>951.6666666666667</ele><time>2026-04-18T08:11:57.125Z</time></trkpt><trkpt lat="44.116123" lon="7.90563"><ele>953.0</ele><time>2026-04-18T08:11:58.124Z</time></trkpt><trkpt lat="44.1160949" lon="7.9059079"><ele>956.0</ele><time>2026-04-18T08:11:59.125Z</time></trkpt><trkpt lat="44.1160538" lon="7.9061825"><ele>959.0</ele><time>2026-04-18T08:12:00.125Z</time></trkpt><trkpt lat="44.116001" lon="7.9064422"><ele>962.0</ele><time>2026-04-18T08:12:01.125Z</time></trkpt><trkpt lat="44.115948" lon="7.9066785"><ele>964.5</ele><time>2026-04-18T08:12:02.125Z</time></trkpt><trkpt lat="44.1159024" lon="7.9068765"><ele>967.0</ele><time>2026-04-18T08:12:03.125Z</time></trkpt><trkpt lat="44.1158495" lon="7.9070332"><ele>969.5</ele><time>2026-04-18T08:12:04.125Z</time></trkpt><trkpt lat="44.115789" lon="7.9071595"><ele>972.0</ele><time>2026-04-18T08:12:05.124Z</time></trkpt><trkpt lat="44.1157306" lon="7.9072598"><ele>972.0</ele><time>2026-04-18T08:12:06.124Z</time></trkpt><trkpt lat="44.1156966" lon="7.9073567"><ele>972.0</ele><time>2026-04-18T08:12:07.124Z</time></trkpt><trkpt lat="44.1156987" lon="7.9074492"><ele>972.0</ele><time>2026-04-18T08:12:08.125Z</time></trkpt><trkpt lat="44.1158069" lon="7.9075037"><ele>972.0</ele><time>2026-04-18T08:12:10.125Z</time></trkpt><trkpt lat="44.1158707" lon="7.9074186"><ele>972.0</ele><time>2026-04-18T08:12:11.125Z</time></trkpt><trkpt lat="44.1159121" lon="7.9072725"><ele>972.0</ele><time>2026-04-18T08:12:12.124Z</time></trkpt><trkpt lat="44.1159686" lon="7.9071064"><ele>972.0</ele><time>2026-04-18T08:12:13.125Z</time></trkpt><trkpt lat="44.1160372" lon="7.9069111"><ele>972.0</ele><time>2026-04-18T08:12:14.124Z</time></trkpt><trkpt lat="44.116112" lon="7.906697"><ele>968.6666666666667</ele><time>2026-04-18T08:12:15.124Z</time></trkpt><trkpt lat="44.1161939" lon="7.9064691"><ele>965.3333333333334</ele><time>2026-04-18T08:12:16.125Z</time></trkpt><trkpt lat="44.1162822" lon="7.9062229"><ele>962.0</ele><time>2026-04-18T08:12:17.124Z</time></trkpt><trkpt lat="44.1163751" lon="7.9059749"><ele>959.0</ele><time>2026-04-18T08:12:18.125Z</time></trkpt><trkpt lat="44.1164772" lon="7.9057418"><ele>956.0</ele><time>2026-04-18T08:12:19.125Z</time></trkpt><trkpt lat="44.116597" lon="7.9055305"><ele>953.0</ele><time>2026-04-18T08:12:20.125Z</time></trkpt><trkpt lat="44.1167419" lon="7.9053263"><ele>954.6666666666667</ele><time>2026-04-18T08:12:21.125Z</time></trkpt><trkpt lat="44.1169064" lon="7.9051428"><ele>956.3333333333333</ele><time>2026-04-18T08:12:22.125Z</time></trkpt><trkpt lat="44.1170768" lon="7.9049673"><ele>958.0</ele><time>2026-04-18T08:12:23.125Z</time></trkpt><trkpt lat="44.117227" lon="7.9047994"><ele>958.0</ele><time>2026-04-18T08:12:24.125Z</time></trkpt><trkpt lat="44.1173457" lon="7.9046273"><ele>958.0</ele><time>2026-04-18T08:12:25.125Z</time></trkpt><trkpt lat="44.1174476" lon="7.9044798"><ele>958.0</ele><time>2026-04-18T08:12:26.125Z</time></trkpt><trkpt lat="44.1175555" lon="7.904375"><ele>961.0</ele><time>2026-04-18T08:12:27.125Z</time></trkpt><trkpt lat="44.1176872" lon="7.904298"><ele>964.0</ele><time>2026-04-18T08:12:28.124Z</time></trkpt><trkpt lat="44.1178243" lon="7.904223"><ele>967.0</ele><time>2026-04-18T08:12:29.125Z</time></trkpt><trkpt lat="44.1179582" lon="7.9041178"><ele>970.0</ele><time>2026-04-18T08:12:30.125Z</time></trkpt><trkpt lat="44.1180797" lon="7.9040192"><ele>970.0</ele><time>2026-04-18T08:12:31.124Z</time></trkpt><trkpt lat="44.1181989" lon="7.9039357"><ele>970.0</ele><time>2026-04-18T08:12:32.124Z</time></trkpt><trkpt lat="44.1183194" lon="7.9038956"><ele>970.0</ele><time>2026-04-18T08:12:33.124Z</time></trkpt><trkpt lat="44.1184185" lon="7.9039185"><ele>970.0</ele><time>2026-04-18T08:12:34.124Z</time></trkpt><trkpt lat="44.1185038" lon="7.9039947"><ele>975.25</ele><time>2026-04-18T08:12:35.125Z</time></trkpt><trkpt lat="44.1185786" lon="7.9041208"><ele>980.5</ele><time>2026-04-18T08:12:36.125Z</time></trkpt><trkpt lat="44.1186533" lon="7.9042512"><ele>985.75</ele><time>2026-04-18T08:12:37.124Z</time></trkpt><trkpt lat="44.1187414" lon="7.9043995"><ele>991.0</ele><time>2026-04-18T08:12:38.124Z</time></trkpt><trkpt lat="44.1188561" lon="7.9045531"><ele>997.0</ele><time>2026-04-18T08:12:39.125Z</time></trkpt><trkpt lat="44.1189918" lon="7.9047005"><ele>1003.0</ele><time>2026-04-18T08:12:40.124Z</time></trkpt><trkpt lat="44.1191353" lon="7.9048336"><ele>1009.0</ele><time>2026-04-18T08:12:41.125Z</time></trkpt><trkpt lat="44.1192879" lon="7.9049684"><ele>1009.0</ele><time>2026-04-18T08:12:42.125Z</time></trkpt><trkpt lat="44.119449" lon="7.9050575"><ele>1009.0</ele><time>2026-04-18T08:12:43.124Z</time></trkpt><trkpt lat="44.1196172" lon="7.9051149"><ele>1009.0</ele><time>2026-04-18T08:12:44.124Z</time></trkpt><trkpt lat="44.119766" lon="7.9051562"><ele>1014.25</ele><time>2026-04-18T08:12:45.124Z</time></trkpt><trkpt lat="44.1198898" lon="7.9052461"><ele>1019.5</ele><time>2026-04-18T08:12:46.124Z</time></trkpt><trkpt lat="44.1199948" lon="7.905345"><ele>1024.75</ele><time>2026-04-18T08:12:47.125Z</time></trkpt><trkpt lat="44.1200976" lon="7.9053978"><ele>1030.0</ele><time>2026-04-18T08:12:48.125Z</time></trkpt><trkpt lat="44.1201934" lon="7.9053788"><ele>1030.0</ele><time>2026-04-18T08:12:49.125Z</time></trkpt><trkpt lat="44.1202725" lon="7.9052923"><ele>1030.0</ele><time>2026-04-18T08:12:50.124Z</time></trkpt><trkpt lat="44.1203161" lon="7.9051556"><ele>1030.0</ele><time>2026-04-18T08:12:51.125Z</time></trkpt><trkpt lat="44.1203212" lon="7.9050072"><ele>1030.0</ele><time>2026-04-18T08:12:52.125Z</time></trkpt><trkpt lat="44.1202856" lon="7.9048469"><ele>1030.0</ele><time>2026-04-18T08:12:53.125Z</time></trkpt><trkpt lat="44.1202442" lon="7.9046679"><ele>1023.0</ele><time>2026-04-18T08:12:54.125Z</time></trkpt><trkpt lat="44.1202228" lon="7.9044454"><ele>1016.0</ele><time>2026-04-18T08:12:55.125Z</time></trkpt><trkpt lat="44.1202343" lon="7.9042165"><ele>1009.0</ele><time>2026-04-18T08:12:56.125Z</time></trkpt><trkpt lat="44.1202818" lon="7.9040001"><ele>1007.0</ele><time>2026-04-18T08:12:57.125Z</time></trkpt><trkpt lat="44.1203222" lon="7.9037875"><ele>1005.0</ele><time>2026-04-18T08:12:58.124Z</time></trkpt><trkpt lat="44.1203356" lon="7.9035701"><ele>1003.0</ele><time>2026-04-18T08:12:59.125Z</time></trkpt><trkpt lat="44.1203149" lon="7.9033812"><ele>1003.0</ele><time>2026-04-18T08:13:00.125Z</time></trkpt><trkpt lat="44.1202868" lon="7.903224"><ele>1003.0</ele><time>2026-04-18T08:13:01.125Z</time></trkpt><trkpt lat="44.1203" lon="7.9030956"><ele>1003.0</ele><time>2026-04-18T08:13:02.126Z</time></trkpt><trkpt lat="44.1203478" lon="7.902993"><ele>1003.0</ele><time>2026-04-18T08:13:03.126Z</time></trkpt><trkpt lat="44.1204317" lon="7.9029387"><ele>1003.0</ele><time>2026-04-18T08:13:04.126Z</time></trkpt><trkpt lat="44.1205483" lon="7.9029438"><ele>1003.0</ele><time>2026-04-18T08:13:05.126Z</time></trkpt><trkpt lat="44.1206761" lon="7.9029822"><ele>1003.0</ele><time>2026-04-18T08:13:06.126Z</time></trkpt><trkpt lat="44.1208241" lon="7.9030329"><ele>1003.0</ele><time>2026-04-18T08:13:07.126Z</time></trkpt><trkpt lat="44.1209815" lon="7.9030768"><ele>1003.0</ele><time>2026-04-18T08:13:08.125Z</time></trkpt><trkpt lat="44.1211508" lon="7.9031227"><ele>1011.0</ele><time>2026-04-18T08:13:09.125Z</time></trkpt><trkpt lat="44.1213261" lon="7.9031688"><ele>1019.0</ele><time>2026-04-18T08:13:10.126Z</time></trkpt><trkpt lat="44.1214987" lon="7.9032039"><ele>1027.0</ele><time>2026-04-18T08:13:11.126Z</time></trkpt><trkpt lat="44.121669" lon="7.903216"><ele>1029.5</ele><time>2026-04-18T08:13:12.126Z</time></trkpt><trkpt lat="44.1218323" lon="7.9031944"><ele>1032.0</ele><time>2026-04-18T08:13:13.126Z</time></trkpt><trkpt lat="44.1219724" lon="7.9031579"><ele>1034.5</ele><time>2026-04-18T08:13:14.126Z</time></trkpt><trkpt lat="44.1220783" lon="7.9031035"><ele>1037.0</ele><time>2026-04-18T08:13:15.126Z</time></trkpt><trkpt lat="44.1221624" lon="7.903008"><ele>1037.0</ele><time>2026-04-18T08:13:16.125Z</time></trkpt><trkpt lat="44.1221979" lon="7.9028562"><ele>1037.0</ele><time>2026-04-18T08:13:17.125Z</time></trkpt><trkpt lat="44.1222036" lon="7.9027013"><ele>1037.0</ele><time>2026-04-18T08:13:18.125Z</time></trkpt><trkpt lat="44.1221922" lon="7.902573"><ele>1037.0</ele><time>2026-04-18T08:13:19.126Z</time></trkpt><trkpt lat="44.1222022" lon="7.9024751"><ele>1037.0</ele><time>2026-04-18T08:13:20.126Z</time></trkpt><trkpt lat="44.1223052" lon="7.9024168"><ele>1037.0</ele><time>2026-04-18T08:13:22.126Z</time></trkpt><trkpt lat="44.122346" lon="7.9024869"><ele>1037.0</ele><time>2026-04-18T08:13:23.126Z</time></trkpt><trkpt lat="44.1223605" lon="7.9025878"><ele>1037.0</ele><time>2026-04-18T08:13:24.125Z</time></trkpt><trkpt lat="44.1223335" lon="7.9027098"><ele>1037.0</ele><time>2026-04-18T08:13:25.126Z</time></trkpt><trkpt lat="44.1223077" lon="7.9028212"><ele>1037.0</ele><time>2026-04-18T08:13:26.126Z</time></trkpt><trkpt lat="44.1223519" lon="7.9029786"><ele>1037.0</ele><time>2026-04-18T08:13:27.126Z</time></trkpt><trkpt lat="44.1223702" lon="7.9031382"><ele>1037.0</ele><time>2026-04-18T08:13:28.125Z</time></trkpt><trkpt lat="44.1223481" lon="7.903289"><ele>1037.0</ele><time>2026-04-18T08:13:29.126Z</time></trkpt><trkpt lat="44.1222624" lon="7.9034038"><ele>1037.0</ele><time>2026-04-18T08:13:30.125Z</time></trkpt><trkpt lat="44.1221507" lon="7.9034824"><ele>1037.0</ele><time>2026-04-18T08:13:31.126Z</time></trkpt><trkpt lat="44.1220043" lon="7.9035607"><ele>1039.0</ele><time>2026-04-18T08:13:32.126Z</time></trkpt><trkpt lat="44.12186" lon="7.9036314"><ele>1041.0</ele><time>2026-04-18T08:13:33.126Z</time></trkpt><trkpt lat="44.1217063" lon="7.9037011"><ele>1043.0</ele><time>2026-04-18T08:13:34.126Z</time></trkpt><trkpt lat="44.1215512" lon="7.9037616"><ele>1043.0</ele><time>2026-04-18T08:13:35.125Z</time></trkpt><trkpt lat="44.1214077" lon="7.9038194"><ele>1043.0</ele><time>2026-04-18T08:13:36.125Z</time></trkpt><trkpt lat="44.1212833" lon="7.9038631"><ele>1043.0</ele><time>2026-04-18T08:13:37.126Z</time></trkpt><trkpt lat="44.1211814" lon="7.9039472"><ele>1043.0</ele><time>2026-04-18T08:13:38.125Z</time></trkpt><trkpt lat="44.1211059" lon="7.9040695"><ele>1043.0</ele><time>2026-04-18T08:13:39.125Z</time></trkpt><trkpt lat="44.1210729" lon="7.9042316"><ele>1043.0</ele><time>2026-04-18T08:13:40.126Z</time></trkpt><trkpt lat="44.1210844" lon="7.9044049"><ele>1043.0</ele><time>2026-04-18T08:13:41.126Z</time></trkpt><trkpt lat="44.1211471" lon="7.9045799"><ele>1043.0</ele><time>2026-04-18T08:13:42.126Z</time></trkpt><trkpt lat="44.1212404" lon="7.9047445"><ele>1043.25</ele><time>2026-04-18T08:13:43.126Z</time></trkpt><trkpt lat="44.1213366" lon="7.9049187"><ele>1043.5</ele><time>2026-04-18T08:13:44.126Z</time></trkpt><trkpt lat="44.1214068" lon="7.9051021"><ele>1043.75</ele><time>2026-04-18T08:13:45.126Z</time></trkpt><trkpt lat="44.1214334" lon="7.9052729"><ele>1044.0</ele><time>2026-04-18T08:13:46.126Z</time></trkpt><trkpt lat="44.1214157" lon="7.9054227"><ele>1045.5</ele><time>2026-04-18T08:13:47.126Z</time></trkpt><trkpt lat="44.1213651" lon="7.9055714"><ele>1047.0</ele><time>2026-04-18T08:13:48.126Z</time></trkpt><trkpt lat="44.121309" lon="7.9057392"><ele>1048.5</ele><time>2026-04-18T08:13:49.126Z</time></trkpt><trkpt lat="44.1212658" lon="7.9059117"><ele>1050.0</ele><time>2026-04-18T08:13:50.126Z</time></trkpt><trkpt lat="44.1212619" lon="7.9060912"><ele>1055.0</ele><time>2026-04-18T08:13:51.126Z</time></trkpt><trkpt lat="44.1212827" lon="7.90628"><ele>1060.0</ele><time>2026-04-18T08:13:52.126Z</time></trkpt><trkpt lat="44.1213155" lon="7.9064592"><ele>1065.0</ele><time>2026-04-18T08:13:53.125Z</time></trkpt><trkpt lat="44.1213522" lon="7.9066172"><ele>1070.0</ele><time>2026-04-18T08:13:54.126Z</time></trkpt><trkpt lat="44.1213681" lon="7.9067646"><ele>1078.5</ele><time>2026-04-18T08:13:55.125Z</time></trkpt><trkpt lat="44.1212987" lon="7.90686"><ele>1087.0</ele><time>2026-04-18T08:13:56.126Z</time></trkpt><trkpt lat="44.1212096" lon="7.9069539"><ele>1095.5</ele><time>2026-04-18T08:13:57.125Z</time></trkpt><trkpt lat="44.1210782" lon="7.9070268"><ele>1104.0</ele><time>2026-04-18T08:13:58.126Z</time></trkpt><trkpt lat="44.1209358" lon="7.9070961"><ele>1104.0</ele><time>2026-04-18T08:13:59.126Z</time></trkpt><trkpt lat="44.1207772" lon="7.9071741"><ele>1104.0</ele><time>2026-04-18T08:14:00.125Z</time></trkpt><trkpt lat="44.1206117" lon="7.9072646"><ele>1104.0</ele><time>2026-04-18T08:14:01.126Z</time></trkpt><trkpt lat="44.120437" lon="7.9073436"><ele>1105.0</ele><time>2026-04-18T08:14:02.126Z</time></trkpt><trkpt lat="44.1202585" lon="7.9074221"><ele>1106.0</ele><time>2026-04-18T08:14:03.126Z</time></trkpt><trkpt lat="44.1200852" lon="7.9075025"><ele>1107.0</ele><time>2026-04-18T08:14:04.126Z</time></trkpt><trkpt lat="44.1198978" lon="7.9075373"><ele>1107.0</ele><time>2026-04-18T08:14:05.126Z</time></trkpt><trkpt lat="44.1197153" lon="7.9075379"><ele>1107.0</ele><time>2026-04-18T08:14:06.126Z</time></trkpt><trkpt lat="44.1195496" lon="7.9075082"><ele>1107.0</ele><time>2026-04-18T08:14:07.126Z</time></trkpt><trkpt lat="44.1194077" lon="7.9074451"><ele>1107.0</ele><time>2026-04-18T08:14:08.125Z</time></trkpt><trkpt lat="44.1192716" lon="7.9073428"><ele>1107.0</ele><time>2026-04-18T08:14:09.126Z</time></trkpt><trkpt lat="44.1191491" lon="7.9072375"><ele>1107.0</ele><time>2026-04-18T08:14:10.126Z</time></trkpt><trkpt lat="44.1190321" lon="7.9071471"><ele>1107.0</ele><time>2026-04-18T08:14:11.125Z</time></trkpt><trkpt lat="44.1189126" lon="7.9071121"><ele>1103.75</ele><time>2026-04-18T08:14:12.125Z</time></trkpt><trkpt lat="44.1188008" lon="7.9071351"><ele>1100.5</ele><time>2026-04-18T08:14:13.126Z</time></trkpt><trkpt lat="44.118685" lon="7.9072038"><ele>1097.25</ele><time>2026-04-18T08:14:14.126Z</time></trkpt><trkpt lat="44.118583" lon="7.9073315"><ele>1094.0</ele><time>2026-04-18T08:14:15.126Z</time></trkpt><trkpt lat="44.1184797" lon="7.9074872"><ele>1100.0</ele><time>2026-04-18T08:14:16.125Z</time></trkpt><trkpt lat="44.1183784" lon="7.907671"><ele>1106.0</ele><time>2026-04-18T08:14:17.126Z</time></trkpt><trkpt lat="44.1182868" lon="7.9078729"><ele>1112.0</ele><time>2026-04-18T08:14:18.126Z</time></trkpt><trkpt lat="44.1182149" lon="7.908099"><ele>1104.3333333333335</ele><time>2026-04-18T08:14:19.126Z</time></trkpt><trkpt lat="44.1181496" lon="7.9083382"><ele>1096.6666666666667</ele><time>2026-04-18T08:14:20.126Z</time></trkpt><trkpt lat="44.1180798" lon="7.908566"><ele>1089.0</ele><time>2026-04-18T08:14:21.125Z</time></trkpt><trkpt lat="44.1179969" lon="7.9087757"><ele>1089.0</ele><time>2026-04-18T08:14:22.126Z</time></trkpt><trkpt lat="44.117909" lon="7.9089668"><ele>1089.0</ele><time>2026-04-18T08:14:23.125Z</time></trkpt><trkpt lat="44.1178563" lon="7.9091616"><ele>1089.0</ele><time>2026-04-18T08:14:24.126Z</time></trkpt><trkpt lat="44.1178288" lon="7.9093315"><ele>1089.0</ele><time>2026-04-18T08:14:25.126Z</time></trkpt><trkpt lat="44.1178354" lon="7.9095018"><ele>1089.6666666666667</ele><time>2026-04-18T08:14:26.126Z</time></trkpt><trkpt lat="44.1178898" lon="7.909681"><ele>1090.3333333333335</ele><time>2026-04-18T08:14:27.126Z</time></trkpt><trkpt lat="44.1179811" lon="7.9098496"><ele>1091.0</ele><time>2026-04-18T08:14:28.125Z</time></trkpt><trkpt lat="44.1180915" lon="7.9100276"><ele>1089.3333333333335</ele><time>2026-04-18T08:14:29.126Z</time></trkpt><trkpt lat="44.1181896" lon="7.9102303"><ele>1087.6666666666667</ele><time>2026-04-18T08:14:30.127Z</time></trkpt><trkpt lat="44.1182624" lon="7.9104546"><ele>1086.0</ele><time>2026-04-18T08:14:31.126Z</time></trkpt><trkpt lat="44.1183139" lon="7.9107013"><ele>1096.3333333333333</ele><time>2026-04-18T08:14:32.127Z</time></trkpt><trkpt lat="44.1183431" lon="7.9109501"><ele>1106.6666666666665</ele><time>2026-04-18T08:14:33.127Z</time></trkpt><trkpt lat="44.1183525" lon="7.9111961"><ele>1117.0</ele><time>2026-04-18T08:14:34.127Z</time></trkpt><trkpt lat="44.1183578" lon="7.9114263"><ele>1117.0</ele><time>2026-04-18T08:14:35.127Z</time></trkpt><trkpt lat="44.1183957" lon="7.9116428"><ele>1117.0</ele><time>2026-04-18T08:14:36.127Z</time></trkpt><trkpt lat="44.1184719" lon="7.9118653"><ele>1117.0</ele><time>2026-04-18T08:14:37.126Z</time></trkpt><trkpt lat="44.1185618" lon="7.9120915"><ele>1117.0</ele><time>2026-04-18T08:14:38.127Z</time></trkpt><trkpt lat="44.1186531" lon="7.9123146"><ele>1117.0</ele><time>2026-04-18T08:14:39.126Z</time></trkpt><trkpt lat="44.1187539" lon="7.9125281"><ele>1117.0</ele><time>2026-04-18T08:14:40.127Z</time></trkpt><trkpt lat="44.1188344" lon="7.9127427"><ele>1116.0</ele><time>2026-04-18T08:14:41.126Z</time></trkpt><trkpt lat="44.1188881" lon="7.9129587"><ele>1115.0</ele><time>2026-04-18T08:14:42.127Z</time></trkpt><trkpt lat="44.1189151" lon="7.9131897"><ele>1114.0</ele><time>2026-04-18T08:14:43.127Z</time></trkpt><trkpt lat="44.118958" lon="7.9134206"><ele>1118.6666666666665</ele><time>2026-04-18T08:14:44.127Z</time></trkpt><trkpt lat="44.1190367" lon="7.9136339"><ele>1123.3333333333333</ele><time>2026-04-18T08:14:45.126Z</time></trkpt><trkpt lat="44.1191233" lon="7.9138181"><ele>1128.0</ele><time>2026-04-18T08:14:46.127Z</time></trkpt><trkpt lat="44.1191883" lon="7.9139863"><ele>1133.0</ele><time>2026-04-18T08:14:47.127Z</time></trkpt><trkpt lat="44.1192101" lon="7.914141"><ele>1138.0</ele><time>2026-04-18T08:14:48.126Z</time></trkpt><trkpt lat="44.1191803" lon="7.9142656"><ele>1143.0</ele><time>2026-04-18T08:14:49.127Z</time></trkpt><trkpt lat="44.1191206" lon="7.9143702"><ele>1148.0</ele><time>2026-04-18T08:14:50.127Z</time></trkpt><trkpt lat="44.1190213" lon="7.9144191"><ele>1153.0</ele><time>2026-04-18T08:14:51.127Z</time></trkpt><trkpt lat="44.1189014" lon="7.9144524"><ele>1153.0</ele><time>2026-04-18T08:14:52.127Z</time></trkpt><trkpt lat="44.1187672" lon="7.9144879"><ele>1153.0</ele><time>2026-04-18T08:14:53.127Z</time></trkpt><trkpt lat="44.1186364" lon="7.9145398"><ele>1153.0</ele><time>2026-04-18T08:14:54.126Z</time></trkpt><trkpt lat="44.1185186" lon="7.9146233"><ele>1153.0</ele><time>2026-04-18T08:14:55.126Z</time></trkpt><trkpt lat="44.1184159" lon="7.9147706"><ele>1153.0</ele><time>2026-04-18T08:14:56.126Z</time></trkpt><trkpt lat="44.1183424" lon="7.9149835"><ele>1153.0</ele><time>2026-04-18T08:14:57.126Z</time></trkpt><trkpt lat="44.1182715" lon="7.9152153"><ele>1153.0</ele><time>2026-04-18T08:14:58.127Z</time></trkpt><trkpt lat="44.1181978" lon="7.9154555"><ele>1159.6666666666665</ele><time>2026-04-18T08:14:59.127Z</time></trkpt><trkpt lat="44.11813" lon="7.915682"><ele>1166.3333333333333</ele><time>2026-04-18T08:15:00.126Z</time></trkpt><trkpt lat="44.1180736" lon="7.9158771"><ele>1173.0</ele><time>2026-04-18T08:15:01.127Z</time></trkpt><trkpt lat="44.1180163" lon="7.9160288"><ele>1177.0</ele><time>2026-04-18T08:15:02.127Z</time></trkpt><trkpt lat="44.1179392" lon="7.9161296"><ele>1181.0</ele><time>2026-04-18T08:15:03.127Z</time></trkpt><trkpt lat="44.1178456" lon="7.9161709"><ele>1185.0</ele><time>2026-04-18T08:15:04.127Z</time></trkpt><trkpt lat="44.1177513" lon="7.916147"><ele>1189.0</ele><time>2026-04-18T08:15:05.127Z</time></trkpt><trkpt lat="44.117662" lon="7.9160825"><ele>1193.0</ele><time>2026-04-18T08:15:06.127Z</time></trkpt><trkpt lat="44.1175631" lon="7.9159486"><ele>1188.0</ele><time>2026-04-18T08:15:07.126Z</time></trkpt><trkpt lat="44.1174559" lon="7.9157941"><ele>1183.0</ele><time>2026-04-18T08:15:08.127Z</time></trkpt><trkpt lat="44.1173654" lon="7.915638"><ele>1178.0</ele><time>2026-04-18T08:15:09.127Z</time></trkpt><trkpt lat="44.1172946" lon="7.9154903"><ele>1173.0</ele><time>2026-04-18T08:15:10.126Z</time></trkpt><trkpt lat="44.1172338" lon="7.9153736"><ele>1169.2</ele><time>2026-04-18T08:15:11.127Z</time></trkpt><trkpt lat="44.1171535" lon="7.9153146"><ele>1165.4</ele><time>2026-04-18T08:15:12.127Z</time></trkpt><trkpt lat="44.11707" lon="7.9153331"><ele>1161.6000000000001</ele><time>2026-04-18T08:15:13.127Z</time></trkpt><trkpt lat="44.116997" lon="7.9154229"><ele>1157.8</ele><time>2026-04-18T08:15:14.126Z</time></trkpt><trkpt lat="44.1169328" lon="7.9155785"><ele>1154.0</ele><time>2026-04-18T08:15:15.126Z</time></trkpt><trkpt lat="44.1168962" lon="7.9157529"><ele>1158.0</ele><time>2026-04-18T08:15:16.127Z</time></trkpt><trkpt lat="44.1168821" lon="7.9159622"><ele>1162.0</ele><time>2026-04-18T08:15:17.126Z</time></trkpt><trkpt lat="44.1168759" lon="7.9161766"><ele>1166.0</ele><time>2026-04-18T08:15:18.127Z</time></trkpt><trkpt lat="44.1168634" lon="7.9164011"><ele>1166.0</ele><time>2026-04-18T08:15:19.127Z</time></trkpt><trkpt lat="44.116845" lon="7.9166397"><ele>1166.0</ele><time>2026-04-18T08:15:20.127Z</time></trkpt><trkpt lat="44.1168215" lon="7.916893"><ele>1166.0</ele><time>2026-04-18T08:15:21.127Z</time></trkpt><trkpt lat="44.1167963" lon="7.9171494"><ele>1171.6666666666667</ele><time>2026-04-18T08:15:22.127Z</time></trkpt><trkpt lat="44.116771" lon="7.9173939"><ele>1177.3333333333333</ele><time>2026-04-18T08:15:23.127Z</time></trkpt><trkpt lat="44.1167467" lon="7.9176249"><ele>1183.0</ele><time>2026-04-18T08:15:24.127Z</time></trkpt><trkpt lat="44.1167256" lon="7.9178294"><ele>1187.25</ele><time>2026-04-18T08:15:25.127Z</time></trkpt><trkpt lat="44.1166969" lon="7.9180015"><ele>1191.5</ele><time>2026-04-18T08:15:26.127Z</time></trkpt><trkpt lat="44.1166507" lon="7.9181383"><ele>1195.75</ele><time>2026-04-18T08:15:27.126Z</time></trkpt><trkpt lat="44.1165779" lon="7.9182534"><ele>1200.0</ele><time>2026-04-18T08:15:28.127Z</time></trkpt><trkpt lat="44.1164798" lon="7.918338"><ele>1201.25</ele><time>2026-04-18T08:15:29.127Z</time></trkpt><trkpt lat="44.1163631" lon="7.9183901"><ele>1202.5</ele><time>2026-04-18T08:15:30.127Z</time></trkpt><trkpt lat="44.1162331" lon="7.9184138"><ele>1203.75</ele><time>2026-04-18T08:15:31.127Z</time></trkpt><trkpt lat="44.1161206" lon="7.9184359"><ele>1205.0</ele><time>2026-04-18T08:15:32.127Z</time></trkpt><trkpt lat="44.1160082" lon="7.9184067"><ele>1205.0</ele><time>2026-04-18T08:15:33.127Z</time></trkpt><trkpt lat="44.1158965" lon="7.9183374"><ele>1205.0</ele><time>2026-04-18T08:15:34.127Z</time></trkpt><trkpt lat="44.1157884" lon="7.9182132"><ele>1205.0</ele><time>2026-04-18T08:15:35.127Z</time></trkpt><trkpt lat="44.1156795" lon="7.9180589"><ele>1205.0</ele><time>2026-04-18T08:15:36.127Z</time></trkpt><trkpt lat="44.1155604" lon="7.9178938"><ele>1204.0</ele><time>2026-04-18T08:15:37.127Z</time></trkpt><trkpt lat="44.1154148" lon="7.9177523"><ele>1203.0</ele><time>2026-04-18T08:15:38.126Z</time></trkpt><trkpt lat="44.11525" lon="7.9176263"><ele>1202.0</ele><time>2026-04-18T08:15:39.126Z</time></trkpt><trkpt lat="44.1150782" lon="7.9175224"><ele>1202.0</ele><time>2026-04-18T08:15:40.127Z</time></trkpt><trkpt lat="44.1149321" lon="7.9174325"><ele>1202.0</ele><time>2026-04-18T08:15:41.127Z</time></trkpt><trkpt lat="44.1148131" lon="7.9173417"><ele>1202.0</ele><time>2026-04-18T08:15:42.126Z</time></trkpt><trkpt lat="44.1147108" lon="7.9172701"><ele>1202.0</ele><time>2026-04-18T08:15:43.127Z</time></trkpt><trkpt lat="44.1146261" lon="7.9172502"><ele>1203.8</ele><time>2026-04-18T08:15:44.127Z</time></trkpt><trkpt lat="44.1145497" lon="7.9173009"><ele>1205.6</ele><time>2026-04-18T08:15:45.126Z</time></trkpt><trkpt lat="44.1144926" lon="7.9173856"><ele>1207.3999999999999</ele><time>2026-04-18T08:15:46.127Z</time></trkpt><trkpt lat="44.1144568" lon="7.9175076"><ele>1209.2</ele><time>2026-04-18T08:15:47.127Z</time></trkpt><trkpt lat="44.1144422" lon="7.917666"><ele>1211.0</ele><time>2026-04-18T08:15:48.126Z</time></trkpt><trkpt lat="44.1144249" lon="7.9178482"><ele>1211.0</ele><time>2026-04-18T08:15:49.127Z</time></trkpt><trkpt lat="44.1144022" lon="7.9180415"><ele>1211.0</ele><time>2026-04-18T08:15:50.126Z</time></trkpt><trkpt lat="44.1143778" lon="7.9182184"><ele>1211.0</ele><time>2026-04-18T08:15:51.127Z</time></trkpt><trkpt lat="44.114346" lon="7.9183652"><ele>1211.0</ele><time>2026-04-18T08:15:52.127Z</time></trkpt><trkpt lat="44.114285" lon="7.9184838"><ele>1214.0</ele><time>2026-04-18T08:15:53.127Z</time></trkpt><trkpt lat="44.1141931" lon="7.9185631"><ele>1217.0</ele><time>2026-04-18T08:15:54.126Z</time></trkpt><trkpt lat="44.1140838" lon="7.9186169"><ele>1220.0</ele><time>2026-04-18T08:15:55.126Z</time></trkpt><trkpt lat="44.1139473" lon="7.9186532"><ele>1223.0</ele><time>2026-04-18T08:15:56.127Z</time></trkpt><trkpt lat="44.1137993" lon="7.9186964"><ele>1223.0</ele><time>2026-04-18T08:15:57.127Z</time></trkpt><trkpt lat="44.1136543" lon="7.9187453"><ele>1223.0</ele><time>2026-04-18T08:15:58.128Z</time></trkpt><trkpt lat="44.11352" lon="7.9188215"><ele>1223.0</ele><time>2026-04-18T08:15:59.128Z</time></trkpt><trkpt lat="44.1133865" lon="7.9189418"><ele>1223.0</ele><time>2026-04-18T08:16:00.127Z</time></trkpt><trkpt lat="44.1132699" lon="7.9191072"><ele>1223.0</ele><time>2026-04-18T08:16:01.128Z</time></trkpt><trkpt lat="44.1131658" lon="7.9192936"><ele>1223.0</ele><time>2026-04-18T08:16:02.128Z</time></trkpt><trkpt lat="44.1130436" lon="7.9194734"><ele>1225.0</ele><time>2026-04-18T08:16:03.127Z</time></trkpt><trkpt lat="44.1129046" lon="7.9196476"><ele>1227.0</ele><time>2026-04-18T08:16:04.128Z</time></trkpt><trkpt lat="44.1127573" lon="7.9198134"><ele>1229.0</ele><time>2026-04-18T08:16:05.128Z</time></trkpt><trkpt lat="44.1126182" lon="7.9199883"><ele>1228.6666666666667</ele><time>2026-04-18T08:16:06.128Z</time></trkpt><trkpt lat="44.1124899" lon="7.9201842"><ele>1228.3333333333333</ele><time>2026-04-18T08:16:07.128Z</time></trkpt><trkpt lat="44.1123601" lon="7.9203791"><ele>1228.0</ele><time>2026-04-18T08:16:08.128Z</time></trkpt><trkpt lat="44.1122168" lon="7.9205448"><ele>1228.0</ele><time>2026-04-18T08:16:09.128Z</time></trkpt><trkpt lat="44.112068" lon="7.9206806"><ele>1228.0</ele><time>2026-04-18T08:16:10.127Z</time></trkpt><trkpt lat="44.1119418" lon="7.9208071"><ele>1228.0</ele><time>2026-04-18T08:16:11.128Z</time></trkpt><trkpt lat="44.1118304" lon="7.920955"><ele>1237.6666666666665</ele><time>2026-04-18T08:16:12.128Z</time></trkpt><trkpt lat="44.1117473" lon="7.9211556"><ele>1247.3333333333333</ele><time>2026-04-18T08:16:13.128Z</time></trkpt><trkpt lat="44.1116858" lon="7.9213779"><ele>1257.0</ele><time>2026-04-18T08:16:14.128Z</time></trkpt><trkpt lat="44.1116314" lon="7.9215705"><ele>1261.6</ele><time>2026-04-18T08:16:15.128Z</time></trkpt><trkpt lat="44.1115749" lon="7.9217327"><ele>1266.2</ele><time>2026-04-18T08:16:16.127Z</time></trkpt><trkpt lat="44.1115152" lon="7.9218622"><ele>1270.8</ele><time>2026-04-18T08:16:17.128Z</time></trkpt><trkpt lat="44.11144" lon="7.9219549"><ele>1275.4</ele><time>2026-04-18T08:16:18.128Z</time></trkpt><trkpt lat="44.1113445" lon="7.9220006"><ele>1280.0</ele><time>2026-04-18T08:16:19.128Z</time></trkpt><trkpt lat="44.1112308" lon="7.9220007"><ele>1280.0</ele><time>2026-04-18T08:16:20.128Z</time></trkpt><trkpt lat="44.1111029" lon="7.9219844"><ele>1280.0</ele><time>2026-04-18T08:16:21.127Z</time></trkpt><trkpt lat="44.1109563" lon="7.9219929"><ele>1280.0</ele><time>2026-04-18T08:16:22.128Z</time></trkpt><trkpt lat="44.1107988" lon="7.9220235"><ele>1280.0</ele><time>2026-04-18T08:16:23.128Z</time></trkpt><trkpt lat="44.1106497" lon="7.9220839"><ele>1281.5</ele><time>2026-04-18T08:16:24.127Z</time></trkpt><trkpt lat="44.1105106" lon="7.9221594"><ele>1283.0</ele><time>2026-04-18T08:16:25.127Z</time></trkpt><trkpt lat="44.1103947" lon="7.9222212"><ele>1284.5</ele><time>2026-04-18T08:16:26.128Z</time></trkpt><trkpt lat="44.1102875" lon="7.9222389"><ele>1286.0</ele><time>2026-04-18T08:16:27.128Z</time></trkpt><trkpt lat="44.1101881" lon="7.9221973"><ele>1286.0</ele><time>2026-04-18T08:16:28.128Z</time></trkpt><trkpt lat="44.1100856" lon="7.9221193"><ele>1286.0</ele><time>2026-04-18T08:16:29.128Z</time></trkpt><trkpt lat="44.1099937" lon="7.9219986"><ele>1286.0</ele><time>2026-04-18T08:16:30.128Z</time></trkpt><trkpt lat="44.1099221" lon="7.9218591"><ele>1286.0</ele><time>2026-04-18T08:16:31.128Z</time></trkpt><trkpt lat="44.1098398" lon="7.921722"><ele>1286.6666666666667</ele><time>2026-04-18T08:16:32.128Z</time></trkpt><trkpt lat="44.1097179" lon="7.9216057"><ele>1287.3333333333333</ele><time>2026-04-18T08:16:33.128Z</time></trkpt><trkpt lat="44.1095745" lon="7.9215216"><ele>1288.0</ele><time>2026-04-18T08:16:34.128Z</time></trkpt><trkpt lat="44.1094273" lon="7.9214264"><ele>1288.0</ele><time>2026-04-18T08:16:35.127Z</time></trkpt><trkpt lat="44.1092859" lon="7.9212844"><ele>1288.0</ele><time>2026-04-18T08:16:36.128Z</time></trkpt><trkpt lat="44.1091481" lon="7.9211339"><ele>1288.0</ele><time>2026-04-18T08:16:37.127Z</time></trkpt><trkpt lat="44.1090312" lon="7.9209981"><ele>1286.8000000000002</ele><time>2026-04-18T08:16:38.128Z</time></trkpt><trkpt lat="44.1089305" lon="7.9208886"><ele>1285.6</ele><time>2026-04-18T08:16:39.128Z</time></trkpt><trkpt lat="44.108836" lon="7.9208107"><ele>1284.4</ele><time>2026-04-18T08:16:40.128Z</time></trkpt><trkpt lat="44.1087439" lon="7.9207811"><ele>1283.1999999999998</ele><time>2026-04-18T08:16:41.128Z</time></trkpt><trkpt lat="44.1086435" lon="7.9208202"><ele>1282.0</ele><time>2026-04-18T08:16:42.128Z</time></trkpt><trkpt lat="44.1085397" lon="7.9209136"><ele>1282.0</ele><time>2026-04-18T08:16:43.128Z</time></trkpt><trkpt lat="44.1084553" lon="7.9210641"><ele>1282.0</ele><time>2026-04-18T08:16:44.128Z</time></trkpt><trkpt lat="44.1083916" lon="7.9212006"><ele>1282.0</ele><time>2026-04-18T08:16:45.128Z</time></trkpt><trkpt lat="44.1083435" lon="7.9213163"><ele>1282.0</ele><time>2026-04-18T08:16:46.127Z</time></trkpt><trkpt lat="44.1083076" lon="7.9214045"><ele>1282.0</ele><time>2026-04-18T08:16:47.127Z</time></trkpt><trkpt lat="44.1082406" lon="7.9215016"><ele>1281.1666666666665</ele><time>2026-04-18T08:16:49.128Z</time></trkpt><trkpt lat="44.1081608" lon="7.9215164"><ele>1280.3333333333333</ele><time>2026-04-18T08:16:52.128Z</time></trkpt><trkpt lat="44.1080887" lon="7.9215245"><ele>1279.5</ele><time>2026-04-18T08:21:59.131Z</time></trkpt><trkpt lat="44.1081303" lon="7.9216096"><ele>1278.6666666666667</ele><time>2026-04-18T08:29:06.135Z</time></trkpt><trkpt lat="44.1081671" lon="7.921687"><ele>1277.8333333333335</ele><time>2026-04-18T08:29:08.134Z</time></trkpt><trkpt lat="44.1081629" lon="7.9217786"><ele>1277.0</ele><time>2026-04-18T08:29:10.135Z</time></trkpt><trkpt lat="44.1081141" lon="7.9219182"><ele>1277.0</ele><time>2026-04-18T08:29:12.135Z</time></trkpt><trkpt lat="44.1080705" lon="7.9220125"><ele>1277.0</ele><time>2026-04-18T08:29:13.135Z</time></trkpt><trkpt lat="44.1080271" lon="7.9221156"><ele>1277.0</ele><time>2026-04-18T08:29:14.135Z</time></trkpt><trkpt lat="44.1079831" lon="7.9222247"><ele>1277.0</ele><time>2026-04-18T08:29:15.135Z</time></trkpt><trkpt lat="44.1079332" lon="7.9223407"><ele>1277.0</ele><time>2026-04-18T08:29:16.134Z</time></trkpt><trkpt lat="44.1078798" lon="7.9224667"><ele>1279.25</ele><time>2026-04-18T08:29:17.135Z</time></trkpt><trkpt lat="44.1078092" lon="7.922599"><ele>1281.5</ele><time>2026-04-18T08:29:18.135Z</time></trkpt><trkpt lat="44.10773" lon="7.9227292"><ele>1283.75</ele><time>2026-04-18T08:29:19.134Z</time></trkpt><trkpt lat="44.1076458" lon="7.9228456"><ele>1286.0</ele><time>2026-04-18T08:29:20.134Z</time></trkpt><trkpt lat="44.1075677" lon="7.9229388"><ele>1286.0</ele><time>2026-04-18T08:29:21.135Z</time></trkpt><trkpt lat="44.1075132" lon="7.9230305"><ele>1286.0</ele><time>2026-04-18T08:29:22.134Z</time></trkpt><trkpt lat="44.1074879" lon="7.9231229"><ele>1286.0</ele><time>2026-04-18T08:29:23.134Z</time></trkpt><trkpt lat="44.1075483" lon="7.9232751"><ele>1286.0</ele><time>2026-04-18T08:29:25.135Z</time></trkpt><trkpt lat="44.1076179" lon="7.9232671"><ele>1286.0</ele><time>2026-04-18T08:29:26.135Z</time></trkpt><trkpt lat="44.1076724" lon="7.9231778"><ele>1286.0</ele><time>2026-04-18T08:29:27.135Z</time></trkpt><trkpt lat="44.1077212" lon="7.9230775"><ele>1286.0</ele><time>2026-04-18T08:29:28.135Z</time></trkpt><trkpt lat="44.1077857" lon="7.9229728"><ele>1286.0</ele><time>2026-04-18T08:29:29.135Z</time></trkpt><trkpt lat="44.1078938" lon="7.9229091"><ele>1286.0</ele><time>2026-04-18T08:29:30.134Z</time></trkpt><trkpt lat="44.1080223" lon="7.9228661"><ele>1286.0</ele><time>2026-04-18T08:29:31.135Z</time></trkpt><trkpt lat="44.1081603" lon="7.9228243"><ele>1295.0</ele><time>2026-04-18T08:29:32.134Z</time></trkpt><trkpt lat="44.1083023" lon="7.9227639"><ele>1304.0</ele><time>2026-04-18T08:29:33.135Z</time></trkpt><trkpt lat="44.1084504" lon="7.92269"><ele>1313.0</ele><time>2026-04-18T08:29:34.135Z</time></trkpt><trkpt lat="44.1085913" lon="7.9225914"><ele>1312.5</ele><time>2026-04-18T08:29:35.135Z</time></trkpt><trkpt lat="44.1087154" lon="7.9225011"><ele>1312.0</ele><time>2026-04-18T08:29:36.135Z</time></trkpt><trkpt lat="44.1088402" lon="7.9224357"><ele>1311.5</ele><time>2026-04-18T08:29:37.135Z</time></trkpt><trkpt lat="44.1089789" lon="7.9224067"><ele>1311.0</ele><time>2026-04-18T08:29:38.135Z</time></trkpt><trkpt lat="44.109123" lon="7.9224123"><ele>1311.0</ele><time>2026-04-18T08:29:39.135Z</time></trkpt><trkpt lat="44.1092485" lon="7.9224305"><ele>1311.0</ele><time>2026-04-18T08:29:40.135Z</time></trkpt><trkpt lat="44.1093515" lon="7.9224639"><ele>1311.0</ele><time>2026-04-18T08:29:41.135Z</time></trkpt><trkpt lat="44.1094461" lon="7.9225294"><ele>1311.0</ele><time>2026-04-18T08:29:42.135Z</time></trkpt><trkpt lat="44.1095077" lon="7.92263"><ele>1311.0</ele><time>2026-04-18T08:29:43.135Z</time></trkpt><trkpt lat="44.1095194" lon="7.9227387"><ele>1313.3333333333333</ele><time>2026-04-18T08:29:44.135Z</time></trkpt><trkpt lat="44.1094815" lon="7.9228138"><ele>1315.6666666666667</ele><time>2026-04-18T08:29:45.135Z</time></trkpt><trkpt lat="44.1094077" lon="7.922849"><ele>1318.0</ele><time>2026-04-18T08:29:46.134Z</time></trkpt><trkpt lat="44.1093292" lon="7.9228304"><ele>1320.3333333333335</ele><time>2026-04-18T08:29:47.135Z</time></trkpt><trkpt lat="44.1092511" lon="7.9227699"><ele>1322.6666666666667</ele><time>2026-04-18T08:29:48.135Z</time></trkpt><trkpt lat="44.109177" lon="7.9226941"><ele>1325.0</ele><time>2026-04-18T08:29:49.135Z</time></trkpt><trkpt lat="44.1090799" lon="7.9226478"><ele>1322.0</ele><time>2026-04-18T08:29:50.135Z</time></trkpt><trkpt lat="44.1089854" lon="7.9226764"><ele>1319.0</ele><time>2026-04-18T08:29:51.135Z</time></trkpt><trkpt lat="44.1088698" lon="7.9227381"><ele>1316.0</ele><time>2026-04-18T08:29:52.135Z</time></trkpt><trkpt lat="44.1087553" lon="7.9228412"><ele>1313.0</ele><time>2026-04-18T08:29:53.134Z</time></trkpt><trkpt lat="44.1086536" lon="7.9229624"><ele>1313.0</ele><time>2026-04-18T08:29:54.135Z</time></trkpt><trkpt lat="44.1085763" lon="7.9231018"><ele>1313.0</ele><time>2026-04-18T08:29:55.135Z</time></trkpt><trkpt lat="44.1085185" lon="7.9232885"><ele>1313.0</ele><time>2026-04-18T08:29:56.135Z</time></trkpt><trkpt lat="44.1084754" lon="7.9234957"><ele>1313.0</ele><time>2026-04-18T08:29:57.134Z</time></trkpt><trkpt lat="44.1084446" lon="7.9237246"><ele>1315.6666666666667</ele><time>2026-04-18T08:29:58.135Z</time></trkpt><trkpt lat="44.108402" lon="7.9239489"><ele>1318.3333333333333</ele><time>2026-04-18T08:29:59.135Z</time></trkpt><trkpt lat="44.1083675" lon="7.9241623"><ele>1321.0</ele><time>2026-04-18T08:30:00.134Z</time></trkpt><trkpt lat="44.1083411" lon="7.9243508"><ele>1321.0</ele><time>2026-04-18T08:30:01.134Z</time></trkpt><trkpt lat="44.108325" lon="7.924516"><ele>1321.0</ele><time>2026-04-18T08:30:02.135Z</time></trkpt><trkpt lat="44.1083352" lon="7.92466"><ele>1321.0</ele><time>2026-04-18T08:30:03.135Z</time></trkpt><trkpt lat="44.1083813" lon="7.9247961"><ele>1321.0</ele><time>2026-04-18T08:30:04.135Z</time></trkpt><trkpt lat="44.1084697" lon="7.924889"><ele>1321.0</ele><time>2026-04-18T08:30:05.136Z</time></trkpt><trkpt lat="44.1085964" lon="7.9249462"><ele>1321.0</ele><time>2026-04-18T08:30:06.136Z</time></trkpt><trkpt lat="44.108736" lon="7.9249718"><ele>1321.0</ele><time>2026-04-18T08:30:07.136Z</time></trkpt><trkpt lat="44.1088667" lon="7.9249802"><ele>1321.0</ele><time>2026-04-18T08:30:08.136Z</time></trkpt><trkpt lat="44.1089922" lon="7.9250216"><ele>1321.0</ele><time>2026-04-18T08:30:09.136Z</time></trkpt><trkpt lat="44.109084" lon="7.9251091"><ele>1326.25</ele><time>2026-04-18T08:30:10.136Z</time></trkpt><trkpt lat="44.1091364" lon="7.9252309"><ele>1331.5</ele><time>2026-04-18T08:30:11.136Z</time></trkpt><trkpt lat="44.1091396" lon="7.9253807"><ele>1336.75</ele><time>2026-04-18T08:30:12.136Z</time></trkpt><trkpt lat="44.1091452" lon="7.92555"><ele>1342.0</ele><time>2026-04-18T08:30:13.135Z</time></trkpt><trkpt lat="44.1091741" lon="7.9257356"><ele>1342.75</ele><time>2026-04-18T08:30:14.136Z</time></trkpt><trkpt lat="44.1092349" lon="7.9259241"><ele>1343.5</ele><time>2026-04-18T08:30:15.136Z</time></trkpt><trkpt lat="44.1093076" lon="7.92611"><ele>1344.25</ele><time>2026-04-18T08:30:16.136Z</time></trkpt><trkpt lat="44.1093708" lon="7.9262964"><ele>1345.0</ele><time>2026-04-18T08:30:17.136Z</time></trkpt><trkpt lat="44.1094121" lon="7.926495"><ele>1345.0</ele><time>2026-04-18T08:30:18.136Z</time></trkpt><trkpt lat="44.1094169" lon="7.9266925"><ele>1345.0</ele><time>2026-04-18T08:30:19.135Z</time></trkpt><trkpt lat="44.1093912" lon="7.9268909"><ele>1345.0</ele><time>2026-04-18T08:30:20.136Z</time></trkpt><trkpt lat="44.1093285" lon="7.9270791"><ele>1345.0</ele><time>2026-04-18T08:30:21.136Z</time></trkpt><trkpt lat="44.1092448" lon="7.9272443"><ele>1342.75</ele><time>2026-04-18T08:30:22.135Z</time></trkpt><trkpt lat="44.1091408" lon="7.9273832"><ele>1340.5</ele><time>2026-04-18T08:30:23.136Z</time></trkpt><trkpt lat="44.1090242" lon="7.9274981"><ele>1338.25</ele><time>2026-04-18T08:30:24.135Z</time></trkpt><trkpt lat="44.1089018" lon="7.9276017"><ele>1336.0</ele><time>2026-04-18T08:30:25.135Z</time></trkpt><trkpt lat="44.1087891" lon="7.9277272"><ele>1343.3333333333333</ele><time>2026-04-18T08:30:26.136Z</time></trkpt><trkpt lat="44.1086799" lon="7.927881"><ele>1350.6666666666667</ele><time>2026-04-18T08:30:27.136Z</time></trkpt><trkpt lat="44.1085753" lon="7.9280609"><ele>1358.0</ele><time>2026-04-18T08:30:28.136Z</time></trkpt><trkpt lat="44.108474" lon="7.9282442"><ele>1362.3333333333335</ele><time>2026-04-18T08:30:29.135Z</time></trkpt><trkpt lat="44.1083887" lon="7.9284355"><ele>1366.6666666666667</ele><time>2026-04-18T08:30:30.136Z</time></trkpt><trkpt lat="44.1083177" lon="7.9286411"><ele>1371.0</ele><time>2026-04-18T08:30:31.135Z</time></trkpt><trkpt lat="44.1082696" lon="7.9288555"><ele>1370.25</ele><time>2026-04-18T08:30:32.136Z</time></trkpt><trkpt lat="44.1082279" lon="7.9290511"><ele>1369.5</ele><time>2026-04-18T08:30:33.135Z</time></trkpt><trkpt lat="44.1081933" lon="7.9292186"><ele>1368.75</ele><time>2026-04-18T08:30:34.136Z</time></trkpt><trkpt lat="44.1081611" lon="7.9293608"><ele>1368.0</ele><time>2026-04-18T08:30:35.136Z</time></trkpt><trkpt lat="44.1081371" lon="7.9294765"><ele>1368.0</ele><time>2026-04-18T08:30:36.136Z</time></trkpt><trkpt lat="44.1081356" lon="7.9295852"><ele>1368.0</ele><time>2026-04-18T08:30:37.136Z</time></trkpt><trkpt lat="44.1081671" lon="7.9296916"><ele>1368.0</ele><time>2026-04-18T08:30:38.136Z</time></trkpt><trkpt lat="44.1082321" lon="7.9297919"><ele>1368.0</ele><time>2026-04-18T08:30:39.136Z</time></trkpt><trkpt lat="44.1083142" lon="7.9298464"><ele>1368.0</ele><time>2026-04-18T08:30:40.136Z</time></trkpt><trkpt lat="44.1084011" lon="7.9298414"><ele>1368.0</ele><time>2026-04-18T08:30:41.136Z</time></trkpt><trkpt lat="44.1084992" lon="7.9297867"><ele>1369.5</ele><time>2026-04-18T08:30:42.135Z</time></trkpt><trkpt lat="44.1085835" lon="7.929678"><ele>1371.0</ele><time>2026-04-18T08:30:43.136Z</time></trkpt><trkpt lat="44.1086866" lon="7.9295612"><ele>1372.5</ele><time>2026-04-18T08:30:44.135Z</time></trkpt><trkpt lat="44.108804" lon="7.9294372"><ele>1374.0</ele><time>2026-04-18T08:30:45.135Z</time></trkpt><trkpt lat="44.1089288" lon="7.9293112"><ele>1374.6666666666667</ele><time>2026-04-18T08:30:46.136Z</time></trkpt><trkpt lat="44.1090595" lon="7.9291965"><ele>1375.3333333333335</ele><time>2026-04-18T08:30:47.136Z</time></trkpt><trkpt lat="44.1092105" lon="7.9291119"><ele>1376.0</ele><time>2026-04-18T08:30:48.136Z</time></trkpt><trkpt lat="44.1093708" lon="7.9290834"><ele>1376.0</ele><time>2026-04-18T08:30:49.135Z</time></trkpt><trkpt lat="44.1095244" lon="7.9290285"><ele>1376.0</ele><time>2026-04-18T08:30:50.136Z</time></trkpt><trkpt lat="44.1096788" lon="7.9289381"><ele>1376.0</ele><time>2026-04-18T08:30:51.136Z</time></trkpt><trkpt lat="44.1098155" lon="7.9287978"><ele>1376.0</ele><time>2026-04-18T08:30:52.136Z</time></trkpt><trkpt lat="44.1099522" lon="7.9286406"><ele>1376.0</ele><time>2026-04-18T08:30:53.136Z</time></trkpt><trkpt lat="44.1101024" lon="7.9284828"><ele>1376.0</ele><time>2026-04-18T08:30:54.136Z</time></trkpt><trkpt lat="44.110263" lon="7.928365"><ele>1376.0</ele><time>2026-04-18T08:30:55.136Z</time></trkpt><trkpt lat="44.1104232" lon="7.9282557"><ele>1376.0</ele><time>2026-04-18T08:30:56.136Z</time></trkpt><trkpt lat="44.1105748" lon="7.9281413"><ele>1376.0</ele><time>2026-04-18T08:30:57.136Z</time></trkpt><trkpt lat="44.1107139" lon="7.9280318"><ele>1369.5</ele><time>2026-04-18T08:30:58.136Z</time></trkpt><trkpt lat="44.1108538" lon="7.9279504"><ele>1363.0</ele><time>2026-04-18T08:30:59.136Z</time></trkpt><trkpt lat="44.1109949" lon="7.9279315"><ele>1356.5</ele><time>2026-04-18T08:31:00.135Z</time></trkpt><trkpt lat="44.1111362" lon="7.9279618"><ele>1350.0</ele><time>2026-04-18T08:31:01.135Z</time></trkpt><trkpt lat="44.111279" lon="7.9280379"><ele>1350.0</ele><time>2026-04-18T08:31:02.136Z</time></trkpt><trkpt lat="44.1114176" lon="7.9281589"><ele>1350.0</ele><time>2026-04-18T08:31:03.136Z</time></trkpt><trkpt lat="44.1115519" lon="7.9282979"><ele>1350.0</ele><time>2026-04-18T08:31:04.135Z</time></trkpt><trkpt lat="44.1116774" lon="7.9284182"><ele>1342.75</ele><time>2026-04-18T08:31:05.136Z</time></trkpt><trkpt lat="44.111793" lon="7.9285038"><ele>1335.5</ele><time>2026-04-18T08:31:06.136Z</time></trkpt><trkpt lat="44.111903" lon="7.9285241"><ele>1328.25</ele><time>2026-04-18T08:31:07.136Z</time></trkpt><trkpt lat="44.1120201" lon="7.9284911"><ele>1321.0</ele><time>2026-04-18T08:31:08.136Z</time></trkpt><trkpt lat="44.1121261" lon="7.9284088"><ele>1327.0</ele><time>2026-04-18T08:31:09.135Z</time></trkpt><trkpt lat="44.1122461" lon="7.9282866"><ele>1333.0</ele><time>2026-04-18T08:31:10.135Z</time></trkpt><trkpt lat="44.1123675" lon="7.928153"><ele>1339.0</ele><time>2026-04-18T08:31:11.136Z</time></trkpt><trkpt lat="44.1124789" lon="7.9280286"><ele>1345.0</ele><time>2026-04-18T08:31:12.136Z</time></trkpt><trkpt lat="44.112584" lon="7.9279213"><ele>1345.0</ele><time>2026-04-18T08:31:13.136Z</time></trkpt><trkpt lat="44.1126918" lon="7.9278427"><ele>1345.0</ele><time>2026-04-18T08:31:14.136Z</time></trkpt><trkpt lat="44.1128129" lon="7.9277958"><ele>1345.0</ele><time>2026-04-18T08:31:15.136Z</time></trkpt><trkpt lat="44.1129317" lon="7.9278012"><ele>1345.0</ele><time>2026-04-18T08:31:16.136Z</time></trkpt><trkpt lat="44.1130473" lon="7.9278746"><ele>1345.0</ele><time>2026-04-18T08:31:17.135Z</time></trkpt><trkpt lat="44.1131459" lon="7.9279981"><ele>1345.0</ele><time>2026-04-18T08:31:18.136Z</time></trkpt><trkpt lat="44.1132275" lon="7.9281491"><ele>1345.0</ele><time>2026-04-18T08:31:19.136Z</time></trkpt><trkpt lat="44.1133078" lon="7.9282941"><ele>1345.0</ele><time>2026-04-18T08:31:20.135Z</time></trkpt><trkpt lat="44.1134209" lon="7.9283938"><ele>1337.75</ele><time>2026-04-18T08:31:21.136Z</time></trkpt><trkpt lat="44.1135556" lon="7.9284536"><ele>1330.5</ele><time>2026-04-18T08:31:22.136Z</time></trkpt><trkpt lat="44.1136941" lon="7.928529"><ele>1323.25</ele><time>2026-04-18T08:31:23.136Z</time></trkpt><trkpt lat="44.113818" lon="7.9286452"><ele>1316.0</ele><time>2026-04-18T08:31:24.136Z</time></trkpt><trkpt lat="44.1139256" lon="7.9288131"><ele>1316.0</ele><time>2026-04-18T08:31:25.136Z</time></trkpt><trkpt lat="44.1140301" lon="7.9289915"><ele>1316.0</ele><time>2026-04-18T08:31:26.135Z</time></trkpt><trkpt lat="44.1141187" lon="7.9291763"><ele>1316.0</ele><time>2026-04-18T08:31:27.135Z</time></trkpt><trkpt lat="44.1141764" lon="7.9293791"><ele>1317.0</ele><time>2026-04-18T08:31:28.136Z</time></trkpt><trkpt lat="44.1142065" lon="7.9296141"><ele>1318.0</ele><time>2026-04-18T08:31:29.136Z</time></trkpt><trkpt lat="44.1142371" lon="7.9298712"><ele>1319.0</ele><time>2026-04-18T08:31:30.136Z</time></trkpt><trkpt lat="44.1142751" lon="7.9301253"><ele>1312.6666666666667</ele><time>2026-04-18T08:31:31.136Z</time></trkpt><trkpt lat="44.1143311" lon="7.9303817"><ele>1306.3333333333333</ele><time>2026-04-18T08:31:32.136Z</time></trkpt><trkpt lat="44.1143913" lon="7.9306252"><ele>1300.0</ele><time>2026-04-18T08:31:33.136Z</time></trkpt><trkpt lat="44.1144544" lon="7.9308751"><ele>1294.3333333333333</ele><time>2026-04-18T08:31:34.135Z</time></trkpt><trkpt lat="44.1145173" lon="7.9311222"><ele>1288.6666666666667</ele><time>2026-04-18T08:31:35.136Z</time></trkpt><trkpt lat="44.114594" lon="7.9313388"><ele>1283.0</ele><time>2026-04-18T08:31:36.136Z</time></trkpt><trkpt lat="44.1146979" lon="7.9315255"><ele>1283.0</ele><time>2026-04-18T08:31:37.136Z</time></trkpt><trkpt lat="44.1148259" lon="7.9316768"><ele>1283.0</ele><time>2026-04-18T08:31:38.135Z</time></trkpt><trkpt lat="44.1149748" lon="7.9318222"><ele>1283.0</ele><time>2026-04-18T08:31:39.136Z</time></trkpt><trkpt lat="44.1151093" lon="7.9319893"><ele>1284.6666666666667</ele><time>2026-04-18T08:31:40.136Z</time></trkpt><trkpt lat="44.1152278" lon="7.9321868"><ele>1286.3333333333333</ele><time>2026-04-18T08:31:41.136Z</time></trkpt><trkpt lat="44.115343" lon="7.9323796"><ele>1288.0</ele><time>2026-04-18T08:31:42.136Z</time></trkpt><trkpt lat="44.1154735" lon="7.9325509"><ele>1287.6666666666665</ele><time>2026-04-18T08:31:43.136Z</time></trkpt><trkpt lat="44.1156173" lon="7.9326805"><ele>1287.3333333333333</ele><time>2026-04-18T08:31:44.136Z</time></trkpt><trkpt lat="44.1157607" lon="7.9327741"><ele>1287.0</ele><time>2026-04-18T08:31:45.136Z</time></trkpt><trkpt lat="44.1158804" lon="7.9328931"><ele>1287.0</ele><time>2026-04-18T08:31:46.136Z</time></trkpt><trkpt lat="44.1159806" lon="7.9330466"><ele>1287.0</ele><time>2026-04-18T08:31:47.135Z</time></trkpt><trkpt lat="44.116052" lon="7.9332336"><ele>1287.0</ele><time>2026-04-18T08:31:48.135Z</time></trkpt><trkpt lat="44.1160921" lon="7.9334467"><ele>1284.75</ele><time>2026-04-18T08:31:49.136Z</time></trkpt><trkpt lat="44.1161042" lon="7.9336421"><ele>1282.5</ele><time>2026-04-18T08:31:50.136Z</time></trkpt><trkpt lat="44.1160836" lon="7.9338127"><ele>1280.25</ele><time>2026-04-18T08:31:51.136Z</time></trkpt><trkpt lat="44.1160138" lon="7.9339723"><ele>1278.0</ele><time>2026-04-18T08:31:52.136Z</time></trkpt><trkpt lat="44.1159272" lon="7.9341235"><ele>1276.0</ele><time>2026-04-18T08:31:53.136Z</time></trkpt><trkpt lat="44.115862" lon="7.9342841"><ele>1274.0</ele><time>2026-04-18T08:31:54.136Z</time></trkpt><trkpt lat="44.1158284" lon="7.9344599"><ele>1272.0</ele><time>2026-04-18T08:31:55.136Z</time></trkpt><trkpt lat="44.1158389" lon="7.9346554"><ele>1270.0</ele><time>2026-04-18T08:31:56.136Z</time></trkpt><trkpt lat="44.1159015" lon="7.9348585"><ele>1265.0</ele><time>2026-04-18T08:31:57.136Z</time></trkpt><trkpt lat="44.1159856" lon="7.9350785"><ele>1260.0</ele><time>2026-04-18T08:31:58.136Z</time></trkpt><trkpt lat="44.1160589" lon="7.9353119"><ele>1255.0</ele><time>2026-04-18T08:31:59.136Z</time></trkpt><trkpt lat="44.1161258" lon="7.9355462"><ele>1255.0</ele><time>2026-04-18T08:32:00.135Z</time></trkpt><trkpt lat="44.1161964" lon="7.9357864"><ele>1255.0</ele><time>2026-04-18T08:32:01.136Z</time></trkpt><trkpt lat="44.1162585" lon="7.9360205"><ele>1255.0</ele><time>2026-04-18T08:32:02.136Z</time></trkpt><trkpt lat="44.1163168" lon="7.9362425"><ele>1253.0</ele><time>2026-04-18T08:32:03.136Z</time></trkpt><trkpt lat="44.1163872" lon="7.9364486"><ele>1251.0</ele><time>2026-04-18T08:32:04.136Z</time></trkpt><trkpt lat="44.1164854" lon="7.9366231"><ele>1249.0</ele><time>2026-04-18T08:32:05.136Z</time></trkpt><trkpt lat="44.1166023" lon="7.9367678"><ele>1249.0</ele><time>2026-04-18T08:32:06.136Z</time></trkpt><trkpt lat="44.1167109" lon="7.9369263"><ele>1249.0</ele><time>2026-04-18T08:32:07.135Z</time></trkpt><trkpt lat="44.1167948" lon="7.9371271"><ele>1249.0</ele><time>2026-04-18T08:32:08.136Z</time></trkpt><trkpt lat="44.1168577" lon="7.937344"><ele>1244.0</ele><time>2026-04-18T08:32:09.136Z</time></trkpt><trkpt lat="44.1169282" lon="7.9375683"><ele>1239.0</ele><time>2026-04-18T08:32:10.136Z</time></trkpt><trkpt lat="44.1170048" lon="7.9377739"><ele>1234.0</ele><time>2026-04-18T08:32:11.136Z</time></trkpt><trkpt lat="44.1170789" lon="7.9379702"><ele>1234.0</ele><time>2026-04-18T08:32:12.135Z</time></trkpt><trkpt lat="44.1171245" lon="7.9381701"><ele>1234.0</ele><time>2026-04-18T08:32:13.136Z</time></trkpt><trkpt lat="44.1171358" lon="7.9384024"><ele>1234.0</ele><time>2026-04-18T08:32:14.136Z</time></trkpt><trkpt lat="44.1171209" lon="7.938664"><ele>1231.3333333333333</ele><time>2026-04-18T08:32:15.136Z</time></trkpt><trkpt lat="44.1170847" lon="7.9389317"><ele>1228.6666666666667</ele><time>2026-04-18T08:32:16.135Z</time></trkpt><trkpt lat="44.117027" lon="7.9391951"><ele>1226.0</ele><time>2026-04-18T08:32:17.136Z</time></trkpt><trkpt lat="44.1169603" lon="7.9394385"><ele>1225.5</ele><time>2026-04-18T08:32:18.135Z</time></trkpt><trkpt lat="44.1168991" lon="7.9396456"><ele>1225.0</ele><time>2026-04-18T08:32:19.136Z</time></trkpt><trkpt lat="44.1168642" lon="7.9398152"><ele>1224.5</ele><time>2026-04-18T08:32:20.136Z</time></trkpt><trkpt lat="44.1168622" lon="7.939979"><ele>1224.0</ele><time>2026-04-18T08:32:21.136Z</time></trkpt><trkpt lat="44.1169204" lon="7.9401389"><ele>1222.5</ele><time>2026-04-18T08:32:22.136Z</time></trkpt><trkpt lat="44.1170219" lon="7.9402397"><ele>1221.0</ele><time>2026-04-18T08:32:23.136Z</time></trkpt><trkpt lat="44.1171574" lon="7.9402983"><ele>1219.5</ele><time>2026-04-18T08:32:24.136Z</time></trkpt><trkpt lat="44.1173098" lon="7.9403216"><ele>1218.0</ele><time>2026-04-18T08:32:25.135Z</time></trkpt><trkpt lat="44.1174707" lon="7.9403422"><ele>1218.0</ele><time>2026-04-18T08:32:26.136Z</time></trkpt><trkpt lat="44.1176314" lon="7.9403576"><ele>1218.0</ele><time>2026-04-18T08:32:27.135Z</time></trkpt><trkpt lat="44.1177948" lon="7.9403837"><ele>1218.0</ele><time>2026-04-18T08:32:28.136Z</time></trkpt><trkpt lat="44.1179383" lon="7.9404267"><ele>1218.0</ele><time>2026-04-18T08:32:29.136Z</time></trkpt><trkpt lat="44.1180718" lon="7.9405337"><ele>1218.0</ele><time>2026-04-18T08:32:30.135Z</time></trkpt><trkpt lat="44.1181799" lon="7.9407045"><ele>1218.0</ele><time>2026-04-18T08:32:31.136Z</time></trkpt><trkpt lat="44.1182859" lon="7.9408944"><ele>1217.6666666666667</ele><time>2026-04-18T08:32:32.136Z</time></trkpt><trkpt lat="44.1183916" lon="7.9410723"><ele>1217.3333333333335</ele><time>2026-04-18T08:32:33.135Z</time></trkpt><trkpt lat="44.1185047" lon="7.9412259"><ele>1217.0</ele><time>2026-04-18T08:32:34.136Z</time></trkpt><trkpt lat="44.1186386" lon="7.9413401"><ele>1217.0</ele><time>2026-04-18T08:32:35.136Z</time></trkpt><trkpt lat="44.118792" lon="7.9414448"><ele>1217.0</ele><time>2026-04-18T08:32:36.136Z</time></trkpt><trkpt lat="44.118936" lon="7.9415435"><ele>1217.0</ele><time>2026-04-18T08:32:37.136Z</time></trkpt><trkpt lat="44.1190612" lon="7.9416381"><ele>1217.25</ele><time>2026-04-18T08:32:38.135Z</time></trkpt><trkpt lat="44.1191604" lon="7.941763"><ele>1217.5</ele><time>2026-04-18T08:32:39.136Z</time></trkpt><trkpt lat="44.1192258" lon="7.9419387"><ele>1217.75</ele><time>2026-04-18T08:32:40.135Z</time></trkpt><trkpt lat="44.1192584" lon="7.9421572"><ele>1218.0</ele><time>2026-04-18T08:32:41.136Z</time></trkpt><trkpt lat="44.1192745" lon="7.9423903"><ele>1216.6666666666667</ele><time>2026-04-18T08:32:42.136Z</time></trkpt><trkpt lat="44.1192926" lon="7.942644"><ele>1215.3333333333335</ele><time>2026-04-18T08:32:43.136Z</time></trkpt><trkpt lat="44.1193" lon="7.9429105"><ele>1214.0</ele><time>2026-04-18T08:32:44.136Z</time></trkpt><trkpt lat="44.11927" lon="7.943192"><ele>1215.6666666666667</ele><time>2026-04-18T08:32:45.136Z</time></trkpt><trkpt lat="44.1192072" lon="7.9434736"><ele>1217.3333333333333</ele><time>2026-04-18T08:32:46.136Z</time></trkpt><trkpt lat="44.1191258" lon="7.9437485"><ele>1219.0</ele><time>2026-04-18T08:32:47.135Z</time></trkpt><trkpt lat="44.1190516" lon="7.9440139"><ele>1206.0</ele><time>2026-04-18T08:32:48.135Z</time></trkpt><trkpt lat="44.1189753" lon="7.9442746"><ele>1193.0</ele><time>2026-04-18T08:32:49.136Z</time></trkpt><trkpt lat="44.1189108" lon="7.944533"><ele>1180.0</ele><time>2026-04-18T08:32:50.136Z</time></trkpt><trkpt lat="44.1188686" lon="7.9447826"><ele>1180.0</ele><time>2026-04-18T08:32:51.136Z</time></trkpt><trkpt lat="44.1188604" lon="7.9450251"><ele>1180.0</ele><time>2026-04-18T08:32:52.136Z</time></trkpt><trkpt lat="44.1188746" lon="7.9452822"><ele>1180.0</ele><time>2026-04-18T08:32:53.136Z</time></trkpt><trkpt lat="44.1189248" lon="7.9455508"><ele>1180.0</ele><time>2026-04-18T08:32:54.135Z</time></trkpt><trkpt lat="44.1189734" lon="7.9457883"><ele>1180.0</ele><time>2026-04-18T08:32:55.136Z</time></trkpt><trkpt lat="44.1190217" lon="7.9460202"><ele>1180.0</ele><time>2026-04-18T08:32:56.136Z</time></trkpt><trkpt lat="44.1190773" lon="7.9462282"><ele>1180.0</ele><time>2026-04-18T08:32:57.136Z</time></trkpt><trkpt lat="44.1191719" lon="7.946413"><ele>1180.0</ele><time>2026-04-18T08:32:58.136Z</time></trkpt><trkpt lat="44.1192939" lon="7.9465846"><ele>1180.0</ele><time>2026-04-18T08:32:59.137Z</time></trkpt><trkpt lat="44.1194308" lon="7.9467632"><ele>1180.0</ele><time>2026-04-18T08:33:00.136Z</time></trkpt><trkpt lat="44.1195708" lon="7.9469646"><ele>1180.0</ele><time>2026-04-18T08:33:01.136Z</time></trkpt><trkpt lat="44.1197014" lon="7.9471756"><ele>1180.0</ele><time>2026-04-18T08:33:02.137Z</time></trkpt><trkpt lat="44.1198238" lon="7.9473814"><ele>1183.3333333333333</ele><time>2026-04-18T08:33:03.137Z</time></trkpt><trkpt lat="44.1199445" lon="7.9475773"><ele>1186.6666666666667</ele><time>2026-04-18T08:33:04.137Z</time></trkpt><trkpt lat="44.1200525" lon="7.9477704"><ele>1190.0</ele><time>2026-04-18T08:33:05.137Z</time></trkpt><trkpt lat="44.1201343" lon="7.9479721"><ele>1190.0</ele><time>2026-04-18T08:33:06.137Z</time></trkpt><trkpt lat="44.120182" lon="7.9481906"><ele>1190.0</ele><time>2026-04-18T08:33:07.137Z</time></trkpt><trkpt lat="44.1201952" lon="7.9484289"><ele>1190.0</ele><time>2026-04-18T08:33:08.137Z</time></trkpt><trkpt lat="44.1201792" lon="7.9486752"><ele>1188.0</ele><time>2026-04-18T08:33:09.137Z</time></trkpt><trkpt lat="44.12017" lon="7.9489"><ele>1186.0</ele><time>2026-04-18T08:33:10.136Z</time></trkpt><trkpt lat="44.1201929" lon="7.9491364"><ele>1184.0</ele><time>2026-04-18T08:33:11.137Z</time></trkpt><trkpt lat="44.1202499" lon="7.9493597"><ele>1177.6666666666667</ele><time>2026-04-18T08:33:12.137Z</time></trkpt><trkpt lat="44.1203447" lon="7.9495607"><ele>1171.3333333333333</ele><time>2026-04-18T08:33:13.137Z</time></trkpt><trkpt lat="44.1204631" lon="7.9497622"><ele>1165.0</ele><time>2026-04-18T08:33:14.136Z</time></trkpt><trkpt lat="44.1205882" lon="7.9499604"><ele>1169.3333333333333</ele><time>2026-04-18T08:33:15.137Z</time></trkpt><trkpt lat="44.12069" lon="7.9501676"><ele>1173.6666666666667</ele><time>2026-04-18T08:33:16.137Z</time></trkpt><trkpt lat="44.1207848" lon="7.9503727"><ele>1178.0</ele><time>2026-04-18T08:33:17.137Z</time></trkpt><trkpt lat="44.1208688" lon="7.9505523"><ele>1178.0</ele><time>2026-04-18T08:33:18.137Z</time></trkpt><trkpt lat="44.12095" lon="7.9506963"><ele>1178.0</ele><time>2026-04-18T08:33:19.137Z</time></trkpt><trkpt lat="44.1210213" lon="7.9507982"><ele>1178.0</ele><time>2026-04-18T08:33:20.137Z</time></trkpt><trkpt lat="44.1210565" lon="7.9509086"><ele>1178.0</ele><time>2026-04-18T08:33:21.136Z</time></trkpt><trkpt lat="44.1210412" lon="7.951017"><ele>1178.0</ele><time>2026-04-18T08:33:22.136Z</time></trkpt><trkpt lat="44.1209772" lon="7.9510939"><ele>1174.6</ele><time>2026-04-18T08:33:23.137Z</time></trkpt><trkpt lat="44.1208805" lon="7.9510984"><ele>1171.1999999999998</ele><time>2026-04-18T08:33:24.136Z</time></trkpt><trkpt lat="44.1208083" lon="7.9510339"><ele>1167.8</ele><time>2026-04-18T08:33:25.137Z</time></trkpt><trkpt lat="44.1207601" lon="7.9508962"><ele>1164.3999999999999</ele><time>2026-04-18T08:33:26.137Z</time></trkpt><trkpt lat="44.1206985" lon="7.9507293"><ele>1161.0</ele><time>2026-04-18T08:33:27.137Z</time></trkpt><trkpt lat="44.1206227" lon="7.9505641"><ele>1155.0</ele><time>2026-04-18T08:33:28.137Z</time></trkpt><trkpt lat="44.1205113" lon="7.9503986"><ele>1149.0</ele><time>2026-04-18T08:33:29.137Z</time></trkpt><trkpt lat="44.1203792" lon="7.9502289"><ele>1143.0</ele><time>2026-04-18T08:33:30.137Z</time></trkpt><trkpt lat="44.1202409" lon="7.9500691"><ele>1142.3333333333333</ele><time>2026-04-18T08:33:31.136Z</time></trkpt><trkpt lat="44.1200849" lon="7.9499435"><ele>1141.6666666666665</ele><time>2026-04-18T08:33:32.137Z</time></trkpt><trkpt lat="44.1199194" lon="7.9498441"><ele>1141.0</ele><time>2026-04-18T08:33:33.137Z</time></trkpt><trkpt lat="44.1197542" lon="7.9497576"><ele>1141.0</ele><time>2026-04-18T08:33:34.137Z</time></trkpt><trkpt lat="44.1195986" lon="7.9496714"><ele>1141.0</ele><time>2026-04-18T08:33:35.136Z</time></trkpt><trkpt lat="44.1194633" lon="7.9495666"><ele>1141.0</ele><time>2026-04-18T08:33:36.137Z</time></trkpt><trkpt lat="44.1193549" lon="7.9494486"><ele>1141.0</ele><time>2026-04-18T08:33:37.137Z</time></trkpt><trkpt lat="44.1192796" lon="7.9492876"><ele>1141.0</ele><time>2026-04-18T08:33:38.137Z</time></trkpt><trkpt lat="44.1192473" lon="7.9491052"><ele>1141.0</ele><time>2026-04-18T08:33:39.137Z</time></trkpt><trkpt lat="44.1192581" lon="7.9489163"><ele>1141.0</ele><time>2026-04-18T08:33:40.137Z</time></trkpt><trkpt lat="44.1193019" lon="7.9487476"><ele>1143.0</ele><time>2026-04-18T08:33:41.137Z</time></trkpt><trkpt lat="44.1193596" lon="7.9485939"><ele>1145.0</ele><time>2026-04-18T08:33:42.136Z</time></trkpt><trkpt lat="44.1193895" lon="7.9484399"><ele>1147.0</ele><time>2026-04-18T08:33:43.136Z</time></trkpt><trkpt lat="44.1193466" lon="7.9483186"><ele>1149.0</ele><time>2026-04-18T08:33:44.137Z</time></trkpt><trkpt lat="44.1192279" lon="7.9482653"><ele>1147.5</ele><time>2026-04-18T08:33:45.136Z</time></trkpt><trkpt lat="44.1191325" lon="7.9482614"><ele>1146.0</ele><time>2026-04-18T08:33:46.136Z</time></trkpt><trkpt lat="44.1190082" lon="7.9483092"><ele>1144.5</ele><time>2026-04-18T08:33:47.136Z</time></trkpt><trkpt lat="44.1188806" lon="7.9483585"><ele>1143.0</ele><time>2026-04-18T08:33:48.137Z</time></trkpt><trkpt lat="44.1187404" lon="7.9483698"><ele>1143.0</ele><time>2026-04-18T08:33:49.137Z</time></trkpt><trkpt lat="44.1186042" lon="7.9483324"><ele>1143.0</ele><time>2026-04-18T08:33:50.137Z</time></trkpt><trkpt lat="44.1184496" lon="7.9482483"><ele>1143.0</ele><time>2026-04-18T08:33:51.137Z</time></trkpt><trkpt lat="44.1182912" lon="7.9481304"><ele>1140.6666666666667</ele><time>2026-04-18T08:33:52.136Z</time></trkpt><trkpt lat="44.1181479" lon="7.9480168"><ele>1138.3333333333335</ele><time>2026-04-18T08:33:53.137Z</time></trkpt><trkpt lat="44.1179999" lon="7.9479229"><ele>1136.0</ele><time>2026-04-18T08:33:54.137Z</time></trkpt><trkpt lat="44.1178573" lon="7.9478814"><ele>1136.0</ele><time>2026-04-18T08:33:55.137Z</time></trkpt><trkpt lat="44.11772" lon="7.9478757"><ele>1136.0</ele><time>2026-04-18T08:33:56.137Z</time></trkpt><trkpt lat="44.1175816" lon="7.9478513"><ele>1136.0</ele><time>2026-04-18T08:33:57.137Z</time></trkpt><trkpt lat="44.1174382" lon="7.9477805"><ele>1136.0</ele><time>2026-04-18T08:33:58.137Z</time></trkpt><trkpt lat="44.1173096" lon="7.9476597"><ele>1129.3333333333335</ele><time>2026-04-18T08:33:59.137Z</time></trkpt><trkpt lat="44.1171726" lon="7.9475271"><ele>1122.6666666666667</ele><time>2026-04-18T08:34:00.137Z</time></trkpt><trkpt lat="44.1170444" lon="7.9474021"><ele>1116.0</ele><time>2026-04-18T08:34:01.136Z</time></trkpt><trkpt lat="44.1169411" lon="7.9472849"><ele>1116.0</ele><time>2026-04-18T08:34:02.137Z</time></trkpt><trkpt lat="44.1168755" lon="7.9471712"><ele>1116.0</ele><time>2026-04-18T08:34:03.137Z</time></trkpt><trkpt lat="44.1168673" lon="7.9470215"><ele>1116.0</ele><time>2026-04-18T08:34:04.137Z</time></trkpt><trkpt lat="44.1168781" lon="7.9468566"><ele>1116.0</ele><time>2026-04-18T08:34:05.136Z</time></trkpt><trkpt lat="44.1169046" lon="7.9466596"><ele>1115.6666666666667</ele><time>2026-04-18T08:34:06.137Z</time></trkpt><trkpt lat="44.1169263" lon="7.9463936"><ele>1115.3333333333335</ele><time>2026-04-18T08:34:07.136Z</time></trkpt><trkpt lat="44.1169478" lon="7.9461299"><ele>1115.0</ele><time>2026-04-18T08:34:08.137Z</time></trkpt><trkpt lat="44.1169771" lon="7.945866"><ele>1113.6666666666667</ele><time>2026-04-18T08:34:09.137Z</time></trkpt><trkpt lat="44.1169967" lon="7.9456288"><ele>1112.3333333333333</ele><time>2026-04-18T08:34:10.137Z</time></trkpt><trkpt lat="44.117008" lon="7.9453972"><ele>1111.0</ele><time>2026-04-18T08:34:11.136Z</time></trkpt><trkpt lat="44.1170328" lon="7.9451981"><ele>1109.0</ele><time>2026-04-18T08:34:12.136Z</time></trkpt><trkpt lat="44.1171033" lon="7.9450013"><ele>1107.0</ele><time>2026-04-18T08:34:13.137Z</time></trkpt><trkpt lat="44.1172009" lon="7.9448082"><ele>1105.0</ele><time>2026-04-18T08:34:14.136Z</time></trkpt><trkpt lat="44.1173008" lon="7.9446463"><ele>1105.0</ele><time>2026-04-18T08:34:15.137Z</time></trkpt><trkpt lat="44.1173924" lon="7.9444991"><ele>1105.0</ele><time>2026-04-18T08:34:16.136Z</time></trkpt><trkpt lat="44.117476" lon="7.9443831"><ele>1105.0</ele><time>2026-04-18T08:34:17.137Z</time></trkpt><trkpt lat="44.1175376" lon="7.9442721"><ele>1105.0</ele><time>2026-04-18T08:34:18.137Z</time></trkpt><trkpt lat="44.1175422" lon="7.9441469"><ele>1105.0</ele><time>2026-04-18T08:34:19.137Z</time></trkpt><trkpt lat="44.1174968" lon="7.9440403"><ele>1106.25</ele><time>2026-04-18T08:34:20.137Z</time></trkpt><trkpt lat="44.1174123" lon="7.9439352"><ele>1107.5</ele><time>2026-04-18T08:34:21.137Z</time></trkpt><trkpt lat="44.1173036" lon="7.9438176"><ele>1108.75</ele><time>2026-04-18T08:34:22.137Z</time></trkpt><trkpt lat="44.1171785" lon="7.9436912"><ele>1110.0</ele><time>2026-04-18T08:34:23.137Z</time></trkpt><trkpt lat="44.117036" lon="7.9435705"><ele>1110.0</ele><time>2026-04-18T08:34:24.137Z</time></trkpt><trkpt lat="44.1168875" lon="7.9435011"><ele>1110.0</ele><time>2026-04-18T08:34:25.137Z</time></trkpt><trkpt lat="44.116734" lon="7.943462"><ele>1110.0</ele><time>2026-04-18T08:34:26.137Z</time></trkpt><trkpt lat="44.1166123" lon="7.9434202"><ele>1110.0</ele><time>2026-04-18T08:34:27.137Z</time></trkpt><trkpt lat="44.1165116" lon="7.9433575"><ele>1109.6</ele><time>2026-04-18T08:34:28.137Z</time></trkpt><trkpt lat="44.1164372" lon="7.9432521"><ele>1109.2</ele><time>2026-04-18T08:34:29.137Z</time></trkpt><trkpt lat="44.116404" lon="7.943118"><ele>1108.8</ele><time>2026-04-18T08:34:30.137Z</time></trkpt><trkpt lat="44.1163977" lon="7.9429819"><ele>1108.4</ele><time>2026-04-18T08:34:31.137Z</time></trkpt><trkpt lat="44.1163826" lon="7.9428518"><ele>1108.0</ele><time>2026-04-18T08:34:32.136Z</time></trkpt><trkpt lat="44.1163445" lon="7.9427533"><ele>1108.0</ele><time>2026-04-18T08:34:33.136Z</time></trkpt><trkpt lat="44.11626" lon="7.9427075"><ele>1108.0</ele><time>2026-04-18T08:34:34.137Z</time></trkpt><trkpt lat="44.1161591" lon="7.9427274"><ele>1108.0</ele><time>2026-04-18T08:34:35.136Z</time></trkpt><trkpt lat="44.1160319" lon="7.9427997"><ele>1108.0</ele><time>2026-04-18T08:34:36.136Z</time></trkpt><trkpt lat="44.1158936" lon="7.9428809"><ele>1108.0</ele><time>2026-04-18T08:34:37.137Z</time></trkpt><trkpt lat="44.1157396" lon="7.9429506"><ele>1108.0</ele><time>2026-04-18T08:34:38.137Z</time></trkpt><trkpt lat="44.1155745" lon="7.9430123"><ele>1108.0</ele><time>2026-04-18T08:34:39.138Z</time></trkpt><trkpt lat="44.1154071" lon="7.943062"><ele>1111.0</ele><time>2026-04-18T08:34:40.137Z</time></trkpt><trkpt lat="44.115253" lon="7.9431416"><ele>1114.0</ele><time>2026-04-18T08:34:41.137Z</time></trkpt><trkpt lat="44.1151069" lon="7.9432567"><ele>1117.0</ele><time>2026-04-18T08:34:42.138Z</time></trkpt><trkpt lat="44.114975" lon="7.9433943"><ele>1115.0</ele><time>2026-04-18T08:34:43.138Z</time></trkpt><trkpt lat="44.1148817" lon="7.9435802"><ele>1113.0</ele><time>2026-04-18T08:34:44.138Z</time></trkpt><trkpt lat="44.1148072" lon="7.9437757"><ele>1111.0</ele><time>2026-04-18T08:34:45.137Z</time></trkpt><trkpt lat="44.1147385" lon="7.9439854"><ele>1111.0</ele><time>2026-04-18T08:34:46.138Z</time></trkpt><trkpt lat="44.1146431" lon="7.944184"><ele>1111.0</ele><time>2026-04-18T08:34:47.138Z</time></trkpt><trkpt lat="44.1145186" lon="7.9443625"><ele>1111.0</ele><time>2026-04-18T08:34:48.138Z</time></trkpt><trkpt lat="44.1143815" lon="7.9444931"><ele>1103.0</ele><time>2026-04-18T08:34:49.138Z</time></trkpt><trkpt lat="44.1142376" lon="7.9445986"><ele>1095.0</ele><time>2026-04-18T08:34:50.137Z</time></trkpt><trkpt lat="44.1140895" lon="7.9446666"><ele>1087.0</ele><time>2026-04-18T08:34:51.138Z</time></trkpt><trkpt lat="44.1139405" lon="7.9446835"><ele>1084.3333333333333</ele><time>2026-04-18T08:34:52.137Z</time></trkpt><trkpt lat="44.1137916" lon="7.9446501"><ele>1081.6666666666667</ele><time>2026-04-18T08:34:53.137Z</time></trkpt><trkpt lat="44.1136538" lon="7.9445645"><ele>1079.0</ele><time>2026-04-18T08:34:54.138Z</time></trkpt><trkpt lat="44.1135315" lon="7.9444325"><ele>1079.0</ele><time>2026-04-18T08:34:55.138Z</time></trkpt><trkpt lat="44.1134177" lon="7.9442436"><ele>1079.0</ele><time>2026-04-18T08:34:56.138Z</time></trkpt><trkpt lat="44.1133168" lon="7.9440337"><ele>1079.0</ele><time>2026-04-18T08:34:57.137Z</time></trkpt><trkpt lat="44.1132278" lon="7.9438246"><ele>1078.3333333333335</ele><time>2026-04-18T08:34:58.137Z</time></trkpt><trkpt lat="44.1131333" lon="7.9436153"><ele>1077.6666666666667</ele><time>2026-04-18T08:34:59.137Z</time></trkpt><trkpt lat="44.1130323" lon="7.9434265"><ele>1077.0</ele><time>2026-04-18T08:35:00.138Z</time></trkpt><trkpt lat="44.1129343" lon="7.9432548"><ele>1077.0</ele><time>2026-04-18T08:35:01.138Z</time></trkpt><trkpt lat="44.1128579" lon="7.9430778"><ele>1077.0</ele><time>2026-04-18T08:35:02.138Z</time></trkpt><trkpt lat="44.112828" lon="7.9429129"><ele>1077.0</ele><time>2026-04-18T08:35:03.138Z</time></trkpt><trkpt lat="44.1128326" lon="7.9427517"><ele>1077.0</ele><time>2026-04-18T08:35:04.138Z</time></trkpt><trkpt lat="44.1128286" lon="7.9426122"><ele>1077.0</ele><time>2026-04-18T08:35:05.138Z</time></trkpt><trkpt lat="44.1127981" lon="7.9425121"><ele>1077.0</ele><time>2026-04-18T08:35:06.138Z</time></trkpt><trkpt lat="44.1126834" lon="7.9425187"><ele>1077.0</ele><time>2026-04-18T08:35:08.138Z</time></trkpt><trkpt lat="44.1126246" lon="7.94259"><ele>1077.0</ele><time>2026-04-18T08:35:09.138Z</time></trkpt><trkpt lat="44.1125946" lon="7.942707"><ele>1077.0</ele><time>2026-04-18T08:35:10.138Z</time></trkpt><trkpt lat="44.1125821" lon="7.9428562"><ele>1077.0</ele><time>2026-04-18T08:35:11.138Z</time></trkpt><trkpt lat="44.1125997" lon="7.9430235"><ele>1077.0</ele><time>2026-04-18T08:35:12.138Z</time></trkpt><trkpt lat="44.1126496" lon="7.9431973"><ele>1077.0</ele><time>2026-04-18T08:35:13.138Z</time></trkpt><trkpt lat="44.112711" lon="7.9433611"><ele>1077.0</ele><time>2026-04-18T08:35:14.138Z</time></trkpt><trkpt lat="44.1127564" lon="7.9435438"><ele>1074.25</ele><time>2026-04-18T08:35:15.138Z</time></trkpt><trkpt lat="44.1127735" lon="7.9437385"><ele>1071.5</ele><time>2026-04-18T08:35:16.137Z</time></trkpt><trkpt lat="44.1127833" lon="7.9439427"><ele>1068.75</ele><time>2026-04-18T08:35:17.138Z</time></trkpt><trkpt lat="44.1128194" lon="7.9441555"><ele>1066.0</ele><time>2026-04-18T08:35:18.138Z</time></trkpt><trkpt lat="44.1128798" lon="7.9443706"><ele>1063.3333333333333</ele><time>2026-04-18T08:35:19.137Z</time></trkpt><trkpt lat="44.1129519" lon="7.9445806"><ele>1060.6666666666667</ele><time>2026-04-18T08:35:20.138Z</time></trkpt><trkpt lat="44.1130183" lon="7.9447899"><ele>1058.0</ele><time>2026-04-18T08:35:21.138Z</time></trkpt><trkpt lat="44.1130955" lon="7.9449815"><ele>1058.3333333333335</ele><time>2026-04-18T08:35:22.137Z</time></trkpt><trkpt lat="44.1131905" lon="7.9451551"><ele>1058.6666666666667</ele><time>2026-04-18T08:35:23.138Z</time></trkpt><trkpt lat="44.1132969" lon="7.9453106"><ele>1059.0</ele><time>2026-04-18T08:35:24.137Z</time></trkpt><trkpt lat="44.1134102" lon="7.945437"><ele>1059.0</ele><time>2026-04-18T08:35:25.138Z</time></trkpt><trkpt lat="44.1135399" lon="7.9455291"><ele>1059.0</ele><time>2026-04-18T08:35:26.137Z</time></trkpt><trkpt lat="44.1136894" lon="7.9455908"><ele>1059.0</ele><time>2026-04-18T08:35:27.137Z</time></trkpt><trkpt lat="44.1138442" lon="7.945637"><ele>1059.0</ele><time>2026-04-18T08:35:28.138Z</time></trkpt><trkpt lat="44.1140027" lon="7.9456668"><ele>1059.0</ele><time>2026-04-18T08:35:29.138Z</time></trkpt><trkpt lat="44.1141498" lon="7.9456787"><ele>1059.0</ele><time>2026-04-18T08:35:30.138Z</time></trkpt><trkpt lat="44.1142863" lon="7.9456591"><ele>1059.0</ele><time>2026-04-18T08:35:31.137Z</time></trkpt><trkpt lat="44.1144216" lon="7.9455974"><ele>1060.3333333333333</ele><time>2026-04-18T08:35:32.138Z</time></trkpt><trkpt lat="44.1145528" lon="7.9454957"><ele>1061.6666666666665</ele><time>2026-04-18T08:35:33.137Z</time></trkpt><trkpt lat="44.1146775" lon="7.9453598"><ele>1063.0</ele><time>2026-04-18T08:35:34.138Z</time></trkpt><trkpt lat="44.114801" lon="7.9452141"><ele>1064.25</ele><time>2026-04-18T08:35:35.138Z</time></trkpt><trkpt lat="44.1149205" lon="7.9450731"><ele>1065.5</ele><time>2026-04-18T08:35:36.137Z</time></trkpt><trkpt lat="44.1150346" lon="7.9449406"><ele>1066.75</ele><time>2026-04-18T08:35:37.138Z</time></trkpt><trkpt lat="44.1151371" lon="7.9448318"><ele>1068.0</ele><time>2026-04-18T08:35:38.138Z</time></trkpt><trkpt lat="44.1152382" lon="7.9447586"><ele>1068.0</ele><time>2026-04-18T08:35:39.138Z</time></trkpt><trkpt lat="44.1153545" lon="7.9447375"><ele>1068.0</ele><time>2026-04-18T08:35:40.138Z</time></trkpt><trkpt lat="44.1154733" lon="7.9447676"><ele>1068.0</ele><time>2026-04-18T08:35:41.138Z</time></trkpt><trkpt lat="44.1155737" lon="7.9448395"><ele>1068.0</ele><time>2026-04-18T08:35:42.137Z</time></trkpt><trkpt lat="44.1156388" lon="7.9449371"><ele>1068.0</ele><time>2026-04-18T08:35:43.138Z</time></trkpt><trkpt lat="44.1156632" lon="7.9450567"><ele>1062.75</ele><time>2026-04-18T08:35:44.138Z</time></trkpt><trkpt lat="44.1156376" lon="7.9451938"><ele>1057.5</ele><time>2026-04-18T08:35:45.138Z</time></trkpt><trkpt lat="44.1155833" lon="7.9453433"><ele>1052.25</ele><time>2026-04-18T08:35:46.137Z</time></trkpt><trkpt lat="44.1155233" lon="7.9455217"><ele>1047.0</ele><time>2026-04-18T08:35:47.138Z</time></trkpt><trkpt lat="44.11548" lon="7.9457469"><ele>1042.0</ele><time>2026-04-18T08:35:48.138Z</time></trkpt><trkpt lat="44.115441" lon="7.9459941"><ele>1037.0</ele><time>2026-04-18T08:35:49.138Z</time></trkpt><trkpt lat="44.1154055" lon="7.9462529"><ele>1032.0</ele><time>2026-04-18T08:35:50.138Z</time></trkpt><trkpt lat="44.1153768" lon="7.9465261"><ele>1032.6666666666667</ele><time>2026-04-18T08:35:51.138Z</time></trkpt><trkpt lat="44.1153455" lon="7.9468235"><ele>1033.3333333333335</ele><time>2026-04-18T08:35:52.138Z</time></trkpt><trkpt lat="44.1152974" lon="7.9471121"><ele>1034.0</ele><time>2026-04-18T08:35:53.138Z</time></trkpt><trkpt lat="44.1152313" lon="7.947369"><ele>1038.0</ele><time>2026-04-18T08:35:54.137Z</time></trkpt><trkpt lat="44.1151566" lon="7.9476044"><ele>1042.0</ele><time>2026-04-18T08:35:55.138Z</time></trkpt><trkpt lat="44.1150649" lon="7.9478144"><ele>1046.0</ele><time>2026-04-18T08:35:56.138Z</time></trkpt><trkpt lat="44.1149549" lon="7.9480004"><ele>1044.3333333333335</ele><time>2026-04-18T08:35:57.137Z</time></trkpt><trkpt lat="44.1148403" lon="7.9481648"><ele>1042.6666666666667</ele><time>2026-04-18T08:35:58.138Z</time></trkpt><trkpt lat="44.1147238" lon="7.9483087"><ele>1041.0</ele><time>2026-04-18T08:35:59.138Z</time></trkpt><trkpt lat="44.1145855" lon="7.9484196"><ele>1041.0</ele><time>2026-04-18T08:36:00.138Z</time></trkpt><trkpt lat="44.1144207" lon="7.9485101"><ele>1041.0</ele><time>2026-04-18T08:36:01.138Z</time></trkpt><trkpt lat="44.1142507" lon="7.9485988"><ele>1041.0</ele><time>2026-04-18T08:36:02.138Z</time></trkpt><trkpt lat="44.1140785" lon="7.9486827"><ele>1032.3333333333333</ele><time>2026-04-18T08:36:03.138Z</time></trkpt><trkpt lat="44.1139119" lon="7.9487667"><ele>1023.6666666666666</ele><time>2026-04-18T08:36:04.137Z</time></trkpt><trkpt lat="44.1137636" lon="7.948867"><ele>1015.0</ele><time>2026-04-18T08:36:05.138Z</time></trkpt><trkpt lat="44.1136307" lon="7.9489754"><ele>1015.0</ele><time>2026-04-18T08:36:06.138Z</time></trkpt><trkpt lat="44.1135258" lon="7.9490977"><ele>1015.0</ele><time>2026-04-18T08:36:07.138Z</time></trkpt><trkpt lat="44.1134465" lon="7.9492282"><ele>1015.0</ele><time>2026-04-18T08:36:08.138Z</time></trkpt><trkpt lat="44.1133999" lon="7.9493851"><ele>1015.0</ele><time>2026-04-18T08:36:09.138Z</time></trkpt><trkpt lat="44.1133825" lon="7.9495696"><ele>1015.25</ele><time>2026-04-18T08:36:10.138Z</time></trkpt><trkpt lat="44.1133791" lon="7.9497763"><ele>1015.5</ele><time>2026-04-18T08:36:11.138Z</time></trkpt><trkpt lat="44.1133706" lon="7.9499922"><ele>1015.75</ele><time>2026-04-18T08:36:12.138Z</time></trkpt><trkpt lat="44.1133676" lon="7.9501829"><ele>1016.0</ele><time>2026-04-18T08:36:13.138Z</time></trkpt><trkpt lat="44.1133902" lon="7.9503559"><ele>1014.25</ele><time>2026-04-18T08:36:14.138Z</time></trkpt><trkpt lat="44.1134453" lon="7.9505158"><ele>1012.5</ele><time>2026-04-18T08:36:15.138Z</time></trkpt><trkpt lat="44.1135348" lon="7.9506667"><ele>1010.75</ele><time>2026-04-18T08:36:16.138Z</time></trkpt><trkpt lat="44.1136536" lon="7.9508012"><ele>1009.0</ele><time>2026-04-18T08:36:17.139Z</time></trkpt><trkpt lat="44.113773" lon="7.9509349"><ele>1006.25</ele><time>2026-04-18T08:36:18.139Z</time></trkpt><trkpt lat="44.1138811" lon="7.9510669"><ele>1003.5</ele><time>2026-04-18T08:36:19.138Z</time></trkpt><trkpt lat="44.1139841" lon="7.9511661"><ele>1000.75</ele><time>2026-04-18T08:36:20.139Z</time></trkpt><trkpt lat="44.1141004" lon="7.9512235"><ele>998.0</ele><time>2026-04-18T08:36:21.138Z</time></trkpt><trkpt lat="44.1142208" lon="7.9512383"><ele>998.0</ele><time>2026-04-18T08:36:22.139Z</time></trkpt><trkpt lat="44.1143565" lon="7.9511909"><ele>998.0</ele><time>2026-04-18T08:36:23.139Z</time></trkpt><trkpt lat="44.1144987" lon="7.9511282"><ele>998.0</ele><time>2026-04-18T08:36:24.138Z</time></trkpt><trkpt lat="44.1146445" lon="7.9510645"><ele>998.0</ele><time>2026-04-18T08:36:25.139Z</time></trkpt><trkpt lat="44.1148045" lon="7.9510195"><ele>998.3333333333334</ele><time>2026-04-18T08:36:26.139Z</time></trkpt><trkpt lat="44.1149673" lon="7.9509888"><ele>998.6666666666667</ele><time>2026-04-18T08:36:27.139Z</time></trkpt><trkpt lat="44.1151176" lon="7.9509669"><ele>999.0</ele><time>2026-04-18T08:36:28.139Z</time></trkpt><trkpt lat="44.1152571" lon="7.9509449"><ele>999.0</ele><time>2026-04-18T08:36:29.139Z</time></trkpt><trkpt lat="44.1153812" lon="7.9509416"><ele>999.0000000000001</ele><time>2026-04-18T08:36:30.139Z</time></trkpt><trkpt lat="44.1154828" lon="7.9509775"><ele>999.0000000000001</ele><time>2026-04-18T08:36:31.138Z</time></trkpt><trkpt lat="44.1155578" lon="7.951042"><ele>999.0</ele><time>2026-04-18T08:36:32.138Z</time></trkpt><trkpt lat="44.1156094" lon="7.9511446"><ele>999.0</ele><time>2026-04-18T08:36:33.138Z</time></trkpt><trkpt lat="44.1156494" lon="7.9512862"><ele>999.0</ele><time>2026-04-18T08:36:34.139Z</time></trkpt><trkpt lat="44.115672" lon="7.9514499"><ele>999.0</ele><time>2026-04-18T08:36:35.139Z</time></trkpt><trkpt lat="44.1156977" lon="7.9516047"><ele>999.0</ele><time>2026-04-18T08:36:36.139Z</time></trkpt><trkpt lat="44.1157564" lon="7.951737"><ele>999.0</ele><time>2026-04-18T08:36:37.139Z</time></trkpt><trkpt lat="44.1158493" lon="7.9518488"><ele>998.2</ele><time>2026-04-18T08:36:38.138Z</time></trkpt><trkpt lat="44.1159544" lon="7.9519328"><ele>997.4000000000001</ele><time>2026-04-18T08:36:39.138Z</time></trkpt><trkpt lat="44.1160436" lon="7.9520335"><ele>996.6</ele><time>2026-04-18T08:36:40.139Z</time></trkpt><trkpt lat="44.1160947" lon="7.9521471"><ele>995.8</ele><time>2026-04-18T08:36:41.139Z</time></trkpt><trkpt lat="44.1161221" lon="7.9522936"><ele>995.0</ele><time>2026-04-18T08:36:42.139Z</time></trkpt><trkpt lat="44.1161265" lon="7.9524689"><ele>991.0</ele><time>2026-04-18T08:36:43.139Z</time></trkpt><trkpt lat="44.1161285" lon="7.9526524"><ele>987.0</ele><time>2026-04-18T08:36:44.139Z</time></trkpt><trkpt lat="44.1161517" lon="7.9528413"><ele>983.0</ele><time>2026-04-18T08:36:45.139Z</time></trkpt><trkpt lat="44.1162139" lon="7.9530279"><ele>979.0</ele><time>2026-04-18T08:36:46.139Z</time></trkpt><trkpt lat="44.1163" lon="7.953227"><ele>971.6666666666666</ele><time>2026-04-18T08:36:47.138Z</time></trkpt><trkpt lat="44.1163914" lon="7.9534367"><ele>964.3333333333333</ele><time>2026-04-18T08:36:48.139Z</time></trkpt><trkpt lat="44.1164704" lon="7.9536746"><ele>957.0</ele><time>2026-04-18T08:36:49.139Z</time></trkpt><trkpt lat="44.1165371" lon="7.953936"><ele>964.3333333333333</ele><time>2026-04-18T08:36:50.138Z</time></trkpt><trkpt lat="44.1166015" lon="7.9542043"><ele>971.6666666666666</ele><time>2026-04-18T08:36:51.139Z</time></trkpt><trkpt lat="44.1166642" lon="7.9544693"><ele>979.0</ele><time>2026-04-18T08:36:52.139Z</time></trkpt><trkpt lat="44.1167271" lon="7.9547245"><ele>979.0</ele><time>2026-04-18T08:36:53.139Z</time></trkpt><trkpt lat="44.116779" lon="7.9549519"><ele>979.0</ele><time>2026-04-18T08:36:54.139Z</time></trkpt><trkpt lat="44.1168298" lon="7.9551445"><ele>979.0</ele><time>2026-04-18T08:36:55.138Z</time></trkpt><trkpt lat="44.1168987" lon="7.9553034"><ele>976.5</ele><time>2026-04-18T08:36:56.139Z</time></trkpt><trkpt lat="44.1169966" lon="7.9554319"><ele>974.0</ele><time>2026-04-18T08:36:57.139Z</time></trkpt><trkpt lat="44.1171223" lon="7.9555257"><ele>971.5</ele><time>2026-04-18T08:36:58.139Z</time></trkpt><trkpt lat="44.1172579" lon="7.9555831"><ele>969.0</ele><time>2026-04-18T08:36:59.138Z</time></trkpt><trkpt lat="44.1173895" lon="7.9556049"><ele>970.75</ele><time>2026-04-18T08:37:00.139Z</time></trkpt><trkpt lat="44.1175162" lon="7.9555974"><ele>972.5</ele><time>2026-04-18T08:37:01.139Z</time></trkpt><trkpt lat="44.1176393" lon="7.9555407"><ele>974.25</ele><time>2026-04-18T08:37:02.139Z</time></trkpt><trkpt lat="44.1177512" lon="7.9554759"><ele>976.0</ele><time>2026-04-18T08:37:03.139Z</time></trkpt><trkpt lat="44.1178504" lon="7.9554232"><ele>976.0</ele><time>2026-04-18T08:37:04.139Z</time></trkpt><trkpt lat="44.1179409" lon="7.9553982"><ele>975.9999999999999</ele><time>2026-04-18T08:37:05.139Z</time></trkpt><trkpt lat="44.1180199" lon="7.9554215"><ele>975.9999999999999</ele><time>2026-04-18T08:37:06.139Z</time></trkpt><trkpt lat="44.1180504" lon="7.955584"><ele>976.0</ele><time>2026-04-18T08:37:08.139Z</time></trkpt><trkpt lat="44.1180034" lon="7.9556595"><ele>976.0</ele><time>2026-04-18T08:37:09.138Z</time></trkpt><trkpt lat="44.1179088" lon="7.955714"><ele>976.0</ele><time>2026-04-18T08:37:10.139Z</time></trkpt><trkpt lat="44.1177813" lon="7.9557579"><ele>976.0</ele><time>2026-04-18T08:37:11.138Z</time></trkpt><trkpt lat="44.1176376" lon="7.9558245"><ele>976.0</ele><time>2026-04-18T08:37:12.139Z</time></trkpt><trkpt lat="44.1174926" lon="7.9559104"><ele>976.0</ele><time>2026-04-18T08:37:13.139Z</time></trkpt><trkpt lat="44.1173573" lon="7.956007"><ele>969.75</ele><time>2026-04-18T08:37:14.139Z</time></trkpt><trkpt lat="44.1172189" lon="7.9560872"><ele>963.5</ele><time>2026-04-18T08:37:15.139Z</time></trkpt><trkpt lat="44.1170929" lon="7.9561678"><ele>957.25</ele><time>2026-04-18T08:37:16.139Z</time></trkpt><trkpt lat="44.1169688" lon="7.9562434"><ele>951.0</ele><time>2026-04-18T08:37:17.139Z</time></trkpt><trkpt lat="44.1168579" lon="7.9563133"><ele>951.0</ele><time>2026-04-18T08:37:18.138Z</time></trkpt><trkpt lat="44.1167609" lon="7.9563652"><ele>951.0</ele><time>2026-04-18T08:37:19.138Z</time></trkpt><trkpt lat="44.1166833" lon="7.9564109"><ele>951.0</ele><time>2026-04-18T08:37:20.138Z</time></trkpt><trkpt lat="44.1166422" lon="7.9564795"><ele>951.0</ele><time>2026-04-18T08:37:21.138Z</time></trkpt><trkpt lat="44.1166714" lon="7.9566341"><ele>951.0</ele><time>2026-04-18T08:37:23.139Z</time></trkpt><trkpt lat="44.1167386" lon="7.9566606"><ele>951.0</ele><time>2026-04-18T08:37:24.139Z</time></trkpt><trkpt lat="44.1168405" lon="7.9566368"><ele>951.0</ele><time>2026-04-18T08:37:25.139Z</time></trkpt><trkpt lat="44.1169633" lon="7.9565839"><ele>951.0</ele><time>2026-04-18T08:37:26.139Z</time></trkpt><trkpt lat="44.1170955" lon="7.9565166"><ele>951.0</ele><time>2026-04-18T08:37:27.139Z</time></trkpt><trkpt lat="44.1172348" lon="7.9564389"><ele>951.0</ele><time>2026-04-18T08:37:28.139Z</time></trkpt><trkpt lat="44.1173777" lon="7.9563678"><ele>950.25</ele><time>2026-04-18T08:37:29.139Z</time></trkpt><trkpt lat="44.1175164" lon="7.956302"><ele>949.5</ele><time>2026-04-18T08:37:30.139Z</time></trkpt><trkpt lat="44.1176514" lon="7.9562482"><ele>948.75</ele><time>2026-04-18T08:37:31.139Z</time></trkpt><trkpt lat="44.1177644" lon="7.9562343"><ele>948.0</ele><time>2026-04-18T08:37:32.139Z</time></trkpt><trkpt lat="44.1178581" lon="7.9562827"><ele>948.0</ele><time>2026-04-18T08:37:33.139Z</time></trkpt><trkpt lat="44.1179259" lon="7.9563768"><ele>948.0</ele><time>2026-04-18T08:37:34.138Z</time></trkpt><trkpt lat="44.1179619" lon="7.9565109"><ele>948.0</ele><time>2026-04-18T08:37:35.139Z</time></trkpt><trkpt lat="44.1179627" lon="7.9566687"><ele>948.0</ele><time>2026-04-18T08:37:36.139Z</time></trkpt><trkpt lat="44.1179358" lon="7.956848"><ele>948.0</ele><time>2026-04-18T08:37:37.139Z</time></trkpt><trkpt lat="44.1179297" lon="7.9570517"><ele>942.75</ele><time>2026-04-18T08:37:38.139Z</time></trkpt><trkpt lat="44.1179276" lon="7.9572509"><ele>937.5</ele><time>2026-04-18T08:37:39.139Z</time></trkpt><trkpt lat="44.1179471" lon="7.9574319"><ele>932.25</ele><time>2026-04-18T08:37:40.139Z</time></trkpt><trkpt lat="44.1179952" lon="7.9575823"><ele>927.0</ele><time>2026-04-18T08:37:41.139Z</time></trkpt><trkpt lat="44.1180863" lon="7.9577111"><ele>926.3333333333333</ele><time>2026-04-18T08:37:42.138Z</time></trkpt><trkpt lat="44.1182164" lon="7.9578221"><ele>925.6666666666666</ele><time>2026-04-18T08:37:43.138Z</time></trkpt><trkpt lat="44.1183671" lon="7.9579305"><ele>925.0</ele><time>2026-04-18T08:37:44.138Z</time></trkpt><trkpt lat="44.1185242" lon="7.9580395"><ele>925.0</ele><time>2026-04-18T08:37:45.139Z</time></trkpt><trkpt lat="44.1186859" lon="7.9581505"><ele>925.0</ele><time>2026-04-18T08:37:46.139Z</time></trkpt><trkpt lat="44.118844" lon="7.9582716"><ele>925.0</ele><time>2026-04-18T08:37:47.139Z</time></trkpt><trkpt lat="44.1189892" lon="7.958392"><ele>928.0</ele><time>2026-04-18T08:37:48.139Z</time></trkpt><trkpt lat="44.1191245" lon="7.9585112"><ele>931.0</ele><time>2026-04-18T08:37:49.138Z</time></trkpt><trkpt lat="44.1192434" lon="7.9586131"><ele>934.0</ele><time>2026-04-18T08:37:50.139Z</time></trkpt><trkpt lat="44.1193438" lon="7.9587059"><ele>937.0</ele><time>2026-04-18T08:37:51.139Z</time></trkpt><trkpt lat="44.1194026" lon="7.958811"><ele>937.0</ele><time>2026-04-18T08:37:52.138Z</time></trkpt><trkpt lat="44.1194218" lon="7.9589328"><ele>937.0</ele><time>2026-04-18T08:37:53.139Z</time></trkpt><trkpt lat="44.1193959" lon="7.9590678"><ele>937.0</ele><time>2026-04-18T08:37:54.139Z</time></trkpt><trkpt lat="44.119324" lon="7.9591913"><ele>937.0</ele><time>2026-04-18T08:37:55.14Z</time></trkpt><trkpt lat="44.1192151" lon="7.9593001"><ele>937.0</ele><time>2026-04-18T08:37:56.14Z</time></trkpt><trkpt lat="44.1190766" lon="7.9593884"><ele>933.0</ele><time>2026-04-18T08:37:57.14Z</time></trkpt><trkpt lat="44.118921" lon="7.9594676"><ele>929.0</ele><time>2026-04-18T08:37:58.139Z</time></trkpt><trkpt lat="44.1187515" lon="7.9595586"><ele>925.0</ele><time>2026-04-18T08:37:59.14Z</time></trkpt><trkpt lat="44.1185754" lon="7.9596873"><ele>925.0</ele><time>2026-04-18T08:38:00.14Z</time></trkpt><trkpt lat="44.1183967" lon="7.9598359"><ele>925.0</ele><time>2026-04-18T08:38:01.139Z</time></trkpt><trkpt lat="44.1182154" lon="7.9600023"><ele>925.0</ele><time>2026-04-18T08:38:02.14Z</time></trkpt><trkpt lat="44.11803" lon="7.9601584"><ele>924.6666666666666</ele><time>2026-04-18T08:38:03.14Z</time></trkpt><trkpt lat="44.117846" lon="7.960313"><ele>924.3333333333333</ele><time>2026-04-18T08:38:04.14Z</time></trkpt><trkpt lat="44.1176654" lon="7.9604649"><ele>924.0</ele><time>2026-04-18T08:38:05.14Z</time></trkpt><trkpt lat="44.1174906" lon="7.9606202"><ele>918.0</ele><time>2026-04-18T08:38:06.14Z</time></trkpt><trkpt lat="44.1173221" lon="7.9607886"><ele>912.0</ele><time>2026-04-18T08:38:07.14Z</time></trkpt><trkpt lat="44.1171628" lon="7.9609673"><ele>906.0</ele><time>2026-04-18T08:38:08.139Z</time></trkpt><trkpt lat="44.1170159" lon="7.9611698"><ele>906.0</ele><time>2026-04-18T08:38:09.14Z</time></trkpt><trkpt lat="44.1168737" lon="7.961392"><ele>906.0</ele><time>2026-04-18T08:38:10.139Z</time></trkpt><trkpt lat="44.1167394" lon="7.9616165"><ele>906.0</ele><time>2026-04-18T08:38:11.14Z</time></trkpt><trkpt lat="44.1166119" lon="7.9618394"><ele>897.6666666666667</ele><time>2026-04-18T08:38:12.139Z</time></trkpt><trkpt lat="44.1164974" lon="7.9620557"><ele>889.3333333333334</ele><time>2026-04-18T08:38:13.14Z</time></trkpt><trkpt lat="44.1163941" lon="7.9622676"><ele>881.0</ele><time>2026-04-18T08:38:14.14Z</time></trkpt><trkpt lat="44.116319" lon="7.9625051"><ele>882.0</ele><time>2026-04-18T08:38:15.14Z</time></trkpt><trkpt lat="44.1162691" lon="7.9627415"><ele>883.0</ele><time>2026-04-18T08:38:16.14Z</time></trkpt><trkpt lat="44.1162373" lon="7.9629702"><ele>884.0</ele><time>2026-04-18T08:38:17.14Z</time></trkpt><trkpt lat="44.116235" lon="7.9631914"><ele>879.6666666666667</ele><time>2026-04-18T08:38:18.139Z</time></trkpt><trkpt lat="44.1162751" lon="7.9634206"><ele>875.3333333333333</ele><time>2026-04-18T08:38:19.14Z</time></trkpt><trkpt lat="44.1163488" lon="7.9636703"><ele>871.0</ele><time>2026-04-18T08:38:20.139Z</time></trkpt><trkpt lat="44.1164178" lon="7.9639218"><ele>871.0</ele><time>2026-04-18T08:38:21.139Z</time></trkpt><trkpt lat="44.1164823" lon="7.9641703"><ele>871.0</ele><time>2026-04-18T08:38:22.14Z</time></trkpt><trkpt lat="44.1165455" lon="7.9644123"><ele>871.0</ele><time>2026-04-18T08:38:23.14Z</time></trkpt><trkpt lat="44.116606" lon="7.9646368"><ele>868.3333333333333</ele><time>2026-04-18T08:38:24.14Z</time></trkpt><trkpt lat="44.116684" lon="7.9648346"><ele>865.6666666666667</ele><time>2026-04-18T08:38:25.14Z</time></trkpt><trkpt lat="44.1167914" lon="7.965011"><ele>863.0</ele><time>2026-04-18T08:38:26.14Z</time></trkpt><trkpt lat="44.1169205" lon="7.9651653"><ele>863.0</ele><time>2026-04-18T08:38:27.14Z</time></trkpt><trkpt lat="44.1170577" lon="7.9653145"><ele>863.0</ele><time>2026-04-18T08:38:28.139Z</time></trkpt><trkpt lat="44.1171979" lon="7.9654294"><ele>863.0</ele><time>2026-04-18T08:38:29.14Z</time></trkpt><trkpt lat="44.1173438" lon="7.9654975"><ele>869.25</ele><time>2026-04-18T08:38:30.14Z</time></trkpt><trkpt lat="44.1174915" lon="7.9655294"><ele>875.5</ele><time>2026-04-18T08:38:31.139Z</time></trkpt><trkpt lat="44.1176341" lon="7.965561"><ele>881.75</ele><time>2026-04-18T08:38:32.139Z</time></trkpt><trkpt lat="44.1177619" lon="7.9656408"><ele>888.0</ele><time>2026-04-18T08:38:33.14Z</time></trkpt><trkpt lat="44.1178823" lon="7.9657684"><ele>878.0</ele><time>2026-04-18T08:38:34.14Z</time></trkpt><trkpt lat="44.1179966" lon="7.9659388"><ele>868.0</ele><time>2026-04-18T08:38:35.14Z</time></trkpt><trkpt lat="44.1181158" lon="7.9661251"><ele>858.0</ele><time>2026-04-18T08:38:36.14Z</time></trkpt><trkpt lat="44.1182328" lon="7.9662966"><ele>867.0</ele><time>2026-04-18T08:38:37.139Z</time></trkpt><trkpt lat="44.1183388" lon="7.9664541"><ele>876.0</ele><time>2026-04-18T08:38:38.139Z</time></trkpt><trkpt lat="44.1184255" lon="7.9666024"><ele>885.0</ele><time>2026-04-18T08:38:39.14Z</time></trkpt><trkpt lat="44.1184795" lon="7.9667462"><ele>894.0</ele><time>2026-04-18T08:38:40.14Z</time></trkpt><trkpt lat="44.11849" lon="7.9668993"><ele>897.5</ele><time>2026-04-18T08:38:41.14Z</time></trkpt><trkpt lat="44.1184515" lon="7.9670449"><ele>901.0</ele><time>2026-04-18T08:38:42.139Z</time></trkpt><trkpt lat="44.1183647" lon="7.9671769"><ele>904.5</ele><time>2026-04-18T08:38:43.139Z</time></trkpt><trkpt lat="44.1182434" lon="7.9672869"><ele>908.0</ele><time>2026-04-18T08:38:44.139Z</time></trkpt><trkpt lat="44.118101" lon="7.9673917"><ele>899.3333333333334</ele><time>2026-04-18T08:38:45.139Z</time></trkpt><trkpt lat="44.1179639" lon="7.9675224"><ele>890.6666666666667</ele><time>2026-04-18T08:38:46.14Z</time></trkpt><trkpt lat="44.1178432" lon="7.9676744"><ele>882.0</ele><time>2026-04-18T08:38:47.14Z</time></trkpt><trkpt lat="44.1177467" lon="7.9678558"><ele>882.0</ele><time>2026-04-18T08:38:48.14Z</time></trkpt><trkpt lat="44.1176773" lon="7.9680692"><ele>882.0</ele><time>2026-04-18T08:38:49.139Z</time></trkpt><trkpt lat="44.1176417" lon="7.968305"><ele>882.0</ele><time>2026-04-18T08:38:50.14Z</time></trkpt><trkpt lat="44.1176435" lon="7.968552"><ele>878.6666666666667</ele><time>2026-04-18T08:38:51.14Z</time></trkpt><trkpt lat="44.1176854" lon="7.9687951"><ele>875.3333333333334</ele><time>2026-04-18T08:38:52.14Z</time></trkpt><trkpt lat="44.1177639" lon="7.9690135"><ele>872.0</ele><time>2026-04-18T08:38:53.139Z</time></trkpt><trkpt lat="44.1178631" lon="7.9691923"><ele>868.0</ele><time>2026-04-18T08:38:54.14Z</time></trkpt><trkpt lat="44.1179819" lon="7.9693277"><ele>864.0</ele><time>2026-04-18T08:38:55.14Z</time></trkpt><trkpt lat="44.1181006" lon="7.9694514"><ele>860.0</ele><time>2026-04-18T08:38:56.14Z</time></trkpt><trkpt lat="44.1181908" lon="7.9696074"><ele>856.0</ele><time>2026-04-18T08:38:57.139Z</time></trkpt><trkpt lat="44.1182558" lon="7.9698024"><ele>867.0</ele><time>2026-04-18T08:38:58.14Z</time></trkpt><trkpt lat="44.118309" lon="7.9700123"><ele>878.0</ele><time>2026-04-18T08:38:59.14Z</time></trkpt><trkpt lat="44.1183441" lon="7.9702064"><ele>889.0</ele><time>2026-04-18T08:39:00.14Z</time></trkpt><trkpt lat="44.1183434" lon="7.9703878"><ele>900.0</ele><time>2026-04-18T08:39:01.139Z</time></trkpt><trkpt lat="44.1183022" lon="7.9705535"><ele>905.25</ele><time>2026-04-18T08:39:02.14Z</time></trkpt><trkpt lat="44.1182262" lon="7.9706796"><ele>910.5</ele><time>2026-04-18T08:39:03.14Z</time></trkpt><trkpt lat="44.1181137" lon="7.9707644"><ele>915.75</ele><time>2026-04-18T08:39:04.14Z</time></trkpt><trkpt lat="44.1179738" lon="7.9708175"><ele>921.0</ele><time>2026-04-18T08:39:05.14Z</time></trkpt><trkpt lat="44.1178157" lon="7.9708645"><ele>921.0</ele><time>2026-04-18T08:39:06.139Z</time></trkpt><trkpt lat="44.1176573" lon="7.970951"><ele>921.0</ele><time>2026-04-18T08:39:07.14Z</time></trkpt><trkpt lat="44.1175048" lon="7.9710965"><ele>921.0</ele><time>2026-04-18T08:39:08.14Z</time></trkpt><trkpt lat="44.1173591" lon="7.9712799"><ele>926.6666666666667</ele><time>2026-04-18T08:39:09.139Z</time></trkpt><trkpt lat="44.1172203" lon="7.9714596"><ele>932.3333333333334</ele><time>2026-04-18T08:39:10.14Z</time></trkpt><trkpt lat="44.1170888" lon="7.9716155"><ele>938.0</ele><time>2026-04-18T08:39:11.139Z</time></trkpt><trkpt lat="44.1169641" lon="7.9717449"><ele>938.0</ele><time>2026-04-18T08:39:12.14Z</time></trkpt><trkpt lat="44.1168427" lon="7.971831"><ele>938.0</ele><time>2026-04-18T08:39:13.139Z</time></trkpt><trkpt lat="44.1167465" lon="7.9718885"><ele>938.0</ele><time>2026-04-18T08:39:14.139Z</time></trkpt><trkpt lat="44.1159944" lon="7.9722017"><ele>928.0</ele><time>2026-04-18T08:39:19.139Z</time></trkpt><trkpt lat="44.1158703" lon="7.9722334"><ele>918.0</ele><time>2026-04-18T08:39:20.139Z</time></trkpt><trkpt lat="44.1157603" lon="7.9723121"><ele>908.0</ele><time>2026-04-18T08:39:21.14Z</time></trkpt><trkpt lat="44.1156739" lon="7.9724444"><ele>898.0</ele><time>2026-04-18T08:39:22.14Z</time></trkpt><trkpt lat="44.1156119" lon="7.9726218"><ele>885.0</ele><time>2026-04-18T08:39:23.139Z</time></trkpt><trkpt lat="44.1155764" lon="7.9728394"><ele>872.0</ele><time>2026-04-18T08:39:24.139Z</time></trkpt><trkpt lat="44.1155686" lon="7.9730953"><ele>859.0</ele><time>2026-04-18T08:39:25.14Z</time></trkpt><trkpt lat="44.1155788" lon="7.973368"><ele>859.0</ele><time>2026-04-18T08:39:26.14Z</time></trkpt><trkpt lat="44.1155919" lon="7.9736493"><ele>859.0</ele><time>2026-04-18T08:39:27.14Z</time></trkpt><trkpt lat="44.1156056" lon="7.9739373"><ele>859.0</ele><time>2026-04-18T08:39:28.14Z</time></trkpt><trkpt lat="44.115619" lon="7.9742157"><ele>854.6666666666666</ele><time>2026-04-18T08:39:29.14Z</time></trkpt><trkpt lat="44.1156476" lon="7.9744835"><ele>850.3333333333333</ele><time>2026-04-18T08:39:30.139Z</time></trkpt><trkpt lat="44.1156988" lon="7.9747486"><ele>846.0</ele><time>2026-04-18T08:39:31.14Z</time></trkpt><trkpt lat="44.1157702" lon="7.9750188"><ele>858.6666666666667</ele><time>2026-04-18T08:39:32.14Z</time></trkpt><trkpt lat="44.1158448" lon="7.9752711"><ele>871.3333333333334</ele><time>2026-04-18T08:39:33.139Z</time></trkpt><trkpt lat="44.1159115" lon="7.9755023"><ele>884.0</ele><time>2026-04-18T08:39:34.141Z</time></trkpt><trkpt lat="44.1159567" lon="7.9757328"><ele>885.3333333333334</ele><time>2026-04-18T08:39:35.141Z</time></trkpt><trkpt lat="44.1159673" lon="7.9759887"><ele>886.6666666666667</ele><time>2026-04-18T08:39:36.141Z</time></trkpt><trkpt lat="44.1159446" lon="7.9762642"><ele>888.0</ele><time>2026-04-18T08:39:37.141Z</time></trkpt><trkpt lat="44.1159071" lon="7.9765215"><ele>888.25</ele><time>2026-04-18T08:39:38.141Z</time></trkpt><trkpt lat="44.115873" lon="7.9767415"><ele>888.5</ele><time>2026-04-18T08:39:39.14Z</time></trkpt><trkpt lat="44.1158258" lon="7.9769235"><ele>888.75</ele><time>2026-04-18T08:39:40.141Z</time></trkpt><trkpt lat="44.11574" lon="7.9770537"><ele>889.0</ele><time>2026-04-18T08:39:41.14Z</time></trkpt><trkpt lat="44.1156102" lon="7.9771759"><ele>889.0</ele><time>2026-04-18T08:39:42.14Z</time></trkpt><trkpt lat="44.1154568" lon="7.9772935"><ele>889.0</ele><time>2026-04-18T08:39:43.141Z</time></trkpt><trkpt lat="44.1152897" lon="7.9774039"><ele>889.0</ele><time>2026-04-18T08:39:44.14Z</time></trkpt><trkpt lat="44.115118" lon="7.9774745"><ele>895.0</ele><time>2026-04-18T08:39:45.14Z</time></trkpt><trkpt lat="44.1149576" lon="7.9775271"><ele>901.0</ele><time>2026-04-18T08:39:46.141Z</time></trkpt><trkpt lat="44.1148088" lon="7.977579"><ele>907.0</ele><time>2026-04-18T08:39:47.14Z</time></trkpt><trkpt lat="44.1146741" lon="7.9776663"><ele>893.3333333333333</ele><time>2026-04-18T08:39:48.141Z</time></trkpt><trkpt lat="44.1145425" lon="7.9778026"><ele>879.6666666666667</ele><time>2026-04-18T08:39:49.141Z</time></trkpt><trkpt lat="44.1144649" lon="7.9780056"><ele>866.0</ele><time>2026-04-18T08:39:50.14Z</time></trkpt><trkpt lat="44.114414" lon="7.9782419"><ele>868.3333333333334</ele><time>2026-04-18T08:39:51.141Z</time></trkpt><trkpt lat="44.1143849" lon="7.9785094"><ele>870.6666666666667</ele><time>2026-04-18T08:39:52.141Z</time></trkpt><trkpt lat="44.1143622" lon="7.9787986"><ele>873.0</ele><time>2026-04-18T08:39:53.14Z</time></trkpt><trkpt lat="44.1143517" lon="7.9790647"><ele>873.6666666666667</ele><time>2026-04-18T08:39:54.141Z</time></trkpt><trkpt lat="44.114354" lon="7.9793303"><ele>874.3333333333334</ele><time>2026-04-18T08:39:55.141Z</time></trkpt><trkpt lat="44.1143306" lon="7.9796045"><ele>875.0</ele><time>2026-04-18T08:39:56.14Z</time></trkpt><trkpt lat="44.1142799" lon="7.979886"><ele>880.5</ele><time>2026-04-18T08:39:57.14Z</time></trkpt><trkpt lat="44.1142001" lon="7.9801814"><ele>886.0</ele><time>2026-04-18T08:39:58.141Z</time></trkpt><trkpt lat="44.114107" lon="7.9804888"><ele>870.5</ele><time>2026-04-18T08:39:59.14Z</time></trkpt><trkpt lat="44.1140191" lon="7.9808052"><ele>855.0</ele><time>2026-04-18T08:40:00.141Z</time></trkpt><trkpt lat="44.1139336" lon="7.981112"><ele>855.0</ele><time>2026-04-18T08:40:01.14Z</time></trkpt><trkpt lat="44.1138498" lon="7.9814054"><ele>855.0</ele><time>2026-04-18T08:40:02.141Z</time></trkpt><trkpt lat="44.1137675" lon="7.9816917"><ele>855.0</ele><time>2026-04-18T08:40:03.141Z</time></trkpt><trkpt lat="44.113676" lon="7.98197"><ele>859.6666666666667</ele><time>2026-04-18T08:40:04.14Z</time></trkpt><trkpt lat="44.1135676" lon="7.9822381"><ele>864.3333333333334</ele><time>2026-04-18T08:40:05.14Z</time></trkpt><trkpt lat="44.1134448" lon="7.9824756"><ele>869.0</ele><time>2026-04-18T08:40:06.14Z</time></trkpt><trkpt lat="44.1133254" lon="7.9826833"><ele>865.75</ele><time>2026-04-18T08:40:07.141Z</time></trkpt><trkpt lat="44.1132283" lon="7.9828615"><ele>862.5</ele><time>2026-04-18T08:40:08.141Z</time></trkpt><trkpt lat="44.1131699" lon="7.9830476"><ele>859.25</ele><time>2026-04-18T08:40:09.14Z</time></trkpt><trkpt lat="44.1131604" lon="7.9832412"><ele>856.0</ele><time>2026-04-18T08:40:10.141Z</time></trkpt><trkpt lat="44.1131835" lon="7.9834432"><ele>856.0</ele><time>2026-04-18T08:40:11.14Z</time></trkpt><trkpt lat="44.1132112" lon="7.9836489"><ele>856.0</ele><time>2026-04-18T08:40:12.141Z</time></trkpt><trkpt lat="44.1131988" lon="7.9838434"><ele>856.0</ele><time>2026-04-18T08:40:13.14Z</time></trkpt><trkpt lat="44.1131381" lon="7.9840286"><ele>856.0</ele><time>2026-04-18T08:40:14.141Z</time></trkpt><trkpt lat="44.1130283" lon="7.9841969"><ele>860.3333333333333</ele><time>2026-04-18T08:40:15.141Z</time></trkpt><trkpt lat="44.1128641" lon="7.9843564"><ele>864.6666666666667</ele><time>2026-04-18T08:40:16.14Z</time></trkpt><trkpt lat="44.1126846" lon="7.9844974"><ele>869.0</ele><time>2026-04-18T08:40:17.141Z</time></trkpt><trkpt lat="44.1124927" lon="7.984596"><ele>865.0</ele><time>2026-04-18T08:40:18.141Z</time></trkpt><trkpt lat="44.112313" lon="7.9846616"><ele>861.0</ele><time>2026-04-18T08:40:19.141Z</time></trkpt><trkpt lat="44.1121591" lon="7.9847025"><ele>857.0</ele><time>2026-04-18T08:40:20.141Z</time></trkpt><trkpt lat="44.1120384" lon="7.9847362"><ele>857.0</ele><time>2026-04-18T08:40:21.141Z</time></trkpt><trkpt lat="44.1119562" lon="7.9848145"><ele>857.0</ele><time>2026-04-18T08:40:22.14Z</time></trkpt><trkpt lat="44.1119172" lon="7.9849238"><ele>857.0</ele><time>2026-04-18T08:40:23.141Z</time></trkpt><trkpt lat="44.1119323" lon="7.9850632"><ele>857.0</ele><time>2026-04-18T08:40:24.141Z</time></trkpt><trkpt lat="44.1119883" lon="7.9852061"><ele>857.0</ele><time>2026-04-18T08:40:25.141Z</time></trkpt><trkpt lat="44.1120833" lon="7.9853683"><ele>851.0</ele><time>2026-04-18T08:40:26.141Z</time></trkpt><trkpt lat="44.1121908" lon="7.9855583"><ele>845.0</ele><time>2026-04-18T08:40:27.141Z</time></trkpt><trkpt lat="44.1123081" lon="7.9857648"><ele>839.0</ele><time>2026-04-18T08:40:28.14Z</time></trkpt><trkpt lat="44.112402" lon="7.9859724"><ele>843.0</ele><time>2026-04-18T08:40:29.141Z</time></trkpt><trkpt lat="44.1124654" lon="7.9861982"><ele>847.0</ele><time>2026-04-18T08:40:30.141Z</time></trkpt><trkpt lat="44.1124961" lon="7.9864607"><ele>851.0</ele><time>2026-04-18T08:40:31.14Z</time></trkpt><trkpt lat="44.1124979" lon="7.9867476"><ele>851.0</ele><time>2026-04-18T08:40:32.141Z</time></trkpt><trkpt lat="44.1124775" lon="7.987048"><ele>851.0</ele><time>2026-04-18T08:40:33.14Z</time></trkpt><trkpt lat="44.1124624" lon="7.9873406"><ele>851.0</ele><time>2026-04-18T08:40:34.141Z</time></trkpt><trkpt lat="44.1124544" lon="7.9876138"><ele>848.3333333333334</ele><time>2026-04-18T08:40:35.14Z</time></trkpt><trkpt lat="44.1124361" lon="7.987852"><ele>845.6666666666667</ele><time>2026-04-18T08:40:36.141Z</time></trkpt><trkpt lat="44.1124572" lon="7.9880647"><ele>843.0</ele><time>2026-04-18T08:40:37.14Z</time></trkpt><trkpt lat="44.1125304" lon="7.9882393"><ele>840.0</ele><time>2026-04-18T08:40:38.141Z</time></trkpt><trkpt lat="44.1126397" lon="7.9884146"><ele>837.0</ele><time>2026-04-18T08:40:39.14Z</time></trkpt><trkpt lat="44.1127659" lon="7.9885948"><ele>834.0</ele><time>2026-04-18T08:40:40.141Z</time></trkpt><trkpt lat="44.112889" lon="7.9887855"><ele>834.0</ele><time>2026-04-18T08:40:41.141Z</time></trkpt><trkpt lat="44.1130042" lon="7.9889668"><ele>834.0</ele><time>2026-04-18T08:40:42.14Z</time></trkpt><trkpt lat="44.1130884" lon="7.9891424"><ele>834.0</ele><time>2026-04-18T08:40:43.141Z</time></trkpt><trkpt lat="44.1131464" lon="7.989325"><ele>835.0</ele><time>2026-04-18T08:40:44.141Z</time></trkpt><trkpt lat="44.113156" lon="7.9895334"><ele>836.0</ele><time>2026-04-18T08:40:45.141Z</time></trkpt><trkpt lat="44.1131242" lon="7.989755"><ele>837.0</ele><time>2026-04-18T08:40:46.141Z</time></trkpt><trkpt lat="44.1130551" lon="7.9899682"><ele>834.5</ele><time>2026-04-18T08:40:47.141Z</time></trkpt><trkpt lat="44.1130089" lon="7.9901577"><ele>832.0</ele><time>2026-04-18T08:40:48.14Z</time></trkpt><trkpt lat="44.1130092" lon="7.9903417"><ele>829.5</ele><time>2026-04-18T08:40:49.14Z</time></trkpt><trkpt lat="44.1130504" lon="7.9905374"><ele>827.0</ele><time>2026-04-18T08:40:50.141Z</time></trkpt><trkpt lat="44.1131418" lon="7.9907121"><ele>825.3333333333334</ele><time>2026-04-18T08:40:51.141Z</time></trkpt><trkpt lat="44.1132682" lon="7.9908843"><ele>823.6666666666667</ele><time>2026-04-18T08:40:52.141Z</time></trkpt><trkpt lat="44.1134049" lon="7.991042"><ele>822.0</ele><time>2026-04-18T08:40:53.141Z</time></trkpt><trkpt lat="44.1135365" lon="7.9911856"><ele>822.0</ele><time>2026-04-18T08:40:54.141Z</time></trkpt><trkpt lat="44.1136437" lon="7.9913341"><ele>822.0</ele><time>2026-04-18T08:40:55.141Z</time></trkpt><trkpt lat="44.113701" lon="7.9914972"><ele>822.0</ele><time>2026-04-18T08:40:56.141Z</time></trkpt><trkpt lat="44.113703" lon="7.9916827"><ele>822.0</ele><time>2026-04-18T08:40:57.141Z</time></trkpt><trkpt lat="44.1136573" lon="7.9918827"><ele>822.0</ele><time>2026-04-18T08:40:58.141Z</time></trkpt><trkpt lat="44.1135896" lon="7.9921135"><ele>822.0</ele><time>2026-04-18T08:40:59.141Z</time></trkpt><trkpt lat="44.1135138" lon="7.9923577"><ele>822.0</ele><time>2026-04-18T08:41:00.141Z</time></trkpt><trkpt lat="44.1134422" lon="7.9926126"><ele>822.0</ele><time>2026-04-18T08:41:01.141Z</time></trkpt><trkpt lat="44.1133693" lon="7.9928643"><ele>822.0</ele><time>2026-04-18T08:41:02.141Z</time></trkpt><trkpt lat="44.1133" lon="7.9931104"><ele>822.0</ele><time>2026-04-18T08:41:03.14Z</time></trkpt><trkpt lat="44.113249" lon="7.9933585"><ele>819.3333333333333</ele><time>2026-04-18T08:41:04.141Z</time></trkpt><trkpt lat="44.1132249" lon="7.9936328"><ele>816.6666666666666</ele><time>2026-04-18T08:41:05.141Z</time></trkpt><trkpt lat="44.1132311" lon="7.9939238"><ele>814.0</ele><time>2026-04-18T08:41:06.141Z</time></trkpt><trkpt lat="44.1132726" lon="7.994216"><ele>814.0</ele><time>2026-04-18T08:41:07.141Z</time></trkpt><trkpt lat="44.1133333" lon="7.9945102"><ele>814.0</ele><time>2026-04-18T08:41:08.141Z</time></trkpt><trkpt lat="44.1134024" lon="7.9947866"><ele>814.0</ele><time>2026-04-18T08:41:09.141Z</time></trkpt><trkpt lat="44.1134618" lon="7.9950464"><ele>810.3333333333333</ele><time>2026-04-18T08:41:10.141Z</time></trkpt><trkpt lat="44.1135168" lon="7.9952859"><ele>806.6666666666667</ele><time>2026-04-18T08:41:11.142Z</time></trkpt><trkpt lat="44.1135605" lon="7.9955117"><ele>803.0</ele><time>2026-04-18T08:41:12.142Z</time></trkpt><trkpt lat="44.1135865" lon="7.9957305"><ele>802.0</ele><time>2026-04-18T08:41:13.142Z</time></trkpt><trkpt lat="44.1135771" lon="7.9959702"><ele>801.0</ele><time>2026-04-18T08:41:14.141Z</time></trkpt><trkpt lat="44.113528" lon="7.9962203"><ele>800.0</ele><time>2026-04-18T08:41:15.142Z</time></trkpt><trkpt lat="44.1134589" lon="7.9964955"><ele>801.6666666666667</ele><time>2026-04-18T08:41:16.141Z</time></trkpt><trkpt lat="44.113383" lon="7.9967657"><ele>803.3333333333333</ele><time>2026-04-18T08:41:17.142Z</time></trkpt><trkpt lat="44.1133138" lon="7.9970439"><ele>805.0</ele><time>2026-04-18T08:41:18.142Z</time></trkpt><trkpt lat="44.1132441" lon="7.9973322"><ele>796.3333333333333</ele><time>2026-04-18T08:41:19.142Z</time></trkpt><trkpt lat="44.1131776" lon="7.9976296"><ele>787.6666666666667</ele><time>2026-04-18T08:41:20.141Z</time></trkpt><trkpt lat="44.1131089" lon="7.9979184"><ele>779.0</ele><time>2026-04-18T08:41:21.142Z</time></trkpt><trkpt lat="44.1130361" lon="7.9982112"><ele>779.6666666666667</ele><time>2026-04-18T08:41:22.142Z</time></trkpt><trkpt lat="44.1129619" lon="7.9985063"><ele>780.3333333333333</ele><time>2026-04-18T08:41:23.142Z</time></trkpt><trkpt lat="44.1128882" lon="7.9987941"><ele>781.0</ele><time>2026-04-18T08:41:24.141Z</time></trkpt><trkpt lat="44.1128192" lon="7.9990813"><ele>782.0</ele><time>2026-04-18T08:41:25.142Z</time></trkpt><trkpt lat="44.1127499" lon="7.9993525"><ele>783.0</ele><time>2026-04-18T08:41:26.142Z</time></trkpt><trkpt lat="44.1126699" lon="7.9995944"><ele>784.0</ele><time>2026-04-18T08:41:27.142Z</time></trkpt><trkpt lat="44.1125764" lon="7.9997963"><ele>784.0</ele><time>2026-04-18T08:41:28.142Z</time></trkpt><trkpt lat="44.1124668" lon="7.9999471"><ele>784.0</ele><time>2026-04-18T08:41:29.142Z</time></trkpt><trkpt lat="44.1123719" lon="8.0000837"><ele>784.0</ele><time>2026-04-18T08:41:30.142Z</time></trkpt><trkpt lat="44.1123274" lon="8.0002368"><ele>784.0</ele><time>2026-04-18T08:41:31.141Z</time></trkpt><trkpt lat="44.1123254" lon="8.0003821"><ele>784.0</ele><time>2026-04-18T08:41:32.142Z</time></trkpt><trkpt lat="44.1123883" lon="8.0005081"><ele>784.0</ele><time>2026-04-18T08:41:33.142Z</time></trkpt><trkpt lat="44.1124799" lon="8.0005784"><ele>784.0</ele><time>2026-04-18T08:41:34.142Z</time></trkpt><trkpt lat="44.1126077" lon="8.0006183"><ele>784.0</ele><time>2026-04-18T08:41:35.142Z</time></trkpt><trkpt lat="44.1127511" lon="8.0006182"><ele>784.0</ele><time>2026-04-18T08:41:36.141Z</time></trkpt><trkpt lat="44.1129013" lon="8.0006081"><ele>784.0</ele><time>2026-04-18T08:41:37.141Z</time></trkpt><trkpt lat="44.1130479" lon="8.0006267"><ele>784.0</ele><time>2026-04-18T08:41:38.142Z</time></trkpt><trkpt lat="44.1132022" lon="8.0006884"><ele>782.0</ele><time>2026-04-18T08:41:39.141Z</time></trkpt><trkpt lat="44.1133378" lon="8.0007862"><ele>780.0</ele><time>2026-04-18T08:41:40.142Z</time></trkpt><trkpt lat="44.1134657" lon="8.0009455"><ele>778.0</ele><time>2026-04-18T08:41:41.142Z</time></trkpt><trkpt lat="44.1135917" lon="8.001111"><ele>778.0</ele><time>2026-04-18T08:41:42.142Z</time></trkpt><trkpt lat="44.1137047" lon="8.0012734"><ele>778.0</ele><time>2026-04-18T08:41:43.142Z</time></trkpt><trkpt lat="44.1138099" lon="8.0014244"><ele>778.0</ele><time>2026-04-18T08:41:44.142Z</time></trkpt><trkpt lat="44.113879" lon="8.0015958"><ele>774.0</ele><time>2026-04-18T08:41:45.142Z</time></trkpt><trkpt lat="44.11392" lon="8.0017918"><ele>770.0</ele><time>2026-04-18T08:41:46.142Z</time></trkpt><trkpt lat="44.113931" lon="8.0019863"><ele>766.0</ele><time>2026-04-18T08:41:47.142Z</time></trkpt><trkpt lat="44.1139513" lon="8.0021723"><ele>762.0</ele><time>2026-04-18T08:41:48.142Z</time></trkpt><trkpt lat="44.1140124" lon="8.0023447"><ele>762.25</ele><time>2026-04-18T08:41:49.142Z</time></trkpt><trkpt lat="44.1141132" lon="8.0024861"><ele>762.5</ele><time>2026-04-18T08:41:50.141Z</time></trkpt><trkpt lat="44.1142213" lon="8.0026194"><ele>762.75</ele><time>2026-04-18T08:41:51.141Z</time></trkpt><trkpt lat="44.114305" lon="8.0027806"><ele>763.0</ele><time>2026-04-18T08:41:52.142Z</time></trkpt><trkpt lat="44.1143565" lon="8.0029776"><ele>763.0</ele><time>2026-04-18T08:41:53.142Z</time></trkpt><trkpt lat="44.1143825" lon="8.003182"><ele>763.0</ele><time>2026-04-18T08:41:54.142Z</time></trkpt><trkpt lat="44.1144135" lon="8.0033736"><ele>763.0</ele><time>2026-04-18T08:41:55.141Z</time></trkpt><trkpt lat="44.1144389" lon="8.0035204"><ele>763.0</ele><time>2026-04-18T08:41:56.142Z</time></trkpt><trkpt lat="44.1144611" lon="8.0036374"><ele>763.0</ele><time>2026-04-18T08:41:57.142Z</time></trkpt><trkpt lat="44.1143871" lon="8.0037669"><ele>763.0</ele><time>2026-04-18T08:41:59.142Z</time></trkpt><trkpt lat="44.1143263" lon="8.0037289"><ele>763.0</ele><time>2026-04-18T08:42:00.141Z</time></trkpt><trkpt lat="44.1142775" lon="8.0036307"><ele>763.0</ele><time>2026-04-18T08:42:01.142Z</time></trkpt><trkpt lat="44.1142348" lon="8.0034794"><ele>763.0</ele><time>2026-04-18T08:42:02.142Z</time></trkpt><trkpt lat="44.1141691" lon="8.0033186"><ele>756.6666666666667</ele><time>2026-04-18T08:42:03.142Z</time></trkpt><trkpt lat="44.1140667" lon="8.0031587"><ele>750.3333333333334</ele><time>2026-04-18T08:42:04.142Z</time></trkpt><trkpt lat="44.1139302" lon="8.0030164"><ele>744.0</ele><time>2026-04-18T08:42:05.142Z</time></trkpt><trkpt lat="44.1137625" lon="8.0029062"><ele>744.0</ele><time>2026-04-18T08:42:06.141Z</time></trkpt><trkpt lat="44.1135892" lon="8.0028053"><ele>744.0</ele><time>2026-04-18T08:42:07.141Z</time></trkpt><trkpt lat="44.1134183" lon="8.0027061"><ele>744.0</ele><time>2026-04-18T08:42:08.142Z</time></trkpt><trkpt lat="44.1132583" lon="8.0026196"><ele>743.0</ele><time>2026-04-18T08:42:09.142Z</time></trkpt><trkpt lat="44.1131148" lon="8.0025495"><ele>742.0</ele><time>2026-04-18T08:42:10.141Z</time></trkpt><trkpt lat="44.1129755" lon="8.0025361"><ele>741.0</ele><time>2026-04-18T08:42:11.142Z</time></trkpt><trkpt lat="44.1128233" lon="8.0025674"><ele>740.0</ele><time>2026-04-18T08:42:12.141Z</time></trkpt><trkpt lat="44.1126696" lon="8.002662"><ele>740.0</ele><time>2026-04-18T08:42:13.141Z</time></trkpt><trkpt lat="44.1125251" lon="8.0027868"><ele>740.0</ele><time>2026-04-18T08:42:14.142Z</time></trkpt><trkpt lat="44.1123842" lon="8.0029084"><ele>740.0</ele><time>2026-04-18T08:42:15.142Z</time></trkpt><trkpt lat="44.1122441" lon="8.0030056"><ele>741.5</ele><time>2026-04-18T08:42:16.142Z</time></trkpt><trkpt lat="44.1120895" lon="8.0030638"><ele>743.0</ele><time>2026-04-18T08:42:17.141Z</time></trkpt><trkpt lat="44.1119396" lon="8.0030762"><ele>744.5</ele><time>2026-04-18T08:42:18.142Z</time></trkpt><trkpt lat="44.1118038" lon="8.0030676"><ele>746.0</ele><time>2026-04-18T08:42:19.142Z</time></trkpt><trkpt lat="44.1116927" lon="8.0030685"><ele>746.0</ele><time>2026-04-18T08:42:20.142Z</time></trkpt><trkpt lat="44.1116051" lon="8.0031188"><ele>746.0</ele><time>2026-04-18T08:42:21.142Z</time></trkpt><trkpt lat="44.1115511" lon="8.0032149"><ele>746.0</ele><time>2026-04-18T08:42:22.142Z</time></trkpt><trkpt lat="44.1115448" lon="8.0033313"><ele>746.0</ele><time>2026-04-18T08:42:23.142Z</time></trkpt><trkpt lat="44.1115919" lon="8.0034519"><ele>746.0</ele><time>2026-04-18T08:42:24.141Z</time></trkpt><trkpt lat="44.1116904" lon="8.0035691"><ele>737.0</ele><time>2026-04-18T08:42:25.142Z</time></trkpt><trkpt lat="44.1118123" lon="8.0036897"><ele>728.0</ele><time>2026-04-18T08:42:26.142Z</time></trkpt><trkpt lat="44.1119401" lon="8.0038256"><ele>719.0</ele><time>2026-04-18T08:42:27.141Z</time></trkpt><trkpt lat="44.1120647" lon="8.0039576"><ele>719.0</ele><time>2026-04-18T08:42:28.142Z</time></trkpt><trkpt lat="44.1121796" lon="8.0040865"><ele>719.0</ele><time>2026-04-18T08:42:29.142Z</time></trkpt><trkpt lat="44.1122796" lon="8.0042133"><ele>719.0</ele><time>2026-04-18T08:42:30.142Z</time></trkpt><trkpt lat="44.1123604" lon="8.0043553"><ele>719.0</ele><time>2026-04-18T08:42:31.142Z</time></trkpt><trkpt lat="44.1124011" lon="8.0045344"><ele>714.6666666666666</ele><time>2026-04-18T08:42:32.141Z</time></trkpt><trkpt lat="44.1124007" lon="8.0047252"><ele>710.3333333333334</ele><time>2026-04-18T08:42:33.142Z</time></trkpt><trkpt lat="44.1123628" lon="8.0049287"><ele>706.0</ele><time>2026-04-18T08:42:34.141Z</time></trkpt><trkpt lat="44.1123032" lon="8.0051527"><ele>703.0</ele><time>2026-04-18T08:42:35.142Z</time></trkpt><trkpt lat="44.1122337" lon="8.0053821"><ele>700.0</ele><time>2026-04-18T08:42:36.142Z</time></trkpt><trkpt lat="44.1121769" lon="8.0055985"><ele>697.0</ele><time>2026-04-18T08:42:37.141Z</time></trkpt><trkpt lat="44.112127" lon="8.0058109"><ele>696.0</ele><time>2026-04-18T08:42:38.142Z</time></trkpt><trkpt lat="44.1120859" lon="8.0059947"><ele>695.0</ele><time>2026-04-18T08:42:39.141Z</time></trkpt><trkpt lat="44.1120424" lon="8.006148"><ele>694.0</ele><time>2026-04-18T08:42:40.142Z</time></trkpt><trkpt lat="44.1119825" lon="8.0062476"><ele>693.0</ele><time>2026-04-18T08:42:41.142Z</time></trkpt><trkpt lat="44.1118996" lon="8.0062613"><ele>692.0</ele><time>2026-04-18T08:42:42.142Z</time></trkpt><trkpt lat="44.1118251" lon="8.0062005"><ele>692.0</ele><time>2026-04-18T08:42:43.142Z</time></trkpt><trkpt lat="44.111767" lon="8.0060858"><ele>692.0</ele><time>2026-04-18T08:42:44.142Z</time></trkpt><trkpt lat="44.1117232" lon="8.0059278"><ele>692.0</ele><time>2026-04-18T08:42:45.142Z</time></trkpt><trkpt lat="44.1116628" lon="8.0057452"><ele>692.0</ele><time>2026-04-18T08:42:46.142Z</time></trkpt><trkpt lat="44.1115858" lon="8.0055822"><ele>690.3333333333333</ele><time>2026-04-18T08:42:47.142Z</time></trkpt><trkpt lat="44.1114711" lon="8.005445"><ele>688.6666666666666</ele><time>2026-04-18T08:42:48.143Z</time></trkpt><trkpt lat="44.1113356" lon="8.0053428"><ele>687.0</ele><time>2026-04-18T08:42:49.143Z</time></trkpt><trkpt lat="44.1111712" lon="8.005262"><ele>687.0</ele><time>2026-04-18T08:42:50.143Z</time></trkpt><trkpt lat="44.1109788" lon="8.0051696"><ele>687.0</ele><time>2026-04-18T08:42:51.143Z</time></trkpt><trkpt lat="44.1107825" lon="8.0050721"><ele>687.0</ele><time>2026-04-18T08:42:52.142Z</time></trkpt><trkpt lat="44.1105895" lon="8.004973"><ele>688.6666666666666</ele><time>2026-04-18T08:42:53.142Z</time></trkpt><trkpt lat="44.1103925" lon="8.0048674"><ele>690.3333333333333</ele><time>2026-04-18T08:42:54.143Z</time></trkpt><trkpt lat="44.110187" lon="8.0047674"><ele>692.0</ele><time>2026-04-18T08:42:55.143Z</time></trkpt><trkpt lat="44.1099802" lon="8.0046603"><ele>685.6666666666666</ele><time>2026-04-18T08:42:56.143Z</time></trkpt><trkpt lat="44.1097827" lon="8.004545"><ele>679.3333333333334</ele><time>2026-04-18T08:42:57.142Z</time></trkpt><trkpt lat="44.1095991" lon="8.0044235"><ele>673.0</ele><time>2026-04-18T08:42:58.142Z</time></trkpt><trkpt lat="44.1094269" lon="8.0043077"><ele>673.0</ele><time>2026-04-18T08:42:59.142Z</time></trkpt><trkpt lat="44.1092762" lon="8.00421"><ele>673.0</ele><time>2026-04-18T08:43:00.142Z</time></trkpt><trkpt lat="44.1091395" lon="8.0041103"><ele>673.0</ele><time>2026-04-18T08:43:01.143Z</time></trkpt><trkpt lat="44.1090114" lon="8.0040209"><ele>668.5999999999999</ele><time>2026-04-18T08:43:02.142Z</time></trkpt><trkpt lat="44.1089016" lon="8.003942"><ele>664.1999999999999</ele><time>2026-04-18T08:43:03.143Z</time></trkpt><trkpt lat="44.108806" lon="8.0038825"><ele>659.8</ele><time>2026-04-18T08:43:04.143Z</time></trkpt><trkpt lat="44.1087254" lon="8.0038558"><ele>655.4</ele><time>2026-04-18T08:43:05.143Z</time></trkpt><trkpt lat="44.1086481" lon="8.0039683"><ele>651.0</ele><time>2026-04-18T08:43:07.143Z</time></trkpt><trkpt lat="44.1086752" lon="8.0040595"><ele>650.5</ele><time>2026-04-18T08:43:08.142Z</time></trkpt><trkpt lat="44.1087353" lon="8.004185"><ele>650.0</ele><time>2026-04-18T08:43:09.142Z</time></trkpt><trkpt lat="44.1088301" lon="8.0042987"><ele>649.5</ele><time>2026-04-18T08:43:10.143Z</time></trkpt><trkpt lat="44.1089359" lon="8.0044389"><ele>649.0</ele><time>2026-04-18T08:43:11.143Z</time></trkpt><trkpt lat="44.1090506" lon="8.0045801"><ele>650.5</ele><time>2026-04-18T08:43:12.142Z</time></trkpt><trkpt lat="44.1091628" lon="8.0047195"><ele>652.0</ele><time>2026-04-18T08:43:13.143Z</time></trkpt><trkpt lat="44.1092799" lon="8.0048474"><ele>653.5</ele><time>2026-04-18T08:43:14.143Z</time></trkpt><trkpt lat="44.1093953" lon="8.0049714"><ele>655.0</ele><time>2026-04-18T08:43:15.143Z</time></trkpt><trkpt lat="44.1094923" lon="8.0050816"><ele>655.0</ele><time>2026-04-18T08:43:16.143Z</time></trkpt><trkpt lat="44.1095675" lon="8.0051906"><ele>655.0</ele><time>2026-04-18T08:43:17.143Z</time></trkpt><trkpt lat="44.1096062" lon="8.0052877"><ele>655.0</ele><time>2026-04-18T08:43:18.143Z</time></trkpt><trkpt lat="44.1095895" lon="8.005394"><ele>655.0</ele><time>2026-04-18T08:43:19.142Z</time></trkpt><trkpt lat="44.1095252" lon="8.0054584"><ele>655.0</ele><time>2026-04-18T08:43:20.143Z</time></trkpt><trkpt lat="44.1094333" lon="8.0054416"><ele>655.0</ele><time>2026-04-18T08:43:21.143Z</time></trkpt><trkpt lat="44.1093444" lon="8.0053781"><ele>655.0</ele><time>2026-04-18T08:43:22.143Z</time></trkpt><trkpt lat="44.1092577" lon="8.0052717"><ele>655.0</ele><time>2026-04-18T08:43:23.143Z</time></trkpt><trkpt lat="44.109172" lon="8.0051667"><ele>655.0</ele><time>2026-04-18T08:43:24.143Z</time></trkpt><trkpt lat="44.1090771" lon="8.005086"><ele>655.0</ele><time>2026-04-18T08:43:25.143Z</time></trkpt><trkpt lat="44.1089948" lon="8.00503"><ele>655.0</ele><time>2026-04-18T08:43:26.143Z</time></trkpt><trkpt lat="44.1089177" lon="8.0050043"><ele>655.0</ele><time>2026-04-18T08:43:27.142Z</time></trkpt><trkpt lat="44.1088255" lon="8.0050766"><ele>655.0</ele><time>2026-04-18T08:43:29.143Z</time></trkpt><trkpt lat="44.1088598" lon="8.0052436"><ele>655.0</ele><time>2026-04-18T08:43:31.143Z</time></trkpt><trkpt lat="44.1089234" lon="8.0053367"><ele>655.0</ele><time>2026-04-18T08:43:32.142Z</time></trkpt><trkpt lat="44.1090081" lon="8.0054582"><ele>655.0</ele><time>2026-04-18T08:43:33.143Z</time></trkpt><trkpt lat="44.1091103" lon="8.0055851"><ele>655.0</ele><time>2026-04-18T08:43:34.142Z</time></trkpt><trkpt lat="44.1092123" lon="8.0057235"><ele>655.0</ele><time>2026-04-18T08:43:35.143Z</time></trkpt><trkpt lat="44.1093006" lon="8.0058959"><ele>655.0</ele><time>2026-04-18T08:43:36.142Z</time></trkpt><trkpt lat="44.1093624" lon="8.0060976"><ele>650.3333333333334</ele><time>2026-04-18T08:43:37.142Z</time></trkpt><trkpt lat="44.1093982" lon="8.0063093"><ele>645.6666666666666</ele><time>2026-04-18T08:43:38.143Z</time></trkpt><trkpt lat="44.1094284" lon="8.0065232"><ele>641.0</ele><time>2026-04-18T08:43:39.142Z</time></trkpt><trkpt lat="44.1094629" lon="8.0067389"><ele>637.6666666666666</ele><time>2026-04-18T08:43:40.143Z</time></trkpt><trkpt lat="44.1095284" lon="8.0069428"><ele>634.3333333333334</ele><time>2026-04-18T08:43:41.143Z</time></trkpt><trkpt lat="44.1096188" lon="8.0071156"><ele>631.0</ele><time>2026-04-18T08:43:42.142Z</time></trkpt><trkpt lat="44.1097109" lon="8.0072759"><ele>631.0</ele><time>2026-04-18T08:43:43.142Z</time></trkpt><trkpt lat="44.1098008" lon="8.0074047"><ele>631.0</ele><time>2026-04-18T08:43:44.142Z</time></trkpt><trkpt lat="44.1099002" lon="8.0075195"><ele>631.0</ele><time>2026-04-18T08:43:45.143Z</time></trkpt><trkpt lat="44.110035" lon="8.0076419"><ele>631.0</ele><time>2026-04-18T08:43:46.143Z</time></trkpt><trkpt lat="44.1101889" lon="8.007763"><ele>633.3333333333334</ele><time>2026-04-18T08:43:47.142Z</time></trkpt><trkpt lat="44.1103438" lon="8.007878"><ele>635.6666666666666</ele><time>2026-04-18T08:43:48.143Z</time></trkpt><trkpt lat="44.1105042" lon="8.0079918"><ele>638.0</ele><time>2026-04-18T08:43:49.142Z</time></trkpt><trkpt lat="44.1106765" lon="8.0080901"><ele>642.3333333333333</ele><time>2026-04-18T08:43:50.143Z</time></trkpt><trkpt lat="44.1108562" lon="8.008173"><ele>646.6666666666666</ele><time>2026-04-18T08:43:51.143Z</time></trkpt><trkpt lat="44.1110435" lon="8.0082424"><ele>651.0</ele><time>2026-04-18T08:43:52.142Z</time></trkpt><trkpt lat="44.1112358" lon="8.0083191"><ele>644.3333333333334</ele><time>2026-04-18T08:43:53.143Z</time></trkpt><trkpt lat="44.1114209" lon="8.0083943"><ele>637.6666666666667</ele><time>2026-04-18T08:43:54.142Z</time></trkpt><trkpt lat="44.1116138" lon="8.0084688"><ele>631.0</ele><time>2026-04-18T08:43:55.143Z</time></trkpt><trkpt lat="44.1117977" lon="8.0085244"><ele>631.0</ele><time>2026-04-18T08:43:56.143Z</time></trkpt><trkpt lat="44.1119877" lon="8.0085652"><ele>631.0</ele><time>2026-04-18T08:43:57.143Z</time></trkpt><trkpt lat="44.1121806" lon="8.0085876"><ele>631.0</ele><time>2026-04-18T08:43:58.143Z</time></trkpt><trkpt lat="44.1123797" lon="8.0085892"><ele>631.3333333333334</ele><time>2026-04-18T08:43:59.143Z</time></trkpt><trkpt lat="44.1125803" lon="8.0085785"><ele>631.6666666666666</ele><time>2026-04-18T08:44:00.143Z</time></trkpt><trkpt lat="44.1127799" lon="8.0085554"><ele>632.0</ele><time>2026-04-18T08:44:01.142Z</time></trkpt><trkpt lat="44.1129747" lon="8.0085337"><ele>632.0</ele><time>2026-04-18T08:44:02.142Z</time></trkpt><trkpt lat="44.1131632" lon="8.008506"><ele>632.0</ele><time>2026-04-18T08:44:03.143Z</time></trkpt><trkpt lat="44.1133321" lon="8.0084849"><ele>632.0</ele><time>2026-04-18T08:44:04.143Z</time></trkpt><trkpt lat="44.1134699" lon="8.0084651"><ele>635.0</ele><time>2026-04-18T08:44:05.143Z</time></trkpt><trkpt lat="44.1135857" lon="8.0084205"><ele>638.0</ele><time>2026-04-18T08:44:06.143Z</time></trkpt><trkpt lat="44.1136849" lon="8.0083445"><ele>641.0</ele><time>2026-04-18T08:44:07.143Z</time></trkpt><trkpt lat="44.1137601" lon="8.0082183"><ele>644.0</ele><time>2026-04-18T08:44:08.142Z</time></trkpt><trkpt lat="44.1138107" lon="8.0080842"><ele>644.0</ele><time>2026-04-18T08:44:09.143Z</time></trkpt><trkpt lat="44.1138477" lon="8.0079485"><ele>644.0</ele><time>2026-04-18T08:44:10.143Z</time></trkpt><trkpt lat="44.1138915" lon="8.0078424"><ele>644.0</ele><time>2026-04-18T08:44:11.143Z</time></trkpt><trkpt lat="44.1139553" lon="8.0077825"><ele>644.0</ele><time>2026-04-18T08:44:12.143Z</time></trkpt><trkpt lat="44.1140216" lon="8.0077756"><ele>644.0</ele><time>2026-04-18T08:44:13.142Z</time></trkpt><trkpt lat="44.1140748" lon="8.0078311"><ele>644.0</ele><time>2026-04-18T08:44:14.143Z</time></trkpt><trkpt lat="44.1140982" lon="8.0079375"><ele>644.0</ele><time>2026-04-18T08:44:15.143Z</time></trkpt><trkpt lat="44.1140679" lon="8.0080605"><ele>644.0</ele><time>2026-04-18T08:44:16.143Z</time></trkpt><trkpt lat="44.1139989" lon="8.0082112"><ele>644.0</ele><time>2026-04-18T08:44:17.143Z</time></trkpt><trkpt lat="44.1139126" lon="8.0083731"><ele>644.0</ele><time>2026-04-18T08:44:18.143Z</time></trkpt><trkpt lat="44.1138203" lon="8.0085502"><ele>635.0</ele><time>2026-04-18T08:44:19.143Z</time></trkpt><trkpt lat="44.1137217" lon="8.0087129"><ele>626.0</ele><time>2026-04-18T08:44:20.143Z</time></trkpt><trkpt lat="44.1136008" lon="8.0088429"><ele>617.0</ele><time>2026-04-18T08:44:21.143Z</time></trkpt><trkpt lat="44.1134515" lon="8.0089285"><ele>617.0</ele><time>2026-04-18T08:44:22.143Z</time></trkpt><trkpt lat="44.1132719" lon="8.0089958"><ele>617.0</ele><time>2026-04-18T08:44:23.143Z</time></trkpt><trkpt lat="44.1130783" lon="8.0090449"><ele>617.0</ele><time>2026-04-18T08:44:24.142Z</time></trkpt><trkpt lat="44.1128723" lon="8.0091177"><ele>611.0</ele><time>2026-04-18T08:44:25.143Z</time></trkpt><trkpt lat="44.1126622" lon="8.0091884"><ele>605.0</ele><time>2026-04-18T08:44:26.143Z</time></trkpt><trkpt lat="44.112447" lon="8.0092465"><ele>599.0</ele><time>2026-04-18T08:44:27.144Z</time></trkpt><trkpt lat="44.112233" lon="8.009316"><ele>598.0</ele><time>2026-04-18T08:44:28.144Z</time></trkpt><trkpt lat="44.1120266" lon="8.0093836"><ele>597.0</ele><time>2026-04-18T08:44:29.144Z</time></trkpt><trkpt lat="44.1118415" lon="8.0094447"><ele>596.0</ele><time>2026-04-18T08:44:30.143Z</time></trkpt><trkpt lat="44.1116626" lon="8.0094711"><ele>592.3333333333333</ele><time>2026-04-18T08:44:31.143Z</time></trkpt><trkpt lat="44.111501" lon="8.0094525"><ele>588.6666666666666</ele><time>2026-04-18T08:44:32.144Z</time></trkpt><trkpt lat="44.111337" lon="8.0093859"><ele>585.0</ele><time>2026-04-18T08:44:33.143Z</time></trkpt><trkpt lat="44.1111663" lon="8.0093054"><ele>585.0</ele><time>2026-04-18T08:44:34.144Z</time></trkpt><trkpt lat="44.1109964" lon="8.0092428"><ele>585.0</ele><time>2026-04-18T08:44:35.144Z</time></trkpt><trkpt lat="44.1108294" lon="8.0092021"><ele>585.0</ele><time>2026-04-18T08:44:36.144Z</time></trkpt><trkpt lat="44.1106523" lon="8.0092168"><ele>584.0</ele><time>2026-04-18T08:44:37.144Z</time></trkpt><trkpt lat="44.1104488" lon="8.0092712"><ele>583.0</ele><time>2026-04-18T08:44:38.143Z</time></trkpt><trkpt lat="44.1102311" lon="8.0093344"><ele>582.0</ele><time>2026-04-18T08:44:39.143Z</time></trkpt><trkpt lat="44.1100166" lon="8.0093983"><ele>579.0</ele><time>2026-04-18T08:44:40.144Z</time></trkpt><trkpt lat="44.1098135" lon="8.009455"><ele>576.0</ele><time>2026-04-18T08:44:41.144Z</time></trkpt><trkpt lat="44.1096211" lon="8.009505"><ele>573.0</ele><time>2026-04-18T08:44:42.144Z</time></trkpt><trkpt lat="44.1094426" lon="8.0095315"><ele>573.0</ele><time>2026-04-18T08:44:43.143Z</time></trkpt><trkpt lat="44.1092619" lon="8.0095147"><ele>573.0</ele><time>2026-04-18T08:44:44.144Z</time></trkpt><trkpt lat="44.1090836" lon="8.0094598"><ele>573.0</ele><time>2026-04-18T08:44:45.144Z</time></trkpt><trkpt lat="44.1089032" lon="8.0093667"><ele>573.6666666666666</ele><time>2026-04-18T08:44:46.144Z</time></trkpt><trkpt lat="44.1087325" lon="8.0092293"><ele>574.3333333333333</ele><time>2026-04-18T08:44:47.144Z</time></trkpt><trkpt lat="44.1085805" lon="8.0090623"><ele>575.0</ele><time>2026-04-18T08:44:48.144Z</time></trkpt><trkpt lat="44.1084393" lon="8.0089083"><ele>575.0</ele><time>2026-04-18T08:44:49.144Z</time></trkpt><trkpt lat="44.1082936" lon="8.0087967"><ele>575.0</ele><time>2026-04-18T08:44:50.143Z</time></trkpt><trkpt lat="44.1081463" lon="8.0087416"><ele>575.0</ele><time>2026-04-18T08:44:51.144Z</time></trkpt><trkpt lat="44.1079939" lon="8.0087075"><ele>575.0</ele><time>2026-04-18T08:44:52.143Z</time></trkpt><trkpt lat="44.1078669" lon="8.0086491"><ele>575.0</ele><time>2026-04-18T08:44:53.143Z</time></trkpt><trkpt lat="44.1077597" lon="8.0085415"><ele>575.0</ele><time>2026-04-18T08:44:54.144Z</time></trkpt><trkpt lat="44.107646" lon="8.0083973"><ele>575.0</ele><time>2026-04-18T08:44:55.144Z</time></trkpt><trkpt lat="44.1075146" lon="8.0082511"><ele>564.6666666666666</ele><time>2026-04-18T08:44:56.144Z</time></trkpt><trkpt lat="44.1073668" lon="8.0081334"><ele>554.3333333333334</ele><time>2026-04-18T08:44:57.144Z</time></trkpt><trkpt lat="44.1072019" lon="8.0080538"><ele>544.0</ele><time>2026-04-18T08:44:58.144Z</time></trkpt><trkpt lat="44.1070396" lon="8.0079497"><ele>544.0</ele><time>2026-04-18T08:44:59.144Z</time></trkpt><trkpt lat="44.106886" lon="8.0078057"><ele>544.0</ele><time>2026-04-18T08:45:00.144Z</time></trkpt><trkpt lat="44.1067269" lon="8.0076447"><ele>544.0</ele><time>2026-04-18T08:45:01.144Z</time></trkpt><trkpt lat="44.106576" lon="8.0074784"><ele>538.0</ele><time>2026-04-18T08:45:02.144Z</time></trkpt><trkpt lat="44.1064359" lon="8.0073104"><ele>532.0</ele><time>2026-04-18T08:45:03.144Z</time></trkpt><trkpt lat="44.1062987" lon="8.0071549"><ele>526.0</ele><time>2026-04-18T08:45:04.144Z</time></trkpt><trkpt lat="44.1061668" lon="8.0070251"><ele>526.0</ele><time>2026-04-18T08:45:05.144Z</time></trkpt><trkpt lat="44.1060499" lon="8.0069083"><ele>526.0</ele><time>2026-04-18T08:45:06.144Z</time></trkpt><trkpt lat="44.1059531" lon="8.0067643"><ele>526.0</ele><time>2026-04-18T08:45:07.144Z</time></trkpt><trkpt lat="44.1058842" lon="8.0065877"><ele>526.0</ele><time>2026-04-18T08:45:08.144Z</time></trkpt><trkpt lat="44.1058352" lon="8.0063941"><ele>530.3333333333334</ele><time>2026-04-18T08:45:09.144Z</time></trkpt><trkpt lat="44.1057707" lon="8.0062175"><ele>534.6666666666666</ele><time>2026-04-18T08:45:10.144Z</time></trkpt><trkpt lat="44.1056612" lon="8.0060538"><ele>539.0</ele><time>2026-04-18T08:45:11.144Z</time></trkpt><trkpt lat="44.1055152" lon="8.00593"><ele>532.0</ele><time>2026-04-18T08:45:12.144Z</time></trkpt><trkpt lat="44.1053513" lon="8.0058209"><ele>525.0</ele><time>2026-04-18T08:45:13.144Z</time></trkpt><trkpt lat="44.1051864" lon="8.0057128"><ele>518.0</ele><time>2026-04-18T08:45:14.144Z</time></trkpt><trkpt lat="44.1050364" lon="8.0055903"><ele>518.0</ele><time>2026-04-18T08:45:15.143Z</time></trkpt><trkpt lat="44.1049161" lon="8.0054541"><ele>518.0</ele><time>2026-04-18T08:45:16.144Z</time></trkpt><trkpt lat="44.10483" lon="8.0053033"><ele>518.0</ele><time>2026-04-18T08:45:17.144Z</time></trkpt><trkpt lat="44.104788" lon="8.0051501"><ele>518.0</ele><time>2026-04-18T08:45:18.143Z</time></trkpt><trkpt lat="44.1047924" lon="8.0049886"><ele>515.25</ele><time>2026-04-18T08:45:19.143Z</time></trkpt><trkpt lat="44.1048363" lon="8.0048214"><ele>512.5</ele><time>2026-04-18T08:45:20.144Z</time></trkpt><trkpt lat="44.1049173" lon="8.0046472"><ele>509.75</ele><time>2026-04-18T08:45:21.143Z</time></trkpt><trkpt lat="44.105006" lon="8.0044651"><ele>507.0</ele><time>2026-04-18T08:45:22.144Z</time></trkpt><trkpt lat="44.1050806" lon="8.0042786"><ele>504.0</ele><time>2026-04-18T08:45:23.143Z</time></trkpt><trkpt lat="44.1051403" lon="8.0040782"><ele>501.0</ele><time>2026-04-18T08:45:24.143Z</time></trkpt><trkpt lat="44.1051945" lon="8.0038921"><ele>498.0</ele><time>2026-04-18T08:45:25.144Z</time></trkpt><trkpt lat="44.1052455" lon="8.0037213"><ele>495.0</ele><time>2026-04-18T08:45:26.144Z</time></trkpt><trkpt lat="44.1053033" lon="8.0035602"><ele>495.0</ele><time>2026-04-18T08:45:27.144Z</time></trkpt><trkpt lat="44.1053472" lon="8.003432"><ele>495.0</ele><time>2026-04-18T08:45:28.144Z</time></trkpt><trkpt lat="44.1053498" lon="8.0033105"><ele>495.0</ele><time>2026-04-18T08:45:29.144Z</time></trkpt><trkpt lat="44.1053105" lon="8.0032416"><ele>495.0</ele><time>2026-04-18T08:45:30.144Z</time></trkpt><trkpt lat="44.1051818" lon="8.00327"><ele>495.0</ele><time>2026-04-18T08:45:32.144Z</time></trkpt><trkpt lat="44.1051163" lon="8.0033794"><ele>495.0</ele><time>2026-04-18T08:45:33.144Z</time></trkpt><trkpt lat="44.1050635" lon="8.0035446"><ele>495.0</ele><time>2026-04-18T08:45:34.144Z</time></trkpt><trkpt lat="44.1050085" lon="8.0037359"><ele>495.0</ele><time>2026-04-18T08:45:35.144Z</time></trkpt><trkpt lat="44.1049419" lon="8.0039337"><ele>495.0</ele><time>2026-04-18T08:45:36.143Z</time></trkpt><trkpt lat="44.1048627" lon="8.0041257"><ele>486.33333333333337</ele><time>2026-04-18T08:45:37.144Z</time></trkpt><trkpt lat="44.1047601" lon="8.004289"><ele>477.6666666666667</ele><time>2026-04-18T08:45:38.144Z</time></trkpt><trkpt lat="44.1046193" lon="8.004426"><ele>469.0</ele><time>2026-04-18T08:45:39.144Z</time></trkpt><trkpt lat="44.1044611" lon="8.0045462"><ele>469.0</ele><time>2026-04-18T08:45:40.144Z</time></trkpt><trkpt lat="44.1043129" lon="8.0046715"><ele>469.0</ele><time>2026-04-18T08:45:41.143Z</time></trkpt><trkpt lat="44.1041766" lon="8.0048101"><ele>469.0</ele><time>2026-04-18T08:45:42.144Z</time></trkpt><trkpt lat="44.1040709" lon="8.0049756"><ele>465.33333333333337</ele><time>2026-04-18T08:45:43.144Z</time></trkpt><trkpt lat="44.103995" lon="8.0051644"><ele>461.66666666666663</ele><time>2026-04-18T08:45:44.143Z</time></trkpt><trkpt lat="44.1039559" lon="8.0053687"><ele>458.0</ele><time>2026-04-18T08:45:45.143Z</time></trkpt><trkpt lat="44.1039636" lon="8.0055927"><ele>458.0</ele><time>2026-04-18T08:45:46.143Z</time></trkpt><trkpt lat="44.1040194" lon="8.0058144"><ele>458.0</ele><time>2026-04-18T08:45:47.144Z</time></trkpt><trkpt lat="44.1041076" lon="8.006041"><ele>458.0</ele><time>2026-04-18T08:45:48.143Z</time></trkpt><trkpt lat="44.1042255" lon="8.0062774"><ele>463.0</ele><time>2026-04-18T08:45:49.144Z</time></trkpt><trkpt lat="44.1043431" lon="8.0065196"><ele>468.0</ele><time>2026-04-18T08:45:50.144Z</time></trkpt><trkpt lat="44.1044571" lon="8.0067657"><ele>473.0</ele><time>2026-04-18T08:45:51.144Z</time></trkpt><trkpt lat="44.104568" lon="8.007009"><ele>473.0</ele><time>2026-04-18T08:45:52.143Z</time></trkpt><trkpt lat="44.1046879" lon="8.0072528"><ele>473.0</ele><time>2026-04-18T08:45:53.144Z</time></trkpt><trkpt lat="44.1048142" lon="8.0074903"><ele>473.0</ele><time>2026-04-18T08:45:54.143Z</time></trkpt><trkpt lat="44.1049475" lon="8.0077328"><ele>471.0</ele><time>2026-04-18T08:45:55.144Z</time></trkpt><trkpt lat="44.1050766" lon="8.0079661"><ele>469.0</ele><time>2026-04-18T08:45:56.143Z</time></trkpt><trkpt lat="44.1052" lon="8.0081896"><ele>467.0</ele><time>2026-04-18T08:45:57.143Z</time></trkpt><trkpt lat="44.1053102" lon="8.0083927"><ele>467.0</ele><time>2026-04-18T08:45:58.144Z</time></trkpt><trkpt lat="44.1054051" lon="8.0085929"><ele>467.0</ele><time>2026-04-18T08:45:59.144Z</time></trkpt><trkpt lat="44.105465" lon="8.0087996"><ele>467.0</ele><time>2026-04-18T08:46:00.144Z</time></trkpt><trkpt lat="44.1054864" lon="8.0090276"><ele>461.66666666666663</ele><time>2026-04-18T08:46:01.143Z</time></trkpt><trkpt lat="44.1054915" lon="8.0092563"><ele>456.33333333333337</ele><time>2026-04-18T08:46:02.144Z</time></trkpt><trkpt lat="44.1055221" lon="8.0094886"><ele>451.0</ele><time>2026-04-18T08:46:03.144Z</time></trkpt><trkpt lat="44.1055881" lon="8.0097108"><ele>451.0</ele><time>2026-04-18T08:46:04.144Z</time></trkpt><trkpt lat="44.1056887" lon="8.009937"><ele>451.0</ele><time>2026-04-18T08:46:05.144Z</time></trkpt><trkpt lat="44.1057953" lon="8.0101747"><ele>451.0</ele><time>2026-04-18T08:46:06.144Z</time></trkpt><trkpt lat="44.1058998" lon="8.0104167"><ele>450.33333333333337</ele><time>2026-04-18T08:46:07.143Z</time></trkpt><trkpt lat="44.1060027" lon="8.0106519"><ele>449.66666666666663</ele><time>2026-04-18T08:46:08.145Z</time></trkpt><trkpt lat="44.1060965" lon="8.0108584"><ele>449.0</ele><time>2026-04-18T08:46:09.144Z</time></trkpt><trkpt lat="44.1061913" lon="8.0110342"><ele>449.0</ele><time>2026-04-18T08:46:10.144Z</time></trkpt><trkpt lat="44.1063142" lon="8.011175"><ele>449.0</ele><time>2026-04-18T08:46:11.145Z</time></trkpt><trkpt lat="44.106466" lon="8.0112842"><ele>449.0</ele><time>2026-04-18T08:46:12.145Z</time></trkpt><trkpt lat="44.1066487" lon="8.0113935"><ele>456.0</ele><time>2026-04-18T08:46:13.145Z</time></trkpt><trkpt lat="44.1068328" lon="8.0114921"><ele>463.0</ele><time>2026-04-18T08:46:14.144Z</time></trkpt><trkpt lat="44.1070186" lon="8.0115678"><ele>470.0</ele><time>2026-04-18T08:46:15.144Z</time></trkpt><trkpt lat="44.1072093" lon="8.0116077"><ele>470.0</ele><time>2026-04-18T08:46:16.145Z</time></trkpt><trkpt lat="44.1073923" lon="8.0116526"><ele>470.0</ele><time>2026-04-18T08:46:17.145Z</time></trkpt><trkpt lat="44.1075763" lon="8.0117133"><ele>470.0</ele><time>2026-04-18T08:46:18.145Z</time></trkpt><trkpt lat="44.1077529" lon="8.011785"><ele>465.0</ele><time>2026-04-18T08:46:19.145Z</time></trkpt><trkpt lat="44.1079303" lon="8.0118433"><ele>460.0</ele><time>2026-04-18T08:46:20.145Z</time></trkpt><trkpt lat="44.1081129" lon="8.011881"><ele>455.0</ele><time>2026-04-18T08:46:21.145Z</time></trkpt><trkpt lat="44.108289" lon="8.0119375"><ele>455.0</ele><time>2026-04-18T08:46:22.145Z</time></trkpt><trkpt lat="44.1084474" lon="8.0119941"><ele>455.0</ele><time>2026-04-18T08:46:23.144Z</time></trkpt><trkpt lat="44.1085889" lon="8.0120524"><ele>455.0</ele><time>2026-04-18T08:46:24.145Z</time></trkpt><trkpt lat="44.1087054" lon="8.0121336"><ele>455.0</ele><time>2026-04-18T08:46:25.145Z</time></trkpt><trkpt lat="44.1088008" lon="8.0122627"><ele>455.0</ele><time>2026-04-18T08:46:26.145Z</time></trkpt><trkpt lat="44.1088887" lon="8.0124211"><ele>455.0</ele><time>2026-04-18T08:46:27.144Z</time></trkpt><trkpt lat="44.1089941" lon="8.0125491"><ele>455.0</ele><time>2026-04-18T08:46:28.145Z</time></trkpt><trkpt lat="44.1091314" lon="8.0126315"><ele>455.0</ele><time>2026-04-18T08:46:29.145Z</time></trkpt><trkpt lat="44.109307" lon="8.0126954"><ele>447.66666666666663</ele><time>2026-04-18T08:46:30.144Z</time></trkpt><trkpt lat="44.1094852" lon="8.0127476"><ele>440.33333333333337</ele><time>2026-04-18T08:46:31.144Z</time></trkpt><trkpt lat="44.1096514" lon="8.0127985"><ele>433.0</ele><time>2026-04-18T08:46:32.145Z</time></trkpt><trkpt lat="44.1097956" lon="8.0128396"><ele>435.4</ele><time>2026-04-18T08:46:33.145Z</time></trkpt><trkpt lat="44.1099179" lon="8.0128928"><ele>437.79999999999995</ele><time>2026-04-18T08:46:34.144Z</time></trkpt><trkpt lat="44.1100009" lon="8.0129834"><ele>440.2</ele><time>2026-04-18T08:46:35.145Z</time></trkpt><trkpt lat="44.1100513" lon="8.013098"><ele>442.6</ele><time>2026-04-18T08:46:36.145Z</time></trkpt><trkpt lat="44.1100796" lon="8.0132388"><ele>445.0</ele><time>2026-04-18T08:46:37.145Z</time></trkpt><trkpt lat="44.1101153" lon="8.0133848"><ele>438.75</ele><time>2026-04-18T08:46:38.145Z</time></trkpt><trkpt lat="44.1101949" lon="8.0135141"><ele>432.5</ele><time>2026-04-18T08:46:39.144Z</time></trkpt><trkpt lat="44.1102987" lon="8.013636"><ele>426.25</ele><time>2026-04-18T08:46:40.145Z</time></trkpt><trkpt lat="44.1104205" lon="8.0137614"><ele>420.0</ele><time>2026-04-18T08:46:41.145Z</time></trkpt><trkpt lat="44.1105549" lon="8.0139033"><ele>420.0</ele><time>2026-04-18T08:46:42.145Z</time></trkpt><trkpt lat="44.1106955" lon="8.0140466"><ele>420.0</ele><time>2026-04-18T08:46:43.145Z</time></trkpt><trkpt lat="44.1108263" lon="8.0141797"><ele>420.0</ele><time>2026-04-18T08:46:44.144Z</time></trkpt><trkpt lat="44.1109522" lon="8.0143078"><ele>419.25</ele><time>2026-04-18T08:46:45.144Z</time></trkpt><trkpt lat="44.1110674" lon="8.0144305"><ele>418.5</ele><time>2026-04-18T08:46:46.145Z</time></trkpt><trkpt lat="44.111184" lon="8.0145334"><ele>417.75</ele><time>2026-04-18T08:46:47.145Z</time></trkpt><trkpt lat="44.1113081" lon="8.0145879"><ele>417.0</ele><time>2026-04-18T08:46:48.144Z</time></trkpt><trkpt lat="44.1114495" lon="8.0146161"><ele>421.33333333333337</ele><time>2026-04-18T08:46:49.145Z</time></trkpt><trkpt lat="44.1116085" lon="8.0146558"><ele>425.6666666666667</ele><time>2026-04-18T08:46:50.145Z</time></trkpt><trkpt lat="44.1117754" lon="8.0146957"><ele>430.0</ele><time>2026-04-18T08:46:51.145Z</time></trkpt><trkpt lat="44.1119492" lon="8.0147311"><ele>430.0</ele><time>2026-04-18T08:46:52.145Z</time></trkpt><trkpt lat="44.1121188" lon="8.0147663"><ele>430.0</ele><time>2026-04-18T08:46:53.144Z</time></trkpt><trkpt lat="44.1122707" lon="8.0148028"><ele>430.0</ele><time>2026-04-18T08:46:54.145Z</time></trkpt><trkpt lat="44.1123945" lon="8.0148328"><ele>429.8</ele><time>2026-04-18T08:46:55.145Z</time></trkpt><trkpt lat="44.1124911" lon="8.0148291"><ele>429.6</ele><time>2026-04-18T08:46:56.145Z</time></trkpt><trkpt lat="44.1125794" lon="8.0147933"><ele>429.4</ele><time>2026-04-18T08:46:57.144Z</time></trkpt><trkpt lat="44.1126909" lon="8.0147787"><ele>429.2</ele><time>2026-04-18T08:46:58.145Z</time></trkpt><trkpt lat="44.1128046" lon="8.0148061"><ele>429.0</ele><time>2026-04-18T08:46:59.145Z</time></trkpt><trkpt lat="44.1129121" lon="8.0148675"><ele>429.0</ele><time>2026-04-18T08:47:00.145Z</time></trkpt><trkpt lat="44.1130339" lon="8.0149608"><ele>429.0</ele><time>2026-04-18T08:47:01.144Z</time></trkpt><trkpt lat="44.1131703" lon="8.0150618"><ele>429.0</ele><time>2026-04-18T08:47:02.144Z</time></trkpt><trkpt lat="44.1132795" lon="8.015138"><ele>429.0</ele><time>2026-04-18T08:47:03.145Z</time></trkpt><trkpt lat="44.1133663" lon="8.0152038"><ele>424.5</ele><time>2026-04-18T08:47:04.144Z</time></trkpt><trkpt lat="44.1134376" lon="8.0152489"><ele>420.0</ele><time>2026-04-18T08:47:05.145Z</time></trkpt><trkpt lat="44.1135011" lon="8.0152662"><ele>415.5</ele><time>2026-04-18T08:47:06.145Z</time></trkpt><trkpt lat="44.1135893" lon="8.015288"><ele>411.0</ele><time>2026-04-18T08:47:07.145Z</time></trkpt><trkpt lat="44.1136585" lon="8.0152912"><ele>406.5</ele><time>2026-04-18T08:47:08.145Z</time></trkpt><trkpt lat="44.1137321" lon="8.0152986"><ele>402.0</ele><time>2026-04-18T08:47:09.145Z</time></trkpt><trkpt lat="44.1138062" lon="8.0153252"><ele>402.0</ele><time>2026-04-18T08:47:10.145Z</time></trkpt><trkpt lat="44.113862" lon="8.0153765"><ele>402.0</ele><time>2026-04-18T08:47:11.145Z</time></trkpt><trkpt lat="44.1138884" lon="8.015473"><ele>402.0</ele><time>2026-04-18T08:47:12.145Z</time></trkpt><trkpt lat="44.1138996" lon="8.0156009"><ele>402.0</ele><time>2026-04-18T08:47:13.145Z</time></trkpt><trkpt lat="44.1139071" lon="8.0157193"><ele>402.0</ele><time>2026-04-18T08:47:14.144Z</time></trkpt><trkpt lat="44.1139386" lon="8.0158144"><ele>402.0</ele><time>2026-04-18T08:47:15.145Z</time></trkpt><trkpt lat="44.1140008" lon="8.0158629"><ele>401.6</ele><time>2026-04-18T08:47:16.145Z</time></trkpt><trkpt lat="44.114077" lon="8.0158504"><ele>401.20000000000005</ele><time>2026-04-18T08:47:17.145Z</time></trkpt><trkpt lat="44.1141538" lon="8.0157764"><ele>400.8</ele><time>2026-04-18T08:47:18.145Z</time></trkpt><trkpt lat="44.1142362" lon="8.0156772"><ele>400.4</ele><time>2026-04-18T08:47:19.144Z</time></trkpt><trkpt lat="44.1143264" lon="8.0155641"><ele>400.0</ele><time>2026-04-18T08:47:20.145Z</time></trkpt><trkpt lat="44.1144204" lon="8.0154515"><ele>400.0</ele><time>2026-04-18T08:47:21.145Z</time></trkpt><trkpt lat="44.1145179" lon="8.0153413"><ele>400.0</ele><time>2026-04-18T08:47:22.144Z</time></trkpt><trkpt lat="44.1146059" lon="8.0152309"><ele>400.0</ele><time>2026-04-18T08:47:23.145Z</time></trkpt><trkpt lat="44.1146899" lon="8.0151376"><ele>400.0</ele><time>2026-04-18T08:47:24.145Z</time></trkpt><trkpt lat="44.1147774" lon="8.0150802"><ele>400.0</ele><time>2026-04-18T08:47:25.145Z</time></trkpt><trkpt lat="44.1148674" lon="8.0150805"><ele>398.4</ele><time>2026-04-18T08:47:26.145Z</time></trkpt><trkpt lat="44.1149428" lon="8.0151255"><ele>396.8</ele><time>2026-04-18T08:47:27.145Z</time></trkpt><trkpt lat="44.1149978" lon="8.0151925"><ele>395.20000000000005</ele><time>2026-04-18T08:47:28.145Z</time></trkpt><trkpt lat="44.1150382" lon="8.0152614"><ele>393.6</ele><time>2026-04-18T08:47:29.145Z</time></trkpt><trkpt lat="44.1150654" lon="8.0154469"><ele>392.0</ele><time>2026-04-18T08:47:31.145Z</time></trkpt><trkpt lat="44.1150354" lon="8.0155816"><ele>392.0</ele><time>2026-04-18T08:47:32.145Z</time></trkpt><trkpt lat="44.1150003" lon="8.0157474"><ele>392.0</ele><time>2026-04-18T08:47:33.145Z</time></trkpt><trkpt lat="44.1149713" lon="8.0159406"><ele>392.0</ele><time>2026-04-18T08:47:34.145Z</time></trkpt><trkpt lat="44.1149391" lon="8.0161516"><ele>392.0</ele><time>2026-04-18T08:47:35.145Z</time></trkpt><trkpt lat="44.1149046" lon="8.0163741"><ele>388.3333333333333</ele><time>2026-04-18T08:47:36.145Z</time></trkpt><trkpt lat="44.1148676" lon="8.0166049"><ele>384.66666666666663</ele><time>2026-04-18T08:47:37.145Z</time></trkpt><trkpt lat="44.1148338" lon="8.0168342"><ele>381.0</ele><time>2026-04-18T08:47:38.144Z</time></trkpt><trkpt lat="44.1147961" lon="8.017066"><ele>378.0</ele><time>2026-04-18T08:47:39.145Z</time></trkpt><trkpt lat="44.1147459" lon="8.0172832"><ele>375.0</ele><time>2026-04-18T08:47:40.145Z</time></trkpt><trkpt lat="44.1146873" lon="8.017485"><ele>372.0</ele><time>2026-04-18T08:47:41.145Z</time></trkpt><trkpt lat="44.1146378" lon="8.0176838"><ele>370.75</ele><time>2026-04-18T08:47:42.144Z</time></trkpt><trkpt lat="44.1145868" lon="8.0178794"><ele>369.5</ele><time>2026-04-18T08:47:43.145Z</time></trkpt><trkpt lat="44.1145164" lon="8.0180546"><ele>368.25</ele><time>2026-04-18T08:47:44.145Z</time></trkpt><trkpt lat="44.114436" lon="8.0182149"><ele>367.0</ele><time>2026-04-18T08:47:45.145Z</time></trkpt><trkpt lat="44.11437" lon="8.0183809"><ele>366.3333333333333</ele><time>2026-04-18T08:47:46.145Z</time></trkpt><trkpt lat="44.1143306" lon="8.0185636"><ele>365.6666666666667</ele><time>2026-04-18T08:47:47.145Z</time></trkpt><trkpt lat="44.1143117" lon="8.0187746"><ele>365.0</ele><time>2026-04-18T08:47:48.144Z</time></trkpt><trkpt lat="44.1142856" lon="8.019001"><ele>363.5</ele><time>2026-04-18T08:47:49.145Z</time></trkpt><trkpt lat="44.1142508" lon="8.0191993"><ele>362.0</ele><time>2026-04-18T08:47:50.146Z</time></trkpt><trkpt lat="44.1142139" lon="8.0193738"><ele>360.5</ele><time>2026-04-18T08:47:51.146Z</time></trkpt><trkpt lat="44.1141968" lon="8.0195291"><ele>359.0</ele><time>2026-04-18T08:47:52.146Z</time></trkpt><trkpt lat="44.1142337" lon="8.0196563"><ele>359.0</ele><time>2026-04-18T08:47:53.146Z</time></trkpt><trkpt lat="44.1143184" lon="8.0197758"><ele>359.0</ele><time>2026-04-18T08:47:54.146Z</time></trkpt><trkpt lat="44.1144335" lon="8.0198898"><ele>359.0</ele><time>2026-04-18T08:47:55.146Z</time></trkpt><trkpt lat="44.1145489" lon="8.0200287"><ele>359.0</ele><time>2026-04-18T08:47:56.146Z</time></trkpt><trkpt lat="44.1146477" lon="8.020208"><ele>356.6666666666667</ele><time>2026-04-18T08:47:57.146Z</time></trkpt><trkpt lat="44.1147249" lon="8.0204225"><ele>354.3333333333333</ele><time>2026-04-18T08:47:58.146Z</time></trkpt><trkpt lat="44.1147822" lon="8.0206637"><ele>352.0</ele><time>2026-04-18T08:47:59.146Z</time></trkpt><trkpt lat="44.1148175" lon="8.0209145"><ele>350.75</ele><time>2026-04-18T08:48:00.146Z</time></trkpt><trkpt lat="44.1148436" lon="8.0211507"><ele>349.5</ele><time>2026-04-18T08:48:01.145Z</time></trkpt><trkpt lat="44.1148672" lon="8.0213579"><ele>348.25</ele><time>2026-04-18T08:48:02.146Z</time></trkpt><trkpt lat="44.1149021" lon="8.0215282"><ele>347.0</ele><time>2026-04-18T08:48:03.146Z</time></trkpt><trkpt lat="44.1149708" lon="8.021663"><ele>347.0</ele><time>2026-04-18T08:48:04.146Z</time></trkpt><trkpt lat="44.1150688" lon="8.0217675"><ele>347.0</ele><time>2026-04-18T08:48:05.145Z</time></trkpt><trkpt lat="44.1151795" lon="8.0218506"><ele>347.0</ele><time>2026-04-18T08:48:06.146Z</time></trkpt><trkpt lat="44.1152497" lon="8.0219609"><ele>347.0</ele><time>2026-04-18T08:48:07.146Z</time></trkpt><trkpt lat="44.1152814" lon="8.0220931"><ele>347.0</ele><time>2026-04-18T08:48:08.146Z</time></trkpt><trkpt lat="44.1152752" lon="8.0222683"><ele>347.0</ele><time>2026-04-18T08:48:09.146Z</time></trkpt><trkpt lat="44.1152667" lon="8.0224617"><ele>347.0</ele><time>2026-04-18T08:48:10.146Z</time></trkpt><trkpt lat="44.1152753" lon="8.0226893"><ele>347.0</ele><time>2026-04-18T08:48:11.145Z</time></trkpt><trkpt lat="44.115303" lon="8.022926"><ele>342.6666666666667</ele><time>2026-04-18T08:48:12.145Z</time></trkpt><trkpt lat="44.1153393" lon="8.023175"><ele>338.3333333333333</ele><time>2026-04-18T08:48:13.146Z</time></trkpt><trkpt lat="44.1153845" lon="8.0234383"><ele>334.0</ele><time>2026-04-18T08:48:14.146Z</time></trkpt><trkpt lat="44.1154313" lon="8.0237084"><ele>333.0</ele><time>2026-04-18T08:48:15.146Z</time></trkpt><trkpt lat="44.1154778" lon="8.0239832"><ele>332.0</ele><time>2026-04-18T08:48:16.146Z</time></trkpt><trkpt lat="44.1155188" lon="8.0242448"><ele>331.0</ele><time>2026-04-18T08:48:17.146Z</time></trkpt><trkpt lat="44.1155546" lon="8.0244948"><ele>331.0</ele><time>2026-04-18T08:48:18.146Z</time></trkpt><trkpt lat="44.1155916" lon="8.0247371"><ele>331.0</ele><time>2026-04-18T08:48:19.146Z</time></trkpt><trkpt lat="44.1156181" lon="8.024968"><ele>331.0</ele><time>2026-04-18T08:48:20.146Z</time></trkpt><trkpt lat="44.1156277" lon="8.0251899"><ele>329.0</ele><time>2026-04-18T08:48:21.146Z</time></trkpt><trkpt lat="44.1156057" lon="8.0254189"><ele>327.0</ele><time>2026-04-18T08:48:22.146Z</time></trkpt><trkpt lat="44.115563" lon="8.0256475"><ele>325.0</ele><time>2026-04-18T08:48:23.146Z</time></trkpt><trkpt lat="44.1155298" lon="8.0258716"><ele>324.25</ele><time>2026-04-18T08:48:24.146Z</time></trkpt><trkpt lat="44.1155166" lon="8.0260828"><ele>323.5</ele><time>2026-04-18T08:48:25.145Z</time></trkpt><trkpt lat="44.1155045" lon="8.0262844"><ele>322.75</ele><time>2026-04-18T08:48:26.146Z</time></trkpt><trkpt lat="44.1154721" lon="8.0264535"><ele>322.0</ele><time>2026-04-18T08:48:27.145Z</time></trkpt><trkpt lat="44.1153989" lon="8.0266013"><ele>321.66666666666663</ele><time>2026-04-18T08:48:28.146Z</time></trkpt><trkpt lat="44.115303" lon="8.0267567"><ele>321.3333333333333</ele><time>2026-04-18T08:48:29.146Z</time></trkpt><trkpt lat="44.1151922" lon="8.0269151"><ele>321.0</ele><time>2026-04-18T08:48:30.146Z</time></trkpt><trkpt lat="44.1150692" lon="8.0270799"><ele>321.0</ele><time>2026-04-18T08:48:31.146Z</time></trkpt><trkpt lat="44.114947" lon="8.0272465"><ele>321.0</ele><time>2026-04-18T08:48:32.146Z</time></trkpt><trkpt lat="44.1148272" lon="8.0274119"><ele>321.0</ele><time>2026-04-18T08:48:33.146Z</time></trkpt><trkpt lat="44.114727" lon="8.0275736"><ele>319.5</ele><time>2026-04-18T08:48:34.146Z</time></trkpt><trkpt lat="44.1146535" lon="8.0277428"><ele>318.0</ele><time>2026-04-18T08:48:35.146Z</time></trkpt><trkpt lat="44.1146049" lon="8.0279108"><ele>316.5</ele><time>2026-04-18T08:48:36.145Z</time></trkpt><trkpt lat="44.1145732" lon="8.028066"><ele>315.0</ele><time>2026-04-18T08:48:37.146Z</time></trkpt><trkpt lat="44.1145399" lon="8.0282006"><ele>313.75</ele><time>2026-04-18T08:48:38.146Z</time></trkpt><trkpt lat="44.114486" lon="8.0283413"><ele>312.5</ele><time>2026-04-18T08:48:39.146Z</time></trkpt><trkpt lat="44.1143923" lon="8.0284891"><ele>311.25</ele><time>2026-04-18T08:48:40.145Z</time></trkpt><trkpt lat="44.1142947" lon="8.0286702"><ele>310.0</ele><time>2026-04-18T08:48:41.145Z</time></trkpt><trkpt lat="44.1141949" lon="8.028856"><ele>310.0</ele><time>2026-04-18T08:48:42.146Z</time></trkpt><trkpt lat="44.114092" lon="8.0290504"><ele>310.0</ele><time>2026-04-18T08:48:43.146Z</time></trkpt><trkpt lat="44.1139877" lon="8.0292407"><ele>310.0</ele><time>2026-04-18T08:48:44.146Z</time></trkpt><trkpt lat="44.113874" lon="8.029417"><ele>311.66666666666663</ele><time>2026-04-18T08:48:45.146Z</time></trkpt><trkpt lat="44.1137459" lon="8.0295698"><ele>313.3333333333333</ele><time>2026-04-18T08:48:46.146Z</time></trkpt><trkpt lat="44.1136125" lon="8.0296998"><ele>315.0</ele><time>2026-04-18T08:48:47.146Z</time></trkpt><trkpt lat="44.1134919" lon="8.0298197"><ele>315.0</ele><time>2026-04-18T08:48:48.146Z</time></trkpt><trkpt lat="44.1134037" lon="8.0299712"><ele>315.0</ele><time>2026-04-18T08:48:49.145Z</time></trkpt><trkpt lat="44.1133483" lon="8.0301589"><ele>315.0</ele><time>2026-04-18T08:48:50.145Z</time></trkpt><trkpt lat="44.1133228" lon="8.0303491"><ele>315.0</ele><time>2026-04-18T08:48:51.146Z</time></trkpt><trkpt lat="44.1133228" lon="8.0304994"><ele>312.8</ele><time>2026-04-18T08:48:52.146Z</time></trkpt><trkpt lat="44.1133674" lon="8.0306215"><ele>310.6</ele><time>2026-04-18T08:48:53.146Z</time></trkpt><trkpt lat="44.1134449" lon="8.0306781"><ele>308.4</ele><time>2026-04-18T08:48:54.145Z</time></trkpt><trkpt lat="44.1135464" lon="8.0306968"><ele>306.2</ele><time>2026-04-18T08:48:55.146Z</time></trkpt><trkpt lat="44.1136568" lon="8.0306575"><ele>304.0</ele><time>2026-04-18T08:48:56.146Z</time></trkpt><trkpt lat="44.1137725" lon="8.0305905"><ele>304.0</ele><time>2026-04-18T08:48:57.146Z</time></trkpt><trkpt lat="44.1138803" lon="8.0305333"><ele>304.0</ele><time>2026-04-18T08:48:58.146Z</time></trkpt><trkpt lat="44.1139785" lon="8.0304882"><ele>304.0</ele><time>2026-04-18T08:48:59.146Z</time></trkpt><trkpt lat="44.1140744" lon="8.0304863"><ele>304.0</ele><time>2026-04-18T08:49:00.145Z</time></trkpt><trkpt lat="44.1141517" lon="8.0305431"><ele>304.0</ele><time>2026-04-18T08:49:01.146Z</time></trkpt><trkpt lat="44.1142135" lon="8.0306444"><ele>304.3333333333333</ele><time>2026-04-18T08:49:02.146Z</time></trkpt><trkpt lat="44.1142609" lon="8.0307629"><ele>304.66666666666663</ele><time>2026-04-18T08:49:03.146Z</time></trkpt><trkpt lat="44.1142922" lon="8.0308769"><ele>305.0</ele><time>2026-04-18T08:49:04.145Z</time></trkpt><trkpt lat="44.1142821" lon="8.0309806"><ele>305.3333333333333</ele><time>2026-04-18T08:49:05.146Z</time></trkpt><trkpt lat="44.1142299" lon="8.0310776"><ele>305.6666666666667</ele><time>2026-04-18T08:49:06.146Z</time></trkpt><trkpt lat="44.1141395" lon="8.0311319"><ele>306.0</ele><time>2026-04-18T08:49:07.146Z</time></trkpt><trkpt lat="44.1140186" lon="8.0311714"><ele>302.3333333333333</ele><time>2026-04-18T08:49:08.146Z</time></trkpt><trkpt lat="44.1138794" lon="8.0312125"><ele>298.66666666666663</ele><time>2026-04-18T08:49:09.145Z</time></trkpt><trkpt lat="44.1137283" lon="8.0312552"><ele>295.0</ele><time>2026-04-18T08:49:10.146Z</time></trkpt><trkpt lat="44.1135606" lon="8.0313125"><ele>295.0</ele><time>2026-04-18T08:49:11.146Z</time></trkpt><trkpt lat="44.1133839" lon="8.0313768"><ele>295.0</ele><time>2026-04-18T08:49:12.145Z</time></trkpt><trkpt lat="44.113212" lon="8.0314489"><ele>295.0</ele><time>2026-04-18T08:49:13.146Z</time></trkpt><trkpt lat="44.1130576" lon="8.0315498"><ele>298.0</ele><time>2026-04-18T08:49:14.146Z</time></trkpt><trkpt lat="44.1129121" lon="8.0316442"><ele>301.0</ele><time>2026-04-18T08:49:15.146Z</time></trkpt><trkpt lat="44.112784" lon="8.0317473"><ele>304.0</ele><time>2026-04-18T08:49:16.146Z</time></trkpt><trkpt lat="44.1126725" lon="8.0318587"><ele>307.0</ele><time>2026-04-18T08:49:17.146Z</time></trkpt><trkpt lat="44.1125609" lon="8.0319741"><ele>307.0</ele><time>2026-04-18T08:49:18.145Z</time></trkpt><trkpt lat="44.1124249" lon="8.0320595"><ele>307.0</ele><time>2026-04-18T08:49:19.146Z</time></trkpt><trkpt lat="44.1122647" lon="8.0321251"><ele>307.0</ele><time>2026-04-18T08:49:20.146Z</time></trkpt><trkpt lat="44.112098" lon="8.0321564"><ele>310.25</ele><time>2026-04-18T08:49:21.146Z</time></trkpt><trkpt lat="44.1119404" lon="8.0321724"><ele>313.5</ele><time>2026-04-18T08:49:22.146Z</time></trkpt><trkpt lat="44.1118005" lon="8.0322098"><ele>316.75</ele><time>2026-04-18T08:49:23.145Z</time></trkpt><trkpt lat="44.1116724" lon="8.0322561"><ele>320.0</ele><time>2026-04-18T08:49:24.146Z</time></trkpt><trkpt lat="44.1115619" lon="8.03231"><ele>316.0</ele><time>2026-04-18T08:49:25.146Z</time></trkpt><trkpt lat="44.1114562" lon="8.0323942"><ele>312.0</ele><time>2026-04-18T08:49:26.146Z</time></trkpt><trkpt lat="44.1113597" lon="8.0325264"><ele>308.0</ele><time>2026-04-18T08:49:27.146Z</time></trkpt><trkpt lat="44.1112659" lon="8.0326725"><ele>304.0</ele><time>2026-04-18T08:49:28.146Z</time></trkpt><trkpt lat="44.1111609" lon="8.0327974"><ele>304.0</ele><time>2026-04-18T08:49:29.146Z</time></trkpt><trkpt lat="44.1110495" lon="8.0329049"><ele>304.0</ele><time>2026-04-18T08:49:30.145Z</time></trkpt><trkpt lat="44.1109499" lon="8.0330396"><ele>304.0</ele><time>2026-04-18T08:49:31.145Z</time></trkpt><trkpt lat="44.1108691" lon="8.0332159"><ele>304.0</ele><time>2026-04-18T08:49:32.145Z</time></trkpt><trkpt lat="44.1108162" lon="8.0334112"><ele>299.75</ele><time>2026-04-18T08:49:33.146Z</time></trkpt><trkpt lat="44.1108047" lon="8.033619"><ele>295.5</ele><time>2026-04-18T08:49:34.146Z</time></trkpt><trkpt lat="44.1108259" lon="8.0338093"><ele>291.25</ele><time>2026-04-18T08:49:35.147Z</time></trkpt><trkpt lat="44.1108897" lon="8.0339862"><ele>287.0</ele><time>2026-04-18T08:49:36.147Z</time></trkpt><trkpt lat="44.1109821" lon="8.0341777"><ele>286.0</ele><time>2026-04-18T08:49:37.146Z</time></trkpt><trkpt lat="44.1110843" lon="8.0343762"><ele>285.0</ele><time>2026-04-18T08:49:38.146Z</time></trkpt><trkpt lat="44.111187" lon="8.0345846"><ele>284.0</ele><time>2026-04-18T08:49:39.147Z</time></trkpt><trkpt lat="44.1112851" lon="8.0347931"><ele>285.0</ele><time>2026-04-18T08:49:40.147Z</time></trkpt><trkpt lat="44.1113754" lon="8.0349972"><ele>286.0</ele><time>2026-04-18T08:49:41.146Z</time></trkpt><trkpt lat="44.1114558" lon="8.0352073"><ele>287.0</ele><time>2026-04-18T08:49:42.147Z</time></trkpt><trkpt lat="44.1115129" lon="8.0354396"><ele>287.0</ele><time>2026-04-18T08:49:43.147Z</time></trkpt><trkpt lat="44.1115498" lon="8.0356835"><ele>287.0</ele><time>2026-04-18T08:49:44.147Z</time></trkpt><trkpt lat="44.1115761" lon="8.0359218"><ele>287.0</ele><time>2026-04-18T08:49:45.147Z</time></trkpt><trkpt lat="44.1116015" lon="8.0361514"><ele>286.0</ele><time>2026-04-18T08:49:46.147Z</time></trkpt><trkpt lat="44.1116014" lon="8.0363865"><ele>285.0</ele><time>2026-04-18T08:49:47.147Z</time></trkpt><trkpt lat="44.1115675" lon="8.0366128"><ele>284.0</ele><time>2026-04-18T08:49:48.146Z</time></trkpt><trkpt lat="44.1115152" lon="8.036822"><ele>280.5</ele><time>2026-04-18T08:49:49.147Z</time></trkpt><trkpt lat="44.1114633" lon="8.0369957"><ele>277.0</ele><time>2026-04-18T08:49:50.147Z</time></trkpt><trkpt lat="44.1114008" lon="8.0371267"><ele>273.5</ele><time>2026-04-18T08:49:51.147Z</time></trkpt><trkpt lat="44.1113111" lon="8.0372095"><ele>270.0</ele><time>2026-04-18T08:49:52.146Z</time></trkpt><trkpt lat="44.1111895" lon="8.0372597"><ele>270.0</ele><time>2026-04-18T08:49:53.147Z</time></trkpt><trkpt lat="44.1110369" lon="8.0372775"><ele>270.0</ele><time>2026-04-18T08:49:54.147Z</time></trkpt><trkpt lat="44.1108689" lon="8.0372899"><ele>270.0</ele><time>2026-04-18T08:49:55.146Z</time></trkpt><trkpt lat="44.1106906" lon="8.037294"><ele>269.6666666666667</ele><time>2026-04-18T08:49:56.146Z</time></trkpt><trkpt lat="44.1105061" lon="8.0373123"><ele>269.33333333333337</ele><time>2026-04-18T08:49:57.147Z</time></trkpt><trkpt lat="44.1103184" lon="8.0373526"><ele>269.0</ele><time>2026-04-18T08:49:58.147Z</time></trkpt><trkpt lat="44.1101332" lon="8.0373976"><ele>269.0</ele><time>2026-04-18T08:49:59.147Z</time></trkpt><trkpt lat="44.1099619" lon="8.0374431"><ele>269.0</ele><time>2026-04-18T08:50:00.147Z</time></trkpt><trkpt lat="44.1098092" lon="8.0375167"><ele>269.0</ele><time>2026-04-18T08:50:01.147Z</time></trkpt><trkpt lat="44.1096676" lon="8.0376354"><ele>269.6666666666667</ele><time>2026-04-18T08:50:02.147Z</time></trkpt><trkpt lat="44.1095388" lon="8.037797"><ele>270.3333333333333</ele><time>2026-04-18T08:50:03.146Z</time></trkpt><trkpt lat="44.1094269" lon="8.0379919"><ele>271.0</ele><time>2026-04-18T08:50:04.146Z</time></trkpt><trkpt lat="44.1093189" lon="8.0382063"><ele>268.0</ele><time>2026-04-18T08:50:05.147Z</time></trkpt><trkpt lat="44.109209" lon="8.0384296"><ele>265.0</ele><time>2026-04-18T08:50:06.146Z</time></trkpt><trkpt lat="44.109102" lon="8.0386444"><ele>262.0</ele><time>2026-04-18T08:50:07.147Z</time></trkpt><trkpt lat="44.1090039" lon="8.0388459"><ele>265.66666666666663</ele><time>2026-04-18T08:50:08.146Z</time></trkpt><trkpt lat="44.1089278" lon="8.0390594"><ele>269.3333333333333</ele><time>2026-04-18T08:50:09.147Z</time></trkpt><trkpt lat="44.1088747" lon="8.0392928"><ele>273.0</ele><time>2026-04-18T08:50:10.147Z</time></trkpt><trkpt lat="44.1088514" lon="8.0395494"><ele>273.0</ele><time>2026-04-18T08:50:11.146Z</time></trkpt><trkpt lat="44.1088503" lon="8.0398167"><ele>273.0</ele><time>2026-04-18T08:50:12.146Z</time></trkpt><trkpt lat="44.1088683" lon="8.0400902"><ele>273.0</ele><time>2026-04-18T08:50:13.146Z</time></trkpt><trkpt lat="44.1089022" lon="8.0403586"><ele>274.0</ele><time>2026-04-18T08:50:14.147Z</time></trkpt><trkpt lat="44.1089544" lon="8.0406225"><ele>275.0</ele><time>2026-04-18T08:50:15.147Z</time></trkpt><trkpt lat="44.1090271" lon="8.0408916"><ele>276.0</ele><time>2026-04-18T08:50:16.147Z</time></trkpt><trkpt lat="44.1090866" lon="8.0411699"><ele>276.0</ele><time>2026-04-18T08:50:17.146Z</time></trkpt><trkpt lat="44.1091197" lon="8.0414514"><ele>276.0</ele><time>2026-04-18T08:50:18.147Z</time></trkpt><trkpt lat="44.1091374" lon="8.0417287"><ele>276.0</ele><time>2026-04-18T08:50:19.146Z</time></trkpt><trkpt lat="44.1091751" lon="8.0420069"><ele>273.6666666666667</ele><time>2026-04-18T08:50:20.147Z</time></trkpt><trkpt lat="44.109234" lon="8.0422788"><ele>271.33333333333337</ele><time>2026-04-18T08:50:21.146Z</time></trkpt><trkpt lat="44.1093052" lon="8.0425497"><ele>269.0</ele><time>2026-04-18T08:50:22.147Z</time></trkpt><trkpt lat="44.1093838" lon="8.0428139"><ele>266.0</ele><time>2026-04-18T08:50:23.146Z</time></trkpt><trkpt lat="44.1094534" lon="8.0430865"><ele>263.0</ele><time>2026-04-18T08:50:24.147Z</time></trkpt><trkpt lat="44.109507" lon="8.0433753"><ele>260.0</ele><time>2026-04-18T08:50:25.147Z</time></trkpt><trkpt lat="44.1095533" lon="8.0436594"><ele>257.33333333333337</ele><time>2026-04-18T08:50:26.147Z</time></trkpt><trkpt lat="44.1095984" lon="8.0439261"><ele>254.66666666666669</ele><time>2026-04-18T08:50:27.146Z</time></trkpt><trkpt lat="44.1096424" lon="8.0441758"><ele>252.0</ele><time>2026-04-18T08:50:28.146Z</time></trkpt><trkpt lat="44.1096744" lon="8.04442"><ele>251.66666666666669</ele><time>2026-04-18T08:50:29.146Z</time></trkpt><trkpt lat="44.1096887" lon="8.0446732"><ele>251.33333333333334</ele><time>2026-04-18T08:50:30.147Z</time></trkpt><trkpt lat="44.1096986" lon="8.0449453"><ele>251.0</ele><time>2026-04-18T08:50:31.147Z</time></trkpt><trkpt lat="44.1097189" lon="8.0452261"><ele>251.0</ele><time>2026-04-18T08:50:32.146Z</time></trkpt><trkpt lat="44.1097484" lon="8.0454988"><ele>251.0</ele><time>2026-04-18T08:50:33.146Z</time></trkpt><trkpt lat="44.1097767" lon="8.045764"><ele>251.0</ele><time>2026-04-18T08:50:34.146Z</time></trkpt><trkpt lat="44.1097976" lon="8.046029"><ele>251.0</ele><time>2026-04-18T08:50:35.146Z</time></trkpt><trkpt lat="44.1098026" lon="8.0463038"><ele>251.0</ele><time>2026-04-18T08:50:36.147Z</time></trkpt><trkpt lat="44.1097967" lon="8.0465838"><ele>251.0</ele><time>2026-04-18T08:50:37.146Z</time></trkpt><trkpt lat="44.1097851" lon="8.0468608"><ele>251.0</ele><time>2026-04-18T08:50:38.147Z</time></trkpt><trkpt lat="44.1097855" lon="8.047136"><ele>251.0</ele><time>2026-04-18T08:50:39.147Z</time></trkpt><trkpt lat="44.109799" lon="8.0474109"><ele>251.0</ele><time>2026-04-18T08:50:40.146Z</time></trkpt><trkpt lat="44.1098265" lon="8.0476913"><ele>251.0</ele><time>2026-04-18T08:50:41.147Z</time></trkpt><trkpt lat="44.1098555" lon="8.0479645"><ele>251.0</ele><time>2026-04-18T08:50:42.147Z</time></trkpt><trkpt lat="44.1098791" lon="8.0482154"><ele>251.0</ele><time>2026-04-18T08:50:43.147Z</time></trkpt><trkpt lat="44.1098893" lon="8.0484417"><ele>251.0</ele><time>2026-04-18T08:50:44.147Z</time></trkpt><trkpt lat="44.1098717" lon="8.0486582"><ele>251.0</ele><time>2026-04-18T08:50:45.147Z</time></trkpt><trkpt lat="44.109817" lon="8.0488573"><ele>251.0</ele><time>2026-04-18T08:50:46.146Z</time></trkpt><trkpt lat="44.109746" lon="8.049065"><ele>251.66666666666669</ele><time>2026-04-18T08:50:47.147Z</time></trkpt><trkpt lat="44.1097276" lon="8.0493003"><ele>252.33333333333331</ele><time>2026-04-18T08:50:48.146Z</time></trkpt><trkpt lat="44.1097588" lon="8.0495377"><ele>253.0</ele><time>2026-04-18T08:50:49.146Z</time></trkpt><trkpt lat="44.1098056" lon="8.0497781"><ele>252.66666666666666</ele><time>2026-04-18T08:50:50.146Z</time></trkpt><trkpt lat="44.1098746" lon="8.0499982"><ele>252.33333333333331</ele><time>2026-04-18T08:50:51.147Z</time></trkpt><trkpt lat="44.1099685" lon="8.0502224"><ele>252.0</ele><time>2026-04-18T08:50:52.147Z</time></trkpt><trkpt lat="44.1100727" lon="8.0504421"><ele>246.33333333333331</ele><time>2026-04-18T08:50:53.146Z</time></trkpt><trkpt lat="44.1101715" lon="8.0506752"><ele>240.66666666666666</ele><time>2026-04-18T08:50:54.147Z</time></trkpt><trkpt lat="44.1102623" lon="8.0509078"><ele>235.0</ele><time>2026-04-18T08:50:55.146Z</time></trkpt><trkpt lat="44.1103402" lon="8.0511482"><ele>233.66666666666666</ele><time>2026-04-18T08:50:56.147Z</time></trkpt><trkpt lat="44.1104077" lon="8.0513962"><ele>232.33333333333331</ele><time>2026-04-18T08:50:57.147Z</time></trkpt><trkpt lat="44.1104787" lon="8.0516388"><ele>231.0</ele><time>2026-04-18T08:50:58.147Z</time></trkpt><trkpt lat="44.1105648" lon="8.0518817"><ele>231.0</ele><time>2026-04-18T08:50:59.146Z</time></trkpt><trkpt lat="44.1106736" lon="8.0521301"><ele>231.0</ele><time>2026-04-18T08:51:00.147Z</time></trkpt><trkpt lat="44.1107912" lon="8.0523814"><ele>231.0</ele><time>2026-04-18T08:51:01.147Z</time></trkpt><trkpt lat="44.1109143" lon="8.0526439"><ele>230.33333333333331</ele><time>2026-04-18T08:51:02.147Z</time></trkpt><trkpt lat="44.1110395" lon="8.0529012"><ele>229.66666666666666</ele><time>2026-04-18T08:51:03.147Z</time></trkpt><trkpt lat="44.1111722" lon="8.053155"><ele>229.0</ele><time>2026-04-18T08:51:04.146Z</time></trkpt><trkpt lat="44.1112987" lon="8.0533967"><ele>228.0</ele><time>2026-04-18T08:51:05.146Z</time></trkpt><trkpt lat="44.1114234" lon="8.053628"><ele>227.0</ele><time>2026-04-18T08:51:06.147Z</time></trkpt><trkpt lat="44.1115458" lon="8.053852"><ele>226.0</ele><time>2026-04-18T08:51:07.146Z</time></trkpt><trkpt lat="44.1116469" lon="8.0540788"><ele>224.66666666666666</ele><time>2026-04-18T08:51:08.147Z</time></trkpt><trkpt lat="44.1117294" lon="8.0543078"><ele>223.33333333333331</ele><time>2026-04-18T08:51:09.146Z</time></trkpt><trkpt lat="44.1117984" lon="8.0545277"><ele>222.0</ele><time>2026-04-18T08:51:10.147Z</time></trkpt><trkpt lat="44.1118405" lon="8.0547577"><ele>222.0</ele><time>2026-04-18T08:51:11.146Z</time></trkpt><trkpt lat="44.1118546" lon="8.0549873"><ele>222.0</ele><time>2026-04-18T08:51:12.147Z</time></trkpt><trkpt lat="44.1118364" lon="8.0552243"><ele>222.0</ele><time>2026-04-18T08:51:13.147Z</time></trkpt><trkpt lat="44.1118044" lon="8.0554772"><ele>222.0</ele><time>2026-04-18T08:51:14.147Z</time></trkpt><trkpt lat="44.1117904" lon="8.0557251"><ele>222.0</ele><time>2026-04-18T08:51:15.147Z</time></trkpt><trkpt lat="44.111801" lon="8.0559664"><ele>222.0</ele><time>2026-04-18T08:51:16.147Z</time></trkpt><trkpt lat="44.1118417" lon="8.0562173"><ele>220.33333333333331</ele><time>2026-04-18T08:51:17.146Z</time></trkpt><trkpt lat="44.1118994" lon="8.05648"><ele>218.66666666666666</ele><time>2026-04-18T08:51:18.148Z</time></trkpt><trkpt lat="44.1119706" lon="8.056746"><ele>217.0</ele><time>2026-04-18T08:51:19.148Z</time></trkpt><trkpt lat="44.112055" lon="8.0570105"><ele>216.66666666666666</ele><time>2026-04-18T08:51:20.147Z</time></trkpt><trkpt lat="44.1121239" lon="8.0572795"><ele>216.33333333333331</ele><time>2026-04-18T08:51:21.148Z</time></trkpt><trkpt lat="44.1121612" lon="8.0575577"><ele>216.0</ele><time>2026-04-18T08:51:22.148Z</time></trkpt><trkpt lat="44.1121831" lon="8.0578206"><ele>216.0</ele><time>2026-04-18T08:51:23.148Z</time></trkpt><trkpt lat="44.1122188" lon="8.0580716"><ele>216.0</ele><time>2026-04-18T08:51:24.148Z</time></trkpt><trkpt lat="44.112262" lon="8.0583148"><ele>216.0</ele><time>2026-04-18T08:51:25.148Z</time></trkpt><trkpt lat="44.1122771" lon="8.0585498"><ele>215.0</ele><time>2026-04-18T08:51:26.148Z</time></trkpt><trkpt lat="44.1122577" lon="8.0587991"><ele>214.0</ele><time>2026-04-18T08:51:27.147Z</time></trkpt><trkpt lat="44.1122213" lon="8.0590644"><ele>213.0</ele><time>2026-04-18T08:51:28.148Z</time></trkpt><trkpt lat="44.1121868" lon="8.0593415"><ele>212.66666666666669</ele><time>2026-04-18T08:51:29.148Z</time></trkpt><trkpt lat="44.1121718" lon="8.0596265"><ele>212.33333333333334</ele><time>2026-04-18T08:51:30.148Z</time></trkpt><trkpt lat="44.1121759" lon="8.0599224"><ele>212.0</ele><time>2026-04-18T08:51:31.148Z</time></trkpt><trkpt lat="44.112205" lon="8.0602191"><ele>212.0</ele><time>2026-04-18T08:51:32.148Z</time></trkpt><trkpt lat="44.1122299" lon="8.0605136"><ele>212.0</ele><time>2026-04-18T08:51:33.147Z</time></trkpt><trkpt lat="44.1122411" lon="8.0608061"><ele>212.0</ele><time>2026-04-18T08:51:34.148Z</time></trkpt><trkpt lat="44.1122462" lon="8.0610914"><ele>212.33333333333334</ele><time>2026-04-18T08:51:35.148Z</time></trkpt><trkpt lat="44.1122488" lon="8.0613687"><ele>212.66666666666669</ele><time>2026-04-18T08:51:36.147Z</time></trkpt><trkpt lat="44.1122258" lon="8.0616426"><ele>213.0</ele><time>2026-04-18T08:51:37.148Z</time></trkpt><trkpt lat="44.1121814" lon="8.0619099"><ele>211.0</ele><time>2026-04-18T08:51:38.148Z</time></trkpt><trkpt lat="44.1121433" lon="8.062175"><ele>209.0</ele><time>2026-04-18T08:51:39.148Z</time></trkpt><trkpt lat="44.112128" lon="8.0624455"><ele>207.0</ele><time>2026-04-18T08:51:40.148Z</time></trkpt><trkpt lat="44.112096" lon="8.0627024"><ele>206.0</ele><time>2026-04-18T08:51:41.147Z</time></trkpt><trkpt lat="44.1120399" lon="8.0629451"><ele>205.0</ele><time>2026-04-18T08:51:42.148Z</time></trkpt><trkpt lat="44.1119601" lon="8.0631973"><ele>204.0</ele><time>2026-04-18T08:51:43.148Z</time></trkpt><trkpt lat="44.1118869" lon="8.0634713"><ele>204.0</ele><time>2026-04-18T08:51:44.148Z</time></trkpt><trkpt lat="44.1118307" lon="8.0637526"><ele>204.0</ele><time>2026-04-18T08:51:45.147Z</time></trkpt><trkpt lat="44.1117749" lon="8.0640437"><ele>204.0</ele><time>2026-04-18T08:51:46.148Z</time></trkpt><trkpt lat="44.1117049" lon="8.0643271"><ele>203.66666666666669</ele><time>2026-04-18T08:51:47.147Z</time></trkpt><trkpt lat="44.1116297" lon="8.0646136"><ele>203.33333333333334</ele><time>2026-04-18T08:51:48.148Z</time></trkpt><trkpt lat="44.1115526" lon="8.0649023"><ele>203.0</ele><time>2026-04-18T08:51:49.148Z</time></trkpt><trkpt lat="44.1114759" lon="8.065186"><ele>203.0</ele><time>2026-04-18T08:51:50.148Z</time></trkpt><trkpt lat="44.1114011" lon="8.0654684"><ele>203.0</ele><time>2026-04-18T08:51:51.148Z</time></trkpt><trkpt lat="44.1113381" lon="8.0657542"><ele>203.0</ele><time>2026-04-18T08:51:52.147Z</time></trkpt><trkpt lat="44.1112933" lon="8.0660516"><ele>201.66666666666669</ele><time>2026-04-18T08:51:53.148Z</time></trkpt><trkpt lat="44.1112569" lon="8.0663502"><ele>200.33333333333331</ele><time>2026-04-18T08:51:54.148Z</time></trkpt><trkpt lat="44.1112228" lon="8.066631"><ele>199.0</ele><time>2026-04-18T08:51:55.148Z</time></trkpt><trkpt lat="44.1111879" lon="8.0669024"><ele>199.0</ele><time>2026-04-18T08:51:56.148Z</time></trkpt><trkpt lat="44.1111529" lon="8.0671614"><ele>199.0</ele><time>2026-04-18T08:51:57.148Z</time></trkpt><trkpt lat="44.1111243" lon="8.0673902"><ele>199.0</ele><time>2026-04-18T08:51:58.148Z</time></trkpt><trkpt lat="44.1110979" lon="8.0675955"><ele>197.5</ele><time>2026-04-18T08:51:59.148Z</time></trkpt><trkpt lat="44.1110614" lon="8.0677717"><ele>196.0</ele><time>2026-04-18T08:52:00.147Z</time></trkpt><trkpt lat="44.1109953" lon="8.0679251"><ele>194.5</ele><time>2026-04-18T08:52:01.148Z</time></trkpt><trkpt lat="44.1109016" lon="8.0680779"><ele>193.0</ele><time>2026-04-18T08:52:02.148Z</time></trkpt><trkpt lat="44.1107967" lon="8.0682346"><ele>193.0</ele><time>2026-04-18T08:52:03.148Z</time></trkpt><trkpt lat="44.1107058" lon="8.0683934"><ele>193.0</ele><time>2026-04-18T08:52:04.148Z</time></trkpt><trkpt lat="44.1106268" lon="8.0685527"><ele>193.0</ele><time>2026-04-18T08:52:05.147Z</time></trkpt><trkpt lat="44.1105486" lon="8.0687103"><ele>193.0</ele><time>2026-04-18T08:52:06.148Z</time></trkpt><trkpt lat="44.1104678" lon="8.0688654"><ele>193.0</ele><time>2026-04-18T08:52:07.148Z</time></trkpt><trkpt lat="44.1103661" lon="8.0689844"><ele>193.0</ele><time>2026-04-18T08:52:08.148Z</time></trkpt><trkpt lat="44.11023" lon="8.0690398"><ele>193.0</ele><time>2026-04-18T08:52:09.147Z</time></trkpt><trkpt lat="44.1101126" lon="8.0691097"><ele>193.0</ele><time>2026-04-18T08:52:10.148Z</time></trkpt><trkpt lat="44.1100073" lon="8.0692295"><ele>192.0</ele><time>2026-04-18T08:52:11.148Z</time></trkpt><trkpt lat="44.1099453" lon="8.0693896"><ele>191.0</ele><time>2026-04-18T08:52:12.148Z</time></trkpt><trkpt lat="44.109912" lon="8.0695795"><ele>190.0</ele><time>2026-04-18T08:52:13.148Z</time></trkpt><trkpt lat="44.1099032" lon="8.0697975"><ele>189.0</ele><time>2026-04-18T08:52:14.147Z</time></trkpt><trkpt lat="44.1099027" lon="8.0700516"><ele>189.33333333333334</ele><time>2026-04-18T08:52:15.148Z</time></trkpt><trkpt lat="44.1099065" lon="8.0703281"><ele>189.66666666666669</ele><time>2026-04-18T08:52:16.148Z</time></trkpt><trkpt lat="44.1099093" lon="8.070621"><ele>190.0</ele><time>2026-04-18T08:52:17.148Z</time></trkpt><trkpt lat="44.1099216" lon="8.0709231"><ele>190.0</ele><time>2026-04-18T08:52:18.147Z</time></trkpt><trkpt lat="44.1099513" lon="8.0712246"><ele>190.0</ele><time>2026-04-18T08:52:19.148Z</time></trkpt><trkpt lat="44.1099868" lon="8.0715153"><ele>190.0</ele><time>2026-04-18T08:52:20.148Z</time></trkpt><trkpt lat="44.110017" lon="8.0717898"><ele>189.0</ele><time>2026-04-18T08:52:21.147Z</time></trkpt><trkpt lat="44.1100449" lon="8.0720382"><ele>188.0</ele><time>2026-04-18T08:52:22.148Z</time></trkpt><trkpt lat="44.1100717" lon="8.0722572"><ele>187.0</ele><time>2026-04-18T08:52:23.148Z</time></trkpt><trkpt lat="44.1100832" lon="8.072439"><ele>185.75</ele><time>2026-04-18T08:52:24.148Z</time></trkpt><trkpt lat="44.1100689" lon="8.0725916"><ele>184.5</ele><time>2026-04-18T08:52:25.148Z</time></trkpt><trkpt lat="44.1100151" lon="8.0727604"><ele>183.25</ele><time>2026-04-18T08:52:26.147Z</time></trkpt><trkpt lat="44.1099656" lon="8.0729409"><ele>182.0</ele><time>2026-04-18T08:52:27.148Z</time></trkpt><trkpt lat="44.1099422" lon="8.0731346"><ele>181.75</ele><time>2026-04-18T08:52:28.148Z</time></trkpt><trkpt lat="44.109945" lon="8.0733095"><ele>181.5</ele><time>2026-04-18T08:52:29.148Z</time></trkpt><trkpt lat="44.1099219" lon="8.0734632"><ele>181.25</ele><time>2026-04-18T08:52:30.148Z</time></trkpt><trkpt lat="44.109854" lon="8.0736313"><ele>181.0</ele><time>2026-04-18T08:52:31.148Z</time></trkpt><trkpt lat="44.109753" lon="8.0737791"><ele>182.0</ele><time>2026-04-18T08:52:32.148Z</time></trkpt><trkpt lat="44.1096264" lon="8.0739471"><ele>183.0</ele><time>2026-04-18T08:52:33.148Z</time></trkpt><trkpt lat="44.1094842" lon="8.0741364"><ele>184.0</ele><time>2026-04-18T08:52:34.148Z</time></trkpt><trkpt lat="44.1093378" lon="8.0743094"><ele>183.66666666666669</ele><time>2026-04-18T08:52:35.147Z</time></trkpt><trkpt lat="44.1091892" lon="8.07448"><ele>183.33333333333334</ele><time>2026-04-18T08:52:36.148Z</time></trkpt><trkpt lat="44.1090417" lon="8.0746394"><ele>183.0</ele><time>2026-04-18T08:52:37.148Z</time></trkpt><trkpt lat="44.1088872" lon="8.0747874"><ele>183.0</ele><time>2026-04-18T08:52:38.148Z</time></trkpt><trkpt lat="44.1087243" lon="8.0749137"><ele>183.0</ele><time>2026-04-18T08:52:39.147Z</time></trkpt><trkpt lat="44.1085556" lon="8.0750063"><ele>183.0</ele><time>2026-04-18T08:52:40.148Z</time></trkpt><trkpt lat="44.1083743" lon="8.0750553"><ele>179.66666666666666</ele><time>2026-04-18T08:52:41.148Z</time></trkpt><trkpt lat="44.1081938" lon="8.075088"><ele>176.33333333333331</ele><time>2026-04-18T08:52:42.148Z</time></trkpt><trkpt lat="44.1080267" lon="8.075119"><ele>173.0</ele><time>2026-04-18T08:52:43.148Z</time></trkpt><trkpt lat="44.1078792" lon="8.0751582"><ele>173.0</ele><time>2026-04-18T08:52:44.148Z</time></trkpt><trkpt lat="44.1077415" lon="8.0752324"><ele>173.0</ele><time>2026-04-18T08:52:45.148Z</time></trkpt><trkpt lat="44.1076118" lon="8.0753466"><ele>173.0</ele><time>2026-04-18T08:52:46.147Z</time></trkpt><trkpt lat="44.1075001" lon="8.0755088"><ele>175.66666666666666</ele><time>2026-04-18T08:52:47.148Z</time></trkpt><trkpt lat="44.1074103" lon="8.0757068"><ele>178.33333333333334</ele><time>2026-04-18T08:52:48.147Z</time></trkpt><trkpt lat="44.1073377" lon="8.0759332"><ele>181.0</ele><time>2026-04-18T08:52:49.147Z</time></trkpt><trkpt lat="44.107277" lon="8.076177"><ele>181.0</ele><time>2026-04-18T08:52:50.148Z</time></trkpt><trkpt lat="44.1072139" lon="8.0764297"><ele>181.0</ele><time>2026-04-18T08:52:51.148Z</time></trkpt><trkpt lat="44.1071525" lon="8.0766831"><ele>181.0</ele><time>2026-04-18T08:52:52.148Z</time></trkpt><trkpt lat="44.1070944" lon="8.0769365"><ele>179.33333333333334</ele><time>2026-04-18T08:52:53.147Z</time></trkpt><trkpt lat="44.107046" lon="8.0771959"><ele>177.66666666666666</ele><time>2026-04-18T08:52:54.147Z</time></trkpt><trkpt lat="44.107017" lon="8.0774649"><ele>176.0</ele><time>2026-04-18T08:52:55.148Z</time></trkpt><trkpt lat="44.1070036" lon="8.0777447"><ele>173.0</ele><time>2026-04-18T08:52:56.147Z</time></trkpt><trkpt lat="44.1069879" lon="8.0780236"><ele>170.0</ele><time>2026-04-18T08:52:57.148Z</time></trkpt><trkpt lat="44.1069602" lon="8.0782827"><ele>167.0</ele><time>2026-04-18T08:52:58.148Z</time></trkpt><trkpt lat="44.106926" lon="8.0785199"><ele>167.0</ele><time>2026-04-18T08:52:59.148Z</time></trkpt><trkpt lat="44.1068731" lon="8.0787405"><ele>167.0</ele><time>2026-04-18T08:53:00.148Z</time></trkpt><trkpt lat="44.1067817" lon="8.0789572"><ele>167.0</ele><time>2026-04-18T08:53:01.148Z</time></trkpt><trkpt lat="44.1066641" lon="8.0791795"><ele>169.66666666666666</ele><time>2026-04-18T08:53:02.149Z</time></trkpt><trkpt lat="44.1065528" lon="8.0794041"><ele>172.33333333333334</ele><time>2026-04-18T08:53:03.149Z</time></trkpt><trkpt lat="44.1064495" lon="8.0796175"><ele>175.0</ele><time>2026-04-18T08:53:04.148Z</time></trkpt><trkpt lat="44.1063351" lon="8.0798176"><ele>169.33333333333334</ele><time>2026-04-18T08:53:05.149Z</time></trkpt><trkpt lat="44.1062012" lon="8.0800049"><ele>163.66666666666666</ele><time>2026-04-18T08:53:06.149Z</time></trkpt><trkpt lat="44.1060634" lon="8.0801836"><ele>158.0</ele><time>2026-04-18T08:53:07.149Z</time></trkpt><trkpt lat="44.1059381" lon="8.0803731"><ele>158.0</ele><time>2026-04-18T08:53:08.149Z</time></trkpt><trkpt lat="44.1058347" lon="8.0805907"><ele>158.0</ele><time>2026-04-18T08:53:09.149Z</time></trkpt><trkpt lat="44.1057521" lon="8.0808265"><ele>158.0</ele><time>2026-04-18T08:53:10.148Z</time></trkpt><trkpt lat="44.1056594" lon="8.0810527"><ele>158.66666666666666</ele><time>2026-04-18T08:53:11.148Z</time></trkpt><trkpt lat="44.1055482" lon="8.0812606"><ele>159.33333333333334</ele><time>2026-04-18T08:53:12.148Z</time></trkpt><trkpt lat="44.1054282" lon="8.081457"><ele>160.0</ele><time>2026-04-18T08:53:13.149Z</time></trkpt><trkpt lat="44.1053265" lon="8.0816724"><ele>158.66666666666669</ele><time>2026-04-18T08:53:14.149Z</time></trkpt><trkpt lat="44.1052562" lon="8.0818927"><ele>157.33333333333334</ele><time>2026-04-18T08:53:15.149Z</time></trkpt><trkpt lat="44.1052061" lon="8.0820936"><ele>156.0</ele><time>2026-04-18T08:53:16.148Z</time></trkpt><trkpt lat="44.1051309" lon="8.0822647"><ele>156.0</ele><time>2026-04-18T08:53:17.149Z</time></trkpt><trkpt lat="44.10502" lon="8.0824091"><ele>156.0</ele><time>2026-04-18T08:53:18.149Z</time></trkpt><trkpt lat="44.104881" lon="8.0825271"><ele>156.0</ele><time>2026-04-18T08:53:19.148Z</time></trkpt><trkpt lat="44.1047346" lon="8.0826226"><ele>159.0</ele><time>2026-04-18T08:53:20.149Z</time></trkpt><trkpt lat="44.104592" lon="8.0827379"><ele>162.0</ele><time>2026-04-18T08:53:21.148Z</time></trkpt><trkpt lat="44.1044623" lon="8.0828937"><ele>165.0</ele><time>2026-04-18T08:53:22.148Z</time></trkpt><trkpt lat="44.1043265" lon="8.083079"><ele>165.0</ele><time>2026-04-18T08:53:23.149Z</time></trkpt><trkpt lat="44.104185" lon="8.0832774"><ele>165.0</ele><time>2026-04-18T08:53:24.149Z</time></trkpt><trkpt lat="44.1040444" lon="8.0834756"><ele>165.0</ele><time>2026-04-18T08:53:25.149Z</time></trkpt><trkpt lat="44.103908" lon="8.0836664"><ele>165.0</ele><time>2026-04-18T08:53:26.148Z</time></trkpt><trkpt lat="44.1037757" lon="8.0838519"><ele>165.0</ele><time>2026-04-18T08:53:27.149Z</time></trkpt><trkpt lat="44.1036492" lon="8.0840293"><ele>165.0</ele><time>2026-04-18T08:53:28.148Z</time></trkpt><trkpt lat="44.1035329" lon="8.0841865"><ele>161.75</ele><time>2026-04-18T08:53:29.149Z</time></trkpt><trkpt lat="44.1034432" lon="8.0843302"><ele>158.5</ele><time>2026-04-18T08:53:30.148Z</time></trkpt><trkpt lat="44.1033855" lon="8.0844765"><ele>155.25</ele><time>2026-04-18T08:53:31.149Z</time></trkpt><trkpt lat="44.103368" lon="8.0846282"><ele>152.0</ele><time>2026-04-18T08:53:32.149Z</time></trkpt><trkpt lat="44.1034036" lon="8.0847834"><ele>152.0</ele><time>2026-04-18T08:53:33.149Z</time></trkpt><trkpt lat="44.1034776" lon="8.0849027"><ele>152.0</ele><time>2026-04-18T08:53:34.148Z</time></trkpt><trkpt lat="44.1035854" lon="8.0849696"><ele>152.0</ele><time>2026-04-18T08:53:35.149Z</time></trkpt><trkpt lat="44.103692" lon="8.0849762"><ele>152.0</ele><time>2026-04-18T08:53:36.149Z</time></trkpt><trkpt lat="44.1038005" lon="8.0849845"><ele>152.0</ele><time>2026-04-18T08:53:37.149Z</time></trkpt><trkpt lat="44.1039098" lon="8.0850263"><ele>151.0</ele><time>2026-04-18T08:53:38.148Z</time></trkpt><trkpt lat="44.1040209" lon="8.0851022"><ele>150.0</ele><time>2026-04-18T08:53:39.149Z</time></trkpt><trkpt lat="44.1041323" lon="8.0852052"><ele>149.0</ele><time>2026-04-18T08:53:40.148Z</time></trkpt><trkpt lat="44.1042398" lon="8.0853353"><ele>148.0</ele><time>2026-04-18T08:53:41.148Z</time></trkpt><trkpt lat="44.1043389" lon="8.0854883"><ele>147.66666666666669</ele><time>2026-04-18T08:53:42.148Z</time></trkpt><trkpt lat="44.1044309" lon="8.0856619"><ele>147.33333333333334</ele><time>2026-04-18T08:53:43.149Z</time></trkpt><trkpt lat="44.1045159" lon="8.0858559"><ele>147.0</ele><time>2026-04-18T08:53:44.149Z</time></trkpt><trkpt lat="44.1045991" lon="8.0860545"><ele>147.0</ele><time>2026-04-18T08:53:45.149Z</time></trkpt><trkpt lat="44.1046739" lon="8.0862517"><ele>147.0</ele><time>2026-04-18T08:53:46.148Z</time></trkpt><trkpt lat="44.1047315" lon="8.0864658"><ele>147.0</ele><time>2026-04-18T08:53:47.149Z</time></trkpt><trkpt lat="44.1047628" lon="8.0866776"><ele>146.66666666666666</ele><time>2026-04-18T08:53:48.149Z</time></trkpt><trkpt lat="44.1047655" lon="8.0869008"><ele>146.33333333333331</ele><time>2026-04-18T08:53:49.148Z</time></trkpt><trkpt lat="44.1047381" lon="8.0871413"><ele>146.0</ele><time>2026-04-18T08:53:50.149Z</time></trkpt><trkpt lat="44.1046852" lon="8.0873954"><ele>144.66666666666666</ele><time>2026-04-18T08:53:51.149Z</time></trkpt><trkpt lat="44.1046086" lon="8.0876497"><ele>143.33333333333334</ele><time>2026-04-18T08:53:52.148Z</time></trkpt><trkpt lat="44.1045175" lon="8.0879075"><ele>142.0</ele><time>2026-04-18T08:53:53.149Z</time></trkpt><trkpt lat="44.1044261" lon="8.0881674"><ele>143.0</ele><time>2026-04-18T08:53:54.149Z</time></trkpt><trkpt lat="44.1043369" lon="8.0884297"><ele>144.0</ele><time>2026-04-18T08:53:55.149Z</time></trkpt><trkpt lat="44.1042512" lon="8.088683"><ele>145.0</ele><time>2026-04-18T08:53:56.148Z</time></trkpt><trkpt lat="44.1041754" lon="8.0889265"><ele>145.0</ele><time>2026-04-18T08:53:57.149Z</time></trkpt><trkpt lat="44.104119" lon="8.0891735"><ele>145.0</ele><time>2026-04-18T08:53:58.148Z</time></trkpt><trkpt lat="44.1040854" lon="8.0894462"><ele>145.0</ele><time>2026-04-18T08:53:59.149Z</time></trkpt><trkpt lat="44.1040414" lon="8.0897436"><ele>149.0</ele><time>2026-04-18T08:54:00.148Z</time></trkpt><trkpt lat="44.1039822" lon="8.0900551"><ele>153.0</ele><time>2026-04-18T08:54:01.149Z</time></trkpt><trkpt lat="44.1039187" lon="8.090374"><ele>153.0</ele><time>2026-04-18T08:54:02.149Z</time></trkpt><trkpt lat="44.1038548" lon="8.090697"><ele>153.0</ele><time>2026-04-18T08:54:03.149Z</time></trkpt><trkpt lat="44.1037913" lon="8.0910125"><ele>148.66666666666666</ele><time>2026-04-18T08:54:04.149Z</time></trkpt><trkpt lat="44.1037187" lon="8.0913133"><ele>144.33333333333331</ele><time>2026-04-18T08:54:05.149Z</time></trkpt><trkpt lat="44.1036395" lon="8.0915896"><ele>140.0</ele><time>2026-04-18T08:54:06.149Z</time></trkpt><trkpt lat="44.1035561" lon="8.0918517"><ele>140.0</ele><time>2026-04-18T08:54:07.148Z</time></trkpt><trkpt lat="44.1034786" lon="8.0921173"><ele>140.0</ele><time>2026-04-18T08:54:08.149Z</time></trkpt><trkpt lat="44.1034245" lon="8.0923916"><ele>140.0</ele><time>2026-04-18T08:54:09.149Z</time></trkpt><trkpt lat="44.1033953" lon="8.0926826"><ele>140.0</ele><time>2026-04-18T08:54:10.149Z</time></trkpt><trkpt lat="44.1033846" lon="8.092989"><ele>140.0</ele><time>2026-04-18T08:54:11.148Z</time></trkpt><trkpt lat="44.1033784" lon="8.0933025"><ele>140.0</ele><time>2026-04-18T08:54:12.148Z</time></trkpt><trkpt lat="44.1033777" lon="8.0936191"><ele>138.0</ele><time>2026-04-18T08:54:13.148Z</time></trkpt><trkpt lat="44.1033879" lon="8.0939375"><ele>136.0</ele><time>2026-04-18T08:54:14.148Z</time></trkpt><trkpt lat="44.1034064" lon="8.0942518"><ele>134.66666666666669</ele><time>2026-04-18T08:54:15.149Z</time></trkpt><trkpt lat="44.1034257" lon="8.0945607"><ele>133.33333333333334</ele><time>2026-04-18T08:54:16.148Z</time></trkpt><trkpt lat="44.1034473" lon="8.0948665"><ele>132.0</ele><time>2026-04-18T08:54:17.149Z</time></trkpt><trkpt lat="44.1034663" lon="8.0951652"><ele>131.66666666666666</ele><time>2026-04-18T08:54:18.149Z</time></trkpt><trkpt lat="44.1034853" lon="8.0954567"><ele>131.33333333333331</ele><time>2026-04-18T08:54:19.149Z</time></trkpt><trkpt lat="44.1034975" lon="8.0957409"><ele>131.0</ele><time>2026-04-18T08:54:20.149Z</time></trkpt><trkpt lat="44.1034978" lon="8.0960135"><ele>131.0</ele><time>2026-04-18T08:54:21.148Z</time></trkpt><trkpt lat="44.1034768" lon="8.0962711"><ele>131.0</ele><time>2026-04-18T08:54:22.149Z</time></trkpt><trkpt lat="44.1034211" lon="8.0965417"><ele>131.0</ele><time>2026-04-18T08:54:23.149Z</time></trkpt><trkpt lat="44.1033408" lon="8.0968155"><ele>128.33333333333331</ele><time>2026-04-18T08:54:24.149Z</time></trkpt><trkpt lat="44.1032426" lon="8.0970728"><ele>125.66666666666666</ele><time>2026-04-18T08:54:25.148Z</time></trkpt><trkpt lat="44.1031304" lon="8.0972992"><ele>123.0</ele><time>2026-04-18T08:54:26.149Z</time></trkpt><trkpt lat="44.1030078" lon="8.0974909"><ele>122.33333333333334</ele><time>2026-04-18T08:54:27.149Z</time></trkpt><trkpt lat="44.1028615" lon="8.0976631"><ele>121.66666666666667</ele><time>2026-04-18T08:54:28.149Z</time></trkpt><trkpt lat="44.1027036" lon="8.0978304"><ele>121.0</ele><time>2026-04-18T08:54:29.149Z</time></trkpt><trkpt lat="44.1025347" lon="8.0980017"><ele>121.33333333333334</ele><time>2026-04-18T08:54:30.149Z</time></trkpt><trkpt lat="44.1023572" lon="8.0981742"><ele>121.66666666666666</ele><time>2026-04-18T08:54:31.148Z</time></trkpt><trkpt lat="44.102179" lon="8.09833"><ele>122.0</ele><time>2026-04-18T08:54:32.148Z</time></trkpt><trkpt lat="44.102015" lon="8.098473"><ele>122.0</ele><time>2026-04-18T08:54:33.148Z</time></trkpt><trkpt lat="44.1018642" lon="8.0986386"><ele>122.0</ele><time>2026-04-18T08:54:34.149Z</time></trkpt><trkpt lat="44.1017228" lon="8.0988489"><ele>122.0</ele><time>2026-04-18T08:54:35.149Z</time></trkpt><trkpt lat="44.1015866" lon="8.0990851"><ele>125.0</ele><time>2026-04-18T08:54:36.149Z</time></trkpt><trkpt lat="44.101447" lon="8.0993288"><ele>128.0</ele><time>2026-04-18T08:54:37.149Z</time></trkpt><trkpt lat="44.1013057" lon="8.0995718"><ele>131.0</ele><time>2026-04-18T08:54:38.149Z</time></trkpt><trkpt lat="44.1011615" lon="8.0998152"><ele>123.5</ele><time>2026-04-18T08:54:39.149Z</time></trkpt><trkpt lat="44.1010164" lon="8.1000634"><ele>116.0</ele><time>2026-04-18T08:54:40.148Z</time></trkpt><trkpt lat="44.1008735" lon="8.1003048"><ele>117.66666666666666</ele><time>2026-04-18T08:54:41.149Z</time></trkpt><trkpt lat="44.1007363" lon="8.1005425"><ele>119.33333333333334</ele><time>2026-04-18T08:54:42.149Z</time></trkpt><trkpt lat="44.1006142" lon="8.1007906"><ele>121.0</ele><time>2026-04-18T08:54:43.149Z</time></trkpt><trkpt lat="44.100506" lon="8.1010521"><ele>121.0</ele><time>2026-04-18T08:54:44.148Z</time></trkpt><trkpt lat="44.1004131" lon="8.1013197"><ele>121.0</ele><time>2026-04-18T08:54:45.149Z</time></trkpt><trkpt lat="44.1003185" lon="8.1015732"><ele>121.0</ele><time>2026-04-18T08:54:46.148Z</time></trkpt><trkpt lat="44.100223" lon="8.101811"><ele>120.33333333333334</ele><time>2026-04-18T08:54:47.15Z</time></trkpt><trkpt lat="44.1001095" lon="8.1020323"><ele>119.66666666666666</ele><time>2026-04-18T08:54:48.15Z</time></trkpt><trkpt lat="44.0999805" lon="8.1022415"><ele>119.0</ele><time>2026-04-18T08:54:49.149Z</time></trkpt><trkpt lat="44.0998344" lon="8.1024464"><ele>117.33333333333333</ele><time>2026-04-18T08:54:50.149Z</time></trkpt><trkpt lat="44.0996696" lon="8.1026414"><ele>115.66666666666666</ele><time>2026-04-18T08:54:51.15Z</time></trkpt><trkpt lat="44.0994926" lon="8.1028373"><ele>114.0</ele><time>2026-04-18T08:54:52.149Z</time></trkpt><trkpt lat="44.0993041" lon="8.103036"><ele>114.0</ele><time>2026-04-18T08:54:53.15Z</time></trkpt><trkpt lat="44.0991219" lon="8.1032295"><ele>114.0</ele><time>2026-04-18T08:54:54.15Z</time></trkpt><trkpt lat="44.0989417" lon="8.1034168"><ele>114.0</ele><time>2026-04-18T08:54:55.149Z</time></trkpt><trkpt lat="44.0987623" lon="8.1035906"><ele>114.0</ele><time>2026-04-18T08:54:56.15Z</time></trkpt><trkpt lat="44.0985807" lon="8.1037382"><ele>114.0</ele><time>2026-04-18T08:54:57.15Z</time></trkpt><trkpt lat="44.0983923" lon="8.1038661"><ele>114.0</ele><time>2026-04-18T08:54:58.15Z</time></trkpt><trkpt lat="44.0982098" lon="8.1039873"><ele>114.0</ele><time>2026-04-18T08:54:59.15Z</time></trkpt><trkpt lat="44.0980392" lon="8.1040971"><ele>114.0</ele><time>2026-04-18T08:55:00.15Z</time></trkpt><trkpt lat="44.0978615" lon="8.1041827"><ele>114.0</ele><time>2026-04-18T08:55:01.15Z</time></trkpt><trkpt lat="44.0976643" lon="8.1042441"><ele>114.0</ele><time>2026-04-18T08:55:02.15Z</time></trkpt><trkpt lat="44.0974538" lon="8.1042916"><ele>114.0</ele><time>2026-04-18T08:55:03.15Z</time></trkpt><trkpt lat="44.0972467" lon="8.1043395"><ele>112.0</ele><time>2026-04-18T08:55:04.15Z</time></trkpt><trkpt lat="44.0970499" lon="8.1043893"><ele>110.0</ele><time>2026-04-18T08:55:05.15Z</time></trkpt><trkpt lat="44.0968627" lon="8.1044391"><ele>108.0</ele><time>2026-04-18T08:55:06.15Z</time></trkpt><trkpt lat="44.0966807" lon="8.104489"><ele>112.0</ele><time>2026-04-18T08:55:07.149Z</time></trkpt><trkpt lat="44.0965059" lon="8.1045436"><ele>116.0</ele><time>2026-04-18T08:55:08.149Z</time></trkpt><trkpt lat="44.0963371" lon="8.1046177"><ele>120.0</ele><time>2026-04-18T08:55:09.149Z</time></trkpt><trkpt lat="44.0961793" lon="8.1047163"><ele>120.0</ele><time>2026-04-18T08:55:10.15Z</time></trkpt><trkpt lat="44.0960438" lon="8.1048505"><ele>120.0</ele><time>2026-04-18T08:55:11.149Z</time></trkpt><trkpt lat="44.095935" lon="8.1050414"><ele>120.0</ele><time>2026-04-18T08:55:12.149Z</time></trkpt><trkpt lat="44.0958555" lon="8.1052467"><ele>117.0</ele><time>2026-04-18T08:55:13.15Z</time></trkpt><trkpt lat="44.0957802" lon="8.1054425"><ele>114.0</ele><time>2026-04-18T08:55:14.149Z</time></trkpt><trkpt lat="44.0956809" lon="8.1056067"><ele>111.0</ele><time>2026-04-18T08:55:15.15Z</time></trkpt><trkpt lat="44.0955577" lon="8.1057107"><ele>109.66666666666666</ele><time>2026-04-18T08:55:16.15Z</time></trkpt><trkpt lat="44.0954067" lon="8.1057884"><ele>108.33333333333333</ele><time>2026-04-18T08:55:17.15Z</time></trkpt><trkpt lat="44.0952407" lon="8.1058513"><ele>107.0</ele><time>2026-04-18T08:55:18.15Z</time></trkpt><trkpt lat="44.0950621" lon="8.105929"><ele>112.66666666666666</ele><time>2026-04-18T08:55:19.149Z</time></trkpt><trkpt lat="44.0948878" lon="8.1060238"><ele>118.33333333333334</ele><time>2026-04-18T08:55:20.15Z</time></trkpt><trkpt lat="44.0947196" lon="8.1061308"><ele>124.0</ele><time>2026-04-18T08:55:21.15Z</time></trkpt><trkpt lat="44.0945521" lon="8.1062291"><ele>124.0</ele><time>2026-04-18T08:55:22.15Z</time></trkpt><trkpt lat="44.0943715" lon="8.1063013"><ele>124.0</ele><time>2026-04-18T08:55:23.149Z</time></trkpt><trkpt lat="44.0941798" lon="8.1063632"><ele>124.0</ele><time>2026-04-18T08:55:24.15Z</time></trkpt><trkpt lat="44.0939889" lon="8.1064342"><ele>120.33333333333334</ele><time>2026-04-18T08:55:25.15Z</time></trkpt><trkpt lat="44.0938007" lon="8.1065283"><ele>116.66666666666666</ele><time>2026-04-18T08:55:26.15Z</time></trkpt><trkpt lat="44.093618" lon="8.1066504"><ele>113.0</ele><time>2026-04-18T08:55:27.149Z</time></trkpt><trkpt lat="44.0934545" lon="8.1067857"><ele>113.0</ele><time>2026-04-18T08:55:28.15Z</time></trkpt><trkpt lat="44.0933059" lon="8.1069144"><ele>113.0</ele><time>2026-04-18T08:55:29.15Z</time></trkpt><trkpt lat="44.0931827" lon="8.1070649"><ele>113.0</ele><time>2026-04-18T08:55:30.15Z</time></trkpt><trkpt lat="44.0930821" lon="8.1072575"><ele>110.33333333333333</ele><time>2026-04-18T08:55:31.15Z</time></trkpt><trkpt lat="44.0929899" lon="8.1074674"><ele>107.66666666666666</ele><time>2026-04-18T08:55:32.149Z</time></trkpt><trkpt lat="44.092865" lon="8.1076662"><ele>105.0</ele><time>2026-04-18T08:55:33.15Z</time></trkpt><trkpt lat="44.0927059" lon="8.107861"><ele>105.0</ele><time>2026-04-18T08:55:34.15Z</time></trkpt><trkpt lat="44.0925517" lon="8.1080673"><ele>105.0</ele><time>2026-04-18T08:55:35.15Z</time></trkpt><trkpt lat="44.0924064" lon="8.1082883"><ele>105.0</ele><time>2026-04-18T08:55:36.149Z</time></trkpt><trkpt lat="44.0922626" lon="8.108521"><ele>105.0</ele><time>2026-04-18T08:55:37.15Z</time></trkpt><trkpt lat="44.0921263" lon="8.1087602"><ele>105.0</ele><time>2026-04-18T08:55:38.15Z</time></trkpt><trkpt lat="44.0919855" lon="8.1089884"><ele>105.0</ele><time>2026-04-18T08:55:39.15Z</time></trkpt><trkpt lat="44.0918408" lon="8.1092168"><ele>104.33333333333334</ele><time>2026-04-18T08:55:40.15Z</time></trkpt><trkpt lat="44.0917026" lon="8.1094543"><ele>103.66666666666667</ele><time>2026-04-18T08:55:41.15Z</time></trkpt><trkpt lat="44.0915705" lon="8.1097013"><ele>103.0</ele><time>2026-04-18T08:55:42.15Z</time></trkpt><trkpt lat="44.091455" lon="8.1099654"><ele>102.33333333333334</ele><time>2026-04-18T08:55:43.15Z</time></trkpt><trkpt lat="44.0913523" lon="8.1102397"><ele>101.66666666666666</ele><time>2026-04-18T08:55:44.15Z</time></trkpt><trkpt lat="44.0912647" lon="8.1105275"><ele>101.0</ele><time>2026-04-18T08:55:45.15Z</time></trkpt><trkpt lat="44.0911883" lon="8.1108326"><ele>99.0</ele><time>2026-04-18T08:55:46.15Z</time></trkpt><trkpt lat="44.0911276" lon="8.1111454"><ele>97.0</ele><time>2026-04-18T08:55:47.15Z</time></trkpt><trkpt lat="44.0910795" lon="8.1114641"><ele>97.0</ele><time>2026-04-18T08:55:48.15Z</time></trkpt><trkpt lat="44.0910466" lon="8.111804"><ele>97.0</ele><time>2026-04-18T08:55:49.15Z</time></trkpt><trkpt lat="44.0910324" lon="8.1121582"><ele>96.5</ele><time>2026-04-18T08:55:50.149Z</time></trkpt><trkpt lat="44.0910276" lon="8.1125079"><ele>96.0</ele><time>2026-04-18T08:55:51.15Z</time></trkpt><trkpt lat="44.0910204" lon="8.1128395"><ele>96.0</ele><time>2026-04-18T08:55:52.15Z</time></trkpt><trkpt lat="44.0909956" lon="8.1131611"><ele>96.0</ele><time>2026-04-18T08:55:53.15Z</time></trkpt><trkpt lat="44.0909507" lon="8.1134694"><ele>97.33333333333334</ele><time>2026-04-18T08:55:54.15Z</time></trkpt><trkpt lat="44.0909003" lon="8.1137643"><ele>98.66666666666667</ele><time>2026-04-18T08:55:55.15Z</time></trkpt><trkpt lat="44.0908663" lon="8.1140594"><ele>100.0</ele><time>2026-04-18T08:55:56.15Z</time></trkpt><trkpt lat="44.0908664" lon="8.1143621"><ele>100.0</ele><time>2026-04-18T08:55:57.15Z</time></trkpt><trkpt lat="44.0908858" lon="8.1146724"><ele>100.0</ele><time>2026-04-18T08:55:58.149Z</time></trkpt><trkpt lat="44.0909051" lon="8.1149926"><ele>100.0</ele><time>2026-04-18T08:55:59.15Z</time></trkpt><trkpt lat="44.0909064" lon="8.1153134"><ele>100.0</ele><time>2026-04-18T08:56:00.15Z</time></trkpt><trkpt lat="44.0908873" lon="8.1156235"><ele>99.33333333333334</ele><time>2026-04-18T08:56:01.15Z</time></trkpt><trkpt lat="44.0908664" lon="8.1159219"><ele>98.66666666666666</ele><time>2026-04-18T08:56:02.15Z</time></trkpt><trkpt lat="44.0908364" lon="8.1162168"><ele>98.0</ele><time>2026-04-18T08:56:03.15Z</time></trkpt><trkpt lat="44.090788" lon="8.1165024"><ele>96.0</ele><time>2026-04-18T08:56:04.15Z</time></trkpt><trkpt lat="44.0907103" lon="8.1167841"><ele>94.0</ele><time>2026-04-18T08:56:05.15Z</time></trkpt><trkpt lat="44.0906101" lon="8.1170701"><ele>92.0</ele><time>2026-04-18T08:56:06.15Z</time></trkpt><trkpt lat="44.0905088" lon="8.1173412"><ele>90.33333333333334</ele><time>2026-04-18T08:56:07.149Z</time></trkpt><trkpt lat="44.0904065" lon="8.1175963"><ele>88.66666666666667</ele><time>2026-04-18T08:56:08.15Z</time></trkpt><trkpt lat="44.0902952" lon="8.1178347"><ele>87.0</ele><time>2026-04-18T08:56:09.15Z</time></trkpt><trkpt lat="44.0901641" lon="8.1180659"><ele>87.33333333333333</ele><time>2026-04-18T08:56:10.15Z</time></trkpt><trkpt lat="44.0900205" lon="8.1182826"><ele>87.66666666666666</ele><time>2026-04-18T08:56:11.15Z</time></trkpt><trkpt lat="44.0898737" lon="8.1184873"><ele>88.0</ele><time>2026-04-18T08:56:12.149Z</time></trkpt><trkpt lat="44.0897389" lon="8.1186717"><ele>89.0</ele><time>2026-04-18T08:56:13.15Z</time></trkpt><trkpt lat="44.0896368" lon="8.1188568"><ele>90.0</ele><time>2026-04-18T08:56:14.15Z</time></trkpt><trkpt lat="44.0895706" lon="8.1190577"><ele>91.0</ele><time>2026-04-18T08:56:15.15Z</time></trkpt><trkpt lat="44.0895391" lon="8.119278"><ele>89.0</ele><time>2026-04-18T08:56:16.149Z</time></trkpt><trkpt lat="44.0895261" lon="8.1195199"><ele>87.0</ele><time>2026-04-18T08:56:17.15Z</time></trkpt><trkpt lat="44.0895183" lon="8.1197699"><ele>85.0</ele><time>2026-04-18T08:56:18.15Z</time></trkpt><trkpt lat="44.0895139" lon="8.1200154"><ele>84.66666666666666</ele><time>2026-04-18T08:56:19.15Z</time></trkpt><trkpt lat="44.0895212" lon="8.1202426"><ele>84.33333333333333</ele><time>2026-04-18T08:56:20.15Z</time></trkpt><trkpt lat="44.0895689" lon="8.1204724"><ele>84.0</ele><time>2026-04-18T08:56:21.15Z</time></trkpt><trkpt lat="44.0896448" lon="8.1207122"><ele>84.33333333333333</ele><time>2026-04-18T08:56:22.15Z</time></trkpt><trkpt lat="44.0897361" lon="8.1209472"><ele>84.66666666666666</ele><time>2026-04-18T08:56:23.149Z</time></trkpt><trkpt lat="44.0898268" lon="8.1212022"><ele>85.0</ele><time>2026-04-18T08:56:24.15Z</time></trkpt><trkpt lat="44.0899169" lon="8.1214571"><ele>82.66666666666666</ele><time>2026-04-18T08:56:25.15Z</time></trkpt><trkpt lat="44.0900062" lon="8.1217174"><ele>80.33333333333333</ele><time>2026-04-18T08:56:26.15Z</time></trkpt><trkpt lat="44.0901003" lon="8.121983"><ele>78.0</ele><time>2026-04-18T08:56:27.15Z</time></trkpt><trkpt lat="44.090194" lon="8.1222484"><ele>75.0</ele><time>2026-04-18T08:56:28.15Z</time></trkpt><trkpt lat="44.0902871" lon="8.1225093"><ele>72.0</ele><time>2026-04-18T08:56:29.15Z</time></trkpt><trkpt lat="44.0903788" lon="8.1227688"><ele>69.0</ele><time>2026-04-18T08:56:30.15Z</time></trkpt><trkpt lat="44.090476" lon="8.1230137"><ele>70.33333333333333</ele><time>2026-04-18T08:56:31.151Z</time></trkpt><trkpt lat="44.0905867" lon="8.1232371"><ele>71.66666666666666</ele><time>2026-04-18T08:56:32.15Z</time></trkpt><trkpt lat="44.0907163" lon="8.1234455"><ele>73.0</ele><time>2026-04-18T08:56:33.151Z</time></trkpt><trkpt lat="44.09085" lon="8.1236556"><ele>75.0</ele><time>2026-04-18T08:56:34.151Z</time></trkpt><trkpt lat="44.090977" lon="8.123868"><ele>77.0</ele><time>2026-04-18T08:56:35.15Z</time></trkpt><trkpt lat="44.0910963" lon="8.1240809"><ele>79.0</ele><time>2026-04-18T08:56:36.15Z</time></trkpt><trkpt lat="44.0912042" lon="8.124298"><ele>79.0</ele><time>2026-04-18T08:56:37.151Z</time></trkpt><trkpt lat="44.0912971" lon="8.124528"><ele>79.0</ele><time>2026-04-18T08:56:38.151Z</time></trkpt><trkpt lat="44.0913898" lon="8.1247614"><ele>79.0</ele><time>2026-04-18T08:56:39.151Z</time></trkpt><trkpt lat="44.0914877" lon="8.124994"><ele>78.0</ele><time>2026-04-18T08:56:40.151Z</time></trkpt><trkpt lat="44.0915862" lon="8.1252259"><ele>77.0</ele><time>2026-04-18T08:56:41.151Z</time></trkpt><trkpt lat="44.091685" lon="8.1254561"><ele>76.0</ele><time>2026-04-18T08:56:42.151Z</time></trkpt><trkpt lat="44.0917856" lon="8.1256816"><ele>76.0</ele><time>2026-04-18T08:56:43.151Z</time></trkpt><trkpt lat="44.0918871" lon="8.1259033"><ele>76.0</ele><time>2026-04-18T08:56:44.151Z</time></trkpt><trkpt lat="44.0919914" lon="8.1261127"><ele>76.0</ele><time>2026-04-18T08:56:45.151Z</time></trkpt><trkpt lat="44.0920866" lon="8.1263202"><ele>76.0</ele><time>2026-04-18T08:56:46.151Z</time></trkpt><trkpt lat="44.0921724" lon="8.1265268"><ele>76.0</ele><time>2026-04-18T08:56:47.151Z</time></trkpt><trkpt lat="44.0922429" lon="8.1267291"><ele>76.0</ele><time>2026-04-18T08:56:48.15Z</time></trkpt><trkpt lat="44.0923053" lon="8.1269377"><ele>75.5</ele><time>2026-04-18T08:56:49.151Z</time></trkpt><trkpt lat="44.0923568" lon="8.1271394"><ele>75.0</ele><time>2026-04-18T08:56:50.151Z</time></trkpt><trkpt lat="44.0924033" lon="8.1273211"><ele>74.5</ele><time>2026-04-18T08:56:51.15Z</time></trkpt><trkpt lat="44.092447" lon="8.1274904"><ele>74.0</ele><time>2026-04-18T08:56:52.151Z</time></trkpt><trkpt lat="44.0924879" lon="8.1276468"><ele>74.0</ele><time>2026-04-18T08:56:53.151Z</time></trkpt><trkpt lat="44.0925198" lon="8.1277961"><ele>74.0</ele><time>2026-04-18T08:56:54.151Z</time></trkpt><trkpt lat="44.0925459" lon="8.1279305"><ele>74.0</ele><time>2026-04-18T08:56:55.151Z</time></trkpt><trkpt lat="44.0925661" lon="8.1280331"><ele>74.0</ele><time>2026-04-18T08:56:56.15Z</time></trkpt><trkpt lat="44.0925947" lon="8.1281454"><ele>74.0</ele><time>2026-04-18T08:56:58.151Z</time></trkpt><trkpt lat="44.0926974" lon="8.1281934"><ele>74.0</ele><time>2026-04-18T08:57:01.15Z</time></trkpt><trkpt lat="44.0927903" lon="8.1281636"><ele>74.0</ele><time>2026-04-18T08:57:02.151Z</time></trkpt><trkpt lat="44.0928852" lon="8.1281335"><ele>74.0</ele><time>2026-04-18T08:57:03.151Z</time></trkpt><trkpt lat="44.0929868" lon="8.1281128"><ele>74.0</ele><time>2026-04-18T08:57:04.151Z</time></trkpt><trkpt lat="44.0930808" lon="8.1281048"><ele>74.0</ele><time>2026-04-18T08:57:05.15Z</time></trkpt><trkpt lat="44.0931653" lon="8.1281206"><ele>74.0</ele><time>2026-04-18T08:57:06.151Z</time></trkpt><trkpt lat="44.0932291" lon="8.1281412"><ele>74.0</ele><time>2026-04-18T08:57:07.151Z</time></trkpt><trkpt lat="44.0933204" lon="8.1281534"><ele>74.0</ele><time>2026-04-18T08:57:09.151Z</time></trkpt><trkpt lat="44.0933866" lon="8.1281551"><ele>74.0</ele><time>2026-04-18T08:57:25.151Z</time></trkpt><trkpt lat="44.0934412" lon="8.1281023"><ele>74.0</ele><time>2026-04-18T09:03:32.154Z</time></trkpt><trkpt lat="44.0934944" lon="8.1279936"><ele>74.0</ele><time>2026-04-18T09:03:35.154Z</time></trkpt><trkpt lat="44.0936172" lon="8.1279572"><ele>74.4</ele><time>2026-04-18T09:03:37.154Z</time></trkpt><trkpt lat="44.093709" lon="8.1279449"><ele>74.80000000000001</ele><time>2026-04-18T09:03:38.154Z</time></trkpt><trkpt lat="44.0938131" lon="8.1279433"><ele>75.19999999999999</ele><time>2026-04-18T09:03:39.153Z</time></trkpt><trkpt lat="44.0939307" lon="8.1279542"><ele>75.6</ele><time>2026-04-18T09:03:40.154Z</time></trkpt><trkpt lat="44.0940579" lon="8.1279836"><ele>76.0</ele><time>2026-04-18T09:03:41.154Z</time></trkpt><trkpt lat="44.0941958" lon="8.1280162"><ele>76.0</ele><time>2026-04-18T09:03:42.154Z</time></trkpt><trkpt lat="44.0943404" lon="8.1280274"><ele>76.0</ele><time>2026-04-18T09:03:43.154Z</time></trkpt><trkpt lat="44.0944983" lon="8.1280136"><ele>76.0</ele><time>2026-04-18T09:03:44.154Z</time></trkpt><trkpt lat="44.0946632" lon="8.1279732"><ele>76.0</ele><time>2026-04-18T09:03:45.153Z</time></trkpt><trkpt lat="44.0948337" lon="8.1279024"><ele>76.0</ele><time>2026-04-18T09:03:46.154Z</time></trkpt><trkpt lat="44.0950057" lon="8.1278215"><ele>76.0</ele><time>2026-04-18T09:03:47.154Z</time></trkpt><trkpt lat="44.0951802" lon="8.127736"><ele>76.33333333333333</ele><time>2026-04-18T09:03:48.154Z</time></trkpt><trkpt lat="44.0953505" lon="8.1276439"><ele>76.66666666666667</ele><time>2026-04-18T09:03:49.154Z</time></trkpt><trkpt lat="44.0955156" lon="8.127537"><ele>77.0</ele><time>2026-04-18T09:03:50.154Z</time></trkpt><trkpt lat="44.0956711" lon="8.1273947"><ele>78.66666666666667</ele><time>2026-04-18T09:03:51.154Z</time></trkpt><trkpt lat="44.0958192" lon="8.1272178"><ele>80.33333333333333</ele><time>2026-04-18T09:03:52.154Z</time></trkpt><trkpt lat="44.0959513" lon="8.1270186"><ele>82.0</ele><time>2026-04-18T09:03:53.154Z</time></trkpt><trkpt lat="44.0960715" lon="8.1268076"><ele>82.0</ele><time>2026-04-18T09:03:54.153Z</time></trkpt><trkpt lat="44.0961824" lon="8.1265931"><ele>82.0</ele><time>2026-04-18T09:03:55.154Z</time></trkpt><trkpt lat="44.0962971" lon="8.1263722"><ele>82.0</ele><time>2026-04-18T09:03:56.153Z</time></trkpt><trkpt lat="44.0964227" lon="8.12615"><ele>82.66666666666666</ele><time>2026-04-18T09:03:57.153Z</time></trkpt><trkpt lat="44.0965502" lon="8.1259384"><ele>83.33333333333333</ele><time>2026-04-18T09:03:58.153Z</time></trkpt><trkpt lat="44.0966792" lon="8.1257382"><ele>84.0</ele><time>2026-04-18T09:03:59.154Z</time></trkpt><trkpt lat="44.0968055" lon="8.1255581"><ele>84.0</ele><time>2026-04-18T09:04:00.154Z</time></trkpt><trkpt lat="44.0969224" lon="8.1253973"><ele>84.0</ele><time>2026-04-18T09:04:01.153Z</time></trkpt><trkpt lat="44.0970342" lon="8.1252616"><ele>84.0</ele><time>2026-04-18T09:04:02.154Z</time></trkpt><trkpt lat="44.0971563" lon="8.1251602"><ele>84.0</ele><time>2026-04-18T09:04:03.154Z</time></trkpt><trkpt lat="44.0972903" lon="8.1251105"><ele>84.0</ele><time>2026-04-18T09:04:04.154Z</time></trkpt><trkpt lat="44.0974232" lon="8.125086"><ele>84.0</ele><time>2026-04-18T09:04:05.154Z</time></trkpt><trkpt lat="44.0975681" lon="8.1251185"><ele>84.0</ele><time>2026-04-18T09:04:06.154Z</time></trkpt><trkpt lat="44.0977219" lon="8.1251874"><ele>86.66666666666667</ele><time>2026-04-18T09:04:07.153Z</time></trkpt><trkpt lat="44.0978868" lon="8.1252596"><ele>89.33333333333334</ele><time>2026-04-18T09:04:08.154Z</time></trkpt><trkpt lat="44.0980712" lon="8.1253072"><ele>92.0</ele><time>2026-04-18T09:04:09.154Z</time></trkpt><trkpt lat="44.0982587" lon="8.1253214"><ele>92.0</ele><time>2026-04-18T09:04:10.154Z</time></trkpt><trkpt lat="44.0984352" lon="8.1253003"><ele>92.0</ele><time>2026-04-18T09:04:11.154Z</time></trkpt><trkpt lat="44.0985924" lon="8.1252304"><ele>92.0</ele><time>2026-04-18T09:04:12.155Z</time></trkpt><trkpt lat="44.0987428" lon="8.1251299"><ele>92.0</ele><time>2026-04-18T09:04:13.154Z</time></trkpt><trkpt lat="44.0988854" lon="8.1249862"><ele>92.0</ele><time>2026-04-18T09:04:14.155Z</time></trkpt><trkpt lat="44.099025" lon="8.12482"><ele>92.0</ele><time>2026-04-18T09:04:15.154Z</time></trkpt><trkpt lat="44.0991726" lon="8.1246503"><ele>92.0</ele><time>2026-04-18T09:04:16.155Z</time></trkpt><trkpt lat="44.0993232" lon="8.1244662"><ele>92.0</ele><time>2026-04-18T09:04:17.155Z</time></trkpt><trkpt lat="44.0994686" lon="8.1242835"><ele>92.0</ele><time>2026-04-18T09:04:18.155Z</time></trkpt><trkpt lat="44.0996043" lon="8.1240919"><ele>92.33333333333334</ele><time>2026-04-18T09:04:19.154Z</time></trkpt><trkpt lat="44.0997368" lon="8.1239032"><ele>92.66666666666667</ele><time>2026-04-18T09:04:20.155Z</time></trkpt><trkpt lat="44.099871" lon="8.1237169"><ele>93.0</ele><time>2026-04-18T09:04:21.155Z</time></trkpt><trkpt lat="44.1000154" lon="8.1235454"><ele>93.0</ele><time>2026-04-18T09:04:22.154Z</time></trkpt><trkpt lat="44.1001682" lon="8.1233935"><ele>93.0</ele><time>2026-04-18T09:04:23.155Z</time></trkpt><trkpt lat="44.1003259" lon="8.1232706"><ele>93.0</ele><time>2026-04-18T09:04:24.155Z</time></trkpt><trkpt lat="44.1004956" lon="8.1231812"><ele>95.33333333333334</ele><time>2026-04-18T09:04:25.155Z</time></trkpt><trkpt lat="44.1006755" lon="8.1231329"><ele>97.66666666666667</ele><time>2026-04-18T09:04:26.155Z</time></trkpt><trkpt lat="44.1008629" lon="8.12312"><ele>100.0</ele><time>2026-04-18T09:04:27.154Z</time></trkpt><trkpt lat="44.1010435" lon="8.1231578"><ele>99.33333333333334</ele><time>2026-04-18T09:04:28.155Z</time></trkpt><trkpt lat="44.101217" lon="8.1232439"><ele>98.66666666666666</ele><time>2026-04-18T09:04:29.155Z</time></trkpt><trkpt lat="44.1013912" lon="8.1233742"><ele>98.0</ele><time>2026-04-18T09:04:30.155Z</time></trkpt><trkpt lat="44.1015566" lon="8.1234993"><ele>97.66666666666666</ele><time>2026-04-18T09:04:31.155Z</time></trkpt><trkpt lat="44.1017225" lon="8.1236088"><ele>97.33333333333334</ele><time>2026-04-18T09:04:32.155Z</time></trkpt><trkpt lat="44.1018982" lon="8.1236627"><ele>97.0</ele><time>2026-04-18T09:04:33.154Z</time></trkpt><trkpt lat="44.1020952" lon="8.1236794"><ele>97.0</ele><time>2026-04-18T09:04:34.155Z</time></trkpt><trkpt lat="44.1023003" lon="8.1236919"><ele>97.0</ele><time>2026-04-18T09:04:35.155Z</time></trkpt><trkpt lat="44.1025092" lon="8.1237202"><ele>97.0</ele><time>2026-04-18T09:04:36.155Z</time></trkpt><trkpt lat="44.1027067" lon="8.1237778"><ele>97.66666666666667</ele><time>2026-04-18T09:04:37.155Z</time></trkpt><trkpt lat="44.1029026" lon="8.1238688"><ele>98.33333333333334</ele><time>2026-04-18T09:04:38.155Z</time></trkpt><trkpt lat="44.1030965" lon="8.1239858"><ele>99.0</ele><time>2026-04-18T09:04:39.154Z</time></trkpt><trkpt lat="44.1032958" lon="8.1241155"><ele>101.66666666666666</ele><time>2026-04-18T09:04:40.155Z</time></trkpt><trkpt lat="44.1034949" lon="8.1242511"><ele>104.33333333333333</ele><time>2026-04-18T09:04:41.155Z</time></trkpt><trkpt lat="44.1036857" lon="8.1243851"><ele>107.0</ele><time>2026-04-18T09:04:42.155Z</time></trkpt><trkpt lat="44.1038711" lon="8.1245159"><ele>107.0</ele><time>2026-04-18T09:04:43.155Z</time></trkpt><trkpt lat="44.1040444" lon="8.1246235"><ele>107.0</ele><time>2026-04-18T09:04:44.155Z</time></trkpt><trkpt lat="44.1042113" lon="8.1246927"><ele>107.0</ele><time>2026-04-18T09:04:45.155Z</time></trkpt><trkpt lat="44.1043695" lon="8.1247058"><ele>106.0</ele><time>2026-04-18T09:04:46.155Z</time></trkpt><trkpt lat="44.1045281" lon="8.1246624"><ele>105.0</ele><time>2026-04-18T09:04:47.154Z</time></trkpt><trkpt lat="44.1046922" lon="8.1246064"><ele>104.0</ele><time>2026-04-18T09:04:48.155Z</time></trkpt><trkpt lat="44.104849" lon="8.1245407"><ele>104.0</ele><time>2026-04-18T09:04:49.155Z</time></trkpt><trkpt lat="44.1049935" lon="8.124442"><ele>104.0</ele><time>2026-04-18T09:04:50.155Z</time></trkpt><trkpt lat="44.1051363" lon="8.124293"><ele>104.0</ele><time>2026-04-18T09:04:51.155Z</time></trkpt><trkpt lat="44.1052803" lon="8.1241271"><ele>108.0</ele><time>2026-04-18T09:04:52.155Z</time></trkpt><trkpt lat="44.1054146" lon="8.1239718"><ele>112.0</ele><time>2026-04-18T09:04:53.155Z</time></trkpt><trkpt lat="44.1055425" lon="8.1238293"><ele>116.0</ele><time>2026-04-18T09:04:54.155Z</time></trkpt><trkpt lat="44.1056757" lon="8.1236958"><ele>115.0</ele><time>2026-04-18T09:04:55.154Z</time></trkpt><trkpt lat="44.1058223" lon="8.1235462"><ele>114.0</ele><time>2026-04-18T09:04:56.155Z</time></trkpt><trkpt lat="44.105988" lon="8.1233749"><ele>113.0</ele><time>2026-04-18T09:04:57.155Z</time></trkpt><trkpt lat="44.1061608" lon="8.1232034"><ele>113.0</ele><time>2026-04-18T09:04:58.155Z</time></trkpt><trkpt lat="44.1063351" lon="8.1230307"><ele>113.0</ele><time>2026-04-18T09:04:59.155Z</time></trkpt><trkpt lat="44.1065102" lon="8.1228606"><ele>113.0</ele><time>2026-04-18T09:05:00.155Z</time></trkpt><trkpt lat="44.1066803" lon="8.1226899"><ele>112.0</ele><time>2026-04-18T09:05:01.155Z</time></trkpt><trkpt lat="44.1068475" lon="8.1225259"><ele>111.0</ele><time>2026-04-18T09:05:02.155Z</time></trkpt><trkpt lat="44.1070144" lon="8.1223655"><ele>110.0</ele><time>2026-04-18T09:05:03.154Z</time></trkpt><trkpt lat="44.1071849" lon="8.1222042"><ele>110.0</ele><time>2026-04-18T09:05:04.155Z</time></trkpt><trkpt lat="44.1073525" lon="8.1220449"><ele>110.0</ele><time>2026-04-18T09:05:05.154Z</time></trkpt><trkpt lat="44.107507" lon="8.1219032"><ele>110.0</ele><time>2026-04-18T09:05:06.154Z</time></trkpt><trkpt lat="44.1076473" lon="8.121774"><ele>108.0</ele><time>2026-04-18T09:05:07.155Z</time></trkpt><trkpt lat="44.1077714" lon="8.1216417"><ele>106.0</ele><time>2026-04-18T09:05:08.154Z</time></trkpt><trkpt lat="44.1078777" lon="8.1214929"><ele>104.0</ele><time>2026-04-18T09:05:09.155Z</time></trkpt><trkpt lat="44.1079589" lon="8.1213169"><ele>104.0</ele><time>2026-04-18T09:05:10.154Z</time></trkpt><trkpt lat="44.1080186" lon="8.1211068"><ele>104.0</ele><time>2026-04-18T09:05:11.154Z</time></trkpt><trkpt lat="44.108049" lon="8.1208773"><ele>104.0</ele><time>2026-04-18T09:05:12.155Z</time></trkpt><trkpt lat="44.108054" lon="8.1206449"><ele>106.66666666666666</ele><time>2026-04-18T09:05:13.155Z</time></trkpt><trkpt lat="44.1080292" lon="8.1204024"><ele>109.33333333333334</ele><time>2026-04-18T09:05:14.155Z</time></trkpt><trkpt lat="44.1079882" lon="8.1201552"><ele>112.0</ele><time>2026-04-18T09:05:15.154Z</time></trkpt><trkpt lat="44.1079679" lon="8.1199083"><ele>113.66666666666667</ele><time>2026-04-18T09:05:16.154Z</time></trkpt><trkpt lat="44.1079817" lon="8.1196603"><ele>115.33333333333334</ele><time>2026-04-18T09:05:17.155Z</time></trkpt><trkpt lat="44.1080068" lon="8.1193965"><ele>117.0</ele><time>2026-04-18T09:05:18.155Z</time></trkpt><trkpt lat="44.1080308" lon="8.1191295"><ele>119.66666666666666</ele><time>2026-04-18T09:05:19.155Z</time></trkpt><trkpt lat="44.1080593" lon="8.1188744"><ele>122.33333333333333</ele><time>2026-04-18T09:05:20.154Z</time></trkpt><trkpt lat="44.1080977" lon="8.1186194"><ele>125.0</ele><time>2026-04-18T09:05:21.155Z</time></trkpt><trkpt lat="44.1081527" lon="8.1183821"><ele>120.33333333333333</ele><time>2026-04-18T09:05:22.154Z</time></trkpt><trkpt lat="44.1082323" lon="8.1181668"><ele>115.66666666666666</ele><time>2026-04-18T09:05:23.155Z</time></trkpt><trkpt lat="44.1083369" lon="8.1179697"><ele>111.0</ele><time>2026-04-18T09:05:24.155Z</time></trkpt><trkpt lat="44.1084576" lon="8.1177963"><ele>111.0</ele><time>2026-04-18T09:05:25.155Z</time></trkpt><trkpt lat="44.1085653" lon="8.1176269"><ele>111.0</ele><time>2026-04-18T09:05:26.155Z</time></trkpt><trkpt lat="44.1086537" lon="8.1174267"><ele>111.0</ele><time>2026-04-18T09:05:27.155Z</time></trkpt><trkpt lat="44.1087161" lon="8.1172126"><ele>115.33333333333334</ele><time>2026-04-18T09:05:28.155Z</time></trkpt><trkpt lat="44.1087695" lon="8.1169799"><ele>119.66666666666667</ele><time>2026-04-18T09:05:29.154Z</time></trkpt><trkpt lat="44.1088266" lon="8.1167437"><ele>124.0</ele><time>2026-04-18T09:05:30.155Z</time></trkpt><trkpt lat="44.1089048" lon="8.1165326"><ele>124.33333333333334</ele><time>2026-04-18T09:05:31.155Z</time></trkpt><trkpt lat="44.1090161" lon="8.1163346"><ele>124.66666666666666</ele><time>2026-04-18T09:05:32.154Z</time></trkpt><trkpt lat="44.1091574" lon="8.1161435"><ele>125.0</ele><time>2026-04-18T09:05:33.155Z</time></trkpt><trkpt lat="44.1093217" lon="8.1159585"><ele>125.0</ele><time>2026-04-18T09:05:34.155Z</time></trkpt><trkpt lat="44.1094834" lon="8.1157738"><ele>125.0</ele><time>2026-04-18T09:05:35.155Z</time></trkpt><trkpt lat="44.1096295" lon="8.1156006"><ele>125.0</ele><time>2026-04-18T09:05:36.155Z</time></trkpt><trkpt lat="44.1097779" lon="8.1154556"><ele>127.0</ele><time>2026-04-18T09:05:37.155Z</time></trkpt><trkpt lat="44.1099359" lon="8.1153612"><ele>129.0</ele><time>2026-04-18T09:05:38.155Z</time></trkpt><trkpt lat="44.1101198" lon="8.1152799"><ele>131.0</ele><time>2026-04-18T09:05:39.155Z</time></trkpt><trkpt lat="44.1103136" lon="8.1152017"><ele>131.0</ele><time>2026-04-18T09:05:40.154Z</time></trkpt><trkpt lat="44.1105044" lon="8.1151051"><ele>131.0</ele><time>2026-04-18T09:05:41.154Z</time></trkpt><trkpt lat="44.1107078" lon="8.1149981"><ele>131.0</ele><time>2026-04-18T09:05:42.155Z</time></trkpt><trkpt lat="44.1109026" lon="8.1148813"><ele>136.66666666666666</ele><time>2026-04-18T09:05:43.155Z</time></trkpt><trkpt lat="44.1110859" lon="8.114753"><ele>142.33333333333334</ele><time>2026-04-18T09:05:44.155Z</time></trkpt><trkpt lat="44.111257" lon="8.1146619"><ele>148.0</ele><time>2026-04-18T09:05:45.154Z</time></trkpt><trkpt lat="44.1114182" lon="8.1146367"><ele>144.0</ele><time>2026-04-18T09:05:46.155Z</time></trkpt><trkpt lat="44.1115826" lon="8.114664"><ele>140.0</ele><time>2026-04-18T09:05:47.155Z</time></trkpt><trkpt lat="44.111766" lon="8.1147345"><ele>136.0</ele><time>2026-04-18T09:05:48.155Z</time></trkpt><trkpt lat="44.111953" lon="8.1148334"><ele>132.0</ele><time>2026-04-18T09:05:49.155Z</time></trkpt><trkpt lat="44.1121414" lon="8.1149648"><ele>128.0</ele><time>2026-04-18T09:05:50.155Z</time></trkpt><trkpt lat="44.112331" lon="8.1151048"><ele>124.0</ele><time>2026-04-18T09:05:51.154Z</time></trkpt><trkpt lat="44.1125205" lon="8.115244"><ele>124.0</ele><time>2026-04-18T09:05:52.155Z</time></trkpt><trkpt lat="44.1127056" lon="8.1153763"><ele>124.0</ele><time>2026-04-18T09:05:53.155Z</time></trkpt><trkpt lat="44.112871" lon="8.1154973"><ele>124.0</ele><time>2026-04-18T09:05:54.155Z</time></trkpt><trkpt lat="44.1130225" lon="8.1156091"><ele>124.0</ele><time>2026-04-18T09:05:55.154Z</time></trkpt><trkpt lat="44.1131598" lon="8.1157288"><ele>124.0</ele><time>2026-04-18T09:05:56.155Z</time></trkpt><trkpt lat="44.1132613" lon="8.1158911"><ele>124.0</ele><time>2026-04-18T09:05:57.155Z</time></trkpt><trkpt lat="44.1133342" lon="8.1160621"><ele>123.5</ele><time>2026-04-18T09:05:58.155Z</time></trkpt><trkpt lat="44.1133775" lon="8.1162537"><ele>123.0</ele><time>2026-04-18T09:05:59.154Z</time></trkpt><trkpt lat="44.1133794" lon="8.116446"><ele>122.5</ele><time>2026-04-18T09:06:00.155Z</time></trkpt><trkpt lat="44.1133633" lon="8.1166531"><ele>122.0</ele><time>2026-04-18T09:06:01.154Z</time></trkpt><trkpt lat="44.1133617" lon="8.1168469"><ele>121.8</ele><time>2026-04-18T09:06:02.156Z</time></trkpt><trkpt lat="44.1133624" lon="8.1170137"><ele>121.6</ele><time>2026-04-18T09:06:03.156Z</time></trkpt><trkpt lat="44.1133783" lon="8.117156"><ele>121.39999999999999</ele><time>2026-04-18T09:06:04.156Z</time></trkpt><trkpt lat="44.1134328" lon="8.1172812"><ele>121.19999999999999</ele><time>2026-04-18T09:06:05.155Z</time></trkpt><trkpt lat="44.1135287" lon="8.1173743"><ele>121.0</ele><time>2026-04-18T09:06:06.156Z</time></trkpt><trkpt lat="44.1136453" lon="8.1174597"><ele>125.0</ele><time>2026-04-18T09:06:07.156Z</time></trkpt><trkpt lat="44.1137797" lon="8.1175573"><ele>129.0</ele><time>2026-04-18T09:06:08.156Z</time></trkpt><trkpt lat="44.1139227" lon="8.1176546"><ele>133.0</ele><time>2026-04-18T09:06:09.156Z</time></trkpt><trkpt lat="44.1140796" lon="8.117749"><ele>133.0</ele><time>2026-04-18T09:06:10.156Z</time></trkpt><trkpt lat="44.1142429" lon="8.1178263"><ele>133.0</ele><time>2026-04-18T09:06:11.156Z</time></trkpt><trkpt lat="44.1144067" lon="8.1179015"><ele>133.0</ele><time>2026-04-18T09:06:12.156Z</time></trkpt><trkpt lat="44.114564" lon="8.1179747"><ele>133.0</ele><time>2026-04-18T09:06:13.156Z</time></trkpt><trkpt lat="44.114692" lon="8.1180342"><ele>133.0</ele><time>2026-04-18T09:06:14.155Z</time></trkpt><trkpt lat="44.1148195" lon="8.1180731"><ele>133.0</ele><time>2026-04-18T09:06:15.156Z</time></trkpt><trkpt lat="44.1149458" lon="8.1180498"><ele>133.0</ele><time>2026-04-18T09:06:16.156Z</time></trkpt><trkpt lat="44.1150798" lon="8.1179854"><ele>131.5</ele><time>2026-04-18T09:06:17.156Z</time></trkpt><trkpt lat="44.1152113" lon="8.1179484"><ele>130.0</ele><time>2026-04-18T09:06:18.156Z</time></trkpt><trkpt lat="44.1153516" lon="8.1179524"><ele>128.5</ele><time>2026-04-18T09:06:19.155Z</time></trkpt><trkpt lat="44.1155135" lon="8.1179777"><ele>127.0</ele><time>2026-04-18T09:06:20.155Z</time></trkpt><trkpt lat="44.1156929" lon="8.1180083"><ele>130.33333333333334</ele><time>2026-04-18T09:06:21.156Z</time></trkpt><trkpt lat="44.1158769" lon="8.1180549"><ele>133.66666666666666</ele><time>2026-04-18T09:06:22.156Z</time></trkpt><trkpt lat="44.1160548" lon="8.1180847"><ele>137.0</ele><time>2026-04-18T09:06:23.155Z</time></trkpt><trkpt lat="44.1162172" lon="8.1181154"><ele>137.0</ele><time>2026-04-18T09:06:24.156Z</time></trkpt><trkpt lat="44.1163585" lon="8.1181424"><ele>137.0</ele><time>2026-04-18T09:06:25.156Z</time></trkpt><trkpt lat="44.1164689" lon="8.1181424"><ele>137.0</ele><time>2026-04-18T09:06:26.156Z</time></trkpt><trkpt lat="44.1165493" lon="8.1180864"><ele>137.0</ele><time>2026-04-18T09:06:27.156Z</time></trkpt><trkpt lat="44.1166212" lon="8.1179873"><ele>137.0</ele><time>2026-04-18T09:06:28.156Z</time></trkpt><trkpt lat="44.1167011" lon="8.1179026"><ele>140.25</ele><time>2026-04-18T09:06:29.156Z</time></trkpt><trkpt lat="44.1168249" lon="8.1179047"><ele>143.5</ele><time>2026-04-18T09:06:30.156Z</time></trkpt><trkpt lat="44.1169492" lon="8.1179327"><ele>146.75</ele><time>2026-04-18T09:06:31.156Z</time></trkpt><trkpt lat="44.1170535" lon="8.1179418"><ele>150.0</ele><time>2026-04-18T09:06:32.156Z</time></trkpt><trkpt lat="44.1171467" lon="8.1178907"><ele>150.0</ele><time>2026-04-18T09:06:33.156Z</time></trkpt><trkpt lat="44.1172132" lon="8.1177804"><ele>150.0</ele><time>2026-04-18T09:06:34.156Z</time></trkpt><trkpt lat="44.1172642" lon="8.1176116"><ele>150.0</ele><time>2026-04-18T09:06:35.156Z</time></trkpt><trkpt lat="44.1173156" lon="8.1174273"><ele>150.0</ele><time>2026-04-18T09:06:36.155Z</time></trkpt><trkpt lat="44.1173635" lon="8.1172257"><ele>154.0</ele><time>2026-04-18T09:06:37.155Z</time></trkpt><trkpt lat="44.1174125" lon="8.1170355"><ele>158.0</ele><time>2026-04-18T09:06:38.156Z</time></trkpt><trkpt lat="44.1174586" lon="8.1168731"><ele>162.0</ele><time>2026-04-18T09:06:39.156Z</time></trkpt><trkpt lat="44.1175427" lon="8.1167692"><ele>166.0</ele><time>2026-04-18T09:06:40.155Z</time></trkpt><trkpt lat="44.1176376" lon="8.1167349"><ele>166.0</ele><time>2026-04-18T09:06:41.156Z</time></trkpt><trkpt lat="44.1177402" lon="8.1167505"><ele>166.0</ele><time>2026-04-18T09:06:42.156Z</time></trkpt><trkpt lat="44.1178521" lon="8.1167915"><ele>166.0</ele><time>2026-04-18T09:06:43.156Z</time></trkpt><trkpt lat="44.1179664" lon="8.1168096"><ele>166.0</ele><time>2026-04-18T09:06:44.155Z</time></trkpt><trkpt lat="44.1180629" lon="8.1168015"><ele>166.0</ele><time>2026-04-18T09:06:45.156Z</time></trkpt><trkpt lat="44.1181162" lon="8.1167352"><ele>166.0</ele><time>2026-04-18T09:06:46.155Z</time></trkpt><trkpt lat="44.1181284" lon="8.1166268"><ele>166.0</ele><time>2026-04-18T09:06:47.156Z</time></trkpt><trkpt lat="44.1180924" lon="8.1164978"><ele>166.0</ele><time>2026-04-18T09:06:48.155Z</time></trkpt><trkpt lat="44.1180328" lon="8.1163828"><ele>166.0</ele><time>2026-04-18T09:06:49.156Z</time></trkpt><trkpt lat="44.118005" lon="8.1162489"><ele>166.0</ele><time>2026-04-18T09:06:50.156Z</time></trkpt><trkpt lat="44.1180419" lon="8.1161169"><ele>167.0</ele><time>2026-04-18T09:06:51.156Z</time></trkpt><trkpt lat="44.1181196" lon="8.1160008"><ele>168.0</ele><time>2026-04-18T09:06:52.156Z</time></trkpt><trkpt lat="44.1182258" lon="8.1159336"><ele>169.0</ele><time>2026-04-18T09:06:53.156Z</time></trkpt><trkpt lat="44.118366" lon="8.1158983"><ele>170.0</ele><time>2026-04-18T09:06:54.156Z</time></trkpt><trkpt lat="44.1185158" lon="8.1158851"><ele>170.0</ele><time>2026-04-18T09:06:55.156Z</time></trkpt><trkpt lat="44.1186767" lon="8.1159039"><ele>170.0</ele><time>2026-04-18T09:06:56.156Z</time></trkpt><trkpt lat="44.1188465" lon="8.1159569"><ele>170.0</ele><time>2026-04-18T09:06:57.155Z</time></trkpt><trkpt lat="44.1190215" lon="8.1160439"><ele>171.0</ele><time>2026-04-18T09:06:58.156Z</time></trkpt><trkpt lat="44.119193" lon="8.1161652"><ele>172.0</ele><time>2026-04-18T09:06:59.156Z</time></trkpt><trkpt lat="44.119371" lon="8.1162968"><ele>173.0</ele><time>2026-04-18T09:07:00.156Z</time></trkpt><trkpt lat="44.1195392" lon="8.1164188"><ele>173.0</ele><time>2026-04-18T09:07:01.156Z</time></trkpt><trkpt lat="44.1196817" lon="8.1165435"><ele>173.0</ele><time>2026-04-18T09:07:02.156Z</time></trkpt><trkpt lat="44.119788" lon="8.1166463"><ele>173.0</ele><time>2026-04-18T09:07:03.156Z</time></trkpt><trkpt lat="44.1199258" lon="8.116721"><ele>173.0</ele><time>2026-04-18T09:07:04.156Z</time></trkpt><trkpt lat="44.1200736" lon="8.1167226"><ele>178.0</ele><time>2026-04-18T09:07:05.156Z</time></trkpt><trkpt lat="44.1202383" lon="8.1167446"><ele>183.0</ele><time>2026-04-18T09:07:06.156Z</time></trkpt><trkpt lat="44.1203617" lon="8.1168069"><ele>188.0</ele><time>2026-04-18T09:07:07.156Z</time></trkpt><trkpt lat="44.120424" lon="8.1169094"><ele>193.0</ele><time>2026-04-18T09:07:08.156Z</time></trkpt><trkpt lat="44.1204685" lon="8.1170209"><ele>193.0</ele><time>2026-04-18T09:07:09.155Z</time></trkpt><trkpt lat="44.1204959" lon="8.1171204"><ele>193.0</ele><time>2026-04-18T09:07:10.156Z</time></trkpt><trkpt lat="44.1205528" lon="8.1171854"><ele>193.0</ele><time>2026-04-18T09:07:11.156Z</time></trkpt><trkpt lat="44.1206449" lon="8.1172054"><ele>193.0</ele><time>2026-04-18T09:07:12.156Z</time></trkpt><trkpt lat="44.1207526" lon="8.1171535"><ele>193.0</ele><time>2026-04-18T09:07:13.156Z</time></trkpt><trkpt lat="44.120859" lon="8.1170495"><ele>193.75</ele><time>2026-04-18T09:07:14.156Z</time></trkpt><trkpt lat="44.1209612" lon="8.1169237"><ele>194.5</ele><time>2026-04-18T09:07:15.156Z</time></trkpt><trkpt lat="44.1210304" lon="8.1167618"><ele>195.25</ele><time>2026-04-18T09:07:16.156Z</time></trkpt><trkpt lat="44.1210748" lon="8.116575"><ele>196.0</ele><time>2026-04-18T09:07:17.156Z</time></trkpt><trkpt lat="44.1211083" lon="8.1164053"><ele>196.8</ele><time>2026-04-18T09:07:18.156Z</time></trkpt><trkpt lat="44.1211454" lon="8.1162692"><ele>197.60000000000002</ele><time>2026-04-18T09:07:19.156Z</time></trkpt><trkpt lat="44.1212202" lon="8.1161808"><ele>198.4</ele><time>2026-04-18T09:07:20.156Z</time></trkpt><trkpt lat="44.1213274" lon="8.1161551"><ele>199.2</ele><time>2026-04-18T09:07:21.156Z</time></trkpt><trkpt lat="44.1214444" lon="8.116144"><ele>200.0</ele><time>2026-04-18T09:07:22.155Z</time></trkpt><trkpt lat="44.1215655" lon="8.1161495"><ele>200.0</ele><time>2026-04-18T09:07:23.156Z</time></trkpt><trkpt lat="44.1216881" lon="8.1161182"><ele>200.0</ele><time>2026-04-18T09:07:24.156Z</time></trkpt><trkpt lat="44.121805" lon="8.1160334"><ele>200.0</ele><time>2026-04-18T09:07:25.156Z</time></trkpt><trkpt lat="44.1218889" lon="8.1158922"><ele>200.0</ele><time>2026-04-18T09:07:26.156Z</time></trkpt><trkpt lat="44.1219357" lon="8.1157037"><ele>195.75</ele><time>2026-04-18T09:07:27.156Z</time></trkpt><trkpt lat="44.1219567" lon="8.1154974"><ele>191.5</ele><time>2026-04-18T09:07:28.156Z</time></trkpt><trkpt lat="44.121978" lon="8.115302"><ele>187.25</ele><time>2026-04-18T09:07:29.155Z</time></trkpt><trkpt lat="44.1220313" lon="8.1151375"><ele>183.0</ele><time>2026-04-18T09:07:30.156Z</time></trkpt><trkpt lat="44.1221186" lon="8.1150129"><ele>183.0</ele><time>2026-04-18T09:07:31.155Z</time></trkpt><trkpt lat="44.122228" lon="8.1149148"><ele>183.0</ele><time>2026-04-18T09:07:32.156Z</time></trkpt><trkpt lat="44.1223629" lon="8.1148587"><ele>183.0</ele><time>2026-04-18T09:07:33.156Z</time></trkpt><trkpt lat="44.1225116" lon="8.1148422"><ele>183.0</ele><time>2026-04-18T09:07:34.156Z</time></trkpt><trkpt lat="44.1226768" lon="8.1148716"><ele>193.33333333333331</ele><time>2026-04-18T09:07:35.155Z</time></trkpt><trkpt lat="44.1228478" lon="8.1149427"><ele>203.66666666666666</ele><time>2026-04-18T09:07:36.156Z</time></trkpt><trkpt lat="44.123013" lon="8.1150214"><ele>214.0</ele><time>2026-04-18T09:07:37.156Z</time></trkpt><trkpt lat="44.1231514" lon="8.1150723"><ele>215.5</ele><time>2026-04-18T09:07:38.155Z</time></trkpt><trkpt lat="44.1232654" lon="8.1150806"><ele>217.0</ele><time>2026-04-18T09:07:39.156Z</time></trkpt><trkpt lat="44.1233884" lon="8.1150292"><ele>218.5</ele><time>2026-04-18T09:07:40.156Z</time></trkpt><trkpt lat="44.1235125" lon="8.1149272"><ele>220.0</ele><time>2026-04-18T09:07:41.156Z</time></trkpt><trkpt lat="44.1236382" lon="8.1147878"><ele>216.0</ele><time>2026-04-18T09:07:42.156Z</time></trkpt><trkpt lat="44.1237558" lon="8.1146778"><ele>212.0</ele><time>2026-04-18T09:07:43.156Z</time></trkpt><trkpt lat="44.1238713" lon="8.1146223"><ele>208.0</ele><time>2026-04-18T09:07:44.155Z</time></trkpt><trkpt lat="44.1239965" lon="8.1146125"><ele>204.0</ele><time>2026-04-18T09:07:45.156Z</time></trkpt><trkpt lat="44.1241142" lon="8.1146543"><ele>204.0</ele><time>2026-04-18T09:07:46.156Z</time></trkpt><trkpt lat="44.1242212" lon="8.1146665"><ele>204.0</ele><time>2026-04-18T09:07:47.156Z</time></trkpt><trkpt lat="44.1243383" lon="8.1145702"><ele>204.0</ele><time>2026-04-18T09:07:48.156Z</time></trkpt><trkpt lat="44.1244585" lon="8.1144443"><ele>204.0</ele><time>2026-04-18T09:07:49.156Z</time></trkpt><trkpt lat="44.1245738" lon="8.1143213"><ele>204.0</ele><time>2026-04-18T09:07:50.157Z</time></trkpt><trkpt lat="44.1246862" lon="8.1142267"><ele>204.0</ele><time>2026-04-18T09:07:51.157Z</time></trkpt><trkpt lat="44.1248089" lon="8.1141704"><ele>204.0</ele><time>2026-04-18T09:07:52.157Z</time></trkpt><trkpt lat="44.1249541" lon="8.1141529"><ele>204.0</ele><time>2026-04-18T09:07:53.157Z</time></trkpt><trkpt lat="44.1251205" lon="8.1141501"><ele>209.33333333333331</ele><time>2026-04-18T09:07:54.157Z</time></trkpt><trkpt lat="44.1252949" lon="8.1141418"><ele>214.66666666666666</ele><time>2026-04-18T09:07:55.157Z</time></trkpt><trkpt lat="44.1254732" lon="8.1141307"><ele>220.0</ele><time>2026-04-18T09:07:56.156Z</time></trkpt><trkpt lat="44.1256561" lon="8.1141327"><ele>225.0</ele><time>2026-04-18T09:07:57.157Z</time></trkpt><trkpt lat="44.1258356" lon="8.1141597"><ele>230.0</ele><time>2026-04-18T09:07:58.157Z</time></trkpt><trkpt lat="44.1260047" lon="8.1142128"><ele>235.0</ele><time>2026-04-18T09:07:59.157Z</time></trkpt><trkpt lat="44.1261456" lon="8.1142895"><ele>235.0</ele><time>2026-04-18T09:08:00.156Z</time></trkpt><trkpt lat="44.1262605" lon="8.1143579"><ele>235.0</ele><time>2026-04-18T09:08:01.157Z</time></trkpt><trkpt lat="44.1263609" lon="8.1143962"><ele>235.0</ele><time>2026-04-18T09:08:02.156Z</time></trkpt><trkpt lat="44.1264496" lon="8.1143848"><ele>235.0</ele><time>2026-04-18T09:08:03.157Z</time></trkpt><trkpt lat="44.1265282" lon="8.1143164"><ele>235.0</ele><time>2026-04-18T09:08:04.157Z</time></trkpt><trkpt lat="44.1265714" lon="8.1141931"><ele>239.4</ele><time>2026-04-18T09:08:05.157Z</time></trkpt><trkpt lat="44.1265618" lon="8.1140462"><ele>243.8</ele><time>2026-04-18T09:08:06.156Z</time></trkpt><trkpt lat="44.1265064" lon="8.1139144"><ele>248.2</ele><time>2026-04-18T09:08:07.157Z</time></trkpt><trkpt lat="44.1264316" lon="8.1137841"><ele>252.6</ele><time>2026-04-18T09:08:08.157Z</time></trkpt><trkpt lat="44.1263759" lon="8.1136509"><ele>257.0</ele><time>2026-04-18T09:08:09.157Z</time></trkpt><trkpt lat="44.1263526" lon="8.1134969"><ele>252.25</ele><time>2026-04-18T09:08:10.157Z</time></trkpt><trkpt lat="44.1263655" lon="8.1133335"><ele>247.5</ele><time>2026-04-18T09:08:11.157Z</time></trkpt><trkpt lat="44.1264122" lon="8.1131729"><ele>242.75</ele><time>2026-04-18T09:08:12.157Z</time></trkpt><trkpt lat="44.1264857" lon="8.1130243"><ele>238.0</ele><time>2026-04-18T09:08:13.157Z</time></trkpt><trkpt lat="44.1265758" lon="8.1128714"><ele>238.0</ele><time>2026-04-18T09:08:14.157Z</time></trkpt><trkpt lat="44.1266644" lon="8.1127296"><ele>238.0</ele><time>2026-04-18T09:08:15.157Z</time></trkpt><trkpt lat="44.1267503" lon="8.1125989"><ele>238.0</ele><time>2026-04-18T09:08:16.157Z</time></trkpt><trkpt lat="44.1268454" lon="8.1124947"><ele>238.0</ele><time>2026-04-18T09:08:17.157Z</time></trkpt><trkpt lat="44.1269798" lon="8.1124115"><ele>234.5</ele><time>2026-04-18T09:08:18.157Z</time></trkpt><trkpt lat="44.1271311" lon="8.1123582"><ele>231.0</ele><time>2026-04-18T09:08:19.157Z</time></trkpt><trkpt lat="44.1272691" lon="8.112335"><ele>227.5</ele><time>2026-04-18T09:08:20.157Z</time></trkpt><trkpt lat="44.1274024" lon="8.1123618"><ele>224.0</ele><time>2026-04-18T09:08:21.157Z</time></trkpt><trkpt lat="44.1275438" lon="8.1124634"><ele>232.5</ele><time>2026-04-18T09:08:22.157Z</time></trkpt><trkpt lat="44.1276647" lon="8.112566"><ele>241.0</ele><time>2026-04-18T09:08:23.157Z</time></trkpt><trkpt lat="44.1277815" lon="8.1126469"><ele>249.5</ele><time>2026-04-18T09:08:24.157Z</time></trkpt><trkpt lat="44.1279023" lon="8.1126679"><ele>258.0</ele><time>2026-04-18T09:08:25.156Z</time></trkpt><trkpt lat="44.1280323" lon="8.1126204"><ele>258.0</ele><time>2026-04-18T09:08:26.157Z</time></trkpt><trkpt lat="44.1281542" lon="8.1125278"><ele>258.0</ele><time>2026-04-18T09:08:27.157Z</time></trkpt><trkpt lat="44.1282924" lon="8.1124379"><ele>258.0</ele><time>2026-04-18T09:08:28.157Z</time></trkpt><trkpt lat="44.1284391" lon="8.1123778"><ele>258.0</ele><time>2026-04-18T09:08:29.157Z</time></trkpt><trkpt lat="44.1285795" lon="8.1123491"><ele>250.0</ele><time>2026-04-18T09:08:30.157Z</time></trkpt><trkpt lat="44.1286974" lon="8.112298"><ele>242.0</ele><time>2026-04-18T09:08:31.157Z</time></trkpt><trkpt lat="44.1287845" lon="8.1121688"><ele>234.0</ele><time>2026-04-18T09:08:32.156Z</time></trkpt><trkpt lat="44.1288304" lon="8.1120049"><ele>226.0</ele><time>2026-04-18T09:08:33.157Z</time></trkpt><trkpt lat="44.1288753" lon="8.1118407"><ele>226.0</ele><time>2026-04-18T09:08:34.157Z</time></trkpt><trkpt lat="44.1289376" lon="8.1117312"><ele>226.00000000000003</ele><time>2026-04-18T09:08:35.157Z</time></trkpt><trkpt lat="44.1290228" lon="8.1116821"><ele>226.00000000000003</ele><time>2026-04-18T09:08:36.156Z</time></trkpt><trkpt lat="44.1291285" lon="8.1117096"><ele>226.0</ele><time>2026-04-18T09:08:37.156Z</time></trkpt><trkpt lat="44.1292586" lon="8.1117619"><ele>226.0</ele><time>2026-04-18T09:08:38.157Z</time></trkpt><trkpt lat="44.1293897" lon="8.1118267"><ele>231.25</ele><time>2026-04-18T09:08:39.157Z</time></trkpt><trkpt lat="44.1295318" lon="8.1118883"><ele>236.5</ele><time>2026-04-18T09:08:40.156Z</time></trkpt><trkpt lat="44.1296742" lon="8.1119371"><ele>241.75</ele><time>2026-04-18T09:08:41.156Z</time></trkpt><trkpt lat="44.1297966" lon="8.1120026"><ele>247.0</ele><time>2026-04-18T09:08:42.156Z</time></trkpt><trkpt lat="44.1298981" lon="8.1120997"><ele>247.2</ele><time>2026-04-18T09:08:43.157Z</time></trkpt><trkpt lat="44.1299969" lon="8.112234"><ele>247.39999999999998</ele><time>2026-04-18T09:08:44.157Z</time></trkpt><trkpt lat="44.1300848" lon="8.1123253"><ele>247.60000000000002</ele><time>2026-04-18T09:08:45.157Z</time></trkpt><trkpt lat="44.1301669" lon="8.112379"><ele>247.8</ele><time>2026-04-18T09:08:46.156Z</time></trkpt><trkpt lat="44.1302676" lon="8.1123611"><ele>248.0</ele><time>2026-04-18T09:08:47.157Z</time></trkpt><trkpt lat="44.1303746" lon="8.1122664"><ele>248.0</ele><time>2026-04-18T09:08:48.157Z</time></trkpt><trkpt lat="44.1304776" lon="8.1121724"><ele>248.0</ele><time>2026-04-18T09:08:49.157Z</time></trkpt><trkpt lat="44.1306121" lon="8.1120853"><ele>248.0</ele><time>2026-04-18T09:08:50.157Z</time></trkpt><trkpt lat="44.1307543" lon="8.1120113"><ele>248.0</ele><time>2026-04-18T09:08:51.157Z</time></trkpt><trkpt lat="44.1308822" lon="8.1119663"><ele>248.75</ele><time>2026-04-18T09:08:52.157Z</time></trkpt><trkpt lat="44.1310077" lon="8.1119713"><ele>249.5</ele><time>2026-04-18T09:08:53.157Z</time></trkpt><trkpt lat="44.1311273" lon="8.1120218"><ele>250.25</ele><time>2026-04-18T09:08:54.157Z</time></trkpt><trkpt lat="44.1312374" lon="8.1120693"><ele>251.0</ele><time>2026-04-18T09:08:55.156Z</time></trkpt><trkpt lat="44.1313454" lon="8.1120774"><ele>251.0</ele><time>2026-04-18T09:08:56.156Z</time></trkpt><trkpt lat="44.1314406" lon="8.1119827"><ele>251.0</ele><time>2026-04-18T09:08:57.156Z</time></trkpt><trkpt lat="44.1315407" lon="8.1118254"><ele>251.0</ele><time>2026-04-18T09:08:58.157Z</time></trkpt><trkpt lat="44.1316461" lon="8.1116835"><ele>251.0</ele><time>2026-04-18T09:08:59.157Z</time></trkpt><trkpt lat="44.1317665" lon="8.1115608"><ele>250.66666666666669</ele><time>2026-04-18T09:09:00.157Z</time></trkpt><trkpt lat="44.1319004" lon="8.1114679"><ele>250.33333333333331</ele><time>2026-04-18T09:09:01.157Z</time></trkpt><trkpt lat="44.1320649" lon="8.1114161"><ele>250.0</ele><time>2026-04-18T09:09:02.156Z</time></trkpt><trkpt lat="44.1322409" lon="8.1113944"><ele>254.66666666666666</ele><time>2026-04-18T09:09:03.157Z</time></trkpt><trkpt lat="44.1324217" lon="8.1113775"><ele>259.3333333333333</ele><time>2026-04-18T09:09:04.156Z</time></trkpt><trkpt lat="44.1325865" lon="8.1113512"><ele>264.0</ele><time>2026-04-18T09:09:05.156Z</time></trkpt><trkpt lat="44.1327426" lon="8.1113393"><ele>264.0</ele><time>2026-04-18T09:09:06.157Z</time></trkpt><trkpt lat="44.1328968" lon="8.1113493"><ele>264.0</ele><time>2026-04-18T09:09:07.157Z</time></trkpt><trkpt lat="44.1330657" lon="8.1113962"><ele>264.0</ele><time>2026-04-18T09:09:08.157Z</time></trkpt><trkpt lat="44.1332397" lon="8.1114668"><ele>265.6666666666667</ele><time>2026-04-18T09:09:09.157Z</time></trkpt><trkpt lat="44.1334084" lon="8.1115189"><ele>267.33333333333337</ele><time>2026-04-18T09:09:10.157Z</time></trkpt><trkpt lat="44.1335659" lon="8.1115772"><ele>269.0</ele><time>2026-04-18T09:09:11.157Z</time></trkpt><trkpt lat="44.1337037" lon="8.1116169"><ele>269.0</ele><time>2026-04-18T09:09:12.157Z</time></trkpt><trkpt lat="44.1338192" lon="8.1116092"><ele>269.0</ele><time>2026-04-18T09:09:13.157Z</time></trkpt><trkpt lat="44.1339168" lon="8.1115487"><ele>269.0</ele><time>2026-04-18T09:09:14.157Z</time></trkpt><trkpt lat="44.1340076" lon="8.1114387"><ele>269.0</ele><time>2026-04-18T09:09:15.157Z</time></trkpt><trkpt lat="44.1340984" lon="8.1113445"><ele>270.83333333333337</ele><time>2026-04-18T09:09:16.156Z</time></trkpt><trkpt lat="44.1341767" lon="8.1112848"><ele>272.6666666666667</ele><time>2026-04-18T09:09:17.156Z</time></trkpt><trkpt lat="44.1342559" lon="8.1113149"><ele>274.5</ele><time>2026-04-18T09:09:19.156Z</time></trkpt><trkpt lat="44.1342411" lon="8.1114482"><ele>276.3333333333333</ele><time>2026-04-18T09:09:21.157Z</time></trkpt><trkpt lat="44.1341828" lon="8.1115086"><ele>278.16666666666663</ele><time>2026-04-18T09:09:22.157Z</time></trkpt><trkpt lat="44.1341084" lon="8.1115656"><ele>280.0</ele><time>2026-04-18T09:09:23.157Z</time></trkpt><trkpt lat="44.1340057" lon="8.1116187"><ele>284.25</ele><time>2026-04-18T09:09:24.157Z</time></trkpt><trkpt lat="44.1338848" lon="8.1116742"><ele>288.5</ele><time>2026-04-18T09:09:25.156Z</time></trkpt><trkpt lat="44.1337519" lon="8.1117092"><ele>292.75</ele><time>2026-04-18T09:09:26.157Z</time></trkpt><trkpt lat="44.1336176" lon="8.1116913"><ele>297.0</ele><time>2026-04-18T09:09:27.156Z</time></trkpt><trkpt lat="44.133479" lon="8.1116583"><ele>297.0</ele><time>2026-04-18T09:09:28.157Z</time></trkpt><trkpt lat="44.1333425" lon="8.1116364"><ele>297.0</ele><time>2026-04-18T09:09:29.157Z</time></trkpt><trkpt lat="44.1332035" lon="8.1116204"><ele>297.0</ele><time>2026-04-18T09:09:30.157Z</time></trkpt><trkpt lat="44.1330646" lon="8.1116085"><ele>297.0</ele><time>2026-04-18T09:09:31.157Z</time></trkpt><trkpt lat="44.1329116" lon="8.1116037"><ele>296.0</ele><time>2026-04-18T09:09:32.157Z</time></trkpt><trkpt lat="44.13276" lon="8.1116342"><ele>295.0</ele><time>2026-04-18T09:09:33.157Z</time></trkpt><trkpt lat="44.1326062" lon="8.1117078"><ele>294.0</ele><time>2026-04-18T09:09:34.157Z</time></trkpt><trkpt lat="44.1324421" lon="8.1117998"><ele>287.0</ele><time>2026-04-18T09:09:35.156Z</time></trkpt><trkpt lat="44.1322801" lon="8.1118944"><ele>280.0</ele><time>2026-04-18T09:09:36.158Z</time></trkpt><trkpt lat="44.1321236" lon="8.111976"><ele>273.0</ele><time>2026-04-18T09:09:37.158Z</time></trkpt><trkpt lat="44.1319857" lon="8.1120649"><ele>273.0</ele><time>2026-04-18T09:09:38.158Z</time></trkpt><trkpt lat="44.131864" lon="8.1121934"><ele>273.0</ele><time>2026-04-18T09:09:39.158Z</time></trkpt><trkpt lat="44.1317554" lon="8.112348"><ele>273.0</ele><time>2026-04-18T09:09:40.157Z</time></trkpt><trkpt lat="44.1316414" lon="8.1124981"><ele>277.75</ele><time>2026-04-18T09:09:41.158Z</time></trkpt><trkpt lat="44.1315125" lon="8.1126119"><ele>282.5</ele><time>2026-04-18T09:09:42.158Z</time></trkpt><trkpt lat="44.1313908" lon="8.1127085"><ele>287.25</ele><time>2026-04-18T09:09:43.158Z</time></trkpt><trkpt lat="44.1312741" lon="8.1127694"><ele>292.0</ele><time>2026-04-18T09:09:44.158Z</time></trkpt><trkpt lat="44.1311459" lon="8.1127781"><ele>292.0</ele><time>2026-04-18T09:09:45.158Z</time></trkpt><trkpt lat="44.1310085" lon="8.1127575"><ele>292.0</ele><time>2026-04-18T09:09:46.158Z</time></trkpt><trkpt lat="44.130867" lon="8.1127437"><ele>292.0</ele><time>2026-04-18T09:09:47.158Z</time></trkpt><trkpt lat="44.1307404" lon="8.1127235"><ele>292.0</ele><time>2026-04-18T09:09:48.158Z</time></trkpt><trkpt lat="44.1306254" lon="8.1126831"><ele>291.6</ele><time>2026-04-18T09:09:49.158Z</time></trkpt><trkpt lat="44.1305209" lon="8.1126752"><ele>291.2</ele><time>2026-04-18T09:09:50.158Z</time></trkpt><trkpt lat="44.1304257" lon="8.1127152"><ele>290.8</ele><time>2026-04-18T09:09:51.158Z</time></trkpt><trkpt lat="44.1303701" lon="8.1128258"><ele>290.4</ele><time>2026-04-18T09:09:52.158Z</time></trkpt><trkpt lat="44.1303421" lon="8.1129771"><ele>290.0</ele><time>2026-04-18T09:09:53.158Z</time></trkpt><trkpt lat="44.1303083" lon="8.1131107"><ele>290.0</ele><time>2026-04-18T09:09:54.157Z</time></trkpt><trkpt lat="44.130236" lon="8.1131822"><ele>290.0</ele><time>2026-04-18T09:09:55.158Z</time></trkpt><trkpt lat="44.1301317" lon="8.1131972"><ele>290.0</ele><time>2026-04-18T09:09:56.158Z</time></trkpt><trkpt lat="44.1300215" lon="8.1131782"><ele>290.0</ele><time>2026-04-18T09:09:57.158Z</time></trkpt><trkpt lat="44.1299042" lon="8.1131074"><ele>290.0</ele><time>2026-04-18T09:09:58.158Z</time></trkpt><trkpt lat="44.1297859" lon="8.1130215"><ele>289.0</ele><time>2026-04-18T09:09:59.157Z</time></trkpt><trkpt lat="44.1296606" lon="8.1129665"><ele>288.0</ele><time>2026-04-18T09:10:00.157Z</time></trkpt><trkpt lat="44.129541" lon="8.1129326"><ele>287.0</ele><time>2026-04-18T09:10:01.158Z</time></trkpt><trkpt lat="44.1294427" lon="8.1129175"><ele>286.0</ele><time>2026-04-18T09:10:02.158Z</time></trkpt><trkpt lat="44.1293507" lon="8.1129592"><ele>285.0</ele><time>2026-04-18T09:10:03.157Z</time></trkpt><trkpt lat="44.1292768" lon="8.1130565"><ele>285.0</ele><time>2026-04-18T09:10:04.158Z</time></trkpt><trkpt lat="44.1291916" lon="8.1131741"><ele>285.0</ele><time>2026-04-18T09:10:05.158Z</time></trkpt><trkpt lat="44.129094" lon="8.1132869"><ele>285.0</ele><time>2026-04-18T09:10:06.157Z</time></trkpt><trkpt lat="44.1289916" lon="8.113322"><ele>285.0</ele><time>2026-04-18T09:10:07.158Z</time></trkpt><trkpt lat="44.1288902" lon="8.1133079"><ele>287.8</ele><time>2026-04-18T09:10:08.157Z</time></trkpt><trkpt lat="44.1287962" lon="8.1132468"><ele>290.6</ele><time>2026-04-18T09:10:09.157Z</time></trkpt><trkpt lat="44.1287035" lon="8.1131753"><ele>293.4</ele><time>2026-04-18T09:10:10.157Z</time></trkpt><trkpt lat="44.1286086" lon="8.1131397"><ele>296.2</ele><time>2026-04-18T09:10:11.158Z</time></trkpt><trkpt lat="44.1285225" lon="8.1131494"><ele>299.0</ele><time>2026-04-18T09:10:12.158Z</time></trkpt><trkpt lat="44.1284477" lon="8.1132068"><ele>299.0</ele><time>2026-04-18T09:10:13.158Z</time></trkpt><trkpt lat="44.1284006" lon="8.1132962"><ele>299.0</ele><time>2026-04-18T09:10:14.158Z</time></trkpt><trkpt lat="44.1283707" lon="8.1134092"><ele>299.0</ele><time>2026-04-18T09:10:15.157Z</time></trkpt><trkpt lat="44.1283909" lon="8.113517"><ele>299.0</ele><time>2026-04-18T09:10:16.158Z</time></trkpt><trkpt lat="44.1284477" lon="8.1135953"><ele>299.0</ele><time>2026-04-18T09:10:17.158Z</time></trkpt><trkpt lat="44.1285287" lon="8.1136314"><ele>299.0</ele><time>2026-04-18T09:10:18.157Z</time></trkpt><trkpt lat="44.1286204" lon="8.1136408"><ele>299.0</ele><time>2026-04-18T09:10:19.158Z</time></trkpt><trkpt lat="44.1287041" lon="8.1135881"><ele>299.0</ele><time>2026-04-18T09:10:20.157Z</time></trkpt><trkpt lat="44.1287849" lon="8.1135301"><ele>299.0</ele><time>2026-04-18T09:10:21.158Z</time></trkpt><trkpt lat="44.1288677" lon="8.1135139"><ele>299.0</ele><time>2026-04-18T09:10:22.158Z</time></trkpt><trkpt lat="44.1289605" lon="8.1135189"><ele>299.0</ele><time>2026-04-18T09:10:23.158Z</time></trkpt><trkpt lat="44.1290678" lon="8.1134977"><ele>296.2</ele><time>2026-04-18T09:10:24.158Z</time></trkpt><trkpt lat="44.1291572" lon="8.113393"><ele>293.4</ele><time>2026-04-18T09:10:25.158Z</time></trkpt><trkpt lat="44.1292468" lon="8.1132778"><ele>290.6</ele><time>2026-04-18T09:10:26.157Z</time></trkpt><trkpt lat="44.1293291" lon="8.1131744"><ele>287.8</ele><time>2026-04-18T09:10:27.158Z</time></trkpt><trkpt lat="44.1294173" lon="8.1131125"><ele>285.0</ele><time>2026-04-18T09:10:28.158Z</time></trkpt><trkpt lat="44.1295055" lon="8.1131207"><ele>285.0</ele><time>2026-04-18T09:10:29.158Z</time></trkpt><trkpt lat="44.1295984" lon="8.1131796"><ele>285.0</ele><time>2026-04-18T09:10:30.158Z</time></trkpt><trkpt lat="44.1296997" lon="8.1132619"><ele>285.0</ele><time>2026-04-18T09:10:31.158Z</time></trkpt><trkpt lat="44.1297986" lon="8.1133501"><ele>285.0</ele><time>2026-04-18T09:10:32.158Z</time></trkpt><trkpt lat="44.1298965" lon="8.1134255"><ele>285.0</ele><time>2026-04-18T09:10:33.158Z</time></trkpt><trkpt lat="44.1299989" lon="8.1134854"><ele>294.0</ele><time>2026-04-18T09:10:34.158Z</time></trkpt><trkpt lat="44.1301022" lon="8.1135218"><ele>303.0</ele><time>2026-04-18T09:10:35.158Z</time></trkpt><trkpt lat="44.1302103" lon="8.1135455"><ele>312.0</ele><time>2026-04-18T09:10:36.158Z</time></trkpt><trkpt lat="44.130311" lon="8.1135513"><ele>321.0</ele><time>2026-04-18T09:10:37.148Z</time></trkpt><trkpt lat="44.1303993" lon="8.1135404"><ele>330.0</ele><time>2026-04-18T09:10:38.158Z</time></trkpt><trkpt lat="44.1304892" lon="8.1134723"><ele>330.0</ele><time>2026-04-18T09:10:39.157Z</time></trkpt><trkpt lat="44.1305763" lon="8.1133866"><ele>330.0</ele><time>2026-04-18T09:10:40.157Z</time></trkpt><trkpt lat="44.1306632" lon="8.1132993"><ele>330.0</ele><time>2026-04-18T09:10:41.158Z</time></trkpt><trkpt lat="44.1307506" lon="8.1132405"><ele>330.0</ele><time>2026-04-18T09:10:42.157Z</time></trkpt><trkpt lat="44.130859" lon="8.113275"><ele>330.0</ele><time>2026-04-18T09:10:43.158Z</time></trkpt><trkpt lat="44.1309772" lon="8.11334"><ele>331.0</ele><time>2026-04-18T09:10:44.158Z</time></trkpt><trkpt lat="44.1310969" lon="8.1134037"><ele>332.0</ele><time>2026-04-18T09:10:45.157Z</time></trkpt><trkpt lat="44.131205" lon="8.1134465"><ele>333.0</ele><time>2026-04-18T09:10:46.158Z</time></trkpt><trkpt lat="44.1313104" lon="8.1134771"><ele>334.0</ele><time>2026-04-18T09:10:47.158Z</time></trkpt><trkpt lat="44.1314089" lon="8.1134836"><ele>335.0</ele><time>2026-04-18T09:10:48.157Z</time></trkpt><trkpt lat="44.1315148" lon="8.1134412"><ele>336.75</ele><time>2026-04-18T09:10:49.158Z</time></trkpt><trkpt lat="44.1316207" lon="8.1133892"><ele>338.5</ele><time>2026-04-18T09:10:50.158Z</time></trkpt><trkpt lat="44.131723" lon="8.1133487"><ele>340.25</ele><time>2026-04-18T09:10:51.158Z</time></trkpt><trkpt lat="44.1318314" lon="8.1132965"><ele>342.0</ele><time>2026-04-18T09:10:52.158Z</time></trkpt><trkpt lat="44.1319409" lon="8.1132422"><ele>332.75</ele><time>2026-04-18T09:10:53.158Z</time></trkpt><trkpt lat="44.1320429" lon="8.113186"><ele>323.5</ele><time>2026-04-18T09:10:54.158Z</time></trkpt><trkpt lat="44.132141" lon="8.113129"><ele>314.25</ele><time>2026-04-18T09:10:55.157Z</time></trkpt><trkpt lat="44.1322435" lon="8.1130579"><ele>305.0</ele><time>2026-04-18T09:10:56.158Z</time></trkpt><trkpt lat="44.1323519" lon="8.1129774"><ele>311.25</ele><time>2026-04-18T09:10:57.157Z</time></trkpt><trkpt lat="44.1324681" lon="8.1128935"><ele>317.5</ele><time>2026-04-18T09:10:58.158Z</time></trkpt><trkpt lat="44.132573" lon="8.1128025"><ele>323.75</ele><time>2026-04-18T09:10:59.157Z</time></trkpt><trkpt lat="44.1326652" lon="8.1127209"><ele>330.0</ele><time>2026-04-18T09:11:00.158Z</time></trkpt><trkpt lat="44.1327692" lon="8.1126889"><ele>330.0</ele><time>2026-04-18T09:11:01.158Z</time></trkpt><trkpt lat="44.1328844" lon="8.1126953"><ele>330.0</ele><time>2026-04-18T09:11:02.158Z</time></trkpt><trkpt lat="44.1329998" lon="8.11275"><ele>330.0</ele><time>2026-04-18T09:11:03.158Z</time></trkpt><trkpt lat="44.1331189" lon="8.11283"><ele>330.0</ele><time>2026-04-18T09:11:04.158Z</time></trkpt><trkpt lat="44.1332358" lon="8.1129242"><ele>330.25</ele><time>2026-04-18T09:11:05.157Z</time></trkpt><trkpt lat="44.1333664" lon="8.1130134"><ele>330.5</ele><time>2026-04-18T09:11:06.157Z</time></trkpt><trkpt lat="44.1335018" lon="8.1130863"><ele>330.75</ele><time>2026-04-18T09:11:07.157Z</time></trkpt><trkpt lat="44.1336286" lon="8.1131587"><ele>331.0</ele><time>2026-04-18T09:11:08.158Z</time></trkpt><trkpt lat="44.1337373" lon="8.1132204"><ele>336.8</ele><time>2026-04-18T09:11:09.158Z</time></trkpt><trkpt lat="44.1338309" lon="8.1132799"><ele>342.6</ele><time>2026-04-18T09:11:10.158Z</time></trkpt><trkpt lat="44.1339073" lon="8.1133624"><ele>348.4</ele><time>2026-04-18T09:11:11.158Z</time></trkpt><trkpt lat="44.1339443" lon="8.1134747"><ele>354.2</ele><time>2026-04-18T09:11:12.158Z</time></trkpt><trkpt lat="44.1339509" lon="8.1135975"><ele>360.0</ele><time>2026-04-18T09:11:13.158Z</time></trkpt><trkpt lat="44.1339072" lon="8.1137093"><ele>360.0</ele><time>2026-04-18T09:11:14.158Z</time></trkpt><trkpt lat="44.133834" lon="8.1137791"><ele>360.0</ele><time>2026-04-18T09:11:15.157Z</time></trkpt><trkpt lat="44.1337445" lon="8.1137954"><ele>360.0</ele><time>2026-04-18T09:11:16.158Z</time></trkpt><trkpt lat="44.1336645" lon="8.113737"><ele>360.0</ele><time>2026-04-18T09:11:17.158Z</time></trkpt><trkpt lat="44.1336188" lon="8.1136217"><ele>360.0</ele><time>2026-04-18T09:11:18.158Z</time></trkpt><trkpt lat="44.1336066" lon="8.11349"><ele>360.0</ele><time>2026-04-18T09:11:19.157Z</time></trkpt><trkpt lat="44.1336132" lon="8.113381"><ele>360.0</ele><time>2026-04-18T09:11:20.158Z</time></trkpt><trkpt lat="44.1335515" lon="8.1132866"><ele>360.0</ele><time>2026-04-18T09:11:21.158Z</time></trkpt><trkpt lat="44.1333947" lon="8.1132049"><ele>360.0</ele><time>2026-04-18T09:11:22.158Z</time></trkpt><trkpt lat="44.1332554" lon="8.1131428"><ele>352.5</ele><time>2026-04-18T09:11:23.158Z</time></trkpt><trkpt lat="44.1331209" lon="8.1130804"><ele>345.0</ele><time>2026-04-18T09:11:24.159Z</time></trkpt><trkpt lat="44.1329942" lon="8.1130378"><ele>337.5</ele><time>2026-04-18T09:11:25.159Z</time></trkpt><trkpt lat="44.1328822" lon="8.1130185"><ele>330.0</ele><time>2026-04-18T09:11:26.159Z</time></trkpt><trkpt lat="44.1327731" lon="8.1130756"><ele>330.0</ele><time>2026-04-18T09:11:27.159Z</time></trkpt><trkpt lat="44.1326644" lon="8.1131991"><ele>330.0</ele><time>2026-04-18T09:11:28.159Z</time></trkpt><trkpt lat="44.1325632" lon="8.113342"><ele>330.0</ele><time>2026-04-18T09:11:29.158Z</time></trkpt><trkpt lat="44.132432" lon="8.1134741"><ele>330.0</ele><time>2026-04-18T09:11:30.159Z</time></trkpt><trkpt lat="44.1322816" lon="8.113602"><ele>334.0</ele><time>2026-04-18T09:11:31.159Z</time></trkpt><trkpt lat="44.1321411" lon="8.113732"><ele>338.0</ele><time>2026-04-18T09:11:32.159Z</time></trkpt><trkpt lat="44.1319986" lon="8.1138795"><ele>342.0</ele><time>2026-04-18T09:11:33.159Z</time></trkpt><trkpt lat="44.1318674" lon="8.1140341"><ele>349.0</ele><time>2026-04-18T09:11:34.159Z</time></trkpt><trkpt lat="44.1317468" lon="8.1141765"><ele>356.0</ele><time>2026-04-18T09:11:35.159Z</time></trkpt><trkpt lat="44.1316312" lon="8.1142881"><ele>363.0</ele><time>2026-04-18T09:11:36.159Z</time></trkpt><trkpt lat="44.1315156" lon="8.1143475"><ele>370.0</ele><time>2026-04-18T09:11:37.159Z</time></trkpt><trkpt lat="44.1313866" lon="8.1143583"><ele>370.0</ele><time>2026-04-18T09:11:38.159Z</time></trkpt><trkpt lat="44.1312618" lon="8.1142964"><ele>370.0</ele><time>2026-04-18T09:11:39.159Z</time></trkpt><trkpt lat="44.1311364" lon="8.1142285"><ele>370.0</ele><time>2026-04-18T09:11:40.159Z</time></trkpt><trkpt lat="44.1310019" lon="8.114189"><ele>370.0</ele><time>2026-04-18T09:11:41.158Z</time></trkpt><trkpt lat="44.1308579" lon="8.1141833"><ele>368.5</ele><time>2026-04-18T09:11:42.158Z</time></trkpt><trkpt lat="44.1307238" lon="8.1142261"><ele>367.0</ele><time>2026-04-18T09:11:43.159Z</time></trkpt><trkpt lat="44.1305853" lon="8.1143008"><ele>365.5</ele><time>2026-04-18T09:11:44.158Z</time></trkpt><trkpt lat="44.1304394" lon="8.114382"><ele>364.0</ele><time>2026-04-18T09:11:45.159Z</time></trkpt><trkpt lat="44.1302915" lon="8.1144375"><ele>364.0</ele><time>2026-04-18T09:11:46.159Z</time></trkpt><trkpt lat="44.1301483" lon="8.1144589"><ele>364.0</ele><time>2026-04-18T09:11:47.159Z</time></trkpt><trkpt lat="44.1300227" lon="8.1144736"><ele>364.0</ele><time>2026-04-18T09:11:48.159Z</time></trkpt><trkpt lat="44.1299201" lon="8.114519"><ele>364.0</ele><time>2026-04-18T09:11:49.159Z</time></trkpt><trkpt lat="44.1298349" lon="8.1145897"><ele>362.6</ele><time>2026-04-18T09:11:50.159Z</time></trkpt><trkpt lat="44.1297958" lon="8.1147093"><ele>361.2</ele><time>2026-04-18T09:11:51.159Z</time></trkpt><trkpt lat="44.1298056" lon="8.1148288"><ele>359.8</ele><time>2026-04-18T09:11:52.159Z</time></trkpt><trkpt lat="44.1298367" lon="8.1149538"><ele>358.40000000000003</ele><time>2026-04-18T09:11:53.159Z</time></trkpt><trkpt lat="44.1299098" lon="8.1150478"><ele>357.0</ele><time>2026-04-18T09:11:54.159Z</time></trkpt><trkpt lat="44.1300059" lon="8.1151195"><ele>358.40000000000003</ele><time>2026-04-18T09:11:55.159Z</time></trkpt><trkpt lat="44.1301066" lon="8.1151315"><ele>359.8</ele><time>2026-04-18T09:11:56.159Z</time></trkpt><trkpt lat="44.1301939" lon="8.1150782"><ele>361.2</ele><time>2026-04-18T09:11:57.159Z</time></trkpt><trkpt lat="44.1302553" lon="8.1149647"><ele>362.6</ele><time>2026-04-18T09:11:58.158Z</time></trkpt><trkpt lat="44.1302927" lon="8.1148297"><ele>364.0</ele><time>2026-04-18T09:11:59.159Z</time></trkpt><trkpt lat="44.1303507" lon="8.114721"><ele>364.0</ele><time>2026-04-18T09:12:00.159Z</time></trkpt><trkpt lat="44.1304348" lon="8.1146534"><ele>364.0</ele><time>2026-04-18T09:12:01.158Z</time></trkpt><trkpt lat="44.1305568" lon="8.114625"><ele>364.0</ele><time>2026-04-18T09:12:02.158Z</time></trkpt><trkpt lat="44.130687" lon="8.1146188"><ele>364.0</ele><time>2026-04-18T09:12:03.159Z</time></trkpt><trkpt lat="44.1308253" lon="8.1146376"><ele>365.5</ele><time>2026-04-18T09:12:04.159Z</time></trkpt><trkpt lat="44.1309668" lon="8.114664"><ele>367.0</ele><time>2026-04-18T09:12:05.159Z</time></trkpt><trkpt lat="44.131107" lon="8.114675"><ele>368.5</ele><time>2026-04-18T09:12:06.159Z</time></trkpt><trkpt lat="44.1312302" lon="8.1146669"><ele>370.0</ele><time>2026-04-18T09:12:07.158Z</time></trkpt><trkpt lat="44.1313302" lon="8.1146744"><ele>370.0</ele><time>2026-04-18T09:12:08.159Z</time></trkpt><trkpt lat="44.1314094" lon="8.1147303"><ele>370.0</ele><time>2026-04-18T09:12:09.159Z</time></trkpt><trkpt lat="44.1314526" lon="8.1148329"><ele>370.0</ele><time>2026-04-18T09:12:10.158Z</time></trkpt><trkpt lat="44.1314538" lon="8.1149432"><ele>370.0</ele><time>2026-04-18T09:12:11.159Z</time></trkpt><trkpt lat="44.1314242" lon="8.1150489"><ele>370.0</ele><time>2026-04-18T09:12:12.158Z</time></trkpt><trkpt lat="44.1313461" lon="8.1151171"><ele>370.0</ele><time>2026-04-18T09:12:13.159Z</time></trkpt><trkpt lat="44.1312476" lon="8.1151274"><ele>370.0</ele><time>2026-04-18T09:12:14.159Z</time></trkpt><trkpt lat="44.1311626" lon="8.1150489"><ele>370.0</ele><time>2026-04-18T09:12:15.159Z</time></trkpt><trkpt lat="44.1310826" lon="8.114934"><ele>370.0</ele><time>2026-04-18T09:12:16.158Z</time></trkpt><trkpt lat="44.1309724" lon="8.1148499"><ele>370.0</ele><time>2026-04-18T09:12:17.159Z</time></trkpt><trkpt lat="44.1308447" lon="8.1147906"><ele>368.5</ele><time>2026-04-18T09:12:18.159Z</time></trkpt><trkpt lat="44.1307138" lon="8.1147654"><ele>367.0</ele><time>2026-04-18T09:12:19.159Z</time></trkpt><trkpt lat="44.1305883" lon="8.1147683"><ele>365.5</ele><time>2026-04-18T09:12:20.159Z</time></trkpt><trkpt lat="44.1304802" lon="8.1148339"><ele>364.0</ele><time>2026-04-18T09:12:21.159Z</time></trkpt><trkpt lat="44.13039" lon="8.1149348"><ele>368.0</ele><time>2026-04-18T09:12:22.158Z</time></trkpt><trkpt lat="44.1303406" lon="8.1150857"><ele>372.0</ele><time>2026-04-18T09:12:23.158Z</time></trkpt><trkpt lat="44.1303344" lon="8.1152406"><ele>376.0</ele><time>2026-04-18T09:12:24.159Z</time></trkpt><trkpt lat="44.1303736" lon="8.1153807"><ele>380.0</ele><time>2026-04-18T09:12:25.159Z</time></trkpt><trkpt lat="44.1304368" lon="8.1154954"><ele>384.0</ele><time>2026-04-18T09:12:26.158Z</time></trkpt><trkpt lat="44.1305076" lon="8.1156151"><ele>385.25</ele><time>2026-04-18T09:12:27.159Z</time></trkpt><trkpt lat="44.130547" lon="8.1157703"><ele>386.5</ele><time>2026-04-18T09:12:28.159Z</time></trkpt><trkpt lat="44.1305596" lon="8.1159488"><ele>387.75</ele><time>2026-04-18T09:12:29.159Z</time></trkpt><trkpt lat="44.1305791" lon="8.1161439"><ele>389.0</ele><time>2026-04-18T09:12:30.159Z</time></trkpt><trkpt lat="44.1306047" lon="8.1163449"><ele>389.0</ele><time>2026-04-18T09:12:31.159Z</time></trkpt><trkpt lat="44.1306212" lon="8.1165414"><ele>389.0</ele><time>2026-04-18T09:12:32.159Z</time></trkpt><trkpt lat="44.1306601" lon="8.1167298"><ele>389.0</ele><time>2026-04-18T09:12:33.159Z</time></trkpt><trkpt lat="44.1307264" lon="8.116904"><ele>389.0</ele><time>2026-04-18T09:12:34.159Z</time></trkpt><trkpt lat="44.1308119" lon="8.1170689"><ele>396.0</ele><time>2026-04-18T09:12:35.159Z</time></trkpt><trkpt lat="44.1309025" lon="8.1172359"><ele>403.0</ele><time>2026-04-18T09:12:36.159Z</time></trkpt><trkpt lat="44.1309998" lon="8.1174079"><ele>410.0</ele><time>2026-04-18T09:12:37.158Z</time></trkpt><trkpt lat="44.131111" lon="8.1175852"><ele>410.0</ele><time>2026-04-18T09:12:38.159Z</time></trkpt><trkpt lat="44.1312301" lon="8.1177538"><ele>410.0</ele><time>2026-04-18T09:12:39.159Z</time></trkpt><trkpt lat="44.1313493" lon="8.1179156"><ele>410.0</ele><time>2026-04-18T09:12:40.159Z</time></trkpt><trkpt lat="44.1314733" lon="8.1180717"><ele>413.0</ele><time>2026-04-18T09:12:41.158Z</time></trkpt><trkpt lat="44.1315978" lon="8.1182349"><ele>416.0</ele><time>2026-04-18T09:12:42.159Z</time></trkpt><trkpt lat="44.1317148" lon="8.1184196"><ele>419.0</ele><time>2026-04-18T09:12:43.158Z</time></trkpt><trkpt lat="44.1318177" lon="8.1186285"><ele>419.0</ele><time>2026-04-18T09:12:44.159Z</time></trkpt><trkpt lat="44.1319163" lon="8.1188415"><ele>419.0</ele><time>2026-04-18T09:12:45.158Z</time></trkpt><trkpt lat="44.1320094" lon="8.1190496"><ele>419.0</ele><time>2026-04-18T09:12:46.159Z</time></trkpt><trkpt lat="44.1320874" lon="8.119261"><ele>419.3333333333333</ele><time>2026-04-18T09:12:47.159Z</time></trkpt><trkpt lat="44.1321364" lon="8.1194895"><ele>419.66666666666663</ele><time>2026-04-18T09:12:48.159Z</time></trkpt><trkpt lat="44.1321673" lon="8.1197381"><ele>420.0</ele><time>2026-04-18T09:12:49.159Z</time></trkpt><trkpt lat="44.1321875" lon="8.1199961"><ele>421.66666666666663</ele><time>2026-04-18T09:12:50.159Z</time></trkpt><trkpt lat="44.1322041" lon="8.120246"><ele>423.3333333333333</ele><time>2026-04-18T09:12:51.159Z</time></trkpt><trkpt lat="44.1322282" lon="8.1204847"><ele>425.0</ele><time>2026-04-18T09:12:52.158Z</time></trkpt><trkpt lat="44.1322775" lon="8.1207159"><ele>426.5</ele><time>2026-04-18T09:12:53.159Z</time></trkpt><trkpt lat="44.1323406" lon="8.1209288"><ele>428.0</ele><time>2026-04-18T09:12:54.159Z</time></trkpt><trkpt lat="44.1324098" lon="8.1211057"><ele>429.5</ele><time>2026-04-18T09:12:55.158Z</time></trkpt><trkpt lat="44.132465" lon="8.1212543"><ele>431.0</ele><time>2026-04-18T09:12:56.159Z</time></trkpt><trkpt lat="44.132476" lon="8.1213931"><ele>431.0</ele><time>2026-04-18T09:12:57.159Z</time></trkpt><trkpt lat="44.1324542" lon="8.1215177"><ele>431.0</ele><time>2026-04-18T09:12:58.159Z</time></trkpt><trkpt lat="44.132393" lon="8.1216183"><ele>431.0</ele><time>2026-04-18T09:12:59.159Z</time></trkpt><trkpt lat="44.1322842" lon="8.1216434"><ele>431.0</ele><time>2026-04-18T09:13:00.159Z</time></trkpt><trkpt lat="44.1321834" lon="8.1216156"><ele>431.0</ele><time>2026-04-18T09:13:01.159Z</time></trkpt><trkpt lat="44.1320959" lon="8.1215097"><ele>431.0</ele><time>2026-04-18T09:13:02.159Z</time></trkpt><trkpt lat="44.1320239" lon="8.1213537"><ele>431.0</ele><time>2026-04-18T09:13:03.159Z</time></trkpt><trkpt lat="44.1319591" lon="8.1211931"><ele>431.0</ele><time>2026-04-18T09:13:04.159Z</time></trkpt><trkpt lat="44.1318898" lon="8.1210574"><ele>431.0</ele><time>2026-04-18T09:13:05.16Z</time></trkpt><trkpt lat="44.1317931" lon="8.1209553"><ele>431.0</ele><time>2026-04-18T09:13:06.16Z</time></trkpt><trkpt lat="44.1316635" lon="8.1208938"><ele>431.0</ele><time>2026-04-18T09:13:07.159Z</time></trkpt><trkpt lat="44.1315406" lon="8.1208574"><ele>431.0</ele><time>2026-04-18T09:13:08.16Z</time></trkpt><trkpt lat="44.1314321" lon="8.1207975"><ele>431.0</ele><time>2026-04-18T09:13:09.16Z</time></trkpt><trkpt lat="44.1313594" lon="8.1206973"><ele>436.4</ele><time>2026-04-18T09:13:10.16Z</time></trkpt><trkpt lat="44.1313303" lon="8.1205688"><ele>441.8</ele><time>2026-04-18T09:13:11.16Z</time></trkpt><trkpt lat="44.1313428" lon="8.1204296"><ele>447.19999999999993</ele><time>2026-04-18T09:13:12.16Z</time></trkpt><trkpt lat="44.1313674" lon="8.1202863"><ele>452.59999999999997</ele><time>2026-04-18T09:13:13.16Z</time></trkpt><trkpt lat="44.1313883" lon="8.1201378"><ele>458.0</ele><time>2026-04-18T09:13:14.16Z</time></trkpt><trkpt lat="44.1313641" lon="8.1200068"><ele>452.5</ele><time>2026-04-18T09:13:15.16Z</time></trkpt><trkpt lat="44.1312974" lon="8.1198887"><ele>447.0</ele><time>2026-04-18T09:13:16.159Z</time></trkpt><trkpt lat="44.131217" lon="8.1197599"><ele>441.5</ele><time>2026-04-18T09:13:17.16Z</time></trkpt><trkpt lat="44.1311401" lon="8.1196214"><ele>436.0</ele><time>2026-04-18T09:13:18.16Z</time></trkpt><trkpt lat="44.1310553" lon="8.1194838"><ele>436.0</ele><time>2026-04-18T09:13:19.16Z</time></trkpt><trkpt lat="44.130973" lon="8.1193594"><ele>436.0</ele><time>2026-04-18T09:13:20.159Z</time></trkpt><trkpt lat="44.1308976" lon="8.1192524"><ele>436.0</ele><time>2026-04-18T09:13:21.159Z</time></trkpt><trkpt lat="44.130801" lon="8.1191852"><ele>436.0</ele><time>2026-04-18T09:13:22.16Z</time></trkpt><trkpt lat="44.1306804" lon="8.1191436"><ele>436.25</ele><time>2026-04-18T09:13:23.16Z</time></trkpt><trkpt lat="44.1305464" lon="8.1191001"><ele>436.5</ele><time>2026-04-18T09:13:24.16Z</time></trkpt><trkpt lat="44.1304214" lon="8.119049"><ele>436.75</ele><time>2026-04-18T09:13:25.159Z</time></trkpt><trkpt lat="44.1303168" lon="8.1189881"><ele>437.0</ele><time>2026-04-18T09:13:26.16Z</time></trkpt><trkpt lat="44.1302428" lon="8.1188836"><ele>434.3333333333333</ele><time>2026-04-18T09:13:27.159Z</time></trkpt><trkpt lat="44.1301918" lon="8.1187702"><ele>431.66666666666663</ele><time>2026-04-18T09:13:28.16Z</time></trkpt><trkpt lat="44.130135" lon="8.1186786"><ele>429.0</ele><time>2026-04-18T09:13:29.16Z</time></trkpt><trkpt lat="44.1300522" lon="8.1186244"><ele>426.33333333333337</ele><time>2026-04-18T09:13:30.159Z</time></trkpt><trkpt lat="44.1299643" lon="8.1186327"><ele>423.6666666666667</ele><time>2026-04-18T09:13:31.159Z</time></trkpt><trkpt lat="44.1298921" lon="8.1186937"><ele>421.0</ele><time>2026-04-18T09:13:32.159Z</time></trkpt><trkpt lat="44.1298369" lon="8.1188131"><ele>417.8</ele><time>2026-04-18T09:13:33.16Z</time></trkpt><trkpt lat="44.1298325" lon="8.1189346"><ele>414.6</ele><time>2026-04-18T09:13:34.159Z</time></trkpt><trkpt lat="44.129878" lon="8.1190272"><ele>411.4</ele><time>2026-04-18T09:13:35.159Z</time></trkpt><trkpt lat="44.1299688" lon="8.1190925"><ele>408.2</ele><time>2026-04-18T09:13:36.159Z</time></trkpt><trkpt lat="44.1300675" lon="8.119122"><ele>405.0</ele><time>2026-04-18T09:13:37.16Z</time></trkpt><trkpt lat="44.1301765" lon="8.1191467"><ele>413.0</ele><time>2026-04-18T09:13:38.159Z</time></trkpt><trkpt lat="44.1303046" lon="8.1191739"><ele>421.0</ele><time>2026-04-18T09:13:39.159Z</time></trkpt><trkpt lat="44.1304294" lon="8.1192249"><ele>429.0</ele><time>2026-04-18T09:13:40.16Z</time></trkpt><trkpt lat="44.1305524" lon="8.1192763"><ele>437.0</ele><time>2026-04-18T09:13:41.16Z</time></trkpt><trkpt lat="44.1306636" lon="8.1193545"><ele>436.75</ele><time>2026-04-18T09:13:42.16Z</time></trkpt><trkpt lat="44.130758" lon="8.1194647"><ele>436.5</ele><time>2026-04-18T09:13:43.159Z</time></trkpt><trkpt lat="44.1308411" lon="8.1196215"><ele>436.25</ele><time>2026-04-18T09:13:44.159Z</time></trkpt><trkpt lat="44.13092" lon="8.11981"><ele>436.0</ele><time>2026-04-18T09:13:45.16Z</time></trkpt><trkpt lat="44.1309782" lon="8.1200018"><ele>441.5</ele><time>2026-04-18T09:13:46.16Z</time></trkpt><trkpt lat="44.1310186" lon="8.1201787"><ele>447.0</ele><time>2026-04-18T09:13:47.16Z</time></trkpt><trkpt lat="44.1310196" lon="8.1203611"><ele>452.5</ele><time>2026-04-18T09:13:48.16Z</time></trkpt><trkpt lat="44.1309743" lon="8.120539"><ele>458.0</ele><time>2026-04-18T09:13:49.16Z</time></trkpt><trkpt lat="44.1308872" lon="8.1207095"><ele>459.75</ele><time>2026-04-18T09:13:50.16Z</time></trkpt><trkpt lat="44.1307883" lon="8.1208683"><ele>461.5</ele><time>2026-04-18T09:13:51.159Z</time></trkpt><trkpt lat="44.1306987" lon="8.1210096"><ele>463.25</ele><time>2026-04-18T09:13:52.16Z</time></trkpt><trkpt lat="44.1306242" lon="8.1211414"><ele>465.0</ele><time>2026-04-18T09:13:53.159Z</time></trkpt><trkpt lat="44.1305826" lon="8.1212686"><ele>466.2</ele><time>2026-04-18T09:13:54.16Z</time></trkpt><trkpt lat="44.1305814" lon="8.1213843"><ele>467.4</ele><time>2026-04-18T09:13:55.159Z</time></trkpt><trkpt lat="44.1306269" lon="8.1214817"><ele>468.6</ele><time>2026-04-18T09:13:56.159Z</time></trkpt><trkpt lat="44.1307027" lon="8.1215514"><ele>469.8</ele><time>2026-04-18T09:13:57.16Z</time></trkpt><trkpt lat="44.1308157" lon="8.1216022"><ele>471.0</ele><time>2026-04-18T09:13:58.16Z</time></trkpt><trkpt lat="44.1309365" lon="8.1216424"><ele>471.0</ele><time>2026-04-18T09:13:59.159Z</time></trkpt><trkpt lat="44.1310645" lon="8.1217029"><ele>471.0</ele><time>2026-04-18T09:14:00.16Z</time></trkpt><trkpt lat="44.1312071" lon="8.121764"><ele>471.0</ele><time>2026-04-18T09:14:01.159Z</time></trkpt><trkpt lat="44.1313522" lon="8.1218296"><ele>471.0</ele><time>2026-04-18T09:14:02.159Z</time></trkpt><trkpt lat="44.131485" lon="8.1219115"><ele>472.25</ele><time>2026-04-18T09:14:03.16Z</time></trkpt><trkpt lat="44.1316055" lon="8.1220084"><ele>473.5</ele><time>2026-04-18T09:14:04.159Z</time></trkpt><trkpt lat="44.1316834" lon="8.1221366"><ele>474.75</ele><time>2026-04-18T09:14:05.16Z</time></trkpt><trkpt lat="44.1317396" lon="8.1223059"><ele>476.0</ele><time>2026-04-18T09:14:06.16Z</time></trkpt><trkpt lat="44.1317785" lon="8.1225098"><ele>476.0</ele><time>2026-04-18T09:14:07.16Z</time></trkpt><trkpt lat="44.1318116" lon="8.1227305"><ele>476.0</ele><time>2026-04-18T09:14:08.159Z</time></trkpt><trkpt lat="44.1318329" lon="8.1229615"><ele>476.0</ele><time>2026-04-18T09:14:09.159Z</time></trkpt><trkpt lat="44.1318449" lon="8.1231937"><ele>480.0</ele><time>2026-04-18T09:14:10.16Z</time></trkpt><trkpt lat="44.1318545" lon="8.1234183"><ele>484.0</ele><time>2026-04-18T09:14:11.16Z</time></trkpt><trkpt lat="44.1318546" lon="8.1236012"><ele>488.0</ele><time>2026-04-18T09:14:12.16Z</time></trkpt><trkpt lat="44.131859" lon="8.1237442"><ele>492.0</ele><time>2026-04-18T09:14:13.16Z</time></trkpt><trkpt lat="44.1318854" lon="8.1238556"><ele>492.0</ele><time>2026-04-18T09:14:14.159Z</time></trkpt><trkpt lat="44.1319507" lon="8.1239399"><ele>492.00000000000006</ele><time>2026-04-18T09:14:15.16Z</time></trkpt><trkpt lat="44.1320488" lon="8.1239693"><ele>492.00000000000006</ele><time>2026-04-18T09:14:16.16Z</time></trkpt><trkpt lat="44.1321548" lon="8.1239745"><ele>492.0</ele><time>2026-04-18T09:14:17.159Z</time></trkpt><trkpt lat="44.1322639" lon="8.1239954"><ele>492.0</ele><time>2026-04-18T09:14:18.159Z</time></trkpt><trkpt lat="44.1323599" lon="8.1240651"><ele>489.0</ele><time>2026-04-18T09:14:19.16Z</time></trkpt><trkpt lat="44.1324246" lon="8.124178"><ele>486.00000000000006</ele><time>2026-04-18T09:14:20.16Z</time></trkpt><trkpt lat="44.132467" lon="8.12431"><ele>483.00000000000006</ele><time>2026-04-18T09:14:21.16Z</time></trkpt><trkpt lat="44.1325363" lon="8.1244089"><ele>480.0</ele><time>2026-04-18T09:14:22.159Z</time></trkpt><trkpt lat="44.1326609" lon="8.1244632"><ele>477.0</ele><time>2026-04-18T09:14:23.16Z</time></trkpt><trkpt lat="44.1327799" lon="8.1245179"><ele>477.0</ele><time>2026-04-18T09:14:24.16Z</time></trkpt><trkpt lat="44.1328654" lon="8.1246126"><ele>477.0</ele><time>2026-04-18T09:14:25.16Z</time></trkpt><trkpt lat="44.1329326" lon="8.1247511"><ele>477.0</ele><time>2026-04-18T09:14:26.16Z</time></trkpt><trkpt lat="44.1330006" lon="8.1249127"><ele>477.0</ele><time>2026-04-18T09:14:27.159Z</time></trkpt><trkpt lat="44.1330996" lon="8.1250607"><ele>479.0</ele><time>2026-04-18T09:14:28.16Z</time></trkpt><trkpt lat="44.1332258" lon="8.1251888"><ele>481.0</ele><time>2026-04-18T09:14:29.16Z</time></trkpt><trkpt lat="44.1333611" lon="8.1253202"><ele>483.0</ele><time>2026-04-18T09:14:30.159Z</time></trkpt><trkpt lat="44.1334695" lon="8.1254643"><ele>483.0</ele><time>2026-04-18T09:14:31.16Z</time></trkpt><trkpt lat="44.1335538" lon="8.125588"><ele>482.99999999999994</ele><time>2026-04-18T09:14:32.16Z</time></trkpt><trkpt lat="44.1336335" lon="8.1256497"><ele>482.99999999999994</ele><time>2026-04-18T09:14:33.16Z</time></trkpt><trkpt lat="44.1337157" lon="8.1256647"><ele>483.0</ele><time>2026-04-18T09:14:34.16Z</time></trkpt><trkpt lat="44.133815" lon="8.1256129"><ele>483.0</ele><time>2026-04-18T09:14:35.159Z</time></trkpt><trkpt lat="44.1338882" lon="8.1255099"><ele>483.0</ele><time>2026-04-18T09:14:36.16Z</time></trkpt><trkpt lat="44.13392" lon="8.1253586"><ele>483.0</ele><time>2026-04-18T09:14:37.16Z</time></trkpt><trkpt lat="44.1339353" lon="8.1251762"><ele>483.0</ele><time>2026-04-18T09:14:38.16Z</time></trkpt><trkpt lat="44.1339503" lon="8.1249778"><ele>483.0</ele><time>2026-04-18T09:14:39.16Z</time></trkpt><trkpt lat="44.1339579" lon="8.1247607"><ele>479.66666666666663</ele><time>2026-04-18T09:14:40.16Z</time></trkpt><trkpt lat="44.1339399" lon="8.1245254"><ele>476.3333333333333</ele><time>2026-04-18T09:14:41.16Z</time></trkpt><trkpt lat="44.1339007" lon="8.1242794"><ele>473.0</ele><time>2026-04-18T09:14:42.16Z</time></trkpt><trkpt lat="44.1338529" lon="8.1240518"><ele>473.0</ele><time>2026-04-18T09:14:43.16Z</time></trkpt><trkpt lat="44.1338095" lon="8.1238432"><ele>473.0</ele><time>2026-04-18T09:14:44.16Z</time></trkpt><trkpt lat="44.1337908" lon="8.1236531"><ele>473.0</ele><time>2026-04-18T09:14:45.159Z</time></trkpt><trkpt lat="44.1338093" lon="8.1234707"><ele>473.0</ele><time>2026-04-18T09:14:46.16Z</time></trkpt><trkpt lat="44.1338586" lon="8.1232774"><ele>473.25</ele><time>2026-04-18T09:14:47.16Z</time></trkpt><trkpt lat="44.1338908" lon="8.1230832"><ele>473.5</ele><time>2026-04-18T09:14:48.16Z</time></trkpt><trkpt lat="44.1338878" lon="8.1228862"><ele>473.75</ele><time>2026-04-18T09:14:49.161Z</time></trkpt><trkpt lat="44.1338586" lon="8.1227075"><ele>474.0</ele><time>2026-04-18T09:14:50.16Z</time></trkpt><trkpt lat="44.1338262" lon="8.1225522"><ele>474.0</ele><time>2026-04-18T09:14:51.161Z</time></trkpt><trkpt lat="44.1338138" lon="8.1224"><ele>474.0</ele><time>2026-04-18T09:14:52.161Z</time></trkpt><trkpt lat="44.1338679" lon="8.122237"><ele>474.0</ele><time>2026-04-18T09:14:53.161Z</time></trkpt><trkpt lat="44.1339474" lon="8.1220883"><ele>474.0</ele><time>2026-04-18T09:14:54.16Z</time></trkpt><trkpt lat="44.1340187" lon="8.1219624"><ele>479.75</ele><time>2026-04-18T09:14:55.16Z</time></trkpt><trkpt lat="44.1341016" lon="8.1218557"><ele>485.5</ele><time>2026-04-18T09:14:56.161Z</time></trkpt><trkpt lat="44.134211" lon="8.1217685"><ele>491.25</ele><time>2026-04-18T09:14:57.161Z</time></trkpt><trkpt lat="44.1343157" lon="8.1216702"><ele>497.0</ele><time>2026-04-18T09:14:58.16Z</time></trkpt><trkpt lat="44.1343894" lon="8.1215399"><ele>497.0</ele><time>2026-04-18T09:14:59.161Z</time></trkpt><trkpt lat="44.134429" lon="8.1213917"><ele>497.0</ele><time>2026-04-18T09:15:00.161Z</time></trkpt><trkpt lat="44.1344356" lon="8.1212446"><ele>497.0</ele><time>2026-04-18T09:15:01.161Z</time></trkpt><trkpt lat="44.1344144" lon="8.1210741"><ele>497.0</ele><time>2026-04-18T09:15:02.161Z</time></trkpt><trkpt lat="44.134414" lon="8.1208803"><ele>499.0</ele><time>2026-04-18T09:15:03.161Z</time></trkpt><trkpt lat="44.1344099" lon="8.1206698"><ele>501.0</ele><time>2026-04-18T09:15:04.16Z</time></trkpt><trkpt lat="44.1343663" lon="8.1204728"><ele>503.0</ele><time>2026-04-18T09:15:05.16Z</time></trkpt><trkpt lat="44.134302" lon="8.1202865"><ele>505.0</ele><time>2026-04-18T09:15:06.161Z</time></trkpt><trkpt lat="44.1342494" lon="8.1201011"><ele>505.33333333333337</ele><time>2026-04-18T09:15:07.161Z</time></trkpt><trkpt lat="44.134221" lon="8.1198879"><ele>505.66666666666663</ele><time>2026-04-18T09:15:08.16Z</time></trkpt><trkpt lat="44.1342013" lon="8.1196509"><ele>506.0</ele><time>2026-04-18T09:15:09.16Z</time></trkpt><trkpt lat="44.1341952" lon="8.1194299"><ele>506.0</ele><time>2026-04-18T09:15:10.16Z</time></trkpt><trkpt lat="44.1341893" lon="8.1192541"><ele>506.0</ele><time>2026-04-18T09:15:11.161Z</time></trkpt><trkpt lat="44.1342138" lon="8.1191142"><ele>506.0</ele><time>2026-04-18T09:15:12.161Z</time></trkpt><trkpt lat="44.1342732" lon="8.1189721"><ele>506.0</ele><time>2026-04-18T09:15:13.161Z</time></trkpt><trkpt lat="44.1343525" lon="8.1188153"><ele>505.0</ele><time>2026-04-18T09:15:14.16Z</time></trkpt><trkpt lat="44.1344226" lon="8.1186675"><ele>504.0</ele><time>2026-04-18T09:15:15.16Z</time></trkpt><trkpt lat="44.134488" lon="8.1185486"><ele>503.0</ele><time>2026-04-18T09:15:16.161Z</time></trkpt><trkpt lat="44.1345733" lon="8.1184957"><ele>502.0</ele><time>2026-04-18T09:15:17.161Z</time></trkpt><trkpt lat="44.1346967" lon="8.118525"><ele>502.0</ele><time>2026-04-18T09:15:18.161Z</time></trkpt><trkpt lat="44.1348294" lon="8.1186159"><ele>502.0</ele><time>2026-04-18T09:15:19.161Z</time></trkpt><trkpt lat="44.1349554" lon="8.1187007"><ele>502.0</ele><time>2026-04-18T09:15:20.161Z</time></trkpt><trkpt lat="44.1350891" lon="8.1187871"><ele>502.0</ele><time>2026-04-18T09:15:21.161Z</time></trkpt><trkpt lat="44.1352525" lon="8.1188343"><ele>503.6666666666667</ele><time>2026-04-18T09:15:22.16Z</time></trkpt><trkpt lat="44.1354218" lon="8.1188609"><ele>505.33333333333337</ele><time>2026-04-18T09:15:23.161Z</time></trkpt><trkpt lat="44.1355761" lon="8.118874"><ele>507.0</ele><time>2026-04-18T09:15:24.16Z</time></trkpt><trkpt lat="44.1357164" lon="8.1188631"><ele>506.5</ele><time>2026-04-18T09:15:25.161Z</time></trkpt><trkpt lat="44.1358449" lon="8.1188122"><ele>506.0</ele><time>2026-04-18T09:15:26.16Z</time></trkpt><trkpt lat="44.135959" lon="8.1187085"><ele>505.5</ele><time>2026-04-18T09:15:27.161Z</time></trkpt><trkpt lat="44.13606" lon="8.1186232"><ele>505.0</ele><time>2026-04-18T09:15:28.161Z</time></trkpt><trkpt lat="44.1361643" lon="8.1185458"><ele>505.0</ele><time>2026-04-18T09:15:29.16Z</time></trkpt><trkpt lat="44.1362932" lon="8.1185155"><ele>505.0</ele><time>2026-04-18T09:15:30.161Z</time></trkpt><trkpt lat="44.136404" lon="8.1185595"><ele>505.0</ele><time>2026-04-18T09:15:31.161Z</time></trkpt><trkpt lat="44.136485" lon="8.1186571"><ele>505.0</ele><time>2026-04-18T09:15:32.16Z</time></trkpt><trkpt lat="44.1365479" lon="8.1187734"><ele>503.8</ele><time>2026-04-18T09:15:33.161Z</time></trkpt><trkpt lat="44.1365788" lon="8.1189146"><ele>502.6</ele><time>2026-04-18T09:15:34.161Z</time></trkpt><trkpt lat="44.136575" lon="8.1190681"><ele>501.4</ele><time>2026-04-18T09:15:35.161Z</time></trkpt><trkpt lat="44.1365462" lon="8.119211"><ele>500.2</ele><time>2026-04-18T09:15:36.16Z</time></trkpt><trkpt lat="44.136499" lon="8.1193616"><ele>499.0</ele><time>2026-04-18T09:15:37.161Z</time></trkpt><trkpt lat="44.1364578" lon="8.1195183"><ele>506.79999999999995</ele><time>2026-04-18T09:15:38.16Z</time></trkpt><trkpt lat="44.1364387" lon="8.1196657"><ele>514.5999999999999</ele><time>2026-04-18T09:15:39.161Z</time></trkpt><trkpt lat="44.1364462" lon="8.1198073"><ele>522.4</ele><time>2026-04-18T09:15:40.16Z</time></trkpt><trkpt lat="44.1364565" lon="8.1199494"><ele>530.1999999999999</ele><time>2026-04-18T09:15:41.16Z</time></trkpt><trkpt lat="44.1364671" lon="8.1200828"><ele>538.0</ele><time>2026-04-18T09:15:42.161Z</time></trkpt><trkpt lat="44.1365139" lon="8.1201923"><ele>537.0</ele><time>2026-04-18T09:15:43.161Z</time></trkpt><trkpt lat="44.1366076" lon="8.120257"><ele>536.0</ele><time>2026-04-18T09:15:44.161Z</time></trkpt><trkpt lat="44.1367396" lon="8.1203025"><ele>535.0</ele><time>2026-04-18T09:15:45.161Z</time></trkpt><trkpt lat="44.1368685" lon="8.1203547"><ele>534.0</ele><time>2026-04-18T09:15:46.16Z</time></trkpt><trkpt lat="44.1370105" lon="8.1204129"><ele>534.0</ele><time>2026-04-18T09:15:47.161Z</time></trkpt><trkpt lat="44.1371545" lon="8.1204613"><ele>534.0</ele><time>2026-04-18T09:15:48.161Z</time></trkpt><trkpt lat="44.1372762" lon="8.1205116"><ele>534.0</ele><time>2026-04-18T09:15:49.16Z</time></trkpt><trkpt lat="44.1373747" lon="8.120581"><ele>534.0</ele><time>2026-04-18T09:15:50.161Z</time></trkpt><trkpt lat="44.137443" lon="8.1206921"><ele>535.8</ele><time>2026-04-18T09:15:51.161Z</time></trkpt><trkpt lat="44.137477" lon="8.1208366"><ele>537.5999999999999</ele><time>2026-04-18T09:15:52.16Z</time></trkpt><trkpt lat="44.1375087" lon="8.1209884"><ele>539.4</ele><time>2026-04-18T09:15:53.16Z</time></trkpt><trkpt lat="44.1375616" lon="8.1211077"><ele>541.1999999999999</ele><time>2026-04-18T09:15:54.161Z</time></trkpt><trkpt lat="44.1376503" lon="8.121177"><ele>543.0</ele><time>2026-04-18T09:15:55.16Z</time></trkpt><trkpt lat="44.1377743" lon="8.1212097"><ele>543.0</ele><time>2026-04-18T09:15:56.161Z</time></trkpt><trkpt lat="44.1379119" lon="8.1212386"><ele>543.0</ele><time>2026-04-18T09:15:57.161Z</time></trkpt><trkpt lat="44.1380545" lon="8.121265"><ele>543.0</ele><time>2026-04-18T09:15:58.161Z</time></trkpt><trkpt lat="44.1381878" lon="8.1213036"><ele>543.0</ele><time>2026-04-18T09:15:59.16Z</time></trkpt><trkpt lat="44.1383027" lon="8.1213343"><ele>540.25</ele><time>2026-04-18T09:16:00.161Z</time></trkpt><trkpt lat="44.1384107" lon="8.1213046"><ele>537.5</ele><time>2026-04-18T09:16:01.161Z</time></trkpt><trkpt lat="44.1385241" lon="8.1212199"><ele>534.75</ele><time>2026-04-18T09:16:02.161Z</time></trkpt><trkpt lat="44.1386364" lon="8.1211086"><ele>532.0</ele><time>2026-04-18T09:16:03.16Z</time></trkpt><trkpt lat="44.1387607" lon="8.1210312"><ele>532.0</ele><time>2026-04-18T09:16:04.16Z</time></trkpt><trkpt lat="44.1388786" lon="8.1209974"><ele>532.0</ele><time>2026-04-18T09:16:05.161Z</time></trkpt><trkpt lat="44.1389902" lon="8.1209759"><ele>532.0</ele><time>2026-04-18T09:16:06.16Z</time></trkpt><trkpt lat="44.1390897" lon="8.120874"><ele>532.0</ele><time>2026-04-18T09:16:07.161Z</time></trkpt><trkpt lat="44.1391807" lon="8.1207228"><ele>527.75</ele><time>2026-04-18T09:16:08.16Z</time></trkpt><trkpt lat="44.1392732" lon="8.120589"><ele>523.5</ele><time>2026-04-18T09:16:09.161Z</time></trkpt><trkpt lat="44.1393812" lon="8.1204954"><ele>519.25</ele><time>2026-04-18T09:16:10.161Z</time></trkpt><trkpt lat="44.1395062" lon="8.1204489"><ele>515.0</ele><time>2026-04-18T09:16:11.161Z</time></trkpt><trkpt lat="44.139652" lon="8.1204106"><ele>515.0</ele><time>2026-04-18T09:16:12.161Z</time></trkpt><trkpt lat="44.1397951" lon="8.1203585"><ele>515.0</ele><time>2026-04-18T09:16:13.16Z</time></trkpt><trkpt lat="44.1399276" lon="8.120249"><ele>515.0</ele><time>2026-04-18T09:16:14.16Z</time></trkpt><trkpt lat="44.1400258" lon="8.1201037"><ele>515.0</ele><time>2026-04-18T09:16:15.16Z</time></trkpt><trkpt lat="44.1401017" lon="8.1199618"><ele>517.6666666666666</ele><time>2026-04-18T09:16:16.161Z</time></trkpt><trkpt lat="44.140162" lon="8.1198482"><ele>520.3333333333333</ele><time>2026-04-18T09:16:17.161Z</time></trkpt><trkpt lat="44.1402302" lon="8.1197979"><ele>523.0</ele><time>2026-04-18T09:16:18.161Z</time></trkpt><trkpt lat="44.1403111" lon="8.1198013"><ele>525.6666666666666</ele><time>2026-04-18T09:16:19.161Z</time></trkpt><trkpt lat="44.1403745" lon="8.1198887"><ele>528.3333333333334</ele><time>2026-04-18T09:16:20.16Z</time></trkpt><trkpt lat="44.1404124" lon="8.1199983"><ele>531.0</ele><time>2026-04-18T09:16:21.16Z</time></trkpt><trkpt lat="44.1403947" lon="8.120142"><ele>534.25</ele><time>2026-04-18T09:16:22.161Z</time></trkpt><trkpt lat="44.1403402" lon="8.1203243"><ele>537.5</ele><time>2026-04-18T09:16:23.161Z</time></trkpt><trkpt lat="44.1403245" lon="8.1205025"><ele>540.75</ele><time>2026-04-18T09:16:24.161Z</time></trkpt><trkpt lat="44.1403376" lon="8.1206757"><ele>544.0</ele><time>2026-04-18T09:16:25.161Z</time></trkpt><trkpt lat="44.1403731" lon="8.1208298"><ele>552.0</ele><time>2026-04-18T09:16:26.161Z</time></trkpt><trkpt lat="44.1403794" lon="8.1209649"><ele>560.0</ele><time>2026-04-18T09:16:27.16Z</time></trkpt><trkpt lat="44.1403429" lon="8.1211191"><ele>568.0</ele><time>2026-04-18T09:16:28.161Z</time></trkpt><trkpt lat="44.140314" lon="8.1212961"><ele>576.0</ele><time>2026-04-18T09:16:29.161Z</time></trkpt><trkpt lat="44.1402878" lon="8.1214864"><ele>580.6666666666666</ele><time>2026-04-18T09:16:30.161Z</time></trkpt><trkpt lat="44.1402598" lon="8.1216945"><ele>585.3333333333333</ele><time>2026-04-18T09:16:31.161Z</time></trkpt><trkpt lat="44.1402332" lon="8.1219041"><ele>590.0</ele><time>2026-04-18T09:16:32.161Z</time></trkpt><trkpt lat="44.1402115" lon="8.122113"><ele>590.0</ele><time>2026-04-18T09:16:33.161Z</time></trkpt><trkpt lat="44.1401796" lon="8.1223103"><ele>590.0</ele><time>2026-04-18T09:16:34.162Z</time></trkpt><trkpt lat="44.1401262" lon="8.1224866"><ele>590.0</ele><time>2026-04-18T09:16:35.161Z</time></trkpt><trkpt lat="44.1400759" lon="8.1226556"><ele>590.0</ele><time>2026-04-18T09:16:36.162Z</time></trkpt><trkpt lat="44.140048" lon="8.1228287"><ele>588.75</ele><time>2026-04-18T09:16:37.162Z</time></trkpt><trkpt lat="44.1400257" lon="8.1229921"><ele>587.5</ele><time>2026-04-18T09:16:38.162Z</time></trkpt><trkpt lat="44.1399685" lon="8.1231304"><ele>586.25</ele><time>2026-04-18T09:16:39.162Z</time></trkpt><trkpt lat="44.1398831" lon="8.1232298"><ele>585.0</ele><time>2026-04-18T09:16:40.161Z</time></trkpt><trkpt lat="44.1397617" lon="8.1233096"><ele>590.75</ele><time>2026-04-18T09:16:41.162Z</time></trkpt><trkpt lat="44.1396464" lon="8.1233842"><ele>596.5</ele><time>2026-04-18T09:16:42.161Z</time></trkpt><trkpt lat="44.1395576" lon="8.1234702"><ele>602.25</ele><time>2026-04-18T09:16:43.161Z</time></trkpt><trkpt lat="44.1394787" lon="8.1235959"><ele>608.0</ele><time>2026-04-18T09:16:44.162Z</time></trkpt><trkpt lat="44.1394513" lon="8.1237772"><ele>608.0</ele><time>2026-04-18T09:16:45.162Z</time></trkpt><trkpt lat="44.1394464" lon="8.1239672"><ele>608.0</ele><time>2026-04-18T09:16:46.162Z</time></trkpt><trkpt lat="44.1394701" lon="8.1241596"><ele>608.0</ele><time>2026-04-18T09:16:47.162Z</time></trkpt><trkpt lat="44.1395256" lon="8.1243206"><ele>608.0</ele><time>2026-04-18T09:16:48.162Z</time></trkpt><trkpt lat="44.1395693" lon="8.1244758"><ele>606.75</ele><time>2026-04-18T09:16:49.162Z</time></trkpt><trkpt lat="44.1395945" lon="8.1246352"><ele>605.5</ele><time>2026-04-18T09:16:50.162Z</time></trkpt><trkpt lat="44.1395587" lon="8.1247685"><ele>604.25</ele><time>2026-04-18T09:16:51.162Z</time></trkpt><trkpt lat="44.1394768" lon="8.1249022"><ele>603.0</ele><time>2026-04-18T09:16:52.162Z</time></trkpt><trkpt lat="44.1393825" lon="8.1250388"><ele>602.0</ele><time>2026-04-18T09:16:53.161Z</time></trkpt><trkpt lat="44.1392922" lon="8.1251967"><ele>601.0</ele><time>2026-04-18T09:16:54.161Z</time></trkpt><trkpt lat="44.1392174" lon="8.1253663"><ele>600.0</ele><time>2026-04-18T09:16:55.162Z</time></trkpt><trkpt lat="44.1391443" lon="8.1255339"><ele>599.0</ele><time>2026-04-18T09:16:56.162Z</time></trkpt><trkpt lat="44.1390832" lon="8.1257031"><ele>596.5</ele><time>2026-04-18T09:16:57.162Z</time></trkpt><trkpt lat="44.139043" lon="8.1258796"><ele>594.0</ele><time>2026-04-18T09:16:58.162Z</time></trkpt><trkpt lat="44.1390226" lon="8.1260542"><ele>591.5</ele><time>2026-04-18T09:16:59.162Z</time></trkpt><trkpt lat="44.1390284" lon="8.1262239"><ele>589.0</ele><time>2026-04-18T09:17:00.161Z</time></trkpt><trkpt lat="44.1390594" lon="8.1263759"><ele>589.0</ele><time>2026-04-18T09:17:01.162Z</time></trkpt><trkpt lat="44.1391246" lon="8.1265206"><ele>589.0</ele><time>2026-04-18T09:17:02.162Z</time></trkpt><trkpt lat="44.1392209" lon="8.126627"><ele>589.0</ele><time>2026-04-18T09:17:03.162Z</time></trkpt><trkpt lat="44.1393192" lon="8.1267311"><ele>589.0</ele><time>2026-04-18T09:17:04.162Z</time></trkpt><trkpt lat="44.1393967" lon="8.1268598"><ele>589.5</ele><time>2026-04-18T09:17:05.162Z</time></trkpt><trkpt lat="44.1394341" lon="8.1270276"><ele>590.0</ele><time>2026-04-18T09:17:06.162Z</time></trkpt><trkpt lat="44.1394432" lon="8.1272081"><ele>590.5</ele><time>2026-04-18T09:17:07.162Z</time></trkpt><trkpt lat="44.1394315" lon="8.1273979"><ele>591.0</ele><time>2026-04-18T09:17:08.161Z</time></trkpt><trkpt lat="44.1393959" lon="8.1275951"><ele>592.6666666666666</ele><time>2026-04-18T09:17:09.162Z</time></trkpt><trkpt lat="44.1393348" lon="8.1277904"><ele>594.3333333333333</ele><time>2026-04-18T09:17:10.162Z</time></trkpt><trkpt lat="44.1392604" lon="8.1279887"><ele>596.0</ele><time>2026-04-18T09:17:11.161Z</time></trkpt><trkpt lat="44.1391785" lon="8.1281764"><ele>596.25</ele><time>2026-04-18T09:17:12.162Z</time></trkpt><trkpt lat="44.1390752" lon="8.1283337"><ele>596.5</ele><time>2026-04-18T09:17:13.162Z</time></trkpt><trkpt lat="44.138982" lon="8.1284613"><ele>596.75</ele><time>2026-04-18T09:17:14.162Z</time></trkpt><trkpt lat="44.1389102" lon="8.1285726"><ele>597.0</ele><time>2026-04-18T09:17:15.162Z</time></trkpt><trkpt lat="44.1388624" lon="8.1286777"><ele>599.0</ele><time>2026-04-18T09:17:16.162Z</time></trkpt><trkpt lat="44.1388519" lon="8.1287941"><ele>601.0</ele><time>2026-04-18T09:17:17.161Z</time></trkpt><trkpt lat="44.1388839" lon="8.1289233"><ele>603.0</ele><time>2026-04-18T09:17:18.162Z</time></trkpt><trkpt lat="44.1389435" lon="8.1290466"><ele>605.0</ele><time>2026-04-18T09:17:19.162Z</time></trkpt><trkpt lat="44.1390311" lon="8.1291442"><ele>607.0</ele><time>2026-04-18T09:17:20.162Z</time></trkpt><trkpt lat="44.13914" lon="8.1292295"><ele>607.0</ele><time>2026-04-18T09:17:21.161Z</time></trkpt><trkpt lat="44.1392463" lon="8.1292891"><ele>607.0</ele><time>2026-04-18T09:17:22.162Z</time></trkpt><trkpt lat="44.1393614" lon="8.1292885"><ele>607.0</ele><time>2026-04-18T09:17:23.162Z</time></trkpt><trkpt lat="44.1394951" lon="8.1292626"><ele>607.0</ele><time>2026-04-18T09:17:24.162Z</time></trkpt><trkpt lat="44.1396269" lon="8.1292321"><ele>607.0</ele><time>2026-04-18T09:17:25.162Z</time></trkpt><trkpt lat="44.1397549" lon="8.1291864"><ele>607.0</ele><time>2026-04-18T09:17:26.162Z</time></trkpt><trkpt lat="44.1398649" lon="8.1291359"><ele>607.0</ele><time>2026-04-18T09:17:27.161Z</time></trkpt><trkpt lat="44.139968" lon="8.1291197"><ele>607.0</ele><time>2026-04-18T09:17:28.162Z</time></trkpt><trkpt lat="44.1400558" lon="8.1291688"><ele>607.0</ele><time>2026-04-18T09:17:29.162Z</time></trkpt><trkpt lat="44.1401063" lon="8.1292706"><ele>606.4</ele><time>2026-04-18T09:17:30.162Z</time></trkpt><trkpt lat="44.1401371" lon="8.1294019"><ele>605.8000000000001</ele><time>2026-04-18T09:17:31.162Z</time></trkpt><trkpt lat="44.1401769" lon="8.129533"><ele>605.2</ele><time>2026-04-18T09:17:32.162Z</time></trkpt><trkpt lat="44.1402504" lon="8.1296393"><ele>604.6</ele><time>2026-04-18T09:17:33.162Z</time></trkpt><trkpt lat="44.1403615" lon="8.1297126"><ele>604.0</ele><time>2026-04-18T09:17:34.162Z</time></trkpt><trkpt lat="44.1404946" lon="8.1297391"><ele>604.0</ele><time>2026-04-18T09:17:35.161Z</time></trkpt><trkpt lat="44.1406248" lon="8.1297133"><ele>604.0</ele><time>2026-04-18T09:17:36.161Z</time></trkpt><trkpt lat="44.1407693" lon="8.129656"><ele>604.0</ele><time>2026-04-18T09:17:37.161Z</time></trkpt><trkpt lat="44.1409141" lon="8.129595"><ele>604.0</ele><time>2026-04-18T09:17:38.161Z</time></trkpt><trkpt lat="44.1410488" lon="8.1295328"><ele>604.25</ele><time>2026-04-18T09:17:39.161Z</time></trkpt><trkpt lat="44.141163" lon="8.1294412"><ele>604.5</ele><time>2026-04-18T09:17:40.161Z</time></trkpt><trkpt lat="44.1412482" lon="8.1293127"><ele>604.75</ele><time>2026-04-18T09:17:41.161Z</time></trkpt><trkpt lat="44.1413104" lon="8.1291536"><ele>605.0</ele><time>2026-04-18T09:17:42.162Z</time></trkpt><trkpt lat="44.1413697" lon="8.1289936"><ele>605.25</ele><time>2026-04-18T09:17:43.162Z</time></trkpt><trkpt lat="44.1414389" lon="8.1288668"><ele>605.5</ele><time>2026-04-18T09:17:44.162Z</time></trkpt><trkpt lat="44.1415309" lon="8.1287902"><ele>605.75</ele><time>2026-04-18T09:17:45.162Z</time></trkpt><trkpt lat="44.1416416" lon="8.1287666"><ele>606.0</ele><time>2026-04-18T09:17:46.161Z</time></trkpt><trkpt lat="44.1417633" lon="8.1288023"><ele>606.0</ele><time>2026-04-18T09:17:47.162Z</time></trkpt><trkpt lat="44.1418855" lon="8.1288687"><ele>606.0</ele><time>2026-04-18T09:17:48.162Z</time></trkpt><trkpt lat="44.1419937" lon="8.1289604"><ele>606.0</ele><time>2026-04-18T09:17:49.162Z</time></trkpt><trkpt lat="44.142077" lon="8.1290884"><ele>606.0</ele><time>2026-04-18T09:17:50.161Z</time></trkpt><trkpt lat="44.1421384" lon="8.1292367"><ele>609.25</ele><time>2026-04-18T09:17:51.162Z</time></trkpt><trkpt lat="44.1422035" lon="8.1293548"><ele>612.5</ele><time>2026-04-18T09:17:52.162Z</time></trkpt><trkpt lat="44.1422925" lon="8.1294215"><ele>615.75</ele><time>2026-04-18T09:17:53.162Z</time></trkpt><trkpt lat="44.1424071" lon="8.1294285"><ele>619.0</ele><time>2026-04-18T09:17:54.162Z</time></trkpt><trkpt lat="44.1425325" lon="8.1293807"><ele>619.5</ele><time>2026-04-18T09:17:55.162Z</time></trkpt><trkpt lat="44.1426545" lon="8.1293352"><ele>620.0</ele><time>2026-04-18T09:17:56.161Z</time></trkpt><trkpt lat="44.1427689" lon="8.1293403"><ele>620.5</ele><time>2026-04-18T09:17:57.162Z</time></trkpt><trkpt lat="44.1428804" lon="8.1294057"><ele>621.0</ele><time>2026-04-18T09:17:58.162Z</time></trkpt><trkpt lat="44.1429944" lon="8.1294969"><ele>621.0</ele><time>2026-04-18T09:17:59.161Z</time></trkpt><trkpt lat="44.1430979" lon="8.1296079"><ele>621.0</ele><time>2026-04-18T09:18:00.161Z</time></trkpt><trkpt lat="44.1432041" lon="8.1296818"><ele>621.0</ele><time>2026-04-18T09:18:01.161Z</time></trkpt><trkpt lat="44.1433239" lon="8.1296974"><ele>621.0</ele><time>2026-04-18T09:18:02.162Z</time></trkpt><trkpt lat="44.1434518" lon="8.1296903"><ele>621.0</ele><time>2026-04-18T09:18:03.162Z</time></trkpt><trkpt lat="44.1435876" lon="8.1297151"><ele>621.0</ele><time>2026-04-18T09:18:04.162Z</time></trkpt><trkpt lat="44.1437267" lon="8.1297692"><ele>621.0</ele><time>2026-04-18T09:18:05.162Z</time></trkpt><trkpt lat="44.1438679" lon="8.1298192"><ele>621.0</ele><time>2026-04-18T09:18:06.162Z</time></trkpt><trkpt lat="44.1440059" lon="8.1298448"><ele>620.25</ele><time>2026-04-18T09:18:07.162Z</time></trkpt><trkpt lat="44.1441437" lon="8.1298179"><ele>619.5</ele><time>2026-04-18T09:18:08.161Z</time></trkpt><trkpt lat="44.1442756" lon="8.1297353"><ele>618.75</ele><time>2026-04-18T09:18:09.162Z</time></trkpt><trkpt lat="44.1443898" lon="8.1296498"><ele>618.0</ele><time>2026-04-18T09:18:10.162Z</time></trkpt><trkpt lat="44.1444882" lon="8.1296061"><ele>618.0</ele><time>2026-04-18T09:18:11.162Z</time></trkpt><trkpt lat="44.144592" lon="8.1296325"><ele>618.0</ele><time>2026-04-18T09:18:12.161Z</time></trkpt><trkpt lat="44.1446958" lon="8.1297087"><ele>618.0</ele><time>2026-04-18T09:18:13.162Z</time></trkpt><trkpt lat="44.1447994" lon="8.1298218"><ele>618.0</ele><time>2026-04-18T09:18:14.161Z</time></trkpt><trkpt lat="44.1449049" lon="8.1299476"><ele>623.0</ele><time>2026-04-18T09:18:15.161Z</time></trkpt><trkpt lat="44.1450139" lon="8.1300696"><ele>628.0</ele><time>2026-04-18T09:18:16.163Z</time></trkpt><trkpt lat="44.1451132" lon="8.1301723"><ele>633.0</ele><time>2026-04-18T09:18:17.163Z</time></trkpt><trkpt lat="44.1452053" lon="8.1302442"><ele>638.0</ele><time>2026-04-18T09:18:18.163Z</time></trkpt><trkpt lat="44.145302" lon="8.1302597"><ele>638.0</ele><time>2026-04-18T09:18:19.163Z</time></trkpt><trkpt lat="44.1453922" lon="8.130225"><ele>638.0</ele><time>2026-04-18T09:18:20.162Z</time></trkpt><trkpt lat="44.1454684" lon="8.1301539"><ele>638.0</ele><time>2026-04-18T09:18:21.162Z</time></trkpt><trkpt lat="44.14551" lon="8.1300334"><ele>638.0</ele><time>2026-04-18T09:18:22.163Z</time></trkpt><trkpt lat="44.1455159" lon="8.1298899"><ele>638.0</ele><time>2026-04-18T09:18:23.163Z</time></trkpt><trkpt lat="44.1455023" lon="8.129738"><ele>639.5</ele><time>2026-04-18T09:18:24.163Z</time></trkpt><trkpt lat="44.1455063" lon="8.1295731"><ele>641.0</ele><time>2026-04-18T09:18:25.162Z</time></trkpt><trkpt lat="44.1455537" lon="8.1294107"><ele>642.5</ele><time>2026-04-18T09:18:26.162Z</time></trkpt><trkpt lat="44.1456394" lon="8.1292584"><ele>644.0</ele><time>2026-04-18T09:18:27.163Z</time></trkpt><trkpt lat="44.1457669" lon="8.1291147"><ele>640.3333333333333</ele><time>2026-04-18T09:18:28.162Z</time></trkpt><trkpt lat="44.145909" lon="8.1289787"><ele>636.6666666666666</ele><time>2026-04-18T09:18:29.163Z</time></trkpt><trkpt lat="44.1460597" lon="8.1288535"><ele>633.0</ele><time>2026-04-18T09:18:30.163Z</time></trkpt><trkpt lat="44.1461997" lon="8.1287233"><ele>633.0</ele><time>2026-04-18T09:18:31.163Z</time></trkpt><trkpt lat="44.1463183" lon="8.1285814"><ele>633.0</ele><time>2026-04-18T09:18:32.163Z</time></trkpt><trkpt lat="44.1464152" lon="8.1284131"><ele>633.0</ele><time>2026-04-18T09:18:33.162Z</time></trkpt><trkpt lat="44.1465031" lon="8.1282229"><ele>638.3333333333334</ele><time>2026-04-18T09:18:34.163Z</time></trkpt><trkpt lat="44.1465926" lon="8.1280266"><ele>643.6666666666667</ele><time>2026-04-18T09:18:35.162Z</time></trkpt><trkpt lat="44.1466915" lon="8.1278266"><ele>649.0</ele><time>2026-04-18T09:18:36.163Z</time></trkpt><trkpt lat="44.1468044" lon="8.1276237"><ele>649.0</ele><time>2026-04-18T09:18:37.163Z</time></trkpt><trkpt lat="44.1469198" lon="8.1274268"><ele>649.0</ele><time>2026-04-18T09:18:38.163Z</time></trkpt><trkpt lat="44.1470382" lon="8.1272303"><ele>649.0</ele><time>2026-04-18T09:18:39.163Z</time></trkpt><trkpt lat="44.1471584" lon="8.1270339"><ele>647.3333333333334</ele><time>2026-04-18T09:18:40.163Z</time></trkpt><trkpt lat="44.1472742" lon="8.1268409"><ele>645.6666666666666</ele><time>2026-04-18T09:18:41.162Z</time></trkpt><trkpt lat="44.1473838" lon="8.1266669"><ele>644.0</ele><time>2026-04-18T09:18:42.163Z</time></trkpt><trkpt lat="44.147475" lon="8.1265115"><ele>646.75</ele><time>2026-04-18T09:18:43.163Z</time></trkpt><trkpt lat="44.1475428" lon="8.1263707"><ele>649.5</ele><time>2026-04-18T09:18:44.163Z</time></trkpt><trkpt lat="44.1475739" lon="8.1262225"><ele>652.25</ele><time>2026-04-18T09:18:45.163Z</time></trkpt><trkpt lat="44.1475727" lon="8.1260675"><ele>655.0</ele><time>2026-04-18T09:18:46.162Z</time></trkpt><trkpt lat="44.1475585" lon="8.1258829"><ele>655.0</ele><time>2026-04-18T09:18:47.163Z</time></trkpt><trkpt lat="44.1475396" lon="8.1256815"><ele>655.0</ele><time>2026-04-18T09:18:48.163Z</time></trkpt><trkpt lat="44.1475184" lon="8.1254892"><ele>655.0</ele><time>2026-04-18T09:18:49.163Z</time></trkpt><trkpt lat="44.1475077" lon="8.1253263"><ele>655.0</ele><time>2026-04-18T09:18:50.163Z</time></trkpt><trkpt lat="44.1475281" lon="8.1251763"><ele>655.0</ele><time>2026-04-18T09:18:51.163Z</time></trkpt><trkpt lat="44.1475778" lon="8.1250383"><ele>655.0</ele><time>2026-04-18T09:18:52.163Z</time></trkpt><trkpt lat="44.1476656" lon="8.1249157"><ele>655.0</ele><time>2026-04-18T09:18:53.163Z</time></trkpt><trkpt lat="44.1477516" lon="8.1247969"><ele>655.0</ele><time>2026-04-18T09:18:54.163Z</time></trkpt><trkpt lat="44.1478055" lon="8.1246621"><ele>655.25</ele><time>2026-04-18T09:18:55.162Z</time></trkpt><trkpt lat="44.1478187" lon="8.1244935"><ele>655.5</ele><time>2026-04-18T09:18:56.163Z</time></trkpt><trkpt lat="44.1478025" lon="8.1243075"><ele>655.75</ele><time>2026-04-18T09:18:57.162Z</time></trkpt><trkpt lat="44.1477751" lon="8.1241272"><ele>656.0</ele><time>2026-04-18T09:18:58.162Z</time></trkpt><trkpt lat="44.1477588" lon="8.1239676"><ele>656.75</ele><time>2026-04-18T09:18:59.163Z</time></trkpt><trkpt lat="44.1477735" lon="8.1238194"><ele>657.5</ele><time>2026-04-18T09:19:00.162Z</time></trkpt><trkpt lat="44.1478325" lon="8.1236885"><ele>658.25</ele><time>2026-04-18T09:19:01.162Z</time></trkpt><trkpt lat="44.1479337" lon="8.1235702"><ele>659.0</ele><time>2026-04-18T09:19:02.163Z</time></trkpt><trkpt lat="44.1480483" lon="8.1234737"><ele>659.0</ele><time>2026-04-18T09:19:03.162Z</time></trkpt><trkpt lat="44.1481603" lon="8.1233961"><ele>659.0</ele><time>2026-04-18T09:19:04.162Z</time></trkpt><trkpt lat="44.148268" lon="8.1233697"><ele>659.0</ele><time>2026-04-18T09:19:05.163Z</time></trkpt><trkpt lat="44.1483641" lon="8.1234095"><ele>659.0</ele><time>2026-04-18T09:19:06.163Z</time></trkpt><trkpt lat="44.1484403" lon="8.1235084"><ele>659.0</ele><time>2026-04-18T09:19:07.163Z</time></trkpt><trkpt lat="44.1484892" lon="8.123637"><ele>660.25</ele><time>2026-04-18T09:19:08.163Z</time></trkpt><trkpt lat="44.1485045" lon="8.1238027"><ele>661.5</ele><time>2026-04-18T09:19:09.163Z</time></trkpt><trkpt lat="44.1484867" lon="8.1239887"><ele>662.75</ele><time>2026-04-18T09:19:10.163Z</time></trkpt><trkpt lat="44.1484415" lon="8.1241818"><ele>664.0</ele><time>2026-04-18T09:19:11.163Z</time></trkpt><trkpt lat="44.1483829" lon="8.1243884"><ele>665.6666666666667</ele><time>2026-04-18T09:19:12.163Z</time></trkpt><trkpt lat="44.1483414" lon="8.1246134"><ele>667.3333333333334</ele><time>2026-04-18T09:19:13.163Z</time></trkpt><trkpt lat="44.1483228" lon="8.124833"><ele>669.0</ele><time>2026-04-18T09:19:14.162Z</time></trkpt><trkpt lat="44.1483206" lon="8.1250468"><ele>669.6666666666666</ele><time>2026-04-18T09:19:15.163Z</time></trkpt><trkpt lat="44.1483413" lon="8.1252704"><ele>670.3333333333333</ele><time>2026-04-18T09:19:16.163Z</time></trkpt><trkpt lat="44.1483813" lon="8.1254987"><ele>671.0</ele><time>2026-04-18T09:19:17.163Z</time></trkpt><trkpt lat="44.1484101" lon="8.1257244"><ele>671.6666666666666</ele><time>2026-04-18T09:19:18.163Z</time></trkpt><trkpt lat="44.1484186" lon="8.1259506"><ele>672.3333333333334</ele><time>2026-04-18T09:19:19.163Z</time></trkpt><trkpt lat="44.1484214" lon="8.1261699"><ele>673.0</ele><time>2026-04-18T09:19:20.163Z</time></trkpt><trkpt lat="44.1484395" lon="8.126384"><ele>673.3333333333334</ele><time>2026-04-18T09:19:21.163Z</time></trkpt><trkpt lat="44.148453" lon="8.1266005"><ele>673.6666666666666</ele><time>2026-04-18T09:19:22.163Z</time></trkpt><trkpt lat="44.1484426" lon="8.1268207"><ele>674.0</ele><time>2026-04-18T09:19:23.163Z</time></trkpt><trkpt lat="44.1484015" lon="8.1270321"><ele>674.0</ele><time>2026-04-18T09:19:24.163Z</time></trkpt><trkpt lat="44.1483442" lon="8.1272428"><ele>674.0</ele><time>2026-04-18T09:19:25.163Z</time></trkpt><trkpt lat="44.1482841" lon="8.1274271"><ele>674.0</ele><time>2026-04-18T09:19:26.162Z</time></trkpt><trkpt lat="44.1482113" lon="8.127576"><ele>674.0</ele><time>2026-04-18T09:19:27.163Z</time></trkpt><trkpt lat="44.1481173" lon="8.1276709"><ele>672.8333333333333</ele><time>2026-04-18T09:19:28.163Z</time></trkpt><trkpt lat="44.1480315" lon="8.1277219"><ele>671.6666666666666</ele><time>2026-04-18T09:19:29.163Z</time></trkpt><trkpt lat="44.1479546" lon="8.1277663"><ele>670.5</ele><time>2026-04-18T09:19:30.163Z</time></trkpt><trkpt lat="44.1478788" lon="8.1278051"><ele>669.3333333333334</ele><time>2026-04-18T09:19:31.163Z</time></trkpt><trkpt lat="44.1478107" lon="8.1278687"><ele>668.1666666666667</ele><time>2026-04-18T09:19:32.163Z</time></trkpt><trkpt lat="44.147748" lon="8.1279748"><ele>667.0</ele><time>2026-04-18T09:19:33.163Z</time></trkpt><trkpt lat="44.1476914" lon="8.1281193"><ele>671.25</ele><time>2026-04-18T09:19:34.163Z</time></trkpt><trkpt lat="44.1476299" lon="8.128275"><ele>675.5</ele><time>2026-04-18T09:19:35.163Z</time></trkpt><trkpt lat="44.1475685" lon="8.1284342"><ele>679.75</ele><time>2026-04-18T09:19:36.163Z</time></trkpt><trkpt lat="44.1475009" lon="8.128609"><ele>684.0</ele><time>2026-04-18T09:19:37.162Z</time></trkpt><trkpt lat="44.1474257" lon="8.1287944"><ele>681.25</ele><time>2026-04-18T09:19:38.163Z</time></trkpt><trkpt lat="44.1473524" lon="8.1289798"><ele>678.5</ele><time>2026-04-18T09:19:39.163Z</time></trkpt><trkpt lat="44.1472881" lon="8.1291453"><ele>675.75</ele><time>2026-04-18T09:19:40.163Z</time></trkpt><trkpt lat="44.1472414" lon="8.1292926"><ele>673.0</ele><time>2026-04-18T09:19:41.162Z</time></trkpt><trkpt lat="44.1472255" lon="8.1294418"><ele>673.0</ele><time>2026-04-18T09:19:42.163Z</time></trkpt><trkpt lat="44.1472551" lon="8.1295987"><ele>673.0</ele><time>2026-04-18T09:19:43.163Z</time></trkpt><trkpt lat="44.1472969" lon="8.129757"><ele>673.0</ele><time>2026-04-18T09:19:44.162Z</time></trkpt><trkpt lat="44.1473203" lon="8.1299395"><ele>673.0</ele><time>2026-04-18T09:19:45.162Z</time></trkpt><trkpt lat="44.1473116" lon="8.130137"><ele>674.6666666666667</ele><time>2026-04-18T09:19:46.162Z</time></trkpt><trkpt lat="44.1472942" lon="8.1303458"><ele>676.3333333333334</ele><time>2026-04-18T09:19:47.163Z</time></trkpt><trkpt lat="44.1472746" lon="8.1305623"><ele>678.0</ele><time>2026-04-18T09:19:48.163Z</time></trkpt><trkpt lat="44.1472563" lon="8.1307867"><ele>680.3333333333334</ele><time>2026-04-18T09:19:49.163Z</time></trkpt><trkpt lat="44.1472334" lon="8.1310109"><ele>682.6666666666667</ele><time>2026-04-18T09:19:50.162Z</time></trkpt><trkpt lat="44.1472095" lon="8.1312331"><ele>685.0</ele><time>2026-04-18T09:19:51.163Z</time></trkpt><trkpt lat="44.1471866" lon="8.1314526"><ele>688.0</ele><time>2026-04-18T09:19:52.163Z</time></trkpt><trkpt lat="44.1471672" lon="8.1316699"><ele>691.0</ele><time>2026-04-18T09:19:53.162Z</time></trkpt><trkpt lat="44.1471378" lon="8.131877"><ele>694.0</ele><time>2026-04-18T09:19:54.162Z</time></trkpt><trkpt lat="44.1470774" lon="8.1320659"><ele>694.0</ele><time>2026-04-18T09:19:55.163Z</time></trkpt><trkpt lat="44.1469945" lon="8.132231"><ele>694.0</ele><time>2026-04-18T09:19:56.162Z</time></trkpt><trkpt lat="44.1468983" lon="8.1323685"><ele>694.0</ele><time>2026-04-18T09:19:57.163Z</time></trkpt><trkpt lat="44.146804" lon="8.1324961"><ele>694.0</ele><time>2026-04-18T09:19:58.163Z</time></trkpt><trkpt lat="44.1467324" lon="8.1326251"><ele>695.4000000000001</ele><time>2026-04-18T09:19:59.164Z</time></trkpt><trkpt lat="44.1466911" lon="8.1327524"><ele>696.8</ele><time>2026-04-18T09:20:00.164Z</time></trkpt><trkpt lat="44.1466933" lon="8.1328765"><ele>698.2</ele><time>2026-04-18T09:20:01.163Z</time></trkpt><trkpt lat="44.1467295" lon="8.1329936"><ele>699.5999999999999</ele><time>2026-04-18T09:20:02.164Z</time></trkpt><trkpt lat="44.146799" lon="8.1330895"><ele>701.0</ele><time>2026-04-18T09:20:03.164Z</time></trkpt><trkpt lat="44.1468828" lon="8.1331447"><ele>701.0</ele><time>2026-04-18T09:20:04.163Z</time></trkpt><trkpt lat="44.1469822" lon="8.1331309"><ele>701.0</ele><time>2026-04-18T09:20:05.163Z</time></trkpt><trkpt lat="44.1470714" lon="8.133077"><ele>701.0</ele><time>2026-04-18T09:20:06.164Z</time></trkpt><trkpt lat="44.1471657" lon="8.1329751"><ele>701.0</ele><time>2026-04-18T09:20:07.164Z</time></trkpt><trkpt lat="44.1472626" lon="8.1328243"><ele>701.0</ele><time>2026-04-18T09:20:08.164Z</time></trkpt><trkpt lat="44.1473496" lon="8.1326655"><ele>701.0</ele><time>2026-04-18T09:20:09.164Z</time></trkpt><trkpt lat="44.1474226" lon="8.1324898"><ele>701.0</ele><time>2026-04-18T09:20:10.164Z</time></trkpt><trkpt lat="44.1474601" lon="8.1322867"><ele>701.0</ele><time>2026-04-18T09:20:11.164Z</time></trkpt><trkpt lat="44.1474793" lon="8.1320458"><ele>703.3333333333333</ele><time>2026-04-18T09:20:12.164Z</time></trkpt><trkpt lat="44.1475024" lon="8.1318173"><ele>705.6666666666666</ele><time>2026-04-18T09:20:13.164Z</time></trkpt><trkpt lat="44.1475595" lon="8.131591"><ele>708.0</ele><time>2026-04-18T09:20:14.164Z</time></trkpt><trkpt lat="44.1476456" lon="8.1313791"><ele>708.0</ele><time>2026-04-18T09:20:15.164Z</time></trkpt><trkpt lat="44.1477347" lon="8.1311561"><ele>708.0</ele><time>2026-04-18T09:20:16.164Z</time></trkpt><trkpt lat="44.1478232" lon="8.1309259"><ele>708.0</ele><time>2026-04-18T09:20:17.164Z</time></trkpt><trkpt lat="44.1479094" lon="8.1306967"><ele>706.0</ele><time>2026-04-18T09:20:18.164Z</time></trkpt><trkpt lat="44.1480077" lon="8.1304856"><ele>704.0</ele><time>2026-04-18T09:20:19.164Z</time></trkpt><trkpt lat="44.1481261" lon="8.1302851"><ele>702.0</ele><time>2026-04-18T09:20:20.164Z</time></trkpt><trkpt lat="44.1482682" lon="8.1300916"><ele>705.3333333333334</ele><time>2026-04-18T09:20:21.164Z</time></trkpt><trkpt lat="44.1484221" lon="8.1298992"><ele>708.6666666666667</ele><time>2026-04-18T09:20:22.164Z</time></trkpt><trkpt lat="44.1485735" lon="8.129705"><ele>712.0</ele><time>2026-04-18T09:20:23.163Z</time></trkpt><trkpt lat="44.1487242" lon="8.1295094"><ele>712.0</ele><time>2026-04-18T09:20:24.163Z</time></trkpt><trkpt lat="44.1488747" lon="8.1293108"><ele>712.0</ele><time>2026-04-18T09:20:25.164Z</time></trkpt><trkpt lat="44.1490277" lon="8.1291144"><ele>712.0</ele><time>2026-04-18T09:20:26.164Z</time></trkpt><trkpt lat="44.1491791" lon="8.1289278"><ele>713.3333333333334</ele><time>2026-04-18T09:20:27.164Z</time></trkpt><trkpt lat="44.1493293" lon="8.1287585"><ele>714.6666666666666</ele><time>2026-04-18T09:20:28.164Z</time></trkpt><trkpt lat="44.1494873" lon="8.1286239"><ele>716.0</ele><time>2026-04-18T09:20:29.163Z</time></trkpt><trkpt lat="44.1496521" lon="8.1285131"><ele>716.0</ele><time>2026-04-18T09:20:30.164Z</time></trkpt><trkpt lat="44.1498147" lon="8.1284164"><ele>716.0</ele><time>2026-04-18T09:20:31.164Z</time></trkpt><trkpt lat="44.1499585" lon="8.1283296"><ele>716.0</ele><time>2026-04-18T09:20:32.164Z</time></trkpt><trkpt lat="44.1500873" lon="8.1282628"><ele>719.25</ele><time>2026-04-18T09:20:33.164Z</time></trkpt><trkpt lat="44.1502175" lon="8.1282407"><ele>722.5</ele><time>2026-04-18T09:20:34.164Z</time></trkpt><trkpt lat="44.1503359" lon="8.1282654"><ele>725.75</ele><time>2026-04-18T09:20:35.164Z</time></trkpt><trkpt lat="44.1504389" lon="8.128351"><ele>729.0</ele><time>2026-04-18T09:20:36.164Z</time></trkpt><trkpt lat="44.1505372" lon="8.1284839"><ele>729.0</ele><time>2026-04-18T09:20:37.164Z</time></trkpt><trkpt lat="44.1506368" lon="8.1286549"><ele>729.0</ele><time>2026-04-18T09:20:38.164Z</time></trkpt><trkpt lat="44.1507416" lon="8.1288426"><ele>729.0</ele><time>2026-04-18T09:20:39.164Z</time></trkpt><trkpt lat="44.1508607" lon="8.129035"><ele>734.6666666666666</ele><time>2026-04-18T09:20:40.163Z</time></trkpt><trkpt lat="44.1509921" lon="8.1292165"><ele>740.3333333333333</ele><time>2026-04-18T09:20:41.164Z</time></trkpt><trkpt lat="44.1511373" lon="8.1293857"><ele>746.0</ele><time>2026-04-18T09:20:42.164Z</time></trkpt><trkpt lat="44.1512835" lon="8.1295412"><ele>746.0</ele><time>2026-04-18T09:20:43.164Z</time></trkpt><trkpt lat="44.1514359" lon="8.1296686"><ele>746.0</ele><time>2026-04-18T09:20:44.163Z</time></trkpt><trkpt lat="44.1515792" lon="8.1297479"><ele>746.0</ele><time>2026-04-18T09:20:45.164Z</time></trkpt><trkpt lat="44.1516967" lon="8.1298236"><ele>742.8</ele><time>2026-04-18T09:20:46.164Z</time></trkpt><trkpt lat="44.1517988" lon="8.1298765"><ele>739.5999999999999</ele><time>2026-04-18T09:20:47.164Z</time></trkpt><trkpt lat="44.1518917" lon="8.1298776"><ele>736.4</ele><time>2026-04-18T09:20:48.163Z</time></trkpt><trkpt lat="44.1519794" lon="8.1298117"><ele>733.2</ele><time>2026-04-18T09:20:49.163Z</time></trkpt><trkpt lat="44.1520503" lon="8.1296861"><ele>730.0</ele><time>2026-04-18T09:20:50.163Z</time></trkpt><trkpt lat="44.152111" lon="8.1295296"><ele>730.0</ele><time>2026-04-18T09:20:51.164Z</time></trkpt><trkpt lat="44.1521779" lon="8.1293645"><ele>730.0</ele><time>2026-04-18T09:20:52.163Z</time></trkpt><trkpt lat="44.1522541" lon="8.1291987"><ele>730.0</ele><time>2026-04-18T09:20:53.163Z</time></trkpt><trkpt lat="44.15235" lon="8.1290394"><ele>730.0</ele><time>2026-04-18T09:20:54.163Z</time></trkpt><trkpt lat="44.1524656" lon="8.1288813"><ele>732.6666666666667</ele><time>2026-04-18T09:20:55.164Z</time></trkpt><trkpt lat="44.1525829" lon="8.1287097"><ele>735.3333333333334</ele><time>2026-04-18T09:20:56.164Z</time></trkpt><trkpt lat="44.1526973" lon="8.128527"><ele>738.0</ele><time>2026-04-18T09:20:57.164Z</time></trkpt><trkpt lat="44.1528093" lon="8.1283412"><ele>735.3333333333334</ele><time>2026-04-18T09:20:58.164Z</time></trkpt><trkpt lat="44.1529249" lon="8.128153"><ele>732.6666666666667</ele><time>2026-04-18T09:20:59.164Z</time></trkpt><trkpt lat="44.1530364" lon="8.1279482"><ele>730.0</ele><time>2026-04-18T09:21:00.164Z</time></trkpt><trkpt lat="44.1531437" lon="8.1277238"><ele>737.0</ele><time>2026-04-18T09:21:01.164Z</time></trkpt><trkpt lat="44.1532321" lon="8.1274837"><ele>744.0</ele><time>2026-04-18T09:21:02.163Z</time></trkpt><trkpt lat="44.1533042" lon="8.1272386"><ele>751.0</ele><time>2026-04-18T09:21:03.164Z</time></trkpt><trkpt lat="44.1533664" lon="8.1270153"><ele>751.0</ele><time>2026-04-18T09:21:04.164Z</time></trkpt><trkpt lat="44.153416" lon="8.1268266"><ele>751.0</ele><time>2026-04-18T09:21:05.164Z</time></trkpt><trkpt lat="44.1534755" lon="8.1266754"><ele>751.0</ele><time>2026-04-18T09:21:06.164Z</time></trkpt><trkpt lat="44.153566" lon="8.1265715"><ele>751.0</ele><time>2026-04-18T09:21:07.163Z</time></trkpt><trkpt lat="44.1536825" lon="8.1264993"><ele>747.25</ele><time>2026-04-18T09:21:08.164Z</time></trkpt><trkpt lat="44.1538016" lon="8.1264619"><ele>743.5</ele><time>2026-04-18T09:21:09.164Z</time></trkpt><trkpt lat="44.1538864" lon="8.1263243"><ele>739.75</ele><time>2026-04-18T09:21:10.164Z</time></trkpt><trkpt lat="44.1539097" lon="8.1261027"><ele>736.0</ele><time>2026-04-18T09:21:11.164Z</time></trkpt><trkpt lat="44.1539401" lon="8.1258849"><ele>731.0</ele><time>2026-04-18T09:21:12.164Z</time></trkpt><trkpt lat="44.1539968" lon="8.1256665"><ele>726.0</ele><time>2026-04-18T09:21:13.164Z</time></trkpt><trkpt lat="44.1540705" lon="8.1254343"><ele>721.0</ele><time>2026-04-18T09:21:14.164Z</time></trkpt><trkpt lat="44.1541511" lon="8.1251967"><ele>728.6666666666667</ele><time>2026-04-18T09:21:15.163Z</time></trkpt><trkpt lat="44.1542484" lon="8.1249582"><ele>736.3333333333334</ele><time>2026-04-18T09:21:16.164Z</time></trkpt><trkpt lat="44.1543481" lon="8.1247496"><ele>744.0</ele><time>2026-04-18T09:21:17.163Z</time></trkpt><trkpt lat="44.1544425" lon="8.1245679"><ele>744.0</ele><time>2026-04-18T09:21:18.164Z</time></trkpt><trkpt lat="44.154537" lon="8.124417"><ele>744.0</ele><time>2026-04-18T09:21:19.163Z</time></trkpt><trkpt lat="44.1546406" lon="8.1242952"><ele>744.0</ele><time>2026-04-18T09:21:20.164Z</time></trkpt><trkpt lat="44.1547763" lon="8.1242166"><ele>744.0</ele><time>2026-04-18T09:21:21.164Z</time></trkpt><trkpt lat="44.1549268" lon="8.1241575"><ele>745.0</ele><time>2026-04-18T09:21:22.164Z</time></trkpt><trkpt lat="44.1550782" lon="8.124087"><ele>746.0</ele><time>2026-04-18T09:21:23.163Z</time></trkpt><trkpt lat="44.1552208" lon="8.1240144"><ele>747.0</ele><time>2026-04-18T09:21:24.164Z</time></trkpt><trkpt lat="44.1553557" lon="8.1239473"><ele>747.0</ele><time>2026-04-18T09:21:25.164Z</time></trkpt><trkpt lat="44.1555008" lon="8.1239124"><ele>747.0</ele><time>2026-04-18T09:21:26.164Z</time></trkpt><trkpt lat="44.1556393" lon="8.1239149"><ele>747.0</ele><time>2026-04-18T09:21:27.164Z</time></trkpt><trkpt lat="44.1557755" lon="8.1239348"><ele>747.0</ele><time>2026-04-18T09:21:28.164Z</time></trkpt><trkpt lat="44.1559046" lon="8.1239794"><ele>754.75</ele><time>2026-04-18T09:21:29.163Z</time></trkpt><trkpt lat="44.1560338" lon="8.1240971"><ele>762.5</ele><time>2026-04-18T09:21:30.164Z</time></trkpt><trkpt lat="44.1561638" lon="8.124203"><ele>770.25</ele><time>2026-04-18T09:21:31.163Z</time></trkpt><trkpt lat="44.156266" lon="8.1243108"><ele>778.0</ele><time>2026-04-18T09:21:32.164Z</time></trkpt><trkpt lat="44.1563532" lon="8.1243906"><ele>778.0</ele><time>2026-04-18T09:21:33.164Z</time></trkpt><trkpt lat="44.1564378" lon="8.1244472"><ele>778.0</ele><time>2026-04-18T09:21:34.164Z</time></trkpt><trkpt lat="44.1565165" lon="8.1244544"><ele>778.0</ele><time>2026-04-18T09:21:35.164Z</time></trkpt><trkpt lat="44.1566077" lon="8.1243922"><ele>778.0</ele><time>2026-04-18T09:21:36.164Z</time></trkpt><trkpt lat="44.1566945" lon="8.1242583"><ele>778.0</ele><time>2026-04-18T09:21:37.163Z</time></trkpt><trkpt lat="44.1567666" lon="8.1241094"><ele>774.0</ele><time>2026-04-18T09:21:38.164Z</time></trkpt><trkpt lat="44.1568219" lon="8.1239369"><ele>770.0</ele><time>2026-04-18T09:21:39.163Z</time></trkpt><trkpt lat="44.1568819" lon="8.1237779"><ele>766.0</ele><time>2026-04-18T09:21:40.164Z</time></trkpt><trkpt lat="44.156969" lon="8.1236336"><ele>762.0</ele><time>2026-04-18T09:21:41.164Z</time></trkpt><trkpt lat="44.1570866" lon="8.1234865"><ele>762.0</ele><time>2026-04-18T09:21:42.164Z</time></trkpt><trkpt lat="44.1572203" lon="8.12334"><ele>762.0</ele><time>2026-04-18T09:21:43.165Z</time></trkpt><trkpt lat="44.1573724" lon="8.1232081"><ele>762.0</ele><time>2026-04-18T09:21:44.164Z</time></trkpt><trkpt lat="44.1575456" lon="8.1230824"><ele>765.0</ele><time>2026-04-18T09:21:45.165Z</time></trkpt><trkpt lat="44.1577258" lon="8.122955"><ele>768.0</ele><time>2026-04-18T09:21:46.165Z</time></trkpt><trkpt lat="44.1579124" lon="8.1228432"><ele>771.0</ele><time>2026-04-18T09:21:47.165Z</time></trkpt><trkpt lat="44.1580971" lon="8.1227324"><ele>773.3333333333333</ele><time>2026-04-18T09:21:48.165Z</time></trkpt><trkpt lat="44.1582758" lon="8.122615"><ele>775.6666666666666</ele><time>2026-04-18T09:21:49.165Z</time></trkpt><trkpt lat="44.1584489" lon="8.1224704"><ele>778.0</ele><time>2026-04-18T09:21:50.165Z</time></trkpt><trkpt lat="44.1586162" lon="8.1223025"><ele>778.0</ele><time>2026-04-18T09:21:51.165Z</time></trkpt><trkpt lat="44.1587697" lon="8.1221166"><ele>778.0</ele><time>2026-04-18T09:21:52.165Z</time></trkpt><trkpt lat="44.1589166" lon="8.1219114"><ele>778.0</ele><time>2026-04-18T09:21:53.165Z</time></trkpt><trkpt lat="44.1590435" lon="8.1216966"><ele>784.6666666666666</ele><time>2026-04-18T09:21:54.165Z</time></trkpt><trkpt lat="44.1591415" lon="8.1214782"><ele>791.3333333333333</ele><time>2026-04-18T09:21:55.165Z</time></trkpt><trkpt lat="44.1592205" lon="8.1212626"><ele>798.0</ele><time>2026-04-18T09:21:56.165Z</time></trkpt><trkpt lat="44.159282" lon="8.1210564"><ele>798.0</ele><time>2026-04-18T09:21:57.165Z</time></trkpt><trkpt lat="44.1593436" lon="8.1208787"><ele>798.0</ele><time>2026-04-18T09:21:58.165Z</time></trkpt><trkpt lat="44.1593953" lon="8.1207294"><ele>798.0</ele><time>2026-04-18T09:21:59.165Z</time></trkpt><trkpt lat="44.1594614" lon="8.1206262"><ele>798.0</ele><time>2026-04-18T09:22:00.165Z</time></trkpt><trkpt lat="44.1595329" lon="8.1205642"><ele>798.0</ele><time>2026-04-18T09:22:01.164Z</time></trkpt><trkpt lat="44.1596184" lon="8.1205482"><ele>797.0</ele><time>2026-04-18T09:22:02.165Z</time></trkpt><trkpt lat="44.15971" lon="8.1205713"><ele>796.0</ele><time>2026-04-18T09:22:03.165Z</time></trkpt><trkpt lat="44.1598085" lon="8.1206192"><ele>795.0</ele><time>2026-04-18T09:22:04.165Z</time></trkpt><trkpt lat="44.159913" lon="8.1207107"><ele>794.0</ele><time>2026-04-18T09:22:05.165Z</time></trkpt><trkpt lat="44.1600309" lon="8.1208181"><ele>800.5</ele><time>2026-04-18T09:22:06.165Z</time></trkpt><trkpt lat="44.1601575" lon="8.1209386"><ele>807.0</ele><time>2026-04-18T09:22:07.165Z</time></trkpt><trkpt lat="44.1602868" lon="8.1210545"><ele>813.5</ele><time>2026-04-18T09:22:08.165Z</time></trkpt><trkpt lat="44.160417" lon="8.1211278"><ele>820.0</ele><time>2026-04-18T09:22:09.165Z</time></trkpt><trkpt lat="44.1605508" lon="8.1211692"><ele>820.0</ele><time>2026-04-18T09:22:10.165Z</time></trkpt><trkpt lat="44.1606756" lon="8.1211668"><ele>820.0</ele><time>2026-04-18T09:22:11.165Z</time></trkpt><trkpt lat="44.16081" lon="8.1211253"><ele>820.0</ele><time>2026-04-18T09:22:12.165Z</time></trkpt><trkpt lat="44.1609335" lon="8.1210291"><ele>820.0</ele><time>2026-04-18T09:22:13.165Z</time></trkpt><trkpt lat="44.1610614" lon="8.1208991"><ele>820.0</ele><time>2026-04-18T09:22:14.164Z</time></trkpt><trkpt lat="44.1611866" lon="8.1207439"><ele>820.0</ele><time>2026-04-18T09:22:15.165Z</time></trkpt><trkpt lat="44.1613113" lon="8.1205908"><ele>820.0</ele><time>2026-04-18T09:22:16.165Z</time></trkpt><trkpt lat="44.1614294" lon="8.1204539"><ele>819.5</ele><time>2026-04-18T09:22:17.165Z</time></trkpt><trkpt lat="44.1615423" lon="8.1203445"><ele>819.0</ele><time>2026-04-18T09:22:18.165Z</time></trkpt><trkpt lat="44.1616579" lon="8.1202596"><ele>818.5</ele><time>2026-04-18T09:22:19.165Z</time></trkpt><trkpt lat="44.1617669" lon="8.120235"><ele>818.0</ele><time>2026-04-18T09:22:20.165Z</time></trkpt><trkpt lat="44.1618567" lon="8.1202785"><ele>818.0</ele><time>2026-04-18T09:22:21.164Z</time></trkpt><trkpt lat="44.1619153" lon="8.1203738"><ele>818.0</ele><time>2026-04-18T09:22:22.165Z</time></trkpt><trkpt lat="44.1619518" lon="8.1205116"><ele>818.0</ele><time>2026-04-18T09:22:23.165Z</time></trkpt><trkpt lat="44.161954" lon="8.1206802"><ele>818.0</ele><time>2026-04-18T09:22:24.165Z</time></trkpt><trkpt lat="44.1619463" lon="8.1208853"><ele>815.6666666666667</ele><time>2026-04-18T09:22:25.165Z</time></trkpt><trkpt lat="44.1619344" lon="8.1211033"><ele>813.3333333333333</ele><time>2026-04-18T09:22:26.164Z</time></trkpt><trkpt lat="44.1619246" lon="8.1213399"><ele>811.0</ele><time>2026-04-18T09:22:27.165Z</time></trkpt><trkpt lat="44.1619152" lon="8.1215786"><ele>809.25</ele><time>2026-04-18T09:22:28.164Z</time></trkpt><trkpt lat="44.1618974" lon="8.121805"><ele>807.5</ele><time>2026-04-18T09:22:29.164Z</time></trkpt><trkpt lat="44.1618765" lon="8.1220151"><ele>805.75</ele><time>2026-04-18T09:22:30.164Z</time></trkpt><trkpt lat="44.1618575" lon="8.1221944"><ele>804.0</ele><time>2026-04-18T09:22:31.165Z</time></trkpt><trkpt lat="44.1618544" lon="8.1223496"><ele>802.0</ele><time>2026-04-18T09:22:32.164Z</time></trkpt><trkpt lat="44.1618958" lon="8.1224927"><ele>800.0</ele><time>2026-04-18T09:22:33.165Z</time></trkpt><trkpt lat="44.1619697" lon="8.1226285"><ele>798.0</ele><time>2026-04-18T09:22:34.165Z</time></trkpt><trkpt lat="44.1620797" lon="8.1227482"><ele>796.0</ele><time>2026-04-18T09:22:35.165Z</time></trkpt><trkpt lat="44.1621946" lon="8.1228704"><ele>796.0</ele><time>2026-04-18T09:22:36.165Z</time></trkpt><trkpt lat="44.16231" lon="8.1230077"><ele>796.0</ele><time>2026-04-18T09:22:37.165Z</time></trkpt><trkpt lat="44.1624315" lon="8.1231368"><ele>796.0</ele><time>2026-04-18T09:22:38.165Z</time></trkpt><trkpt lat="44.1625547" lon="8.1232754"><ele>795.6666666666666</ele><time>2026-04-18T09:22:39.165Z</time></trkpt><trkpt lat="44.1626721" lon="8.1234328"><ele>795.3333333333333</ele><time>2026-04-18T09:22:40.164Z</time></trkpt><trkpt lat="44.1627575" lon="8.1236074"><ele>795.0</ele><time>2026-04-18T09:22:41.165Z</time></trkpt><trkpt lat="44.1628426" lon="8.1237761"><ele>795.0</ele><time>2026-04-18T09:22:42.164Z</time></trkpt><trkpt lat="44.1629438" lon="8.1239256"><ele>795.0</ele><time>2026-04-18T09:22:43.165Z</time></trkpt><trkpt lat="44.1630656" lon="8.1240391"><ele>795.0</ele><time>2026-04-18T09:22:44.165Z</time></trkpt><trkpt lat="44.1631844" lon="8.1241386"><ele>795.0</ele><time>2026-04-18T09:22:45.165Z</time></trkpt><trkpt lat="44.1632625" lon="8.1242757"><ele>795.25</ele><time>2026-04-18T09:22:46.164Z</time></trkpt><trkpt lat="44.1633153" lon="8.1244515"><ele>795.5</ele><time>2026-04-18T09:22:47.165Z</time></trkpt><trkpt lat="44.1633494" lon="8.124645"><ele>795.75</ele><time>2026-04-18T09:22:48.165Z</time></trkpt><trkpt lat="44.1633904" lon="8.1248454"><ele>796.0</ele><time>2026-04-18T09:22:49.165Z</time></trkpt><trkpt lat="44.1634411" lon="8.1250387"><ele>793.0</ele><time>2026-04-18T09:22:50.164Z</time></trkpt><trkpt lat="44.1635116" lon="8.1252006"><ele>790.0</ele><time>2026-04-18T09:22:51.164Z</time></trkpt><trkpt lat="44.1636122" lon="8.1253222"><ele>787.0</ele><time>2026-04-18T09:22:52.165Z</time></trkpt><trkpt lat="44.1637407" lon="8.1253943"><ele>784.0</ele><time>2026-04-18T09:22:53.165Z</time></trkpt><trkpt lat="44.1638804" lon="8.1254272"><ele>784.0</ele><time>2026-04-18T09:22:54.164Z</time></trkpt><trkpt lat="44.1640261" lon="8.1254528"><ele>784.0</ele><time>2026-04-18T09:22:55.165Z</time></trkpt><trkpt lat="44.1641647" lon="8.1254391"><ele>784.0</ele><time>2026-04-18T09:22:56.164Z</time></trkpt><trkpt lat="44.1642844" lon="8.1253898"><ele>784.0</ele><time>2026-04-18T09:22:57.164Z</time></trkpt><trkpt lat="44.1643964" lon="8.1253532"><ele>785.3333333333333</ele><time>2026-04-18T09:22:58.165Z</time></trkpt><trkpt lat="44.1644996" lon="8.12536"><ele>786.6666666666666</ele><time>2026-04-18T09:22:59.165Z</time></trkpt><trkpt lat="44.1645733" lon="8.1254145"><ele>788.0</ele><time>2026-04-18T09:23:00.164Z</time></trkpt><trkpt lat="44.1646068" lon="8.1255044"><ele>789.3333333333333</ele><time>2026-04-18T09:23:01.165Z</time></trkpt><trkpt lat="44.164614" lon="8.1256153"><ele>790.6666666666666</ele><time>2026-04-18T09:23:02.165Z</time></trkpt><trkpt lat="44.1645929" lon="8.1257327"><ele>792.0</ele><time>2026-04-18T09:23:03.164Z</time></trkpt><trkpt lat="44.1645663" lon="8.1258548"><ele>787.75</ele><time>2026-04-18T09:23:04.165Z</time></trkpt><trkpt lat="44.1646069" lon="8.125997"><ele>783.5</ele><time>2026-04-18T09:23:05.164Z</time></trkpt><trkpt lat="44.1647066" lon="8.1261685"><ele>779.25</ele><time>2026-04-18T09:23:06.164Z</time></trkpt><trkpt lat="44.1647799" lon="8.1263288"><ele>775.0</ele><time>2026-04-18T09:23:07.165Z</time></trkpt><trkpt lat="44.1648609" lon="8.1264666"><ele>774.0</ele><time>2026-04-18T09:23:08.165Z</time></trkpt><trkpt lat="44.1649828" lon="8.126572"><ele>773.0</ele><time>2026-04-18T09:23:09.165Z</time></trkpt><trkpt lat="44.165123" lon="8.1266414"><ele>772.0</ele><time>2026-04-18T09:23:10.164Z</time></trkpt><trkpt lat="44.1652704" lon="8.1266884"><ele>771.0</ele><time>2026-04-18T09:23:11.165Z</time></trkpt><trkpt lat="44.1654029" lon="8.1267359"><ele>771.0</ele><time>2026-04-18T09:23:12.165Z</time></trkpt><trkpt lat="44.1655187" lon="8.1268094"><ele>771.0</ele><time>2026-04-18T09:23:13.165Z</time></trkpt><trkpt lat="44.1656253" lon="8.1268771"><ele>771.0</ele><time>2026-04-18T09:23:14.164Z</time></trkpt><trkpt lat="44.1657335" lon="8.1269341"><ele>771.0</ele><time>2026-04-18T09:23:15.164Z</time></trkpt><trkpt lat="44.1658413" lon="8.1269192"><ele>770.75</ele><time>2026-04-18T09:23:16.165Z</time></trkpt><trkpt lat="44.1659351" lon="8.1268162"><ele>770.5</ele><time>2026-04-18T09:23:17.165Z</time></trkpt><trkpt lat="44.1660002" lon="8.1266578"><ele>770.25</ele><time>2026-04-18T09:23:18.165Z</time></trkpt><trkpt lat="44.1660455" lon="8.1264997"><ele>770.0</ele><time>2026-04-18T09:23:19.165Z</time></trkpt><trkpt lat="44.1660988" lon="8.126371"><ele>771.6</ele><time>2026-04-18T09:23:20.165Z</time></trkpt><trkpt lat="44.1661722" lon="8.1262886"><ele>773.2</ele><time>2026-04-18T09:23:21.164Z</time></trkpt><trkpt lat="44.166249" lon="8.1262604"><ele>774.8</ele><time>2026-04-18T09:23:22.165Z</time></trkpt><trkpt lat="44.166327" lon="8.1262988"><ele>776.4</ele><time>2026-04-18T09:23:23.165Z</time></trkpt><trkpt lat="44.1664015" lon="8.1263677"><ele>778.0</ele><time>2026-04-18T09:23:24.166Z</time></trkpt><trkpt lat="44.1664664" lon="8.1264896"><ele>776.0</ele><time>2026-04-18T09:23:25.166Z</time></trkpt><trkpt lat="44.1665201" lon="8.1266397"><ele>774.0</ele><time>2026-04-18T09:23:26.166Z</time></trkpt><trkpt lat="44.1665809" lon="8.1267999"><ele>772.0</ele><time>2026-04-18T09:23:27.166Z</time></trkpt><trkpt lat="44.1666427" lon="8.1269398"><ele>770.0</ele><time>2026-04-18T09:23:28.166Z</time></trkpt><trkpt lat="44.1667074" lon="8.1270652"><ele>769.25</ele><time>2026-04-18T09:23:29.166Z</time></trkpt><trkpt lat="44.1667907" lon="8.1271557"><ele>768.5</ele><time>2026-04-18T09:23:30.166Z</time></trkpt><trkpt lat="44.1669092" lon="8.1272001"><ele>767.75</ele><time>2026-04-18T09:23:31.165Z</time></trkpt><trkpt lat="44.1670459" lon="8.1272226"><ele>767.0</ele><time>2026-04-18T09:23:32.166Z</time></trkpt><trkpt lat="44.1671889" lon="8.1272472"><ele>767.0</ele><time>2026-04-18T09:23:33.166Z</time></trkpt><trkpt lat="44.1673216" lon="8.1272827"><ele>767.0</ele><time>2026-04-18T09:23:34.166Z</time></trkpt><trkpt lat="44.1674354" lon="8.1273373"><ele>767.0</ele><time>2026-04-18T09:23:35.166Z</time></trkpt><trkpt lat="44.1675195" lon="8.1274254"><ele>767.0</ele><time>2026-04-18T09:23:36.166Z</time></trkpt><trkpt lat="44.1675804" lon="8.1275334"><ele>766.0</ele><time>2026-04-18T09:23:37.166Z</time></trkpt><trkpt lat="44.1676294" lon="8.127657"><ele>765.0</ele><time>2026-04-18T09:23:38.166Z</time></trkpt><trkpt lat="44.1676422" lon="8.1278017"><ele>764.0</ele><time>2026-04-18T09:23:39.166Z</time></trkpt><trkpt lat="44.1676104" lon="8.1279438"><ele>763.0</ele><time>2026-04-18T09:23:40.166Z</time></trkpt><trkpt lat="44.1675549" lon="8.1280835"><ele>762.0</ele><time>2026-04-18T09:23:41.165Z</time></trkpt><trkpt lat="44.1674667" lon="8.1282013"><ele>762.75</ele><time>2026-04-18T09:23:42.166Z</time></trkpt><trkpt lat="44.1673665" lon="8.1283116"><ele>763.5</ele><time>2026-04-18T09:23:43.166Z</time></trkpt><trkpt lat="44.1672858" lon="8.1284451"><ele>764.25</ele><time>2026-04-18T09:23:44.166Z</time></trkpt><trkpt lat="44.1672222" lon="8.1286142"><ele>765.0</ele><time>2026-04-18T09:23:45.166Z</time></trkpt><trkpt lat="44.1671777" lon="8.1287814"><ele>764.75</ele><time>2026-04-18T09:23:46.166Z</time></trkpt><trkpt lat="44.1671673" lon="8.128945"><ele>764.5</ele><time>2026-04-18T09:23:47.166Z</time></trkpt><trkpt lat="44.1672037" lon="8.1291005"><ele>764.25</ele><time>2026-04-18T09:23:48.165Z</time></trkpt><trkpt lat="44.1672762" lon="8.1292484"><ele>764.0</ele><time>2026-04-18T09:23:49.165Z</time></trkpt><trkpt lat="44.1673766" lon="8.1294069"><ele>764.0</ele><time>2026-04-18T09:23:50.166Z</time></trkpt><trkpt lat="44.1674839" lon="8.1295734"><ele>764.0</ele><time>2026-04-18T09:23:51.166Z</time></trkpt><trkpt lat="44.1675996" lon="8.1297366"><ele>764.0</ele><time>2026-04-18T09:23:52.166Z</time></trkpt><trkpt lat="44.1677225" lon="8.1298978"><ele>759.3333333333333</ele><time>2026-04-18T09:23:53.166Z</time></trkpt><trkpt lat="44.1678474" lon="8.1300507"><ele>754.6666666666666</ele><time>2026-04-18T09:23:54.165Z</time></trkpt><trkpt lat="44.1679767" lon="8.1301872"><ele>750.0</ele><time>2026-04-18T09:23:55.166Z</time></trkpt><trkpt lat="44.1681257" lon="8.1302953"><ele>755.3333333333334</ele><time>2026-04-18T09:23:56.166Z</time></trkpt><trkpt lat="44.1682901" lon="8.13039"><ele>760.6666666666667</ele><time>2026-04-18T09:23:57.166Z</time></trkpt><trkpt lat="44.1684603" lon="8.1304783"><ele>766.0</ele><time>2026-04-18T09:23:58.166Z</time></trkpt><trkpt lat="44.1686301" lon="8.1305718"><ele>766.0</ele><time>2026-04-18T09:23:59.166Z</time></trkpt><trkpt lat="44.1687895" lon="8.1306698"><ele>766.0</ele><time>2026-04-18T09:24:00.165Z</time></trkpt><trkpt lat="44.1689355" lon="8.1307952"><ele>766.0</ele><time>2026-04-18T09:24:01.166Z</time></trkpt><trkpt lat="44.1690671" lon="8.1309352"><ele>762.0</ele><time>2026-04-18T09:24:02.166Z</time></trkpt><trkpt lat="44.1691865" lon="8.1310661"><ele>758.0</ele><time>2026-04-18T09:24:03.166Z</time></trkpt><trkpt lat="44.1693147" lon="8.1311744"><ele>754.0</ele><time>2026-04-18T09:24:04.165Z</time></trkpt><trkpt lat="44.1694615" lon="8.131253"><ele>754.0</ele><time>2026-04-18T09:24:05.166Z</time></trkpt><trkpt lat="44.1696225" lon="8.131308"><ele>754.0</ele><time>2026-04-18T09:24:06.166Z</time></trkpt><trkpt lat="44.1697747" lon="8.1313756"><ele>754.0</ele><time>2026-04-18T09:24:07.166Z</time></trkpt><trkpt lat="44.1699154" lon="8.1314558"><ele>753.6666666666667</ele><time>2026-04-18T09:24:08.166Z</time></trkpt><trkpt lat="44.1700444" lon="8.131571"><ele>753.3333333333334</ele><time>2026-04-18T09:24:09.166Z</time></trkpt><trkpt lat="44.170159" lon="8.13172"><ele>753.0</ele><time>2026-04-18T09:24:10.166Z</time></trkpt><trkpt lat="44.1702502" lon="8.1318812"><ele>753.0</ele><time>2026-04-18T09:24:11.166Z</time></trkpt><trkpt lat="44.170317" lon="8.1320311"><ele>753.0</ele><time>2026-04-18T09:24:12.166Z</time></trkpt><trkpt lat="44.1704013" lon="8.1321448"><ele>753.0</ele><time>2026-04-18T09:24:13.166Z</time></trkpt><trkpt lat="44.1705164" lon="8.1322174"><ele>753.0</ele><time>2026-04-18T09:24:14.166Z</time></trkpt><trkpt lat="44.1706419" lon="8.1322415"><ele>755.25</ele><time>2026-04-18T09:24:15.166Z</time></trkpt><trkpt lat="44.1707796" lon="8.1322243"><ele>757.5</ele><time>2026-04-18T09:24:16.166Z</time></trkpt><trkpt lat="44.1709258" lon="8.1321892"><ele>759.75</ele><time>2026-04-18T09:24:17.165Z</time></trkpt><trkpt lat="44.1710809" lon="8.1321354"><ele>762.0</ele><time>2026-04-18T09:24:18.166Z</time></trkpt><trkpt lat="44.171244" lon="8.1320825"><ele>762.0</ele><time>2026-04-18T09:24:19.166Z</time></trkpt><trkpt lat="44.1714135" lon="8.1320442"><ele>762.0</ele><time>2026-04-18T09:24:20.166Z</time></trkpt><trkpt lat="44.171588" lon="8.1320242"><ele>762.0</ele><time>2026-04-18T09:24:21.166Z</time></trkpt><trkpt lat="44.1717547" lon="8.1320095"><ele>759.75</ele><time>2026-04-18T09:24:22.166Z</time></trkpt><trkpt lat="44.1719089" lon="8.1320163"><ele>757.5</ele><time>2026-04-18T09:24:23.166Z</time></trkpt><trkpt lat="44.1720459" lon="8.1320605"><ele>755.25</ele><time>2026-04-18T09:24:24.166Z</time></trkpt><trkpt lat="44.1721624" lon="8.1321391"><ele>753.0</ele><time>2026-04-18T09:24:25.165Z</time></trkpt><trkpt lat="44.1722632" lon="8.132262"><ele>750.6666666666666</ele><time>2026-04-18T09:24:26.166Z</time></trkpt><trkpt lat="44.1723633" lon="8.1324307"><ele>748.3333333333333</ele><time>2026-04-18T09:24:27.166Z</time></trkpt><trkpt lat="44.1724638" lon="8.1326184"><ele>746.0</ele><time>2026-04-18T09:24:28.166Z</time></trkpt><trkpt lat="44.1725676" lon="8.1328146"><ele>746.0</ele><time>2026-04-18T09:24:29.166Z</time></trkpt><trkpt lat="44.1726834" lon="8.1330226"><ele>746.0</ele><time>2026-04-18T09:24:30.166Z</time></trkpt><trkpt lat="44.1728019" lon="8.1332291"><ele>746.0</ele><time>2026-04-18T09:24:31.166Z</time></trkpt><trkpt lat="44.1729137" lon="8.1334368"><ele>743.3333333333333</ele><time>2026-04-18T09:24:32.166Z</time></trkpt><trkpt lat="44.1730191" lon="8.1336259"><ele>740.6666666666666</ele><time>2026-04-18T09:24:33.166Z</time></trkpt><trkpt lat="44.1731219" lon="8.1337571"><ele>738.0</ele><time>2026-04-18T09:24:34.165Z</time></trkpt><trkpt lat="44.1732424" lon="8.133861"><ele>738.25</ele><time>2026-04-18T09:24:35.166Z</time></trkpt><trkpt lat="44.173375" lon="8.133944"><ele>738.5</ele><time>2026-04-18T09:24:36.166Z</time></trkpt><trkpt lat="44.1734952" lon="8.1340376"><ele>738.75</ele><time>2026-04-18T09:24:37.166Z</time></trkpt><trkpt lat="44.1735831" lon="8.1341724"><ele>739.0</ele><time>2026-04-18T09:24:38.166Z</time></trkpt><trkpt lat="44.1736389" lon="8.1343239"><ele>739.0</ele><time>2026-04-18T09:24:39.166Z</time></trkpt><trkpt lat="44.1736786" lon="8.1344816"><ele>739.0</ele><time>2026-04-18T09:24:40.166Z</time></trkpt><trkpt lat="44.1737403" lon="8.1346216"><ele>739.0</ele><time>2026-04-18T09:24:41.165Z</time></trkpt><trkpt lat="44.1738308" lon="8.13472"><ele>739.0</ele><time>2026-04-18T09:24:42.166Z</time></trkpt><trkpt lat="44.1739423" lon="8.1347558"><ele>741.2</ele><time>2026-04-18T09:24:43.165Z</time></trkpt><trkpt lat="44.1740648" lon="8.134736"><ele>743.4000000000001</ele><time>2026-04-18T09:24:44.165Z</time></trkpt><trkpt lat="44.174182" lon="8.1347076"><ele>745.6</ele><time>2026-04-18T09:24:45.165Z</time></trkpt><trkpt lat="44.1742877" lon="8.13471"><ele>747.8</ele><time>2026-04-18T09:24:46.166Z</time></trkpt><trkpt lat="44.1743688" lon="8.1347628"><ele>750.0</ele><time>2026-04-18T09:24:47.165Z</time></trkpt><trkpt lat="44.174436" lon="8.134869"><ele>746.5</ele><time>2026-04-18T09:24:48.165Z</time></trkpt><trkpt lat="44.1745018" lon="8.1350141"><ele>743.0</ele><time>2026-04-18T09:24:49.165Z</time></trkpt><trkpt lat="44.1745726" lon="8.1351594"><ele>739.5</ele><time>2026-04-18T09:24:50.166Z</time></trkpt><trkpt lat="44.1746604" lon="8.1352765"><ele>736.0</ele><time>2026-04-18T09:24:51.165Z</time></trkpt><trkpt lat="44.174768" lon="8.1353533"><ele>733.5</ele><time>2026-04-18T09:24:52.166Z</time></trkpt><trkpt lat="44.1748948" lon="8.1353622"><ele>731.0</ele><time>2026-04-18T09:24:53.166Z</time></trkpt><trkpt lat="44.1750258" lon="8.1353052"><ele>728.5</ele><time>2026-04-18T09:24:54.166Z</time></trkpt><trkpt lat="44.1751648" lon="8.1352083"><ele>726.0</ele><time>2026-04-18T09:24:55.166Z</time></trkpt><trkpt lat="44.1753058" lon="8.1350872"><ele>726.0</ele><time>2026-04-18T09:24:56.166Z</time></trkpt><trkpt lat="44.1754332" lon="8.1349388"><ele>726.0</ele><time>2026-04-18T09:24:57.165Z</time></trkpt><trkpt lat="44.1755528" lon="8.134783"><ele>726.0</ele><time>2026-04-18T09:24:58.166Z</time></trkpt><trkpt lat="44.1756791" lon="8.1346592"><ele>726.0</ele><time>2026-04-18T09:24:59.165Z</time></trkpt><trkpt lat="44.1758275" lon="8.1345811"><ele>726.0</ele><time>2026-04-18T09:25:00.166Z</time></trkpt><trkpt lat="44.1759918" lon="8.1345406"><ele>726.0</ele><time>2026-04-18T09:25:01.165Z</time></trkpt><trkpt lat="44.1761602" lon="8.1345383"><ele>726.0</ele><time>2026-04-18T09:25:02.166Z</time></trkpt><trkpt lat="44.1763239" lon="8.1345003"><ele>726.0</ele><time>2026-04-18T09:25:03.166Z</time></trkpt><trkpt lat="44.1764923" lon="8.134422"><ele>726.0</ele><time>2026-04-18T09:25:04.166Z</time></trkpt><trkpt lat="44.1766701" lon="8.1343211"><ele>726.0</ele><time>2026-04-18T09:25:05.166Z</time></trkpt><trkpt lat="44.1768449" lon="8.1342004"><ele>726.0</ele><time>2026-04-18T09:25:06.166Z</time></trkpt><trkpt lat="44.1770223" lon="8.1340692"><ele>726.0</ele><time>2026-04-18T09:25:07.166Z</time></trkpt><trkpt lat="44.177197" lon="8.1339254"><ele>725.0</ele><time>2026-04-18T09:25:08.166Z</time></trkpt><trkpt lat="44.1773696" lon="8.1337822"><ele>724.0</ele><time>2026-04-18T09:25:09.166Z</time></trkpt><trkpt lat="44.1775393" lon="8.1336423"><ele>723.0</ele><time>2026-04-18T09:25:10.167Z</time></trkpt><trkpt lat="44.1776965" lon="8.1335174"><ele>723.0</ele><time>2026-04-18T09:25:11.166Z</time></trkpt><trkpt lat="44.1778536" lon="8.1334318"><ele>723.0</ele><time>2026-04-18T09:25:12.167Z</time></trkpt><trkpt lat="44.1780072" lon="8.1333952"><ele>723.0</ele><time>2026-04-18T09:25:13.167Z</time></trkpt><trkpt lat="44.1781688" lon="8.1333873"><ele>724.3333333333334</ele><time>2026-04-18T09:25:14.167Z</time></trkpt><trkpt lat="44.1783271" lon="8.1333631"><ele>725.6666666666667</ele><time>2026-04-18T09:25:15.166Z</time></trkpt><trkpt lat="44.1784967" lon="8.1333026"><ele>727.0</ele><time>2026-04-18T09:25:16.167Z</time></trkpt><trkpt lat="44.1786466" lon="8.1331837"><ele>724.0</ele><time>2026-04-18T09:25:17.167Z</time></trkpt><trkpt lat="44.1787897" lon="8.1330642"><ele>721.0</ele><time>2026-04-18T09:25:18.166Z</time></trkpt><trkpt lat="44.1789416" lon="8.1329829"><ele>718.0</ele><time>2026-04-18T09:25:19.167Z</time></trkpt><trkpt lat="44.179112" lon="8.1329298"><ele>718.0</ele><time>2026-04-18T09:25:20.166Z</time></trkpt><trkpt lat="44.1792908" lon="8.1329011"><ele>718.0</ele><time>2026-04-18T09:25:21.166Z</time></trkpt><trkpt lat="44.1794773" lon="8.1328275"><ele>718.0</ele><time>2026-04-18T09:25:22.167Z</time></trkpt><trkpt lat="44.1796565" lon="8.1327234"><ele>718.0</ele><time>2026-04-18T09:25:23.166Z</time></trkpt><trkpt lat="44.1798188" lon="8.1326083"><ele>718.0</ele><time>2026-04-18T09:25:24.167Z</time></trkpt><trkpt lat="44.1799645" lon="8.132498"><ele>718.0</ele><time>2026-04-18T09:25:25.167Z</time></trkpt><trkpt lat="44.1800902" lon="8.1323543"><ele>717.3333333333334</ele><time>2026-04-18T09:25:26.166Z</time></trkpt><trkpt lat="44.1802024" lon="8.1321682"><ele>716.6666666666666</ele><time>2026-04-18T09:25:27.166Z</time></trkpt><trkpt lat="44.1803038" lon="8.1319536"><ele>716.0</ele><time>2026-04-18T09:25:28.167Z</time></trkpt><trkpt lat="44.1803898" lon="8.1317524"><ele>716.0</ele><time>2026-04-18T09:25:29.167Z</time></trkpt><trkpt lat="44.180481" lon="8.1315838"><ele>716.0</ele><time>2026-04-18T09:25:30.167Z</time></trkpt><trkpt lat="44.1805976" lon="8.1314514"><ele>716.0</ele><time>2026-04-18T09:25:31.166Z</time></trkpt><trkpt lat="44.1807359" lon="8.1313312"><ele>715.6666666666666</ele><time>2026-04-18T09:25:32.167Z</time></trkpt><trkpt lat="44.1808905" lon="8.1312111"><ele>715.3333333333334</ele><time>2026-04-18T09:25:33.167Z</time></trkpt><trkpt lat="44.1810575" lon="8.1310832"><ele>715.0</ele><time>2026-04-18T09:25:34.167Z</time></trkpt><trkpt lat="44.1812136" lon="8.130957"><ele>715.0</ele><time>2026-04-18T09:25:35.167Z</time></trkpt><trkpt lat="44.1813515" lon="8.1308165"><ele>715.0</ele><time>2026-04-18T09:25:36.167Z</time></trkpt><trkpt lat="44.1814768" lon="8.1306415"><ele>715.0</ele><time>2026-04-18T09:25:37.167Z</time></trkpt><trkpt lat="44.181595" lon="8.1304421"><ele>714.6666666666667</ele><time>2026-04-18T09:25:38.166Z</time></trkpt><trkpt lat="44.1817254" lon="8.1302547"><ele>714.3333333333334</ele><time>2026-04-18T09:25:39.167Z</time></trkpt><trkpt lat="44.1818637" lon="8.1301047"><ele>714.0</ele><time>2026-04-18T09:25:40.167Z</time></trkpt><trkpt lat="44.1820073" lon="8.1299965"><ele>714.0</ele><time>2026-04-18T09:25:41.166Z</time></trkpt><trkpt lat="44.1821622" lon="8.129921"><ele>714.0</ele><time>2026-04-18T09:25:42.167Z</time></trkpt><trkpt lat="44.182344" lon="8.1298622"><ele>714.0</ele><time>2026-04-18T09:25:43.166Z</time></trkpt><trkpt lat="44.1825396" lon="8.1298033"><ele>713.0</ele><time>2026-04-18T09:25:44.166Z</time></trkpt><trkpt lat="44.1827398" lon="8.1297494"><ele>712.0</ele><time>2026-04-18T09:25:45.167Z</time></trkpt><trkpt lat="44.1829419" lon="8.1296936"><ele>711.0</ele><time>2026-04-18T09:25:46.167Z</time></trkpt><trkpt lat="44.1831529" lon="8.1296383"><ele>712.0</ele><time>2026-04-18T09:25:47.167Z</time></trkpt><trkpt lat="44.1833662" lon="8.1295806"><ele>713.0</ele><time>2026-04-18T09:25:48.166Z</time></trkpt><trkpt lat="44.1835819" lon="8.1295256"><ele>714.0</ele><time>2026-04-18T09:25:49.167Z</time></trkpt><trkpt lat="44.183798" lon="8.1294682"><ele>713.3333333333334</ele><time>2026-04-18T09:25:50.167Z</time></trkpt><trkpt lat="44.1840148" lon="8.1294144"><ele>712.6666666666667</ele><time>2026-04-18T09:25:51.167Z</time></trkpt><trkpt lat="44.184228" lon="8.1293661"><ele>712.0</ele><time>2026-04-18T09:25:52.166Z</time></trkpt><trkpt lat="44.1844334" lon="8.1293262"><ele>712.0</ele><time>2026-04-18T09:25:53.166Z</time></trkpt><trkpt lat="44.1846373" lon="8.1292855"><ele>712.0</ele><time>2026-04-18T09:25:54.166Z</time></trkpt><trkpt lat="44.1848394" lon="8.1292213"><ele>712.0</ele><time>2026-04-18T09:25:55.167Z</time></trkpt><trkpt lat="44.185046" lon="8.1291135"><ele>710.0</ele><time>2026-04-18T09:25:56.166Z</time></trkpt><trkpt lat="44.1852523" lon="8.1289807"><ele>708.0</ele><time>2026-04-18T09:25:57.167Z</time></trkpt><trkpt lat="44.1854416" lon="8.1288487"><ele>706.0</ele><time>2026-04-18T09:25:58.167Z</time></trkpt><trkpt lat="44.1856131" lon="8.1287259"><ele>705.6666666666667</ele><time>2026-04-18T09:25:59.167Z</time></trkpt><trkpt lat="44.1857722" lon="8.1286196"><ele>705.3333333333334</ele><time>2026-04-18T09:26:00.167Z</time></trkpt><trkpt lat="44.1859267" lon="8.1285497"><ele>705.0</ele><time>2026-04-18T09:26:01.167Z</time></trkpt><trkpt lat="44.1860847" lon="8.1285217"><ele>705.0</ele><time>2026-04-18T09:26:02.166Z</time></trkpt><trkpt lat="44.186237" lon="8.1285284"><ele>705.0</ele><time>2026-04-18T09:26:03.167Z</time></trkpt><trkpt lat="44.1863705" lon="8.1285625"><ele>705.0</ele><time>2026-04-18T09:26:04.167Z</time></trkpt><trkpt lat="44.1864824" lon="8.1286293"><ele>705.0</ele><time>2026-04-18T09:26:05.167Z</time></trkpt><trkpt lat="44.1865929" lon="8.1287461"><ele>705.25</ele><time>2026-04-18T09:26:06.167Z</time></trkpt><trkpt lat="44.1867048" lon="8.1288903"><ele>705.5</ele><time>2026-04-18T09:26:07.167Z</time></trkpt><trkpt lat="44.1868094" lon="8.1290426"><ele>705.75</ele><time>2026-04-18T09:26:08.167Z</time></trkpt><trkpt lat="44.18691" lon="8.1291746"><ele>706.0</ele><time>2026-04-18T09:26:09.167Z</time></trkpt><trkpt lat="44.1870061" lon="8.1292714"><ele>706.0</ele><time>2026-04-18T09:26:10.166Z</time></trkpt><trkpt lat="44.1871193" lon="8.1293127"><ele>706.0</ele><time>2026-04-18T09:26:11.166Z</time></trkpt><trkpt lat="44.187251" lon="8.129316"><ele>706.0</ele><time>2026-04-18T09:26:12.166Z</time></trkpt><trkpt lat="44.1873804" lon="8.1292831"><ele>706.0</ele><time>2026-04-18T09:26:13.167Z</time></trkpt><trkpt lat="44.1875012" lon="8.1292496"><ele>705.4</ele><time>2026-04-18T09:26:14.167Z</time></trkpt><trkpt lat="44.1876082" lon="8.1292245"><ele>704.8</ele><time>2026-04-18T09:26:15.167Z</time></trkpt><trkpt lat="44.187722" lon="8.1291996"><ele>704.1999999999999</ele><time>2026-04-18T09:26:16.167Z</time></trkpt><trkpt lat="44.1878255" lon="8.1291805"><ele>703.5999999999999</ele><time>2026-04-18T09:26:17.167Z</time></trkpt><trkpt lat="44.1879147" lon="8.1291726"><ele>703.0</ele><time>2026-04-18T09:26:18.167Z</time></trkpt><trkpt lat="44.1879973" lon="8.1291931"><ele>703.0</ele><time>2026-04-18T09:26:19.167Z</time></trkpt><trkpt lat="44.1880556" lon="8.1292584"><ele>703.0</ele><time>2026-04-18T09:26:20.167Z</time></trkpt><trkpt lat="44.1880975" lon="8.1293656"><ele>703.0</ele><time>2026-04-18T09:26:21.167Z</time></trkpt><trkpt lat="44.188129" lon="8.1295125"><ele>703.0</ele><time>2026-04-18T09:26:22.166Z</time></trkpt><trkpt lat="44.188167" lon="8.1296972"><ele>703.0</ele><time>2026-04-18T09:26:23.167Z</time></trkpt><trkpt lat="44.1882123" lon="8.1298787"><ele>703.25</ele><time>2026-04-18T09:26:24.167Z</time></trkpt><trkpt lat="44.1882643" lon="8.1300651"><ele>703.5</ele><time>2026-04-18T09:26:25.166Z</time></trkpt><trkpt lat="44.188331" lon="8.1302468"><ele>703.75</ele><time>2026-04-18T09:26:26.167Z</time></trkpt><trkpt lat="44.1883991" lon="8.1304198"><ele>704.0</ele><time>2026-04-18T09:26:27.167Z</time></trkpt><trkpt lat="44.1884744" lon="8.1305876"><ele>704.25</ele><time>2026-04-18T09:26:28.167Z</time></trkpt><trkpt lat="44.188542" lon="8.1307429"><ele>704.5</ele><time>2026-04-18T09:26:29.166Z</time></trkpt><trkpt lat="44.1886137" lon="8.1308942"><ele>704.75</ele><time>2026-04-18T09:26:30.166Z</time></trkpt><trkpt lat="44.1886835" lon="8.1310375"><ele>705.0</ele><time>2026-04-18T09:26:31.167Z</time></trkpt><trkpt lat="44.1887521" lon="8.1311683"><ele>705.0</ele><time>2026-04-18T09:26:32.167Z</time></trkpt><trkpt lat="44.1888069" lon="8.1312841"><ele>705.0</ele><time>2026-04-18T09:26:33.166Z</time></trkpt><trkpt lat="44.1888365" lon="8.1313875"><ele>705.0</ele><time>2026-04-18T09:26:34.167Z</time></trkpt><trkpt lat="44.1888279" lon="8.1314955"><ele>705.0</ele><time>2026-04-18T09:26:35.167Z</time></trkpt><trkpt lat="44.1887855" lon="8.1316055"><ele>705.0</ele><time>2026-04-18T09:26:36.167Z</time></trkpt><trkpt lat="44.1887074" lon="8.1317238"><ele>705.25</ele><time>2026-04-18T09:26:37.167Z</time></trkpt><trkpt lat="44.1886171" lon="8.1318575"><ele>705.5</ele><time>2026-04-18T09:26:38.167Z</time></trkpt><trkpt lat="44.1885085" lon="8.1319899"><ele>705.75</ele><time>2026-04-18T09:26:39.167Z</time></trkpt><trkpt lat="44.1883939" lon="8.1321129"><ele>706.0</ele><time>2026-04-18T09:26:40.167Z</time></trkpt><trkpt lat="44.1882677" lon="8.1322438"><ele>705.75</ele><time>2026-04-18T09:26:41.167Z</time></trkpt><trkpt lat="44.1881458" lon="8.1323639"><ele>705.5</ele><time>2026-04-18T09:26:42.167Z</time></trkpt><trkpt lat="44.1880258" lon="8.1324815"><ele>705.25</ele><time>2026-04-18T09:26:43.167Z</time></trkpt><trkpt lat="44.1879109" lon="8.132595"><ele>705.0</ele><time>2026-04-18T09:26:44.166Z</time></trkpt><trkpt lat="44.1878039" lon="8.1326944"><ele>705.0</ele><time>2026-04-18T09:26:45.167Z</time></trkpt><trkpt lat="44.1877071" lon="8.1328021"><ele>705.0</ele><time>2026-04-18T09:26:46.167Z</time></trkpt><trkpt lat="44.1876155" lon="8.1329321"><ele>705.0</ele><time>2026-04-18T09:26:47.167Z</time></trkpt><trkpt lat="44.1875578" lon="8.133097"><ele>705.0</ele><time>2026-04-18T09:26:48.166Z</time></trkpt><trkpt lat="44.1875233" lon="8.1332748"><ele>705.5</ele><time>2026-04-18T09:26:49.167Z</time></trkpt><trkpt lat="44.1875042" lon="8.1334685"><ele>706.0</ele><time>2026-04-18T09:26:50.167Z</time></trkpt><trkpt lat="44.187509" lon="8.1336561"><ele>706.5</ele><time>2026-04-18T09:26:51.167Z</time></trkpt><trkpt lat="44.1875118" lon="8.1338345"><ele>707.0</ele><time>2026-04-18T09:26:52.168Z</time></trkpt><trkpt lat="44.1874799" lon="8.1340177"><ele>707.0</ele><time>2026-04-18T09:26:53.167Z</time></trkpt><trkpt lat="44.1874358" lon="8.1341855"><ele>707.0</ele><time>2026-04-18T09:26:54.167Z</time></trkpt><trkpt lat="44.1873797" lon="8.1343508"><ele>707.0</ele><time>2026-04-18T09:26:55.168Z</time></trkpt><trkpt lat="44.1873239" lon="8.1345164"><ele>707.0</ele><time>2026-04-18T09:26:56.168Z</time></trkpt><trkpt lat="44.1872731" lon="8.1346772"><ele>707.0</ele><time>2026-04-18T09:26:57.168Z</time></trkpt><trkpt lat="44.187225" lon="8.1348338"><ele>707.0</ele><time>2026-04-18T09:26:58.167Z</time></trkpt><trkpt lat="44.1871723" lon="8.1349861"><ele>707.0</ele><time>2026-04-18T09:26:59.167Z</time></trkpt><trkpt lat="44.1871175" lon="8.1351415"><ele>707.0</ele><time>2026-04-18T09:27:00.168Z</time></trkpt><trkpt lat="44.1870587" lon="8.1352894"><ele>707.6</ele><time>2026-04-18T09:27:01.168Z</time></trkpt><trkpt lat="44.1870033" lon="8.1354224"><ele>708.2</ele><time>2026-04-18T09:27:02.168Z</time></trkpt><trkpt lat="44.1869472" lon="8.1355357"><ele>708.8</ele><time>2026-04-18T09:27:03.168Z</time></trkpt><trkpt lat="44.1868959" lon="8.1356374"><ele>709.4</ele><time>2026-04-18T09:27:04.168Z</time></trkpt><trkpt lat="44.186848" lon="8.1357212"><ele>710.0</ele><time>2026-04-18T09:27:05.168Z</time></trkpt><trkpt lat="44.1867879" lon="8.135852"><ele>712.0</ele><time>2026-04-18T09:27:07.168Z</time></trkpt><trkpt lat="44.186759" lon="8.1359376"><ele>712.0</ele><time>2026-04-18T09:27:09.168Z</time></trkpt><trkpt lat="44.1868288" lon="8.1359631"><ele>712.0</ele><time>2026-04-18T09:27:17.167Z</time></trkpt></trkseg><trkseg><trkpt lat="44.1867771" lon="8.1359551"><ele>712.0</ele><time>2026-04-18T12:15:43.24Z</time></trkpt><trkpt lat="44.1868034" lon="8.1358477"><ele>712.0</ele><time>2026-04-18T12:15:45.241Z</time></trkpt><trkpt lat="44.1868438" lon="8.1357657"><ele>712.0</ele><time>2026-04-18T12:15:46.24Z</time></trkpt><trkpt lat="44.1869015" lon="8.1356661"><ele>712.0</ele><time>2026-04-18T12:15:47.24Z</time></trkpt><trkpt lat="44.1869602" lon="8.1355551"><ele>712.0</ele><time>2026-04-18T12:15:48.241Z</time></trkpt><trkpt lat="44.1870194" lon="8.135415"><ele>711.5</ele><time>2026-04-18T12:15:49.241Z</time></trkpt><trkpt lat="44.1870797" lon="8.1352553"><ele>711.0</ele><time>2026-04-18T12:15:50.24Z</time></trkpt><trkpt lat="44.1871392" lon="8.1350895"><ele>710.5</ele><time>2026-04-18T12:15:51.241Z</time></trkpt><trkpt lat="44.1872064" lon="8.1349196"><ele>710.0</ele><time>2026-04-18T12:15:52.241Z</time></trkpt><trkpt lat="44.1872664" lon="8.1347452"><ele>709.25</ele><time>2026-04-18T12:15:53.241Z</time></trkpt><trkpt lat="44.1873255" lon="8.1345686"><ele>708.5</ele><time>2026-04-18T12:15:54.241Z</time></trkpt><trkpt lat="44.1873825" lon="8.1343994"><ele>707.75</ele><time>2026-04-18T12:15:55.241Z</time></trkpt><trkpt lat="44.1874386" lon="8.1342317"><ele>707.0</ele><time>2026-04-18T12:15:56.241Z</time></trkpt><trkpt lat="44.1874848" lon="8.1340681"><ele>707.0</ele><time>2026-04-18T12:15:57.241Z</time></trkpt><trkpt lat="44.1875211" lon="8.1338937"><ele>707.0</ele><time>2026-04-18T12:15:58.241Z</time></trkpt><trkpt lat="44.1875179" lon="8.1337077"><ele>707.0</ele><time>2026-04-18T12:15:59.241Z</time></trkpt><trkpt lat="44.1875142" lon="8.1335099"><ele>707.0</ele><time>2026-04-18T12:16:00.241Z</time></trkpt><trkpt lat="44.1875305" lon="8.1333151"><ele>706.5</ele><time>2026-04-18T12:16:01.241Z</time></trkpt><trkpt lat="44.1875711" lon="8.1331202"><ele>706.0</ele><time>2026-04-18T12:16:02.24Z</time></trkpt><trkpt lat="44.1876466" lon="8.1329382"><ele>705.5</ele><time>2026-04-18T12:16:03.24Z</time></trkpt><trkpt lat="44.1877414" lon="8.1327934"><ele>705.0</ele><time>2026-04-18T12:16:04.241Z</time></trkpt><trkpt lat="44.1878705" lon="8.1326679"><ele>705.0</ele><time>2026-04-18T12:16:05.241Z</time></trkpt><trkpt lat="44.1880137" lon="8.1325478"><ele>705.0</ele><time>2026-04-18T12:16:06.24Z</time></trkpt><trkpt lat="44.1881506" lon="8.1324124"><ele>705.0</ele><time>2026-04-18T12:16:07.241Z</time></trkpt><trkpt lat="44.188285" lon="8.1322768"><ele>705.25</ele><time>2026-04-18T12:16:08.241Z</time></trkpt><trkpt lat="44.1884069" lon="8.132145"><ele>705.5</ele><time>2026-04-18T12:16:09.241Z</time></trkpt><trkpt lat="44.1885139" lon="8.1320251"><ele>705.75</ele><time>2026-04-18T12:16:10.241Z</time></trkpt><trkpt lat="44.1886093" lon="8.1319148"><ele>706.0</ele><time>2026-04-18T12:16:11.24Z</time></trkpt><trkpt lat="44.1886876" lon="8.1318129"><ele>706.0</ele><time>2026-04-18T12:16:12.241Z</time></trkpt><trkpt lat="44.1887598" lon="8.1317244"><ele>706.0</ele><time>2026-04-18T12:16:13.241Z</time></trkpt><trkpt lat="44.188807" lon="8.1316455"><ele>706.0</ele><time>2026-04-18T12:16:14.24Z</time></trkpt><trkpt lat="44.1888597" lon="8.1315083"><ele>706.0</ele><time>2026-04-18T12:16:16.241Z</time></trkpt><trkpt lat="44.1888383" lon="8.1313823"><ele>706.0</ele><time>2026-04-18T12:16:17.241Z</time></trkpt><trkpt lat="44.1887983" lon="8.1312403"><ele>705.75</ele><time>2026-04-18T12:16:18.241Z</time></trkpt><trkpt lat="44.1887316" lon="8.1310928"><ele>705.5</ele><time>2026-04-18T12:16:19.24Z</time></trkpt><trkpt lat="44.1886577" lon="8.1309257"><ele>705.25</ele><time>2026-04-18T12:16:20.241Z</time></trkpt><trkpt lat="44.1885759" lon="8.1307369"><ele>705.0</ele><time>2026-04-18T12:16:21.241Z</time></trkpt><trkpt lat="44.1884903" lon="8.1305512"><ele>704.75</ele><time>2026-04-18T12:16:22.241Z</time></trkpt><trkpt lat="44.1884105" lon="8.13037"><ele>704.5</ele><time>2026-04-18T12:16:23.241Z</time></trkpt><trkpt lat="44.1883322" lon="8.1301875"><ele>704.25</ele><time>2026-04-18T12:16:24.241Z</time></trkpt><trkpt lat="44.1882678" lon="8.1300078"><ele>704.0</ele><time>2026-04-18T12:16:25.241Z</time></trkpt><trkpt lat="44.1882236" lon="8.1298363"><ele>704.0</ele><time>2026-04-18T12:16:26.241Z</time></trkpt><trkpt lat="44.1882023" lon="8.1296716"><ele>704.0</ele><time>2026-04-18T12:16:27.241Z</time></trkpt><trkpt lat="44.18821" lon="8.1295224"><ele>704.0</ele><time>2026-04-18T12:16:28.241Z</time></trkpt><trkpt lat="44.1882392" lon="8.1293875"><ele>704.0</ele><time>2026-04-18T12:16:29.241Z</time></trkpt><trkpt lat="44.1883088" lon="8.1292636"><ele>704.0</ele><time>2026-04-18T12:16:30.24Z</time></trkpt><trkpt lat="44.1884097" lon="8.129168"><ele>704.0</ele><time>2026-04-18T12:16:31.241Z</time></trkpt><trkpt lat="44.1885384" lon="8.1290807"><ele>704.0</ele><time>2026-04-18T12:16:32.241Z</time></trkpt><trkpt lat="44.1886766" lon="8.1290179"><ele>704.0</ele><time>2026-04-18T12:16:33.241Z</time></trkpt><trkpt lat="44.1888338" lon="8.1289805"><ele>704.0</ele><time>2026-04-18T12:16:34.241Z</time></trkpt><trkpt lat="44.1889993" lon="8.1289513"><ele>703.0</ele><time>2026-04-18T12:16:35.241Z</time></trkpt><trkpt lat="44.1891678" lon="8.1289053"><ele>702.0</ele><time>2026-04-18T12:16:36.241Z</time></trkpt><trkpt lat="44.1893467" lon="8.1288616"><ele>701.0</ele><time>2026-04-18T12:16:37.24Z</time></trkpt><trkpt lat="44.1895249" lon="8.1288138"><ele>701.0</ele><time>2026-04-18T12:16:38.24Z</time></trkpt><trkpt lat="44.1897059" lon="8.1287648"><ele>701.0</ele><time>2026-04-18T12:16:39.24Z</time></trkpt><trkpt lat="44.1898906" lon="8.1287145"><ele>701.0</ele><time>2026-04-18T12:16:40.24Z</time></trkpt><trkpt lat="44.1900779" lon="8.1286623"><ele>701.3333333333333</ele><time>2026-04-18T12:16:41.241Z</time></trkpt><trkpt lat="44.1902658" lon="8.1286204"><ele>701.6666666666666</ele><time>2026-04-18T12:16:42.241Z</time></trkpt><trkpt lat="44.1904493" lon="8.1285772"><ele>702.0</ele><time>2026-04-18T12:16:43.24Z</time></trkpt><trkpt lat="44.1906284" lon="8.1285172"><ele>702.3333333333334</ele><time>2026-04-18T12:16:44.24Z</time></trkpt><trkpt lat="44.1908097" lon="8.1284273"><ele>702.6666666666667</ele><time>2026-04-18T12:16:45.24Z</time></trkpt><trkpt lat="44.1909873" lon="8.1283011"><ele>703.0</ele><time>2026-04-18T12:16:46.241Z</time></trkpt><trkpt lat="44.1911629" lon="8.128154"><ele>703.0</ele><time>2026-04-18T12:16:47.241Z</time></trkpt><trkpt lat="44.1913448" lon="8.1279992"><ele>703.0</ele><time>2026-04-18T12:16:48.241Z</time></trkpt><trkpt lat="44.191533" lon="8.1278499"><ele>703.0</ele><time>2026-04-18T12:16:49.24Z</time></trkpt><trkpt lat="44.1917194" lon="8.1276982"><ele>703.0</ele><time>2026-04-18T12:16:50.241Z</time></trkpt><trkpt lat="44.1918964" lon="8.1275373"><ele>703.0</ele><time>2026-04-18T12:16:51.24Z</time></trkpt><trkpt lat="44.1920561" lon="8.1273683"><ele>703.0</ele><time>2026-04-18T12:16:52.241Z</time></trkpt><trkpt lat="44.1922132" lon="8.1272079"><ele>702.6666666666667</ele><time>2026-04-18T12:16:53.241Z</time></trkpt><trkpt lat="44.1923706" lon="8.1270637"><ele>702.3333333333334</ele><time>2026-04-18T12:16:54.241Z</time></trkpt><trkpt lat="44.192541" lon="8.126959"><ele>702.0</ele><time>2026-04-18T12:16:55.241Z</time></trkpt><trkpt lat="44.192718" lon="8.1268626"><ele>702.0</ele><time>2026-04-18T12:16:56.24Z</time></trkpt><trkpt lat="44.1928883" lon="8.126767"><ele>702.0</ele><time>2026-04-18T12:16:57.241Z</time></trkpt><trkpt lat="44.1930402" lon="8.12666"><ele>702.0</ele><time>2026-04-18T12:16:58.241Z</time></trkpt><trkpt lat="44.1931773" lon="8.1265655"><ele>703.0</ele><time>2026-04-18T12:16:59.241Z</time></trkpt><trkpt lat="44.1933149" lon="8.1265145"><ele>704.0</ele><time>2026-04-18T12:17:00.24Z</time></trkpt><trkpt lat="44.1934555" lon="8.1265325"><ele>705.0</ele><time>2026-04-18T12:17:01.24Z</time></trkpt><trkpt lat="44.1936062" lon="8.126616"><ele>706.0</ele><time>2026-04-18T12:17:02.241Z</time></trkpt><trkpt lat="44.1937671" lon="8.1267104"><ele>706.0</ele><time>2026-04-18T12:17:03.241Z</time></trkpt><trkpt lat="44.1939378" lon="8.1268196"><ele>706.0</ele><time>2026-04-18T12:17:04.241Z</time></trkpt><trkpt lat="44.1941339" lon="8.1269262"><ele>706.0</ele><time>2026-04-18T12:17:05.241Z</time></trkpt><trkpt lat="44.1943285" lon="8.1270222"><ele>705.3333333333334</ele><time>2026-04-18T12:17:06.241Z</time></trkpt><trkpt lat="44.1945313" lon="8.1270797"><ele>704.6666666666666</ele><time>2026-04-18T12:17:07.241Z</time></trkpt><trkpt lat="44.1947222" lon="8.12711"><ele>704.0</ele><time>2026-04-18T12:17:08.241Z</time></trkpt><trkpt lat="44.1949006" lon="8.1271112"><ele>702.0</ele><time>2026-04-18T12:17:09.241Z</time></trkpt><trkpt lat="44.1950777" lon="8.1270558"><ele>700.0</ele><time>2026-04-18T12:17:10.241Z</time></trkpt><trkpt lat="44.1952425" lon="8.1269465"><ele>698.0</ele><time>2026-04-18T12:17:11.241Z</time></trkpt><trkpt lat="44.1954117" lon="8.1267844"><ele>698.0</ele><time>2026-04-18T12:17:12.24Z</time></trkpt><trkpt lat="44.1955727" lon="8.1266279"><ele>698.0</ele><time>2026-04-18T12:17:13.241Z</time></trkpt><trkpt lat="44.1957408" lon="8.1264923"><ele>698.0</ele><time>2026-04-18T12:17:14.241Z</time></trkpt><trkpt lat="44.1959233" lon="8.1263748"><ele>695.5</ele><time>2026-04-18T12:17:15.241Z</time></trkpt><trkpt lat="44.1961307" lon="8.1262821"><ele>693.0</ele><time>2026-04-18T12:17:16.24Z</time></trkpt><trkpt lat="44.1963683" lon="8.1262075"><ele>692.0</ele><time>2026-04-18T12:17:17.241Z</time></trkpt><trkpt lat="44.1966186" lon="8.1261307"><ele>691.0</ele><time>2026-04-18T12:17:18.241Z</time></trkpt><trkpt lat="44.1968759" lon="8.1260435"><ele>691.0</ele><time>2026-04-18T12:17:19.241Z</time></trkpt><trkpt lat="44.1971333" lon="8.1259602"><ele>691.0</ele><time>2026-04-18T12:17:20.241Z</time></trkpt><trkpt lat="44.1973847" lon="8.1258717"><ele>690.5</ele><time>2026-04-18T12:17:21.241Z</time></trkpt><trkpt lat="44.1976368" lon="8.1257545"><ele>690.0</ele><time>2026-04-18T12:17:22.241Z</time></trkpt><trkpt lat="44.1978854" lon="8.1256093"><ele>690.0</ele><time>2026-04-18T12:17:23.24Z</time></trkpt><trkpt lat="44.1981369" lon="8.1254474"><ele>690.0</ele><time>2026-04-18T12:17:24.24Z</time></trkpt><trkpt lat="44.198386" lon="8.125293"><ele>691.0</ele><time>2026-04-18T12:17:25.241Z</time></trkpt><trkpt lat="44.1986368" lon="8.1251386"><ele>692.0</ele><time>2026-04-18T12:17:26.241Z</time></trkpt><trkpt lat="44.1988876" lon="8.1249878"><ele>689.5</ele><time>2026-04-18T12:17:27.242Z</time></trkpt><trkpt lat="44.1991393" lon="8.1248296"><ele>687.0</ele><time>2026-04-18T12:17:28.242Z</time></trkpt><trkpt lat="44.1993871" lon="8.1246551"><ele>687.0</ele><time>2026-04-18T12:17:29.242Z</time></trkpt><trkpt lat="44.1996315" lon="8.1244692"><ele>687.0</ele><time>2026-04-18T12:17:30.242Z</time></trkpt><trkpt lat="44.1998706" lon="8.1242722"><ele>686.5</ele><time>2026-04-18T12:17:31.241Z</time></trkpt><trkpt lat="44.2001067" lon="8.124071"><ele>686.0</ele><time>2026-04-18T12:17:32.242Z</time></trkpt><trkpt lat="44.2003444" lon="8.123869"><ele>686.0</ele><time>2026-04-18T12:17:33.242Z</time></trkpt><trkpt lat="44.2005813" lon="8.12368"><ele>686.0</ele><time>2026-04-18T12:17:34.242Z</time></trkpt><trkpt lat="44.2008188" lon="8.1234956"><ele>685.5</ele><time>2026-04-18T12:17:35.242Z</time></trkpt><trkpt lat="44.2010552" lon="8.1233119"><ele>685.0</ele><time>2026-04-18T12:17:36.242Z</time></trkpt><trkpt lat="44.2012841" lon="8.1231204"><ele>687.0</ele><time>2026-04-18T12:17:37.241Z</time></trkpt><trkpt lat="44.2015106" lon="8.1229304"><ele>689.0</ele><time>2026-04-18T12:17:38.242Z</time></trkpt><trkpt lat="44.2017224" lon="8.1227171"><ele>689.0</ele><time>2026-04-18T12:17:39.241Z</time></trkpt><trkpt lat="44.2019106" lon="8.1224968"><ele>689.0</ele><time>2026-04-18T12:17:40.242Z</time></trkpt><trkpt lat="44.2020694" lon="8.1222395"><ele>687.0</ele><time>2026-04-18T12:17:41.242Z</time></trkpt><trkpt lat="44.2022028" lon="8.1219535"><ele>685.0</ele><time>2026-04-18T12:17:42.242Z</time></trkpt><trkpt lat="44.2022926" lon="8.1216446"><ele>691.0</ele><time>2026-04-18T12:17:43.242Z</time></trkpt><trkpt lat="44.2023505" lon="8.1213296"><ele>697.0</ele><time>2026-04-18T12:17:44.241Z</time></trkpt><trkpt lat="44.2023935" lon="8.1210124"><ele>694.3333333333334</ele><time>2026-04-18T12:17:45.241Z</time></trkpt><trkpt lat="44.20245" lon="8.1206971"><ele>691.6666666666666</ele><time>2026-04-18T12:17:46.242Z</time></trkpt><trkpt lat="44.2025348" lon="8.1204236"><ele>689.0</ele><time>2026-04-18T12:17:47.242Z</time></trkpt><trkpt lat="44.202664" lon="8.1201913"><ele>689.0</ele><time>2026-04-18T12:17:48.241Z</time></trkpt><trkpt lat="44.2028003" lon="8.1199843"><ele>689.0</ele><time>2026-04-18T12:17:49.242Z</time></trkpt><trkpt lat="44.2029267" lon="8.1197793"><ele>689.0</ele><time>2026-04-18T12:17:50.242Z</time></trkpt><trkpt lat="44.203024" lon="8.1195176"><ele>687.3333333333333</ele><time>2026-04-18T12:17:51.242Z</time></trkpt><trkpt lat="44.2030699" lon="8.1192261"><ele>685.6666666666666</ele><time>2026-04-18T12:17:52.242Z</time></trkpt><trkpt lat="44.2031082" lon="8.1189425"><ele>684.0</ele><time>2026-04-18T12:17:53.241Z</time></trkpt><trkpt lat="44.2031777" lon="8.1186589"><ele>686.3333333333334</ele><time>2026-04-18T12:17:54.242Z</time></trkpt><trkpt lat="44.203265" lon="8.1183709"><ele>688.6666666666667</ele><time>2026-04-18T12:17:55.241Z</time></trkpt><trkpt lat="44.2033324" lon="8.118086"><ele>691.0</ele><time>2026-04-18T12:17:56.242Z</time></trkpt><trkpt lat="44.2033741" lon="8.1177772"><ele>691.0</ele><time>2026-04-18T12:17:57.242Z</time></trkpt><trkpt lat="44.203377" lon="8.1174644"><ele>691.0</ele><time>2026-04-18T12:17:58.242Z</time></trkpt><trkpt lat="44.2033524" lon="8.1171737"><ele>691.0</ele><time>2026-04-18T12:17:59.241Z</time></trkpt><trkpt lat="44.2033366" lon="8.116897"><ele>689.3333333333334</ele><time>2026-04-18T12:18:00.241Z</time></trkpt><trkpt lat="44.2033652" lon="8.116635"><ele>687.6666666666666</ele><time>2026-04-18T12:18:01.242Z</time></trkpt><trkpt lat="44.2034174" lon="8.1163664"><ele>686.0</ele><time>2026-04-18T12:18:02.242Z</time></trkpt><trkpt lat="44.2034646" lon="8.1161172"><ele>685.6666666666666</ele><time>2026-04-18T12:18:03.242Z</time></trkpt><trkpt lat="44.2035115" lon="8.1158744"><ele>685.3333333333334</ele><time>2026-04-18T12:18:04.242Z</time></trkpt><trkpt lat="44.2035696" lon="8.1156722"><ele>685.0</ele><time>2026-04-18T12:18:05.242Z</time></trkpt><trkpt lat="44.2036628" lon="8.1155069"><ele>684.3333333333334</ele><time>2026-04-18T12:18:06.242Z</time></trkpt><trkpt lat="44.2038007" lon="8.1153821"><ele>683.6666666666666</ele><time>2026-04-18T12:18:07.242Z</time></trkpt><trkpt lat="44.2039767" lon="8.1152772"><ele>683.0</ele><time>2026-04-18T12:18:08.242Z</time></trkpt><trkpt lat="44.2041651" lon="8.1151967"><ele>683.0</ele><time>2026-04-18T12:18:09.242Z</time></trkpt><trkpt lat="44.204363" lon="8.1150946"><ele>683.0</ele><time>2026-04-18T12:18:10.242Z</time></trkpt><trkpt lat="44.2045709" lon="8.1149952"><ele>683.0</ele><time>2026-04-18T12:18:11.242Z</time></trkpt><trkpt lat="44.2047842" lon="8.1148879"><ele>680.0</ele><time>2026-04-18T12:18:12.242Z</time></trkpt><trkpt lat="44.205001" lon="8.1147837"><ele>677.0</ele><time>2026-04-18T12:18:13.242Z</time></trkpt><trkpt lat="44.2052168" lon="8.1146933"><ele>677.0</ele><time>2026-04-18T12:18:14.242Z</time></trkpt><trkpt lat="44.2054371" lon="8.114627"><ele>677.0</ele><time>2026-04-18T12:18:15.241Z</time></trkpt><trkpt lat="44.2056533" lon="8.1145671"><ele>677.0</ele><time>2026-04-18T12:18:16.242Z</time></trkpt><trkpt lat="44.2058682" lon="8.1145077"><ele>677.0</ele><time>2026-04-18T12:18:17.242Z</time></trkpt><trkpt lat="44.2060801" lon="8.1144448"><ele>677.0</ele><time>2026-04-18T12:18:18.241Z</time></trkpt><trkpt lat="44.2062789" lon="8.1143874"><ele>677.0</ele><time>2026-04-18T12:18:19.242Z</time></trkpt><trkpt lat="44.2064636" lon="8.1143222"><ele>678.6666666666666</ele><time>2026-04-18T12:18:20.242Z</time></trkpt><trkpt lat="44.2066377" lon="8.1142703"><ele>680.3333333333334</ele><time>2026-04-18T12:18:21.242Z</time></trkpt><trkpt lat="44.2068137" lon="8.1142414"><ele>682.0</ele><time>2026-04-18T12:18:22.242Z</time></trkpt><trkpt lat="44.2069999" lon="8.1142313"><ele>682.0</ele><time>2026-04-18T12:18:23.241Z</time></trkpt><trkpt lat="44.2071868" lon="8.1142353"><ele>682.0</ele><time>2026-04-18T12:18:24.242Z</time></trkpt><trkpt lat="44.2073766" lon="8.1142074"><ele>682.0</ele><time>2026-04-18T12:18:25.242Z</time></trkpt><trkpt lat="44.2075566" lon="8.1141079"><ele>679.6666666666667</ele><time>2026-04-18T12:18:26.242Z</time></trkpt><trkpt lat="44.2077408" lon="8.1139678"><ele>677.3333333333334</ele><time>2026-04-18T12:18:27.242Z</time></trkpt><trkpt lat="44.207927" lon="8.1138156"><ele>675.0</ele><time>2026-04-18T12:18:28.242Z</time></trkpt><trkpt lat="44.2081186" lon="8.1136729"><ele>675.6666666666666</ele><time>2026-04-18T12:18:29.242Z</time></trkpt><trkpt lat="44.2083043" lon="8.1135313"><ele>676.3333333333333</ele><time>2026-04-18T12:18:30.242Z</time></trkpt><trkpt lat="44.2084753" lon="8.1133992"><ele>677.0</ele><time>2026-04-18T12:18:31.242Z</time></trkpt><trkpt lat="44.2086452" lon="8.1133013"><ele>677.0</ele><time>2026-04-18T12:18:32.242Z</time></trkpt><trkpt lat="44.2088373" lon="8.1132597"><ele>677.0</ele><time>2026-04-18T12:18:33.242Z</time></trkpt><trkpt lat="44.209049" lon="8.1132719"><ele>677.0</ele><time>2026-04-18T12:18:34.242Z</time></trkpt><trkpt lat="44.2092819" lon="8.1133073"><ele>678.0</ele><time>2026-04-18T12:18:35.242Z</time></trkpt><trkpt lat="44.2095132" lon="8.1133396"><ele>679.0</ele><time>2026-04-18T12:18:36.242Z</time></trkpt><trkpt lat="44.2097473" lon="8.1133688"><ele>680.0</ele><time>2026-04-18T12:18:37.242Z</time></trkpt><trkpt lat="44.2099788" lon="8.1133967"><ele>681.0</ele><time>2026-04-18T12:18:38.242Z</time></trkpt><trkpt lat="44.2102163" lon="8.1134267"><ele>681.0</ele><time>2026-04-18T12:18:39.242Z</time></trkpt><trkpt lat="44.2104548" lon="8.1134641"><ele>681.0</ele><time>2026-04-18T12:18:40.242Z</time></trkpt><trkpt lat="44.2106933" lon="8.1135128"><ele>678.5</ele><time>2026-04-18T12:18:41.242Z</time></trkpt><trkpt lat="44.2109313" lon="8.1135682"><ele>676.0</ele><time>2026-04-18T12:18:42.242Z</time></trkpt><trkpt lat="44.2111681" lon="8.1136365"><ele>676.0</ele><time>2026-04-18T12:18:43.242Z</time></trkpt><trkpt lat="44.2114075" lon="8.1137147"><ele>676.0</ele><time>2026-04-18T12:18:44.242Z</time></trkpt><trkpt lat="44.2116482" lon="8.1137971"><ele>674.5</ele><time>2026-04-18T12:18:45.242Z</time></trkpt><trkpt lat="44.2118873" lon="8.1138958"><ele>673.0</ele><time>2026-04-18T12:18:46.242Z</time></trkpt><trkpt lat="44.2121199" lon="8.1140085"><ele>673.0</ele><time>2026-04-18T12:18:47.242Z</time></trkpt><trkpt lat="44.2123431" lon="8.1141307"><ele>673.0</ele><time>2026-04-18T12:18:48.242Z</time></trkpt><trkpt lat="44.2125617" lon="8.1142537"><ele>673.0</ele><time>2026-04-18T12:18:49.242Z</time></trkpt><trkpt lat="44.2127704" lon="8.1143909"><ele>673.0</ele><time>2026-04-18T12:18:50.242Z</time></trkpt><trkpt lat="44.2129692" lon="8.1145444"><ele>674.5</ele><time>2026-04-18T12:18:51.242Z</time></trkpt><trkpt lat="44.2131683" lon="8.1147334"><ele>676.0</ele><time>2026-04-18T12:18:52.242Z</time></trkpt><trkpt lat="44.2133606" lon="8.1149429"><ele>676.0</ele><time>2026-04-18T12:18:53.242Z</time></trkpt><trkpt lat="44.213551" lon="8.1151503"><ele>676.0</ele><time>2026-04-18T12:18:54.242Z</time></trkpt><trkpt lat="44.2137369" lon="8.1153608"><ele>676.0</ele><time>2026-04-18T12:18:55.241Z</time></trkpt><trkpt lat="44.2139134" lon="8.1155524"><ele>676.0</ele><time>2026-04-18T12:18:56.242Z</time></trkpt><trkpt lat="44.2140766" lon="8.1157356"><ele>676.0</ele><time>2026-04-18T12:18:57.241Z</time></trkpt><trkpt lat="44.214245" lon="8.1158995"><ele>677.3333333333334</ele><time>2026-04-18T12:18:58.242Z</time></trkpt><trkpt lat="44.2144133" lon="8.1160118"><ele>678.6666666666666</ele><time>2026-04-18T12:18:59.242Z</time></trkpt><trkpt lat="44.2145883" lon="8.116071"><ele>680.0</ele><time>2026-04-18T12:19:00.241Z</time></trkpt><trkpt lat="44.2147682" lon="8.116097"><ele>677.0</ele><time>2026-04-18T12:19:01.242Z</time></trkpt><trkpt lat="44.214942" lon="8.1160792"><ele>674.0</ele><time>2026-04-18T12:19:02.242Z</time></trkpt><trkpt lat="44.2151058" lon="8.11606"><ele>671.0</ele><time>2026-04-18T12:19:03.242Z</time></trkpt><trkpt lat="44.2152643" lon="8.116048"><ele>671.0</ele><time>2026-04-18T12:19:04.241Z</time></trkpt><trkpt lat="44.2154244" lon="8.1160385"><ele>671.0</ele><time>2026-04-18T12:19:05.241Z</time></trkpt><trkpt lat="44.2155941" lon="8.1160494"><ele>671.0</ele><time>2026-04-18T12:19:06.241Z</time></trkpt><trkpt lat="44.215761" lon="8.1160735"><ele>671.0</ele><time>2026-04-18T12:19:07.241Z</time></trkpt><trkpt lat="44.2159063" lon="8.1161177"><ele>671.0</ele><time>2026-04-18T12:19:08.242Z</time></trkpt><trkpt lat="44.2160522" lon="8.1161686"><ele>671.0</ele><time>2026-04-18T12:19:09.242Z</time></trkpt><trkpt lat="44.2162088" lon="8.1162157"><ele>671.0</ele><time>2026-04-18T12:19:10.242Z</time></trkpt><trkpt lat="44.216368" lon="8.1162523"><ele>671.0</ele><time>2026-04-18T12:19:11.242Z</time></trkpt><trkpt lat="44.2165275" lon="8.1162786"><ele>671.0</ele><time>2026-04-18T12:19:12.242Z</time></trkpt><trkpt lat="44.2166803" lon="8.1162984"><ele>669.6666666666666</ele><time>2026-04-18T12:19:13.242Z</time></trkpt><trkpt lat="44.2168337" lon="8.1163055"><ele>668.3333333333334</ele><time>2026-04-18T12:19:14.241Z</time></trkpt><trkpt lat="44.2169856" lon="8.1163027"><ele>667.0</ele><time>2026-04-18T12:19:15.241Z</time></trkpt><trkpt lat="44.217138" lon="8.1162765"><ele>667.0</ele><time>2026-04-18T12:19:16.242Z</time></trkpt><trkpt lat="44.2172877" lon="8.1162175"><ele>667.0</ele><time>2026-04-18T12:19:17.242Z</time></trkpt><trkpt lat="44.2174433" lon="8.1161182"><ele>667.0</ele><time>2026-04-18T12:19:18.241Z</time></trkpt><trkpt lat="44.217615" lon="8.115995"><ele>666.6666666666667</ele><time>2026-04-18T12:19:19.242Z</time></trkpt><trkpt lat="44.2178034" lon="8.1158707"><ele>666.3333333333334</ele><time>2026-04-18T12:19:20.242Z</time></trkpt><trkpt lat="44.2180064" lon="8.1157447"><ele>666.0</ele><time>2026-04-18T12:19:21.242Z</time></trkpt><trkpt lat="44.2182142" lon="8.1156187"><ele>666.0</ele><time>2026-04-18T12:19:22.242Z</time></trkpt><trkpt lat="44.2184223" lon="8.1154803"><ele>666.0</ele><time>2026-04-18T12:19:23.242Z</time></trkpt><trkpt lat="44.2186329" lon="8.1153369"><ele>666.0</ele><time>2026-04-18T12:19:24.242Z</time></trkpt><trkpt lat="44.2188352" lon="8.1152053"><ele>666.0</ele><time>2026-04-18T12:19:25.242Z</time></trkpt><trkpt lat="44.21902" lon="8.115072"><ele>666.0</ele><time>2026-04-18T12:19:26.242Z</time></trkpt><trkpt lat="44.2191877" lon="8.1149546"><ele>664.6666666666666</ele><time>2026-04-18T12:19:27.241Z</time></trkpt><trkpt lat="44.2193474" lon="8.1148526"><ele>663.3333333333333</ele><time>2026-04-18T12:19:28.242Z</time></trkpt><trkpt lat="44.219507" lon="8.1148016"><ele>662.0</ele><time>2026-04-18T12:19:29.241Z</time></trkpt><trkpt lat="44.2196836" lon="8.1148349"><ele>663.0</ele><time>2026-04-18T12:19:30.242Z</time></trkpt><trkpt lat="44.2198441" lon="8.1149369"><ele>664.0</ele><time>2026-04-18T12:19:31.242Z</time></trkpt><trkpt lat="44.2199893" lon="8.1150955"><ele>665.0</ele><time>2026-04-18T12:19:32.241Z</time></trkpt><trkpt lat="44.2201375" lon="8.1152925"><ele>665.0</ele><time>2026-04-18T12:19:33.242Z</time></trkpt><trkpt lat="44.2202935" lon="8.1155163"><ele>665.0</ele><time>2026-04-18T12:19:34.241Z</time></trkpt><trkpt lat="44.2204543" lon="8.1157355"><ele>665.0</ele><time>2026-04-18T12:19:35.242Z</time></trkpt><trkpt lat="44.2206037" lon="8.1159733"><ele>665.0</ele><time>2026-04-18T12:19:36.242Z</time></trkpt><trkpt lat="44.220743" lon="8.1162354"><ele>665.0</ele><time>2026-04-18T12:19:37.242Z</time></trkpt><trkpt lat="44.2208566" lon="8.1165256"><ele>668.5</ele><time>2026-04-18T12:19:38.243Z</time></trkpt><trkpt lat="44.2209675" lon="8.11681"><ele>672.0</ele><time>2026-04-18T12:19:39.243Z</time></trkpt><trkpt lat="44.2210798" lon="8.1170913"><ele>672.0</ele><time>2026-04-18T12:19:40.243Z</time></trkpt><trkpt lat="44.2212025" lon="8.1173654"><ele>672.0</ele><time>2026-04-18T12:19:41.243Z</time></trkpt><trkpt lat="44.2213469" lon="8.1176292"><ele>667.5</ele><time>2026-04-18T12:19:42.243Z</time></trkpt><trkpt lat="44.2215161" lon="8.1178715"><ele>663.0</ele><time>2026-04-18T12:19:43.242Z</time></trkpt><trkpt lat="44.2216919" lon="8.1180929"><ele>666.0</ele><time>2026-04-18T12:19:44.243Z</time></trkpt><trkpt lat="44.2218949" lon="8.1182882"><ele>669.0</ele><time>2026-04-18T12:19:45.242Z</time></trkpt><trkpt lat="44.2221156" lon="8.118429"><ele>664.5</ele><time>2026-04-18T12:19:46.243Z</time></trkpt><trkpt lat="44.2223335" lon="8.1185724"><ele>660.0</ele><time>2026-04-18T12:19:47.242Z</time></trkpt><trkpt lat="44.2225455" lon="8.1187244"><ele>660.0</ele><time>2026-04-18T12:19:48.243Z</time></trkpt><trkpt lat="44.2227715" lon="8.1188714"><ele>660.0</ele><time>2026-04-18T12:19:49.243Z</time></trkpt><trkpt lat="44.2229997" lon="8.1190153"><ele>660.0</ele><time>2026-04-18T12:19:50.243Z</time></trkpt><trkpt lat="44.2232222" lon="8.1191608"><ele>660.0</ele><time>2026-04-18T12:19:51.243Z</time></trkpt><trkpt lat="44.2234405" lon="8.1193057"><ele>660.0</ele><time>2026-04-18T12:19:52.242Z</time></trkpt><trkpt lat="44.2236536" lon="8.1194529"><ele>660.0</ele><time>2026-04-18T12:19:53.242Z</time></trkpt><trkpt lat="44.2238675" lon="8.1195907"><ele>659.0</ele><time>2026-04-18T12:19:54.242Z</time></trkpt><trkpt lat="44.224085" lon="8.1197456"><ele>658.0</ele><time>2026-04-18T12:19:55.243Z</time></trkpt><trkpt lat="44.2242984" lon="8.119891"><ele>658.5</ele><time>2026-04-18T12:19:56.243Z</time></trkpt><trkpt lat="44.2245114" lon="8.120033"><ele>659.0</ele><time>2026-04-18T12:19:57.243Z</time></trkpt><trkpt lat="44.2247065" lon="8.1201687"><ele>658.0</ele><time>2026-04-18T12:19:58.242Z</time></trkpt><trkpt lat="44.2248968" lon="8.1202938"><ele>657.0</ele><time>2026-04-18T12:19:59.243Z</time></trkpt><trkpt lat="44.2250826" lon="8.1203815"><ele>656.0</ele><time>2026-04-18T12:20:00.242Z</time></trkpt><trkpt lat="44.2252729" lon="8.1204227"><ele>656.0</ele><time>2026-04-18T12:20:01.243Z</time></trkpt><trkpt lat="44.2254487" lon="8.1204046"><ele>656.0</ele><time>2026-04-18T12:20:02.243Z</time></trkpt><trkpt lat="44.2256105" lon="8.1203269"><ele>656.0</ele><time>2026-04-18T12:20:03.243Z</time></trkpt><trkpt lat="44.2257728" lon="8.1201859"><ele>656.0</ele><time>2026-04-18T12:20:04.243Z</time></trkpt><trkpt lat="44.2259105" lon="8.1199912"><ele>656.0</ele><time>2026-04-18T12:20:05.243Z</time></trkpt><trkpt lat="44.2260473" lon="8.1197722"><ele>656.0</ele><time>2026-04-18T12:20:06.243Z</time></trkpt><trkpt lat="44.2261994" lon="8.1195746"><ele>656.3333333333333</ele><time>2026-04-18T12:20:07.243Z</time></trkpt><trkpt lat="44.2263633" lon="8.1193916"><ele>656.6666666666666</ele><time>2026-04-18T12:20:08.242Z</time></trkpt><trkpt lat="44.2265564" lon="8.1192072"><ele>657.0</ele><time>2026-04-18T12:20:09.243Z</time></trkpt><trkpt lat="44.22675" lon="8.1190281"><ele>656.0</ele><time>2026-04-18T12:20:10.243Z</time></trkpt><trkpt lat="44.2269384" lon="8.1188443"><ele>655.0</ele><time>2026-04-18T12:20:11.242Z</time></trkpt><trkpt lat="44.2271143" lon="8.118661"><ele>654.0</ele><time>2026-04-18T12:20:12.243Z</time></trkpt><trkpt lat="44.2272914" lon="8.1184841"><ele>654.0</ele><time>2026-04-18T12:20:13.242Z</time></trkpt><trkpt lat="44.2274711" lon="8.1183415"><ele>654.0</ele><time>2026-04-18T12:20:14.242Z</time></trkpt><trkpt lat="44.2276546" lon="8.1182416"><ele>654.0</ele><time>2026-04-18T12:20:15.243Z</time></trkpt><trkpt lat="44.2278439" lon="8.1182018"><ele>654.3333333333334</ele><time>2026-04-18T12:20:16.243Z</time></trkpt><trkpt lat="44.2280489" lon="8.1181846"><ele>654.6666666666667</ele><time>2026-04-18T12:20:17.243Z</time></trkpt><trkpt lat="44.2282669" lon="8.1182062"><ele>655.0</ele><time>2026-04-18T12:20:18.242Z</time></trkpt><trkpt lat="44.228501" lon="8.1182077"><ele>655.0</ele><time>2026-04-18T12:20:19.243Z</time></trkpt><trkpt lat="44.2287362" lon="8.1182134"><ele>655.0</ele><time>2026-04-18T12:20:20.243Z</time></trkpt><trkpt lat="44.2289696" lon="8.1182207"><ele>654.0</ele><time>2026-04-18T12:20:21.243Z</time></trkpt><trkpt lat="44.2292066" lon="8.1182416"><ele>653.0</ele><time>2026-04-18T12:20:22.243Z</time></trkpt><trkpt lat="44.2294395" lon="8.1182807"><ele>653.0</ele><time>2026-04-18T12:20:23.243Z</time></trkpt><trkpt lat="44.2296594" lon="8.1183238"><ele>653.0</ele><time>2026-04-18T12:20:24.243Z</time></trkpt><trkpt lat="44.2298705" lon="8.118366"><ele>653.0</ele><time>2026-04-18T12:20:25.243Z</time></trkpt><trkpt lat="44.2300762" lon="8.1183605"><ele>652.3333333333333</ele><time>2026-04-18T12:20:26.243Z</time></trkpt><trkpt lat="44.2302845" lon="8.1183076"><ele>651.6666666666666</ele><time>2026-04-18T12:20:27.243Z</time></trkpt><trkpt lat="44.2304988" lon="8.1182577"><ele>651.0</ele><time>2026-04-18T12:20:28.243Z</time></trkpt><trkpt lat="44.2307149" lon="8.1182067"><ele>651.0</ele><time>2026-04-18T12:20:29.243Z</time></trkpt><trkpt lat="44.2309421" lon="8.1181624"><ele>651.0</ele><time>2026-04-18T12:20:30.243Z</time></trkpt><trkpt lat="44.2311698" lon="8.118118"><ele>651.0</ele><time>2026-04-18T12:20:31.242Z</time></trkpt><trkpt lat="44.2314" lon="8.118071"><ele>651.0</ele><time>2026-04-18T12:20:32.243Z</time></trkpt><trkpt lat="44.2316304" lon="8.1180275"><ele>650.0</ele><time>2026-04-18T12:20:33.242Z</time></trkpt><trkpt lat="44.2318614" lon="8.1179886"><ele>649.0</ele><time>2026-04-18T12:20:34.243Z</time></trkpt><trkpt lat="44.2320907" lon="8.1179523"><ele>648.5</ele><time>2026-04-18T12:20:35.243Z</time></trkpt><trkpt lat="44.232328" lon="8.1179123"><ele>648.0</ele><time>2026-04-18T12:20:36.243Z</time></trkpt><trkpt lat="44.232563" lon="8.1178619"><ele>648.0</ele><time>2026-04-18T12:20:37.243Z</time></trkpt><trkpt lat="44.2327976" lon="8.1178152"><ele>648.0</ele><time>2026-04-18T12:20:38.243Z</time></trkpt><trkpt lat="44.2330311" lon="8.1177704"><ele>648.5</ele><time>2026-04-18T12:20:39.243Z</time></trkpt><trkpt lat="44.2332585" lon="8.117722"><ele>649.0</ele><time>2026-04-18T12:20:40.243Z</time></trkpt><trkpt lat="44.2334826" lon="8.1176762"><ele>649.0</ele><time>2026-04-18T12:20:41.243Z</time></trkpt><trkpt lat="44.2337025" lon="8.1176312"><ele>649.0</ele><time>2026-04-18T12:20:42.243Z</time></trkpt><trkpt lat="44.2339194" lon="8.1176122"><ele>649.0</ele><time>2026-04-18T12:20:43.243Z</time></trkpt><trkpt lat="44.2341368" lon="8.1175958"><ele>648.6666666666667</ele><time>2026-04-18T12:20:44.243Z</time></trkpt><trkpt lat="44.2343493" lon="8.1176016"><ele>648.3333333333334</ele><time>2026-04-18T12:20:45.242Z</time></trkpt><trkpt lat="44.2345474" lon="8.1176548"><ele>648.0</ele><time>2026-04-18T12:20:46.243Z</time></trkpt><trkpt lat="44.2347353" lon="8.1177125"><ele>647.6666666666666</ele><time>2026-04-18T12:20:47.242Z</time></trkpt><trkpt lat="44.2349121" lon="8.11774"><ele>647.3333333333333</ele><time>2026-04-18T12:20:48.243Z</time></trkpt><trkpt lat="44.2350787" lon="8.1177109"><ele>647.0</ele><time>2026-04-18T12:20:49.243Z</time></trkpt><trkpt lat="44.2352544" lon="8.1176247"><ele>647.0</ele><time>2026-04-18T12:20:50.243Z</time></trkpt><trkpt lat="44.2354293" lon="8.1174877"><ele>647.0</ele><time>2026-04-18T12:20:51.242Z</time></trkpt><trkpt lat="44.2356003" lon="8.1173387"><ele>647.0</ele><time>2026-04-18T12:20:52.243Z</time></trkpt><trkpt lat="44.2357747" lon="8.1172013"><ele>646.3333333333333</ele><time>2026-04-18T12:20:53.242Z</time></trkpt><trkpt lat="44.2359472" lon="8.1170718"><ele>645.6666666666666</ele><time>2026-04-18T12:20:54.242Z</time></trkpt><trkpt lat="44.2361012" lon="8.1169575"><ele>645.0</ele><time>2026-04-18T12:20:55.243Z</time></trkpt><trkpt lat="44.236241" lon="8.1168503"><ele>645.0</ele><time>2026-04-18T12:20:56.242Z</time></trkpt><trkpt lat="44.2363629" lon="8.1167551"><ele>645.0</ele><time>2026-04-18T12:20:57.243Z</time></trkpt><trkpt lat="44.2364616" lon="8.1166782"><ele>645.0</ele><time>2026-04-18T12:20:58.242Z</time></trkpt><trkpt lat="44.2365374" lon="8.1166492"><ele>645.0</ele><time>2026-04-18T12:20:59.243Z</time></trkpt><trkpt lat="44.2366414" lon="8.1167127"><ele>645.0</ele><time>2026-04-18T12:21:01.243Z</time></trkpt><trkpt lat="44.2366746" lon="8.116792"><ele>645.25</ele><time>2026-04-18T12:21:02.243Z</time></trkpt><trkpt lat="44.2366701" lon="8.1169005"><ele>645.5</ele><time>2026-04-18T12:21:03.243Z</time></trkpt><trkpt lat="44.2366169" lon="8.1170478"><ele>645.75</ele><time>2026-04-18T12:21:04.243Z</time></trkpt><trkpt lat="44.2365602" lon="8.1172059"><ele>646.0</ele><time>2026-04-18T12:21:05.242Z</time></trkpt><trkpt lat="44.2365028" lon="8.1173723"><ele>646.6666666666667</ele><time>2026-04-18T12:21:06.243Z</time></trkpt><trkpt lat="44.2364383" lon="8.1175574"><ele>647.3333333333334</ele><time>2026-04-18T12:21:07.243Z</time></trkpt><trkpt lat="44.236356" lon="8.1177379"><ele>648.0</ele><time>2026-04-18T12:21:08.243Z</time></trkpt><trkpt lat="44.2362732" lon="8.1179212"><ele>648.0</ele><time>2026-04-18T12:21:09.243Z</time></trkpt><trkpt lat="44.236199" lon="8.1181037"><ele>648.0</ele><time>2026-04-18T12:21:10.242Z</time></trkpt><trkpt lat="44.236146" lon="8.1182849"><ele>648.0</ele><time>2026-04-18T12:21:11.243Z</time></trkpt><trkpt lat="44.236114" lon="8.1184925"><ele>648.0</ele><time>2026-04-18T12:21:12.243Z</time></trkpt><trkpt lat="44.236104" lon="8.1187295"><ele>649.0</ele><time>2026-04-18T12:21:13.243Z</time></trkpt><trkpt lat="44.236101" lon="8.118974"><ele>650.0</ele><time>2026-04-18T12:21:14.243Z</time></trkpt><trkpt lat="44.2360971" lon="8.1192306"><ele>651.0</ele><time>2026-04-18T12:21:15.243Z</time></trkpt><trkpt lat="44.2360905" lon="8.1194846"><ele>651.0</ele><time>2026-04-18T12:21:16.243Z</time></trkpt><trkpt lat="44.236082" lon="8.1197447"><ele>651.0</ele><time>2026-04-18T12:21:17.243Z</time></trkpt><trkpt lat="44.2360724" lon="8.1200069"><ele>651.0</ele><time>2026-04-18T12:21:18.242Z</time></trkpt><trkpt lat="44.2360674" lon="8.1202707"><ele>652.0</ele><time>2026-04-18T12:21:19.243Z</time></trkpt><trkpt lat="44.236063" lon="8.1205244"><ele>653.0</ele><time>2026-04-18T12:21:20.242Z</time></trkpt><trkpt lat="44.2360632" lon="8.1207648"><ele>654.0</ele><time>2026-04-18T12:21:21.242Z</time></trkpt><trkpt lat="44.2360605" lon="8.1209987"><ele>656.3333333333334</ele><time>2026-04-18T12:21:22.243Z</time></trkpt><trkpt lat="44.2360387" lon="8.1212442"><ele>658.6666666666667</ele><time>2026-04-18T12:21:23.243Z</time></trkpt><trkpt lat="44.2359937" lon="8.1215"><ele>661.0</ele><time>2026-04-18T12:21:24.243Z</time></trkpt><trkpt lat="44.2359344" lon="8.1217754"><ele>661.0</ele><time>2026-04-18T12:21:25.242Z</time></trkpt><trkpt lat="44.235872" lon="8.1220524"><ele>661.0</ele><time>2026-04-18T12:21:26.243Z</time></trkpt><trkpt lat="44.235809" lon="8.1223358"><ele>661.0</ele><time>2026-04-18T12:21:27.243Z</time></trkpt><trkpt lat="44.2357447" lon="8.1226188"><ele>661.0</ele><time>2026-04-18T12:21:28.243Z</time></trkpt><trkpt lat="44.235682" lon="8.1228952"><ele>661.0</ele><time>2026-04-18T12:21:29.242Z</time></trkpt><trkpt lat="44.2356226" lon="8.1231697"><ele>661.0</ele><time>2026-04-18T12:21:30.243Z</time></trkpt><trkpt lat="44.2355657" lon="8.1234474"><ele>665.0</ele><time>2026-04-18T12:21:31.243Z</time></trkpt><trkpt lat="44.2355105" lon="8.1237125"><ele>669.0</ele><time>2026-04-18T12:21:32.243Z</time></trkpt><trkpt lat="44.2354566" lon="8.1239684"><ele>673.0</ele><time>2026-04-18T12:21:33.243Z</time></trkpt><trkpt lat="44.2353985" lon="8.1242063"><ele>673.0</ele><time>2026-04-18T12:21:34.243Z</time></trkpt><trkpt lat="44.235332" lon="8.1244335"><ele>673.0</ele><time>2026-04-18T12:21:35.242Z</time></trkpt><trkpt lat="44.2352203" lon="8.1246409"><ele>673.0</ele><time>2026-04-18T12:21:36.243Z</time></trkpt><trkpt lat="44.2350564" lon="8.1248253"><ele>674.6666666666667</ele><time>2026-04-18T12:21:37.243Z</time></trkpt><trkpt lat="44.2349058" lon="8.125"><ele>676.3333333333334</ele><time>2026-04-18T12:21:38.242Z</time></trkpt><trkpt lat="44.2347622" lon="8.1251667"><ele>678.0</ele><time>2026-04-18T12:21:39.244Z</time></trkpt><trkpt lat="44.234636" lon="8.1253319"><ele>678.0</ele><time>2026-04-18T12:21:40.244Z</time></trkpt><trkpt lat="44.2345351" lon="8.1255177"><ele>678.0</ele><time>2026-04-18T12:21:41.244Z</time></trkpt><trkpt lat="44.2344771" lon="8.1257244"><ele>678.0</ele><time>2026-04-18T12:21:42.244Z</time></trkpt><trkpt lat="44.234472" lon="8.1259463"><ele>677.3333333333334</ele><time>2026-04-18T12:21:43.244Z</time></trkpt><trkpt lat="44.2344983" lon="8.1261839"><ele>676.6666666666667</ele><time>2026-04-18T12:21:44.244Z</time></trkpt><trkpt lat="44.2345385" lon="8.1264505"><ele>676.0</ele><time>2026-04-18T12:21:45.244Z</time></trkpt><trkpt lat="44.2345818" lon="8.1267213"><ele>674.6666666666667</ele><time>2026-04-18T12:21:46.243Z</time></trkpt><trkpt lat="44.2346244" lon="8.1270025"><ele>673.3333333333334</ele><time>2026-04-18T12:21:47.244Z</time></trkpt><trkpt lat="44.2346684" lon="8.1272884"><ele>672.0</ele><time>2026-04-18T12:21:48.244Z</time></trkpt><trkpt lat="44.2347072" lon="8.1275738"><ele>671.6666666666666</ele><time>2026-04-18T12:21:49.244Z</time></trkpt><trkpt lat="44.234747" lon="8.1278629"><ele>671.3333333333333</ele><time>2026-04-18T12:21:50.243Z</time></trkpt><trkpt lat="44.2347923" lon="8.1281436"><ele>671.0</ele><time>2026-04-18T12:21:51.244Z</time></trkpt><trkpt lat="44.2348304" lon="8.1284255"><ele>670.6666666666666</ele><time>2026-04-18T12:21:52.244Z</time></trkpt><trkpt lat="44.2348707" lon="8.1286966"><ele>670.3333333333334</ele><time>2026-04-18T12:21:53.244Z</time></trkpt><trkpt lat="44.2349095" lon="8.1289476"><ele>670.0</ele><time>2026-04-18T12:21:54.244Z</time></trkpt><trkpt lat="44.2349437" lon="8.129188"><ele>670.0</ele><time>2026-04-18T12:21:55.244Z</time></trkpt><trkpt lat="44.2349738" lon="8.1294072"><ele>670.0</ele><time>2026-04-18T12:21:56.244Z</time></trkpt><trkpt lat="44.2350044" lon="8.1296058"><ele>670.0</ele><time>2026-04-18T12:21:57.244Z</time></trkpt><trkpt lat="44.2350336" lon="8.1297919"><ele>670.0</ele><time>2026-04-18T12:21:58.243Z</time></trkpt><trkpt lat="44.2350495" lon="8.1299562"><ele>670.25</ele><time>2026-04-18T12:21:59.244Z</time></trkpt><trkpt lat="44.2350538" lon="8.1301094"><ele>670.5</ele><time>2026-04-18T12:22:00.244Z</time></trkpt><trkpt lat="44.2350368" lon="8.1302584"><ele>670.75</ele><time>2026-04-18T12:22:01.244Z</time></trkpt><trkpt lat="44.2349968" lon="8.1304316"><ele>671.0</ele><time>2026-04-18T12:22:02.244Z</time></trkpt><trkpt lat="44.2349499" lon="8.1306102"><ele>671.0</ele><time>2026-04-18T12:22:03.243Z</time></trkpt><trkpt lat="44.2348913" lon="8.1308166"><ele>671.0</ele><time>2026-04-18T12:22:04.244Z</time></trkpt><trkpt lat="44.2348362" lon="8.1310387"><ele>671.0</ele><time>2026-04-18T12:22:05.243Z</time></trkpt><trkpt lat="44.2347759" lon="8.1312663"><ele>671.6666666666666</ele><time>2026-04-18T12:22:06.243Z</time></trkpt><trkpt lat="44.2347108" lon="8.1314993"><ele>672.3333333333334</ele><time>2026-04-18T12:22:07.244Z</time></trkpt><trkpt lat="44.234649" lon="8.1317376"><ele>673.0</ele><time>2026-04-18T12:22:08.244Z</time></trkpt><trkpt lat="44.2345849" lon="8.1319678"><ele>674.0</ele><time>2026-04-18T12:22:09.244Z</time></trkpt><trkpt lat="44.2345271" lon="8.1322087"><ele>675.0</ele><time>2026-04-18T12:22:10.244Z</time></trkpt><trkpt lat="44.2344659" lon="8.1324494"><ele>676.0</ele><time>2026-04-18T12:22:11.244Z</time></trkpt><trkpt lat="44.2344188" lon="8.1326905"><ele>676.0</ele><time>2026-04-18T12:22:12.243Z</time></trkpt><trkpt lat="44.2343825" lon="8.1329426"><ele>676.0</ele><time>2026-04-18T12:22:13.243Z</time></trkpt><trkpt lat="44.2343504" lon="8.1332013"><ele>676.0</ele><time>2026-04-18T12:22:14.244Z</time></trkpt><trkpt lat="44.2343103" lon="8.1334632"><ele>676.0</ele><time>2026-04-18T12:22:15.243Z</time></trkpt><trkpt lat="44.2342634" lon="8.13372"><ele>676.0</ele><time>2026-04-18T12:22:16.244Z</time></trkpt><trkpt lat="44.2342009" lon="8.1339661"><ele>676.0</ele><time>2026-04-18T12:22:17.244Z</time></trkpt><trkpt lat="44.234147" lon="8.1342178"><ele>676.0</ele><time>2026-04-18T12:22:18.244Z</time></trkpt><trkpt lat="44.2341156" lon="8.1344739"><ele>676.0</ele><time>2026-04-18T12:22:19.244Z</time></trkpt><trkpt lat="44.2340978" lon="8.1347552"><ele>676.0</ele><time>2026-04-18T12:22:20.244Z</time></trkpt><trkpt lat="44.2340784" lon="8.1350482"><ele>677.0</ele><time>2026-04-18T12:22:21.244Z</time></trkpt><trkpt lat="44.2340476" lon="8.1353434"><ele>678.0</ele><time>2026-04-18T12:22:22.243Z</time></trkpt><trkpt lat="44.2340198" lon="8.1356531"><ele>679.0</ele><time>2026-04-18T12:22:23.244Z</time></trkpt><trkpt lat="44.2340004" lon="8.1359565"><ele>679.0</ele><time>2026-04-18T12:22:24.244Z</time></trkpt><trkpt lat="44.2339826" lon="8.1362679"><ele>679.0</ele><time>2026-04-18T12:22:25.244Z</time></trkpt><trkpt lat="44.2339645" lon="8.1365825"><ele>681.0</ele><time>2026-04-18T12:22:26.244Z</time></trkpt><trkpt lat="44.2339421" lon="8.1368983"><ele>683.0</ele><time>2026-04-18T12:22:27.244Z</time></trkpt><trkpt lat="44.2339197" lon="8.1372148"><ele>683.0</ele><time>2026-04-18T12:22:28.244Z</time></trkpt><trkpt lat="44.2339011" lon="8.1375347"><ele>683.0</ele><time>2026-04-18T12:22:29.244Z</time></trkpt><trkpt lat="44.2338832" lon="8.1378626"><ele>683.0</ele><time>2026-04-18T12:22:30.244Z</time></trkpt><trkpt lat="44.2338684" lon="8.1381925"><ele>683.0</ele><time>2026-04-18T12:22:31.244Z</time></trkpt><trkpt lat="44.2338475" lon="8.1385184"><ele>684.0</ele><time>2026-04-18T12:22:32.243Z</time></trkpt><trkpt lat="44.2338286" lon="8.1388413"><ele>685.0</ele><time>2026-04-18T12:22:33.244Z</time></trkpt><trkpt lat="44.2338098" lon="8.1391602"><ele>685.5</ele><time>2026-04-18T12:22:34.243Z</time></trkpt><trkpt lat="44.2337925" lon="8.1394817"><ele>686.0</ele><time>2026-04-18T12:22:35.244Z</time></trkpt><trkpt lat="44.2337704" lon="8.1397963"><ele>686.0</ele><time>2026-04-18T12:22:36.243Z</time></trkpt><trkpt lat="44.2337503" lon="8.1401076"><ele>686.0</ele><time>2026-04-18T12:22:37.244Z</time></trkpt><trkpt lat="44.2337334" lon="8.1404127"><ele>686.0</ele><time>2026-04-18T12:22:38.244Z</time></trkpt><trkpt lat="44.233709" lon="8.1407314"><ele>686.5</ele><time>2026-04-18T12:22:39.243Z</time></trkpt><trkpt lat="44.2336677" lon="8.1410551"><ele>687.0</ele><time>2026-04-18T12:22:40.243Z</time></trkpt><trkpt lat="44.2336204" lon="8.1413761"><ele>689.0</ele><time>2026-04-18T12:22:41.243Z</time></trkpt><trkpt lat="44.233569" lon="8.1416936"><ele>691.0</ele><time>2026-04-18T12:22:42.244Z</time></trkpt><trkpt lat="44.2335256" lon="8.1419974"><ele>691.0</ele><time>2026-04-18T12:22:43.244Z</time></trkpt><trkpt lat="44.2334895" lon="8.1422865"><ele>691.0</ele><time>2026-04-18T12:22:44.244Z</time></trkpt><trkpt lat="44.2334534" lon="8.1425709"><ele>691.0</ele><time>2026-04-18T12:22:45.244Z</time></trkpt><trkpt lat="44.2334356" lon="8.1428702"><ele>692.0</ele><time>2026-04-18T12:22:46.243Z</time></trkpt><trkpt lat="44.2334382" lon="8.1431749"><ele>693.0</ele><time>2026-04-18T12:22:47.244Z</time></trkpt><trkpt lat="44.2334511" lon="8.1434943"><ele>694.0</ele><time>2026-04-18T12:22:48.244Z</time></trkpt><trkpt lat="44.2334592" lon="8.1438088"><ele>696.5</ele><time>2026-04-18T12:22:49.243Z</time></trkpt><trkpt lat="44.2334698" lon="8.1441324"><ele>699.0</ele><time>2026-04-18T12:22:50.244Z</time></trkpt><trkpt lat="44.2334869" lon="8.144445"><ele>699.0</ele><time>2026-04-18T12:22:51.244Z</time></trkpt><trkpt lat="44.2335074" lon="8.1447516"><ele>699.0</ele><time>2026-04-18T12:22:52.244Z</time></trkpt><trkpt lat="44.2335261" lon="8.1450453"><ele>699.0</ele><time>2026-04-18T12:22:53.244Z</time></trkpt><trkpt lat="44.2335421" lon="8.145312"><ele>700.3333333333334</ele><time>2026-04-18T12:22:54.244Z</time></trkpt><trkpt lat="44.2335423" lon="8.1455682"><ele>701.6666666666667</ele><time>2026-04-18T12:22:55.244Z</time></trkpt><trkpt lat="44.2335082" lon="8.1458292"><ele>703.0</ele><time>2026-04-18T12:22:56.244Z</time></trkpt><trkpt lat="44.2334354" lon="8.1460946"><ele>704.0</ele><time>2026-04-18T12:22:57.244Z</time></trkpt><trkpt lat="44.2333446" lon="8.1463682"><ele>705.0</ele><time>2026-04-18T12:22:58.243Z</time></trkpt><trkpt lat="44.2332386" lon="8.1466263"><ele>706.0</ele><time>2026-04-18T12:22:59.244Z</time></trkpt><trkpt lat="44.2331405" lon="8.1468855"><ele>704.6666666666667</ele><time>2026-04-18T12:23:00.244Z</time></trkpt><trkpt lat="44.2330483" lon="8.1471359"><ele>703.3333333333334</ele><time>2026-04-18T12:23:01.244Z</time></trkpt><trkpt lat="44.2329797" lon="8.1474024"><ele>702.0</ele><time>2026-04-18T12:23:02.244Z</time></trkpt><trkpt lat="44.2329363" lon="8.1476871"><ele>702.0</ele><time>2026-04-18T12:23:03.244Z</time></trkpt><trkpt lat="44.2329014" lon="8.1479836"><ele>702.0</ele><time>2026-04-18T12:23:04.244Z</time></trkpt><trkpt lat="44.232862" lon="8.148287"><ele>702.0</ele><time>2026-04-18T12:23:05.244Z</time></trkpt><trkpt lat="44.2328276" lon="8.1485801"><ele>702.6666666666666</ele><time>2026-04-18T12:23:06.243Z</time></trkpt><trkpt lat="44.2328047" lon="8.1488475"><ele>703.3333333333333</ele><time>2026-04-18T12:23:07.244Z</time></trkpt><trkpt lat="44.2327887" lon="8.1490869"><ele>704.0</ele><time>2026-04-18T12:23:08.243Z</time></trkpt><trkpt lat="44.2328008" lon="8.1493135"><ele>705.0</ele><time>2026-04-18T12:23:09.244Z</time></trkpt><trkpt lat="44.2328469" lon="8.1495274"><ele>706.0</ele><time>2026-04-18T12:23:10.244Z</time></trkpt><trkpt lat="44.2329314" lon="8.149736"><ele>707.0</ele><time>2026-04-18T12:23:11.243Z</time></trkpt><trkpt lat="44.2330466" lon="8.1499265"><ele>713.3333333333333</ele><time>2026-04-18T12:23:12.244Z</time></trkpt><trkpt lat="44.2331638" lon="8.1501211"><ele>719.6666666666666</ele><time>2026-04-18T12:23:13.243Z</time></trkpt><trkpt lat="44.2332792" lon="8.1503132"><ele>726.0</ele><time>2026-04-18T12:23:14.244Z</time></trkpt><trkpt lat="44.233393" lon="8.1505121"><ele>722.0</ele><time>2026-04-18T12:23:15.244Z</time></trkpt><trkpt lat="44.233495" lon="8.1507405"><ele>718.0</ele><time>2026-04-18T12:23:16.244Z</time></trkpt><trkpt lat="44.2335817" lon="8.151"><ele>714.0</ele><time>2026-04-18T12:23:17.244Z</time></trkpt><trkpt lat="44.2336567" lon="8.1512762"><ele>712.6666666666666</ele><time>2026-04-18T12:23:18.243Z</time></trkpt><trkpt lat="44.2337302" lon="8.151553"><ele>711.3333333333333</ele><time>2026-04-18T12:23:19.244Z</time></trkpt><trkpt lat="44.2338021" lon="8.1518303"><ele>710.0</ele><time>2026-04-18T12:23:20.243Z</time></trkpt><trkpt lat="44.2338804" lon="8.152094"><ele>710.0</ele><time>2026-04-18T12:23:21.244Z</time></trkpt><trkpt lat="44.2339479" lon="8.1523478"><ele>710.0</ele><time>2026-04-18T12:23:22.244Z</time></trkpt><trkpt lat="44.2339967" lon="8.1526064"><ele>710.0</ele><time>2026-04-18T12:23:23.243Z</time></trkpt><trkpt lat="44.2340177" lon="8.1528716"><ele>711.3333333333333</ele><time>2026-04-18T12:23:24.244Z</time></trkpt><trkpt lat="44.2340132" lon="8.1531236"><ele>712.6666666666666</ele><time>2026-04-18T12:23:25.244Z</time></trkpt><trkpt lat="44.2340098" lon="8.1533736"><ele>714.0</ele><time>2026-04-18T12:23:26.243Z</time></trkpt><trkpt lat="44.2340301" lon="8.1536237"><ele>714.3333333333334</ele><time>2026-04-18T12:23:27.244Z</time></trkpt><trkpt lat="44.2340963" lon="8.1538666"><ele>714.6666666666667</ele><time>2026-04-18T12:23:28.244Z</time></trkpt><trkpt lat="44.2341867" lon="8.1541152"><ele>715.0</ele><time>2026-04-18T12:23:29.244Z</time></trkpt><trkpt lat="44.2342767" lon="8.1543703"><ele>715.6666666666667</ele><time>2026-04-18T12:23:30.243Z</time></trkpt><trkpt lat="44.2343607" lon="8.1546362"><ele>716.3333333333334</ele><time>2026-04-18T12:23:31.245Z</time></trkpt><trkpt lat="44.2344251" lon="8.154902"><ele>717.0</ele><time>2026-04-18T12:23:32.245Z</time></trkpt><trkpt lat="44.2344546" lon="8.155179"><ele>717.6666666666666</ele><time>2026-04-18T12:23:33.245Z</time></trkpt><trkpt lat="44.2344432" lon="8.1554643"><ele>718.3333333333333</ele><time>2026-04-18T12:23:34.245Z</time></trkpt><trkpt lat="44.2344126" lon="8.1557558"><ele>719.0</ele><time>2026-04-18T12:23:35.245Z</time></trkpt><trkpt lat="44.2343581" lon="8.1560425"><ele>720.3333333333333</ele><time>2026-04-18T12:23:36.244Z</time></trkpt><trkpt lat="44.2342989" lon="8.156322"><ele>721.6666666666666</ele><time>2026-04-18T12:23:37.245Z</time></trkpt><trkpt lat="44.2342336" lon="8.1566013"><ele>723.0</ele><time>2026-04-18T12:23:38.245Z</time></trkpt><trkpt lat="44.2341678" lon="8.1568721"><ele>724.6666666666666</ele><time>2026-04-18T12:23:39.245Z</time></trkpt><trkpt lat="44.2341073" lon="8.1571221"><ele>726.3333333333333</ele><time>2026-04-18T12:23:40.245Z</time></trkpt><trkpt lat="44.2340643" lon="8.1573645"><ele>728.0</ele><time>2026-04-18T12:23:41.245Z</time></trkpt><trkpt lat="44.2340512" lon="8.1576237"><ele>732.3333333333333</ele><time>2026-04-18T12:23:42.244Z</time></trkpt><trkpt lat="44.2340588" lon="8.1578867"><ele>736.6666666666666</ele><time>2026-04-18T12:23:43.244Z</time></trkpt><trkpt lat="44.2340653" lon="8.1581454"><ele>741.0</ele><time>2026-04-18T12:23:44.245Z</time></trkpt><trkpt lat="44.2340624" lon="8.1584048"><ele>743.3333333333334</ele><time>2026-04-18T12:23:45.245Z</time></trkpt><trkpt lat="44.234056" lon="8.158632"><ele>745.6666666666667</ele><time>2026-04-18T12:23:46.245Z</time></trkpt><trkpt lat="44.2340463" lon="8.1588525"><ele>748.0</ele><time>2026-04-18T12:23:47.245Z</time></trkpt><trkpt lat="44.2340596" lon="8.159074"><ele>748.6666666666667</ele><time>2026-04-18T12:23:48.245Z</time></trkpt><trkpt lat="44.234086" lon="8.1592929"><ele>749.3333333333334</ele><time>2026-04-18T12:23:49.244Z</time></trkpt><trkpt lat="44.234133" lon="8.1595247"><ele>750.0</ele><time>2026-04-18T12:23:50.245Z</time></trkpt><trkpt lat="44.2342213" lon="8.1597517"><ele>748.0</ele><time>2026-04-18T12:23:51.245Z</time></trkpt><trkpt lat="44.2343274" lon="8.1599436"><ele>746.0</ele><time>2026-04-18T12:23:52.245Z</time></trkpt><trkpt lat="44.234431" lon="8.160128"><ele>744.0</ele><time>2026-04-18T12:23:53.245Z</time></trkpt><trkpt lat="44.234509" lon="8.160342"><ele>744.0</ele><time>2026-04-18T12:23:54.245Z</time></trkpt><trkpt lat="44.2345621" lon="8.1605943"><ele>744.0</ele><time>2026-04-18T12:23:55.245Z</time></trkpt><trkpt lat="44.2345972" lon="8.1608636"><ele>744.0</ele><time>2026-04-18T12:23:56.245Z</time></trkpt><trkpt lat="44.2346239" lon="8.1611373"><ele>747.0</ele><time>2026-04-18T12:23:57.244Z</time></trkpt><trkpt lat="44.234633" lon="8.1614096"><ele>750.0</ele><time>2026-04-18T12:23:58.244Z</time></trkpt><trkpt lat="44.2346213" lon="8.16167"><ele>753.0</ele><time>2026-04-18T12:23:59.245Z</time></trkpt><trkpt lat="44.2346" lon="8.1619076"><ele>757.0</ele><time>2026-04-18T12:24:00.245Z</time></trkpt><trkpt lat="44.2345829" lon="8.1621164"><ele>761.0</ele><time>2026-04-18T12:24:01.245Z</time></trkpt><trkpt lat="44.2345943" lon="8.1623021"><ele>765.0</ele><time>2026-04-18T12:24:02.245Z</time></trkpt><trkpt lat="44.2346357" lon="8.16245"><ele>769.0</ele><time>2026-04-18T12:24:03.244Z</time></trkpt><trkpt lat="44.2347168" lon="8.1625871"><ele>768.6666666666666</ele><time>2026-04-18T12:24:04.245Z</time></trkpt><trkpt lat="44.2348483" lon="8.1626961"><ele>768.3333333333333</ele><time>2026-04-18T12:24:05.245Z</time></trkpt><trkpt lat="44.2349937" lon="8.1627917"><ele>768.0</ele><time>2026-04-18T12:24:06.245Z</time></trkpt><trkpt lat="44.235113" lon="8.1629154"><ele>768.0</ele><time>2026-04-18T12:24:07.245Z</time></trkpt><trkpt lat="44.2351953" lon="8.1630721"><ele>768.0</ele><time>2026-04-18T12:24:08.245Z</time></trkpt><trkpt lat="44.2352336" lon="8.1632558"><ele>768.0</ele><time>2026-04-18T12:24:09.245Z</time></trkpt><trkpt lat="44.235213" lon="8.1634465"><ele>768.0</ele><time>2026-04-18T12:24:10.244Z</time></trkpt><trkpt lat="44.2351439" lon="8.163638"><ele>767.5</ele><time>2026-04-18T12:24:11.244Z</time></trkpt><trkpt lat="44.2350595" lon="8.1638155"><ele>767.0</ele><time>2026-04-18T12:24:12.245Z</time></trkpt><trkpt lat="44.2349909" lon="8.1639764"><ele>766.5</ele><time>2026-04-18T12:24:13.244Z</time></trkpt><trkpt lat="44.2349454" lon="8.1641313"><ele>766.0</ele><time>2026-04-18T12:24:14.245Z</time></trkpt><trkpt lat="44.2349187" lon="8.164285"><ele>766.0</ele><time>2026-04-18T12:24:15.244Z</time></trkpt><trkpt lat="44.234939" lon="8.164435"><ele>766.0</ele><time>2026-04-18T12:24:16.244Z</time></trkpt><trkpt lat="44.2350211" lon="8.164575"><ele>766.0</ele><time>2026-04-18T12:24:17.244Z</time></trkpt><trkpt lat="44.2351315" lon="8.1646955"><ele>766.0</ele><time>2026-04-18T12:24:18.245Z</time></trkpt><trkpt lat="44.2352538" lon="8.164811"><ele>767.0</ele><time>2026-04-18T12:24:19.245Z</time></trkpt><trkpt lat="44.2353887" lon="8.1649255"><ele>768.0</ele><time>2026-04-18T12:24:20.245Z</time></trkpt><trkpt lat="44.2355198" lon="8.1650749"><ele>769.0</ele><time>2026-04-18T12:24:21.244Z</time></trkpt><trkpt lat="44.2356241" lon="8.1652477"><ele>771.3333333333333</ele><time>2026-04-18T12:24:22.245Z</time></trkpt><trkpt lat="44.2356972" lon="8.1654379"><ele>773.6666666666667</ele><time>2026-04-18T12:24:23.245Z</time></trkpt><trkpt lat="44.2357902" lon="8.1655984"><ele>776.0</ele><time>2026-04-18T12:24:24.244Z</time></trkpt><trkpt lat="44.2359178" lon="8.1657239"><ele>776.0</ele><time>2026-04-18T12:24:25.244Z</time></trkpt><trkpt lat="44.2360723" lon="8.1658097"><ele>776.0</ele><time>2026-04-18T12:24:26.245Z</time></trkpt><trkpt lat="44.2362251" lon="8.1658561"><ele>776.0</ele><time>2026-04-18T12:24:27.245Z</time></trkpt><trkpt lat="44.2363728" lon="8.1658647"><ele>779.5</ele><time>2026-04-18T12:24:28.245Z</time></trkpt><trkpt lat="44.2365128" lon="8.1658553"><ele>783.0</ele><time>2026-04-18T12:24:29.245Z</time></trkpt><trkpt lat="44.2366488" lon="8.1658593"><ele>786.5</ele><time>2026-04-18T12:24:30.245Z</time></trkpt><trkpt lat="44.2367896" lon="8.1659112"><ele>790.0</ele><time>2026-04-18T12:24:31.245Z</time></trkpt><trkpt lat="44.2369391" lon="8.1659956"><ele>790.0</ele><time>2026-04-18T12:24:32.245Z</time></trkpt><trkpt lat="44.2370727" lon="8.1660963"><ele>790.0</ele><time>2026-04-18T12:24:33.245Z</time></trkpt><trkpt lat="44.2371994" lon="8.1661971"><ele>790.0</ele><time>2026-04-18T12:24:34.244Z</time></trkpt><trkpt lat="44.2373158" lon="8.1663078"><ele>790.0</ele><time>2026-04-18T12:24:35.245Z</time></trkpt><trkpt lat="44.237416" lon="8.1664514"><ele>789.75</ele><time>2026-04-18T12:24:36.244Z</time></trkpt><trkpt lat="44.2374981" lon="8.16661"><ele>789.5</ele><time>2026-04-18T12:24:37.244Z</time></trkpt><trkpt lat="44.2375626" lon="8.1667945"><ele>789.25</ele><time>2026-04-18T12:24:38.245Z</time></trkpt><trkpt lat="44.2376266" lon="8.1669901"><ele>789.0</ele><time>2026-04-18T12:24:39.245Z</time></trkpt><trkpt lat="44.2376957" lon="8.1671827"><ele>787.5</ele><time>2026-04-18T12:24:40.245Z</time></trkpt><trkpt lat="44.237774" lon="8.1673623"><ele>786.0</ele><time>2026-04-18T12:24:41.245Z</time></trkpt><trkpt lat="44.2378681" lon="8.1675186"><ele>784.5</ele><time>2026-04-18T12:24:42.244Z</time></trkpt><trkpt lat="44.2379676" lon="8.1676658"><ele>783.0</ele><time>2026-04-18T12:24:43.245Z</time></trkpt><trkpt lat="44.2380623" lon="8.1677942"><ele>788.5</ele><time>2026-04-18T12:24:44.245Z</time></trkpt><trkpt lat="44.2381718" lon="8.1678906"><ele>794.0</ele><time>2026-04-18T12:24:45.244Z</time></trkpt><trkpt lat="44.238309" lon="8.1679605"><ele>799.5</ele><time>2026-04-18T12:24:46.244Z</time></trkpt><trkpt lat="44.2384618" lon="8.1680086"><ele>805.0</ele><time>2026-04-18T12:24:47.245Z</time></trkpt><trkpt lat="44.2386084" lon="8.1680475"><ele>805.0</ele><time>2026-04-18T12:24:48.245Z</time></trkpt><trkpt lat="44.2387448" lon="8.1680688"><ele>805.0</ele><time>2026-04-18T12:24:49.245Z</time></trkpt><trkpt lat="44.2388837" lon="8.1680584"><ele>805.0</ele><time>2026-04-18T12:24:50.245Z</time></trkpt><trkpt lat="44.2390273" lon="8.1680108"><ele>805.0</ele><time>2026-04-18T12:24:51.245Z</time></trkpt><trkpt lat="44.2391533" lon="8.1679569"><ele>807.4</ele><time>2026-04-18T12:24:52.244Z</time></trkpt><trkpt lat="44.2392486" lon="8.1679051"><ele>809.8</ele><time>2026-04-18T12:24:53.245Z</time></trkpt><trkpt lat="44.2393172" lon="8.16789"><ele>812.2</ele><time>2026-04-18T12:24:54.245Z</time></trkpt><trkpt lat="44.2393661" lon="8.1680128"><ele>814.6</ele><time>2026-04-18T12:24:56.245Z</time></trkpt><trkpt lat="44.2393427" lon="8.1681229"><ele>817.0</ele><time>2026-04-18T12:24:57.245Z</time></trkpt><trkpt lat="44.2392924" lon="8.1682371"><ele>817.0</ele><time>2026-04-18T12:24:58.245Z</time></trkpt><trkpt lat="44.2392038" lon="8.1683418"><ele>817.0</ele><time>2026-04-18T12:24:59.245Z</time></trkpt><trkpt lat="44.2390902" lon="8.1684485"><ele>817.0</ele><time>2026-04-18T12:25:00.245Z</time></trkpt><trkpt lat="44.2389701" lon="8.1685414"><ele>817.0</ele><time>2026-04-18T12:25:01.245Z</time></trkpt><trkpt lat="44.2388626" lon="8.1686137"><ele>814.0</ele><time>2026-04-18T12:25:02.245Z</time></trkpt><trkpt lat="44.2387665" lon="8.168675"><ele>811.0</ele><time>2026-04-18T12:25:03.245Z</time></trkpt><trkpt lat="44.2386955" lon="8.168752"><ele>808.0</ele><time>2026-04-18T12:25:04.245Z</time></trkpt><trkpt lat="44.238671" lon="8.1688539"><ele>805.0</ele><time>2026-04-18T12:25:05.245Z</time></trkpt><trkpt lat="44.2387192" lon="8.1689569"><ele>802.0</ele><time>2026-04-18T12:25:06.245Z</time></trkpt><trkpt lat="44.2388078" lon="8.1690471"><ele>802.0</ele><time>2026-04-18T12:25:07.244Z</time></trkpt><trkpt lat="44.2389173" lon="8.1691413"><ele>802.0</ele><time>2026-04-18T12:25:08.245Z</time></trkpt><trkpt lat="44.2390337" lon="8.1692556"><ele>802.0</ele><time>2026-04-18T12:25:09.245Z</time></trkpt><trkpt lat="44.2391504" lon="8.1693815"><ele>802.0</ele><time>2026-04-18T12:25:10.245Z</time></trkpt><trkpt lat="44.2392779" lon="8.1695169"><ele>806.3333333333333</ele><time>2026-04-18T12:25:11.244Z</time></trkpt><trkpt lat="44.2394132" lon="8.1696644"><ele>810.6666666666667</ele><time>2026-04-18T12:25:12.245Z</time></trkpt><trkpt lat="44.2395484" lon="8.1698214"><ele>815.0</ele><time>2026-04-18T12:25:13.245Z</time></trkpt><trkpt lat="44.2396783" lon="8.1699849"><ele>815.0</ele><time>2026-04-18T12:25:14.244Z</time></trkpt><trkpt lat="44.2397924" lon="8.1701651"><ele>815.0</ele><time>2026-04-18T12:25:15.244Z</time></trkpt><trkpt lat="44.2399" lon="8.1703532"><ele>815.0</ele><time>2026-04-18T12:25:16.245Z</time></trkpt><trkpt lat="44.2399898" lon="8.1705553"><ele>823.6666666666667</ele><time>2026-04-18T12:25:17.245Z</time></trkpt><trkpt lat="44.2400677" lon="8.1707733"><ele>832.3333333333333</ele><time>2026-04-18T12:25:18.245Z</time></trkpt><trkpt lat="44.2401341" lon="8.1710125"><ele>841.0</ele><time>2026-04-18T12:25:19.246Z</time></trkpt><trkpt lat="44.2402158" lon="8.171227"><ele>841.0</ele><time>2026-04-18T12:25:20.246Z</time></trkpt><trkpt lat="44.2403086" lon="8.1714243"><ele>841.0</ele><time>2026-04-18T12:25:21.246Z</time></trkpt><trkpt lat="44.2404043" lon="8.1715907"><ele>841.0</ele><time>2026-04-18T12:25:22.246Z</time></trkpt><trkpt lat="44.2405062" lon="8.1717049"><ele>841.1666666666666</ele><time>2026-04-18T12:25:23.246Z</time></trkpt><trkpt lat="44.2405993" lon="8.1717997"><ele>841.3333333333333</ele><time>2026-04-18T12:25:24.246Z</time></trkpt><trkpt lat="44.2406827" lon="8.1718872"><ele>841.5</ele><time>2026-04-18T12:25:25.246Z</time></trkpt><trkpt lat="44.2407254" lon="8.1719763"><ele>841.6666666666667</ele><time>2026-04-18T12:25:26.246Z</time></trkpt><trkpt lat="44.2407148" lon="8.1720663"><ele>841.8333333333334</ele><time>2026-04-18T12:25:27.246Z</time></trkpt><trkpt lat="44.2406681" lon="8.1721435"><ele>842.0</ele><time>2026-04-18T12:25:28.246Z</time></trkpt><trkpt lat="44.2405909" lon="8.1721651"><ele>842.0</ele><time>2026-04-18T12:25:29.246Z</time></trkpt><trkpt lat="44.2405087" lon="8.172158"><ele>842.0</ele><time>2026-04-18T12:25:30.246Z</time></trkpt><trkpt lat="44.2404141" lon="8.1721315"><ele>842.0</ele><time>2026-04-18T12:25:31.246Z</time></trkpt><trkpt lat="44.2403098" lon="8.1721059"><ele>842.0</ele><time>2026-04-18T12:25:32.246Z</time></trkpt><trkpt lat="44.2402067" lon="8.1720735"><ele>842.0</ele><time>2026-04-18T12:25:33.246Z</time></trkpt><trkpt lat="44.2400892" lon="8.1720493"><ele>842.0</ele><time>2026-04-18T12:25:34.246Z</time></trkpt><trkpt lat="44.2399659" lon="8.1719927"><ele>842.0</ele><time>2026-04-18T12:25:35.246Z</time></trkpt><trkpt lat="44.2398387" lon="8.1718888"><ele>842.0</ele><time>2026-04-18T12:25:36.246Z</time></trkpt><trkpt lat="44.2397062" lon="8.1717539"><ele>842.0</ele><time>2026-04-18T12:25:37.246Z</time></trkpt><trkpt lat="44.2395718" lon="8.1716186"><ele>839.0</ele><time>2026-04-18T12:25:38.246Z</time></trkpt><trkpt lat="44.2394482" lon="8.1715107"><ele>836.0</ele><time>2026-04-18T12:25:39.246Z</time></trkpt><trkpt lat="44.2393389" lon="8.1714473"><ele>833.0</ele><time>2026-04-18T12:25:40.245Z</time></trkpt><trkpt lat="44.2392306" lon="8.1714422"><ele>830.0</ele><time>2026-04-18T12:25:41.246Z</time></trkpt><trkpt lat="44.239126" lon="8.1714995"><ele>829.5</ele><time>2026-04-18T12:25:42.245Z</time></trkpt><trkpt lat="44.2390381" lon="8.1716161"><ele>829.0</ele><time>2026-04-18T12:25:43.246Z</time></trkpt><trkpt lat="44.2389653" lon="8.1717852"><ele>828.5</ele><time>2026-04-18T12:25:44.246Z</time></trkpt><trkpt lat="44.2389092" lon="8.1719801"><ele>828.0</ele><time>2026-04-18T12:25:45.246Z</time></trkpt><trkpt lat="44.2388498" lon="8.1721852"><ele>833.25</ele><time>2026-04-18T12:25:46.246Z</time></trkpt><trkpt lat="44.2387778" lon="8.1723765"><ele>838.5</ele><time>2026-04-18T12:25:47.246Z</time></trkpt><trkpt lat="44.2386834" lon="8.1725428"><ele>843.75</ele><time>2026-04-18T12:25:48.245Z</time></trkpt><trkpt lat="44.2385846" lon="8.1726863"><ele>849.0</ele><time>2026-04-18T12:25:49.246Z</time></trkpt><trkpt lat="44.2385065" lon="8.1728051"><ele>849.0</ele><time>2026-04-18T12:25:50.246Z</time></trkpt><trkpt lat="44.2384837" lon="8.1729194"><ele>849.0</ele><time>2026-04-18T12:25:51.246Z</time></trkpt><trkpt lat="44.2384956" lon="8.1730557"><ele>849.0</ele><time>2026-04-18T12:25:52.246Z</time></trkpt><trkpt lat="44.2385263" lon="8.1731898"><ele>849.0</ele><time>2026-04-18T12:25:53.245Z</time></trkpt><trkpt lat="44.2385429" lon="8.1733053"><ele>849.0</ele><time>2026-04-18T12:25:54.246Z</time></trkpt><trkpt lat="44.2384383" lon="8.1734024"><ele>852.5</ele><time>2026-04-18T12:25:56.246Z</time></trkpt><trkpt lat="44.2383233" lon="8.1733587"><ele>856.0</ele><time>2026-04-18T12:25:57.246Z</time></trkpt><trkpt lat="44.2382073" lon="8.1733052"><ele>859.5</ele><time>2026-04-18T12:25:58.245Z</time></trkpt><trkpt lat="44.2380797" lon="8.1732499"><ele>863.0</ele><time>2026-04-18T12:25:59.246Z</time></trkpt><trkpt lat="44.2379446" lon="8.1732004"><ele>854.75</ele><time>2026-04-18T12:26:00.246Z</time></trkpt><trkpt lat="44.237805" lon="8.1731702"><ele>846.5</ele><time>2026-04-18T12:26:01.246Z</time></trkpt><trkpt lat="44.2376668" lon="8.1731539"><ele>838.25</ele><time>2026-04-18T12:26:02.246Z</time></trkpt><trkpt lat="44.2375421" lon="8.1731504"><ele>830.0</ele><time>2026-04-18T12:26:03.246Z</time></trkpt><trkpt lat="44.2374462" lon="8.1731604"><ele>830.5</ele><time>2026-04-18T12:26:04.246Z</time></trkpt><trkpt lat="44.237362" lon="8.1732122"><ele>831.0</ele><time>2026-04-18T12:26:05.245Z</time></trkpt><trkpt lat="44.2372906" lon="8.173353"><ele>831.5</ele><time>2026-04-18T12:26:06.246Z</time></trkpt><trkpt lat="44.2372239" lon="8.1735087"><ele>832.0</ele><time>2026-04-18T12:26:07.246Z</time></trkpt><trkpt lat="44.2371515" lon="8.1736814"><ele>832.0</ele><time>2026-04-18T12:26:08.246Z</time></trkpt><trkpt lat="44.2370777" lon="8.1738549"><ele>832.0</ele><time>2026-04-18T12:26:09.246Z</time></trkpt><trkpt lat="44.2369967" lon="8.1740279"><ele>832.0</ele><time>2026-04-18T12:26:10.246Z</time></trkpt><trkpt lat="44.2369144" lon="8.1741994"><ele>832.0</ele><time>2026-04-18T12:26:11.245Z</time></trkpt><trkpt lat="44.2368395" lon="8.1743486"><ele>837.2</ele><time>2026-04-18T12:26:12.246Z</time></trkpt><trkpt lat="44.2367823" lon="8.1744688"><ele>842.4000000000001</ele><time>2026-04-18T12:26:13.246Z</time></trkpt><trkpt lat="44.2367429" lon="8.1745831"><ele>847.5999999999999</ele><time>2026-04-18T12:26:14.246Z</time></trkpt><trkpt lat="44.2367423" lon="8.1747116"><ele>852.8</ele><time>2026-04-18T12:26:15.245Z</time></trkpt><trkpt lat="44.2367914" lon="8.1748517"><ele>858.0</ele><time>2026-04-18T12:26:16.246Z</time></trkpt><trkpt lat="44.2368826" lon="8.1749782"><ele>859.75</ele><time>2026-04-18T12:26:17.246Z</time></trkpt><trkpt lat="44.2369968" lon="8.175107"><ele>861.5</ele><time>2026-04-18T12:26:18.245Z</time></trkpt><trkpt lat="44.2371077" lon="8.1752276"><ele>863.25</ele><time>2026-04-18T12:26:19.246Z</time></trkpt><trkpt lat="44.2372193" lon="8.1753473"><ele>865.0</ele><time>2026-04-18T12:26:20.246Z</time></trkpt><trkpt lat="44.23733" lon="8.1754815"><ele>876.6666666666666</ele><time>2026-04-18T12:26:21.246Z</time></trkpt><trkpt lat="44.2374275" lon="8.1756489"><ele>888.3333333333333</ele><time>2026-04-18T12:26:22.246Z</time></trkpt><trkpt lat="44.2374942" lon="8.1758731"><ele>900.0</ele><time>2026-04-18T12:26:23.246Z</time></trkpt><trkpt lat="44.2375255" lon="8.1761252"><ele>900.0</ele><time>2026-04-18T12:26:24.246Z</time></trkpt><trkpt lat="44.2375458" lon="8.1763685"><ele>900.0</ele><time>2026-04-18T12:26:25.245Z</time></trkpt><trkpt lat="44.2375486" lon="8.1766025"><ele>900.0</ele><time>2026-04-18T12:26:26.246Z</time></trkpt><trkpt lat="44.2375182" lon="8.176819"><ele>898.5</ele><time>2026-04-18T12:26:27.246Z</time></trkpt><trkpt lat="44.2374705" lon="8.1769995"><ele>897.0</ele><time>2026-04-18T12:26:28.245Z</time></trkpt><trkpt lat="44.2374268" lon="8.1771554"><ele>895.5</ele><time>2026-04-18T12:26:29.246Z</time></trkpt><trkpt lat="44.2374036" lon="8.1773018"><ele>894.0</ele><time>2026-04-18T12:26:30.246Z</time></trkpt><trkpt lat="44.237426" lon="8.177456"><ele>894.0</ele><time>2026-04-18T12:26:31.246Z</time></trkpt><trkpt lat="44.237495" lon="8.177633"><ele>894.0</ele><time>2026-04-18T12:26:32.246Z</time></trkpt><trkpt lat="44.2375465" lon="8.1778381"><ele>894.0</ele><time>2026-04-18T12:26:33.245Z</time></trkpt><trkpt lat="44.237607" lon="8.1780759"><ele>892.6666666666667</ele><time>2026-04-18T12:26:34.246Z</time></trkpt><trkpt lat="44.2376749" lon="8.1783134"><ele>891.3333333333334</ele><time>2026-04-18T12:26:35.245Z</time></trkpt><trkpt lat="44.2377394" lon="8.1785455"><ele>890.0</ele><time>2026-04-18T12:26:36.246Z</time></trkpt><trkpt lat="44.237795" lon="8.1787826"><ele>888.3333333333334</ele><time>2026-04-18T12:26:37.246Z</time></trkpt><trkpt lat="44.2378192" lon="8.1790267"><ele>886.6666666666667</ele><time>2026-04-18T12:26:38.246Z</time></trkpt><trkpt lat="44.2378169" lon="8.1792621"><ele>885.0</ele><time>2026-04-18T12:26:39.246Z</time></trkpt><trkpt lat="44.2378107" lon="8.1794517"><ele>885.0</ele><time>2026-04-18T12:26:40.245Z</time></trkpt><trkpt lat="44.2378366" lon="8.1796088"><ele>885.0</ele><time>2026-04-18T12:26:41.246Z</time></trkpt><trkpt lat="44.2378918" lon="8.1797409"><ele>885.0</ele><time>2026-04-18T12:26:42.246Z</time></trkpt><trkpt lat="44.2379454" lon="8.1798751"><ele>885.0</ele><time>2026-04-18T12:26:43.246Z</time></trkpt><trkpt lat="44.2379685" lon="8.1800217"><ele>885.0</ele><time>2026-04-18T12:26:44.245Z</time></trkpt><trkpt lat="44.2379576" lon="8.1801804"><ele>884.5</ele><time>2026-04-18T12:26:45.246Z</time></trkpt><trkpt lat="44.2379584" lon="8.1803325"><ele>884.0</ele><time>2026-04-18T12:26:46.246Z</time></trkpt><trkpt lat="44.2379867" lon="8.1804803"><ele>883.5</ele><time>2026-04-18T12:26:47.246Z</time></trkpt><trkpt lat="44.2380627" lon="8.1806053"><ele>883.0</ele><time>2026-04-18T12:26:48.245Z</time></trkpt><trkpt lat="44.2381768" lon="8.1807049"><ele>896.3333333333333</ele><time>2026-04-18T12:26:49.245Z</time></trkpt><trkpt lat="44.2382969" lon="8.1808399"><ele>909.6666666666667</ele><time>2026-04-18T12:26:50.245Z</time></trkpt><trkpt lat="44.2384007" lon="8.1810056"><ele>923.0</ele><time>2026-04-18T12:26:51.245Z</time></trkpt><trkpt lat="44.2384755" lon="8.1811888"><ele>923.0</ele><time>2026-04-18T12:26:52.246Z</time></trkpt><trkpt lat="44.2385331" lon="8.1813698"><ele>923.0</ele><time>2026-04-18T12:26:53.246Z</time></trkpt><trkpt lat="44.2385753" lon="8.1815524"><ele>923.0</ele><time>2026-04-18T12:26:54.246Z</time></trkpt><trkpt lat="44.2385984" lon="8.1817608"><ele>923.0</ele><time>2026-04-18T12:26:55.246Z</time></trkpt><trkpt lat="44.2385991" lon="8.1819714"><ele>922.5999999999999</ele><time>2026-04-18T12:26:56.245Z</time></trkpt><trkpt lat="44.2385997" lon="8.182146"><ele>922.1999999999999</ele><time>2026-04-18T12:26:57.245Z</time></trkpt><trkpt lat="44.2386005" lon="8.1822933"><ele>921.8</ele><time>2026-04-18T12:26:58.245Z</time></trkpt><trkpt lat="44.2385687" lon="8.1823992"><ele>921.4</ele><time>2026-04-18T12:26:59.246Z</time></trkpt><trkpt lat="44.2384891" lon="8.1824571"><ele>921.0</ele><time>2026-04-18T12:27:00.246Z</time></trkpt><trkpt lat="44.238376" lon="8.1824301"><ele>919.75</ele><time>2026-04-18T12:27:01.245Z</time></trkpt><trkpt lat="44.2382565" lon="8.1823573"><ele>918.5</ele><time>2026-04-18T12:27:02.246Z</time></trkpt><trkpt lat="44.2381314" lon="8.1822821"><ele>917.25</ele><time>2026-04-18T12:27:03.247Z</time></trkpt><trkpt lat="44.2379998" lon="8.1821977"><ele>916.0</ele><time>2026-04-18T12:27:04.247Z</time></trkpt><trkpt lat="44.2378592" lon="8.1821099"><ele>916.0</ele><time>2026-04-18T12:27:05.247Z</time></trkpt><trkpt lat="44.2377129" lon="8.1820045"><ele>916.0</ele><time>2026-04-18T12:27:06.247Z</time></trkpt><trkpt lat="44.2375885" lon="8.1818935"><ele>916.0</ele><time>2026-04-18T12:27:07.247Z</time></trkpt><trkpt lat="44.237488" lon="8.1817826"><ele>916.0</ele><time>2026-04-18T12:27:08.247Z</time></trkpt><trkpt lat="44.2374094" lon="8.1816968"><ele>916.0</ele><time>2026-04-18T12:27:09.247Z</time></trkpt><trkpt lat="44.2373269" lon="8.1816603"><ele>915.9999999999999</ele><time>2026-04-18T12:27:10.246Z</time></trkpt><trkpt lat="44.2372426" lon="8.1816974"><ele>915.9999999999999</ele><time>2026-04-18T12:27:11.247Z</time></trkpt><trkpt lat="44.237157" lon="8.1817792"><ele>916.0</ele><time>2026-04-18T12:27:12.247Z</time></trkpt><trkpt lat="44.2370623" lon="8.1819235"><ele>916.0</ele><time>2026-04-18T12:27:13.247Z</time></trkpt><trkpt lat="44.2369763" lon="8.1820981"><ele>918.0</ele><time>2026-04-18T12:27:14.247Z</time></trkpt><trkpt lat="44.2368918" lon="8.1822783"><ele>920.0</ele><time>2026-04-18T12:27:15.247Z</time></trkpt><trkpt lat="44.2368103" lon="8.1824608"><ele>922.0</ele><time>2026-04-18T12:27:16.247Z</time></trkpt><trkpt lat="44.2367378" lon="8.1826518"><ele>922.0</ele><time>2026-04-18T12:27:17.247Z</time></trkpt><trkpt lat="44.2366832" lon="8.1828521"><ele>922.0</ele><time>2026-04-18T12:27:18.247Z</time></trkpt><trkpt lat="44.2366537" lon="8.1830592"><ele>922.0</ele><time>2026-04-18T12:27:19.247Z</time></trkpt><trkpt lat="44.2366432" lon="8.1832733"><ele>926.6666666666666</ele><time>2026-04-18T12:27:20.246Z</time></trkpt><trkpt lat="44.2366483" lon="8.1834923"><ele>931.3333333333333</ele><time>2026-04-18T12:27:21.247Z</time></trkpt><trkpt lat="44.2366695" lon="8.1837178"><ele>936.0</ele><time>2026-04-18T12:27:22.247Z</time></trkpt><trkpt lat="44.2367037" lon="8.1839432"><ele>938.0</ele><time>2026-04-18T12:27:23.247Z</time></trkpt><trkpt lat="44.236749" lon="8.1841623"><ele>940.0</ele><time>2026-04-18T12:27:24.247Z</time></trkpt><trkpt lat="44.2368072" lon="8.1843766"><ele>942.0</ele><time>2026-04-18T12:27:25.247Z</time></trkpt><trkpt lat="44.2368677" lon="8.1845788"><ele>942.0</ele><time>2026-04-18T12:27:26.247Z</time></trkpt><trkpt lat="44.2369221" lon="8.1847689"><ele>942.0</ele><time>2026-04-18T12:27:27.247Z</time></trkpt><trkpt lat="44.2369703" lon="8.1849272"><ele>942.0</ele><time>2026-04-18T12:27:28.246Z</time></trkpt><trkpt lat="44.2370106" lon="8.1850613"><ele>942.0</ele><time>2026-04-18T12:27:29.247Z</time></trkpt><trkpt lat="44.2370227" lon="8.1851645"><ele>942.0</ele><time>2026-04-18T12:27:30.247Z</time></trkpt><trkpt lat="44.2369677" lon="8.1853066"><ele>944.0</ele><time>2026-04-18T12:27:32.247Z</time></trkpt><trkpt lat="44.2368885" lon="8.1853376"><ele>946.0</ele><time>2026-04-18T12:27:33.246Z</time></trkpt><trkpt lat="44.2367974" lon="8.1853004"><ele>948.0</ele><time>2026-04-18T12:27:34.247Z</time></trkpt><trkpt lat="44.2367146" lon="8.1852361"><ele>950.0</ele><time>2026-04-18T12:27:35.246Z</time></trkpt><trkpt lat="44.2366336" lon="8.1851336"><ele>952.0</ele><time>2026-04-18T12:27:36.247Z</time></trkpt><trkpt lat="44.2365417" lon="8.1850165"><ele>955.25</ele><time>2026-04-18T12:27:37.246Z</time></trkpt><trkpt lat="44.2364393" lon="8.1848976"><ele>958.5</ele><time>2026-04-18T12:27:38.247Z</time></trkpt><trkpt lat="44.2363296" lon="8.1847831"><ele>961.75</ele><time>2026-04-18T12:27:39.247Z</time></trkpt><trkpt lat="44.23621" lon="8.1846734"><ele>965.0</ele><time>2026-04-18T12:27:40.247Z</time></trkpt><trkpt lat="44.2360812" lon="8.1845648"><ele>956.5</ele><time>2026-04-18T12:27:41.247Z</time></trkpt><trkpt lat="44.2359537" lon="8.1844642"><ele>948.0</ele><time>2026-04-18T12:27:42.247Z</time></trkpt><trkpt lat="44.2358119" lon="8.184399"><ele>939.5</ele><time>2026-04-18T12:27:43.247Z</time></trkpt><trkpt lat="44.235678" lon="8.1843926"><ele>931.0</ele><time>2026-04-18T12:27:44.247Z</time></trkpt><trkpt lat="44.2355463" lon="8.1844192"><ele>928.5</ele><time>2026-04-18T12:27:45.247Z</time></trkpt><trkpt lat="44.2354192" lon="8.1844875"><ele>926.0</ele><time>2026-04-18T12:27:46.247Z</time></trkpt><trkpt lat="44.2352986" lon="8.1845836"><ele>923.5</ele><time>2026-04-18T12:27:47.247Z</time></trkpt><trkpt lat="44.235182" lon="8.1846994"><ele>921.0</ele><time>2026-04-18T12:27:48.247Z</time></trkpt><trkpt lat="44.2350658" lon="8.1848404"><ele>921.25</ele><time>2026-04-18T12:27:49.246Z</time></trkpt><trkpt lat="44.2349562" lon="8.1849868"><ele>921.5</ele><time>2026-04-18T12:27:50.247Z</time></trkpt><trkpt lat="44.2348637" lon="8.1851347"><ele>921.75</ele><time>2026-04-18T12:27:51.247Z</time></trkpt><trkpt lat="44.2347964" lon="8.1852793"><ele>922.0</ele><time>2026-04-18T12:27:52.247Z</time></trkpt><trkpt lat="44.234753" lon="8.1854372"><ele>922.0</ele><time>2026-04-18T12:27:53.247Z</time></trkpt><trkpt lat="44.2347287" lon="8.1856104"><ele>922.0</ele><time>2026-04-18T12:27:54.247Z</time></trkpt><trkpt lat="44.2347021" lon="8.1857956"><ele>922.0</ele><time>2026-04-18T12:27:55.247Z</time></trkpt><trkpt lat="44.2346693" lon="8.1859846"><ele>922.0</ele><time>2026-04-18T12:27:56.247Z</time></trkpt><trkpt lat="44.2346203" lon="8.1861766"><ele>927.5</ele><time>2026-04-18T12:27:57.247Z</time></trkpt><trkpt lat="44.2345594" lon="8.1863544"><ele>933.0</ele><time>2026-04-18T12:27:58.247Z</time></trkpt><trkpt lat="44.2344886" lon="8.1865233"><ele>938.5</ele><time>2026-04-18T12:27:59.246Z</time></trkpt><trkpt lat="44.2344043" lon="8.1866933"><ele>944.0</ele><time>2026-04-18T12:28:00.247Z</time></trkpt><trkpt lat="44.2342954" lon="8.1868464"><ele>942.0</ele><time>2026-04-18T12:28:01.247Z</time></trkpt><trkpt lat="44.2341643" lon="8.1869764"><ele>940.0</ele><time>2026-04-18T12:28:02.247Z</time></trkpt><trkpt lat="44.2340339" lon="8.1870962"><ele>938.0</ele><time>2026-04-18T12:28:03.247Z</time></trkpt><trkpt lat="44.2339233" lon="8.1872164"><ele>942.0</ele><time>2026-04-18T12:28:04.247Z</time></trkpt><trkpt lat="44.23383" lon="8.1873544"><ele>946.0</ele><time>2026-04-18T12:28:05.247Z</time></trkpt><trkpt lat="44.2337528" lon="8.1875283"><ele>950.0</ele><time>2026-04-18T12:28:06.246Z</time></trkpt><trkpt lat="44.2336931" lon="8.1877293"><ele>954.0</ele><time>2026-04-18T12:28:07.247Z</time></trkpt><trkpt lat="44.2336436" lon="8.187927"><ele>954.0</ele><time>2026-04-18T12:28:08.246Z</time></trkpt><trkpt lat="44.2336161" lon="8.1881006"><ele>954.0000000000001</ele><time>2026-04-18T12:28:09.247Z</time></trkpt><trkpt lat="44.2336237" lon="8.1882282"><ele>954.0000000000001</ele><time>2026-04-18T12:28:10.247Z</time></trkpt><trkpt lat="44.2336563" lon="8.188355"><ele>954.0</ele><time>2026-04-18T12:28:11.247Z</time></trkpt><trkpt lat="44.2337337" lon="8.1884921"><ele>954.0</ele><time>2026-04-18T12:28:12.247Z</time></trkpt><trkpt lat="44.2338174" lon="8.1886462"><ele>954.4000000000001</ele><time>2026-04-18T12:28:13.247Z</time></trkpt><trkpt lat="44.2338862" lon="8.1888042"><ele>954.8000000000001</ele><time>2026-04-18T12:28:14.247Z</time></trkpt><trkpt lat="44.2339331" lon="8.1889686"><ele>955.1999999999999</ele><time>2026-04-18T12:28:15.247Z</time></trkpt><trkpt lat="44.2339598" lon="8.1891088"><ele>955.5999999999999</ele><time>2026-04-18T12:28:16.247Z</time></trkpt><trkpt lat="44.2340175" lon="8.1891975"><ele>956.0</ele><time>2026-04-18T12:28:17.246Z</time></trkpt><trkpt lat="44.2341127" lon="8.1892574"><ele>963.5</ele><time>2026-04-18T12:28:18.246Z</time></trkpt><trkpt lat="44.234221" lon="8.1893213"><ele>971.0</ele><time>2026-04-18T12:28:19.247Z</time></trkpt><trkpt lat="44.2343423" lon="8.1893784"><ele>978.5</ele><time>2026-04-18T12:28:20.247Z</time></trkpt><trkpt lat="44.2344566" lon="8.1894456"><ele>986.0</ele><time>2026-04-18T12:28:21.247Z</time></trkpt><trkpt lat="44.2345545" lon="8.1895062"><ele>986.0000000000001</ele><time>2026-04-18T12:28:22.247Z</time></trkpt><trkpt lat="44.2346284" lon="8.189582"><ele>986.0</ele><time>2026-04-18T12:28:23.247Z</time></trkpt><trkpt lat="44.2346397" lon="8.189681"><ele>986.0</ele><time>2026-04-18T12:28:24.247Z</time></trkpt><trkpt lat="44.2346048" lon="8.1897811"><ele>986.0</ele><time>2026-04-18T12:28:25.247Z</time></trkpt><trkpt lat="44.2345534" lon="8.1898873"><ele>986.0000000000001</ele><time>2026-04-18T12:28:26.247Z</time></trkpt><trkpt lat="44.2344875" lon="8.1900115"><ele>986.0</ele><time>2026-04-18T12:28:27.247Z</time></trkpt><trkpt lat="44.2344166" lon="8.190146"><ele>984.0</ele><time>2026-04-18T12:28:28.247Z</time></trkpt><trkpt lat="44.2343393" lon="8.1902817"><ele>982.0</ele><time>2026-04-18T12:28:29.247Z</time></trkpt><trkpt lat="44.234238" lon="8.1904154"><ele>980.0</ele><time>2026-04-18T12:28:30.247Z</time></trkpt><trkpt lat="44.2341145" lon="8.1905381"><ele>978.0</ele><time>2026-04-18T12:28:31.247Z</time></trkpt><trkpt lat="44.2339868" lon="8.1906634"><ele>976.5</ele><time>2026-04-18T12:28:32.246Z</time></trkpt><trkpt lat="44.2338715" lon="8.1907893"><ele>975.0</ele><time>2026-04-18T12:28:33.247Z</time></trkpt><trkpt lat="44.2337725" lon="8.1909175"><ele>973.5</ele><time>2026-04-18T12:28:34.247Z</time></trkpt><trkpt lat="44.2336886" lon="8.1910463"><ele>972.0</ele><time>2026-04-18T12:28:35.247Z</time></trkpt><trkpt lat="44.2336282" lon="8.1911834"><ele>972.0</ele><time>2026-04-18T12:28:36.247Z</time></trkpt><trkpt lat="44.233628" lon="8.1913444"><ele>972.0</ele><time>2026-04-18T12:28:37.246Z</time></trkpt><trkpt lat="44.2336674" lon="8.1915119"><ele>972.0</ele><time>2026-04-18T12:28:38.247Z</time></trkpt><trkpt lat="44.2337356" lon="8.1916886"><ele>972.0</ele><time>2026-04-18T12:28:39.247Z</time></trkpt><trkpt lat="44.233828" lon="8.1918744"><ele>974.0</ele><time>2026-04-18T12:28:40.247Z</time></trkpt><trkpt lat="44.2339415" lon="8.192061"><ele>976.0</ele><time>2026-04-18T12:28:41.246Z</time></trkpt><trkpt lat="44.2340482" lon="8.1922509"><ele>978.0</ele><time>2026-04-18T12:28:42.247Z</time></trkpt><trkpt lat="44.2341334" lon="8.1924568"><ele>986.0</ele><time>2026-04-18T12:28:43.247Z</time></trkpt><trkpt lat="44.2342232" lon="8.1926803"><ele>994.0</ele><time>2026-04-18T12:28:44.248Z</time></trkpt><trkpt lat="44.2343095" lon="8.1929057"><ele>1002.0</ele><time>2026-04-18T12:28:45.248Z</time></trkpt><trkpt lat="44.2343973" lon="8.1931317"><ele>999.0</ele><time>2026-04-18T12:28:46.248Z</time></trkpt><trkpt lat="44.2344876" lon="8.1933602"><ele>996.0</ele><time>2026-04-18T12:28:47.248Z</time></trkpt><trkpt lat="44.2345691" lon="8.1935857"><ele>993.0</ele><time>2026-04-18T12:28:48.248Z</time></trkpt><trkpt lat="44.2346356" lon="8.1938167"><ele>993.0</ele><time>2026-04-18T12:28:49.248Z</time></trkpt><trkpt lat="44.2346828" lon="8.1940537"><ele>993.0</ele><time>2026-04-18T12:28:50.248Z</time></trkpt><trkpt lat="44.2346986" lon="8.1942942"><ele>993.0</ele><time>2026-04-18T12:28:51.248Z</time></trkpt><trkpt lat="44.2347026" lon="8.1945355"><ele>993.0</ele><time>2026-04-18T12:28:52.247Z</time></trkpt><trkpt lat="44.2347073" lon="8.1947546"><ele>993.0</ele><time>2026-04-18T12:28:53.247Z</time></trkpt><trkpt lat="44.2347278" lon="8.1949296"><ele>993.0</ele><time>2026-04-18T12:28:54.248Z</time></trkpt><trkpt lat="44.2347716" lon="8.1950621"><ele>993.0</ele><time>2026-04-18T12:28:55.248Z</time></trkpt><trkpt lat="44.2348538" lon="8.195152"><ele>1000.5</ele><time>2026-04-18T12:28:56.248Z</time></trkpt><trkpt lat="44.2349648" lon="8.1952274"><ele>1008.0</ele><time>2026-04-18T12:28:57.248Z</time></trkpt><trkpt lat="44.2350787" lon="8.1953084"><ele>1015.5</ele><time>2026-04-18T12:28:58.248Z</time></trkpt><trkpt lat="44.2351747" lon="8.1954054"><ele>1023.0</ele><time>2026-04-18T12:28:59.248Z</time></trkpt><trkpt lat="44.235238" lon="8.1955364"><ele>1023.0</ele><time>2026-04-18T12:29:00.248Z</time></trkpt><trkpt lat="44.2352663" lon="8.1956575"><ele>1023.0</ele><time>2026-04-18T12:29:01.247Z</time></trkpt><trkpt lat="44.2352641" lon="8.1957486"><ele>1023.0</ele><time>2026-04-18T12:29:02.247Z</time></trkpt><trkpt lat="44.235164" lon="8.1958429"><ele>1023.0</ele><time>2026-04-18T12:29:04.248Z</time></trkpt><trkpt lat="44.2350754" lon="8.1958317"><ele>1023.0</ele><time>2026-04-18T12:29:05.248Z</time></trkpt><trkpt lat="44.2349731" lon="8.1957978"><ele>1023.75</ele><time>2026-04-18T12:29:06.248Z</time></trkpt><trkpt lat="44.2348697" lon="8.1957666"><ele>1024.5</ele><time>2026-04-18T12:29:07.248Z</time></trkpt><trkpt lat="44.234748" lon="8.1957377"><ele>1025.25</ele><time>2026-04-18T12:29:08.247Z</time></trkpt><trkpt lat="44.2346183" lon="8.195703"><ele>1026.0</ele><time>2026-04-18T12:29:09.248Z</time></trkpt><trkpt lat="44.234481" lon="8.1956533"><ele>1021.75</ele><time>2026-04-18T12:29:10.248Z</time></trkpt><trkpt lat="44.2343524" lon="8.1955917"><ele>1017.5</ele><time>2026-04-18T12:29:11.248Z</time></trkpt><trkpt lat="44.2342417" lon="8.195505"><ele>1013.25</ele><time>2026-04-18T12:29:12.248Z</time></trkpt><trkpt lat="44.2341362" lon="8.1954111"><ele>1009.0</ele><time>2026-04-18T12:29:13.248Z</time></trkpt><trkpt lat="44.234004" lon="8.1953429"><ele>1011.6666666666666</ele><time>2026-04-18T12:29:14.248Z</time></trkpt><trkpt lat="44.2338492" lon="8.1953056"><ele>1014.3333333333333</ele><time>2026-04-18T12:29:15.247Z</time></trkpt><trkpt lat="44.2336838" lon="8.1952641"><ele>1017.0</ele><time>2026-04-18T12:29:16.247Z</time></trkpt><trkpt lat="44.2335104" lon="8.1952133"><ele>1017.0</ele><time>2026-04-18T12:29:17.247Z</time></trkpt><trkpt lat="44.2333434" lon="8.1951687"><ele>1017.0</ele><time>2026-04-18T12:29:18.248Z</time></trkpt><trkpt lat="44.2331956" lon="8.1951334"><ele>1017.0</ele><time>2026-04-18T12:29:19.247Z</time></trkpt><trkpt lat="44.2330749" lon="8.1951208"><ele>1017.0</ele><time>2026-04-18T12:29:20.248Z</time></trkpt><trkpt lat="44.2329804" lon="8.1951325"><ele>1014.75</ele><time>2026-04-18T12:29:21.248Z</time></trkpt><trkpt lat="44.2329015" lon="8.1951924"><ele>1012.5</ele><time>2026-04-18T12:29:22.248Z</time></trkpt><trkpt lat="44.2328171" lon="8.1953104"><ele>1010.25</ele><time>2026-04-18T12:29:23.247Z</time></trkpt><trkpt lat="44.2327214" lon="8.1954684"><ele>1008.0</ele><time>2026-04-18T12:29:24.248Z</time></trkpt><trkpt lat="44.2326253" lon="8.1956227"><ele>1012.3333333333333</ele><time>2026-04-18T12:29:25.248Z</time></trkpt><trkpt lat="44.2325233" lon="8.1957754"><ele>1016.6666666666666</ele><time>2026-04-18T12:29:26.248Z</time></trkpt><trkpt lat="44.2324139" lon="8.1959247"><ele>1021.0</ele><time>2026-04-18T12:29:27.247Z</time></trkpt><trkpt lat="44.2322999" lon="8.196077"><ele>1021.0</ele><time>2026-04-18T12:29:28.248Z</time></trkpt><trkpt lat="44.2321805" lon="8.1962256"><ele>1021.0</ele><time>2026-04-18T12:29:29.248Z</time></trkpt><trkpt lat="44.2320653" lon="8.1963687"><ele>1021.0</ele><time>2026-04-18T12:29:30.248Z</time></trkpt><trkpt lat="44.2319591" lon="8.1964994"><ele>1023.4</ele><time>2026-04-18T12:29:31.248Z</time></trkpt><trkpt lat="44.2318598" lon="8.1966068"><ele>1025.8</ele><time>2026-04-18T12:29:32.248Z</time></trkpt><trkpt lat="44.231763" lon="8.196682"><ele>1028.1999999999998</ele><time>2026-04-18T12:29:33.248Z</time></trkpt><trkpt lat="44.2316671" lon="8.1967206"><ele>1030.6</ele><time>2026-04-18T12:29:34.248Z</time></trkpt><trkpt lat="44.2315761" lon="8.1967288"><ele>1033.0</ele><time>2026-04-18T12:29:35.248Z</time></trkpt><trkpt lat="44.2314879" lon="8.1967365"><ele>1032.75</ele><time>2026-04-18T12:29:36.248Z</time></trkpt><trkpt lat="44.2313897" lon="8.1967427"><ele>1032.5</ele><time>2026-04-18T12:29:37.248Z</time></trkpt><trkpt lat="44.23126" lon="8.1967412"><ele>1032.25</ele><time>2026-04-18T12:29:38.248Z</time></trkpt><trkpt lat="44.2311177" lon="8.1967346"><ele>1032.0</ele><time>2026-04-18T12:29:39.248Z</time></trkpt><trkpt lat="44.2309774" lon="8.1967203"><ele>1032.0</ele><time>2026-04-18T12:29:40.248Z</time></trkpt><trkpt lat="44.2308418" lon="8.1967038"><ele>1032.0</ele><time>2026-04-18T12:29:41.247Z</time></trkpt><trkpt lat="44.2307119" lon="8.1966966"><ele>1032.0</ele><time>2026-04-18T12:29:42.248Z</time></trkpt><trkpt lat="44.2305967" lon="8.1967028"><ele>1032.0</ele><time>2026-04-18T12:29:43.248Z</time></trkpt><trkpt lat="44.23049" lon="8.1967242"><ele>1033.8</ele><time>2026-04-18T12:29:44.248Z</time></trkpt><trkpt lat="44.2303999" lon="8.1967758"><ele>1035.6</ele><time>2026-04-18T12:29:45.247Z</time></trkpt><trkpt lat="44.2303342" lon="8.1968591"><ele>1037.3999999999999</ele><time>2026-04-18T12:29:46.248Z</time></trkpt><trkpt lat="44.230276" lon="8.1969696"><ele>1039.2</ele><time>2026-04-18T12:29:47.248Z</time></trkpt><trkpt lat="44.2302373" lon="8.1970937"><ele>1041.0</ele><time>2026-04-18T12:29:48.248Z</time></trkpt><trkpt lat="44.2302291" lon="8.1972431"><ele>1040.0</ele><time>2026-04-18T12:29:49.247Z</time></trkpt><trkpt lat="44.2302452" lon="8.1973943"><ele>1039.0</ele><time>2026-04-18T12:29:50.248Z</time></trkpt><trkpt lat="44.2302787" lon="8.1975331"><ele>1038.0</ele><time>2026-04-18T12:29:51.247Z</time></trkpt><trkpt lat="44.2303418" lon="8.1976462"><ele>1037.0</ele><time>2026-04-18T12:29:52.248Z</time></trkpt><trkpt lat="44.230422" lon="8.1977414"><ele>1036.0</ele><time>2026-04-18T12:29:53.248Z</time></trkpt><trkpt lat="44.2305064" lon="8.1978201"><ele>1036.0</ele><time>2026-04-18T12:29:54.248Z</time></trkpt><trkpt lat="44.2305916" lon="8.1978786"><ele>1036.0</ele><time>2026-04-18T12:29:55.248Z</time></trkpt><trkpt lat="44.2306569" lon="8.1979709"><ele>1036.0</ele><time>2026-04-18T12:29:56.248Z</time></trkpt><trkpt lat="44.230721" lon="8.1980584"><ele>1036.0</ele><time>2026-04-18T12:29:57.247Z</time></trkpt><trkpt lat="44.230779" lon="8.1981649"><ele>1036.0</ele><time>2026-04-18T12:29:58.248Z</time></trkpt><trkpt lat="44.2308572" lon="8.1982892"><ele>1036.5</ele><time>2026-04-18T12:29:59.248Z</time></trkpt><trkpt lat="44.230936" lon="8.1984419"><ele>1037.0</ele><time>2026-04-18T12:30:00.248Z</time></trkpt><trkpt lat="44.2310049" lon="8.1985823"><ele>1037.5</ele><time>2026-04-18T12:30:01.247Z</time></trkpt><trkpt lat="44.231101" lon="8.1987175"><ele>1038.0</ele><time>2026-04-18T12:30:02.247Z</time></trkpt><trkpt lat="44.2312087" lon="8.1988562"><ele>1038.0</ele><time>2026-04-18T12:30:03.248Z</time></trkpt><trkpt lat="44.2313231" lon="8.1989965"><ele>1038.0</ele><time>2026-04-18T12:30:04.248Z</time></trkpt><trkpt lat="44.2314307" lon="8.1991405"><ele>1038.0</ele><time>2026-04-18T12:30:05.247Z</time></trkpt><trkpt lat="44.2315254" lon="8.1992939"><ele>1038.0</ele><time>2026-04-18T12:30:06.247Z</time></trkpt><trkpt lat="44.23162" lon="8.1994431"><ele>1037.6666666666667</ele><time>2026-04-18T12:30:07.248Z</time></trkpt><trkpt lat="44.231721" lon="8.1995892"><ele>1037.3333333333335</ele><time>2026-04-18T12:30:08.247Z</time></trkpt><trkpt lat="44.2318229" lon="8.1997404"><ele>1037.0</ele><time>2026-04-18T12:30:09.247Z</time></trkpt><trkpt lat="44.2319338" lon="8.1998963"><ele>1030.3333333333335</ele><time>2026-04-18T12:30:10.248Z</time></trkpt><trkpt lat="44.2320317" lon="8.2000643"><ele>1023.6666666666667</ele><time>2026-04-18T12:30:11.248Z</time></trkpt><trkpt lat="44.2321126" lon="8.200247"><ele>1017.0</ele><time>2026-04-18T12:30:12.248Z</time></trkpt><trkpt lat="44.2321779" lon="8.2004283"><ele>1017.0</ele><time>2026-04-18T12:30:13.248Z</time></trkpt><trkpt lat="44.2322331" lon="8.200605"><ele>1017.0</ele><time>2026-04-18T12:30:14.247Z</time></trkpt><trkpt lat="44.2322545" lon="8.2007806"><ele>1017.0</ele><time>2026-04-18T12:30:15.247Z</time></trkpt><trkpt lat="44.2322382" lon="8.2009536"><ele>1017.0</ele><time>2026-04-18T12:30:16.248Z</time></trkpt><trkpt lat="44.2322169" lon="8.2011121"><ele>1014.0</ele><time>2026-04-18T12:30:17.248Z</time></trkpt><trkpt lat="44.2322007" lon="8.2012768"><ele>1011.0</ele><time>2026-04-18T12:30:18.247Z</time></trkpt><trkpt lat="44.2321951" lon="8.2014353"><ele>1008.0</ele><time>2026-04-18T12:30:19.248Z</time></trkpt><trkpt lat="44.232216" lon="8.2015935"><ele>1005.0</ele><time>2026-04-18T12:30:20.248Z</time></trkpt><trkpt lat="44.2322763" lon="8.2017504"><ele>1006.25</ele><time>2026-04-18T12:30:21.249Z</time></trkpt><trkpt lat="44.2323683" lon="8.2018969"><ele>1007.5</ele><time>2026-04-18T12:30:22.249Z</time></trkpt><trkpt lat="44.2324585" lon="8.2020713"><ele>1008.75</ele><time>2026-04-18T12:30:23.249Z</time></trkpt><trkpt lat="44.2325285" lon="8.2022629"><ele>1010.0</ele><time>2026-04-18T12:30:24.249Z</time></trkpt><trkpt lat="44.2325894" lon="8.2024663"><ele>1010.0</ele><time>2026-04-18T12:30:25.249Z</time></trkpt><trkpt lat="44.2326331" lon="8.2026636"><ele>1010.0</ele><time>2026-04-18T12:30:26.249Z</time></trkpt><trkpt lat="44.2326573" lon="8.2028524"><ele>1010.0</ele><time>2026-04-18T12:30:27.249Z</time></trkpt><trkpt lat="44.2326636" lon="8.2030386"><ele>1010.0</ele><time>2026-04-18T12:30:28.249Z</time></trkpt><trkpt lat="44.2326199" lon="8.2032225"><ele>1007.3333333333334</ele><time>2026-04-18T12:30:29.249Z</time></trkpt><trkpt lat="44.2325765" lon="8.2034108"><ele>1004.6666666666667</ele><time>2026-04-18T12:30:30.248Z</time></trkpt><trkpt lat="44.232535" lon="8.2036301"><ele>1002.0</ele><time>2026-04-18T12:30:31.249Z</time></trkpt><trkpt lat="44.2325172" lon="8.2038575"><ele>1002.3333333333333</ele><time>2026-04-18T12:30:32.248Z</time></trkpt><trkpt lat="44.2325108" lon="8.2040922"><ele>1002.6666666666666</ele><time>2026-04-18T12:30:33.248Z</time></trkpt><trkpt lat="44.2324963" lon="8.2043446"><ele>1003.0</ele><time>2026-04-18T12:30:34.249Z</time></trkpt><trkpt lat="44.2324737" lon="8.204589"><ele>1003.0</ele><time>2026-04-18T12:30:35.248Z</time></trkpt><trkpt lat="44.2324382" lon="8.2048358"><ele>1003.0</ele><time>2026-04-18T12:30:36.249Z</time></trkpt><trkpt lat="44.2323947" lon="8.2050803"><ele>1003.0</ele><time>2026-04-18T12:30:37.249Z</time></trkpt><trkpt lat="44.2323464" lon="8.2053135"><ele>987.3333333333333</ele><time>2026-04-18T12:30:38.249Z</time></trkpt><trkpt lat="44.2322994" lon="8.2055343"><ele>971.6666666666667</ele><time>2026-04-18T12:30:39.249Z</time></trkpt><trkpt lat="44.2322563" lon="8.2057508"><ele>956.0</ele><time>2026-04-18T12:30:40.248Z</time></trkpt><trkpt lat="44.2322152" lon="8.2059508"><ele>956.0</ele><time>2026-04-18T12:30:41.249Z</time></trkpt><trkpt lat="44.232172" lon="8.2061399"><ele>956.0</ele><time>2026-04-18T12:30:42.249Z</time></trkpt><trkpt lat="44.232144" lon="8.2063138"><ele>956.0</ele><time>2026-04-18T12:30:43.249Z</time></trkpt><trkpt lat="44.2321515" lon="8.2064908"><ele>956.0</ele><time>2026-04-18T12:30:44.249Z</time></trkpt><trkpt lat="44.2321961" lon="8.2066827"><ele>957.0</ele><time>2026-04-18T12:30:45.249Z</time></trkpt><trkpt lat="44.2322301" lon="8.2068791"><ele>958.0</ele><time>2026-04-18T12:30:46.249Z</time></trkpt><trkpt lat="44.2322524" lon="8.2070812"><ele>959.0</ele><time>2026-04-18T12:30:47.249Z</time></trkpt><trkpt lat="44.2322592" lon="8.2072683"><ele>960.0</ele><time>2026-04-18T12:30:48.249Z</time></trkpt><trkpt lat="44.2322765" lon="8.2074491"><ele>967.75</ele><time>2026-04-18T12:30:49.249Z</time></trkpt><trkpt lat="44.2323537" lon="8.2075711"><ele>975.5</ele><time>2026-04-18T12:30:50.249Z</time></trkpt><trkpt lat="44.2324449" lon="8.2076681"><ele>983.25</ele><time>2026-04-18T12:30:51.249Z</time></trkpt><trkpt lat="44.2325372" lon="8.2077643"><ele>991.0</ele><time>2026-04-18T12:30:52.249Z</time></trkpt><trkpt lat="44.232604" lon="8.2079166"><ele>991.0</ele><time>2026-04-18T12:30:53.248Z</time></trkpt><trkpt lat="44.2326297" lon="8.2081223"><ele>991.0</ele><time>2026-04-18T12:30:54.248Z</time></trkpt><trkpt lat="44.2326485" lon="8.2083461"><ele>991.0</ele><time>2026-04-18T12:30:55.248Z</time></trkpt><trkpt lat="44.2326649" lon="8.2085305"><ele>991.0</ele><time>2026-04-18T12:30:56.248Z</time></trkpt><trkpt lat="44.2326528" lon="8.2087263"><ele>986.0</ele><time>2026-04-18T12:30:57.248Z</time></trkpt><trkpt lat="44.232622" lon="8.2089314"><ele>981.0</ele><time>2026-04-18T12:30:58.249Z</time></trkpt><trkpt lat="44.2325785" lon="8.2091445"><ele>976.0</ele><time>2026-04-18T12:30:59.248Z</time></trkpt><trkpt lat="44.2325154" lon="8.2093608"><ele>975.0</ele><time>2026-04-18T12:31:00.249Z</time></trkpt><trkpt lat="44.2324539" lon="8.2095852"><ele>974.0</ele><time>2026-04-18T12:31:01.249Z</time></trkpt><trkpt lat="44.2324024" lon="8.2098231"><ele>973.0</ele><time>2026-04-18T12:31:02.248Z</time></trkpt><trkpt lat="44.232358" lon="8.2100712"><ele>973.0</ele><time>2026-04-18T12:31:03.249Z</time></trkpt><trkpt lat="44.2323162" lon="8.2103134"><ele>973.0</ele><time>2026-04-18T12:31:04.249Z</time></trkpt><trkpt lat="44.232268" lon="8.2105464"><ele>973.0</ele><time>2026-04-18T12:31:05.248Z</time></trkpt><trkpt lat="44.2322025" lon="8.210772"><ele>959.6666666666666</ele><time>2026-04-18T12:31:06.249Z</time></trkpt><trkpt lat="44.2321198" lon="8.2109774"><ele>946.3333333333333</ele><time>2026-04-18T12:31:07.248Z</time></trkpt><trkpt lat="44.232017" lon="8.2111788"><ele>933.0</ele><time>2026-04-18T12:31:08.248Z</time></trkpt><trkpt lat="44.2319297" lon="8.2113855"><ele>937.0</ele><time>2026-04-18T12:31:09.249Z</time></trkpt><trkpt lat="44.2318624" lon="8.2115977"><ele>941.0</ele><time>2026-04-18T12:31:10.249Z</time></trkpt><trkpt lat="44.2318096" lon="8.2118043"><ele>945.0</ele><time>2026-04-18T12:31:11.249Z</time></trkpt><trkpt lat="44.2317661" lon="8.2120166"><ele>945.0</ele><time>2026-04-18T12:31:12.249Z</time></trkpt><trkpt lat="44.2317418" lon="8.2122464"><ele>945.0</ele><time>2026-04-18T12:31:13.248Z</time></trkpt><trkpt lat="44.2317319" lon="8.2124845"><ele>945.0</ele><time>2026-04-18T12:31:14.249Z</time></trkpt><trkpt lat="44.23172" lon="8.2127171"><ele>945.6666666666667</ele><time>2026-04-18T12:31:15.248Z</time></trkpt><trkpt lat="44.2316972" lon="8.2129485"><ele>946.3333333333334</ele><time>2026-04-18T12:31:16.248Z</time></trkpt><trkpt lat="44.2316586" lon="8.2131694"><ele>947.0</ele><time>2026-04-18T12:31:17.249Z</time></trkpt><trkpt lat="44.2316146" lon="8.2133743"><ele>948.0</ele><time>2026-04-18T12:31:18.249Z</time></trkpt><trkpt lat="44.231572" lon="8.2135561"><ele>949.0</ele><time>2026-04-18T12:31:19.249Z</time></trkpt><trkpt lat="44.2315306" lon="8.2137223"><ele>950.0</ele><time>2026-04-18T12:31:20.249Z</time></trkpt><trkpt lat="44.2314778" lon="8.2138615"><ele>951.0</ele><time>2026-04-18T12:31:21.249Z</time></trkpt><trkpt lat="44.2314124" lon="8.2139635"><ele>950.6666666666666</ele><time>2026-04-18T12:31:22.248Z</time></trkpt><trkpt lat="44.2313539" lon="8.2140354"><ele>950.3333333333333</ele><time>2026-04-18T12:31:23.248Z</time></trkpt><trkpt lat="44.2312999" lon="8.2141126"><ele>950.0</ele><time>2026-04-18T12:31:25.249Z</time></trkpt><trkpt lat="44.2313268" lon="8.2142043"><ele>949.6666666666666</ele><time>2026-04-18T12:31:28.248Z</time></trkpt><trkpt lat="44.2313877" lon="8.2142449"><ele>949.3333333333333</ele><time>2026-04-18T12:31:30.248Z</time></trkpt><trkpt lat="44.2314793" lon="8.2143097"><ele>949.0</ele><time>2026-04-18T12:31:32.248Z</time></trkpt><trkpt lat="44.2315373" lon="8.2143782"><ele>949.0</ele><time>2026-04-18T12:31:33.249Z</time></trkpt><trkpt lat="44.2315937" lon="8.2144629"><ele>949.0000000000001</ele><time>2026-04-18T12:31:34.249Z</time></trkpt><trkpt lat="44.2316596" lon="8.2145602"><ele>949.0000000000001</ele><time>2026-04-18T12:31:35.249Z</time></trkpt><trkpt lat="44.231731" lon="8.2146709"><ele>949.0</ele><time>2026-04-18T12:31:36.248Z</time></trkpt><trkpt lat="44.2318106" lon="8.2147828"><ele>949.0</ele><time>2026-04-18T12:31:37.249Z</time></trkpt><trkpt lat="44.2319006" lon="8.2149031"><ele>947.0</ele><time>2026-04-18T12:31:38.249Z</time></trkpt><trkpt lat="44.2319893" lon="8.2150232"><ele>945.0</ele><time>2026-04-18T12:31:39.249Z</time></trkpt><trkpt lat="44.2320921" lon="8.2151428"><ele>943.0</ele><time>2026-04-18T12:31:40.249Z</time></trkpt><trkpt lat="44.2321978" lon="8.2152712"><ele>941.0</ele><time>2026-04-18T12:31:41.248Z</time></trkpt><trkpt lat="44.2323074" lon="8.2154035"><ele>943.6666666666667</ele><time>2026-04-18T12:31:42.249Z</time></trkpt><trkpt lat="44.2324248" lon="8.2155434"><ele>946.3333333333333</ele><time>2026-04-18T12:31:43.248Z</time></trkpt><trkpt lat="44.2325449" lon="8.2156837"><ele>949.0</ele><time>2026-04-18T12:31:44.249Z</time></trkpt><trkpt lat="44.2326549" lon="8.2158474"><ele>949.0</ele><time>2026-04-18T12:31:45.249Z</time></trkpt><trkpt lat="44.2327722" lon="8.2160157"><ele>949.0</ele><time>2026-04-18T12:31:46.249Z</time></trkpt><trkpt lat="44.232885" lon="8.2161841"><ele>949.0</ele><time>2026-04-18T12:31:47.249Z</time></trkpt><trkpt lat="44.2330009" lon="8.2163594"><ele>951.3333333333333</ele><time>2026-04-18T12:31:48.249Z</time></trkpt><trkpt lat="44.2331124" lon="8.2165304"><ele>953.6666666666667</ele><time>2026-04-18T12:31:49.248Z</time></trkpt><trkpt lat="44.233225" lon="8.2167062"><ele>956.0</ele><time>2026-04-18T12:31:50.249Z</time></trkpt><trkpt lat="44.2333398" lon="8.2168749"><ele>956.0</ele><time>2026-04-18T12:31:51.249Z</time></trkpt><trkpt lat="44.2334587" lon="8.217029"><ele>956.0</ele><time>2026-04-18T12:31:52.249Z</time></trkpt><trkpt lat="44.2335929" lon="8.2171725"><ele>956.0</ele><time>2026-04-18T12:31:53.248Z</time></trkpt><trkpt lat="44.2337454" lon="8.217286"><ele>958.3333333333334</ele><time>2026-04-18T12:31:54.249Z</time></trkpt><trkpt lat="44.233913" lon="8.2173895"><ele>960.6666666666667</ele><time>2026-04-18T12:31:55.249Z</time></trkpt><trkpt lat="44.234092" lon="8.2174928"><ele>963.0</ele><time>2026-04-18T12:31:56.248Z</time></trkpt><trkpt lat="44.2342707" lon="8.2175899"><ele>963.0</ele><time>2026-04-18T12:31:57.249Z</time></trkpt><trkpt lat="44.2344572" lon="8.2176957"><ele>963.0</ele><time>2026-04-18T12:31:58.249Z</time></trkpt><trkpt lat="44.234642" lon="8.217807"><ele>963.0</ele><time>2026-04-18T12:31:59.249Z</time></trkpt><trkpt lat="44.2348269" lon="8.2179174"><ele>961.3333333333333</ele><time>2026-04-18T12:32:00.249Z</time></trkpt><trkpt lat="44.2350081" lon="8.2180355"><ele>959.6666666666666</ele><time>2026-04-18T12:32:01.25Z</time></trkpt><trkpt lat="44.2351886" lon="8.218165"><ele>958.0</ele><time>2026-04-18T12:32:02.25Z</time></trkpt><trkpt lat="44.2353613" lon="8.2183139"><ele>958.0</ele><time>2026-04-18T12:32:03.249Z</time></trkpt><trkpt lat="44.2355167" lon="8.2184959"><ele>958.0</ele><time>2026-04-18T12:32:04.249Z</time></trkpt><trkpt lat="44.2356685" lon="8.2186884"><ele>958.0</ele><time>2026-04-18T12:32:05.25Z</time></trkpt><trkpt lat="44.2358226" lon="8.2188814"><ele>959.6666666666666</ele><time>2026-04-18T12:32:06.249Z</time></trkpt><trkpt lat="44.2359942" lon="8.2190448"><ele>961.3333333333333</ele><time>2026-04-18T12:32:07.248Z</time></trkpt><trkpt lat="44.2361739" lon="8.2191876"><ele>963.0</ele><time>2026-04-18T12:32:08.249Z</time></trkpt><trkpt lat="44.2363631" lon="8.2193093"><ele>968.3333333333333</ele><time>2026-04-18T12:32:09.249Z</time></trkpt><trkpt lat="44.236551" lon="8.2194341"><ele>973.6666666666666</ele><time>2026-04-18T12:32:10.249Z</time></trkpt><trkpt lat="44.2367396" lon="8.2195604"><ele>979.0</ele><time>2026-04-18T12:32:11.249Z</time></trkpt><trkpt lat="44.2369278" lon="8.2196887"><ele>978.3333333333333</ele><time>2026-04-18T12:32:12.249Z</time></trkpt><trkpt lat="44.2371144" lon="8.2198175"><ele>977.6666666666667</ele><time>2026-04-18T12:32:13.249Z</time></trkpt><trkpt lat="44.2372964" lon="8.2199499"><ele>977.0</ele><time>2026-04-18T12:32:14.248Z</time></trkpt><trkpt lat="44.2374723" lon="8.2200812"><ele>977.0</ele><time>2026-04-18T12:32:15.249Z</time></trkpt><trkpt lat="44.2376382" lon="8.2201985"><ele>977.0</ele><time>2026-04-18T12:32:16.249Z</time></trkpt><trkpt lat="44.2377852" lon="8.2202935"><ele>977.0</ele><time>2026-04-18T12:32:17.249Z</time></trkpt><trkpt lat="44.2379079" lon="8.2203705"><ele>977.0000000000001</ele><time>2026-04-18T12:32:18.249Z</time></trkpt><trkpt lat="44.2380026" lon="8.2204208"><ele>977.0</ele><time>2026-04-18T12:32:19.249Z</time></trkpt><trkpt lat="44.2380773" lon="8.2204576"><ele>977.0</ele><time>2026-04-18T12:32:20.249Z</time></trkpt><trkpt lat="44.2381616" lon="8.2204888"><ele>977.0</ele><time>2026-04-18T12:32:22.249Z</time></trkpt><trkpt lat="44.2382341" lon="8.2204862"><ele>977.0000000000001</ele><time>2026-04-18T12:32:26.248Z</time></trkpt><trkpt lat="44.2382893" lon="8.2204195"><ele>977.0</ele><time>2026-04-18T12:32:29.249Z</time></trkpt><trkpt lat="44.2383707" lon="8.2204054"><ele>975.8</ele><time>2026-04-18T12:32:32.249Z</time></trkpt><trkpt lat="44.2384881" lon="8.2204209"><ele>974.6</ele><time>2026-04-18T12:32:34.249Z</time></trkpt><trkpt lat="44.2385719" lon="8.2204274"><ele>973.3999999999999</ele><time>2026-04-18T12:32:35.249Z</time></trkpt><trkpt lat="44.2386755" lon="8.2204343"><ele>972.1999999999999</ele><time>2026-04-18T12:32:36.248Z</time></trkpt><trkpt lat="44.2387862" lon="8.2204437"><ele>971.0</ele><time>2026-04-18T12:32:37.248Z</time></trkpt><trkpt lat="44.238908" lon="8.2204479"><ele>968.75</ele><time>2026-04-18T12:32:38.249Z</time></trkpt><trkpt lat="44.239033" lon="8.2204463"><ele>966.5</ele><time>2026-04-18T12:32:39.249Z</time></trkpt><trkpt lat="44.2391592" lon="8.2204272"><ele>964.25</ele><time>2026-04-18T12:32:40.249Z</time></trkpt><trkpt lat="44.2392833" lon="8.220395"><ele>962.0</ele><time>2026-04-18T12:32:41.248Z</time></trkpt><trkpt lat="44.2394003" lon="8.2203298"><ele>962.0</ele><time>2026-04-18T12:32:42.249Z</time></trkpt><trkpt lat="44.2395191" lon="8.2202524"><ele>962.0</ele><time>2026-04-18T12:32:43.249Z</time></trkpt><trkpt lat="44.2396404" lon="8.2201802"><ele>962.0</ele><time>2026-04-18T12:32:44.249Z</time></trkpt><trkpt lat="44.2397558" lon="8.2201282"><ele>962.0</ele><time>2026-04-18T12:32:45.249Z</time></trkpt><trkpt lat="44.2398679" lon="8.2201081"><ele>961.8333333333334</ele><time>2026-04-18T12:32:46.248Z</time></trkpt><trkpt lat="44.2399718" lon="8.2201141"><ele>961.6666666666667</ele><time>2026-04-18T12:32:47.249Z</time></trkpt><trkpt lat="44.2400618" lon="8.220109"><ele>961.5</ele><time>2026-04-18T12:32:48.249Z</time></trkpt><trkpt lat="44.2401232" lon="8.2200739"><ele>961.3333333333333</ele><time>2026-04-18T12:32:49.249Z</time></trkpt><trkpt lat="44.2401067" lon="8.2199531"><ele>961.1666666666666</ele><time>2026-04-18T12:32:51.249Z</time></trkpt><trkpt lat="44.2400431" lon="8.2199233"><ele>961.0</ele><time>2026-04-18T12:32:52.248Z</time></trkpt><trkpt lat="44.2399582" lon="8.2199366"><ele>961.0</ele><time>2026-04-18T12:32:53.249Z</time></trkpt><trkpt lat="44.2398506" lon="8.219948"><ele>961.0</ele><time>2026-04-18T12:32:54.249Z</time></trkpt><trkpt lat="44.2397319" lon="8.2199412"><ele>961.0</ele><time>2026-04-18T12:32:55.249Z</time></trkpt><trkpt lat="44.239601" lon="8.2199227"><ele>961.0</ele><time>2026-04-18T12:32:56.249Z</time></trkpt><trkpt lat="44.2394694" lon="8.2199019"><ele>961.25</ele><time>2026-04-18T12:32:57.249Z</time></trkpt><trkpt lat="44.2393301" lon="8.2198811"><ele>961.5</ele><time>2026-04-18T12:32:58.249Z</time></trkpt><trkpt lat="44.2392026" lon="8.2198495"><ele>961.75</ele><time>2026-04-18T12:32:59.249Z</time></trkpt><trkpt lat="44.2390875" lon="8.2197893"><ele>962.0</ele><time>2026-04-18T12:33:00.249Z</time></trkpt><trkpt lat="44.238991" lon="8.2196964"><ele>962.75</ele><time>2026-04-18T12:33:01.249Z</time></trkpt><trkpt lat="44.2389106" lon="8.2195781"><ele>963.5</ele><time>2026-04-18T12:33:02.249Z</time></trkpt><trkpt lat="44.2388597" lon="8.2194397"><ele>964.25</ele><time>2026-04-18T12:33:03.249Z</time></trkpt><trkpt lat="44.2388207" lon="8.2192741"><ele>965.0</ele><time>2026-04-18T12:33:04.249Z</time></trkpt><trkpt lat="44.2387921" lon="8.2191023"><ele>965.0</ele><time>2026-04-18T12:33:05.249Z</time></trkpt><trkpt lat="44.2387752" lon="8.2189523"><ele>965.0</ele><time>2026-04-18T12:33:06.248Z</time></trkpt><trkpt lat="44.2387638" lon="8.21881"><ele>965.0</ele><time>2026-04-18T12:33:07.248Z</time></trkpt><trkpt lat="44.2387736" lon="8.2186809"><ele>965.0</ele><time>2026-04-18T12:33:08.249Z</time></trkpt><trkpt lat="44.238802" lon="8.2185648"><ele>965.0</ele><time>2026-04-18T12:33:09.249Z</time></trkpt><trkpt lat="44.2388728" lon="8.218486"><ele>960.0</ele><time>2026-04-18T12:33:10.249Z</time></trkpt><trkpt lat="44.2389791" lon="8.218427"><ele>955.0</ele><time>2026-04-18T12:33:11.248Z</time></trkpt><trkpt lat="44.2390978" lon="8.2183525"><ele>950.0</ele><time>2026-04-18T12:33:12.248Z</time></trkpt><trkpt lat="44.239213" lon="8.2182606"><ele>945.0</ele><time>2026-04-18T12:33:13.25Z</time></trkpt><trkpt lat="44.2393153" lon="8.2181543"><ele>946.8</ele><time>2026-04-18T12:33:14.25Z</time></trkpt><trkpt lat="44.2394018" lon="8.2180461"><ele>948.6</ele><time>2026-04-18T12:33:15.25Z</time></trkpt><trkpt lat="44.239459" lon="8.2179274"><ele>950.4000000000001</ele><time>2026-04-18T12:33:16.25Z</time></trkpt><trkpt lat="44.2394966" lon="8.2177908"><ele>952.2</ele><time>2026-04-18T12:33:17.25Z</time></trkpt><trkpt lat="44.239501" lon="8.2176257"><ele>954.0</ele><time>2026-04-18T12:33:18.25Z</time></trkpt><trkpt lat="44.2394994" lon="8.2174686"><ele>954.0</ele><time>2026-04-18T12:33:19.25Z</time></trkpt><trkpt lat="44.2395145" lon="8.2173259"><ele>954.0000000000001</ele><time>2026-04-18T12:33:20.249Z</time></trkpt><trkpt lat="44.2395651" lon="8.2172148"><ele>954.0000000000001</ele><time>2026-04-18T12:33:21.25Z</time></trkpt><trkpt lat="44.2396448" lon="8.2171348"><ele>954.0</ele><time>2026-04-18T12:33:22.249Z</time></trkpt><trkpt lat="44.2397453" lon="8.2170628"><ele>954.0</ele><time>2026-04-18T12:33:23.25Z</time></trkpt><trkpt lat="44.2398561" lon="8.2169917"><ele>952.5</ele><time>2026-04-18T12:33:24.25Z</time></trkpt><trkpt lat="44.2399729" lon="8.2169523"><ele>951.0</ele><time>2026-04-18T12:33:25.249Z</time></trkpt><trkpt lat="44.240098" lon="8.21694"><ele>949.5</ele><time>2026-04-18T12:33:26.249Z</time></trkpt><trkpt lat="44.2402191" lon="8.2169474"><ele>948.0</ele><time>2026-04-18T12:33:27.25Z</time></trkpt><trkpt lat="44.2403283" lon="8.2169468"><ele>948.0</ele><time>2026-04-18T12:33:28.25Z</time></trkpt><trkpt lat="44.2404204" lon="8.2169052"><ele>948.0</ele><time>2026-04-18T12:33:29.25Z</time></trkpt><trkpt lat="44.2404886" lon="8.2168118"><ele>948.0</ele><time>2026-04-18T12:33:30.25Z</time></trkpt><trkpt lat="44.2405523" lon="8.2166905"><ele>948.0</ele><time>2026-04-18T12:33:31.249Z</time></trkpt><trkpt lat="44.2406279" lon="8.2165506"><ele>948.0</ele><time>2026-04-18T12:33:32.249Z</time></trkpt><trkpt lat="44.2407104" lon="8.2163989"><ele>946.5</ele><time>2026-04-18T12:33:33.249Z</time></trkpt><trkpt lat="44.2407986" lon="8.2162456"><ele>945.0</ele><time>2026-04-18T12:33:34.25Z</time></trkpt><trkpt lat="44.2408928" lon="8.2161021"><ele>943.5</ele><time>2026-04-18T12:33:35.249Z</time></trkpt><trkpt lat="44.2409966" lon="8.2159822"><ele>942.0</ele><time>2026-04-18T12:33:36.25Z</time></trkpt><trkpt lat="44.2411094" lon="8.2158831"><ele>942.0</ele><time>2026-04-18T12:33:37.25Z</time></trkpt><trkpt lat="44.2412266" lon="8.2157883"><ele>942.0</ele><time>2026-04-18T12:33:38.25Z</time></trkpt><trkpt lat="44.2413191" lon="8.2156766"><ele>942.0</ele><time>2026-04-18T12:33:39.25Z</time></trkpt><trkpt lat="44.2413932" lon="8.2155532"><ele>942.0</ele><time>2026-04-18T12:33:40.249Z</time></trkpt><trkpt lat="44.2414604" lon="8.2154319"><ele>942.0</ele><time>2026-04-18T12:33:41.25Z</time></trkpt><trkpt lat="44.2415099" lon="8.2153273"><ele>942.0</ele><time>2026-04-18T12:33:42.25Z</time></trkpt><trkpt lat="44.2415677" lon="8.215276"><ele>942.0</ele><time>2026-04-18T12:33:43.249Z</time></trkpt><trkpt lat="44.2416872" lon="8.2153273"><ele>942.0</ele><time>2026-04-18T12:33:45.25Z</time></trkpt><trkpt lat="44.241751" lon="8.2154342"><ele>942.0</ele><time>2026-04-18T12:33:46.249Z</time></trkpt><trkpt lat="44.2417932" lon="8.2155724"><ele>937.25</ele><time>2026-04-18T12:33:47.249Z</time></trkpt><trkpt lat="44.2418235" lon="8.2157321"><ele>932.5</ele><time>2026-04-18T12:33:48.249Z</time></trkpt><trkpt lat="44.2418533" lon="8.2159226"><ele>927.75</ele><time>2026-04-18T12:33:49.25Z</time></trkpt><trkpt lat="44.2418876" lon="8.2161215"><ele>923.0</ele><time>2026-04-18T12:33:50.25Z</time></trkpt><trkpt lat="44.2419358" lon="8.2163107"><ele>918.0</ele><time>2026-04-18T12:33:51.25Z</time></trkpt><trkpt lat="44.2419905" lon="8.2164914"><ele>913.0</ele><time>2026-04-18T12:33:52.25Z</time></trkpt><trkpt lat="44.2420234" lon="8.2166792"><ele>908.0</ele><time>2026-04-18T12:33:53.25Z</time></trkpt><trkpt lat="44.2420644" lon="8.2168514"><ele>903.0</ele><time>2026-04-18T12:33:54.25Z</time></trkpt><trkpt lat="44.2421096" lon="8.2169948"><ele>903.0</ele><time>2026-04-18T12:33:55.25Z</time></trkpt><trkpt lat="44.2421623" lon="8.2171131"><ele>903.0</ele><time>2026-04-18T12:33:56.249Z</time></trkpt><trkpt lat="44.2422325" lon="8.2171963"><ele>903.0</ele><time>2026-04-18T12:33:57.25Z</time></trkpt><trkpt lat="44.242334" lon="8.2172181"><ele>903.0</ele><time>2026-04-18T12:33:58.25Z</time></trkpt><trkpt lat="44.2424497" lon="8.217188"><ele>903.0</ele><time>2026-04-18T12:33:59.25Z</time></trkpt><trkpt lat="44.2425607" lon="8.2171261"><ele>904.0</ele><time>2026-04-18T12:34:00.25Z</time></trkpt><trkpt lat="44.2426358" lon="8.2170184"><ele>905.0</ele><time>2026-04-18T12:34:01.25Z</time></trkpt><trkpt lat="44.2427011" lon="8.2168921"><ele>906.0</ele><time>2026-04-18T12:34:02.249Z</time></trkpt><trkpt lat="44.2427867" lon="8.2167749"><ele>907.0</ele><time>2026-04-18T12:34:03.25Z</time></trkpt><trkpt lat="44.2428911" lon="8.2167055"><ele>907.0</ele><time>2026-04-18T12:34:04.25Z</time></trkpt><trkpt lat="44.2430102" lon="8.2166847"><ele>907.0</ele><time>2026-04-18T12:34:05.25Z</time></trkpt><trkpt lat="44.2431247" lon="8.2167012"><ele>907.0</ele><time>2026-04-18T12:34:06.25Z</time></trkpt><trkpt lat="44.2432193" lon="8.2167292"><ele>907.0</ele><time>2026-04-18T12:34:07.249Z</time></trkpt><trkpt lat="44.2433021" lon="8.2167155"><ele>907.0</ele><time>2026-04-18T12:34:08.25Z</time></trkpt><trkpt lat="44.2433822" lon="8.2166444"><ele>903.6</ele><time>2026-04-18T12:34:09.25Z</time></trkpt><trkpt lat="44.2434528" lon="8.2165493"><ele>900.2</ele><time>2026-04-18T12:34:10.25Z</time></trkpt><trkpt lat="44.2435459" lon="8.2164753"><ele>896.8</ele><time>2026-04-18T12:34:11.25Z</time></trkpt><trkpt lat="44.2436519" lon="8.2164385"><ele>893.4</ele><time>2026-04-18T12:34:12.25Z</time></trkpt><trkpt lat="44.2437616" lon="8.2164364"><ele>890.0</ele><time>2026-04-18T12:34:13.249Z</time></trkpt><trkpt lat="44.2438677" lon="8.2164498"><ele>893.6</ele><time>2026-04-18T12:34:14.25Z</time></trkpt><trkpt lat="44.2439718" lon="8.2164234"><ele>897.2</ele><time>2026-04-18T12:34:15.25Z</time></trkpt><trkpt lat="44.2440753" lon="8.2163591"><ele>900.8</ele><time>2026-04-18T12:34:16.249Z</time></trkpt><trkpt lat="44.244155" lon="8.2162686"><ele>904.4</ele><time>2026-04-18T12:34:17.25Z</time></trkpt><trkpt lat="44.2442361" lon="8.2162074"><ele>908.0</ele><time>2026-04-18T12:34:18.25Z</time></trkpt><trkpt lat="44.2443389" lon="8.2161872"><ele>908.0</ele><time>2026-04-18T12:34:19.249Z</time></trkpt><trkpt lat="44.2444371" lon="8.216182"><ele>908.0</ele><time>2026-04-18T12:34:20.249Z</time></trkpt><trkpt lat="44.2445378" lon="8.2161552"><ele>908.0</ele><time>2026-04-18T12:34:21.25Z</time></trkpt><trkpt lat="44.2446295" lon="8.2160809"><ele>908.0</ele><time>2026-04-18T12:34:22.25Z</time></trkpt><trkpt lat="44.244718" lon="8.2159846"><ele>908.0</ele><time>2026-04-18T12:34:23.25Z</time></trkpt><trkpt lat="44.2448018" lon="8.2158735"><ele>911.2</ele><time>2026-04-18T12:34:24.25Z</time></trkpt><trkpt lat="44.2448854" lon="8.2157671"><ele>914.4</ele><time>2026-04-18T12:34:25.249Z</time></trkpt><trkpt lat="44.2449729" lon="8.2156873"><ele>917.6000000000001</ele><time>2026-04-18T12:34:26.25Z</time></trkpt><trkpt lat="44.2450625" lon="8.2156421"><ele>920.8000000000001</ele><time>2026-04-18T12:34:27.25Z</time></trkpt><trkpt lat="44.2451646" lon="8.2156458"><ele>924.0</ele><time>2026-04-18T12:34:28.25Z</time></trkpt><trkpt lat="44.2452803" lon="8.2156775"><ele>915.0</ele><time>2026-04-18T12:34:29.25Z</time></trkpt><trkpt lat="44.2453969" lon="8.2157257"><ele>906.0000000000001</ele><time>2026-04-18T12:34:30.25Z</time></trkpt><trkpt lat="44.2455086" lon="8.2157946"><ele>897.0000000000001</ele><time>2026-04-18T12:34:31.25Z</time></trkpt><trkpt lat="44.2456067" lon="8.215844"><ele>888.0</ele><time>2026-04-18T12:34:32.25Z</time></trkpt><trkpt lat="44.2456945" lon="8.2158658"><ele>879.0</ele><time>2026-04-18T12:34:33.25Z</time></trkpt><trkpt lat="44.2457937" lon="8.215811"><ele>875.25</ele><time>2026-04-18T12:34:34.25Z</time></trkpt><trkpt lat="44.2459028" lon="8.2157231"><ele>871.5</ele><time>2026-04-18T12:34:35.25Z</time></trkpt><trkpt lat="44.2460119" lon="8.2156353"><ele>867.75</ele><time>2026-04-18T12:34:36.25Z</time></trkpt><trkpt lat="44.2461174" lon="8.2155521"><ele>864.0</ele><time>2026-04-18T12:34:37.25Z</time></trkpt><trkpt lat="44.2462292" lon="8.2154905"><ele>872.0</ele><time>2026-04-18T12:34:38.25Z</time></trkpt><trkpt lat="44.2463355" lon="8.2154734"><ele>880.0</ele><time>2026-04-18T12:34:39.25Z</time></trkpt><trkpt lat="44.2464527" lon="8.2155045"><ele>888.0</ele><time>2026-04-18T12:34:40.249Z</time></trkpt><trkpt lat="44.2465731" lon="8.2155587"><ele>896.0</ele><time>2026-04-18T12:34:41.249Z</time></trkpt><trkpt lat="44.2466864" lon="8.2156449"><ele>887.0</ele><time>2026-04-18T12:34:42.25Z</time></trkpt><trkpt lat="44.246787" lon="8.2157586"><ele>878.0</ele><time>2026-04-18T12:34:43.25Z</time></trkpt><trkpt lat="44.2468693" lon="8.2159039"><ele>869.0</ele><time>2026-04-18T12:34:44.25Z</time></trkpt><trkpt lat="44.2469489" lon="8.2160507"><ele>860.0</ele><time>2026-04-18T12:34:45.25Z</time></trkpt><trkpt lat="44.2470207" lon="8.2161849"><ele>860.0</ele><time>2026-04-18T12:34:46.25Z</time></trkpt><trkpt lat="44.2471083" lon="8.216283"><ele>860.0</ele><time>2026-04-18T12:34:47.25Z</time></trkpt><trkpt lat="44.2472089" lon="8.2163395"><ele>860.0</ele><time>2026-04-18T12:34:48.25Z</time></trkpt><trkpt lat="44.2473209" lon="8.2163602"><ele>860.0</ele><time>2026-04-18T12:34:49.25Z</time></trkpt><trkpt lat="44.2474365" lon="8.2163425"><ele>861.0</ele><time>2026-04-18T12:34:50.249Z</time></trkpt><trkpt lat="44.2475434" lon="8.2163153"><ele>862.0</ele><time>2026-04-18T12:34:51.25Z</time></trkpt><trkpt lat="44.247634" lon="8.2162613"><ele>863.0</ele><time>2026-04-18T12:34:52.25Z</time></trkpt><trkpt lat="44.2477192" lon="8.2161647"><ele>864.0</ele><time>2026-04-18T12:34:53.249Z</time></trkpt><trkpt lat="44.247773" lon="8.2160336"><ele>865.0</ele><time>2026-04-18T12:34:54.25Z</time></trkpt><trkpt lat="44.2478285" lon="8.2158916"><ele>865.0</ele><time>2026-04-18T12:34:55.251Z</time></trkpt><trkpt lat="44.2479008" lon="8.2157583"><ele>865.0</ele><time>2026-04-18T12:34:56.251Z</time></trkpt><trkpt lat="44.2479835" lon="8.2156483"><ele>865.0</ele><time>2026-04-18T12:34:57.25Z</time></trkpt><trkpt lat="44.2480615" lon="8.2155574"><ele>865.0</ele><time>2026-04-18T12:34:58.251Z</time></trkpt><trkpt lat="44.2481569" lon="8.2155091"><ele>865.0</ele><time>2026-04-18T12:34:59.25Z</time></trkpt><trkpt lat="44.2482737" lon="8.21549"><ele>863.2</ele><time>2026-04-18T12:35:00.251Z</time></trkpt><trkpt lat="44.2483895" lon="8.2154721"><ele>861.4</ele><time>2026-04-18T12:35:01.251Z</time></trkpt><trkpt lat="44.2484908" lon="8.2154365"><ele>859.5999999999999</ele><time>2026-04-18T12:35:02.251Z</time></trkpt><trkpt lat="44.2485685" lon="8.215383"><ele>857.8</ele><time>2026-04-18T12:35:03.251Z</time></trkpt><trkpt lat="44.2486265" lon="8.215312"><ele>856.0</ele><time>2026-04-18T12:35:04.25Z</time></trkpt><trkpt lat="44.2486504" lon="8.2152113"><ele>856.0</ele><time>2026-04-18T12:35:05.251Z</time></trkpt><trkpt lat="44.248633" lon="8.2150813"><ele>855.9999999999999</ele><time>2026-04-18T12:35:06.25Z</time></trkpt><trkpt lat="44.2486021" lon="8.2149289"><ele>855.9999999999999</ele><time>2026-04-18T12:35:07.25Z</time></trkpt><trkpt lat="44.2485943" lon="8.2147671"><ele>856.0</ele><time>2026-04-18T12:35:08.251Z</time></trkpt><trkpt lat="44.2485926" lon="8.2145959"><ele>856.0</ele><time>2026-04-18T12:35:09.251Z</time></trkpt><trkpt lat="44.2486049" lon="8.2144158"><ele>856.75</ele><time>2026-04-18T12:35:10.251Z</time></trkpt><trkpt lat="44.2486059" lon="8.2142266"><ele>857.5</ele><time>2026-04-18T12:35:11.251Z</time></trkpt><trkpt lat="44.2485859" lon="8.2140343"><ele>858.25</ele><time>2026-04-18T12:35:12.251Z</time></trkpt><trkpt lat="44.2485603" lon="8.2138401"><ele>859.0</ele><time>2026-04-18T12:35:13.25Z</time></trkpt><trkpt lat="44.2485359" lon="8.2136436"><ele>857.0</ele><time>2026-04-18T12:35:14.251Z</time></trkpt><trkpt lat="44.2485143" lon="8.2134455"><ele>855.0</ele><time>2026-04-18T12:35:15.251Z</time></trkpt><trkpt lat="44.2485005" lon="8.2132436"><ele>853.0</ele><time>2026-04-18T12:35:16.251Z</time></trkpt><trkpt lat="44.2484934" lon="8.213063"><ele>851.0</ele><time>2026-04-18T12:35:17.25Z</time></trkpt><trkpt lat="44.248482" lon="8.2128934"><ele>850.8</ele><time>2026-04-18T12:35:18.251Z</time></trkpt><trkpt lat="44.2484606" lon="8.2127298"><ele>850.5999999999999</ele><time>2026-04-18T12:35:19.251Z</time></trkpt><trkpt lat="44.2484296" lon="8.2125772"><ele>850.4</ele><time>2026-04-18T12:35:20.251Z</time></trkpt><trkpt lat="44.2483971" lon="8.2124338"><ele>850.2</ele><time>2026-04-18T12:35:21.251Z</time></trkpt><trkpt lat="44.2483785" lon="8.2122897"><ele>850.0</ele><time>2026-04-18T12:35:22.25Z</time></trkpt><trkpt lat="44.248397" lon="8.212162"><ele>852.4</ele><time>2026-04-18T12:35:23.25Z</time></trkpt><trkpt lat="44.2484525" lon="8.212067"><ele>854.8</ele><time>2026-04-18T12:35:24.25Z</time></trkpt><trkpt lat="44.2485189" lon="8.2119947"><ele>857.2</ele><time>2026-04-18T12:35:25.25Z</time></trkpt><trkpt lat="44.2486049" lon="8.2119592"><ele>859.6</ele><time>2026-04-18T12:35:26.251Z</time></trkpt><trkpt lat="44.2487034" lon="8.211967"><ele>862.0</ele><time>2026-04-18T12:35:27.25Z</time></trkpt><trkpt lat="44.248798" lon="8.2120128"><ele>862.0</ele><time>2026-04-18T12:35:28.25Z</time></trkpt><trkpt lat="44.2488741" lon="8.2121017"><ele>862.0</ele><time>2026-04-18T12:35:29.251Z</time></trkpt><trkpt lat="44.2489345" lon="8.2122292"><ele>862.0</ele><time>2026-04-18T12:35:30.251Z</time></trkpt><trkpt lat="44.2489962" lon="8.2123581"><ele>862.0</ele><time>2026-04-18T12:35:31.251Z</time></trkpt><trkpt lat="44.2490778" lon="8.2124554"><ele>862.0</ele><time>2026-04-18T12:35:32.251Z</time></trkpt><trkpt lat="44.2491748" lon="8.2125042"><ele>857.0</ele><time>2026-04-18T12:35:33.251Z</time></trkpt><trkpt lat="44.2492837" lon="8.2125415"><ele>852.0</ele><time>2026-04-18T12:35:34.251Z</time></trkpt><trkpt lat="44.2493781" lon="8.2126254"><ele>847.0</ele><time>2026-04-18T12:35:35.251Z</time></trkpt><trkpt lat="44.2494714" lon="8.2127368"><ele>842.0</ele><time>2026-04-18T12:35:36.25Z</time></trkpt><trkpt lat="44.2495644" lon="8.2128317"><ele>842.0</ele><time>2026-04-18T12:35:37.251Z</time></trkpt><trkpt lat="44.2496528" lon="8.2129256"><ele>842.0</ele><time>2026-04-18T12:35:38.251Z</time></trkpt><trkpt lat="44.2497289" lon="8.2130276"><ele>842.0</ele><time>2026-04-18T12:35:39.251Z</time></trkpt><trkpt lat="44.2497748" lon="8.2131474"><ele>842.0</ele><time>2026-04-18T12:35:40.251Z</time></trkpt><trkpt lat="44.2498068" lon="8.2132766"><ele>842.0</ele><time>2026-04-18T12:35:41.251Z</time></trkpt><trkpt lat="44.249849" lon="8.2133905"><ele>839.6</ele><time>2026-04-18T12:35:42.251Z</time></trkpt><trkpt lat="44.249916" lon="8.2134697"><ele>837.2</ele><time>2026-04-18T12:35:43.251Z</time></trkpt><trkpt lat="44.2500088" lon="8.2135201"><ele>834.8</ele><time>2026-04-18T12:35:44.251Z</time></trkpt><trkpt lat="44.2501183" lon="8.213543"><ele>832.4</ele><time>2026-04-18T12:35:45.25Z</time></trkpt><trkpt lat="44.2502383" lon="8.213573"><ele>830.0</ele><time>2026-04-18T12:35:46.251Z</time></trkpt><trkpt lat="44.2503721" lon="8.2136305"><ele>830.0</ele><time>2026-04-18T12:35:47.251Z</time></trkpt><trkpt lat="44.2504966" lon="8.2137051"><ele>830.0</ele><time>2026-04-18T12:35:48.251Z</time></trkpt><trkpt lat="44.2506224" lon="8.2137723"><ele>830.0</ele><time>2026-04-18T12:35:49.251Z</time></trkpt><trkpt lat="44.2507484" lon="8.213825"><ele>830.0</ele><time>2026-04-18T12:35:50.251Z</time></trkpt><trkpt lat="44.2508787" lon="8.2138729"><ele>832.5</ele><time>2026-04-18T12:35:51.251Z</time></trkpt><trkpt lat="44.2510015" lon="8.213929"><ele>835.0</ele><time>2026-04-18T12:35:52.251Z</time></trkpt><trkpt lat="44.2511188" lon="8.2140014"><ele>837.5</ele><time>2026-04-18T12:35:53.251Z</time></trkpt><trkpt lat="44.2512278" lon="8.2140812"><ele>840.0</ele><time>2026-04-18T12:35:54.251Z</time></trkpt><trkpt lat="44.2513271" lon="8.21415"><ele>834.6666666666666</ele><time>2026-04-18T12:35:55.251Z</time></trkpt><trkpt lat="44.2514163" lon="8.2141897"><ele>829.3333333333333</ele><time>2026-04-18T12:35:56.251Z</time></trkpt><trkpt lat="44.2514963" lon="8.2141944"><ele>824.0</ele><time>2026-04-18T12:35:57.251Z</time></trkpt><trkpt lat="44.2515707" lon="8.21416"><ele>818.6666666666666</ele><time>2026-04-18T12:35:58.251Z</time></trkpt><trkpt lat="44.2516281" lon="8.2140889"><ele>813.3333333333333</ele><time>2026-04-18T12:35:59.251Z</time></trkpt><trkpt lat="44.2516847" lon="8.213981"><ele>808.0</ele><time>2026-04-18T12:36:00.251Z</time></trkpt><trkpt lat="44.2517246" lon="8.2138401"><ele>808.0</ele><time>2026-04-18T12:36:01.251Z</time></trkpt><trkpt lat="44.2517374" lon="8.2136711"><ele>808.0</ele><time>2026-04-18T12:36:02.251Z</time></trkpt><trkpt lat="44.2517541" lon="8.2134972"><ele>808.0</ele><time>2026-04-18T12:36:03.25Z</time></trkpt><trkpt lat="44.2517638" lon="8.2133128"><ele>808.0</ele><time>2026-04-18T12:36:04.251Z</time></trkpt><trkpt lat="44.251754" lon="8.2131206"><ele>808.0</ele><time>2026-04-18T12:36:05.251Z</time></trkpt><trkpt lat="44.251746" lon="8.212938"><ele>808.0</ele><time>2026-04-18T12:36:06.251Z</time></trkpt><trkpt lat="44.2517435" lon="8.2127589"><ele>808.0</ele><time>2026-04-18T12:36:07.251Z</time></trkpt><trkpt lat="44.251746" lon="8.2125862"><ele>808.0</ele><time>2026-04-18T12:36:08.251Z</time></trkpt><trkpt lat="44.2517476" lon="8.2124275"><ele>810.3333333333333</ele><time>2026-04-18T12:36:09.25Z</time></trkpt><trkpt lat="44.2517439" lon="8.2122938"><ele>812.6666666666666</ele><time>2026-04-18T12:36:10.25Z</time></trkpt><trkpt lat="44.2517543" lon="8.2121803"><ele>815.0</ele><time>2026-04-18T12:36:11.251Z</time></trkpt><trkpt lat="44.2517929" lon="8.2121041"><ele>817.3333333333333</ele><time>2026-04-18T12:36:12.251Z</time></trkpt><trkpt lat="44.2518547" lon="8.2120766"><ele>819.6666666666666</ele><time>2026-04-18T12:36:13.251Z</time></trkpt><trkpt lat="44.2519192" lon="8.2121122"><ele>822.0</ele><time>2026-04-18T12:36:14.251Z</time></trkpt><trkpt lat="44.2519819" lon="8.2121931"><ele>822.0</ele><time>2026-04-18T12:36:15.251Z</time></trkpt><trkpt lat="44.252044" lon="8.2123115"><ele>822.0</ele><time>2026-04-18T12:36:16.25Z</time></trkpt><trkpt lat="44.2521046" lon="8.2124472"><ele>822.0</ele><time>2026-04-18T12:36:17.251Z</time></trkpt><trkpt lat="44.252183" lon="8.2125878"><ele>822.0</ele><time>2026-04-18T12:36:18.25Z</time></trkpt><trkpt lat="44.2522746" lon="8.2127405"><ele>818.5</ele><time>2026-04-18T12:36:19.25Z</time></trkpt><trkpt lat="44.2523634" lon="8.2128921"><ele>815.0</ele><time>2026-04-18T12:36:20.25Z</time></trkpt><trkpt lat="44.2524451" lon="8.2130381"><ele>811.5</ele><time>2026-04-18T12:36:21.251Z</time></trkpt><trkpt lat="44.2525286" lon="8.213164"><ele>808.0</ele><time>2026-04-18T12:36:22.251Z</time></trkpt><trkpt lat="44.2526262" lon="8.2132655"><ele>801.5</ele><time>2026-04-18T12:36:23.251Z</time></trkpt><trkpt lat="44.2527327" lon="8.2133541"><ele>795.0</ele><time>2026-04-18T12:36:24.251Z</time></trkpt><trkpt lat="44.2528482" lon="8.2134145"><ele>788.5</ele><time>2026-04-18T12:36:25.251Z</time></trkpt><trkpt lat="44.252959" lon="8.2134531"><ele>782.0</ele><time>2026-04-18T12:36:26.251Z</time></trkpt><trkpt lat="44.2530655" lon="8.2134438"><ele>781.4000000000001</ele><time>2026-04-18T12:36:27.251Z</time></trkpt><trkpt lat="44.2531729" lon="8.2134029"><ele>780.8000000000001</ele><time>2026-04-18T12:36:28.251Z</time></trkpt><trkpt lat="44.2532723" lon="8.2133409"><ele>780.2</ele><time>2026-04-18T12:36:29.25Z</time></trkpt><trkpt lat="44.2533475" lon="8.213242"><ele>779.6</ele><time>2026-04-18T12:36:30.25Z</time></trkpt><trkpt lat="44.2533947" lon="8.2131031"><ele>779.0</ele><time>2026-04-18T12:36:31.25Z</time></trkpt><trkpt lat="44.2534253" lon="8.212951"><ele>784.8000000000001</ele><time>2026-04-18T12:36:32.25Z</time></trkpt><trkpt lat="44.2534464" lon="8.2127953"><ele>790.6</ele><time>2026-04-18T12:36:33.25Z</time></trkpt><trkpt lat="44.2534684" lon="8.2126635"><ele>796.4</ele><time>2026-04-18T12:36:34.252Z</time></trkpt><trkpt lat="44.2535084" lon="8.2125565"><ele>802.2</ele><time>2026-04-18T12:36:35.252Z</time></trkpt><trkpt lat="44.2535707" lon="8.2124869"><ele>808.0</ele><time>2026-04-18T12:36:36.252Z</time></trkpt><trkpt lat="44.2536589" lon="8.2124417"><ele>807.9999999999999</ele><time>2026-04-18T12:36:37.252Z</time></trkpt><trkpt lat="44.2537424" lon="8.2124082"><ele>808.0</ele><time>2026-04-18T12:36:38.252Z</time></trkpt><trkpt lat="44.2538212" lon="8.2123931"><ele>808.0</ele><time>2026-04-18T12:36:39.251Z</time></trkpt><trkpt lat="44.2538861" lon="8.212418"><ele>808.0</ele><time>2026-04-18T12:36:40.252Z</time></trkpt><trkpt lat="44.2539219" lon="8.2124943"><ele>807.9999999999999</ele><time>2026-04-18T12:36:41.252Z</time></trkpt><trkpt lat="44.2539484" lon="8.2125845"><ele>808.0</ele><time>2026-04-18T12:36:42.252Z</time></trkpt><trkpt lat="44.2538764" lon="8.2127495"><ele>808.0</ele><time>2026-04-18T12:36:44.251Z</time></trkpt><trkpt lat="44.2538446" lon="8.2128539"><ele>808.0</ele><time>2026-04-18T12:36:45.252Z</time></trkpt><trkpt lat="44.2538462" lon="8.212988"><ele>808.0</ele><time>2026-04-18T12:36:46.252Z</time></trkpt><trkpt lat="44.2538614" lon="8.213153"><ele>808.0</ele><time>2026-04-18T12:36:47.251Z</time></trkpt><trkpt lat="44.253882" lon="8.2133274"><ele>808.0</ele><time>2026-04-18T12:36:48.252Z</time></trkpt><trkpt lat="44.2538968" lon="8.2135167"><ele>802.75</ele><time>2026-04-18T12:36:49.252Z</time></trkpt><trkpt lat="44.253916" lon="8.2137172"><ele>797.5</ele><time>2026-04-18T12:36:50.251Z</time></trkpt><trkpt lat="44.2539422" lon="8.2139106"><ele>792.25</ele><time>2026-04-18T12:36:51.252Z</time></trkpt><trkpt lat="44.2539784" lon="8.2140972"><ele>787.0</ele><time>2026-04-18T12:36:52.252Z</time></trkpt><trkpt lat="44.2540202" lon="8.2142771"><ele>787.0</ele><time>2026-04-18T12:36:53.252Z</time></trkpt><trkpt lat="44.2540659" lon="8.2144492"><ele>787.0</ele><time>2026-04-18T12:36:54.251Z</time></trkpt><trkpt lat="44.2541002" lon="8.2146236"><ele>787.0</ele><time>2026-04-18T12:36:55.251Z</time></trkpt><trkpt lat="44.254127" lon="8.2147876"><ele>787.0</ele><time>2026-04-18T12:36:56.251Z</time></trkpt><trkpt lat="44.2541413" lon="8.2149445"><ele>784.5</ele><time>2026-04-18T12:36:57.251Z</time></trkpt><trkpt lat="44.2541" lon="8.2150979"><ele>782.0</ele><time>2026-04-18T12:36:58.252Z</time></trkpt><trkpt lat="44.2540319" lon="8.2152467"><ele>779.5</ele><time>2026-04-18T12:36:59.252Z</time></trkpt><trkpt lat="44.2539623" lon="8.2153996"><ele>777.0</ele><time>2026-04-18T12:37:00.251Z</time></trkpt><trkpt lat="44.2539045" lon="8.2155442"><ele>768.0</ele><time>2026-04-18T12:37:01.252Z</time></trkpt><trkpt lat="44.2538704" lon="8.2157021"><ele>759.0</ele><time>2026-04-18T12:37:02.252Z</time></trkpt><trkpt lat="44.253851" lon="8.215877"><ele>750.0</ele><time>2026-04-18T12:37:03.251Z</time></trkpt><trkpt lat="44.2538444" lon="8.2160778"><ele>741.0</ele><time>2026-04-18T12:37:04.252Z</time></trkpt><trkpt lat="44.2538349" lon="8.2162929"><ele>738.6666666666666</ele><time>2026-04-18T12:37:05.252Z</time></trkpt><trkpt lat="44.2538147" lon="8.2165089"><ele>736.3333333333333</ele><time>2026-04-18T12:37:06.252Z</time></trkpt><trkpt lat="44.2537928" lon="8.2167253"><ele>734.0</ele><time>2026-04-18T12:37:07.251Z</time></trkpt><trkpt lat="44.2537696" lon="8.2169333"><ele>734.0</ele><time>2026-04-18T12:37:08.252Z</time></trkpt><trkpt lat="44.253749" lon="8.2171313"><ele>734.0</ele><time>2026-04-18T12:37:09.252Z</time></trkpt><trkpt lat="44.253724" lon="8.2173287"><ele>734.0</ele><time>2026-04-18T12:37:10.252Z</time></trkpt><trkpt lat="44.2537033" lon="8.2175227"><ele>734.0</ele><time>2026-04-18T12:37:11.252Z</time></trkpt><trkpt lat="44.2536822" lon="8.2177087"><ele>733.8000000000001</ele><time>2026-04-18T12:37:12.252Z</time></trkpt><trkpt lat="44.2536621" lon="8.2178821"><ele>733.6</ele><time>2026-04-18T12:37:13.251Z</time></trkpt><trkpt lat="44.2536516" lon="8.218022"><ele>733.4</ele><time>2026-04-18T12:37:14.252Z</time></trkpt><trkpt lat="44.2536574" lon="8.2181372"><ele>733.2</ele><time>2026-04-18T12:37:15.251Z</time></trkpt><trkpt lat="44.2536971" lon="8.2182147"><ele>733.0</ele><time>2026-04-18T12:37:16.251Z</time></trkpt><trkpt lat="44.2537683" lon="8.2182458"><ele>733.0</ele><time>2026-04-18T12:37:17.252Z</time></trkpt><trkpt lat="44.2538662" lon="8.2182409"><ele>733.0</ele><time>2026-04-18T12:37:18.251Z</time></trkpt><trkpt lat="44.2539866" lon="8.218232"><ele>733.0</ele><time>2026-04-18T12:37:19.252Z</time></trkpt><trkpt lat="44.2541119" lon="8.2182561"><ele>733.0</ele><time>2026-04-18T12:37:20.252Z</time></trkpt><trkpt lat="44.2542273" lon="8.2183056"><ele>735.4</ele><time>2026-04-18T12:37:21.252Z</time></trkpt><trkpt lat="44.2543433" lon="8.2183569"><ele>737.8</ele><time>2026-04-18T12:37:22.252Z</time></trkpt><trkpt lat="44.2544469" lon="8.218385"><ele>740.2</ele><time>2026-04-18T12:37:23.252Z</time></trkpt><trkpt lat="44.254527" lon="8.2183587"><ele>742.6</ele><time>2026-04-18T12:37:24.252Z</time></trkpt><trkpt lat="44.2545732" lon="8.2182919"><ele>745.0</ele><time>2026-04-18T12:37:25.252Z</time></trkpt><trkpt lat="44.2546264" lon="8.2182179"><ele>745.0</ele><time>2026-04-18T12:37:26.252Z</time></trkpt><trkpt lat="44.2546962" lon="8.2182055"><ele>745.0</ele><time>2026-04-18T12:37:27.252Z</time></trkpt><trkpt lat="44.2547708" lon="8.2182525"><ele>745.0</ele><time>2026-04-18T12:37:28.252Z</time></trkpt><trkpt lat="44.2548179" lon="8.2183372"><ele>745.0</ele><time>2026-04-18T12:37:29.252Z</time></trkpt><trkpt lat="44.2548783" lon="8.2183985"><ele>745.0</ele><time>2026-04-18T12:37:30.252Z</time></trkpt><trkpt lat="44.254962" lon="8.2184266"><ele>745.0</ele><time>2026-04-18T12:37:31.252Z</time></trkpt><trkpt lat="44.2550468" lon="8.2184122"><ele>745.2</ele><time>2026-04-18T12:37:32.251Z</time></trkpt><trkpt lat="44.2551249" lon="8.2183728"><ele>745.4</ele><time>2026-04-18T12:37:33.252Z</time></trkpt><trkpt lat="44.2551935" lon="8.2183392"><ele>745.5999999999999</ele><time>2026-04-18T12:37:34.251Z</time></trkpt><trkpt lat="44.2552639" lon="8.2184079"><ele>745.8</ele><time>2026-04-18T12:37:36.252Z</time></trkpt><trkpt lat="44.2552542" lon="8.2185725"><ele>746.0</ele><time>2026-04-18T12:37:38.251Z</time></trkpt><trkpt lat="44.2552204" lon="8.2186888"><ele>746.0</ele><time>2026-04-18T12:37:39.252Z</time></trkpt><trkpt lat="44.2551962" lon="8.2188135"><ele>746.0</ele><time>2026-04-18T12:37:40.252Z</time></trkpt><trkpt lat="44.255188" lon="8.2189291"><ele>746.0</ele><time>2026-04-18T12:37:41.252Z</time></trkpt><trkpt lat="44.2552107" lon="8.219023"><ele>746.0</ele><time>2026-04-18T12:37:42.252Z</time></trkpt><trkpt lat="44.2552833" lon="8.2191057"><ele>746.0</ele><time>2026-04-18T12:37:43.252Z</time></trkpt><trkpt lat="44.255363" lon="8.2192089"><ele>746.0</ele><time>2026-04-18T12:37:44.252Z</time></trkpt><trkpt lat="44.255423" lon="8.2193351"><ele>743.1999999999999</ele><time>2026-04-18T12:37:45.251Z</time></trkpt><trkpt lat="44.2554754" lon="8.2194439"><ele>740.4</ele><time>2026-04-18T12:37:46.252Z</time></trkpt><trkpt lat="44.2555323" lon="8.219528"><ele>737.6</ele><time>2026-04-18T12:37:47.252Z</time></trkpt><trkpt lat="44.2556072" lon="8.2195667"><ele>734.8</ele><time>2026-04-18T12:37:48.251Z</time></trkpt><trkpt lat="44.2556976" lon="8.2195234"><ele>732.0</ele><time>2026-04-18T12:37:49.252Z</time></trkpt><trkpt lat="44.2557883" lon="8.2194517"><ele>732.0</ele><time>2026-04-18T12:37:50.251Z</time></trkpt><trkpt lat="44.2558761" lon="8.2193574"><ele>732.0</ele><time>2026-04-18T12:37:51.251Z</time></trkpt><trkpt lat="44.2559609" lon="8.2192595"><ele>732.0</ele><time>2026-04-18T12:37:52.252Z</time></trkpt><trkpt lat="44.2560325" lon="8.2191817"><ele>732.0</ele><time>2026-04-18T12:37:53.252Z</time></trkpt><trkpt lat="44.2561005" lon="8.2191362"><ele>732.0</ele><time>2026-04-18T12:37:54.252Z</time></trkpt><trkpt lat="44.2561765" lon="8.2191414"><ele>732.0</ele><time>2026-04-18T12:37:55.251Z</time></trkpt><trkpt lat="44.2562266" lon="8.2192534"><ele>732.0</ele><time>2026-04-18T12:37:57.252Z</time></trkpt><trkpt lat="44.2561545" lon="8.2193847"><ele>732.0</ele><time>2026-04-18T12:37:59.252Z</time></trkpt><trkpt lat="44.2560783" lon="8.2194396"><ele>732.0</ele><time>2026-04-18T12:38:00.252Z</time></trkpt><trkpt lat="44.2559954" lon="8.2195127"><ele>732.0</ele><time>2026-04-18T12:38:01.252Z</time></trkpt><trkpt lat="44.2559268" lon="8.2196108"><ele>732.0</ele><time>2026-04-18T12:38:02.252Z</time></trkpt><trkpt lat="44.255867" lon="8.2197222"><ele>732.0</ele><time>2026-04-18T12:38:03.251Z</time></trkpt><trkpt lat="44.255817" lon="8.2198406"><ele>732.0</ele><time>2026-04-18T12:38:04.252Z</time></trkpt><trkpt lat="44.255773" lon="8.2199542"><ele>732.0</ele><time>2026-04-18T12:38:05.251Z</time></trkpt><trkpt lat="44.2557345" lon="8.2200545"><ele>732.0</ele><time>2026-04-18T12:38:06.252Z</time></trkpt><trkpt lat="44.2556909" lon="8.2201368"><ele>732.0</ele><time>2026-04-18T12:38:07.252Z</time></trkpt><trkpt lat="44.2556142" lon="8.2201927"><ele>728.6</ele><time>2026-04-18T12:38:08.252Z</time></trkpt><trkpt lat="44.2555156" lon="8.2202489"><ele>725.2</ele><time>2026-04-18T12:38:09.252Z</time></trkpt><trkpt lat="44.2554036" lon="8.2202933"><ele>721.8</ele><time>2026-04-18T12:38:10.252Z</time></trkpt><trkpt lat="44.2552936" lon="8.2203381"><ele>718.4</ele><time>2026-04-18T12:38:11.252Z</time></trkpt><trkpt lat="44.2551994" lon="8.2203634"><ele>715.0</ele><time>2026-04-18T12:38:12.251Z</time></trkpt><trkpt lat="44.2551212" lon="8.2203546"><ele>715.0</ele><time>2026-04-18T12:38:13.252Z</time></trkpt><trkpt lat="44.2550604" lon="8.2202934"><ele>715.0</ele><time>2026-04-18T12:38:14.252Z</time></trkpt><trkpt lat="44.2550237" lon="8.2202099"><ele>715.0</ele><time>2026-04-18T12:38:15.252Z</time></trkpt><trkpt lat="44.2550016" lon="8.2201174"><ele>715.0</ele><time>2026-04-18T12:38:16.253Z</time></trkpt><trkpt lat="44.2549267" lon="8.219981"><ele>715.0</ele><time>2026-04-18T12:38:18.253Z</time></trkpt><trkpt lat="44.2548292" lon="8.2199585"><ele>715.0</ele><time>2026-04-18T12:38:20.253Z</time></trkpt><trkpt lat="44.2548183" lon="8.2201519"><ele>715.0</ele><time>2026-04-18T12:38:22.253Z</time></trkpt><trkpt lat="44.2548415" lon="8.2202836"><ele>715.0</ele><time>2026-04-18T12:38:23.253Z</time></trkpt><trkpt lat="44.2548684" lon="8.2204193"><ele>715.0</ele><time>2026-04-18T12:38:24.253Z</time></trkpt><trkpt lat="44.2549076" lon="8.2205366"><ele>715.0</ele><time>2026-04-18T12:38:25.253Z</time></trkpt><trkpt lat="44.2549721" lon="8.2206449"><ele>715.0</ele><time>2026-04-18T12:38:26.253Z</time></trkpt><trkpt lat="44.2550734" lon="8.2207297"><ele>710.0</ele><time>2026-04-18T12:38:27.253Z</time></trkpt><trkpt lat="44.2551856" lon="8.2208008"><ele>705.0</ele><time>2026-04-18T12:38:28.253Z</time></trkpt><trkpt lat="44.2552941" lon="8.2208565"><ele>700.0</ele><time>2026-04-18T12:38:29.252Z</time></trkpt><trkpt lat="44.2554137" lon="8.2208823"><ele>695.0</ele><time>2026-04-18T12:38:30.253Z</time></trkpt><trkpt lat="44.2555314" lon="8.2208741"><ele>695.0</ele><time>2026-04-18T12:38:31.253Z</time></trkpt><trkpt lat="44.2556321" lon="8.2208349"><ele>695.0</ele><time>2026-04-18T12:38:32.253Z</time></trkpt><trkpt lat="44.2557211" lon="8.2207733"><ele>695.0</ele><time>2026-04-18T12:38:33.253Z</time></trkpt><trkpt lat="44.2557941" lon="8.2206849"><ele>695.0</ele><time>2026-04-18T12:38:34.253Z</time></trkpt><trkpt lat="44.2558626" lon="8.2205816"><ele>695.0</ele><time>2026-04-18T12:38:35.253Z</time></trkpt><trkpt lat="44.2559442" lon="8.2204872"><ele>698.3333333333333</ele><time>2026-04-18T12:38:36.253Z</time></trkpt><trkpt lat="44.2560341" lon="8.2204155"><ele>701.6666666666666</ele><time>2026-04-18T12:38:37.252Z</time></trkpt><trkpt lat="44.2561208" lon="8.2203422"><ele>705.0</ele><time>2026-04-18T12:38:38.253Z</time></trkpt><trkpt lat="44.2561993" lon="8.2202733"><ele>708.3333333333334</ele><time>2026-04-18T12:38:39.253Z</time></trkpt><trkpt lat="44.2562744" lon="8.220235"><ele>711.6666666666667</ele><time>2026-04-18T12:38:40.252Z</time></trkpt><trkpt lat="44.2563432" lon="8.2202584"><ele>715.0</ele><time>2026-04-18T12:38:41.253Z</time></trkpt><trkpt lat="44.2564214" lon="8.2203307"><ele>713.2</ele><time>2026-04-18T12:38:42.253Z</time></trkpt><trkpt lat="44.2565065" lon="8.2204012"><ele>711.4</ele><time>2026-04-18T12:38:43.253Z</time></trkpt><trkpt lat="44.2566085" lon="8.2204544"><ele>709.5999999999999</ele><time>2026-04-18T12:38:44.253Z</time></trkpt><trkpt lat="44.2567187" lon="8.2205057"><ele>707.8</ele><time>2026-04-18T12:38:45.253Z</time></trkpt><trkpt lat="44.2568094" lon="8.2205398"><ele>706.0</ele><time>2026-04-18T12:38:46.252Z</time></trkpt><trkpt lat="44.2568911" lon="8.2206016"><ele>702.0</ele><time>2026-04-18T12:38:47.253Z</time></trkpt><trkpt lat="44.2569486" lon="8.2206964"><ele>698.0</ele><time>2026-04-18T12:38:48.253Z</time></trkpt><trkpt lat="44.2569769" lon="8.2207885"><ele>694.0</ele><time>2026-04-18T12:38:49.253Z</time></trkpt><trkpt lat="44.2569934" lon="8.2208844"><ele>690.0</ele><time>2026-04-18T12:38:50.252Z</time></trkpt><trkpt lat="44.2570023" lon="8.2209795"><ele>686.0</ele><time>2026-04-18T12:38:51.253Z</time></trkpt><trkpt lat="44.2570511" lon="8.2210633"><ele>682.0</ele><time>2026-04-18T12:38:52.253Z</time></trkpt><trkpt lat="44.2571431" lon="8.22113"><ele>682.0</ele><time>2026-04-18T12:38:53.253Z</time></trkpt><trkpt lat="44.2572488" lon="8.2211979"><ele>682.0</ele><time>2026-04-18T12:38:54.253Z</time></trkpt><trkpt lat="44.257359" lon="8.2212678"><ele>682.0</ele><time>2026-04-18T12:38:55.253Z</time></trkpt><trkpt lat="44.2574807" lon="8.2213412"><ele>682.0</ele><time>2026-04-18T12:38:56.253Z</time></trkpt><trkpt lat="44.257594" lon="8.2214093"><ele>680.2</ele><time>2026-04-18T12:38:57.253Z</time></trkpt><trkpt lat="44.2576895" lon="8.2214885"><ele>678.4000000000001</ele><time>2026-04-18T12:38:58.253Z</time></trkpt><trkpt lat="44.2577567" lon="8.2216052"><ele>676.5999999999999</ele><time>2026-04-18T12:38:59.253Z</time></trkpt><trkpt lat="44.2577947" lon="8.2217481"><ele>674.8</ele><time>2026-04-18T12:39:00.253Z</time></trkpt><trkpt lat="44.2578358" lon="8.2218519"><ele>673.0</ele><time>2026-04-18T12:39:01.253Z</time></trkpt><trkpt lat="44.2579236" lon="8.2219124"><ele>673.0</ele><time>2026-04-18T12:39:02.252Z</time></trkpt><trkpt lat="44.2580349" lon="8.2219509"><ele>673.0</ele><time>2026-04-18T12:39:03.252Z</time></trkpt><trkpt lat="44.2581463" lon="8.2219752"><ele>673.0</ele><time>2026-04-18T12:39:04.253Z</time></trkpt><trkpt lat="44.2582436" lon="8.2219815"><ele>673.0</ele><time>2026-04-18T12:39:05.253Z</time></trkpt><trkpt lat="44.2583301" lon="8.2219405"><ele>673.0</ele><time>2026-04-18T12:39:06.253Z</time></trkpt><trkpt lat="44.2584057" lon="8.2218388"><ele>673.5999999999999</ele><time>2026-04-18T12:39:07.253Z</time></trkpt><trkpt lat="44.258469" lon="8.221708"><ele>674.1999999999999</ele><time>2026-04-18T12:39:08.253Z</time></trkpt><trkpt lat="44.2585297" lon="8.2215808"><ele>674.8</ele><time>2026-04-18T12:39:09.253Z</time></trkpt><trkpt lat="44.2585922" lon="8.2214769"><ele>675.4</ele><time>2026-04-18T12:39:10.252Z</time></trkpt><trkpt lat="44.2586564" lon="8.2214068"><ele>676.0</ele><time>2026-04-18T12:39:11.253Z</time></trkpt><trkpt lat="44.2587178" lon="8.2213866"><ele>676.0</ele><time>2026-04-18T12:39:12.253Z</time></trkpt><trkpt lat="44.2588141" lon="8.2214286"><ele>676.0</ele><time>2026-04-18T12:39:14.253Z</time></trkpt><trkpt lat="44.2588673" lon="8.2214964"><ele>676.0</ele><time>2026-04-18T12:39:15.253Z</time></trkpt><trkpt lat="44.2589243" lon="8.221602"><ele>676.0</ele><time>2026-04-18T12:39:16.253Z</time></trkpt><trkpt lat="44.258983" lon="8.2217139"><ele>676.0</ele><time>2026-04-18T12:39:17.253Z</time></trkpt><trkpt lat="44.2590489" lon="8.2218076"><ele>674.0</ele><time>2026-04-18T12:39:18.253Z</time></trkpt><trkpt lat="44.2591302" lon="8.2218666"><ele>672.0</ele><time>2026-04-18T12:39:19.253Z</time></trkpt><trkpt lat="44.2592324" lon="8.2218718"><ele>670.0</ele><time>2026-04-18T12:39:20.253Z</time></trkpt><trkpt lat="44.2593336" lon="8.2218696"><ele>668.0</ele><time>2026-04-18T12:39:21.253Z</time></trkpt><trkpt lat="44.2594158" lon="8.2219062"><ele>666.0</ele><time>2026-04-18T12:39:22.253Z</time></trkpt><trkpt lat="44.259485" lon="8.2219742"><ele>666.0</ele><time>2026-04-18T12:39:23.253Z</time></trkpt><trkpt lat="44.2595255" lon="8.2220812"><ele>666.0</ele><time>2026-04-18T12:39:24.252Z</time></trkpt><trkpt lat="44.259527" lon="8.2222327"><ele>666.0</ele><time>2026-04-18T12:39:25.252Z</time></trkpt><trkpt lat="44.259527" lon="8.2224"><ele>666.0</ele><time>2026-04-18T12:39:26.253Z</time></trkpt><trkpt lat="44.2595371" lon="8.2225605"><ele>666.0</ele><time>2026-04-18T12:39:27.253Z</time></trkpt><trkpt lat="44.2595675" lon="8.2227392"><ele>660.75</ele><time>2026-04-18T12:39:28.253Z</time></trkpt><trkpt lat="44.2596123" lon="8.2229177"><ele>655.5</ele><time>2026-04-18T12:39:29.253Z</time></trkpt><trkpt lat="44.2596706" lon="8.2230779"><ele>650.25</ele><time>2026-04-18T12:39:30.253Z</time></trkpt><trkpt lat="44.259742" lon="8.2232132"><ele>645.0</ele><time>2026-04-18T12:39:31.253Z</time></trkpt><trkpt lat="44.2598393" lon="8.2233332"><ele>645.0</ele><time>2026-04-18T12:39:32.253Z</time></trkpt><trkpt lat="44.2599468" lon="8.223464"><ele>645.0</ele><time>2026-04-18T12:39:33.252Z</time></trkpt><trkpt lat="44.2600518" lon="8.2235942"><ele>645.0</ele><time>2026-04-18T12:39:34.253Z</time></trkpt><trkpt lat="44.2601479" lon="8.2237155"><ele>645.0</ele><time>2026-04-18T12:39:35.253Z</time></trkpt><trkpt lat="44.2602479" lon="8.2238238"><ele>645.0</ele><time>2026-04-18T12:39:36.253Z</time></trkpt><trkpt lat="44.2603669" lon="8.2238919"><ele>645.0</ele><time>2026-04-18T12:39:37.253Z</time></trkpt><trkpt lat="44.2604926" lon="8.22393"><ele>645.0</ele><time>2026-04-18T12:39:38.253Z</time></trkpt><trkpt lat="44.2606172" lon="8.2239353"><ele>645.0</ele><time>2026-04-18T12:39:39.253Z</time></trkpt><trkpt lat="44.2607329" lon="8.2239553"><ele>642.6666666666666</ele><time>2026-04-18T12:39:40.253Z</time></trkpt><trkpt lat="44.2608216" lon="8.2240075"><ele>640.3333333333334</ele><time>2026-04-18T12:39:41.252Z</time></trkpt><trkpt lat="44.2608697" lon="8.2240991"><ele>638.0</ele><time>2026-04-18T12:39:42.253Z</time></trkpt><trkpt lat="44.2609005" lon="8.2242065"><ele>635.6666666666667</ele><time>2026-04-18T12:39:43.253Z</time></trkpt><trkpt lat="44.2609012" lon="8.2243034"><ele>633.3333333333334</ele><time>2026-04-18T12:39:44.253Z</time></trkpt><trkpt lat="44.260897" lon="8.2244015"><ele>631.0</ele><time>2026-04-18T12:39:45.252Z</time></trkpt><trkpt lat="44.2609143" lon="8.2244913"><ele>631.0</ele><time>2026-04-18T12:39:46.253Z</time></trkpt><trkpt lat="44.2609696" lon="8.2245763"><ele>631.0</ele><time>2026-04-18T12:39:47.253Z</time></trkpt><trkpt lat="44.2610661" lon="8.2246259"><ele>631.0</ele><time>2026-04-18T12:39:48.253Z</time></trkpt><trkpt lat="44.2611761" lon="8.2246482"><ele>631.0</ele><time>2026-04-18T12:39:49.253Z</time></trkpt><trkpt lat="44.2612888" lon="8.224643"><ele>631.0</ele><time>2026-04-18T12:39:50.253Z</time></trkpt><trkpt lat="44.2614006" lon="8.2246253"><ele>633.25</ele><time>2026-04-18T12:39:51.253Z</time></trkpt><trkpt lat="44.2615038" lon="8.224652"><ele>635.5</ele><time>2026-04-18T12:39:52.253Z</time></trkpt><trkpt lat="44.261593" lon="8.2247204"><ele>637.75</ele><time>2026-04-18T12:39:53.252Z</time></trkpt><trkpt lat="44.2616783" lon="8.2248468"><ele>640.0</ele><time>2026-04-18T12:39:54.253Z</time></trkpt><trkpt lat="44.2617695" lon="8.2249644"><ele>635.25</ele><time>2026-04-18T12:39:55.254Z</time></trkpt><trkpt lat="44.2618716" lon="8.2250585"><ele>630.5</ele><time>2026-04-18T12:39:56.254Z</time></trkpt><trkpt lat="44.2619772" lon="8.2251435"><ele>625.75</ele><time>2026-04-18T12:39:57.254Z</time></trkpt><trkpt lat="44.2620857" lon="8.2252124"><ele>621.0</ele><time>2026-04-18T12:39:58.254Z</time></trkpt><trkpt lat="44.2622087" lon="8.2252743"><ele>624.75</ele><time>2026-04-18T12:39:59.253Z</time></trkpt><trkpt lat="44.2623302" lon="8.2253348"><ele>628.5</ele><time>2026-04-18T12:40:00.253Z</time></trkpt><trkpt lat="44.2624581" lon="8.2254011"><ele>632.25</ele><time>2026-04-18T12:40:01.253Z</time></trkpt><trkpt lat="44.2625773" lon="8.2254917"><ele>636.0</ele><time>2026-04-18T12:40:02.254Z</time></trkpt><trkpt lat="44.2626873" lon="8.2256043"><ele>627.25</ele><time>2026-04-18T12:40:03.253Z</time></trkpt><trkpt lat="44.2627855" lon="8.2257219"><ele>618.5</ele><time>2026-04-18T12:40:04.254Z</time></trkpt><trkpt lat="44.2628836" lon="8.2258209"><ele>609.75</ele><time>2026-04-18T12:40:05.254Z</time></trkpt><trkpt lat="44.262988" lon="8.2258688"><ele>601.0</ele><time>2026-04-18T12:40:06.254Z</time></trkpt><trkpt lat="44.263095" lon="8.2258613"><ele>604.0</ele><time>2026-04-18T12:40:07.254Z</time></trkpt><trkpt lat="44.2632104" lon="8.2258295"><ele>607.0</ele><time>2026-04-18T12:40:08.254Z</time></trkpt><trkpt lat="44.2633309" lon="8.2258519"><ele>610.0</ele><time>2026-04-18T12:40:09.253Z</time></trkpt><trkpt lat="44.2634482" lon="8.2259207"><ele>613.0</ele><time>2026-04-18T12:40:10.254Z</time></trkpt><trkpt lat="44.2635737" lon="8.2259984"><ele>613.0</ele><time>2026-04-18T12:40:11.253Z</time></trkpt><trkpt lat="44.2636884" lon="8.2260636"><ele>613.0</ele><time>2026-04-18T12:40:12.254Z</time></trkpt><trkpt lat="44.2637951" lon="8.2261328"><ele>613.0</ele><time>2026-04-18T12:40:13.254Z</time></trkpt><trkpt lat="44.263887" lon="8.2262278"><ele>613.0</ele><time>2026-04-18T12:40:14.253Z</time></trkpt><trkpt lat="44.2639542" lon="8.2263725"><ele>612.25</ele><time>2026-04-18T12:40:15.254Z</time></trkpt><trkpt lat="44.2640163" lon="8.2265403"><ele>611.5</ele><time>2026-04-18T12:40:16.254Z</time></trkpt><trkpt lat="44.264079" lon="8.2267207"><ele>610.75</ele><time>2026-04-18T12:40:17.254Z</time></trkpt><trkpt lat="44.2641506" lon="8.2268955"><ele>610.0</ele><time>2026-04-18T12:40:18.254Z</time></trkpt><trkpt lat="44.2642377" lon="8.2270384"><ele>610.0</ele><time>2026-04-18T12:40:19.254Z</time></trkpt><trkpt lat="44.2643249" lon="8.2271587"><ele>610.0</ele><time>2026-04-18T12:40:20.253Z</time></trkpt><trkpt lat="44.2643748" lon="8.2272966"><ele>610.0</ele><time>2026-04-18T12:40:21.253Z</time></trkpt><trkpt lat="44.2643837" lon="8.2274292"><ele>610.0</ele><time>2026-04-18T12:40:22.254Z</time></trkpt><trkpt lat="44.2643653" lon="8.2275727"><ele>610.0</ele><time>2026-04-18T12:40:23.253Z</time></trkpt><trkpt lat="44.2643507" lon="8.2277145"><ele>606.4</ele><time>2026-04-18T12:40:24.253Z</time></trkpt><trkpt lat="44.2643447" lon="8.2278434"><ele>602.8</ele><time>2026-04-18T12:40:25.254Z</time></trkpt><trkpt lat="44.2643585" lon="8.2279564"><ele>599.2</ele><time>2026-04-18T12:40:26.254Z</time></trkpt><trkpt lat="44.264399" lon="8.2280522"><ele>595.6</ele><time>2026-04-18T12:40:27.254Z</time></trkpt><trkpt lat="44.2644794" lon="8.2281367"><ele>592.0</ele><time>2026-04-18T12:40:28.254Z</time></trkpt><trkpt lat="44.2645887" lon="8.2282202"><ele>589.5</ele><time>2026-04-18T12:40:29.253Z</time></trkpt><trkpt lat="44.2647028" lon="8.2283093"><ele>587.0</ele><time>2026-04-18T12:40:30.254Z</time></trkpt><trkpt lat="44.2648183" lon="8.2284097"><ele>584.5</ele><time>2026-04-18T12:40:31.254Z</time></trkpt><trkpt lat="44.2649327" lon="8.2285103"><ele>582.0</ele><time>2026-04-18T12:40:32.254Z</time></trkpt><trkpt lat="44.2650404" lon="8.2286138"><ele>581.2</ele><time>2026-04-18T12:40:33.253Z</time></trkpt><trkpt lat="44.2651442" lon="8.2287151"><ele>580.4000000000001</ele><time>2026-04-18T12:40:34.253Z</time></trkpt><trkpt lat="44.265239" lon="8.2287889"><ele>579.5999999999999</ele><time>2026-04-18T12:40:35.253Z</time></trkpt><trkpt lat="44.2653026" lon="8.2288716"><ele>578.8</ele><time>2026-04-18T12:40:36.254Z</time></trkpt><trkpt lat="44.2653316" lon="8.2289814"><ele>578.0</ele><time>2026-04-18T12:40:37.254Z</time></trkpt><trkpt lat="44.2653419" lon="8.2291214"><ele>578.0</ele><time>2026-04-18T12:40:38.254Z</time></trkpt><trkpt lat="44.265336" lon="8.2292734"><ele>578.0</ele><time>2026-04-18T12:40:39.253Z</time></trkpt><trkpt lat="44.2653393" lon="8.2294258"><ele>578.0</ele><time>2026-04-18T12:40:40.254Z</time></trkpt><trkpt lat="44.2653636" lon="8.2295602"><ele>578.0</ele><time>2026-04-18T12:40:41.253Z</time></trkpt><trkpt lat="44.2654166" lon="8.2296558"><ele>578.0</ele><time>2026-04-18T12:40:42.254Z</time></trkpt><trkpt lat="44.265496" lon="8.2297408"><ele>578.0</ele><time>2026-04-18T12:40:43.254Z</time></trkpt><trkpt lat="44.2655942" lon="8.2298067"><ele>578.0</ele><time>2026-04-18T12:40:44.253Z</time></trkpt><trkpt lat="44.2657074" lon="8.2298756"><ele>578.0</ele><time>2026-04-18T12:40:45.253Z</time></trkpt><trkpt lat="44.2658195" lon="8.2299617"><ele>578.0</ele><time>2026-04-18T12:40:46.254Z</time></trkpt><trkpt lat="44.2659257" lon="8.2300575"><ele>578.5</ele><time>2026-04-18T12:40:47.254Z</time></trkpt><trkpt lat="44.2660263" lon="8.230157"><ele>579.0</ele><time>2026-04-18T12:40:48.253Z</time></trkpt><trkpt lat="44.2661422" lon="8.2302213"><ele>579.5</ele><time>2026-04-18T12:40:49.254Z</time></trkpt><trkpt lat="44.2662716" lon="8.2302284"><ele>580.0</ele><time>2026-04-18T12:40:50.254Z</time></trkpt><trkpt lat="44.2664124" lon="8.2301976"><ele>580.3333333333334</ele><time>2026-04-18T12:40:51.253Z</time></trkpt><trkpt lat="44.2665645" lon="8.2301342"><ele>580.6666666666666</ele><time>2026-04-18T12:40:52.254Z</time></trkpt><trkpt lat="44.266712" lon="8.2300754"><ele>581.0</ele><time>2026-04-18T12:40:53.253Z</time></trkpt><trkpt lat="44.2668677" lon="8.2300089"><ele>581.0</ele><time>2026-04-18T12:40:54.254Z</time></trkpt><trkpt lat="44.2670324" lon="8.229941"><ele>581.0</ele><time>2026-04-18T12:40:55.253Z</time></trkpt><trkpt lat="44.2671982" lon="8.2298743"><ele>581.0</ele><time>2026-04-18T12:40:56.254Z</time></trkpt><trkpt lat="44.2673588" lon="8.2298116"><ele>582.6666666666666</ele><time>2026-04-18T12:40:57.254Z</time></trkpt><trkpt lat="44.267517" lon="8.2297498"><ele>584.3333333333334</ele><time>2026-04-18T12:40:58.254Z</time></trkpt><trkpt lat="44.2676733" lon="8.229688"><ele>586.0</ele><time>2026-04-18T12:40:59.254Z</time></trkpt><trkpt lat="44.2678241" lon="8.229632"><ele>586.0</ele><time>2026-04-18T12:41:00.254Z</time></trkpt><trkpt lat="44.267968" lon="8.2295795"><ele>586.0</ele><time>2026-04-18T12:41:01.253Z</time></trkpt><trkpt lat="44.2680993" lon="8.2295097"><ele>586.0</ele><time>2026-04-18T12:41:02.254Z</time></trkpt><trkpt lat="44.2682023" lon="8.2294084"><ele>586.0</ele><time>2026-04-18T12:41:03.254Z</time></trkpt><trkpt lat="44.2682628" lon="8.2292668"><ele>579.0</ele><time>2026-04-18T12:41:04.254Z</time></trkpt><trkpt lat="44.268295" lon="8.2290883"><ele>572.0</ele><time>2026-04-18T12:41:05.254Z</time></trkpt><trkpt lat="44.2683002" lon="8.2288831"><ele>565.0</ele><time>2026-04-18T12:41:06.254Z</time></trkpt><trkpt lat="44.2682887" lon="8.2286774"><ele>558.0</ele><time>2026-04-18T12:41:07.254Z</time></trkpt><trkpt lat="44.2682785" lon="8.2284812"><ele>558.0</ele><time>2026-04-18T12:41:08.254Z</time></trkpt><trkpt lat="44.2682681" lon="8.2282933"><ele>558.0</ele><time>2026-04-18T12:41:09.254Z</time></trkpt><trkpt lat="44.2682476" lon="8.228134"><ele>558.0</ele><time>2026-04-18T12:41:10.254Z</time></trkpt><trkpt lat="44.2682104" lon="8.2280103"><ele>558.0</ele><time>2026-04-18T12:41:11.254Z</time></trkpt><trkpt lat="44.2681831" lon="8.2278966"><ele>558.0</ele><time>2026-04-18T12:41:12.253Z</time></trkpt><trkpt lat="44.2682096" lon="8.2277563"><ele>558.0</ele><time>2026-04-18T12:41:14.253Z</time></trkpt><trkpt lat="44.2682982" lon="8.227769"><ele>558.0</ele><time>2026-04-18T12:41:15.254Z</time></trkpt><trkpt lat="44.2683583" lon="8.2278319"><ele>558.0</ele><time>2026-04-18T12:41:16.254Z</time></trkpt><trkpt lat="44.2683927" lon="8.2279326"><ele>558.0</ele><time>2026-04-18T12:41:17.254Z</time></trkpt><trkpt lat="44.2684116" lon="8.2280581"><ele>558.0</ele><time>2026-04-18T12:41:18.254Z</time></trkpt><trkpt lat="44.2684166" lon="8.2282181"><ele>558.0</ele><time>2026-04-18T12:41:19.254Z</time></trkpt><trkpt lat="44.2684421" lon="8.2283894"><ele>558.0</ele><time>2026-04-18T12:41:20.253Z</time></trkpt><trkpt lat="44.2684847" lon="8.2285693"><ele>558.0</ele><time>2026-04-18T12:41:21.254Z</time></trkpt><trkpt lat="44.2685446" lon="8.2287634"><ele>558.0</ele><time>2026-04-18T12:41:22.254Z</time></trkpt><trkpt lat="44.2686037" lon="8.2289577"><ele>558.0</ele><time>2026-04-18T12:41:23.254Z</time></trkpt><trkpt lat="44.2686595" lon="8.2291349"><ele>558.0</ele><time>2026-04-18T12:41:24.254Z</time></trkpt><trkpt lat="44.2687108" lon="8.2293065"><ele>558.0</ele><time>2026-04-18T12:41:25.254Z</time></trkpt><trkpt lat="44.268764" lon="8.2294685"><ele>558.0</ele><time>2026-04-18T12:41:26.254Z</time></trkpt><trkpt lat="44.2688121" lon="8.2296148"><ele>558.0</ele><time>2026-04-18T12:41:27.254Z</time></trkpt><trkpt lat="44.2688568" lon="8.2297394"><ele>558.0</ele><time>2026-04-18T12:41:28.254Z</time></trkpt><trkpt lat="44.2689215" lon="8.2298258"><ele>558.0</ele><time>2026-04-18T12:41:29.254Z</time></trkpt><trkpt lat="44.2689979" lon="8.2298852"><ele>558.0</ele><time>2026-04-18T12:41:30.254Z</time></trkpt><trkpt lat="44.2690955" lon="8.2299072"><ele>558.0</ele><time>2026-04-18T12:41:31.253Z</time></trkpt><trkpt lat="44.2692069" lon="8.2299031"><ele>554.75</ele><time>2026-04-18T12:41:32.254Z</time></trkpt><trkpt lat="44.2693241" lon="8.2298969"><ele>551.5</ele><time>2026-04-18T12:41:33.254Z</time></trkpt><trkpt lat="44.2694495" lon="8.229883"><ele>548.25</ele><time>2026-04-18T12:41:34.254Z</time></trkpt><trkpt lat="44.2695904" lon="8.2298632"><ele>545.0</ele><time>2026-04-18T12:41:35.254Z</time></trkpt><trkpt lat="44.2697391" lon="8.2298444"><ele>544.0</ele><time>2026-04-18T12:41:36.254Z</time></trkpt><trkpt lat="44.2698836" lon="8.2298256"><ele>543.0</ele><time>2026-04-18T12:41:37.255Z</time></trkpt><trkpt lat="44.270029" lon="8.2298075"><ele>542.0</ele><time>2026-04-18T12:41:38.254Z</time></trkpt><trkpt lat="44.2701792" lon="8.2297862"><ele>541.0</ele><time>2026-04-18T12:41:39.255Z</time></trkpt><trkpt lat="44.2703276" lon="8.2297677"><ele>547.5</ele><time>2026-04-18T12:41:40.255Z</time></trkpt><trkpt lat="44.2704663" lon="8.2297501"><ele>554.0</ele><time>2026-04-18T12:41:41.255Z</time></trkpt><trkpt lat="44.2706041" lon="8.2297526"><ele>560.5</ele><time>2026-04-18T12:41:42.255Z</time></trkpt><trkpt lat="44.2707548" lon="8.2297798"><ele>567.0</ele><time>2026-04-18T12:41:43.255Z</time></trkpt><trkpt lat="44.2709051" lon="8.2298025"><ele>560.25</ele><time>2026-04-18T12:41:44.255Z</time></trkpt><trkpt lat="44.2710547" lon="8.2298262"><ele>553.5</ele><time>2026-04-18T12:41:45.254Z</time></trkpt><trkpt lat="44.2711918" lon="8.2298522"><ele>546.75</ele><time>2026-04-18T12:41:46.255Z</time></trkpt><trkpt lat="44.2713153" lon="8.2299023"><ele>540.0</ele><time>2026-04-18T12:41:47.255Z</time></trkpt><trkpt lat="44.2714257" lon="8.2299929"><ele>542.25</ele><time>2026-04-18T12:41:48.254Z</time></trkpt><trkpt lat="44.271517" lon="8.2301194"><ele>544.5</ele><time>2026-04-18T12:41:49.255Z</time></trkpt><trkpt lat="44.2715964" lon="8.2302759"><ele>546.75</ele><time>2026-04-18T12:41:50.254Z</time></trkpt><trkpt lat="44.271675" lon="8.2304376"><ele>549.0</ele><time>2026-04-18T12:41:51.254Z</time></trkpt><trkpt lat="44.2717603" lon="8.23058"><ele>544.75</ele><time>2026-04-18T12:41:52.255Z</time></trkpt><trkpt lat="44.2718543" lon="8.2306876"><ele>540.5</ele><time>2026-04-18T12:41:53.254Z</time></trkpt><trkpt lat="44.2719631" lon="8.2307665"><ele>536.25</ele><time>2026-04-18T12:41:54.255Z</time></trkpt><trkpt lat="44.2720893" lon="8.2307871"><ele>532.0</ele><time>2026-04-18T12:41:55.254Z</time></trkpt><trkpt lat="44.2722189" lon="8.2307946"><ele>533.5</ele><time>2026-04-18T12:41:56.254Z</time></trkpt><trkpt lat="44.2723615" lon="8.2307899"><ele>535.0</ele><time>2026-04-18T12:41:57.255Z</time></trkpt><trkpt lat="44.2725074" lon="8.2307853"><ele>536.5</ele><time>2026-04-18T12:41:58.255Z</time></trkpt><trkpt lat="44.2726577" lon="8.2307798"><ele>538.0</ele><time>2026-04-18T12:41:59.254Z</time></trkpt><trkpt lat="44.2728034" lon="8.230774"><ele>538.0</ele><time>2026-04-18T12:42:00.255Z</time></trkpt><trkpt lat="44.272942" lon="8.2307831"><ele>538.0</ele><time>2026-04-18T12:42:01.255Z</time></trkpt><trkpt lat="44.2730719" lon="8.2308106"><ele>538.0</ele><time>2026-04-18T12:42:02.254Z</time></trkpt><trkpt lat="44.2732044" lon="8.230861"><ele>538.0</ele><time>2026-04-18T12:42:03.254Z</time></trkpt><trkpt lat="44.2733479" lon="8.2309304"><ele>537.6666666666667</ele><time>2026-04-18T12:42:04.255Z</time></trkpt><trkpt lat="44.2734953" lon="8.2310032"><ele>537.3333333333334</ele><time>2026-04-18T12:42:05.254Z</time></trkpt><trkpt lat="44.2736493" lon="8.231078"><ele>537.0</ele><time>2026-04-18T12:42:06.255Z</time></trkpt><trkpt lat="44.2738036" lon="8.2311485"><ele>539.3333333333334</ele><time>2026-04-18T12:42:07.255Z</time></trkpt><trkpt lat="44.2739575" lon="8.2312245"><ele>541.6666666666667</ele><time>2026-04-18T12:42:08.255Z</time></trkpt><trkpt lat="44.2741093" lon="8.2313048"><ele>544.0</ele><time>2026-04-18T12:42:09.255Z</time></trkpt><trkpt lat="44.2742594" lon="8.2313778"><ele>544.0</ele><time>2026-04-18T12:42:10.255Z</time></trkpt><trkpt lat="44.2744055" lon="8.2314512"><ele>544.0</ele><time>2026-04-18T12:42:11.255Z</time></trkpt><trkpt lat="44.2745512" lon="8.2315209"><ele>544.0</ele><time>2026-04-18T12:42:12.255Z</time></trkpt><trkpt lat="44.274701" lon="8.2315892"><ele>539.3333333333334</ele><time>2026-04-18T12:42:13.255Z</time></trkpt><trkpt lat="44.2748573" lon="8.2316472"><ele>534.6666666666666</ele><time>2026-04-18T12:42:14.255Z</time></trkpt><trkpt lat="44.2750139" lon="8.2316996"><ele>530.0</ele><time>2026-04-18T12:42:15.254Z</time></trkpt><trkpt lat="44.2751658" lon="8.2317423"><ele>530.0</ele><time>2026-04-18T12:42:16.255Z</time></trkpt><trkpt lat="44.2753133" lon="8.2317701"><ele>530.0</ele><time>2026-04-18T12:42:17.255Z</time></trkpt><trkpt lat="44.275455" lon="8.2318012"><ele>530.0</ele><time>2026-04-18T12:42:18.255Z</time></trkpt><trkpt lat="44.27559" lon="8.2318236"><ele>530.0</ele><time>2026-04-18T12:42:19.254Z</time></trkpt><trkpt lat="44.2757132" lon="8.2318635"><ele>528.5</ele><time>2026-04-18T12:42:20.255Z</time></trkpt><trkpt lat="44.2758236" lon="8.2319357"><ele>527.0</ele><time>2026-04-18T12:42:21.255Z</time></trkpt><trkpt lat="44.2759143" lon="8.2320611"><ele>525.5</ele><time>2026-04-18T12:42:22.254Z</time></trkpt><trkpt lat="44.2760018" lon="8.2322159"><ele>524.0</ele><time>2026-04-18T12:42:23.255Z</time></trkpt><trkpt lat="44.2760842" lon="8.2323735"><ele>524.0</ele><time>2026-04-18T12:42:24.255Z</time></trkpt><trkpt lat="44.2761651" lon="8.2325203"><ele>524.0</ele><time>2026-04-18T12:42:25.255Z</time></trkpt><trkpt lat="44.2762533" lon="8.2326501"><ele>524.0</ele><time>2026-04-18T12:42:26.255Z</time></trkpt><trkpt lat="44.2763702" lon="8.2327591"><ele>524.0</ele><time>2026-04-18T12:42:27.255Z</time></trkpt><trkpt lat="44.2764916" lon="8.2328533"><ele>524.75</ele><time>2026-04-18T12:42:28.255Z</time></trkpt><trkpt lat="44.276617" lon="8.232948"><ele>525.5</ele><time>2026-04-18T12:42:29.255Z</time></trkpt><trkpt lat="44.2767255" lon="8.2330464"><ele>526.25</ele><time>2026-04-18T12:42:30.255Z</time></trkpt><trkpt lat="44.2768089" lon="8.2331649"><ele>527.0</ele><time>2026-04-18T12:42:31.255Z</time></trkpt><trkpt lat="44.2768734" lon="8.2333128"><ele>527.0</ele><time>2026-04-18T12:42:32.255Z</time></trkpt><trkpt lat="44.2769425" lon="8.2334942"><ele>527.0</ele><time>2026-04-18T12:42:33.255Z</time></trkpt><trkpt lat="44.2770225" lon="8.2336847"><ele>527.0</ele><time>2026-04-18T12:42:34.254Z</time></trkpt><trkpt lat="44.2771042" lon="8.2338784"><ele>524.6666666666666</ele><time>2026-04-18T12:42:35.255Z</time></trkpt><trkpt lat="44.2771845" lon="8.2340781"><ele>522.3333333333334</ele><time>2026-04-18T12:42:36.255Z</time></trkpt><trkpt lat="44.2772636" lon="8.2342796"><ele>520.0</ele><time>2026-04-18T12:42:37.255Z</time></trkpt><trkpt lat="44.2773395" lon="8.2344839"><ele>520.6666666666667</ele><time>2026-04-18T12:42:38.254Z</time></trkpt><trkpt lat="44.277418" lon="8.2346945"><ele>521.3333333333334</ele><time>2026-04-18T12:42:39.255Z</time></trkpt><trkpt lat="44.2774854" lon="8.2348926"><ele>522.0</ele><time>2026-04-18T12:42:40.255Z</time></trkpt><trkpt lat="44.2775609" lon="8.2350708"><ele>522.0</ele><time>2026-04-18T12:42:41.255Z</time></trkpt><trkpt lat="44.2776272" lon="8.2352334"><ele>522.0</ele><time>2026-04-18T12:42:42.255Z</time></trkpt><trkpt lat="44.2776855" lon="8.2353683"><ele>522.0</ele><time>2026-04-18T12:42:43.255Z</time></trkpt><trkpt lat="44.2777481" lon="8.2354747"><ele>522.0</ele><time>2026-04-18T12:42:44.255Z</time></trkpt><trkpt lat="44.2778259" lon="8.2355684"><ele>522.0</ele><time>2026-04-18T12:42:45.255Z</time></trkpt><trkpt lat="44.2779213" lon="8.2356059"><ele>522.0</ele><time>2026-04-18T12:42:46.255Z</time></trkpt><trkpt lat="44.2780558" lon="8.2356078"><ele>522.0</ele><time>2026-04-18T12:42:47.255Z</time></trkpt><trkpt lat="44.2782118" lon="8.2355969"><ele>522.0</ele><time>2026-04-18T12:42:48.255Z</time></trkpt><trkpt lat="44.2783772" lon="8.2355989"><ele>528.6666666666666</ele><time>2026-04-18T12:42:49.255Z</time></trkpt><trkpt lat="44.278546" lon="8.2356056"><ele>535.3333333333333</ele><time>2026-04-18T12:42:50.254Z</time></trkpt><trkpt lat="44.2787127" lon="8.2356133"><ele>542.0</ele><time>2026-04-18T12:42:51.255Z</time></trkpt><trkpt lat="44.2788727" lon="8.2356197"><ele>541.5</ele><time>2026-04-18T12:42:52.255Z</time></trkpt><trkpt lat="44.2790221" lon="8.2356287"><ele>541.0</ele><time>2026-04-18T12:42:53.255Z</time></trkpt><trkpt lat="44.2791562" lon="8.2356407"><ele>540.5</ele><time>2026-04-18T12:42:54.255Z</time></trkpt><trkpt lat="44.2792683" lon="8.2356768"><ele>540.0</ele><time>2026-04-18T12:42:55.254Z</time></trkpt><trkpt lat="44.2793554" lon="8.2357664"><ele>534.25</ele><time>2026-04-18T12:42:56.254Z</time></trkpt><trkpt lat="44.2794289" lon="8.2358904"><ele>528.5</ele><time>2026-04-18T12:42:57.255Z</time></trkpt><trkpt lat="44.2794986" lon="8.2360618"><ele>522.75</ele><time>2026-04-18T12:42:58.254Z</time></trkpt><trkpt lat="44.2795649" lon="8.2362431"><ele>517.0</ele><time>2026-04-18T12:42:59.255Z</time></trkpt><trkpt lat="44.279625" lon="8.2364194"><ele>516.4</ele><time>2026-04-18T12:43:00.254Z</time></trkpt><trkpt lat="44.2796704" lon="8.2365622"><ele>515.8000000000001</ele><time>2026-04-18T12:43:01.255Z</time></trkpt><trkpt lat="44.2797114" lon="8.2366891"><ele>515.2</ele><time>2026-04-18T12:43:02.255Z</time></trkpt><trkpt lat="44.2797504" lon="8.2368268"><ele>514.6</ele><time>2026-04-18T12:43:03.254Z</time></trkpt><trkpt lat="44.2797897" lon="8.2369694"><ele>514.0</ele><time>2026-04-18T12:43:04.255Z</time></trkpt><trkpt lat="44.2798365" lon="8.237113"><ele>516.25</ele><time>2026-04-18T12:43:05.254Z</time></trkpt><trkpt lat="44.2798918" lon="8.2372777"><ele>518.5</ele><time>2026-04-18T12:43:06.255Z</time></trkpt><trkpt lat="44.2799474" lon="8.237454"><ele>520.75</ele><time>2026-04-18T12:43:07.255Z</time></trkpt><trkpt lat="44.2799999" lon="8.237651"><ele>523.0</ele><time>2026-04-18T12:43:08.255Z</time></trkpt><trkpt lat="44.2800643" lon="8.2378515"><ele>523.0</ele><time>2026-04-18T12:43:09.254Z</time></trkpt><trkpt lat="44.2801406" lon="8.2380597"><ele>523.0</ele><time>2026-04-18T12:43:10.255Z</time></trkpt><trkpt lat="44.2802155" lon="8.2382749"><ele>523.0</ele><time>2026-04-18T12:43:11.255Z</time></trkpt><trkpt lat="44.2802835" lon="8.2384753"><ele>520.5</ele><time>2026-04-18T12:43:12.254Z</time></trkpt><trkpt lat="44.2803394" lon="8.2386603"><ele>518.0</ele><time>2026-04-18T12:43:13.255Z</time></trkpt><trkpt lat="44.2803612" lon="8.23883"><ele>515.5</ele><time>2026-04-18T12:43:14.254Z</time></trkpt><trkpt lat="44.2803766" lon="8.2389923"><ele>513.0</ele><time>2026-04-18T12:43:15.254Z</time></trkpt><trkpt lat="44.2804073" lon="8.239137"><ele>511.5</ele><time>2026-04-18T12:43:16.255Z</time></trkpt><trkpt lat="44.2805044" lon="8.2392647"><ele>510.0</ele><time>2026-04-18T12:43:17.255Z</time></trkpt><trkpt lat="44.2806207" lon="8.2394071"><ele>508.5</ele><time>2026-04-18T12:43:18.255Z</time></trkpt><trkpt lat="44.2807272" lon="8.2395671"><ele>507.0</ele><time>2026-04-18T12:43:19.255Z</time></trkpt><trkpt lat="44.2808255" lon="8.2397506"><ele>507.66666666666663</ele><time>2026-04-18T12:43:20.255Z</time></trkpt><trkpt lat="44.280905" lon="8.2399546"><ele>508.3333333333333</ele><time>2026-04-18T12:43:21.255Z</time></trkpt><trkpt lat="44.2809828" lon="8.2401474"><ele>509.0</ele><time>2026-04-18T12:43:22.254Z</time></trkpt><trkpt lat="44.281056" lon="8.2403379"><ele>509.0</ele><time>2026-04-18T12:43:23.255Z</time></trkpt><trkpt lat="44.2811258" lon="8.2405252"><ele>509.0</ele><time>2026-04-18T12:43:24.256Z</time></trkpt><trkpt lat="44.2811958" lon="8.2407072"><ele>509.0</ele><time>2026-04-18T12:43:25.256Z</time></trkpt><trkpt lat="44.2812565" lon="8.2408708"><ele>509.0</ele><time>2026-04-18T12:43:26.256Z</time></trkpt><trkpt lat="44.2813439" lon="8.2410108"><ele>507.66666666666663</ele><time>2026-04-18T12:43:27.256Z</time></trkpt><trkpt lat="44.2814577" lon="8.2411392"><ele>506.33333333333337</ele><time>2026-04-18T12:43:28.256Z</time></trkpt><trkpt lat="44.2815922" lon="8.2412537"><ele>505.0</ele><time>2026-04-18T12:43:29.255Z</time></trkpt><trkpt lat="44.2817284" lon="8.2413721"><ele>502.6666666666667</ele><time>2026-04-18T12:43:30.256Z</time></trkpt><trkpt lat="44.2818765" lon="8.2415018"><ele>500.33333333333337</ele><time>2026-04-18T12:43:31.256Z</time></trkpt><trkpt lat="44.2820167" lon="8.2416437"><ele>498.0</ele><time>2026-04-18T12:43:32.256Z</time></trkpt><trkpt lat="44.2821569" lon="8.2417985"><ele>502.0</ele><time>2026-04-18T12:43:33.256Z</time></trkpt><trkpt lat="44.2822867" lon="8.2419581"><ele>506.0</ele><time>2026-04-18T12:43:34.256Z</time></trkpt><trkpt lat="44.2824184" lon="8.2421234"><ele>510.0</ele><time>2026-04-18T12:43:35.256Z</time></trkpt><trkpt lat="44.2825458" lon="8.2422844"><ele>505.66666666666663</ele><time>2026-04-18T12:43:36.256Z</time></trkpt><trkpt lat="44.2826741" lon="8.2424248"><ele>501.3333333333333</ele><time>2026-04-18T12:43:37.256Z</time></trkpt><trkpt lat="44.2828041" lon="8.2425617"><ele>497.0</ele><time>2026-04-18T12:43:38.256Z</time></trkpt><trkpt lat="44.2829375" lon="8.2427014"><ele>497.0</ele><time>2026-04-18T12:43:39.256Z</time></trkpt><trkpt lat="44.2830699" lon="8.2428378"><ele>497.0</ele><time>2026-04-18T12:43:40.256Z</time></trkpt><trkpt lat="44.2831854" lon="8.242965"><ele>497.0</ele><time>2026-04-18T12:43:41.256Z</time></trkpt><trkpt lat="44.2832894" lon="8.2430947"><ele>496.75</ele><time>2026-04-18T12:43:42.256Z</time></trkpt><trkpt lat="44.2833758" lon="8.2432419"><ele>496.5</ele><time>2026-04-18T12:43:43.256Z</time></trkpt><trkpt lat="44.2834569" lon="8.2434105"><ele>496.25</ele><time>2026-04-18T12:43:44.256Z</time></trkpt><trkpt lat="44.2835194" lon="8.2435839"><ele>496.0</ele><time>2026-04-18T12:43:45.255Z</time></trkpt><trkpt lat="44.2835888" lon="8.2437525"><ele>496.0</ele><time>2026-04-18T12:43:46.256Z</time></trkpt><trkpt lat="44.2836536" lon="8.2439204"><ele>496.0</ele><time>2026-04-18T12:43:47.256Z</time></trkpt><trkpt lat="44.2837271" lon="8.2441"><ele>496.0</ele><time>2026-04-18T12:43:48.256Z</time></trkpt><trkpt lat="44.2838168" lon="8.2442939"><ele>495.33333333333337</ele><time>2026-04-18T12:43:49.255Z</time></trkpt><trkpt lat="44.283935" lon="8.2445033"><ele>494.66666666666663</ele><time>2026-04-18T12:43:50.256Z</time></trkpt><trkpt lat="44.2840723" lon="8.2447255"><ele>494.0</ele><time>2026-04-18T12:43:51.256Z</time></trkpt><trkpt lat="44.2842076" lon="8.2449631"><ele>494.0</ele><time>2026-04-18T12:43:52.256Z</time></trkpt><trkpt lat="44.2843393" lon="8.2451881"><ele>494.0</ele><time>2026-04-18T12:43:53.256Z</time></trkpt><trkpt lat="44.2844578" lon="8.2454209"><ele>494.0</ele><time>2026-04-18T12:43:54.256Z</time></trkpt><trkpt lat="44.2845532" lon="8.2456641"><ele>493.3333333333333</ele><time>2026-04-18T12:43:55.256Z</time></trkpt><trkpt lat="44.2846183" lon="8.2459333"><ele>492.66666666666663</ele><time>2026-04-18T12:43:56.256Z</time></trkpt><trkpt lat="44.284674" lon="8.2462142"><ele>492.0</ele><time>2026-04-18T12:43:57.256Z</time></trkpt><trkpt lat="44.2847207" lon="8.2465147"><ele>493.33333333333337</ele><time>2026-04-18T12:43:58.256Z</time></trkpt><trkpt lat="44.2847622" lon="8.2468212"><ele>494.6666666666667</ele><time>2026-04-18T12:43:59.256Z</time></trkpt><trkpt lat="44.2848037" lon="8.2471178"><ele>496.0</ele><time>2026-04-18T12:44:00.256Z</time></trkpt><trkpt lat="44.2848463" lon="8.2474099"><ele>496.33333333333337</ele><time>2026-04-18T12:44:01.256Z</time></trkpt><trkpt lat="44.2848914" lon="8.2476955"><ele>496.66666666666663</ele><time>2026-04-18T12:44:02.255Z</time></trkpt><trkpt lat="44.2849345" lon="8.2479758"><ele>497.0</ele><time>2026-04-18T12:44:03.256Z</time></trkpt><trkpt lat="44.2849782" lon="8.248257"><ele>496.0</ele><time>2026-04-18T12:44:04.255Z</time></trkpt><trkpt lat="44.2850127" lon="8.2485295"><ele>495.0</ele><time>2026-04-18T12:44:05.255Z</time></trkpt><trkpt lat="44.2850277" lon="8.2487984"><ele>494.0</ele><time>2026-04-18T12:44:06.256Z</time></trkpt><trkpt lat="44.2850351" lon="8.2490585"><ele>493.66666666666663</ele><time>2026-04-18T12:44:07.255Z</time></trkpt><trkpt lat="44.285056" lon="8.2493165"><ele>493.33333333333337</ele><time>2026-04-18T12:44:08.256Z</time></trkpt><trkpt lat="44.2850882" lon="8.2495792"><ele>493.0</ele><time>2026-04-18T12:44:09.256Z</time></trkpt><trkpt lat="44.2851295" lon="8.2498444"><ele>492.0</ele><time>2026-04-18T12:44:10.255Z</time></trkpt><trkpt lat="44.2851659" lon="8.2501169"><ele>491.0</ele><time>2026-04-18T12:44:11.255Z</time></trkpt><trkpt lat="44.2851967" lon="8.250385"><ele>490.0</ele><time>2026-04-18T12:44:12.256Z</time></trkpt><trkpt lat="44.2852234" lon="8.2506537"><ele>488.6666666666667</ele><time>2026-04-18T12:44:13.256Z</time></trkpt><trkpt lat="44.2852542" lon="8.2509335"><ele>487.33333333333337</ele><time>2026-04-18T12:44:14.256Z</time></trkpt><trkpt lat="44.2853013" lon="8.2512074"><ele>486.0</ele><time>2026-04-18T12:44:15.256Z</time></trkpt><trkpt lat="44.2853495" lon="8.2514795"><ele>485.0</ele><time>2026-04-18T12:44:16.256Z</time></trkpt><trkpt lat="44.2853989" lon="8.2517416"><ele>484.0</ele><time>2026-04-18T12:44:17.256Z</time></trkpt><trkpt lat="44.2854486" lon="8.2519942"><ele>483.0</ele><time>2026-04-18T12:44:18.255Z</time></trkpt><trkpt lat="44.2854986" lon="8.252239"><ele>482.66666666666663</ele><time>2026-04-18T12:44:19.256Z</time></trkpt><trkpt lat="44.2855583" lon="8.2524692"><ele>482.3333333333333</ele><time>2026-04-18T12:44:20.256Z</time></trkpt><trkpt lat="44.2856273" lon="8.2526789"><ele>482.0</ele><time>2026-04-18T12:44:21.256Z</time></trkpt><trkpt lat="44.2857023" lon="8.2528827"><ele>486.0</ele><time>2026-04-18T12:44:22.256Z</time></trkpt><trkpt lat="44.2857695" lon="8.2530793"><ele>490.0</ele><time>2026-04-18T12:44:23.256Z</time></trkpt><trkpt lat="44.2858079" lon="8.2532964"><ele>494.0</ele><time>2026-04-18T12:44:24.256Z</time></trkpt><trkpt lat="44.2858134" lon="8.2535238"><ele>494.0</ele><time>2026-04-18T12:44:25.256Z</time></trkpt><trkpt lat="44.285814" lon="8.2537542"><ele>494.0</ele><time>2026-04-18T12:44:26.256Z</time></trkpt><trkpt lat="44.2858093" lon="8.2540013"><ele>494.0</ele><time>2026-04-18T12:44:27.256Z</time></trkpt><trkpt lat="44.2858014" lon="8.2542437"><ele>491.3333333333333</ele><time>2026-04-18T12:44:28.256Z</time></trkpt><trkpt lat="44.2857937" lon="8.2544903"><ele>488.66666666666663</ele><time>2026-04-18T12:44:29.256Z</time></trkpt><trkpt lat="44.2857851" lon="8.2547197"><ele>486.0</ele><time>2026-04-18T12:44:30.256Z</time></trkpt><trkpt lat="44.2857812" lon="8.2549346"><ele>486.0</ele><time>2026-04-18T12:44:31.256Z</time></trkpt><trkpt lat="44.2857812" lon="8.2551459"><ele>486.0</ele><time>2026-04-18T12:44:32.256Z</time></trkpt><trkpt lat="44.2857967" lon="8.2553588"><ele>486.0</ele><time>2026-04-18T12:44:33.256Z</time></trkpt><trkpt lat="44.2858292" lon="8.2555703"><ele>486.33333333333337</ele><time>2026-04-18T12:44:34.255Z</time></trkpt><trkpt lat="44.2858739" lon="8.2557839"><ele>486.6666666666667</ele><time>2026-04-18T12:44:35.256Z</time></trkpt><trkpt lat="44.285923" lon="8.2559909"><ele>487.0</ele><time>2026-04-18T12:44:36.256Z</time></trkpt><trkpt lat="44.2859714" lon="8.2561902"><ele>487.0</ele><time>2026-04-18T12:44:37.256Z</time></trkpt><trkpt lat="44.286017" lon="8.2563746"><ele>487.0</ele><time>2026-04-18T12:44:38.256Z</time></trkpt><trkpt lat="44.2860649" lon="8.2565728"><ele>487.0</ele><time>2026-04-18T12:44:39.256Z</time></trkpt><trkpt lat="44.2861174" lon="8.2567655"><ele>487.0</ele><time>2026-04-18T12:44:40.256Z</time></trkpt><trkpt lat="44.2861672" lon="8.256955"><ele>486.33333333333337</ele><time>2026-04-18T12:44:41.255Z</time></trkpt><trkpt lat="44.2862314" lon="8.2571375"><ele>485.66666666666663</ele><time>2026-04-18T12:44:42.255Z</time></trkpt><trkpt lat="44.2863159" lon="8.2573125"><ele>485.0</ele><time>2026-04-18T12:44:43.255Z</time></trkpt><trkpt lat="44.2864326" lon="8.2574565"><ele>485.0</ele><time>2026-04-18T12:44:44.256Z</time></trkpt><trkpt lat="44.2865702" lon="8.2575938"><ele>485.0</ele><time>2026-04-18T12:44:45.255Z</time></trkpt><trkpt lat="44.2867109" lon="8.2577295"><ele>485.0</ele><time>2026-04-18T12:44:46.256Z</time></trkpt><trkpt lat="44.2868584" lon="8.2578765"><ele>485.0</ele><time>2026-04-18T12:44:47.256Z</time></trkpt><trkpt lat="44.2870087" lon="8.2580317"><ele>485.0</ele><time>2026-04-18T12:44:48.256Z</time></trkpt><trkpt lat="44.2871671" lon="8.2581915"><ele>485.0</ele><time>2026-04-18T12:44:49.256Z</time></trkpt><trkpt lat="44.2873228" lon="8.2583499"><ele>484.0</ele><time>2026-04-18T12:44:50.256Z</time></trkpt><trkpt lat="44.2874829" lon="8.2585111"><ele>483.0</ele><time>2026-04-18T12:44:51.256Z</time></trkpt><trkpt lat="44.2876348" lon="8.2586694"><ele>482.0</ele><time>2026-04-18T12:44:52.256Z</time></trkpt><trkpt lat="44.2877779" lon="8.2588184"><ele>479.3333333333333</ele><time>2026-04-18T12:44:53.256Z</time></trkpt><trkpt lat="44.2879102" lon="8.2589525"><ele>476.66666666666663</ele><time>2026-04-18T12:44:54.256Z</time></trkpt><trkpt lat="44.2880419" lon="8.2590833"><ele>474.0</ele><time>2026-04-18T12:44:55.256Z</time></trkpt><trkpt lat="44.2881751" lon="8.2592054"><ele>474.0</ele><time>2026-04-18T12:44:56.255Z</time></trkpt><trkpt lat="44.2883229" lon="8.2593048"><ele>474.0</ele><time>2026-04-18T12:44:57.255Z</time></trkpt><trkpt lat="44.2884651" lon="8.2593896"><ele>474.0</ele><time>2026-04-18T12:44:58.256Z</time></trkpt><trkpt lat="44.2885984" lon="8.2594727"><ele>474.0</ele><time>2026-04-18T12:44:59.256Z</time></trkpt><trkpt lat="44.2887169" lon="8.259587"><ele>474.0</ele><time>2026-04-18T12:45:00.256Z</time></trkpt><trkpt lat="44.2888115" lon="8.2597405"><ele>474.0</ele><time>2026-04-18T12:45:01.256Z</time></trkpt><trkpt lat="44.2888792" lon="8.2599411"><ele>474.0</ele><time>2026-04-18T12:45:02.256Z</time></trkpt><trkpt lat="44.2889198" lon="8.2601642"><ele>473.0</ele><time>2026-04-18T12:45:03.256Z</time></trkpt><trkpt lat="44.2889586" lon="8.2603874"><ele>472.0</ele><time>2026-04-18T12:45:04.255Z</time></trkpt><trkpt lat="44.289013" lon="8.2605825"><ele>471.0</ele><time>2026-04-18T12:45:05.255Z</time></trkpt><trkpt lat="44.2890895" lon="8.260761"><ele>471.0</ele><time>2026-04-18T12:45:06.256Z</time></trkpt><trkpt lat="44.2892192" lon="8.2608951"><ele>471.0</ele><time>2026-04-18T12:45:07.256Z</time></trkpt><trkpt lat="44.289388" lon="8.2610325"><ele>471.0</ele><time>2026-04-18T12:45:08.255Z</time></trkpt><trkpt lat="44.2895576" lon="8.2611992"><ele>471.0</ele><time>2026-04-18T12:45:09.256Z</time></trkpt><trkpt lat="44.2897367" lon="8.2613584"><ele>471.0</ele><time>2026-04-18T12:45:10.256Z</time></trkpt><trkpt lat="44.2899171" lon="8.2615229"><ele>471.0</ele><time>2026-04-18T12:45:11.256Z</time></trkpt><trkpt lat="44.2900976" lon="8.2616966"><ele>471.66666666666663</ele><time>2026-04-18T12:45:12.256Z</time></trkpt><trkpt lat="44.2902796" lon="8.2618687"><ele>472.3333333333333</ele><time>2026-04-18T12:45:13.256Z</time></trkpt><trkpt lat="44.2904555" lon="8.2620415"><ele>473.0</ele><time>2026-04-18T12:45:14.256Z</time></trkpt><trkpt lat="44.2906238" lon="8.2622153"><ele>473.0</ele><time>2026-04-18T12:45:15.257Z</time></trkpt><trkpt lat="44.2907869" lon="8.2623787"><ele>473.0</ele><time>2026-04-18T12:45:16.257Z</time></trkpt><trkpt lat="44.2909523" lon="8.2625264"><ele>473.0</ele><time>2026-04-18T12:45:17.257Z</time></trkpt><trkpt lat="44.2911259" lon="8.262641"><ele>473.0</ele><time>2026-04-18T12:45:18.257Z</time></trkpt><trkpt lat="44.2913144" lon="8.2627249"><ele>473.0</ele><time>2026-04-18T12:45:19.257Z</time></trkpt><trkpt lat="44.2915206" lon="8.2627894"><ele>473.0</ele><time>2026-04-18T12:45:20.256Z</time></trkpt><trkpt lat="44.2917254" lon="8.2628718"><ele>478.0</ele><time>2026-04-18T12:45:21.257Z</time></trkpt><trkpt lat="44.2919282" lon="8.2629559"><ele>483.0</ele><time>2026-04-18T12:45:22.257Z</time></trkpt><trkpt lat="44.29213" lon="8.2630338"><ele>488.0</ele><time>2026-04-18T12:45:23.257Z</time></trkpt><trkpt lat="44.2923404" lon="8.2631018"><ele>481.66666666666663</ele><time>2026-04-18T12:45:24.257Z</time></trkpt><trkpt lat="44.2925413" lon="8.2631657"><ele>475.33333333333337</ele><time>2026-04-18T12:45:25.257Z</time></trkpt><trkpt lat="44.2927292" lon="8.2632311"><ele>469.0</ele><time>2026-04-18T12:45:26.257Z</time></trkpt><trkpt lat="44.2928902" lon="8.2632889"><ele>469.0</ele><time>2026-04-18T12:45:27.257Z</time></trkpt><trkpt lat="44.2930591" lon="8.2633085"><ele>469.0</ele><time>2026-04-18T12:45:28.257Z</time></trkpt><trkpt lat="44.293228" lon="8.2633033"><ele>469.0</ele><time>2026-04-18T12:45:29.257Z</time></trkpt><trkpt lat="44.2933952" lon="8.2632827"><ele>471.6666666666667</ele><time>2026-04-18T12:45:30.257Z</time></trkpt><trkpt lat="44.2935575" lon="8.2632655"><ele>474.33333333333337</ele><time>2026-04-18T12:45:31.257Z</time></trkpt><trkpt lat="44.2937173" lon="8.2632948"><ele>477.0</ele><time>2026-04-18T12:45:32.257Z</time></trkpt><trkpt lat="44.2938741" lon="8.263364"><ele>480.33333333333337</ele><time>2026-04-18T12:45:33.257Z</time></trkpt><trkpt lat="44.2940312" lon="8.2634761"><ele>483.6666666666667</ele><time>2026-04-18T12:45:34.257Z</time></trkpt><trkpt lat="44.2941972" lon="8.2635784"><ele>487.0</ele><time>2026-04-18T12:45:35.257Z</time></trkpt><trkpt lat="44.2943658" lon="8.2636425"><ele>487.0</ele><time>2026-04-18T12:45:36.257Z</time></trkpt><trkpt lat="44.2945256" lon="8.2637172"><ele>487.0</ele><time>2026-04-18T12:45:37.256Z</time></trkpt><trkpt lat="44.2946725" lon="8.2638222"><ele>487.0</ele><time>2026-04-18T12:45:38.257Z</time></trkpt><trkpt lat="44.2948104" lon="8.2639531"><ele>481.6666666666667</ele><time>2026-04-18T12:45:39.256Z</time></trkpt><trkpt lat="44.2949481" lon="8.2640888"><ele>476.33333333333337</ele><time>2026-04-18T12:45:40.257Z</time></trkpt><trkpt lat="44.2951075" lon="8.264184"><ele>471.0</ele><time>2026-04-18T12:45:41.257Z</time></trkpt><trkpt lat="44.2952762" lon="8.2642619"><ele>471.0</ele><time>2026-04-18T12:45:42.257Z</time></trkpt><trkpt lat="44.2954424" lon="8.2643368"><ele>471.0</ele><time>2026-04-18T12:45:43.257Z</time></trkpt><trkpt lat="44.2955956" lon="8.2644148"><ele>471.0</ele><time>2026-04-18T12:45:44.257Z</time></trkpt><trkpt lat="44.2957319" lon="8.264528"><ele>468.33333333333337</ele><time>2026-04-18T12:45:45.257Z</time></trkpt><trkpt lat="44.2958488" lon="8.2646898"><ele>465.6666666666667</ele><time>2026-04-18T12:45:46.257Z</time></trkpt><trkpt lat="44.2959652" lon="8.2648835"><ele>463.0</ele><time>2026-04-18T12:45:47.257Z</time></trkpt><trkpt lat="44.2960752" lon="8.2650718"><ele>463.0</ele><time>2026-04-18T12:45:48.257Z</time></trkpt><trkpt lat="44.2961913" lon="8.2652353"><ele>463.0</ele><time>2026-04-18T12:45:49.257Z</time></trkpt><trkpt lat="44.2963282" lon="8.2653695"><ele>463.0</ele><time>2026-04-18T12:45:50.257Z</time></trkpt><trkpt lat="44.2964844" lon="8.2654603"><ele>462.33333333333337</ele><time>2026-04-18T12:45:51.256Z</time></trkpt><trkpt lat="44.2966532" lon="8.2655199"><ele>461.66666666666663</ele><time>2026-04-18T12:45:52.257Z</time></trkpt><trkpt lat="44.2968261" lon="8.2655665"><ele>461.0</ele><time>2026-04-18T12:45:53.257Z</time></trkpt><trkpt lat="44.2970007" lon="8.2656152"><ele>461.0</ele><time>2026-04-18T12:45:54.256Z</time></trkpt><trkpt lat="44.2971746" lon="8.2656707"><ele>461.0</ele><time>2026-04-18T12:45:55.257Z</time></trkpt><trkpt lat="44.297348" lon="8.2657247"><ele>461.0</ele><time>2026-04-18T12:45:56.257Z</time></trkpt><trkpt lat="44.2975259" lon="8.2657777"><ele>462.0</ele><time>2026-04-18T12:45:57.257Z</time></trkpt><trkpt lat="44.2977004" lon="8.2658277"><ele>463.0</ele><time>2026-04-18T12:45:58.257Z</time></trkpt><trkpt lat="44.2978788" lon="8.2658787"><ele>464.0</ele><time>2026-04-18T12:45:59.257Z</time></trkpt><trkpt lat="44.2980638" lon="8.2659354"><ele>464.0</ele><time>2026-04-18T12:46:00.256Z</time></trkpt><trkpt lat="44.2982511" lon="8.2659893"><ele>464.0</ele><time>2026-04-18T12:46:01.257Z</time></trkpt><trkpt lat="44.2984401" lon="8.2660503"><ele>464.0</ele><time>2026-04-18T12:46:02.257Z</time></trkpt><trkpt lat="44.2986352" lon="8.2661235"><ele>464.0</ele><time>2026-04-18T12:46:03.257Z</time></trkpt><trkpt lat="44.2988332" lon="8.2662037"><ele>464.0</ele><time>2026-04-18T12:46:04.257Z</time></trkpt><trkpt lat="44.2990354" lon="8.2662835"><ele>464.0</ele><time>2026-04-18T12:46:05.256Z</time></trkpt><trkpt lat="44.2992417" lon="8.2663651"><ele>461.0</ele><time>2026-04-18T12:46:06.257Z</time></trkpt><trkpt lat="44.2994468" lon="8.266451"><ele>458.0</ele><time>2026-04-18T12:46:07.256Z</time></trkpt><trkpt lat="44.2996453" lon="8.2665404"><ele>455.0</ele><time>2026-04-18T12:46:08.256Z</time></trkpt><trkpt lat="44.299836" lon="8.2666235"><ele>455.0</ele><time>2026-04-18T12:46:09.256Z</time></trkpt><trkpt lat="44.3000188" lon="8.2667041"><ele>455.0</ele><time>2026-04-18T12:46:10.257Z</time></trkpt><trkpt lat="44.3001922" lon="8.2667797"><ele>455.0</ele><time>2026-04-18T12:46:11.257Z</time></trkpt><trkpt lat="44.3003569" lon="8.266839"><ele>455.0</ele><time>2026-04-18T12:46:12.257Z</time></trkpt><trkpt lat="44.3005319" lon="8.2668736"><ele>455.0</ele><time>2026-04-18T12:46:13.256Z</time></trkpt><trkpt lat="44.3007047" lon="8.2668666"><ele>455.0</ele><time>2026-04-18T12:46:14.256Z</time></trkpt><trkpt lat="44.3008624" lon="8.2668341"><ele>454.0</ele><time>2026-04-18T12:46:15.256Z</time></trkpt><trkpt lat="44.3009971" lon="8.2668025"><ele>453.0</ele><time>2026-04-18T12:46:16.256Z</time></trkpt><trkpt lat="44.3011231" lon="8.2667988"><ele>452.0</ele><time>2026-04-18T12:46:17.257Z</time></trkpt><trkpt lat="44.3012418" lon="8.2668503"><ele>451.0</ele><time>2026-04-18T12:46:18.257Z</time></trkpt><trkpt lat="44.3013619" lon="8.2669501"><ele>452.6666666666667</ele><time>2026-04-18T12:46:19.257Z</time></trkpt><trkpt lat="44.3014883" lon="8.2670596"><ele>454.33333333333337</ele><time>2026-04-18T12:46:20.257Z</time></trkpt><trkpt lat="44.3016324" lon="8.2671564"><ele>456.0</ele><time>2026-04-18T12:46:21.257Z</time></trkpt><trkpt lat="44.3017946" lon="8.2672348"><ele>452.66666666666663</ele><time>2026-04-18T12:46:22.257Z</time></trkpt><trkpt lat="44.3019692" lon="8.2673077"><ele>449.3333333333333</ele><time>2026-04-18T12:46:23.257Z</time></trkpt><trkpt lat="44.3021558" lon="8.2673743"><ele>446.0</ele><time>2026-04-18T12:46:24.257Z</time></trkpt><trkpt lat="44.3023533" lon="8.2674379"><ele>446.0</ele><time>2026-04-18T12:46:25.257Z</time></trkpt><trkpt lat="44.3025503" lon="8.2674927"><ele>446.0</ele><time>2026-04-18T12:46:26.257Z</time></trkpt><trkpt lat="44.3027508" lon="8.2675425"><ele>446.0</ele><time>2026-04-18T12:46:27.257Z</time></trkpt><trkpt lat="44.302952" lon="8.2675909"><ele>448.3333333333333</ele><time>2026-04-18T12:46:28.257Z</time></trkpt><trkpt lat="44.3031514" lon="8.2676324"><ele>450.66666666666663</ele><time>2026-04-18T12:46:29.257Z</time></trkpt><trkpt lat="44.3033468" lon="8.2676717"><ele>453.0</ele><time>2026-04-18T12:46:30.257Z</time></trkpt><trkpt lat="44.303522" lon="8.2677199"><ele>453.0</ele><time>2026-04-18T12:46:31.257Z</time></trkpt><trkpt lat="44.3036811" lon="8.2678033"><ele>453.0</ele><time>2026-04-18T12:46:32.257Z</time></trkpt><trkpt lat="44.3038111" lon="8.2679389"><ele>453.0</ele><time>2026-04-18T12:46:33.256Z</time></trkpt><trkpt lat="44.3039083" lon="8.2680982"><ele>450.25</ele><time>2026-04-18T12:46:34.257Z</time></trkpt><trkpt lat="44.3039902" lon="8.2682637"><ele>447.5</ele><time>2026-04-18T12:46:35.257Z</time></trkpt><trkpt lat="44.3040908" lon="8.2683976"><ele>444.75</ele><time>2026-04-18T12:46:36.257Z</time></trkpt><trkpt lat="44.3042131" lon="8.2684938"><ele>442.0</ele><time>2026-04-18T12:46:37.257Z</time></trkpt><trkpt lat="44.3043655" lon="8.2685439"><ele>442.0</ele><time>2026-04-18T12:46:38.256Z</time></trkpt><trkpt lat="44.3045436" lon="8.2685569"><ele>442.0</ele><time>2026-04-18T12:46:39.257Z</time></trkpt><trkpt lat="44.3047374" lon="8.2685655"><ele>442.0</ele><time>2026-04-18T12:46:40.257Z</time></trkpt><trkpt lat="44.3049393" lon="8.2685959"><ele>441.33333333333337</ele><time>2026-04-18T12:46:41.257Z</time></trkpt><trkpt lat="44.3051289" lon="8.2686171"><ele>440.66666666666663</ele><time>2026-04-18T12:46:42.257Z</time></trkpt><trkpt lat="44.3053167" lon="8.2685984"><ele>440.0</ele><time>2026-04-18T12:46:43.257Z</time></trkpt><trkpt lat="44.3054999" lon="8.2685435"><ele>439.66666666666663</ele><time>2026-04-18T12:46:44.257Z</time></trkpt><trkpt lat="44.3056819" lon="8.2684487"><ele>439.33333333333337</ele><time>2026-04-18T12:46:45.257Z</time></trkpt><trkpt lat="44.3058606" lon="8.2683346"><ele>439.0</ele><time>2026-04-18T12:46:46.257Z</time></trkpt><trkpt lat="44.3060253" lon="8.2682247"><ele>439.0</ele><time>2026-04-18T12:46:47.261Z</time></trkpt><trkpt lat="44.3061904" lon="8.2681166"><ele>439.0</ele><time>2026-04-18T12:46:48.256Z</time></trkpt><trkpt lat="44.3063696" lon="8.2680203"><ele>439.0</ele><time>2026-04-18T12:46:49.257Z</time></trkpt><trkpt lat="44.3065678" lon="8.2679388"><ele>444.0</ele><time>2026-04-18T12:46:50.257Z</time></trkpt><trkpt lat="44.3067805" lon="8.2678769"><ele>449.0</ele><time>2026-04-18T12:46:51.257Z</time></trkpt><trkpt lat="44.3069924" lon="8.2678361"><ele>454.0</ele><time>2026-04-18T12:46:52.256Z</time></trkpt><trkpt lat="44.3072082" lon="8.2678238"><ele>454.33333333333337</ele><time>2026-04-18T12:46:53.257Z</time></trkpt><trkpt lat="44.3074184" lon="8.267839"><ele>454.66666666666663</ele><time>2026-04-18T12:46:54.257Z</time></trkpt><trkpt lat="44.3076197" lon="8.267881"><ele>455.0</ele><time>2026-04-18T12:46:55.257Z</time></trkpt><trkpt lat="44.3078103" lon="8.2679434"><ele>455.0</ele><time>2026-04-18T12:46:56.256Z</time></trkpt><trkpt lat="44.3079874" lon="8.2680543"><ele>455.0</ele><time>2026-04-18T12:46:57.257Z</time></trkpt><trkpt lat="44.308171" lon="8.2681691"><ele>455.0</ele><time>2026-04-18T12:46:58.257Z</time></trkpt><trkpt lat="44.3083659" lon="8.2682533"><ele>450.0</ele><time>2026-04-18T12:46:59.257Z</time></trkpt><trkpt lat="44.3085776" lon="8.2682864"><ele>445.0</ele><time>2026-04-18T12:47:00.256Z</time></trkpt><trkpt lat="44.3087923" lon="8.2683075"><ele>440.0</ele><time>2026-04-18T12:47:01.257Z</time></trkpt><trkpt lat="44.3090102" lon="8.268333"><ele>440.0</ele><time>2026-04-18T12:47:02.257Z</time></trkpt><trkpt lat="44.3092272" lon="8.2683619"><ele>440.0</ele><time>2026-04-18T12:47:03.257Z</time></trkpt><trkpt lat="44.309453" lon="8.2684075"><ele>440.0</ele><time>2026-04-18T12:47:04.257Z</time></trkpt><trkpt lat="44.3096818" lon="8.2684476"><ele>442.5</ele><time>2026-04-18T12:47:05.256Z</time></trkpt><trkpt lat="44.3099113" lon="8.2684908"><ele>445.0</ele><time>2026-04-18T12:47:06.257Z</time></trkpt><trkpt lat="44.3101295" lon="8.268528"><ele>445.0</ele><time>2026-04-18T12:47:07.258Z</time></trkpt><trkpt lat="44.3103515" lon="8.2685572"><ele>445.0</ele><time>2026-04-18T12:47:08.258Z</time></trkpt><trkpt lat="44.3105727" lon="8.2685919"><ele>445.0</ele><time>2026-04-18T12:47:09.257Z</time></trkpt><trkpt lat="44.310795" lon="8.2686415"><ele>443.6666666666667</ele><time>2026-04-18T12:47:10.257Z</time></trkpt><trkpt lat="44.3110105" lon="8.2687047"><ele>442.33333333333337</ele><time>2026-04-18T12:47:11.258Z</time></trkpt><trkpt lat="44.3112257" lon="8.2687484"><ele>441.0</ele><time>2026-04-18T12:47:12.257Z</time></trkpt><trkpt lat="44.3114399" lon="8.26877"><ele>440.0</ele><time>2026-04-18T12:47:13.258Z</time></trkpt><trkpt lat="44.3116568" lon="8.2687797"><ele>439.0</ele><time>2026-04-18T12:47:14.257Z</time></trkpt><trkpt lat="44.3118727" lon="8.2687775"><ele>438.0</ele><time>2026-04-18T12:47:15.257Z</time></trkpt><trkpt lat="44.3120847" lon="8.2687688"><ele>441.0</ele><time>2026-04-18T12:47:16.258Z</time></trkpt><trkpt lat="44.3122895" lon="8.2687528"><ele>444.0</ele><time>2026-04-18T12:47:17.257Z</time></trkpt><trkpt lat="44.3124907" lon="8.2687384"><ele>447.0</ele><time>2026-04-18T12:47:18.258Z</time></trkpt><trkpt lat="44.312699" lon="8.2687442"><ele>447.0</ele><time>2026-04-18T12:47:19.257Z</time></trkpt><trkpt lat="44.3129081" lon="8.2687667"><ele>447.0</ele><time>2026-04-18T12:47:20.258Z</time></trkpt><trkpt lat="44.3131151" lon="8.2688112"><ele>447.0</ele><time>2026-04-18T12:47:21.258Z</time></trkpt><trkpt lat="44.3133161" lon="8.2688524"><ele>447.0</ele><time>2026-04-18T12:47:22.258Z</time></trkpt><trkpt lat="44.3135193" lon="8.2688621"><ele>447.0</ele><time>2026-04-18T12:47:23.258Z</time></trkpt><trkpt lat="44.313725" lon="8.2688582"><ele>447.0</ele><time>2026-04-18T12:47:24.258Z</time></trkpt><trkpt lat="44.3139316" lon="8.2688227"><ele>447.0</ele><time>2026-04-18T12:47:25.258Z</time></trkpt><trkpt lat="44.3141247" lon="8.2687656"><ele>447.0</ele><time>2026-04-18T12:47:26.257Z</time></trkpt><trkpt lat="44.3143094" lon="8.268714"><ele>447.0</ele><time>2026-04-18T12:47:27.258Z</time></trkpt><trkpt lat="44.3144825" lon="8.2686668"><ele>447.0</ele><time>2026-04-18T12:47:28.258Z</time></trkpt><trkpt lat="44.314653" lon="8.2686068"><ele>447.0</ele><time>2026-04-18T12:47:29.258Z</time></trkpt><trkpt lat="44.3148223" lon="8.2685045"><ele>447.0</ele><time>2026-04-18T12:47:30.258Z</time></trkpt><trkpt lat="44.3149875" lon="8.268357"><ele>451.33333333333337</ele><time>2026-04-18T12:47:31.257Z</time></trkpt><trkpt lat="44.3151433" lon="8.2681897"><ele>455.6666666666667</ele><time>2026-04-18T12:47:32.258Z</time></trkpt><trkpt lat="44.3152927" lon="8.2680219"><ele>460.0</ele><time>2026-04-18T12:47:33.258Z</time></trkpt><trkpt lat="44.315444" lon="8.2678639"><ele>448.6666666666667</ele><time>2026-04-18T12:47:34.258Z</time></trkpt><trkpt lat="44.3156124" lon="8.2677306"><ele>437.33333333333337</ele><time>2026-04-18T12:47:35.258Z</time></trkpt><trkpt lat="44.3157956" lon="8.2676344"><ele>426.0</ele><time>2026-04-18T12:47:36.258Z</time></trkpt><trkpt lat="44.3159778" lon="8.2675731"><ele>426.0</ele><time>2026-04-18T12:47:37.258Z</time></trkpt><trkpt lat="44.3161618" lon="8.2675208"><ele>426.0</ele><time>2026-04-18T12:47:38.257Z</time></trkpt><trkpt lat="44.3163548" lon="8.2674604"><ele>426.0</ele><time>2026-04-18T12:47:39.258Z</time></trkpt><trkpt lat="44.3165521" lon="8.2673979"><ele>426.0</ele><time>2026-04-18T12:47:40.257Z</time></trkpt><trkpt lat="44.3167552" lon="8.2673358"><ele>426.0</ele><time>2026-04-18T12:47:41.258Z</time></trkpt><trkpt lat="44.3169574" lon="8.2672755"><ele>426.0</ele><time>2026-04-18T12:47:42.258Z</time></trkpt><trkpt lat="44.3171513" lon="8.2672144"><ele>426.0</ele><time>2026-04-18T12:47:43.257Z</time></trkpt><trkpt lat="44.3173385" lon="8.2671511"><ele>426.0</ele><time>2026-04-18T12:47:44.257Z</time></trkpt><trkpt lat="44.3175159" lon="8.2670891"><ele>426.0</ele><time>2026-04-18T12:47:45.258Z</time></trkpt><trkpt lat="44.3176884" lon="8.2670379"><ele>426.0</ele><time>2026-04-18T12:47:46.258Z</time></trkpt><trkpt lat="44.3178642" lon="8.2670064"><ele>426.0</ele><time>2026-04-18T12:47:47.258Z</time></trkpt><trkpt lat="44.3180549" lon="8.2670168"><ele>426.0</ele><time>2026-04-18T12:47:48.258Z</time></trkpt><trkpt lat="44.3182478" lon="8.267052"><ele>426.66666666666663</ele><time>2026-04-18T12:47:49.258Z</time></trkpt><trkpt lat="44.3184466" lon="8.2670851"><ele>427.3333333333333</ele><time>2026-04-18T12:47:50.257Z</time></trkpt><trkpt lat="44.318646" lon="8.2671149"><ele>428.0</ele><time>2026-04-18T12:47:51.258Z</time></trkpt><trkpt lat="44.3188498" lon="8.2671465"><ele>425.0</ele><time>2026-04-18T12:47:52.258Z</time></trkpt><trkpt lat="44.3190498" lon="8.2671885"><ele>422.0</ele><time>2026-04-18T12:47:53.258Z</time></trkpt><trkpt lat="44.3192381" lon="8.2672583"><ele>419.0</ele><time>2026-04-18T12:47:54.258Z</time></trkpt><trkpt lat="44.3194165" lon="8.2673728"><ele>419.0</ele><time>2026-04-18T12:47:55.258Z</time></trkpt><trkpt lat="44.3195942" lon="8.2675355"><ele>419.0</ele><time>2026-04-18T12:47:56.258Z</time></trkpt><trkpt lat="44.3197687" lon="8.2677228"><ele>419.0</ele><time>2026-04-18T12:47:57.258Z</time></trkpt><trkpt lat="44.3199363" lon="8.2679242"><ele>417.66666666666663</ele><time>2026-04-18T12:47:58.258Z</time></trkpt><trkpt lat="44.3200926" lon="8.2681415"><ele>416.33333333333337</ele><time>2026-04-18T12:47:59.258Z</time></trkpt><trkpt lat="44.3202461" lon="8.2683607"><ele>415.0</ele><time>2026-04-18T12:48:00.257Z</time></trkpt><trkpt lat="44.3204012" lon="8.2685761"><ele>415.0</ele><time>2026-04-18T12:48:01.258Z</time></trkpt><trkpt lat="44.3205542" lon="8.2687857"><ele>415.0</ele><time>2026-04-18T12:48:02.258Z</time></trkpt><trkpt lat="44.3207074" lon="8.2689904"><ele>415.0</ele><time>2026-04-18T12:48:03.258Z</time></trkpt><trkpt lat="44.3208554" lon="8.2691921"><ele>415.33333333333337</ele><time>2026-04-18T12:48:04.258Z</time></trkpt><trkpt lat="44.3209981" lon="8.2693784"><ele>415.66666666666663</ele><time>2026-04-18T12:48:05.257Z</time></trkpt><trkpt lat="44.3211249" lon="8.26955"><ele>416.0</ele><time>2026-04-18T12:48:06.258Z</time></trkpt><trkpt lat="44.3212319" lon="8.2696899"><ele>416.25</ele><time>2026-04-18T12:48:07.258Z</time></trkpt><trkpt lat="44.321342" lon="8.2697947"><ele>416.5</ele><time>2026-04-18T12:48:08.258Z</time></trkpt><trkpt lat="44.321474" lon="8.2698631"><ele>416.75</ele><time>2026-04-18T12:48:09.257Z</time></trkpt><trkpt lat="44.3216324" lon="8.2699103"><ele>417.0</ele><time>2026-04-18T12:48:10.257Z</time></trkpt><trkpt lat="44.3218062" lon="8.2699584"><ele>417.0</ele><time>2026-04-18T12:48:11.258Z</time></trkpt><trkpt lat="44.3219953" lon="8.2699991"><ele>417.0</ele><time>2026-04-18T12:48:12.258Z</time></trkpt><trkpt lat="44.322175" lon="8.2700479"><ele>417.0</ele><time>2026-04-18T12:48:13.258Z</time></trkpt><trkpt lat="44.3223506" lon="8.2700916"><ele>417.0</ele><time>2026-04-18T12:48:14.258Z</time></trkpt><trkpt lat="44.3225182" lon="8.2701282"><ele>417.0</ele><time>2026-04-18T12:48:15.258Z</time></trkpt><trkpt lat="44.3226727" lon="8.2701747"><ele>417.0</ele><time>2026-04-18T12:48:16.258Z</time></trkpt><trkpt lat="44.3228112" lon="8.2702256"><ele>417.0</ele><time>2026-04-18T12:48:17.257Z</time></trkpt><trkpt lat="44.3229304" lon="8.2702886"><ele>417.0</ele><time>2026-04-18T12:48:18.258Z</time></trkpt><trkpt lat="44.3230269" lon="8.2703614"><ele>417.0</ele><time>2026-04-18T12:48:19.257Z</time></trkpt><trkpt lat="44.3231093" lon="8.2704415"><ele>417.0</ele><time>2026-04-18T12:48:20.258Z</time></trkpt><trkpt lat="44.3231689" lon="8.2705131"><ele>417.0</ele><time>2026-04-18T12:48:21.258Z</time></trkpt><trkpt lat="44.3232295" lon="8.2705828"><ele>416.1666666666667</ele><time>2026-04-18T12:48:22.258Z</time></trkpt><trkpt lat="44.3232936" lon="8.2706601"><ele>415.33333333333337</ele><time>2026-04-18T12:48:23.257Z</time></trkpt><trkpt lat="44.3233622" lon="8.2707343"><ele>414.5</ele><time>2026-04-18T12:48:24.258Z</time></trkpt><trkpt lat="44.3234268" lon="8.2707986"><ele>413.6666666666667</ele><time>2026-04-18T12:48:25.258Z</time></trkpt><trkpt lat="44.3234948" lon="8.2708555"><ele>412.83333333333337</ele><time>2026-04-18T12:48:26.257Z</time></trkpt><trkpt lat="44.3235616" lon="8.270913"><ele>412.0</ele><time>2026-04-18T12:48:27.258Z</time></trkpt><trkpt lat="44.3236301" lon="8.2709594"><ele>412.00000000000006</ele><time>2026-04-18T12:48:28.258Z</time></trkpt><trkpt lat="44.3236927" lon="8.2709995"><ele>412.0</ele><time>2026-04-18T12:48:29.257Z</time></trkpt><trkpt lat="44.3237556" lon="8.2710359"><ele>412.0</ele><time>2026-04-18T12:48:30.258Z</time></trkpt><trkpt lat="44.3238303" lon="8.2710827"><ele>412.0</ele><time>2026-04-18T12:48:31.258Z</time></trkpt><trkpt lat="44.323923" lon="8.2711336"><ele>412.00000000000006</ele><time>2026-04-18T12:48:32.258Z</time></trkpt><trkpt lat="44.3240453" lon="8.2711869"><ele>412.0</ele><time>2026-04-18T12:48:33.258Z</time></trkpt><trkpt lat="44.3241728" lon="8.2712493"><ele>411.5</ele><time>2026-04-18T12:48:34.258Z</time></trkpt><trkpt lat="44.3242885" lon="8.2713211"><ele>411.0</ele><time>2026-04-18T12:48:35.258Z</time></trkpt><trkpt lat="44.3243912" lon="8.2713844"><ele>410.5</ele><time>2026-04-18T12:48:36.258Z</time></trkpt><trkpt lat="44.3244929" lon="8.2714403"><ele>410.0</ele><time>2026-04-18T12:48:37.257Z</time></trkpt><trkpt lat="44.3245983" lon="8.2714888"><ele>410.0</ele><time>2026-04-18T12:48:38.257Z</time></trkpt><trkpt lat="44.3247153" lon="8.2715539"><ele>410.0</ele><time>2026-04-18T12:48:39.258Z</time></trkpt><trkpt lat="44.324848" lon="8.2716479"><ele>410.0</ele><time>2026-04-18T12:48:40.258Z</time></trkpt><trkpt lat="44.3249763" lon="8.2717804"><ele>410.0</ele><time>2026-04-18T12:48:41.258Z</time></trkpt><trkpt lat="44.3251044" lon="8.271922"><ele>409.3333333333333</ele><time>2026-04-18T12:48:42.258Z</time></trkpt><trkpt lat="44.3252379" lon="8.2720682"><ele>408.66666666666663</ele><time>2026-04-18T12:48:43.257Z</time></trkpt><trkpt lat="44.3253775" lon="8.2722069"><ele>408.0</ele><time>2026-04-18T12:48:44.258Z</time></trkpt><trkpt lat="44.32551" lon="8.2723408"><ele>408.75</ele><time>2026-04-18T12:48:45.258Z</time></trkpt><trkpt lat="44.3256231" lon="8.2724634"><ele>409.5</ele><time>2026-04-18T12:48:46.258Z</time></trkpt><trkpt lat="44.3257292" lon="8.2726006"><ele>410.25</ele><time>2026-04-18T12:48:47.258Z</time></trkpt><trkpt lat="44.3258129" lon="8.2727575"><ele>411.0</ele><time>2026-04-18T12:48:48.257Z</time></trkpt><trkpt lat="44.3258649" lon="8.2729213"><ele>411.0</ele><time>2026-04-18T12:48:49.258Z</time></trkpt><trkpt lat="44.3259283" lon="8.273075"><ele>411.0</ele><time>2026-04-18T12:48:50.258Z</time></trkpt><trkpt lat="44.3260069" lon="8.27318"><ele>411.0</ele><time>2026-04-18T12:48:51.257Z</time></trkpt><trkpt lat="44.3261133" lon="8.2732492"><ele>411.0</ele><time>2026-04-18T12:48:52.258Z</time></trkpt><trkpt lat="44.3262643" lon="8.2732902"><ele>409.25</ele><time>2026-04-18T12:48:53.258Z</time></trkpt><trkpt lat="44.3264223" lon="8.2733557"><ele>407.5</ele><time>2026-04-18T12:48:54.258Z</time></trkpt><trkpt lat="44.3265581" lon="8.2734318"><ele>405.75</ele><time>2026-04-18T12:48:55.258Z</time></trkpt><trkpt lat="44.3266737" lon="8.2735148"><ele>404.0</ele><time>2026-04-18T12:48:56.257Z</time></trkpt><trkpt lat="44.3267497" lon="8.273591"><ele>403.99999999999994</ele><time>2026-04-18T12:48:57.258Z</time></trkpt><trkpt lat="44.3267938" lon="8.27366"><ele>404.0</ele><time>2026-04-18T12:48:59.258Z</time></trkpt><trkpt lat="44.3268323" lon="8.2737466"><ele>404.0</ele><time>2026-04-18T12:49:45.259Z</time></trkpt><trkpt lat="44.3268595" lon="8.2738333"><ele>404.0</ele><time>2026-04-18T12:49:49.259Z</time></trkpt><trkpt lat="44.3269504" lon="8.2739579"><ele>403.99999999999994</ele><time>2026-04-18T12:49:58.259Z</time></trkpt><trkpt lat="44.3270018" lon="8.2740431"><ele>404.0</ele><time>2026-04-18T12:49:59.258Z</time></trkpt><trkpt lat="44.3270513" lon="8.2741479"><ele>403.5</ele><time>2026-04-18T12:50:00.258Z</time></trkpt><trkpt lat="44.3270941" lon="8.2742712"><ele>403.0</ele><time>2026-04-18T12:50:01.259Z</time></trkpt><trkpt lat="44.3271301" lon="8.2744189"><ele>402.5</ele><time>2026-04-18T12:50:02.259Z</time></trkpt><trkpt lat="44.3271679" lon="8.2745816"><ele>402.0</ele><time>2026-04-18T12:50:03.259Z</time></trkpt><trkpt lat="44.3272057" lon="8.2747426"><ele>404.75</ele><time>2026-04-18T12:50:04.259Z</time></trkpt><trkpt lat="44.3272332" lon="8.2749108"><ele>407.5</ele><time>2026-04-18T12:50:05.259Z</time></trkpt><trkpt lat="44.3272661" lon="8.2750808"><ele>410.25</ele><time>2026-04-18T12:50:06.259Z</time></trkpt><trkpt lat="44.3272955" lon="8.2752436"><ele>413.0</ele><time>2026-04-18T12:50:07.259Z</time></trkpt><trkpt lat="44.3273259" lon="8.2754068"><ele>413.0</ele><time>2026-04-18T12:50:08.259Z</time></trkpt><trkpt lat="44.327358" lon="8.2755785"><ele>413.0</ele><time>2026-04-18T12:50:09.258Z</time></trkpt><trkpt lat="44.327396" lon="8.2757543"><ele>413.0</ele><time>2026-04-18T12:50:10.259Z</time></trkpt><trkpt lat="44.3274526" lon="8.275931"><ele>413.0</ele><time>2026-04-18T12:50:11.259Z</time></trkpt><trkpt lat="44.3275225" lon="8.2761017"><ele>411.5</ele><time>2026-04-18T12:50:12.259Z</time></trkpt><trkpt lat="44.3276024" lon="8.2762641"><ele>410.0</ele><time>2026-04-18T12:50:13.259Z</time></trkpt><trkpt lat="44.3276831" lon="8.2764344"><ele>408.5</ele><time>2026-04-18T12:50:14.259Z</time></trkpt><trkpt lat="44.3277624" lon="8.2766084"><ele>407.0</ele><time>2026-04-18T12:50:15.259Z</time></trkpt><trkpt lat="44.3278383" lon="8.2767928"><ele>405.66666666666663</ele><time>2026-04-18T12:50:16.259Z</time></trkpt><trkpt lat="44.3279241" lon="8.2769794"><ele>404.33333333333337</ele><time>2026-04-18T12:50:17.258Z</time></trkpt><trkpt lat="44.328015" lon="8.2771654"><ele>403.0</ele><time>2026-04-18T12:50:18.259Z</time></trkpt><trkpt lat="44.3281085" lon="8.2773645"><ele>403.0</ele><time>2026-04-18T12:50:19.259Z</time></trkpt><trkpt lat="44.3282097" lon="8.2775675"><ele>403.0</ele><time>2026-04-18T12:50:20.259Z</time></trkpt><trkpt lat="44.3283192" lon="8.2777678"><ele>403.0</ele><time>2026-04-18T12:50:21.258Z</time></trkpt><trkpt lat="44.3284352" lon="8.2779685"><ele>401.6666666666667</ele><time>2026-04-18T12:50:22.258Z</time></trkpt><trkpt lat="44.3285568" lon="8.2781653"><ele>400.33333333333337</ele><time>2026-04-18T12:50:23.259Z</time></trkpt><trkpt lat="44.3286813" lon="8.278361"><ele>399.0</ele><time>2026-04-18T12:50:24.258Z</time></trkpt><trkpt lat="44.3287963" lon="8.2785552"><ele>401.33333333333337</ele><time>2026-04-18T12:50:25.258Z</time></trkpt><trkpt lat="44.3288948" lon="8.278772"><ele>403.6666666666667</ele><time>2026-04-18T12:50:26.259Z</time></trkpt><trkpt lat="44.3289873" lon="8.278997"><ele>406.0</ele><time>2026-04-18T12:50:27.259Z</time></trkpt><trkpt lat="44.3290768" lon="8.2792419"><ele>406.0</ele><time>2026-04-18T12:50:28.258Z</time></trkpt><trkpt lat="44.3291558" lon="8.2794888"><ele>406.0</ele><time>2026-04-18T12:50:29.259Z</time></trkpt><trkpt lat="44.3292384" lon="8.2797412"><ele>406.0</ele><time>2026-04-18T12:50:30.258Z</time></trkpt><trkpt lat="44.3293244" lon="8.2799845"><ele>404.0</ele><time>2026-04-18T12:50:31.259Z</time></trkpt><trkpt lat="44.3294073" lon="8.2802231"><ele>402.0</ele><time>2026-04-18T12:50:32.259Z</time></trkpt><trkpt lat="44.3294854" lon="8.2804624"><ele>400.0</ele><time>2026-04-18T12:50:33.259Z</time></trkpt><trkpt lat="44.3295613" lon="8.280696"><ele>400.6666666666667</ele><time>2026-04-18T12:50:34.259Z</time></trkpt><trkpt lat="44.3296297" lon="8.280926"><ele>401.33333333333337</ele><time>2026-04-18T12:50:35.259Z</time></trkpt><trkpt lat="44.3296987" lon="8.2811438"><ele>402.0</ele><time>2026-04-18T12:50:36.259Z</time></trkpt><trkpt lat="44.3297707" lon="8.2813582"><ele>400.33333333333337</ele><time>2026-04-18T12:50:37.259Z</time></trkpt><trkpt lat="44.3298548" lon="8.2815564"><ele>398.6666666666667</ele><time>2026-04-18T12:50:38.259Z</time></trkpt><trkpt lat="44.3299681" lon="8.2817401"><ele>397.0</ele><time>2026-04-18T12:50:39.259Z</time></trkpt><trkpt lat="44.3301076" lon="8.2819119"><ele>397.0</ele><time>2026-04-18T12:50:40.258Z</time></trkpt><trkpt lat="44.3302548" lon="8.2820837"><ele>397.0</ele><time>2026-04-18T12:50:41.259Z</time></trkpt><trkpt lat="44.3304053" lon="8.2822619"><ele>397.0</ele><time>2026-04-18T12:50:42.259Z</time></trkpt><trkpt lat="44.330559" lon="8.2824489"><ele>397.33333333333337</ele><time>2026-04-18T12:50:43.259Z</time></trkpt><trkpt lat="44.3307097" lon="8.2826396"><ele>397.66666666666663</ele><time>2026-04-18T12:50:44.259Z</time></trkpt><trkpt lat="44.3308625" lon="8.2828297"><ele>398.0</ele><time>2026-04-18T12:50:45.259Z</time></trkpt><trkpt lat="44.331016" lon="8.2830224"><ele>396.3333333333333</ele><time>2026-04-18T12:50:46.259Z</time></trkpt><trkpt lat="44.3311679" lon="8.2832129"><ele>394.66666666666663</ele><time>2026-04-18T12:50:47.258Z</time></trkpt><trkpt lat="44.331317" lon="8.2834036"><ele>393.0</ele><time>2026-04-18T12:50:48.259Z</time></trkpt><trkpt lat="44.3314574" lon="8.2835854"><ele>394.0</ele><time>2026-04-18T12:50:49.258Z</time></trkpt><trkpt lat="44.3316032" lon="8.2837647"><ele>395.0</ele><time>2026-04-18T12:50:50.259Z</time></trkpt><trkpt lat="44.3317534" lon="8.2839323"><ele>396.0</ele><time>2026-04-18T12:50:51.259Z</time></trkpt><trkpt lat="44.3319118" lon="8.2840854"><ele>396.0</ele><time>2026-04-18T12:50:52.259Z</time></trkpt><trkpt lat="44.332081" lon="8.28424"><ele>396.0</ele><time>2026-04-18T12:50:53.258Z</time></trkpt><trkpt lat="44.332247" lon="8.2843874"><ele>396.0</ele><time>2026-04-18T12:50:54.259Z</time></trkpt><trkpt lat="44.3324007" lon="8.2845361"><ele>395.33333333333337</ele><time>2026-04-18T12:50:55.258Z</time></trkpt><trkpt lat="44.332542" lon="8.2846816"><ele>394.6666666666667</ele><time>2026-04-18T12:50:56.259Z</time></trkpt><trkpt lat="44.3326662" lon="8.2848367"><ele>394.0</ele><time>2026-04-18T12:50:57.258Z</time></trkpt><trkpt lat="44.3327696" lon="8.2850203"><ele>394.0</ele><time>2026-04-18T12:50:58.258Z</time></trkpt><trkpt lat="44.3328434" lon="8.2852276"><ele>394.0</ele><time>2026-04-18T12:50:59.259Z</time></trkpt><trkpt lat="44.3329198" lon="8.2854557"><ele>394.0</ele><time>2026-04-18T12:51:00.259Z</time></trkpt><trkpt lat="44.3329823" lon="8.2857085"><ele>392.6666666666667</ele><time>2026-04-18T12:51:01.259Z</time></trkpt><trkpt lat="44.3330495" lon="8.2859533"><ele>391.33333333333337</ele><time>2026-04-18T12:51:02.259Z</time></trkpt><trkpt lat="44.3331249" lon="8.286191"><ele>390.0</ele><time>2026-04-18T12:51:03.259Z</time></trkpt><trkpt lat="44.3332143" lon="8.2864212"><ele>391.66666666666663</ele><time>2026-04-18T12:51:04.259Z</time></trkpt><trkpt lat="44.333319" lon="8.2866488"><ele>393.3333333333333</ele><time>2026-04-18T12:51:05.259Z</time></trkpt><trkpt lat="44.3334398" lon="8.2868675"><ele>395.0</ele><time>2026-04-18T12:51:06.259Z</time></trkpt><trkpt lat="44.3335633" lon="8.2870943"><ele>392.66666666666663</ele><time>2026-04-18T12:51:07.259Z</time></trkpt><trkpt lat="44.3336847" lon="8.2873198"><ele>390.33333333333337</ele><time>2026-04-18T12:51:08.258Z</time></trkpt><trkpt lat="44.3338082" lon="8.2875435"><ele>388.0</ele><time>2026-04-18T12:51:09.259Z</time></trkpt><trkpt lat="44.3339287" lon="8.2877702"><ele>391.33333333333337</ele><time>2026-04-18T12:51:10.258Z</time></trkpt><trkpt lat="44.3340496" lon="8.2880024"><ele>394.66666666666663</ele><time>2026-04-18T12:51:11.259Z</time></trkpt><trkpt lat="44.3341609" lon="8.2882459"><ele>398.0</ele><time>2026-04-18T12:51:12.259Z</time></trkpt><trkpt lat="44.334257" lon="8.2884876"><ele>398.0</ele><time>2026-04-18T12:51:13.259Z</time></trkpt><trkpt lat="44.334339" lon="8.2887418"><ele>398.0</ele><time>2026-04-18T12:51:14.259Z</time></trkpt><trkpt lat="44.3343997" lon="8.2889945"><ele>398.0</ele><time>2026-04-18T12:51:15.259Z</time></trkpt><trkpt lat="44.3344509" lon="8.2892247"><ele>394.0</ele><time>2026-04-18T12:51:16.259Z</time></trkpt><trkpt lat="44.3345128" lon="8.2894433"><ele>390.0</ele><time>2026-04-18T12:51:17.259Z</time></trkpt><trkpt lat="44.3345999" lon="8.2896322"><ele>386.0</ele><time>2026-04-18T12:51:18.259Z</time></trkpt><trkpt lat="44.334724" lon="8.2897728"><ele>385.3333333333333</ele><time>2026-04-18T12:51:19.258Z</time></trkpt><trkpt lat="44.3348705" lon="8.2898593"><ele>384.66666666666663</ele><time>2026-04-18T12:51:20.259Z</time></trkpt><trkpt lat="44.3350361" lon="8.2898988"><ele>384.0</ele><time>2026-04-18T12:51:21.26Z</time></trkpt><trkpt lat="44.3352106" lon="8.289876"><ele>384.0</ele><time>2026-04-18T12:51:22.259Z</time></trkpt><trkpt lat="44.3353967" lon="8.2898219"><ele>384.0</ele><time>2026-04-18T12:51:23.259Z</time></trkpt><trkpt lat="44.3355729" lon="8.28972"><ele>384.0</ele><time>2026-04-18T12:51:24.26Z</time></trkpt><trkpt lat="44.3357396" lon="8.2895516"><ele>388.33333333333337</ele><time>2026-04-18T12:51:25.26Z</time></trkpt><trkpt lat="44.335903" lon="8.2893578"><ele>392.6666666666667</ele><time>2026-04-18T12:51:26.26Z</time></trkpt><trkpt lat="44.3360638" lon="8.2891772"><ele>397.0</ele><time>2026-04-18T12:51:27.259Z</time></trkpt><trkpt lat="44.336227" lon="8.2890082"><ele>394.0</ele><time>2026-04-18T12:51:28.259Z</time></trkpt><trkpt lat="44.3363882" lon="8.2888464"><ele>391.0</ele><time>2026-04-18T12:51:29.26Z</time></trkpt><trkpt lat="44.3365372" lon="8.2886887"><ele>388.0</ele><time>2026-04-18T12:51:30.26Z</time></trkpt><trkpt lat="44.3366552" lon="8.2885369"><ele>388.0</ele><time>2026-04-18T12:51:31.26Z</time></trkpt><trkpt lat="44.3367425" lon="8.2883723"><ele>388.0</ele><time>2026-04-18T12:51:32.26Z</time></trkpt><trkpt lat="44.3367854" lon="8.2881806"><ele>388.0</ele><time>2026-04-18T12:51:33.259Z</time></trkpt><trkpt lat="44.3367972" lon="8.2879596"><ele>388.0</ele><time>2026-04-18T12:51:34.26Z</time></trkpt><trkpt lat="44.3367869" lon="8.2877089"><ele>388.6666666666667</ele><time>2026-04-18T12:51:35.259Z</time></trkpt><trkpt lat="44.336784" lon="8.2874477"><ele>389.33333333333337</ele><time>2026-04-18T12:51:36.26Z</time></trkpt><trkpt lat="44.3367649" lon="8.287181"><ele>390.0</ele><time>2026-04-18T12:51:37.26Z</time></trkpt><trkpt lat="44.336731" lon="8.2869318"><ele>391.33333333333337</ele><time>2026-04-18T12:51:38.259Z</time></trkpt><trkpt lat="44.3366855" lon="8.2866919"><ele>392.6666666666667</ele><time>2026-04-18T12:51:39.26Z</time></trkpt><trkpt lat="44.3366582" lon="8.2864628"><ele>394.0</ele><time>2026-04-18T12:51:40.259Z</time></trkpt><trkpt lat="44.3366694" lon="8.2862406"><ele>398.33333333333337</ele><time>2026-04-18T12:51:41.26Z</time></trkpt><trkpt lat="44.3367094" lon="8.2860082"><ele>402.66666666666663</ele><time>2026-04-18T12:51:42.26Z</time></trkpt><trkpt lat="44.3367965" lon="8.2857974"><ele>407.0</ele><time>2026-04-18T12:51:43.26Z</time></trkpt><trkpt lat="44.3369073" lon="8.2856237"><ele>404.66666666666663</ele><time>2026-04-18T12:51:44.26Z</time></trkpt><trkpt lat="44.3370314" lon="8.2854911"><ele>402.33333333333337</ele><time>2026-04-18T12:51:45.259Z</time></trkpt><trkpt lat="44.3371819" lon="8.2853978"><ele>400.0</ele><time>2026-04-18T12:51:46.26Z</time></trkpt><trkpt lat="44.3373577" lon="8.2853355"><ele>400.0</ele><time>2026-04-18T12:51:47.259Z</time></trkpt><trkpt lat="44.3375372" lon="8.2853029"><ele>400.0</ele><time>2026-04-18T12:51:48.26Z</time></trkpt><trkpt lat="44.3377079" lon="8.2853122"><ele>400.0</ele><time>2026-04-18T12:51:49.26Z</time></trkpt><trkpt lat="44.3378773" lon="8.2853643"><ele>400.0</ele><time>2026-04-18T12:51:50.26Z</time></trkpt><trkpt lat="44.3380458" lon="8.2854493"><ele>400.0</ele><time>2026-04-18T12:51:51.26Z</time></trkpt><trkpt lat="44.338203" lon="8.285571"><ele>400.0</ele><time>2026-04-18T12:51:52.26Z</time></trkpt><trkpt lat="44.3383461" lon="8.285737"><ele>396.0</ele><time>2026-04-18T12:51:53.26Z</time></trkpt><trkpt lat="44.3384738" lon="8.285943"><ele>392.0</ele><time>2026-04-18T12:51:54.26Z</time></trkpt><trkpt lat="44.3386023" lon="8.2861545"><ele>388.0</ele><time>2026-04-18T12:51:55.26Z</time></trkpt><trkpt lat="44.3387215" lon="8.286356"><ele>388.0</ele><time>2026-04-18T12:51:56.259Z</time></trkpt><trkpt lat="44.3388319" lon="8.2865386"><ele>388.0</ele><time>2026-04-18T12:51:57.26Z</time></trkpt><trkpt lat="44.3389436" lon="8.2866962"><ele>388.0</ele><time>2026-04-18T12:51:58.26Z</time></trkpt><trkpt lat="44.3390793" lon="8.2868051"><ele>387.75</ele><time>2026-04-18T12:51:59.26Z</time></trkpt><trkpt lat="44.3392229" lon="8.2868745"><ele>387.5</ele><time>2026-04-18T12:52:00.26Z</time></trkpt><trkpt lat="44.3393753" lon="8.286893"><ele>387.25</ele><time>2026-04-18T12:52:01.26Z</time></trkpt><trkpt lat="44.3395185" lon="8.2868672"><ele>387.0</ele><time>2026-04-18T12:52:02.26Z</time></trkpt><trkpt lat="44.3396452" lon="8.2867892"><ele>388.25</ele><time>2026-04-18T12:52:03.26Z</time></trkpt><trkpt lat="44.3397598" lon="8.2866833"><ele>389.5</ele><time>2026-04-18T12:52:04.26Z</time></trkpt><trkpt lat="44.3398504" lon="8.2865495"><ele>390.75</ele><time>2026-04-18T12:52:05.259Z</time></trkpt><trkpt lat="44.3399162" lon="8.286405"><ele>392.0</ele><time>2026-04-18T12:52:06.26Z</time></trkpt><trkpt lat="44.339975" lon="8.2862569"><ele>392.0</ele><time>2026-04-18T12:52:07.26Z</time></trkpt><trkpt lat="44.3400296" lon="8.2861118"><ele>392.0</ele><time>2026-04-18T12:52:08.26Z</time></trkpt><trkpt lat="44.3400803" lon="8.2859668"><ele>392.0</ele><time>2026-04-18T12:52:09.26Z</time></trkpt><trkpt lat="44.3401388" lon="8.2858267"><ele>392.0</ele><time>2026-04-18T12:52:10.26Z</time></trkpt><trkpt lat="44.3402119" lon="8.2856969"><ele>390.5</ele><time>2026-04-18T12:52:11.26Z</time></trkpt><trkpt lat="44.3402929" lon="8.2855797"><ele>389.0</ele><time>2026-04-18T12:52:12.26Z</time></trkpt><trkpt lat="44.3403829" lon="8.2854744"><ele>387.5</ele><time>2026-04-18T12:52:13.26Z</time></trkpt><trkpt lat="44.3404788" lon="8.285376"><ele>386.0</ele><time>2026-04-18T12:52:14.259Z</time></trkpt><trkpt lat="44.3405885" lon="8.2852758"><ele>386.0</ele><time>2026-04-18T12:52:15.26Z</time></trkpt><trkpt lat="44.3407201" lon="8.2851756"><ele>386.0</ele><time>2026-04-18T12:52:16.26Z</time></trkpt><trkpt lat="44.3408895" lon="8.2850708"><ele>386.0</ele><time>2026-04-18T12:52:17.26Z</time></trkpt><trkpt lat="44.3410729" lon="8.2849682"><ele>386.0</ele><time>2026-04-18T12:52:18.26Z</time></trkpt><trkpt lat="44.3412681" lon="8.2848738"><ele>386.0</ele><time>2026-04-18T12:52:19.26Z</time></trkpt><trkpt lat="44.3414759" lon="8.2847873"><ele>386.0</ele><time>2026-04-18T12:52:20.26Z</time></trkpt><trkpt lat="44.3416893" lon="8.2846982"><ele>382.3333333333333</ele><time>2026-04-18T12:52:21.26Z</time></trkpt><trkpt lat="44.3418937" lon="8.284607"><ele>378.66666666666663</ele><time>2026-04-18T12:52:22.26Z</time></trkpt><trkpt lat="44.3420862" lon="8.2844999"><ele>375.0</ele><time>2026-04-18T12:52:23.26Z</time></trkpt><trkpt lat="44.3422582" lon="8.2843758"><ele>375.0</ele><time>2026-04-18T12:52:24.26Z</time></trkpt><trkpt lat="44.3423939" lon="8.2842197"><ele>375.0</ele><time>2026-04-18T12:52:25.26Z</time></trkpt><trkpt lat="44.3424921" lon="8.284033"><ele>375.0</ele><time>2026-04-18T12:52:26.26Z</time></trkpt><trkpt lat="44.3425702" lon="8.2838167"><ele>377.3333333333333</ele><time>2026-04-18T12:52:27.26Z</time></trkpt><trkpt lat="44.3426431" lon="8.2835739"><ele>379.66666666666663</ele><time>2026-04-18T12:52:28.26Z</time></trkpt><trkpt lat="44.3427253" lon="8.2833252"><ele>382.0</ele><time>2026-04-18T12:52:29.259Z</time></trkpt><trkpt lat="44.3428216" lon="8.2830704"><ele>377.66666666666663</ele><time>2026-04-18T12:52:30.26Z</time></trkpt><trkpt lat="44.3429193" lon="8.2828144"><ele>373.3333333333333</ele><time>2026-04-18T12:52:31.26Z</time></trkpt><trkpt lat="44.343016" lon="8.2825498"><ele>369.0</ele><time>2026-04-18T12:52:32.259Z</time></trkpt><trkpt lat="44.3431156" lon="8.2822825"><ele>372.3333333333333</ele><time>2026-04-18T12:52:33.26Z</time></trkpt><trkpt lat="44.3432127" lon="8.2820085"><ele>375.66666666666663</ele><time>2026-04-18T12:52:34.26Z</time></trkpt><trkpt lat="44.3433117" lon="8.2817348"><ele>379.0</ele><time>2026-04-18T12:52:35.26Z</time></trkpt><trkpt lat="44.3434112" lon="8.2814553"><ele>385.0</ele><time>2026-04-18T12:52:36.26Z</time></trkpt><trkpt lat="44.3435092" lon="8.2811722"><ele>391.0</ele><time>2026-04-18T12:52:37.26Z</time></trkpt><trkpt lat="44.3436122" lon="8.2808868"><ele>396.5</ele><time>2026-04-18T12:52:38.26Z</time></trkpt><trkpt lat="44.3437132" lon="8.280599"><ele>402.0</ele><time>2026-04-18T12:52:39.26Z</time></trkpt><trkpt lat="44.3438132" lon="8.280315"><ele>389.0</ele><time>2026-04-18T12:52:40.26Z</time></trkpt><trkpt lat="44.3439142" lon="8.2800271"><ele>376.0</ele><time>2026-04-18T12:52:41.26Z</time></trkpt><trkpt lat="44.3440157" lon="8.2797422"><ele>376.0</ele><time>2026-04-18T12:52:42.26Z</time></trkpt><trkpt lat="44.3441152" lon="8.2794553"><ele>376.0</ele><time>2026-04-18T12:52:43.26Z</time></trkpt><trkpt lat="44.344218" lon="8.2791721"><ele>378.0</ele><time>2026-04-18T12:52:44.26Z</time></trkpt><trkpt lat="44.3443184" lon="8.2788905"><ele>380.0</ele><time>2026-04-18T12:52:45.259Z</time></trkpt><trkpt lat="44.3444133" lon="8.2786227"><ele>382.0</ele><time>2026-04-18T12:52:46.26Z</time></trkpt><trkpt lat="44.3445037" lon="8.2783729"><ele>382.0</ele><time>2026-04-18T12:52:47.26Z</time></trkpt><trkpt lat="44.3445894" lon="8.2781327"><ele>382.0</ele><time>2026-04-18T12:52:48.26Z</time></trkpt><trkpt lat="44.3446799" lon="8.2778978"><ele>382.0</ele><time>2026-04-18T12:52:49.26Z</time></trkpt><trkpt lat="44.3447766" lon="8.2776707"><ele>380.66666666666663</ele><time>2026-04-18T12:52:50.259Z</time></trkpt><trkpt lat="44.3448895" lon="8.2774555"><ele>379.3333333333333</ele><time>2026-04-18T12:52:51.26Z</time></trkpt><trkpt lat="44.345023" lon="8.2772627"><ele>378.0</ele><time>2026-04-18T12:52:52.259Z</time></trkpt><trkpt lat="44.3451699" lon="8.277095"><ele>378.0</ele><time>2026-04-18T12:52:53.26Z</time></trkpt><trkpt lat="44.3453255" lon="8.2769441"><ele>378.0</ele><time>2026-04-18T12:52:54.26Z</time></trkpt><trkpt lat="44.3454926" lon="8.2768109"><ele>378.0</ele><time>2026-04-18T12:52:55.26Z</time></trkpt><trkpt lat="44.3456754" lon="8.2767014"><ele>375.6666666666667</ele><time>2026-04-18T12:52:56.26Z</time></trkpt><trkpt lat="44.3458685" lon="8.276641"><ele>373.33333333333337</ele><time>2026-04-18T12:52:57.259Z</time></trkpt><trkpt lat="44.3460702" lon="8.2766018"><ele>371.0</ele><time>2026-04-18T12:52:58.26Z</time></trkpt><trkpt lat="44.3462736" lon="8.2765844"><ele>369.6666666666667</ele><time>2026-04-18T12:52:59.26Z</time></trkpt><trkpt lat="44.3464854" lon="8.2765851"><ele>368.3333333333333</ele><time>2026-04-18T12:53:00.259Z</time></trkpt><trkpt lat="44.3466988" lon="8.2765956"><ele>367.0</ele><time>2026-04-18T12:53:01.26Z</time></trkpt><trkpt lat="44.3469181" lon="8.2766162"><ele>367.0</ele><time>2026-04-18T12:53:02.259Z</time></trkpt><trkpt lat="44.3471379" lon="8.2766338"><ele>367.0</ele><time>2026-04-18T12:53:03.26Z</time></trkpt><trkpt lat="44.3473588" lon="8.2766472"><ele>367.0</ele><time>2026-04-18T12:53:04.26Z</time></trkpt><trkpt lat="44.3475768" lon="8.276658"><ele>366.66666666666663</ele><time>2026-04-18T12:53:05.259Z</time></trkpt><trkpt lat="44.347785" lon="8.276668"><ele>366.3333333333333</ele><time>2026-04-18T12:53:06.26Z</time></trkpt><trkpt lat="44.3479716" lon="8.2766814"><ele>366.0</ele><time>2026-04-18T12:53:07.26Z</time></trkpt><trkpt lat="44.3481393" lon="8.2766904"><ele>365.5</ele><time>2026-04-18T12:53:08.26Z</time></trkpt><trkpt lat="44.3482851" lon="8.2767037"><ele>365.0</ele><time>2026-04-18T12:53:09.26Z</time></trkpt><trkpt lat="44.3484124" lon="8.2767127"><ele>364.5</ele><time>2026-04-18T12:53:10.26Z</time></trkpt><trkpt lat="44.3485151" lon="8.2767308"><ele>364.0</ele><time>2026-04-18T12:53:11.26Z</time></trkpt><trkpt lat="44.3485958" lon="8.2767726"><ele>364.0</ele><time>2026-04-18T12:53:12.26Z</time></trkpt><trkpt lat="44.3486581" lon="8.2768221"><ele>364.0</ele><time>2026-04-18T12:53:13.259Z</time></trkpt><trkpt lat="44.3487226" lon="8.2768613"><ele>364.0</ele><time>2026-04-18T12:53:14.26Z</time></trkpt><trkpt lat="44.3487888" lon="8.2768341"><ele>364.0</ele><time>2026-04-18T12:53:15.259Z</time></trkpt><trkpt lat="44.3488752" lon="8.2767807"><ele>364.0</ele><time>2026-04-18T12:53:16.259Z</time></trkpt><trkpt lat="44.3489741" lon="8.276741"><ele>364.0</ele><time>2026-04-18T12:53:17.26Z</time></trkpt><trkpt lat="44.3490984" lon="8.276737"><ele>364.66666666666663</ele><time>2026-04-18T12:53:18.259Z</time></trkpt><trkpt lat="44.3492396" lon="8.2767495"><ele>365.3333333333333</ele><time>2026-04-18T12:53:19.26Z</time></trkpt><trkpt lat="44.3493921" lon="8.2767743"><ele>366.0</ele><time>2026-04-18T12:53:20.259Z</time></trkpt><trkpt lat="44.3495608" lon="8.2767876"><ele>366.3333333333333</ele><time>2026-04-18T12:53:21.26Z</time></trkpt><trkpt lat="44.3497295" lon="8.2768018"><ele>366.66666666666663</ele><time>2026-04-18T12:53:22.26Z</time></trkpt><trkpt lat="44.3499105" lon="8.2768131"><ele>367.0</ele><time>2026-04-18T12:53:23.26Z</time></trkpt><trkpt lat="44.3500966" lon="8.2768288"><ele>367.0</ele><time>2026-04-18T12:53:24.26Z</time></trkpt><trkpt lat="44.3502862" lon="8.276842"><ele>367.0</ele><time>2026-04-18T12:53:25.259Z</time></trkpt><trkpt lat="44.3504764" lon="8.2768588"><ele>367.0</ele><time>2026-04-18T12:53:26.26Z</time></trkpt><trkpt lat="44.3506749" lon="8.2768791"><ele>367.0</ele><time>2026-04-18T12:53:27.26Z</time></trkpt><trkpt lat="44.3508742" lon="8.2768933"><ele>367.0</ele><time>2026-04-18T12:53:28.26Z</time></trkpt><trkpt lat="44.3510744" lon="8.2769096"><ele>367.0</ele><time>2026-04-18T12:53:29.26Z</time></trkpt><trkpt lat="44.3512745" lon="8.2769239"><ele>368.66666666666663</ele><time>2026-04-18T12:53:30.259Z</time></trkpt><trkpt lat="44.3514749" lon="8.2769386"><ele>370.3333333333333</ele><time>2026-04-18T12:53:31.259Z</time></trkpt><trkpt lat="44.3516807" lon="8.2769563"><ele>372.0</ele><time>2026-04-18T12:53:32.26Z</time></trkpt><trkpt lat="44.3518751" lon="8.2769688"><ele>372.0</ele><time>2026-04-18T12:53:33.26Z</time></trkpt><trkpt lat="44.3520624" lon="8.2769913"><ele>372.0</ele><time>2026-04-18T12:53:34.26Z</time></trkpt><trkpt lat="44.3522394" lon="8.2770377"><ele>372.0</ele><time>2026-04-18T12:53:35.26Z</time></trkpt><trkpt lat="44.3524015" lon="8.2771211"><ele>372.3333333333333</ele><time>2026-04-18T12:53:36.26Z</time></trkpt><trkpt lat="44.352554" lon="8.2772326"><ele>372.66666666666663</ele><time>2026-04-18T12:53:37.259Z</time></trkpt><trkpt lat="44.3527095" lon="8.2773742"><ele>373.0</ele><time>2026-04-18T12:53:38.26Z</time></trkpt><trkpt lat="44.3528544" lon="8.2775317"><ele>369.3333333333333</ele><time>2026-04-18T12:53:39.26Z</time></trkpt><trkpt lat="44.3529857" lon="8.2776883"><ele>365.6666666666667</ele><time>2026-04-18T12:53:40.259Z</time></trkpt><trkpt lat="44.3531109" lon="8.2778355"><ele>362.0</ele><time>2026-04-18T12:53:41.26Z</time></trkpt><trkpt lat="44.3532129" lon="8.2779785"><ele>361.0</ele><time>2026-04-18T12:53:42.26Z</time></trkpt><trkpt lat="44.3532802" lon="8.2781062"><ele>360.0</ele><time>2026-04-18T12:53:43.26Z</time></trkpt><trkpt lat="44.353324" lon="8.2782334"><ele>359.0</ele><time>2026-04-18T12:53:44.26Z</time></trkpt><trkpt lat="44.3533525" lon="8.278342"><ele>358.0</ele><time>2026-04-18T12:53:45.261Z</time></trkpt><trkpt lat="44.3533742" lon="8.2784329"><ele>357.0</ele><time>2026-04-18T12:53:46.261Z</time></trkpt><trkpt lat="44.3534411" lon="8.2785235"><ele>357.0</ele><time>2026-04-18T12:53:48.261Z</time></trkpt><trkpt lat="44.3535482" lon="8.2785351"><ele>357.0</ele><time>2026-04-18T12:53:50.261Z</time></trkpt><trkpt lat="44.353615" lon="8.2785369"><ele>357.0</ele><time>2026-04-18T12:53:51.26Z</time></trkpt><trkpt lat="44.3536873" lon="8.2785605"><ele>357.0</ele><time>2026-04-18T12:53:52.26Z</time></trkpt><trkpt lat="44.3537644" lon="8.2786116"><ele>357.0</ele><time>2026-04-18T12:53:53.261Z</time></trkpt><trkpt lat="44.3538475" lon="8.2786864"><ele>357.0</ele><time>2026-04-18T12:53:54.261Z</time></trkpt><trkpt lat="44.3539315" lon="8.2787753"><ele>357.0</ele><time>2026-04-18T12:53:55.261Z</time></trkpt><trkpt lat="44.354021" lon="8.2788674"><ele>357.0</ele><time>2026-04-18T12:53:56.261Z</time></trkpt><trkpt lat="44.3541163" lon="8.2789726"><ele>357.0</ele><time>2026-04-18T12:53:57.261Z</time></trkpt><trkpt lat="44.354208" lon="8.2790747"><ele>357.0</ele><time>2026-04-18T12:53:58.261Z</time></trkpt><trkpt lat="44.3542946" lon="8.2791658"><ele>357.0</ele><time>2026-04-18T12:53:59.26Z</time></trkpt><trkpt lat="44.35437" lon="8.2792581"><ele>357.0</ele><time>2026-04-18T12:54:00.261Z</time></trkpt><trkpt lat="44.3544362" lon="8.2793493"><ele>357.0</ele><time>2026-04-18T12:54:01.261Z</time></trkpt><trkpt lat="44.3544901" lon="8.2794601"><ele>357.0</ele><time>2026-04-18T12:54:02.26Z</time></trkpt><trkpt lat="44.3545321" lon="8.2795923"><ele>357.0</ele><time>2026-04-18T12:54:03.261Z</time></trkpt><trkpt lat="44.3545724" lon="8.2797463"><ele>356.75</ele><time>2026-04-18T12:54:04.26Z</time></trkpt><trkpt lat="44.354613" lon="8.2799281"><ele>356.5</ele><time>2026-04-18T12:54:05.261Z</time></trkpt><trkpt lat="44.3546522" lon="8.2801309"><ele>356.25</ele><time>2026-04-18T12:54:06.261Z</time></trkpt><trkpt lat="44.3546922" lon="8.2803373"><ele>356.0</ele><time>2026-04-18T12:54:07.261Z</time></trkpt><trkpt lat="44.3547297" lon="8.280544"><ele>357.5</ele><time>2026-04-18T12:54:08.261Z</time></trkpt><trkpt lat="44.3547631" lon="8.280753"><ele>359.0</ele><time>2026-04-18T12:54:09.26Z</time></trkpt><trkpt lat="44.3547973" lon="8.2809451"><ele>360.5</ele><time>2026-04-18T12:54:10.261Z</time></trkpt><trkpt lat="44.3548292" lon="8.2811255"><ele>362.0</ele><time>2026-04-18T12:54:11.261Z</time></trkpt><trkpt lat="44.3548638" lon="8.281306"><ele>360.6666666666667</ele><time>2026-04-18T12:54:12.261Z</time></trkpt><trkpt lat="44.3548948" lon="8.2815047"><ele>359.3333333333333</ele><time>2026-04-18T12:54:13.261Z</time></trkpt><trkpt lat="44.3549288" lon="8.2817144"><ele>358.0</ele><time>2026-04-18T12:54:14.26Z</time></trkpt><trkpt lat="44.3549643" lon="8.2819292"><ele>358.0</ele><time>2026-04-18T12:54:15.26Z</time></trkpt><trkpt lat="44.3549993" lon="8.2821443"><ele>358.0</ele><time>2026-04-18T12:54:16.261Z</time></trkpt><trkpt lat="44.3550296" lon="8.2823516"><ele>358.0</ele><time>2026-04-18T12:54:17.261Z</time></trkpt><trkpt lat="44.3550595" lon="8.282549"><ele>357.0</ele><time>2026-04-18T12:54:18.261Z</time></trkpt><trkpt lat="44.3551097" lon="8.2827472"><ele>356.0</ele><time>2026-04-18T12:54:19.261Z</time></trkpt><trkpt lat="44.3551798" lon="8.2829305"><ele>355.0</ele><time>2026-04-18T12:54:20.261Z</time></trkpt><trkpt lat="44.3552712" lon="8.2831062"><ele>355.0</ele><time>2026-04-18T12:54:21.261Z</time></trkpt><trkpt lat="44.3553754" lon="8.2832816"><ele>355.0</ele><time>2026-04-18T12:54:22.261Z</time></trkpt><trkpt lat="44.3554803" lon="8.2834514"><ele>355.0</ele><time>2026-04-18T12:54:23.261Z</time></trkpt><trkpt lat="44.3555849" lon="8.2836172"><ele>355.0</ele><time>2026-04-18T12:54:24.261Z</time></trkpt><trkpt lat="44.3556849" lon="8.2837813"><ele>355.0</ele><time>2026-04-18T12:54:25.261Z</time></trkpt><trkpt lat="44.3557833" lon="8.2839389"><ele>355.0</ele><time>2026-04-18T12:54:26.26Z</time></trkpt><trkpt lat="44.3558809" lon="8.2840695"><ele>355.0</ele><time>2026-04-18T12:54:27.26Z</time></trkpt><trkpt lat="44.3559709" lon="8.2841912"><ele>355.0</ele><time>2026-04-18T12:54:28.26Z</time></trkpt><trkpt lat="44.3560538" lon="8.2843017"><ele>355.0</ele><time>2026-04-18T12:54:29.261Z</time></trkpt><trkpt lat="44.3561337" lon="8.2843998"><ele>355.0</ele><time>2026-04-18T12:54:30.261Z</time></trkpt><trkpt lat="44.3561955" lon="8.2844847"><ele>355.0</ele><time>2026-04-18T12:54:31.261Z</time></trkpt><trkpt lat="44.3562418" lon="8.2845538"><ele>355.0</ele><time>2026-04-18T12:54:32.261Z</time></trkpt><trkpt lat="44.3562855" lon="8.2846223"><ele>355.0</ele><time>2026-04-18T12:54:33.261Z</time></trkpt><trkpt lat="44.3563277" lon="8.2846961"><ele>354.8</ele><time>2026-04-18T12:54:34.261Z</time></trkpt><trkpt lat="44.3563757" lon="8.2847795"><ele>354.6</ele><time>2026-04-18T12:54:35.261Z</time></trkpt><trkpt lat="44.3564095" lon="8.2848645"><ele>354.4</ele><time>2026-04-18T12:54:36.261Z</time></trkpt><trkpt lat="44.3564691" lon="8.2849886"><ele>354.2</ele><time>2026-04-18T12:54:38.261Z</time></trkpt><trkpt lat="44.356524" lon="8.2850903"><ele>354.0</ele><time>2026-04-18T12:54:40.26Z</time></trkpt><trkpt lat="44.3565745" lon="8.2852462"><ele>354.0</ele><time>2026-04-18T12:54:42.26Z</time></trkpt><trkpt lat="44.3565994" lon="8.2853519"><ele>354.0</ele><time>2026-04-18T12:54:43.261Z</time></trkpt><trkpt lat="44.3566412" lon="8.2854711"><ele>354.0</ele><time>2026-04-18T12:54:44.26Z</time></trkpt><trkpt lat="44.356695" lon="8.2856041"><ele>354.0</ele><time>2026-04-18T12:54:45.26Z</time></trkpt><trkpt lat="44.3567599" lon="8.2857466"><ele>354.0</ele><time>2026-04-18T12:54:46.261Z</time></trkpt><trkpt lat="44.3568216" lon="8.2858846"><ele>354.0</ele><time>2026-04-18T12:54:47.261Z</time></trkpt><trkpt lat="44.3568762" lon="8.2860294"><ele>354.0</ele><time>2026-04-18T12:54:48.26Z</time></trkpt><trkpt lat="44.3569288" lon="8.2861817"><ele>354.0</ele><time>2026-04-18T12:54:49.261Z</time></trkpt><trkpt lat="44.3569912" lon="8.286339"><ele>354.0</ele><time>2026-04-18T12:54:50.261Z</time></trkpt><trkpt lat="44.3570603" lon="8.286502"><ele>354.0</ele><time>2026-04-18T12:54:51.26Z</time></trkpt><trkpt lat="44.357143" lon="8.286663"><ele>354.0</ele><time>2026-04-18T12:54:52.261Z</time></trkpt><trkpt lat="44.3572408" lon="8.286822"><ele>354.0</ele><time>2026-04-18T12:54:53.26Z</time></trkpt><trkpt lat="44.3573382" lon="8.2869706"><ele>354.0</ele><time>2026-04-18T12:54:54.261Z</time></trkpt><trkpt lat="44.357432" lon="8.2871005"><ele>353.75</ele><time>2026-04-18T12:54:55.261Z</time></trkpt><trkpt lat="44.357529" lon="8.2872232"><ele>353.5</ele><time>2026-04-18T12:54:56.26Z</time></trkpt><trkpt lat="44.357628" lon="8.2873453"><ele>353.25</ele><time>2026-04-18T12:54:57.26Z</time></trkpt><trkpt lat="44.3577233" lon="8.2874663"><ele>353.0</ele><time>2026-04-18T12:54:58.261Z</time></trkpt><trkpt lat="44.3578142" lon="8.2875848"><ele>353.0</ele><time>2026-04-18T12:54:59.26Z</time></trkpt><trkpt lat="44.3578957" lon="8.2876967"><ele>353.0</ele><time>2026-04-18T12:55:00.26Z</time></trkpt><trkpt lat="44.3579637" lon="8.2877891"><ele>353.0</ele><time>2026-04-18T12:55:01.261Z</time></trkpt><trkpt lat="44.3580147" lon="8.2878695"><ele>353.0</ele><time>2026-04-18T12:55:02.261Z</time></trkpt><trkpt lat="44.3580835" lon="8.2879876"><ele>353.0</ele><time>2026-04-18T12:55:04.261Z</time></trkpt><trkpt lat="44.3581266" lon="8.2880527"><ele>352.83333333333337</ele><time>2026-04-18T12:55:05.261Z</time></trkpt><trkpt lat="44.358172" lon="8.2881404"><ele>352.6666666666667</ele><time>2026-04-18T12:55:06.261Z</time></trkpt><trkpt lat="44.3582216" lon="8.2882275"><ele>352.5</ele><time>2026-04-18T12:55:07.261Z</time></trkpt><trkpt lat="44.3582738" lon="8.2883098"><ele>352.3333333333333</ele><time>2026-04-18T12:55:08.261Z</time></trkpt><trkpt lat="44.358321" lon="8.2883875"><ele>352.16666666666663</ele><time>2026-04-18T12:55:09.261Z</time></trkpt><trkpt lat="44.3583874" lon="8.2885161"><ele>352.0</ele><time>2026-04-18T12:55:11.261Z</time></trkpt><trkpt lat="44.3584401" lon="8.2886064"><ele>352.0</ele><time>2026-04-18T12:55:13.26Z</time></trkpt><trkpt lat="44.3585174" lon="8.2886902"><ele>352.0</ele><time>2026-04-18T12:55:15.26Z</time></trkpt><trkpt lat="44.3586416" lon="8.2886826"><ele>352.0</ele><time>2026-04-18T12:55:17.261Z</time></trkpt><trkpt lat="44.3587172" lon="8.2886486"><ele>352.0</ele><time>2026-04-18T12:55:18.261Z</time></trkpt><trkpt lat="44.3587868" lon="8.2886198"><ele>352.0</ele><time>2026-04-18T12:55:19.261Z</time></trkpt><trkpt lat="44.3588616" lon="8.2885888"><ele>352.20000000000005</ele><time>2026-04-18T12:55:20.261Z</time></trkpt><trkpt lat="44.3589329" lon="8.2885631"><ele>352.4</ele><time>2026-04-18T12:55:21.261Z</time></trkpt><trkpt lat="44.3589993" lon="8.288531"><ele>352.6</ele><time>2026-04-18T12:55:22.261Z</time></trkpt><trkpt lat="44.3591049" lon="8.288489"><ele>352.79999999999995</ele><time>2026-04-18T12:55:24.26Z</time></trkpt><trkpt lat="44.3591952" lon="8.2884446"><ele>353.0</ele><time>2026-04-18T12:55:27.261Z</time></trkpt><trkpt lat="44.3593219" lon="8.2883911"><ele>353.0</ele><time>2026-04-18T12:55:29.261Z</time></trkpt><trkpt lat="44.3594004" lon="8.2883382"><ele>353.0</ele><time>2026-04-18T12:55:30.261Z</time></trkpt><trkpt lat="44.3594925" lon="8.2882781"><ele>353.0</ele><time>2026-04-18T12:55:31.261Z</time></trkpt><trkpt lat="44.359608" lon="8.2882006"><ele>353.0</ele><time>2026-04-18T12:55:32.26Z</time></trkpt><trkpt lat="44.3597249" lon="8.2881238"><ele>353.0</ele><time>2026-04-18T12:55:33.26Z</time></trkpt><trkpt lat="44.3598374" lon="8.2880297"><ele>353.5</ele><time>2026-04-18T12:55:34.261Z</time></trkpt><trkpt lat="44.359951" lon="8.2879249"><ele>354.0</ele><time>2026-04-18T12:55:35.261Z</time></trkpt><trkpt lat="44.3600629" lon="8.2878185"><ele>354.5</ele><time>2026-04-18T12:55:36.261Z</time></trkpt><trkpt lat="44.360161" lon="8.2877221"><ele>355.0</ele><time>2026-04-18T12:55:37.261Z</time></trkpt><trkpt lat="44.3602496" lon="8.2876319"><ele>355.0</ele><time>2026-04-18T12:55:38.261Z</time></trkpt><trkpt lat="44.3603365" lon="8.2875431"><ele>355.0</ele><time>2026-04-18T12:55:39.26Z</time></trkpt><trkpt lat="44.3604297" lon="8.2874455"><ele>355.0</ele><time>2026-04-18T12:55:40.261Z</time></trkpt><trkpt lat="44.3605305" lon="8.2873429"><ele>355.0</ele><time>2026-04-18T12:55:41.26Z</time></trkpt><trkpt lat="44.3606336" lon="8.2872427"><ele>356.0</ele><time>2026-04-18T12:55:42.261Z</time></trkpt><trkpt lat="44.3607433" lon="8.2871607"><ele>357.0</ele><time>2026-04-18T12:55:43.261Z</time></trkpt><trkpt lat="44.3608658" lon="8.2871162"><ele>358.0</ele><time>2026-04-18T12:55:44.261Z</time></trkpt><trkpt lat="44.3610017" lon="8.2870795"><ele>359.0</ele><time>2026-04-18T12:55:45.261Z</time></trkpt><trkpt lat="44.36113" lon="8.2870376"><ele>359.0</ele><time>2026-04-18T12:55:46.261Z</time></trkpt><trkpt lat="44.361256" lon="8.286965"><ele>359.0</ele><time>2026-04-18T12:55:47.261Z</time></trkpt><trkpt lat="44.3613718" lon="8.2868673"><ele>359.0</ele><time>2026-04-18T12:55:48.261Z</time></trkpt><trkpt lat="44.3614747" lon="8.2867754"><ele>359.0</ele><time>2026-04-18T12:55:49.261Z</time></trkpt><trkpt lat="44.3615589" lon="8.2866849"><ele>358.6666666666667</ele><time>2026-04-18T12:55:50.26Z</time></trkpt><trkpt lat="44.3616275" lon="8.2866075"><ele>358.33333333333337</ele><time>2026-04-18T12:55:51.261Z</time></trkpt><trkpt lat="44.3616825" lon="8.2865569"><ele>358.0</ele><time>2026-04-18T12:55:52.26Z</time></trkpt><trkpt lat="44.3617842" lon="8.2866001"><ele>357.6666666666667</ele><time>2026-04-18T12:55:54.261Z</time></trkpt><trkpt lat="44.3618204" lon="8.2866732"><ele>357.3333333333333</ele><time>2026-04-18T12:55:55.26Z</time></trkpt><trkpt lat="44.3618373" lon="8.2867761"><ele>357.0</ele><time>2026-04-18T12:55:56.261Z</time></trkpt><trkpt lat="44.361857" lon="8.2869002"><ele>357.0</ele><time>2026-04-18T12:55:57.261Z</time></trkpt><trkpt lat="44.3618755" lon="8.2870335"><ele>357.0</ele><time>2026-04-18T12:55:58.261Z</time></trkpt><trkpt lat="44.3618921" lon="8.2871864"><ele>357.0</ele><time>2026-04-18T12:55:59.26Z</time></trkpt><trkpt lat="44.3619039" lon="8.2873508"><ele>357.0</ele><time>2026-04-18T12:56:00.261Z</time></trkpt><trkpt lat="44.3619225" lon="8.287519"><ele>357.0</ele><time>2026-04-18T12:56:01.261Z</time></trkpt><trkpt lat="44.3619397" lon="8.2877063"><ele>356.25</ele><time>2026-04-18T12:56:02.26Z</time></trkpt><trkpt lat="44.3619499" lon="8.2878964"><ele>355.5</ele><time>2026-04-18T12:56:03.26Z</time></trkpt><trkpt lat="44.3619541" lon="8.2880872"><ele>354.75</ele><time>2026-04-18T12:56:04.261Z</time></trkpt><trkpt lat="44.3619589" lon="8.2882729"><ele>354.0</ele><time>2026-04-18T12:56:05.26Z</time></trkpt><trkpt lat="44.3619548" lon="8.2884494"><ele>354.0</ele><time>2026-04-18T12:56:06.261Z</time></trkpt><trkpt lat="44.361951" lon="8.2886164"><ele>354.0</ele><time>2026-04-18T12:56:07.26Z</time></trkpt><trkpt lat="44.3619421" lon="8.2887864"><ele>354.0</ele><time>2026-04-18T12:56:08.261Z</time></trkpt><trkpt lat="44.3619297" lon="8.2889567"><ele>354.0</ele><time>2026-04-18T12:56:09.261Z</time></trkpt><trkpt lat="44.3619205" lon="8.2891376"><ele>354.0</ele><time>2026-04-18T12:56:10.261Z</time></trkpt><trkpt lat="44.361908" lon="8.2893109"><ele>354.0</ele><time>2026-04-18T12:56:11.261Z</time></trkpt><trkpt lat="44.3619037" lon="8.2894794"><ele>354.0</ele><time>2026-04-18T12:56:12.261Z</time></trkpt><trkpt lat="44.361895" lon="8.289634"><ele>354.0</ele><time>2026-04-18T12:56:13.261Z</time></trkpt><trkpt lat="44.3618855" lon="8.2897802"><ele>353.8333333333333</ele><time>2026-04-18T12:56:14.261Z</time></trkpt><trkpt lat="44.3618809" lon="8.2898998"><ele>353.6666666666667</ele><time>2026-04-18T12:56:15.26Z</time></trkpt><trkpt lat="44.3618728" lon="8.2899988"><ele>353.5</ele><time>2026-04-18T12:56:16.26Z</time></trkpt><trkpt lat="44.3618638" lon="8.2901228"><ele>353.33333333333337</ele><time>2026-04-18T12:56:18.26Z</time></trkpt><trkpt lat="44.361855" lon="8.2902525"><ele>353.1666666666667</ele><time>2026-04-18T12:56:20.261Z</time></trkpt><trkpt lat="44.3618544" lon="8.290395"><ele>353.0</ele><time>2026-04-18T12:56:22.262Z</time></trkpt><trkpt lat="44.3618565" lon="8.2904888"><ele>352.0</ele><time>2026-04-18T12:56:23.262Z</time></trkpt><trkpt lat="44.3618522" lon="8.2906135"><ele>351.0</ele><time>2026-04-18T12:56:25.261Z</time></trkpt><trkpt lat="44.3618305" lon="8.2907195"><ele>350.0</ele><time>2026-04-18T12:56:27.262Z</time></trkpt><trkpt lat="44.3617907" lon="8.2908053"><ele>349.0</ele><time>2026-04-18T12:56:28.262Z</time></trkpt><trkpt lat="44.3617306" lon="8.2909143"><ele>348.0</ele><time>2026-04-18T12:56:29.262Z</time></trkpt><trkpt lat="44.3616578" lon="8.2910412"><ele>348.0</ele><time>2026-04-18T12:56:30.261Z</time></trkpt><trkpt lat="44.3615707" lon="8.2911846"><ele>348.0</ele><time>2026-04-18T12:56:31.262Z</time></trkpt><trkpt lat="44.3614739" lon="8.2913284"><ele>348.0</ele><time>2026-04-18T12:56:32.262Z</time></trkpt><trkpt lat="44.361374" lon="8.2914748"><ele>348.0</ele><time>2026-04-18T12:56:33.262Z</time></trkpt><trkpt lat="44.3612722" lon="8.2916262"><ele>348.0</ele><time>2026-04-18T12:56:34.262Z</time></trkpt><trkpt lat="44.3611789" lon="8.2917782"><ele>348.0</ele><time>2026-04-18T12:56:35.262Z</time></trkpt><trkpt lat="44.3610865" lon="8.2919042"><ele>348.0</ele><time>2026-04-18T12:56:36.262Z</time></trkpt><trkpt lat="44.3609787" lon="8.2919945"><ele>348.0</ele><time>2026-04-18T12:56:37.261Z</time></trkpt><trkpt lat="44.3608456" lon="8.2920447"><ele>348.0</ele><time>2026-04-18T12:56:38.261Z</time></trkpt><trkpt lat="44.3606788" lon="8.2920568"><ele>348.0</ele><time>2026-04-18T12:56:39.262Z</time></trkpt><trkpt lat="44.3604987" lon="8.2920585"><ele>348.0</ele><time>2026-04-18T12:56:40.261Z</time></trkpt><trkpt lat="44.3603134" lon="8.2920486"><ele>348.3333333333333</ele><time>2026-04-18T12:56:41.261Z</time></trkpt><trkpt lat="44.3601157" lon="8.292044"><ele>348.66666666666663</ele><time>2026-04-18T12:56:42.262Z</time></trkpt><trkpt lat="44.3599209" lon="8.2920537"><ele>349.0</ele><time>2026-04-18T12:56:43.262Z</time></trkpt><trkpt lat="44.3597403" lon="8.2920618"><ele>350.0</ele><time>2026-04-18T12:56:44.262Z</time></trkpt><trkpt lat="44.3595662" lon="8.2920668"><ele>351.0</ele><time>2026-04-18T12:56:45.261Z</time></trkpt><trkpt lat="44.3593968" lon="8.2920767"><ele>352.0</ele><time>2026-04-18T12:56:46.262Z</time></trkpt><trkpt lat="44.3592281" lon="8.2920794"><ele>352.0</ele><time>2026-04-18T12:56:47.262Z</time></trkpt><trkpt lat="44.3590627" lon="8.2920758"><ele>352.0</ele><time>2026-04-18T12:56:48.261Z</time></trkpt><trkpt lat="44.3588971" lon="8.2920788"><ele>352.0</ele><time>2026-04-18T12:56:49.262Z</time></trkpt><trkpt lat="44.3587364" lon="8.2920804"><ele>352.0</ele><time>2026-04-18T12:56:50.262Z</time></trkpt><trkpt lat="44.3585713" lon="8.2920848"><ele>352.0</ele><time>2026-04-18T12:56:51.262Z</time></trkpt><trkpt lat="44.3584035" lon="8.2920863"><ele>352.0</ele><time>2026-04-18T12:56:52.262Z</time></trkpt><trkpt lat="44.3582436" lon="8.2920833"><ele>352.0</ele><time>2026-04-18T12:56:53.261Z</time></trkpt><trkpt lat="44.3580923" lon="8.292083"><ele>352.0</ele><time>2026-04-18T12:56:54.262Z</time></trkpt><trkpt lat="44.3579505" lon="8.2920814"><ele>352.0</ele><time>2026-04-18T12:56:55.261Z</time></trkpt><trkpt lat="44.3578165" lon="8.2920855"><ele>352.0</ele><time>2026-04-18T12:56:56.262Z</time></trkpt><trkpt lat="44.3576839" lon="8.292081"><ele>352.75</ele><time>2026-04-18T12:56:57.261Z</time></trkpt><trkpt lat="44.3575441" lon="8.2920778"><ele>353.5</ele><time>2026-04-18T12:56:58.261Z</time></trkpt><trkpt lat="44.3574094" lon="8.2920658"><ele>354.25</ele><time>2026-04-18T12:56:59.262Z</time></trkpt><trkpt lat="44.3572827" lon="8.292055"><ele>355.0</ele><time>2026-04-18T12:57:00.262Z</time></trkpt><trkpt lat="44.3571589" lon="8.2920332"><ele>356.25</ele><time>2026-04-18T12:57:01.262Z</time></trkpt><trkpt lat="44.3570342" lon="8.2920016"><ele>357.5</ele><time>2026-04-18T12:57:02.262Z</time></trkpt><trkpt lat="44.3569115" lon="8.2919529"><ele>358.75</ele><time>2026-04-18T12:57:03.262Z</time></trkpt><trkpt lat="44.3567914" lon="8.2919092"><ele>360.0</ele><time>2026-04-18T12:57:04.262Z</time></trkpt><trkpt lat="44.3566679" lon="8.2918701"><ele>360.0</ele><time>2026-04-18T12:57:05.261Z</time></trkpt><trkpt lat="44.3565442" lon="8.2918245"><ele>360.0</ele><time>2026-04-18T12:57:06.261Z</time></trkpt><trkpt lat="44.3564243" lon="8.291792"><ele>360.0</ele><time>2026-04-18T12:57:07.261Z</time></trkpt><trkpt lat="44.3563058" lon="8.2917701"><ele>360.0</ele><time>2026-04-18T12:57:08.262Z</time></trkpt><trkpt lat="44.3561958" lon="8.2917702"><ele>360.25</ele><time>2026-04-18T12:57:09.262Z</time></trkpt><trkpt lat="44.3560867" lon="8.2917754"><ele>360.5</ele><time>2026-04-18T12:57:10.262Z</time></trkpt><trkpt lat="44.3559621" lon="8.2918001"><ele>360.75</ele><time>2026-04-18T12:57:11.262Z</time></trkpt><trkpt lat="44.3558208" lon="8.2918416"><ele>361.0</ele><time>2026-04-18T12:57:12.262Z</time></trkpt><trkpt lat="44.3556646" lon="8.2919011"><ele>361.3333333333333</ele><time>2026-04-18T12:57:13.262Z</time></trkpt><trkpt lat="44.3554952" lon="8.2919848"><ele>361.6666666666667</ele><time>2026-04-18T12:57:14.262Z</time></trkpt><trkpt lat="44.3553236" lon="8.292069"><ele>362.0</ele><time>2026-04-18T12:57:15.262Z</time></trkpt><trkpt lat="44.3551476" lon="8.2921608"><ele>362.0</ele><time>2026-04-18T12:57:16.262Z</time></trkpt><trkpt lat="44.3549655" lon="8.292245"><ele>362.0</ele><time>2026-04-18T12:57:17.262Z</time></trkpt><trkpt lat="44.354783" lon="8.2923308"><ele>362.0</ele><time>2026-04-18T12:57:18.262Z</time></trkpt><trkpt lat="44.3545981" lon="8.2924116"><ele>362.33333333333337</ele><time>2026-04-18T12:57:19.264Z</time></trkpt><trkpt lat="44.354405" lon="8.292503"><ele>362.6666666666667</ele><time>2026-04-18T12:57:20.262Z</time></trkpt><trkpt lat="44.3542089" lon="8.2925994"><ele>363.0</ele><time>2026-04-18T12:57:21.262Z</time></trkpt><trkpt lat="44.3540175" lon="8.2926945"><ele>362.0</ele><time>2026-04-18T12:57:22.262Z</time></trkpt><trkpt lat="44.353828" lon="8.2927937"><ele>361.0</ele><time>2026-04-18T12:57:23.262Z</time></trkpt><trkpt lat="44.3536473" lon="8.2929003"><ele>360.0</ele><time>2026-04-18T12:57:24.262Z</time></trkpt><trkpt lat="44.3534668" lon="8.2930214"><ele>360.3333333333333</ele><time>2026-04-18T12:57:25.262Z</time></trkpt><trkpt lat="44.3532876" lon="8.2931573"><ele>360.66666666666663</ele><time>2026-04-18T12:57:26.261Z</time></trkpt><trkpt lat="44.3531143" lon="8.2933148"><ele>361.0</ele><time>2026-04-18T12:57:27.262Z</time></trkpt><trkpt lat="44.3529528" lon="8.2934911"><ele>361.0</ele><time>2026-04-18T12:57:28.262Z</time></trkpt><trkpt lat="44.3528058" lon="8.2936802"><ele>361.0</ele><time>2026-04-18T12:57:29.262Z</time></trkpt><trkpt lat="44.3526644" lon="8.2938719"><ele>361.0</ele><time>2026-04-18T12:57:30.262Z</time></trkpt><trkpt lat="44.3525339" lon="8.2940574"><ele>362.0</ele><time>2026-04-18T12:57:31.262Z</time></trkpt><trkpt lat="44.352421" lon="8.2942428"><ele>363.0</ele><time>2026-04-18T12:57:32.261Z</time></trkpt><trkpt lat="44.3523097" lon="8.2944114"><ele>364.0</ele><time>2026-04-18T12:57:33.262Z</time></trkpt><trkpt lat="44.3521947" lon="8.2945801"><ele>364.0</ele><time>2026-04-18T12:57:34.262Z</time></trkpt><trkpt lat="44.3520763" lon="8.2947465"><ele>364.0</ele><time>2026-04-18T12:57:35.261Z</time></trkpt><trkpt lat="44.3519594" lon="8.2949209"><ele>364.0</ele><time>2026-04-18T12:57:36.262Z</time></trkpt><trkpt lat="44.3518355" lon="8.2951003"><ele>364.3333333333333</ele><time>2026-04-18T12:57:37.262Z</time></trkpt><trkpt lat="44.3517043" lon="8.2952813"><ele>364.6666666666667</ele><time>2026-04-18T12:57:38.262Z</time></trkpt><trkpt lat="44.3515668" lon="8.2954795"><ele>365.0</ele><time>2026-04-18T12:57:39.262Z</time></trkpt><trkpt lat="44.351424" lon="8.2956864"><ele>365.33333333333337</ele><time>2026-04-18T12:57:40.262Z</time></trkpt><trkpt lat="44.3512845" lon="8.2959136"><ele>365.6666666666667</ele><time>2026-04-18T12:57:41.262Z</time></trkpt><trkpt lat="44.3511589" lon="8.2961656"><ele>366.0</ele><time>2026-04-18T12:57:42.262Z</time></trkpt><trkpt lat="44.3510522" lon="8.2964302"><ele>367.0</ele><time>2026-04-18T12:57:43.262Z</time></trkpt><trkpt lat="44.350941" lon="8.2966889"><ele>368.0</ele><time>2026-04-18T12:57:44.262Z</time></trkpt><trkpt lat="44.3508151" lon="8.2969469"><ele>369.0</ele><time>2026-04-18T12:57:45.262Z</time></trkpt><trkpt lat="44.3506605" lon="8.2971851"><ele>370.5</ele><time>2026-04-18T12:57:46.262Z</time></trkpt><trkpt lat="44.3504818" lon="8.2974124"><ele>372.0</ele><time>2026-04-18T12:57:47.262Z</time></trkpt><trkpt lat="44.350309" lon="8.2976233"><ele>372.0</ele><time>2026-04-18T12:57:48.262Z</time></trkpt><trkpt lat="44.3501432" lon="8.2978344"><ele>372.0</ele><time>2026-04-18T12:57:49.262Z</time></trkpt><trkpt lat="44.3499856" lon="8.2980416"><ele>372.0</ele><time>2026-04-18T12:57:50.262Z</time></trkpt><trkpt lat="44.3498352" lon="8.298237"><ele>373.0</ele><time>2026-04-18T12:57:51.261Z</time></trkpt><trkpt lat="44.3496926" lon="8.2984299"><ele>374.0</ele><time>2026-04-18T12:57:52.262Z</time></trkpt><trkpt lat="44.3495455" lon="8.2986264"><ele>375.0</ele><time>2026-04-18T12:57:53.262Z</time></trkpt><trkpt lat="44.3494039" lon="8.2988199"><ele>377.6666666666667</ele><time>2026-04-18T12:57:54.262Z</time></trkpt><trkpt lat="44.3492698" lon="8.2989953"><ele>380.33333333333337</ele><time>2026-04-18T12:57:55.262Z</time></trkpt><trkpt lat="44.3491453" lon="8.2991673"><ele>383.0</ele><time>2026-04-18T12:57:56.262Z</time></trkpt><trkpt lat="44.3490146" lon="8.2993254"><ele>383.0</ele><time>2026-04-18T12:57:57.262Z</time></trkpt><trkpt lat="44.3488845" lon="8.299475"><ele>383.0</ele><time>2026-04-18T12:57:58.261Z</time></trkpt><trkpt lat="44.3487557" lon="8.2996045"><ele>383.0</ele><time>2026-04-18T12:57:59.262Z</time></trkpt><trkpt lat="44.3486306" lon="8.2997272"><ele>383.75</ele><time>2026-04-18T12:58:00.262Z</time></trkpt><trkpt lat="44.3485115" lon="8.2998324"><ele>384.5</ele><time>2026-04-18T12:58:01.261Z</time></trkpt><trkpt lat="44.3484013" lon="8.299934"><ele>385.25</ele><time>2026-04-18T12:58:02.261Z</time></trkpt><trkpt lat="44.3482919" lon="8.3000398"><ele>386.0</ele><time>2026-04-18T12:58:03.262Z</time></trkpt><trkpt lat="44.3481854" lon="8.3001679"><ele>386.0</ele><time>2026-04-18T12:58:04.262Z</time></trkpt><trkpt lat="44.348092" lon="8.3003018"><ele>386.0</ele><time>2026-04-18T12:58:05.262Z</time></trkpt><trkpt lat="44.3479965" lon="8.300446"><ele>386.0</ele><time>2026-04-18T12:58:06.262Z</time></trkpt><trkpt lat="44.3479131" lon="8.300598"><ele>386.0</ele><time>2026-04-18T12:58:07.262Z</time></trkpt><trkpt lat="44.3478416" lon="8.3007514"><ele>387.75</ele><time>2026-04-18T12:58:08.262Z</time></trkpt><trkpt lat="44.3477788" lon="8.300907"><ele>389.5</ele><time>2026-04-18T12:58:09.262Z</time></trkpt><trkpt lat="44.3477236" lon="8.3010715"><ele>391.25</ele><time>2026-04-18T12:58:10.262Z</time></trkpt><trkpt lat="44.3476749" lon="8.3012407"><ele>393.0</ele><time>2026-04-18T12:58:11.261Z</time></trkpt><trkpt lat="44.3476294" lon="8.3014046"><ele>393.59999999999997</ele><time>2026-04-18T12:58:12.262Z</time></trkpt><trkpt lat="44.3475799" lon="8.3015589"><ele>394.2</ele><time>2026-04-18T12:58:13.262Z</time></trkpt><trkpt lat="44.3475339" lon="8.3017045"><ele>394.8</ele><time>2026-04-18T12:58:14.262Z</time></trkpt><trkpt lat="44.3474923" lon="8.3018293"><ele>395.4</ele><time>2026-04-18T12:58:15.261Z</time></trkpt><trkpt lat="44.3474564" lon="8.3019456"><ele>396.0</ele><time>2026-04-18T12:58:16.261Z</time></trkpt><trkpt lat="44.3474198" lon="8.3020443"><ele>396.0</ele><time>2026-04-18T12:58:17.262Z</time></trkpt><trkpt lat="44.3473745" lon="8.3021303"><ele>396.0</ele><time>2026-04-18T12:58:18.261Z</time></trkpt><trkpt lat="44.3473192" lon="8.3021966"><ele>396.0</ele><time>2026-04-18T12:58:19.262Z</time></trkpt><trkpt lat="44.3472277" lon="8.3022779"><ele>396.0</ele><time>2026-04-18T12:58:21.262Z</time></trkpt><trkpt lat="44.3471892" lon="8.3024126"><ele>396.0</ele><time>2026-04-18T12:58:23.262Z</time></trkpt><trkpt lat="44.3471965" lon="8.3025053"><ele>396.0</ele><time>2026-04-18T12:58:24.262Z</time></trkpt><trkpt lat="44.3472131" lon="8.3026147"><ele>396.5</ele><time>2026-04-18T12:58:25.262Z</time></trkpt><trkpt lat="44.3472171" lon="8.302737"><ele>397.0</ele><time>2026-04-18T12:58:26.261Z</time></trkpt><trkpt lat="44.347203" lon="8.302877"><ele>397.5</ele><time>2026-04-18T12:58:27.261Z</time></trkpt><trkpt lat="44.347176" lon="8.3030396"><ele>398.0</ele><time>2026-04-18T12:58:28.261Z</time></trkpt><trkpt lat="44.3471287" lon="8.3032271"><ele>400.66666666666663</ele><time>2026-04-18T12:58:29.262Z</time></trkpt><trkpt lat="44.3470654" lon="8.3034253"><ele>403.33333333333337</ele><time>2026-04-18T12:58:30.262Z</time></trkpt><trkpt lat="44.3470022" lon="8.3036387"><ele>406.0</ele><time>2026-04-18T12:58:31.262Z</time></trkpt><trkpt lat="44.3469365" lon="8.3038561"><ele>405.33333333333337</ele><time>2026-04-18T12:58:32.262Z</time></trkpt><trkpt lat="44.3468725" lon="8.3040687"><ele>404.66666666666663</ele><time>2026-04-18T12:58:33.262Z</time></trkpt><trkpt lat="44.3468233" lon="8.3042949"><ele>404.0</ele><time>2026-04-18T12:58:34.262Z</time></trkpt><trkpt lat="44.3468047" lon="8.3045346"><ele>403.66666666666663</ele><time>2026-04-18T12:58:35.262Z</time></trkpt><trkpt lat="44.3468101" lon="8.3047814"><ele>403.33333333333337</ele><time>2026-04-18T12:58:36.262Z</time></trkpt><trkpt lat="44.3468048" lon="8.3050192"><ele>403.0</ele><time>2026-04-18T12:58:37.262Z</time></trkpt><trkpt lat="44.3468314" lon="8.3052586"><ele>403.0</ele><time>2026-04-18T12:58:38.262Z</time></trkpt><trkpt lat="44.3468519" lon="8.3054998"><ele>403.0</ele><time>2026-04-18T12:58:39.261Z</time></trkpt><trkpt lat="44.3468808" lon="8.305731"><ele>403.0</ele><time>2026-04-18T12:58:40.262Z</time></trkpt><trkpt lat="44.3468972" lon="8.3059531"><ele>401.6666666666667</ele><time>2026-04-18T12:58:41.261Z</time></trkpt><trkpt lat="44.3469181" lon="8.3061832"><ele>400.33333333333337</ele><time>2026-04-18T12:58:42.262Z</time></trkpt><trkpt lat="44.3469383" lon="8.3064163"><ele>399.0</ele><time>2026-04-18T12:58:43.262Z</time></trkpt><trkpt lat="44.3469666" lon="8.306642"><ele>397.66666666666663</ele><time>2026-04-18T12:58:44.262Z</time></trkpt><trkpt lat="44.3470126" lon="8.3068718"><ele>396.3333333333333</ele><time>2026-04-18T12:58:45.262Z</time></trkpt><trkpt lat="44.347081" lon="8.3070912"><ele>395.0</ele><time>2026-04-18T12:58:46.262Z</time></trkpt><trkpt lat="44.3471688" lon="8.307301"><ele>396.3333333333333</ele><time>2026-04-18T12:58:47.261Z</time></trkpt><trkpt lat="44.3472601" lon="8.3074937"><ele>397.66666666666663</ele><time>2026-04-18T12:58:48.262Z</time></trkpt><trkpt lat="44.3473447" lon="8.3076798"><ele>399.0</ele><time>2026-04-18T12:58:49.262Z</time></trkpt><trkpt lat="44.347417" lon="8.307886"><ele>397.66666666666663</ele><time>2026-04-18T12:58:50.262Z</time></trkpt><trkpt lat="44.3474587" lon="8.3081195"><ele>396.3333333333333</ele><time>2026-04-18T12:58:51.262Z</time></trkpt><trkpt lat="44.3474696" lon="8.3083712"><ele>395.0</ele><time>2026-04-18T12:58:52.262Z</time></trkpt><trkpt lat="44.347419" lon="8.3086123"><ele>395.0</ele><time>2026-04-18T12:58:53.261Z</time></trkpt><trkpt lat="44.3473381" lon="8.3088483"><ele>395.0</ele><time>2026-04-18T12:58:54.262Z</time></trkpt><trkpt lat="44.3472364" lon="8.3090601"><ele>395.0</ele><time>2026-04-18T12:58:55.262Z</time></trkpt><trkpt lat="44.3471171" lon="8.3092355"><ele>393.66666666666663</ele><time>2026-04-18T12:58:56.262Z</time></trkpt><trkpt lat="44.3470307" lon="8.3094501"><ele>392.33333333333337</ele><time>2026-04-18T12:58:57.263Z</time></trkpt><trkpt lat="44.3469564" lon="8.3097019"><ele>391.0</ele><time>2026-04-18T12:58:58.263Z</time></trkpt><trkpt lat="44.3469021" lon="8.3099615"><ele>391.0</ele><time>2026-04-18T12:58:59.262Z</time></trkpt><trkpt lat="44.3468713" lon="8.3102314"><ele>391.0</ele><time>2026-04-18T12:59:00.262Z</time></trkpt><trkpt lat="44.3468623" lon="8.3105037"><ele>391.0</ele><time>2026-04-18T12:59:01.263Z</time></trkpt><trkpt lat="44.346867" lon="8.31078"><ele>390.33333333333337</ele><time>2026-04-18T12:59:02.263Z</time></trkpt><trkpt lat="44.3468727" lon="8.3110615"><ele>389.66666666666663</ele><time>2026-04-18T12:59:03.263Z</time></trkpt><trkpt lat="44.3468788" lon="8.311329"><ele>389.0</ele><time>2026-04-18T12:59:04.263Z</time></trkpt><trkpt lat="44.3468806" lon="8.3115945"><ele>388.3333333333333</ele><time>2026-04-18T12:59:05.263Z</time></trkpt><trkpt lat="44.3468845" lon="8.3118414"><ele>387.66666666666663</ele><time>2026-04-18T12:59:06.263Z</time></trkpt><trkpt lat="44.34688" lon="8.3120795"><ele>387.0</ele><time>2026-04-18T12:59:07.263Z</time></trkpt><trkpt lat="44.3468635" lon="8.3123176"><ele>387.0</ele><time>2026-04-18T12:59:08.263Z</time></trkpt><trkpt lat="44.346837" lon="8.3125394"><ele>387.0</ele><time>2026-04-18T12:59:09.263Z</time></trkpt><trkpt lat="44.3468034" lon="8.3127516"><ele>387.0</ele><time>2026-04-18T12:59:10.262Z</time></trkpt><trkpt lat="44.3467581" lon="8.3129608"><ele>385.0</ele><time>2026-04-18T12:59:11.262Z</time></trkpt><trkpt lat="44.3467026" lon="8.3131637"><ele>383.0</ele><time>2026-04-18T12:59:12.262Z</time></trkpt><trkpt lat="44.3466414" lon="8.3133705"><ele>381.0</ele><time>2026-04-18T12:59:13.263Z</time></trkpt><trkpt lat="44.3465722" lon="8.3135696"><ele>381.0</ele><time>2026-04-18T12:59:14.262Z</time></trkpt><trkpt lat="44.3464936" lon="8.3137435"><ele>381.0</ele><time>2026-04-18T12:59:15.263Z</time></trkpt><trkpt lat="44.3464154" lon="8.3139057"><ele>381.0</ele><time>2026-04-18T12:59:16.262Z</time></trkpt><trkpt lat="44.3463369" lon="8.3140753"><ele>381.0</ele><time>2026-04-18T12:59:17.262Z</time></trkpt><trkpt lat="44.3462585" lon="8.3142423"><ele>382.0</ele><time>2026-04-18T12:59:18.263Z</time></trkpt><trkpt lat="44.3461795" lon="8.3144105"><ele>383.0</ele><time>2026-04-18T12:59:19.262Z</time></trkpt><trkpt lat="44.3461071" lon="8.3145881"><ele>384.0</ele><time>2026-04-18T12:59:20.263Z</time></trkpt><trkpt lat="44.3460447" lon="8.3147762"><ele>385.0</ele><time>2026-04-18T12:59:21.263Z</time></trkpt><trkpt lat="44.3459894" lon="8.3149763"><ele>385.0</ele><time>2026-04-18T12:59:22.263Z</time></trkpt><trkpt lat="44.3459439" lon="8.3151904"><ele>385.0</ele><time>2026-04-18T12:59:23.263Z</time></trkpt><trkpt lat="44.3458954" lon="8.315416"><ele>385.0</ele><time>2026-04-18T12:59:24.263Z</time></trkpt><trkpt lat="44.3458542" lon="8.3156886"><ele>384.33333333333337</ele><time>2026-04-18T12:59:25.262Z</time></trkpt><trkpt lat="44.3458075" lon="8.3159828"><ele>383.6666666666667</ele><time>2026-04-18T12:59:26.262Z</time></trkpt><trkpt lat="44.3457564" lon="8.3162956"><ele>383.0</ele><time>2026-04-18T12:59:27.263Z</time></trkpt><trkpt lat="44.3456971" lon="8.3166183"><ele>380.5</ele><time>2026-04-18T12:59:28.263Z</time></trkpt><trkpt lat="44.3456349" lon="8.3169329"><ele>378.0</ele><time>2026-04-18T12:59:29.263Z</time></trkpt><trkpt lat="44.3455792" lon="8.317234"><ele>388.33333333333337</ele><time>2026-04-18T12:59:30.263Z</time></trkpt><trkpt lat="44.345535" lon="8.3175042"><ele>398.6666666666667</ele><time>2026-04-18T12:59:31.263Z</time></trkpt><trkpt lat="44.3454988" lon="8.317748"><ele>409.0</ele><time>2026-04-18T12:59:32.263Z</time></trkpt><trkpt lat="44.345464" lon="8.3179604"><ele>407.75</ele><time>2026-04-18T12:59:33.262Z</time></trkpt><trkpt lat="44.3454305" lon="8.3181615"><ele>406.5</ele><time>2026-04-18T12:59:34.263Z</time></trkpt><trkpt lat="44.3453926" lon="8.318359"><ele>405.25</ele><time>2026-04-18T12:59:35.263Z</time></trkpt><trkpt lat="44.3453543" lon="8.3185605"><ele>404.0</ele><time>2026-04-18T12:59:36.262Z</time></trkpt><trkpt lat="44.3453193" lon="8.3187613"><ele>404.0</ele><time>2026-04-18T12:59:37.262Z</time></trkpt><trkpt lat="44.345289" lon="8.3189568"><ele>404.0</ele><time>2026-04-18T12:59:38.263Z</time></trkpt><trkpt lat="44.3452672" lon="8.3191495"><ele>404.0</ele><time>2026-04-18T12:59:39.263Z</time></trkpt><trkpt lat="44.3452576" lon="8.3193417"><ele>404.0</ele><time>2026-04-18T12:59:40.263Z</time></trkpt><trkpt lat="44.3452798" lon="8.3195385"><ele>406.0</ele><time>2026-04-18T12:59:41.263Z</time></trkpt><trkpt lat="44.3453201" lon="8.3197351"><ele>408.0</ele><time>2026-04-18T12:59:42.263Z</time></trkpt><trkpt lat="44.3453786" lon="8.3199229"><ele>410.0</ele><time>2026-04-18T12:59:43.263Z</time></trkpt><trkpt lat="44.3454325" lon="8.3200919"><ele>412.0</ele><time>2026-04-18T12:59:44.263Z</time></trkpt><trkpt lat="44.345484" lon="8.3202367"><ele>412.00000000000006</ele><time>2026-04-18T12:59:45.263Z</time></trkpt><trkpt lat="44.3455248" lon="8.3203627"><ele>412.0</ele><time>2026-04-18T12:59:46.262Z</time></trkpt><trkpt lat="44.345542" lon="8.3204486"><ele>412.0</ele><time>2026-04-18T12:59:47.262Z</time></trkpt><trkpt lat="44.3455428" lon="8.3205438"><ele>412.0</ele><time>2026-04-18T12:59:49.263Z</time></trkpt><trkpt lat="44.3455253" lon="8.3207113"><ele>412.00000000000006</ele><time>2026-04-18T12:59:52.263Z</time></trkpt><trkpt lat="44.3455016" lon="8.3208106"><ele>412.0</ele><time>2026-04-18T12:59:53.263Z</time></trkpt><trkpt lat="44.3454704" lon="8.3209087"><ele>410.0</ele><time>2026-04-18T12:59:54.263Z</time></trkpt><trkpt lat="44.3454298" lon="8.3210122"><ele>408.0</ele><time>2026-04-18T12:59:55.263Z</time></trkpt><trkpt lat="44.3453913" lon="8.3211187"><ele>406.0</ele><time>2026-04-18T12:59:56.263Z</time></trkpt><trkpt lat="44.3453344" lon="8.3212278"><ele>404.0</ele><time>2026-04-18T12:59:57.263Z</time></trkpt><trkpt lat="44.34527" lon="8.3213376"><ele>402.0</ele><time>2026-04-18T12:59:58.262Z</time></trkpt><trkpt lat="44.3451978" lon="8.3214484"><ele>397.75</ele><time>2026-04-18T12:59:59.262Z</time></trkpt><trkpt lat="44.3451186" lon="8.3215502"><ele>393.5</ele><time>2026-04-18T13:00:00.263Z</time></trkpt><trkpt lat="44.3450251" lon="8.321651"><ele>389.25</ele><time>2026-04-18T13:00:01.263Z</time></trkpt><trkpt lat="44.3449239" lon="8.3217477"><ele>385.0</ele><time>2026-04-18T13:00:02.263Z</time></trkpt><trkpt lat="44.3448155" lon="8.3218478"><ele>384.0</ele><time>2026-04-18T13:00:03.262Z</time></trkpt><trkpt lat="44.3447041" lon="8.3219561"><ele>383.0</ele><time>2026-04-18T13:00:04.263Z</time></trkpt><trkpt lat="44.3445962" lon="8.3220679"><ele>382.0</ele><time>2026-04-18T13:00:05.263Z</time></trkpt><trkpt lat="44.3444863" lon="8.3221783"><ele>381.0</ele><time>2026-04-18T13:00:06.263Z</time></trkpt><trkpt lat="44.344369" lon="8.3222823"><ele>381.0</ele><time>2026-04-18T13:00:07.263Z</time></trkpt><trkpt lat="44.3442534" lon="8.3223949"><ele>381.0</ele><time>2026-04-18T13:00:08.263Z</time></trkpt><trkpt lat="44.3441349" lon="8.3225085"><ele>381.0</ele><time>2026-04-18T13:00:09.262Z</time></trkpt><trkpt lat="44.3440193" lon="8.3226135"><ele>381.0</ele><time>2026-04-18T13:00:10.262Z</time></trkpt><trkpt lat="44.3439152" lon="8.3227185"><ele>380.8</ele><time>2026-04-18T13:00:11.263Z</time></trkpt><trkpt lat="44.3438198" lon="8.3228189"><ele>380.6</ele><time>2026-04-18T13:00:12.263Z</time></trkpt><trkpt lat="44.3437234" lon="8.3229118"><ele>380.4</ele><time>2026-04-18T13:00:13.263Z</time></trkpt><trkpt lat="44.3436306" lon="8.3230009"><ele>380.2</ele><time>2026-04-18T13:00:14.263Z</time></trkpt><trkpt lat="44.3435496" lon="8.3230768"><ele>380.0</ele><time>2026-04-18T13:00:15.262Z</time></trkpt><trkpt lat="44.3434779" lon="8.323145"><ele>380.0</ele><time>2026-04-18T13:00:16.263Z</time></trkpt><trkpt lat="44.3434131" lon="8.3232148"><ele>380.0</ele><time>2026-04-18T13:00:17.263Z</time></trkpt><trkpt lat="44.3433553" lon="8.3232783"><ele>380.0</ele><time>2026-04-18T13:00:18.263Z</time></trkpt><trkpt lat="44.3432918" lon="8.3233638"><ele>380.0</ele><time>2026-04-18T13:00:19.263Z</time></trkpt><trkpt lat="44.3432136" lon="8.3234469"><ele>380.0</ele><time>2026-04-18T13:00:20.262Z</time></trkpt><trkpt lat="44.3431245" lon="8.3235329"><ele>380.2</ele><time>2026-04-18T13:00:21.263Z</time></trkpt><trkpt lat="44.3430372" lon="8.3236187"><ele>380.4</ele><time>2026-04-18T13:00:22.263Z</time></trkpt><trkpt lat="44.3429535" lon="8.3236978"><ele>380.6</ele><time>2026-04-18T13:00:23.262Z</time></trkpt><trkpt lat="44.3428746" lon="8.3237688"><ele>380.8</ele><time>2026-04-18T13:00:24.263Z</time></trkpt><trkpt lat="44.3427865" lon="8.3238535"><ele>381.0</ele><time>2026-04-18T13:00:25.263Z</time></trkpt><trkpt lat="44.3426966" lon="8.3239354"><ele>381.0</ele><time>2026-04-18T13:00:26.262Z</time></trkpt><trkpt lat="44.3426099" lon="8.3240248"><ele>381.0</ele><time>2026-04-18T13:00:27.262Z</time></trkpt><trkpt lat="44.342529" lon="8.3240991"><ele>381.0</ele><time>2026-04-18T13:00:28.263Z</time></trkpt><trkpt lat="44.3424448" lon="8.3241709"><ele>381.0</ele><time>2026-04-18T13:00:29.262Z</time></trkpt><trkpt lat="44.3423596" lon="8.3242549"><ele>381.0</ele><time>2026-04-18T13:00:30.262Z</time></trkpt><trkpt lat="44.3422598" lon="8.3243498"><ele>380.75</ele><time>2026-04-18T13:00:31.263Z</time></trkpt><trkpt lat="44.3421561" lon="8.3244755"><ele>380.5</ele><time>2026-04-18T13:00:32.263Z</time></trkpt><trkpt lat="44.3420563" lon="8.3246312"><ele>380.25</ele><time>2026-04-18T13:00:33.263Z</time></trkpt><trkpt lat="44.3419532" lon="8.3248007"><ele>380.0</ele><time>2026-04-18T13:00:34.262Z</time></trkpt><trkpt lat="44.341854" lon="8.3249918"><ele>380.0</ele><time>2026-04-18T13:00:35.262Z</time></trkpt><trkpt lat="44.341772" lon="8.325189"><ele>380.0</ele><time>2026-04-18T13:00:36.262Z</time></trkpt><trkpt lat="44.3417029" lon="8.3254041"><ele>380.0</ele><time>2026-04-18T13:00:37.263Z</time></trkpt><trkpt lat="44.341642" lon="8.3256255"><ele>380.33333333333337</ele><time>2026-04-18T13:00:38.263Z</time></trkpt><trkpt lat="44.3415945" lon="8.3258462"><ele>380.6666666666667</ele><time>2026-04-18T13:00:39.262Z</time></trkpt><trkpt lat="44.3415608" lon="8.3260692"><ele>381.0</ele><time>2026-04-18T13:00:40.263Z</time></trkpt><trkpt lat="44.3415417" lon="8.3262865"><ele>382.66666666666663</ele><time>2026-04-18T13:00:41.263Z</time></trkpt><trkpt lat="44.3415326" lon="8.326514"><ele>384.3333333333333</ele><time>2026-04-18T13:00:42.263Z</time></trkpt><trkpt lat="44.341538" lon="8.326738"><ele>386.0</ele><time>2026-04-18T13:00:43.263Z</time></trkpt><trkpt lat="44.3415488" lon="8.3269677"><ele>386.0</ele><time>2026-04-18T13:00:44.263Z</time></trkpt><trkpt lat="44.3415672" lon="8.3271785"><ele>386.0</ele><time>2026-04-18T13:00:45.262Z</time></trkpt><trkpt lat="44.3385516" lon="8.3507959"><ele>395.5</ele><time>2026-04-18T13:02:12.266Z</time></trkpt><trkpt lat="44.3384419" lon="8.3509391"><ele>405.0</ele><time>2026-04-18T13:02:13.263Z</time></trkpt><trkpt lat="44.3383287" lon="8.3510723"><ele>414.5</ele><time>2026-04-18T13:02:14.264Z</time></trkpt><trkpt lat="44.3382183" lon="8.3512126"><ele>424.0</ele><time>2026-04-18T13:02:15.264Z</time></trkpt><trkpt lat="44.3381154" lon="8.3513454"><ele>424.5</ele><time>2026-04-18T13:02:16.263Z</time></trkpt><trkpt lat="44.3380069" lon="8.3514904"><ele>425.0</ele><time>2026-04-18T13:02:17.264Z</time></trkpt><trkpt lat="44.3378985" lon="8.351637"><ele>425.5</ele><time>2026-04-18T13:02:18.264Z</time></trkpt><trkpt lat="44.3377917" lon="8.3517792"><ele>426.0</ele><time>2026-04-18T13:02:19.264Z</time></trkpt><trkpt lat="44.3376865" lon="8.3519309"><ele>426.0</ele><time>2026-04-18T13:02:20.263Z</time></trkpt><trkpt lat="44.3375805" lon="8.3520824"><ele>426.0</ele><time>2026-04-18T13:02:21.263Z</time></trkpt><trkpt lat="44.3374718" lon="8.3522368"><ele>426.0</ele><time>2026-04-18T13:02:22.264Z</time></trkpt><trkpt lat="44.3373662" lon="8.3523933"><ele>423.0</ele><time>2026-04-18T13:02:23.263Z</time></trkpt><trkpt lat="44.3372614" lon="8.3525558"><ele>420.0</ele><time>2026-04-18T13:02:24.264Z</time></trkpt><trkpt lat="44.3371612" lon="8.3527182"><ele>417.0</ele><time>2026-04-18T13:02:25.264Z</time></trkpt><trkpt lat="44.3370612" lon="8.3528933"><ele>412.0</ele><time>2026-04-18T13:02:26.263Z</time></trkpt><trkpt lat="44.3369631" lon="8.3530698"><ele>407.0</ele><time>2026-04-18T13:02:27.264Z</time></trkpt><trkpt lat="44.3368646" lon="8.3532415"><ele>402.0</ele><time>2026-04-18T13:02:28.264Z</time></trkpt><trkpt lat="44.3367654" lon="8.3534139"><ele>402.0</ele><time>2026-04-18T13:02:29.264Z</time></trkpt><trkpt lat="44.3366704" lon="8.3535884"><ele>402.0</ele><time>2026-04-18T13:02:30.264Z</time></trkpt><trkpt lat="44.3365798" lon="8.3537747"><ele>402.0</ele><time>2026-04-18T13:02:31.264Z</time></trkpt><trkpt lat="44.3364898" lon="8.3539588"><ele>398.66666666666663</ele><time>2026-04-18T13:02:32.264Z</time></trkpt><trkpt lat="44.3364019" lon="8.3541471"><ele>395.3333333333333</ele><time>2026-04-18T13:02:33.263Z</time></trkpt><trkpt lat="44.3363153" lon="8.3543386"><ele>392.0</ele><time>2026-04-18T13:02:34.264Z</time></trkpt><trkpt lat="44.3362316" lon="8.3545296"><ele>385.3333333333333</ele><time>2026-04-18T13:02:35.264Z</time></trkpt><trkpt lat="44.3361521" lon="8.3547236"><ele>378.66666666666663</ele><time>2026-04-18T13:02:36.264Z</time></trkpt><trkpt lat="44.3360708" lon="8.35492"><ele>372.0</ele><time>2026-04-18T13:02:37.263Z</time></trkpt><trkpt lat="44.3359963" lon="8.3551093"><ele>372.0</ele><time>2026-04-18T13:02:38.263Z</time></trkpt><trkpt lat="44.3359216" lon="8.3553083"><ele>372.0</ele><time>2026-04-18T13:02:39.264Z</time></trkpt><trkpt lat="44.3358423" lon="8.3555107"><ele>372.0</ele><time>2026-04-18T13:02:40.263Z</time></trkpt><trkpt lat="44.3357719" lon="8.3557158"><ele>374.0</ele><time>2026-04-18T13:02:41.264Z</time></trkpt><trkpt lat="44.335703" lon="8.3559293"><ele>376.0</ele><time>2026-04-18T13:02:42.263Z</time></trkpt><trkpt lat="44.3356369" lon="8.3561377"><ele>378.0</ele><time>2026-04-18T13:02:43.264Z</time></trkpt><trkpt lat="44.3355729" lon="8.3563558"><ele>389.66666666666663</ele><time>2026-04-18T13:02:44.264Z</time></trkpt><trkpt lat="44.3355104" lon="8.3565719"><ele>401.3333333333333</ele><time>2026-04-18T13:02:45.264Z</time></trkpt><trkpt lat="44.3354465" lon="8.3567922"><ele>413.0</ele><time>2026-04-18T13:02:46.264Z</time></trkpt><trkpt lat="44.3353876" lon="8.3570102"><ele>409.66666666666663</ele><time>2026-04-18T13:02:47.264Z</time></trkpt><trkpt lat="44.3353282" lon="8.357229"><ele>406.33333333333337</ele><time>2026-04-18T13:02:48.264Z</time></trkpt><trkpt lat="44.3352687" lon="8.3574521"><ele>403.0</ele><time>2026-04-18T13:02:49.263Z</time></trkpt><trkpt lat="44.3352136" lon="8.3576767"><ele>403.0</ele><time>2026-04-18T13:02:50.263Z</time></trkpt><trkpt lat="44.3351532" lon="8.3579178"><ele>403.0</ele><time>2026-04-18T13:02:51.264Z</time></trkpt><trkpt lat="44.3350925" lon="8.3581572"><ele>403.0</ele><time>2026-04-18T13:02:52.263Z</time></trkpt><trkpt lat="44.3350275" lon="8.3584066"><ele>402.6666666666667</ele><time>2026-04-18T13:02:53.264Z</time></trkpt><trkpt lat="44.3349658" lon="8.3586507"><ele>402.33333333333337</ele><time>2026-04-18T13:02:54.263Z</time></trkpt><trkpt lat="44.3349054" lon="8.3588913"><ele>402.0</ele><time>2026-04-18T13:02:55.264Z</time></trkpt><trkpt lat="44.3348428" lon="8.3591324"><ele>402.0</ele><time>2026-04-18T13:02:56.264Z</time></trkpt><trkpt lat="44.3347787" lon="8.3593749"><ele>402.0</ele><time>2026-04-18T13:02:57.264Z</time></trkpt><trkpt lat="44.3347203" lon="8.3596221"><ele>402.0</ele><time>2026-04-18T13:02:58.264Z</time></trkpt><trkpt lat="44.3346605" lon="8.3598661"><ele>396.0</ele><time>2026-04-18T13:02:59.264Z</time></trkpt><trkpt lat="44.3346119" lon="8.3601097"><ele>390.0</ele><time>2026-04-18T13:03:00.263Z</time></trkpt><trkpt lat="44.3345819" lon="8.3603694"><ele>384.0</ele><time>2026-04-18T13:03:01.264Z</time></trkpt><trkpt lat="44.3345742" lon="8.3606339"><ele>384.0</ele><time>2026-04-18T13:03:02.264Z</time></trkpt><trkpt lat="44.334603" lon="8.3609008"><ele>384.0</ele><time>2026-04-18T13:03:03.264Z</time></trkpt><trkpt lat="44.3346619" lon="8.3611823"><ele>384.0</ele><time>2026-04-18T13:03:04.264Z</time></trkpt><trkpt lat="44.3347344" lon="8.3614589"><ele>383.6666666666667</ele><time>2026-04-18T13:03:05.263Z</time></trkpt><trkpt lat="44.3348109" lon="8.3617332"><ele>383.33333333333337</ele><time>2026-04-18T13:03:06.264Z</time></trkpt><trkpt lat="44.3348874" lon="8.3620169"><ele>383.0</ele><time>2026-04-18T13:03:07.264Z</time></trkpt><trkpt lat="44.33495" lon="8.3622978"><ele>383.0</ele><time>2026-04-18T13:03:08.264Z</time></trkpt><trkpt lat="44.3350143" lon="8.3625662"><ele>383.0</ele><time>2026-04-18T13:03:09.264Z</time></trkpt><trkpt lat="44.3350797" lon="8.3628296"><ele>383.0</ele><time>2026-04-18T13:03:10.264Z</time></trkpt><trkpt lat="44.335148" lon="8.3630718"><ele>379.33333333333337</ele><time>2026-04-18T13:03:11.264Z</time></trkpt><trkpt lat="44.3352071" lon="8.3633067"><ele>375.6666666666667</ele><time>2026-04-18T13:03:12.264Z</time></trkpt><trkpt lat="44.3352487" lon="8.3635445"><ele>372.0</ele><time>2026-04-18T13:03:13.263Z</time></trkpt><trkpt lat="44.3352616" lon="8.3637812"><ele>370.0</ele><time>2026-04-18T13:03:14.264Z</time></trkpt><trkpt lat="44.335225" lon="8.3640216"><ele>368.0</ele><time>2026-04-18T13:03:15.264Z</time></trkpt><trkpt lat="44.3351613" lon="8.3642796"><ele>366.0</ele><time>2026-04-18T13:03:16.264Z</time></trkpt><trkpt lat="44.3350954" lon="8.3645173"><ele>367.6666666666667</ele><time>2026-04-18T13:03:17.263Z</time></trkpt><trkpt lat="44.3350244" lon="8.364751"><ele>369.33333333333337</ele><time>2026-04-18T13:03:18.264Z</time></trkpt><trkpt lat="44.334991" lon="8.3649857"><ele>371.0</ele><time>2026-04-18T13:03:19.263Z</time></trkpt><trkpt lat="44.33498" lon="8.3652177"><ele>371.0</ele><time>2026-04-18T13:03:20.264Z</time></trkpt><trkpt lat="44.3349963" lon="8.3654438"><ele>371.0</ele><time>2026-04-18T13:03:21.264Z</time></trkpt><trkpt lat="44.3350657" lon="8.365659"><ele>371.0</ele><time>2026-04-18T13:03:22.263Z</time></trkpt><trkpt lat="44.3351908" lon="8.3658506"><ele>370.0</ele><time>2026-04-18T13:03:23.264Z</time></trkpt><trkpt lat="44.3352719" lon="8.3660522"><ele>369.0</ele><time>2026-04-18T13:03:24.264Z</time></trkpt><trkpt lat="44.3353277" lon="8.366295"><ele>368.0</ele><time>2026-04-18T13:03:25.264Z</time></trkpt><trkpt lat="44.3353381" lon="8.3665535"><ele>362.33333333333337</ele><time>2026-04-18T13:03:26.264Z</time></trkpt><trkpt lat="44.3353281" lon="8.3668218"><ele>356.6666666666667</ele><time>2026-04-18T13:03:27.264Z</time></trkpt><trkpt lat="44.3353323" lon="8.3670852"><ele>351.0</ele><time>2026-04-18T13:03:28.264Z</time></trkpt><trkpt lat="44.3353428" lon="8.3673384"><ele>349.3333333333333</ele><time>2026-04-18T13:03:29.264Z</time></trkpt><trkpt lat="44.3353683" lon="8.3675922"><ele>347.66666666666663</ele><time>2026-04-18T13:03:30.263Z</time></trkpt><trkpt lat="44.3354299" lon="8.3678301"><ele>346.0</ele><time>2026-04-18T13:03:31.264Z</time></trkpt><trkpt lat="44.3355214" lon="8.3680424"><ele>350.3333333333333</ele><time>2026-04-18T13:03:32.264Z</time></trkpt><trkpt lat="44.3356191" lon="8.3682222"><ele>354.6666666666667</ele><time>2026-04-18T13:03:33.264Z</time></trkpt><trkpt lat="44.3357415" lon="8.3683706"><ele>359.0</ele><time>2026-04-18T13:03:34.264Z</time></trkpt><trkpt lat="44.3358743" lon="8.3684814"><ele>359.0</ele><time>2026-04-18T13:03:35.263Z</time></trkpt><trkpt lat="44.3359975" lon="8.3685707"><ele>359.0</ele><time>2026-04-18T13:03:36.263Z</time></trkpt><trkpt lat="44.3361223" lon="8.3686491"><ele>359.0</ele><time>2026-04-18T13:03:37.263Z</time></trkpt><trkpt lat="44.3362465" lon="8.3687277"><ele>359.0</ele><time>2026-04-18T13:03:38.264Z</time></trkpt><trkpt lat="44.3363653" lon="8.3688243"><ele>357.0</ele><time>2026-04-18T13:03:39.264Z</time></trkpt><trkpt lat="44.3364725" lon="8.3689542"><ele>355.0</ele><time>2026-04-18T13:03:40.264Z</time></trkpt><trkpt lat="44.3365608" lon="8.3691024"><ele>353.0</ele><time>2026-04-18T13:03:41.264Z</time></trkpt><trkpt lat="44.3366372" lon="8.36926"><ele>351.0</ele><time>2026-04-18T13:03:42.264Z</time></trkpt><trkpt lat="44.3367015" lon="8.3694265"><ele>351.0</ele><time>2026-04-18T13:03:43.264Z</time></trkpt><trkpt lat="44.3367416" lon="8.369601"><ele>351.0</ele><time>2026-04-18T13:03:44.264Z</time></trkpt><trkpt lat="44.3367596" lon="8.3698036"><ele>351.0</ele><time>2026-04-18T13:03:45.264Z</time></trkpt><trkpt lat="44.3367399" lon="8.3700007"><ele>351.0</ele><time>2026-04-18T13:03:46.264Z</time></trkpt><trkpt lat="44.336688" lon="8.3701811"><ele>349.75</ele><time>2026-04-18T13:03:47.263Z</time></trkpt><trkpt lat="44.336612" lon="8.3703656"><ele>348.5</ele><time>2026-04-18T13:03:48.264Z</time></trkpt><trkpt lat="44.3365209" lon="8.3705305"><ele>347.25</ele><time>2026-04-18T13:03:49.263Z</time></trkpt><trkpt lat="44.3364367" lon="8.3706812"><ele>346.0</ele><time>2026-04-18T13:03:50.264Z</time></trkpt><trkpt lat="44.3363546" lon="8.3708396"><ele>343.5</ele><time>2026-04-18T13:03:51.264Z</time></trkpt><trkpt lat="44.3362807" lon="8.3709966"><ele>341.0</ele><time>2026-04-18T13:03:52.264Z</time></trkpt><trkpt lat="44.3362095" lon="8.3711676"><ele>338.5</ele><time>2026-04-18T13:03:53.265Z</time></trkpt><trkpt lat="44.3361474" lon="8.3713514"><ele>336.0</ele><time>2026-04-18T13:03:54.265Z</time></trkpt><trkpt lat="44.3360904" lon="8.3715541"><ele>336.0</ele><time>2026-04-18T13:03:55.265Z</time></trkpt><trkpt lat="44.3360439" lon="8.3717628"><ele>336.0</ele><time>2026-04-18T13:03:56.265Z</time></trkpt><trkpt lat="44.3359987" lon="8.3719734"><ele>336.0</ele><time>2026-04-18T13:03:57.265Z</time></trkpt><trkpt lat="44.3359587" lon="8.372174"><ele>337.0</ele><time>2026-04-18T13:03:58.265Z</time></trkpt><trkpt lat="44.3359218" lon="8.3723698"><ele>338.0</ele><time>2026-04-18T13:03:59.264Z</time></trkpt><trkpt lat="44.3358951" lon="8.3725751"><ele>339.0</ele><time>2026-04-18T13:04:00.264Z</time></trkpt><trkpt lat="44.3358749" lon="8.3727751"><ele>340.0</ele><time>2026-04-18T13:04:01.265Z</time></trkpt><trkpt lat="44.3358604" lon="8.3729634"><ele>341.25</ele><time>2026-04-18T13:04:02.265Z</time></trkpt><trkpt lat="44.3358433" lon="8.3731468"><ele>342.5</ele><time>2026-04-18T13:04:03.265Z</time></trkpt><trkpt lat="44.3358357" lon="8.3733332"><ele>343.75</ele><time>2026-04-18T13:04:04.264Z</time></trkpt><trkpt lat="44.3358291" lon="8.3735055"><ele>345.0</ele><time>2026-04-18T13:04:05.264Z</time></trkpt><trkpt lat="44.3358157" lon="8.3736659"><ele>345.0</ele><time>2026-04-18T13:04:06.265Z</time></trkpt><trkpt lat="44.3357924" lon="8.3738061"><ele>345.0</ele><time>2026-04-18T13:04:07.265Z</time></trkpt><trkpt lat="44.3357359" lon="8.3739339"><ele>345.0</ele><time>2026-04-18T13:04:08.265Z</time></trkpt><trkpt lat="44.3356479" lon="8.3740466"><ele>345.0</ele><time>2026-04-18T13:04:09.264Z</time></trkpt><trkpt lat="44.3355435" lon="8.3741019"><ele>345.0</ele><time>2026-04-18T13:04:10.265Z</time></trkpt><trkpt lat="44.335418" lon="8.3741103"><ele>346.2</ele><time>2026-04-18T13:04:11.265Z</time></trkpt><trkpt lat="44.335299" lon="8.3740994"><ele>347.4</ele><time>2026-04-18T13:04:12.265Z</time></trkpt><trkpt lat="44.3351882" lon="8.3741031"><ele>348.6</ele><time>2026-04-18T13:04:13.265Z</time></trkpt><trkpt lat="44.3351026" lon="8.374145"><ele>349.8</ele><time>2026-04-18T13:04:14.265Z</time></trkpt><trkpt lat="44.3350348" lon="8.3742221"><ele>351.0</ele><time>2026-04-18T13:04:15.265Z</time></trkpt><trkpt lat="44.3349688" lon="8.3743344"><ele>351.0</ele><time>2026-04-18T13:04:16.265Z</time></trkpt><trkpt lat="44.3349252" lon="8.3744852"><ele>351.0</ele><time>2026-04-18T13:04:17.264Z</time></trkpt><trkpt lat="44.3349233" lon="8.3746491"><ele>351.0</ele><time>2026-04-18T13:04:18.265Z</time></trkpt><trkpt lat="44.3349381" lon="8.374838"><ele>351.0</ele><time>2026-04-18T13:04:19.264Z</time></trkpt><trkpt lat="44.3349461" lon="8.3750294"><ele>350.75</ele><time>2026-04-18T13:04:20.265Z</time></trkpt><trkpt lat="44.3349357" lon="8.3752173"><ele>350.5</ele><time>2026-04-18T13:04:21.265Z</time></trkpt><trkpt lat="44.3349035" lon="8.3754117"><ele>350.25</ele><time>2026-04-18T13:04:22.265Z</time></trkpt><trkpt lat="44.3348627" lon="8.3755938"><ele>350.0</ele><time>2026-04-18T13:04:23.265Z</time></trkpt><trkpt lat="44.3348139" lon="8.3757752"><ele>350.0</ele><time>2026-04-18T13:04:24.265Z</time></trkpt><trkpt lat="44.3347721" lon="8.3759467"><ele>350.0</ele><time>2026-04-18T13:04:25.264Z</time></trkpt><trkpt lat="44.3347323" lon="8.3761091"><ele>350.0</ele><time>2026-04-18T13:04:26.265Z</time></trkpt><trkpt lat="44.3346973" lon="8.3762508"><ele>350.0</ele><time>2026-04-18T13:04:27.264Z</time></trkpt><trkpt lat="44.3346565" lon="8.3763946"><ele>347.8</ele><time>2026-04-18T13:04:28.265Z</time></trkpt><trkpt lat="44.334604" lon="8.3765367"><ele>345.6</ele><time>2026-04-18T13:04:29.265Z</time></trkpt><trkpt lat="44.3345573" lon="8.3766792"><ele>343.4</ele><time>2026-04-18T13:04:30.264Z</time></trkpt><trkpt lat="44.3345302" lon="8.376816"><ele>341.2</ele><time>2026-04-18T13:04:31.265Z</time></trkpt><trkpt lat="44.3345174" lon="8.376962"><ele>339.0</ele><time>2026-04-18T13:04:32.265Z</time></trkpt><trkpt lat="44.3345314" lon="8.3771049"><ele>337.79999999999995</ele><time>2026-04-18T13:04:33.265Z</time></trkpt><trkpt lat="44.33454" lon="8.3772345"><ele>336.59999999999997</ele><time>2026-04-18T13:04:34.265Z</time></trkpt><trkpt lat="44.3345568" lon="8.377377"><ele>335.4</ele><time>2026-04-18T13:04:35.265Z</time></trkpt><trkpt lat="44.3345741" lon="8.377535"><ele>334.2</ele><time>2026-04-18T13:04:36.265Z</time></trkpt><trkpt lat="44.3345911" lon="8.3776905"><ele>333.0</ele><time>2026-04-18T13:04:37.264Z</time></trkpt><trkpt lat="44.3346037" lon="8.3778486"><ele>333.0</ele><time>2026-04-18T13:04:38.265Z</time></trkpt><trkpt lat="44.3346232" lon="8.3780099"><ele>333.0</ele><time>2026-04-18T13:04:39.265Z</time></trkpt><trkpt lat="44.3346421" lon="8.3781803"><ele>333.0</ele><time>2026-04-18T13:04:40.265Z</time></trkpt><trkpt lat="44.3346576" lon="8.3783462"><ele>333.0</ele><time>2026-04-18T13:04:41.265Z</time></trkpt><trkpt lat="44.3346603" lon="8.3785139"><ele>334.0</ele><time>2026-04-18T13:04:42.265Z</time></trkpt><trkpt lat="44.3346403" lon="8.3786776"><ele>335.0</ele><time>2026-04-18T13:04:43.265Z</time></trkpt><trkpt lat="44.3345918" lon="8.3788315"><ele>336.0</ele><time>2026-04-18T13:04:44.264Z</time></trkpt><trkpt lat="44.3345348" lon="8.3789821"><ele>337.0</ele><time>2026-04-18T13:04:45.265Z</time></trkpt><trkpt lat="44.3344793" lon="8.3791225"><ele>337.0</ele><time>2026-04-18T13:04:46.265Z</time></trkpt><trkpt lat="44.3344246" lon="8.3792506"><ele>337.0</ele><time>2026-04-18T13:04:47.265Z</time></trkpt><trkpt lat="44.3343548" lon="8.3793729"><ele>337.0</ele><time>2026-04-18T13:04:48.264Z</time></trkpt><trkpt lat="44.3342717" lon="8.3794944"><ele>337.0</ele><time>2026-04-18T13:04:49.265Z</time></trkpt><trkpt lat="44.3341746" lon="8.3795916"><ele>337.0</ele><time>2026-04-18T13:04:50.264Z</time></trkpt><trkpt lat="44.3340728" lon="8.3796501"><ele>337.0</ele><time>2026-04-18T13:04:51.265Z</time></trkpt><trkpt lat="44.333963" lon="8.3796998"><ele>337.0</ele><time>2026-04-18T13:04:52.265Z</time></trkpt><trkpt lat="44.333857" lon="8.3797572"><ele>337.0</ele><time>2026-04-18T13:04:53.265Z</time></trkpt><trkpt lat="44.3337659" lon="8.3798479"><ele>334.75</ele><time>2026-04-18T13:04:54.265Z</time></trkpt><trkpt lat="44.3336887" lon="8.3799813"><ele>332.5</ele><time>2026-04-18T13:04:55.265Z</time></trkpt><trkpt lat="44.3336199" lon="8.3801302"><ele>330.25</ele><time>2026-04-18T13:04:56.265Z</time></trkpt><trkpt lat="44.3335662" lon="8.3802921"><ele>328.0</ele><time>2026-04-18T13:04:57.265Z</time></trkpt><trkpt lat="44.3335184" lon="8.3804416"><ele>330.59999999999997</ele><time>2026-04-18T13:04:58.265Z</time></trkpt><trkpt lat="44.3334747" lon="8.3805949"><ele>333.2</ele><time>2026-04-18T13:04:59.265Z</time></trkpt><trkpt lat="44.3334283" lon="8.3807404"><ele>335.8</ele><time>2026-04-18T13:05:00.265Z</time></trkpt><trkpt lat="44.3333809" lon="8.3808763"><ele>338.4</ele><time>2026-04-18T13:05:01.265Z</time></trkpt><trkpt lat="44.33333" lon="8.3810076"><ele>341.0</ele><time>2026-04-18T13:05:02.265Z</time></trkpt><trkpt lat="44.33328" lon="8.3811338"><ele>341.0</ele><time>2026-04-18T13:05:03.265Z</time></trkpt><trkpt lat="44.3332313" lon="8.3812528"><ele>341.0</ele><time>2026-04-18T13:05:04.265Z</time></trkpt><trkpt lat="44.3331741" lon="8.3813672"><ele>341.0</ele><time>2026-04-18T13:05:05.264Z</time></trkpt><trkpt lat="44.3330946" lon="8.3814688"><ele>341.0</ele><time>2026-04-18T13:05:06.265Z</time></trkpt><trkpt lat="44.3330058" lon="8.381544"><ele>341.0</ele><time>2026-04-18T13:05:07.265Z</time></trkpt><trkpt lat="44.332907" lon="8.3815817"><ele>341.20000000000005</ele><time>2026-04-18T13:05:08.265Z</time></trkpt><trkpt lat="44.3328016" lon="8.3815878"><ele>341.40000000000003</ele><time>2026-04-18T13:05:09.265Z</time></trkpt><trkpt lat="44.3326949" lon="8.3815897"><ele>341.6</ele><time>2026-04-18T13:05:10.264Z</time></trkpt><trkpt lat="44.3325875" lon="8.3816034"><ele>341.8</ele><time>2026-04-18T13:05:11.264Z</time></trkpt><trkpt lat="44.3324907" lon="8.3816241"><ele>342.0</ele><time>2026-04-18T13:05:12.265Z</time></trkpt><trkpt lat="44.3324004" lon="8.3816565"><ele>342.0</ele><time>2026-04-18T13:05:13.264Z</time></trkpt><trkpt lat="44.3323156" lon="8.381699"><ele>342.0</ele><time>2026-04-18T13:05:14.265Z</time></trkpt><trkpt lat="44.3322331" lon="8.3817605"><ele>342.0</ele><time>2026-04-18T13:05:15.265Z</time></trkpt><trkpt lat="44.332166" lon="8.3818681"><ele>342.0</ele><time>2026-04-18T13:05:16.264Z</time></trkpt><trkpt lat="44.3321406" lon="8.3820275"><ele>342.0</ele><time>2026-04-18T13:05:17.265Z</time></trkpt><trkpt lat="44.3321415" lon="8.3821801"><ele>337.6</ele><time>2026-04-18T13:05:18.265Z</time></trkpt><trkpt lat="44.3321568" lon="8.3823299"><ele>333.20000000000005</ele><time>2026-04-18T13:05:19.265Z</time></trkpt><trkpt lat="44.3321689" lon="8.3824819"><ele>328.8</ele><time>2026-04-18T13:05:20.265Z</time></trkpt><trkpt lat="44.3321669" lon="8.3826245"><ele>324.4</ele><time>2026-04-18T13:05:21.265Z</time></trkpt><trkpt lat="44.3321409" lon="8.3827681"><ele>320.0</ele><time>2026-04-18T13:05:22.265Z</time></trkpt><trkpt lat="44.3321007" lon="8.3829181"><ele>320.2</ele><time>2026-04-18T13:05:23.265Z</time></trkpt><trkpt lat="44.3320609" lon="8.3830626"><ele>320.4</ele><time>2026-04-18T13:05:24.264Z</time></trkpt><trkpt lat="44.3320282" lon="8.3832139"><ele>320.6</ele><time>2026-04-18T13:05:25.265Z</time></trkpt><trkpt lat="44.3320085" lon="8.383366"><ele>320.8</ele><time>2026-04-18T13:05:26.265Z</time></trkpt><trkpt lat="44.3319903" lon="8.3835176"><ele>321.0</ele><time>2026-04-18T13:05:27.265Z</time></trkpt><trkpt lat="44.3319945" lon="8.3836788"><ele>321.0</ele><time>2026-04-18T13:05:28.264Z</time></trkpt><trkpt lat="44.3320119" lon="8.3838295"><ele>321.0</ele><time>2026-04-18T13:05:29.265Z</time></trkpt><trkpt lat="44.3320168" lon="8.3839914"><ele>321.0</ele><time>2026-04-18T13:05:30.265Z</time></trkpt><trkpt lat="44.3320287" lon="8.3841615"><ele>321.0</ele><time>2026-04-18T13:05:31.264Z</time></trkpt><trkpt lat="44.3320465" lon="8.3843329"><ele>321.0</ele><time>2026-04-18T13:05:32.265Z</time></trkpt><trkpt lat="44.3320847" lon="8.3844971"><ele>321.0</ele><time>2026-04-18T13:05:33.265Z</time></trkpt><trkpt lat="44.332136" lon="8.3846597"><ele>321.0</ele><time>2026-04-18T13:05:34.265Z</time></trkpt><trkpt lat="44.3321948" lon="8.3848234"><ele>321.0</ele><time>2026-04-18T13:05:35.265Z</time></trkpt><trkpt lat="44.3322575" lon="8.3849928"><ele>321.0</ele><time>2026-04-18T13:05:36.265Z</time></trkpt><trkpt lat="44.3323167" lon="8.3851735"><ele>321.0</ele><time>2026-04-18T13:05:37.265Z</time></trkpt><trkpt lat="44.3323599" lon="8.3853698"><ele>321.0</ele><time>2026-04-18T13:05:38.265Z</time></trkpt><trkpt lat="44.332395" lon="8.3855733"><ele>321.0</ele><time>2026-04-18T13:05:39.265Z</time></trkpt><trkpt lat="44.3324137" lon="8.3857889"><ele>321.0</ele><time>2026-04-18T13:05:40.264Z</time></trkpt><trkpt lat="44.3324248" lon="8.3860085"><ele>321.0</ele><time>2026-04-18T13:05:41.265Z</time></trkpt><trkpt lat="44.3324307" lon="8.3862367"><ele>321.0</ele><time>2026-04-18T13:05:42.265Z</time></trkpt><trkpt lat="44.3324264" lon="8.3864633"><ele>320.0</ele><time>2026-04-18T13:05:43.264Z</time></trkpt><trkpt lat="44.3324224" lon="8.3866855"><ele>319.0</ele><time>2026-04-18T13:05:44.264Z</time></trkpt><trkpt lat="44.3324154" lon="8.3869093"><ele>318.0</ele><time>2026-04-18T13:05:45.265Z</time></trkpt><trkpt lat="44.3324002" lon="8.3871439"><ele>317.3333333333333</ele><time>2026-04-18T13:05:46.265Z</time></trkpt><trkpt lat="44.3323828" lon="8.3873831"><ele>316.66666666666663</ele><time>2026-04-18T13:05:47.265Z</time></trkpt><trkpt lat="44.3323629" lon="8.3876247"><ele>316.0</ele><time>2026-04-18T13:05:48.265Z</time></trkpt><trkpt lat="44.3323439" lon="8.3878621"><ele>314.66666666666663</ele><time>2026-04-18T13:05:49.264Z</time></trkpt><trkpt lat="44.3323239" lon="8.3880982"><ele>313.3333333333333</ele><time>2026-04-18T13:05:50.265Z</time></trkpt><trkpt lat="44.3323035" lon="8.3883356"><ele>312.0</ele><time>2026-04-18T13:05:51.265Z</time></trkpt><trkpt lat="44.3322779" lon="8.3885658"><ele>312.0</ele><time>2026-04-18T13:05:52.265Z</time></trkpt><trkpt lat="44.3322534" lon="8.3888035"><ele>312.0</ele><time>2026-04-18T13:05:53.265Z</time></trkpt><trkpt lat="44.3322229" lon="8.3890464"><ele>312.0</ele><time>2026-04-18T13:05:54.264Z</time></trkpt><trkpt lat="44.3321918" lon="8.3892989"><ele>306.3333333333333</ele><time>2026-04-18T13:05:55.265Z</time></trkpt><trkpt lat="44.3321543" lon="8.3895582"><ele>300.66666666666663</ele><time>2026-04-18T13:05:56.265Z</time></trkpt><trkpt lat="44.3321146" lon="8.3898283"><ele>295.0</ele><time>2026-04-18T13:05:57.264Z</time></trkpt><trkpt lat="44.3320693" lon="8.3901236"><ele>293.0</ele><time>2026-04-18T13:05:58.265Z</time></trkpt><trkpt lat="44.332014" lon="8.3904505"><ele>291.0</ele><time>2026-04-18T13:05:59.265Z</time></trkpt><trkpt lat="44.33195" lon="8.390783"><ele>289.0</ele><time>2026-04-18T13:06:00.265Z</time></trkpt><trkpt lat="44.3318834" lon="8.3911131"><ele>287.0</ele><time>2026-04-18T13:06:01.264Z</time></trkpt><trkpt lat="44.331814" lon="8.3914376"><ele>286.5</ele><time>2026-04-18T13:06:02.264Z</time></trkpt><trkpt lat="44.3317487" lon="8.3917494"><ele>286.0</ele><time>2026-04-18T13:06:03.265Z</time></trkpt><trkpt lat="44.3316843" lon="8.3920592"><ele>284.66666666666663</ele><time>2026-04-18T13:06:04.265Z</time></trkpt><trkpt lat="44.3316249" lon="8.3923547"><ele>283.3333333333333</ele><time>2026-04-18T13:06:05.265Z</time></trkpt><trkpt lat="44.3315692" lon="8.3926333"><ele>282.0</ele><time>2026-04-18T13:06:06.265Z</time></trkpt><trkpt lat="44.3315142" lon="8.3929022"><ele>282.0</ele><time>2026-04-18T13:06:07.264Z</time></trkpt><trkpt lat="44.3314628" lon="8.393155"><ele>282.0</ele><time>2026-04-18T13:06:08.265Z</time></trkpt><trkpt lat="44.3314139" lon="8.3933991"><ele>282.0</ele><time>2026-04-18T13:06:09.265Z</time></trkpt><trkpt lat="44.3313699" lon="8.3936367"><ele>282.0</ele><time>2026-04-18T13:06:10.265Z</time></trkpt><trkpt lat="44.3313212" lon="8.393874"><ele>282.0</ele><time>2026-04-18T13:06:11.265Z</time></trkpt><trkpt lat="44.3312577" lon="8.3941126"><ele>282.0</ele><time>2026-04-18T13:06:12.265Z</time></trkpt><trkpt lat="44.3311825" lon="8.3943373"><ele>282.0</ele><time>2026-04-18T13:06:13.265Z</time></trkpt><trkpt lat="44.331097" lon="8.3945375"><ele>282.0</ele><time>2026-04-18T13:06:14.265Z</time></trkpt><trkpt lat="44.3310019" lon="8.3947317"><ele>282.0</ele><time>2026-04-18T13:06:15.265Z</time></trkpt><trkpt lat="44.3309133" lon="8.3949114"><ele>281.0</ele><time>2026-04-18T13:06:16.265Z</time></trkpt><trkpt lat="44.330843" lon="8.3950949"><ele>280.0</ele><time>2026-04-18T13:06:17.265Z</time></trkpt><trkpt lat="44.3307903" lon="8.3952576"><ele>279.0</ele><time>2026-04-18T13:06:18.265Z</time></trkpt><trkpt lat="44.3307578" lon="8.3954372"><ele>278.0</ele><time>2026-04-18T13:06:19.265Z</time></trkpt><trkpt lat="44.3307523" lon="8.3956337"><ele>276.75</ele><time>2026-04-18T13:06:20.264Z</time></trkpt><trkpt lat="44.3307747" lon="8.3958144"><ele>275.5</ele><time>2026-04-18T13:06:21.265Z</time></trkpt><trkpt lat="44.3308153" lon="8.3959756"><ele>274.25</ele><time>2026-04-18T13:06:22.266Z</time></trkpt><trkpt lat="44.3308659" lon="8.3961236"><ele>273.0</ele><time>2026-04-18T13:06:23.265Z</time></trkpt><trkpt lat="44.3309383" lon="8.3962393"><ele>273.0</ele><time>2026-04-18T13:06:24.265Z</time></trkpt><trkpt lat="44.3310366" lon="8.3963106"><ele>273.0</ele><time>2026-04-18T13:06:25.265Z</time></trkpt><trkpt lat="44.3311414" lon="8.396358"><ele>273.0</ele><time>2026-04-18T13:06:26.266Z</time></trkpt><trkpt lat="44.331232" lon="8.3964276"><ele>273.0</ele><time>2026-04-18T13:06:27.265Z</time></trkpt><trkpt lat="44.3313139" lon="8.3965493"><ele>273.0</ele><time>2026-04-18T13:06:28.265Z</time></trkpt><trkpt lat="44.3313903" lon="8.3966982"><ele>272.75</ele><time>2026-04-18T13:06:29.266Z</time></trkpt><trkpt lat="44.3314357" lon="8.3968693"><ele>272.5</ele><time>2026-04-18T13:06:30.265Z</time></trkpt><trkpt lat="44.3314452" lon="8.3970592"><ele>272.25</ele><time>2026-04-18T13:06:31.265Z</time></trkpt><trkpt lat="44.3314296" lon="8.397232"><ele>272.0</ele><time>2026-04-18T13:06:32.266Z</time></trkpt><trkpt lat="44.3313951" lon="8.3974056"><ele>270.5</ele><time>2026-04-18T13:06:33.266Z</time></trkpt><trkpt lat="44.3313496" lon="8.3975676"><ele>269.0</ele><time>2026-04-18T13:06:34.266Z</time></trkpt><trkpt lat="44.3312659" lon="8.3977064"><ele>267.5</ele><time>2026-04-18T13:06:35.266Z</time></trkpt><trkpt lat="44.331153" lon="8.3978247"><ele>266.0</ele><time>2026-04-18T13:06:36.265Z</time></trkpt><trkpt lat="44.3310461" lon="8.3979198"><ele>264.5</ele><time>2026-04-18T13:06:37.266Z</time></trkpt><trkpt lat="44.3309315" lon="8.3980133"><ele>263.0</ele><time>2026-04-18T13:06:38.265Z</time></trkpt><trkpt lat="44.3308461" lon="8.3981535"><ele>261.5</ele><time>2026-04-18T13:06:39.266Z</time></trkpt><trkpt lat="44.3307839" lon="8.398346"><ele>260.0</ele><time>2026-04-18T13:06:40.266Z</time></trkpt><trkpt lat="44.3307448" lon="8.3985526"><ele>260.0</ele><time>2026-04-18T13:06:41.266Z</time></trkpt><trkpt lat="44.3307097" lon="8.39875"><ele>260.0</ele><time>2026-04-18T13:06:42.265Z</time></trkpt><trkpt lat="44.3306933" lon="8.3989655"><ele>260.0</ele><time>2026-04-18T13:06:43.265Z</time></trkpt><trkpt lat="44.3306827" lon="8.3991741"><ele>259.0</ele><time>2026-04-18T13:06:44.265Z</time></trkpt><trkpt lat="44.3306848" lon="8.3993787"><ele>258.0</ele><time>2026-04-18T13:06:45.266Z</time></trkpt><trkpt lat="44.3306931" lon="8.3995716"><ele>257.0</ele><time>2026-04-18T13:06:46.266Z</time></trkpt><trkpt lat="44.3307168" lon="8.399767"><ele>256.0</ele><time>2026-04-18T13:06:47.266Z</time></trkpt><trkpt lat="44.3307658" lon="8.3999682"><ele>256.3333333333333</ele><time>2026-04-18T13:06:48.266Z</time></trkpt><trkpt lat="44.3308621" lon="8.4001653"><ele>256.6666666666667</ele><time>2026-04-18T13:06:49.266Z</time></trkpt><trkpt lat="44.3309966" lon="8.4003585"><ele>257.0</ele><time>2026-04-18T13:06:50.266Z</time></trkpt><trkpt lat="44.3311504" lon="8.4005622"><ele>257.0</ele><time>2026-04-18T13:06:51.266Z</time></trkpt><trkpt lat="44.3312963" lon="8.4007879"><ele>257.0</ele><time>2026-04-18T13:06:52.265Z</time></trkpt><trkpt lat="44.3314324" lon="8.4010405"><ele>257.0</ele><time>2026-04-18T13:06:53.266Z</time></trkpt><trkpt lat="44.331563" lon="8.4012887"><ele>252.0</ele><time>2026-04-18T13:06:54.266Z</time></trkpt><trkpt lat="44.3316875" lon="8.4015149"><ele>247.0</ele><time>2026-04-18T13:06:55.266Z</time></trkpt><trkpt lat="44.3317963" lon="8.4017305"><ele>242.0</ele><time>2026-04-18T13:06:56.265Z</time></trkpt><trkpt lat="44.3318757" lon="8.4019543"><ele>241.33333333333334</ele><time>2026-04-18T13:06:57.266Z</time></trkpt><trkpt lat="44.3319181" lon="8.4022001"><ele>240.66666666666669</ele><time>2026-04-18T13:06:58.266Z</time></trkpt><trkpt lat="44.3319122" lon="8.4024548"><ele>240.0</ele><time>2026-04-18T13:06:59.266Z</time></trkpt><trkpt lat="44.3318846" lon="8.4027097"><ele>240.0</ele><time>2026-04-18T13:07:00.266Z</time></trkpt><trkpt lat="44.331807" lon="8.4029644"><ele>240.0</ele><time>2026-04-18T13:07:01.266Z</time></trkpt><trkpt lat="44.3317064" lon="8.403224"><ele>240.0</ele><time>2026-04-18T13:07:02.266Z</time></trkpt><trkpt lat="44.3315843" lon="8.4034945"><ele>239.5</ele><time>2026-04-18T13:07:03.266Z</time></trkpt><trkpt lat="44.3314575" lon="8.4037691"><ele>239.0</ele><time>2026-04-18T13:07:04.266Z</time></trkpt><trkpt lat="44.3313278" lon="8.4040415"><ele>239.0</ele><time>2026-04-18T13:07:05.266Z</time></trkpt><trkpt lat="44.3312028" lon="8.4043227"><ele>239.0</ele><time>2026-04-18T13:07:06.266Z</time></trkpt><trkpt lat="44.3310801" lon="8.4045974"><ele>237.0</ele><time>2026-04-18T13:07:07.266Z</time></trkpt><trkpt lat="44.330966" lon="8.404852"><ele>235.0</ele><time>2026-04-18T13:07:08.265Z</time></trkpt><trkpt lat="44.3308573" lon="8.4050883"><ele>233.0</ele><time>2026-04-18T13:07:09.266Z</time></trkpt><trkpt lat="44.3307522" lon="8.4053204"><ele>234.0</ele><time>2026-04-18T13:07:10.266Z</time></trkpt><trkpt lat="44.3306446" lon="8.4055473"><ele>235.0</ele><time>2026-04-18T13:07:11.266Z</time></trkpt><trkpt lat="44.3305441" lon="8.40577"><ele>236.0</ele><time>2026-04-18T13:07:12.266Z</time></trkpt><trkpt lat="44.3304502" lon="8.4059863"><ele>236.5</ele><time>2026-04-18T13:07:13.266Z</time></trkpt><trkpt lat="44.3303628" lon="8.4061821"><ele>237.0</ele><time>2026-04-18T13:07:14.266Z</time></trkpt><trkpt lat="44.3302862" lon="8.4063569"><ele>237.5</ele><time>2026-04-18T13:07:15.266Z</time></trkpt><trkpt lat="44.3302199" lon="8.4065104"><ele>238.0</ele><time>2026-04-18T13:07:16.266Z</time></trkpt><trkpt lat="44.3301351" lon="8.4066245"><ele>237.0</ele><time>2026-04-18T13:07:17.266Z</time></trkpt><trkpt lat="44.3300228" lon="8.4066815"><ele>236.0</ele><time>2026-04-18T13:07:18.266Z</time></trkpt><trkpt lat="44.3298849" lon="8.4066597"><ele>235.0</ele><time>2026-04-18T13:07:19.266Z</time></trkpt><trkpt lat="44.3297412" lon="8.406613"><ele>234.0</ele><time>2026-04-18T13:07:20.266Z</time></trkpt><trkpt lat="44.3296062" lon="8.4065808"><ele>234.0</ele><time>2026-04-18T13:07:21.266Z</time></trkpt><trkpt lat="44.3295011" lon="8.4066078"><ele>234.0</ele><time>2026-04-18T13:07:22.265Z</time></trkpt><trkpt lat="44.3294001" lon="8.4067015"><ele>234.0</ele><time>2026-04-18T13:07:23.266Z</time></trkpt><trkpt lat="44.3293324" lon="8.4068598"><ele>234.0</ele><time>2026-04-18T13:07:24.266Z</time></trkpt><trkpt lat="44.3292923" lon="8.4070656"><ele>231.66666666666669</ele><time>2026-04-18T13:07:25.266Z</time></trkpt><trkpt lat="44.3292563" lon="8.4072735"><ele>229.33333333333334</ele><time>2026-04-18T13:07:26.266Z</time></trkpt><trkpt lat="44.3291873" lon="8.4074686"><ele>227.0</ele><time>2026-04-18T13:07:27.265Z</time></trkpt><trkpt lat="44.3290801" lon="8.4076391"><ele>227.0</ele><time>2026-04-18T13:07:28.265Z</time></trkpt><trkpt lat="44.3289532" lon="8.4077815"><ele>227.0</ele><time>2026-04-18T13:07:29.266Z</time></trkpt><trkpt lat="44.3288155" lon="8.4079079"><ele>227.0</ele><time>2026-04-18T13:07:30.266Z</time></trkpt><trkpt lat="44.3286927" lon="8.4080458"><ele>223.66666666666669</ele><time>2026-04-18T13:07:31.266Z</time></trkpt><trkpt lat="44.3286105" lon="8.4082173"><ele>220.33333333333331</ele><time>2026-04-18T13:07:32.266Z</time></trkpt><trkpt lat="44.328585" lon="8.4084237"><ele>217.0</ele><time>2026-04-18T13:07:33.265Z</time></trkpt><trkpt lat="44.3285947" lon="8.4086469"><ele>216.33333333333331</ele><time>2026-04-18T13:07:34.266Z</time></trkpt><trkpt lat="44.3286096" lon="8.4088704"><ele>215.66666666666669</ele><time>2026-04-18T13:07:35.266Z</time></trkpt><trkpt lat="44.3285964" lon="8.4090882"><ele>215.0</ele><time>2026-04-18T13:07:36.266Z</time></trkpt><trkpt lat="44.328549" lon="8.4093074"><ele>215.0</ele><time>2026-04-18T13:07:37.265Z</time></trkpt><trkpt lat="44.3284877" lon="8.4095105"><ele>215.0</ele><time>2026-04-18T13:07:38.266Z</time></trkpt><trkpt lat="44.328436" lon="8.4096938"><ele>215.0</ele><time>2026-04-18T13:07:39.265Z</time></trkpt><trkpt lat="44.3284119" lon="8.4098644"><ele>215.0</ele><time>2026-04-18T13:07:40.266Z</time></trkpt><trkpt lat="44.3284335" lon="8.4100378"><ele>213.66666666666669</ele><time>2026-04-18T13:07:41.266Z</time></trkpt><trkpt lat="44.3284986" lon="8.4102044"><ele>212.33333333333331</ele><time>2026-04-18T13:07:42.266Z</time></trkpt><trkpt lat="44.3285962" lon="8.4103813"><ele>211.0</ele><time>2026-04-18T13:07:43.265Z</time></trkpt><trkpt lat="44.3287002" lon="8.410557"><ele>208.75</ele><time>2026-04-18T13:07:44.266Z</time></trkpt><trkpt lat="44.3287944" lon="8.4107207"><ele>206.5</ele><time>2026-04-18T13:07:45.266Z</time></trkpt><trkpt lat="44.3288726" lon="8.4108735"><ele>204.25</ele><time>2026-04-18T13:07:46.266Z</time></trkpt><trkpt lat="44.3289252" lon="8.4110237"><ele>202.0</ele><time>2026-04-18T13:07:47.266Z</time></trkpt><trkpt lat="44.3289165" lon="8.411174"><ele>201.25</ele><time>2026-04-18T13:07:48.266Z</time></trkpt><trkpt lat="44.3288753" lon="8.4113069"><ele>200.5</ele><time>2026-04-18T13:07:49.266Z</time></trkpt><trkpt lat="44.3287655" lon="8.4114081"><ele>199.75</ele><time>2026-04-18T13:07:50.266Z</time></trkpt><trkpt lat="44.3286258" lon="8.4114899"><ele>199.0</ele><time>2026-04-18T13:07:51.266Z</time></trkpt><trkpt lat="44.3284676" lon="8.4115614"><ele>199.0</ele><time>2026-04-18T13:07:52.266Z</time></trkpt><trkpt lat="44.3283003" lon="8.4116464"><ele>199.0</ele><time>2026-04-18T13:07:53.266Z</time></trkpt><trkpt lat="44.3281399" lon="8.4117804"><ele>199.0</ele><time>2026-04-18T13:07:54.265Z</time></trkpt><trkpt lat="44.3279864" lon="8.411944"><ele>197.66666666666666</ele><time>2026-04-18T13:07:55.266Z</time></trkpt><trkpt lat="44.3278289" lon="8.4121079"><ele>196.33333333333331</ele><time>2026-04-18T13:07:56.266Z</time></trkpt><trkpt lat="44.3276686" lon="8.4122785"><ele>195.0</ele><time>2026-04-18T13:07:57.266Z</time></trkpt><trkpt lat="44.3275171" lon="8.4124255"><ele>195.0</ele><time>2026-04-18T13:07:58.266Z</time></trkpt><trkpt lat="44.3273676" lon="8.4125399"><ele>195.0</ele><time>2026-04-18T13:07:59.265Z</time></trkpt><trkpt lat="44.3272185" lon="8.4126171"><ele>195.0</ele><time>2026-04-18T13:08:00.266Z</time></trkpt><trkpt lat="44.3270967" lon="8.4127057"><ele>193.0</ele><time>2026-04-18T13:08:01.265Z</time></trkpt><trkpt lat="44.3270125" lon="8.4128844"><ele>191.0</ele><time>2026-04-18T13:08:02.266Z</time></trkpt><trkpt lat="44.3269419" lon="8.4130773"><ele>189.0</ele><time>2026-04-18T13:08:03.266Z</time></trkpt><trkpt lat="44.3268684" lon="8.4132651"><ele>189.0</ele><time>2026-04-18T13:08:04.265Z</time></trkpt><trkpt lat="44.3267629" lon="8.4134342"><ele>189.0</ele><time>2026-04-18T13:08:05.266Z</time></trkpt><trkpt lat="44.3266362" lon="8.4135718"><ele>189.0</ele><time>2026-04-18T13:08:06.266Z</time></trkpt><trkpt lat="44.3265197" lon="8.4136852"><ele>189.0</ele><time>2026-04-18T13:08:07.266Z</time></trkpt><trkpt lat="44.3264239" lon="8.4137982"><ele>189.0</ele><time>2026-04-18T13:08:08.266Z</time></trkpt><trkpt lat="44.3263487" lon="8.4139381"><ele>189.0</ele><time>2026-04-18T13:08:09.266Z</time></trkpt><trkpt lat="44.3262905" lon="8.4140997"><ele>189.0</ele><time>2026-04-18T13:08:10.265Z</time></trkpt><trkpt lat="44.3262473" lon="8.4142664"><ele>188.5</ele><time>2026-04-18T13:08:11.265Z</time></trkpt><trkpt lat="44.3262163" lon="8.4144255"><ele>188.0</ele><time>2026-04-18T13:08:12.266Z</time></trkpt><trkpt lat="44.3261838" lon="8.414583"><ele>187.5</ele><time>2026-04-18T13:08:13.266Z</time></trkpt><trkpt lat="44.3261563" lon="8.4147415"><ele>187.0</ele><time>2026-04-18T13:08:14.265Z</time></trkpt><trkpt lat="44.3261294" lon="8.4149056"><ele>185.5</ele><time>2026-04-18T13:08:15.266Z</time></trkpt><trkpt lat="44.3261036" lon="8.4150695"><ele>184.0</ele><time>2026-04-18T13:08:16.266Z</time></trkpt><trkpt lat="44.3260764" lon="8.4152269"><ele>182.5</ele><time>2026-04-18T13:08:17.266Z</time></trkpt><trkpt lat="44.3260517" lon="8.4153885"><ele>181.0</ele><time>2026-04-18T13:08:18.266Z</time></trkpt><trkpt lat="44.3260237" lon="8.4155519"><ele>181.0</ele><time>2026-04-18T13:08:19.266Z</time></trkpt><trkpt lat="44.3259965" lon="8.4157236"><ele>181.0</ele><time>2026-04-18T13:08:20.266Z</time></trkpt><trkpt lat="44.3259691" lon="8.4158932"><ele>181.0</ele><time>2026-04-18T13:08:21.266Z</time></trkpt><trkpt lat="44.3259411" lon="8.4160592"><ele>181.0</ele><time>2026-04-18T13:08:22.266Z</time></trkpt><trkpt lat="44.3259122" lon="8.4162198"><ele>182.25</ele><time>2026-04-18T13:08:23.266Z</time></trkpt><trkpt lat="44.3258907" lon="8.4163786"><ele>183.5</ele><time>2026-04-18T13:08:24.266Z</time></trkpt><trkpt lat="44.3258671" lon="8.4165396"><ele>184.75</ele><time>2026-04-18T13:08:25.265Z</time></trkpt><trkpt lat="44.3258455" lon="8.4167016"><ele>186.0</ele><time>2026-04-18T13:08:26.266Z</time></trkpt><trkpt lat="44.3258175" lon="8.4168655"><ele>186.0</ele><time>2026-04-18T13:08:27.265Z</time></trkpt><trkpt lat="44.3257743" lon="8.4170228"><ele>186.0</ele><time>2026-04-18T13:08:28.266Z</time></trkpt><trkpt lat="44.3257132" lon="8.4171658"><ele>186.0</ele><time>2026-04-18T13:08:29.265Z</time></trkpt><trkpt lat="44.3256095" lon="8.4172973"><ele>186.0</ele><time>2026-04-18T13:08:30.266Z</time></trkpt><trkpt lat="44.3254894" lon="8.4173971"><ele>183.5</ele><time>2026-04-18T13:08:31.266Z</time></trkpt><trkpt lat="44.3253531" lon="8.4174552"><ele>181.0</ele><time>2026-04-18T13:08:32.266Z</time></trkpt><trkpt lat="44.3252467" lon="8.4175094"><ele>178.5</ele><time>2026-04-18T13:08:33.265Z</time></trkpt><trkpt lat="44.325169" lon="8.4175942"><ele>176.0</ele><time>2026-04-18T13:08:34.266Z</time></trkpt><trkpt lat="44.3251324" lon="8.4177428"><ele>176.0</ele><time>2026-04-18T13:08:35.266Z</time></trkpt><trkpt lat="44.3251321" lon="8.4179179"><ele>176.0</ele><time>2026-04-18T13:08:36.266Z</time></trkpt><trkpt lat="44.3251424" lon="8.4180932"><ele>176.0</ele><time>2026-04-18T13:08:37.266Z</time></trkpt><trkpt lat="44.3251558" lon="8.4182677"><ele>176.0</ele><time>2026-04-18T13:08:38.266Z</time></trkpt><trkpt lat="44.3251744" lon="8.4184238"><ele>175.25</ele><time>2026-04-18T13:08:39.266Z</time></trkpt><trkpt lat="44.3252047" lon="8.4185787"><ele>174.5</ele><time>2026-04-18T13:08:40.266Z</time></trkpt><trkpt lat="44.325265" lon="8.4187365"><ele>173.75</ele><time>2026-04-18T13:08:41.266Z</time></trkpt><trkpt lat="44.3253439" lon="8.4188877"><ele>173.0</ele><time>2026-04-18T13:08:42.265Z</time></trkpt><trkpt lat="44.3254186" lon="8.4190337"><ele>171.75</ele><time>2026-04-18T13:08:43.266Z</time></trkpt><trkpt lat="44.3254817" lon="8.4191891"><ele>170.5</ele><time>2026-04-18T13:08:44.265Z</time></trkpt><trkpt lat="44.3255284" lon="8.4193643"><ele>169.25</ele><time>2026-04-18T13:08:45.266Z</time></trkpt><trkpt lat="44.3255493" lon="8.4195622"><ele>168.0</ele><time>2026-04-18T13:08:46.266Z</time></trkpt><trkpt lat="44.3255583" lon="8.4197632"><ele>168.5</ele><time>2026-04-18T13:08:47.266Z</time></trkpt><trkpt lat="44.3255689" lon="8.4199583"><ele>169.0</ele><time>2026-04-18T13:08:48.266Z</time></trkpt><trkpt lat="44.3255773" lon="8.4201464"><ele>169.5</ele><time>2026-04-18T13:08:49.265Z</time></trkpt><trkpt lat="44.3255754" lon="8.4203351"><ele>170.0</ele><time>2026-04-18T13:08:50.265Z</time></trkpt><trkpt lat="44.3255589" lon="8.4205334"><ele>170.0</ele><time>2026-04-18T13:08:51.265Z</time></trkpt><trkpt lat="44.3255277" lon="8.4207525"><ele>170.0</ele><time>2026-04-18T13:08:52.267Z</time></trkpt><trkpt lat="44.3254781" lon="8.4209846"><ele>170.0</ele><time>2026-04-18T13:08:53.267Z</time></trkpt><trkpt lat="44.325418" lon="8.4212457"><ele>168.33333333333331</ele><time>2026-04-18T13:08:54.267Z</time></trkpt><trkpt lat="44.3253445" lon="8.4215142"><ele>166.66666666666666</ele><time>2026-04-18T13:08:55.266Z</time></trkpt><trkpt lat="44.3252668" lon="8.421788"><ele>165.0</ele><time>2026-04-18T13:08:56.267Z</time></trkpt><trkpt lat="44.3251841" lon="8.4220568"><ele>164.0</ele><time>2026-04-18T13:08:57.267Z</time></trkpt><trkpt lat="44.3250881" lon="8.4223154"><ele>163.0</ele><time>2026-04-18T13:08:58.267Z</time></trkpt><trkpt lat="44.3249784" lon="8.4225718"><ele>162.0</ele><time>2026-04-18T13:08:59.267Z</time></trkpt><trkpt lat="44.3248726" lon="8.4228177"><ele>163.33333333333334</ele><time>2026-04-18T13:09:00.267Z</time></trkpt><trkpt lat="44.324771" lon="8.4230597"><ele>164.66666666666669</ele><time>2026-04-18T13:09:01.267Z</time></trkpt><trkpt lat="44.3246749" lon="8.4232878"><ele>166.0</ele><time>2026-04-18T13:09:02.267Z</time></trkpt><trkpt lat="44.3245866" lon="8.4235054"><ele>166.0</ele><time>2026-04-18T13:09:03.267Z</time></trkpt><trkpt lat="44.3245138" lon="8.4237223"><ele>166.0</ele><time>2026-04-18T13:09:04.267Z</time></trkpt><trkpt lat="44.3244707" lon="8.4239684"><ele>166.0</ele><time>2026-04-18T13:09:05.266Z</time></trkpt><trkpt lat="44.3244513" lon="8.424246"><ele>163.66666666666669</ele><time>2026-04-18T13:09:06.266Z</time></trkpt><trkpt lat="44.3244345" lon="8.4245238"><ele>161.33333333333334</ele><time>2026-04-18T13:09:07.267Z</time></trkpt><trkpt lat="44.324415" lon="8.4248071"><ele>159.0</ele><time>2026-04-18T13:09:08.267Z</time></trkpt><trkpt lat="44.3243928" lon="8.4250847"><ele>159.0</ele><time>2026-04-18T13:09:09.267Z</time></trkpt><trkpt lat="44.3243694" lon="8.4253523"><ele>159.0</ele><time>2026-04-18T13:09:10.266Z</time></trkpt><trkpt lat="44.3243189" lon="8.4255907"><ele>159.0</ele><time>2026-04-18T13:09:11.267Z</time></trkpt><trkpt lat="44.3242363" lon="8.4258101"><ele>158.66666666666666</ele><time>2026-04-18T13:09:12.267Z</time></trkpt><trkpt lat="44.324128" lon="8.4260211"><ele>158.33333333333331</ele><time>2026-04-18T13:09:13.267Z</time></trkpt><trkpt lat="44.3239848" lon="8.4262367"><ele>158.0</ele><time>2026-04-18T13:09:14.267Z</time></trkpt><trkpt lat="44.3238423" lon="8.4264413"><ele>158.0</ele><time>2026-04-18T13:09:15.267Z</time></trkpt><trkpt lat="44.3237084" lon="8.4266307"><ele>158.0</ele><time>2026-04-18T13:09:16.267Z</time></trkpt><trkpt lat="44.3235889" lon="8.4268127"><ele>158.0</ele><time>2026-04-18T13:09:17.267Z</time></trkpt><trkpt lat="44.3234874" lon="8.42698"><ele>157.0</ele><time>2026-04-18T13:09:18.267Z</time></trkpt><trkpt lat="44.3234075" lon="8.4271478"><ele>156.0</ele><time>2026-04-18T13:09:19.267Z</time></trkpt><trkpt lat="44.3233562" lon="8.4273375"><ele>155.0</ele><time>2026-04-18T13:09:20.266Z</time></trkpt><trkpt lat="44.3233518" lon="8.4275595"><ele>154.0</ele><time>2026-04-18T13:09:21.267Z</time></trkpt><trkpt lat="44.3234027" lon="8.427817"><ele>153.66666666666669</ele><time>2026-04-18T13:09:22.267Z</time></trkpt><trkpt lat="44.3234672" lon="8.4280686"><ele>153.33333333333334</ele><time>2026-04-18T13:09:23.267Z</time></trkpt><trkpt lat="44.323543" lon="8.4283185"><ele>153.0</ele><time>2026-04-18T13:09:24.266Z</time></trkpt><trkpt lat="44.3236502" lon="8.4285563"><ele>153.0</ele><time>2026-04-18T13:09:25.267Z</time></trkpt><trkpt lat="44.3237845" lon="8.4287858"><ele>153.0</ele><time>2026-04-18T13:09:26.267Z</time></trkpt><trkpt lat="44.3239184" lon="8.4290051"><ele>153.0</ele><time>2026-04-18T13:09:27.267Z</time></trkpt><trkpt lat="44.3240461" lon="8.4292016"><ele>150.33333333333334</ele><time>2026-04-18T13:09:28.267Z</time></trkpt><trkpt lat="44.3241951" lon="8.4293611"><ele>147.66666666666669</ele><time>2026-04-18T13:09:29.267Z</time></trkpt><trkpt lat="44.3243696" lon="8.4294942"><ele>145.0</ele><time>2026-04-18T13:09:30.267Z</time></trkpt><trkpt lat="44.32456" lon="8.4295985"><ele>144.33333333333334</ele><time>2026-04-18T13:09:31.267Z</time></trkpt><trkpt lat="44.3247545" lon="8.4296916"><ele>143.66666666666666</ele><time>2026-04-18T13:09:32.267Z</time></trkpt><trkpt lat="44.324934" lon="8.4297948"><ele>143.0</ele><time>2026-04-18T13:09:33.267Z</time></trkpt><trkpt lat="44.3250946" lon="8.4299265"><ele>143.0</ele><time>2026-04-18T13:09:34.267Z</time></trkpt><trkpt lat="44.3252275" lon="8.430088"><ele>143.0</ele><time>2026-04-18T13:09:35.267Z</time></trkpt><trkpt lat="44.3253245" lon="8.4302631"><ele>143.0</ele><time>2026-04-18T13:09:36.266Z</time></trkpt><trkpt lat="44.3253953" lon="8.4304493"><ele>143.0</ele><time>2026-04-18T13:09:37.267Z</time></trkpt><trkpt lat="44.3254205" lon="8.4306581"><ele>143.0</ele><time>2026-04-18T13:09:38.267Z</time></trkpt><trkpt lat="44.325407" lon="8.4308901"><ele>143.0</ele><time>2026-04-18T13:09:39.266Z</time></trkpt><trkpt lat="44.3253624" lon="8.4311385"><ele>143.33333333333331</ele><time>2026-04-18T13:09:40.266Z</time></trkpt><trkpt lat="44.3253137" lon="8.4313867"><ele>143.66666666666666</ele><time>2026-04-18T13:09:41.266Z</time></trkpt><trkpt lat="44.3252653" lon="8.4316424"><ele>144.0</ele><time>2026-04-18T13:09:42.267Z</time></trkpt><trkpt lat="44.3252156" lon="8.4318866"><ele>144.0</ele><time>2026-04-18T13:09:43.267Z</time></trkpt><trkpt lat="44.325158" lon="8.4321095"><ele>144.0</ele><time>2026-04-18T13:09:44.266Z</time></trkpt><trkpt lat="44.3250785" lon="8.4323125"><ele>144.0</ele><time>2026-04-18T13:09:45.267Z</time></trkpt><trkpt lat="44.3249685" lon="8.4325129"><ele>144.66666666666666</ele><time>2026-04-18T13:09:46.267Z</time></trkpt><trkpt lat="44.324835" lon="8.4327066"><ele>145.33333333333331</ele><time>2026-04-18T13:09:47.267Z</time></trkpt><trkpt lat="44.3247041" lon="8.4329014"><ele>146.0</ele><time>2026-04-18T13:09:48.267Z</time></trkpt><trkpt lat="44.3245863" lon="8.4330863"><ele>146.0</ele><time>2026-04-18T13:09:49.266Z</time></trkpt><trkpt lat="44.3244949" lon="8.4332658"><ele>146.0</ele><time>2026-04-18T13:09:50.267Z</time></trkpt><trkpt lat="44.3244368" lon="8.4334605"><ele>146.0</ele><time>2026-04-18T13:09:51.267Z</time></trkpt><trkpt lat="44.3244216" lon="8.4336713"><ele>146.25</ele><time>2026-04-18T13:09:52.267Z</time></trkpt><trkpt lat="44.3244379" lon="8.4338681"><ele>146.5</ele><time>2026-04-18T13:09:53.267Z</time></trkpt><trkpt lat="44.324507" lon="8.4340478"><ele>146.75</ele><time>2026-04-18T13:09:54.267Z</time></trkpt><trkpt lat="44.3246129" lon="8.4342145"><ele>147.0</ele><time>2026-04-18T13:09:55.267Z</time></trkpt><trkpt lat="44.3247306" lon="8.4343803"><ele>147.0</ele><time>2026-04-18T13:09:56.266Z</time></trkpt><trkpt lat="44.3248506" lon="8.4345495"><ele>147.0</ele><time>2026-04-18T13:09:57.267Z</time></trkpt><trkpt lat="44.3249713" lon="8.4347142"><ele>147.0</ele><time>2026-04-18T13:09:58.267Z</time></trkpt><trkpt lat="44.3250832" lon="8.4348859"><ele>144.0</ele><time>2026-04-18T13:09:59.267Z</time></trkpt><trkpt lat="44.3251627" lon="8.4350785"><ele>141.0</ele><time>2026-04-18T13:10:00.267Z</time></trkpt><trkpt lat="44.3252006" lon="8.435289"><ele>138.0</ele><time>2026-04-18T13:10:01.267Z</time></trkpt><trkpt lat="44.3251866" lon="8.4355058"><ele>136.66666666666666</ele><time>2026-04-18T13:10:02.267Z</time></trkpt><trkpt lat="44.3251253" lon="8.4357328"><ele>135.33333333333331</ele><time>2026-04-18T13:10:03.267Z</time></trkpt><trkpt lat="44.3250401" lon="8.4359597"><ele>134.0</ele><time>2026-04-18T13:10:04.266Z</time></trkpt><trkpt lat="44.3249565" lon="8.4361765"><ele>134.0</ele><time>2026-04-18T13:10:05.267Z</time></trkpt><trkpt lat="44.324885" lon="8.4363677"><ele>134.0</ele><time>2026-04-18T13:10:06.267Z</time></trkpt><trkpt lat="44.3248858" lon="8.4365254"><ele>134.0</ele><time>2026-04-18T13:10:07.267Z</time></trkpt><trkpt lat="44.3249245" lon="8.4366921"><ele>134.0</ele><time>2026-04-18T13:10:08.267Z</time></trkpt><trkpt lat="44.325021" lon="8.4368314"><ele>134.0</ele><time>2026-04-18T13:10:09.267Z</time></trkpt><trkpt lat="44.3251457" lon="8.4369561"><ele>134.0</ele><time>2026-04-18T13:10:10.267Z</time></trkpt><trkpt lat="44.3252731" lon="8.4370846"><ele>134.0</ele><time>2026-04-18T13:10:11.267Z</time></trkpt><trkpt lat="44.3253791" lon="8.4372499"><ele>136.0</ele><time>2026-04-18T13:10:12.267Z</time></trkpt><trkpt lat="44.3254573" lon="8.4374844"><ele>138.0</ele><time>2026-04-18T13:10:13.267Z</time></trkpt><trkpt lat="44.3255279" lon="8.4377535"><ele>140.0</ele><time>2026-04-18T13:10:14.267Z</time></trkpt><trkpt lat="44.3255869" lon="8.438046"><ele>140.0</ele><time>2026-04-18T13:10:15.266Z</time></trkpt><trkpt lat="44.3256477" lon="8.4382973"><ele>140.0</ele><time>2026-04-18T13:10:16.266Z</time></trkpt><trkpt lat="44.3256977" lon="8.438493"><ele>140.0</ele><time>2026-04-18T13:10:17.266Z</time></trkpt><trkpt lat="44.3257361" lon="8.4386459"><ele>140.0</ele><time>2026-04-18T13:10:18.267Z</time></trkpt><trkpt lat="44.3257725" lon="8.4387911"><ele>140.0</ele><time>2026-04-18T13:10:19.266Z</time></trkpt><trkpt lat="44.3258091" lon="8.4389522"><ele>140.0</ele><time>2026-04-18T13:10:20.267Z</time></trkpt><trkpt lat="44.3258462" lon="8.4391165"><ele>140.0</ele><time>2026-04-18T13:10:21.267Z</time></trkpt><trkpt lat="44.325881" lon="8.4392754"><ele>139.5</ele><time>2026-04-18T13:10:22.266Z</time></trkpt><trkpt lat="44.3259126" lon="8.4394289"><ele>139.0</ele><time>2026-04-18T13:10:23.267Z</time></trkpt><trkpt lat="44.3259463" lon="8.4395848"><ele>138.5</ele><time>2026-04-18T13:10:24.267Z</time></trkpt><trkpt lat="44.325981" lon="8.4397453"><ele>138.0</ele><time>2026-04-18T13:10:25.267Z</time></trkpt><trkpt lat="44.3260124" lon="8.4398966"><ele>137.5</ele><time>2026-04-18T13:10:26.266Z</time></trkpt><trkpt lat="44.3260466" lon="8.4400535"><ele>137.0</ele><time>2026-04-18T13:10:27.267Z</time></trkpt><trkpt lat="44.3260887" lon="8.4402157"><ele>136.5</ele><time>2026-04-18T13:10:28.267Z</time></trkpt><trkpt lat="44.3261363" lon="8.4403795"><ele>136.0</ele><time>2026-04-18T13:10:29.266Z</time></trkpt><trkpt lat="44.3261982" lon="8.4405362"><ele>137.25</ele><time>2026-04-18T13:10:30.267Z</time></trkpt><trkpt lat="44.3262482" lon="8.4406933"><ele>138.5</ele><time>2026-04-18T13:10:31.267Z</time></trkpt><trkpt lat="44.3263074" lon="8.4408541"><ele>139.75</ele><time>2026-04-18T13:10:32.267Z</time></trkpt><trkpt lat="44.3263676" lon="8.4410327"><ele>141.0</ele><time>2026-04-18T13:10:33.267Z</time></trkpt><trkpt lat="44.3264311" lon="8.4412284"><ele>135.66666666666666</ele><time>2026-04-18T13:10:34.267Z</time></trkpt><trkpt lat="44.326499" lon="8.441431"><ele>130.33333333333331</ele><time>2026-04-18T13:10:35.267Z</time></trkpt><trkpt lat="44.3265663" lon="8.4416308"><ele>125.0</ele><time>2026-04-18T13:10:36.267Z</time></trkpt><trkpt lat="44.326627" lon="8.4418293"><ele>125.0</ele><time>2026-04-18T13:10:37.267Z</time></trkpt><trkpt lat="44.3266492" lon="8.4420417"><ele>125.0</ele><time>2026-04-18T13:10:38.266Z</time></trkpt><trkpt lat="44.3266265" lon="8.442262"><ele>125.0</ele><time>2026-04-18T13:10:39.266Z</time></trkpt><trkpt lat="44.326575" lon="8.4424733"><ele>125.0</ele><time>2026-04-18T13:10:40.267Z</time></trkpt><trkpt lat="44.3265198" lon="8.442658"><ele>125.0</ele><time>2026-04-18T13:10:41.267Z</time></trkpt><trkpt lat="44.3264925" lon="8.4428277"><ele>125.0</ele><time>2026-04-18T13:10:42.267Z</time></trkpt><trkpt lat="44.3265022" lon="8.4429856"><ele>125.0</ele><time>2026-04-18T13:10:43.267Z</time></trkpt><trkpt lat="44.3265714" lon="8.4431201"><ele>123.75</ele><time>2026-04-18T13:10:44.266Z</time></trkpt><trkpt lat="44.3266818" lon="8.4432201"><ele>122.5</ele><time>2026-04-18T13:10:45.267Z</time></trkpt><trkpt lat="44.326818" lon="8.4432942"><ele>121.25</ele><time>2026-04-18T13:10:46.267Z</time></trkpt><trkpt lat="44.3269552" lon="8.4433672"><ele>120.0</ele><time>2026-04-18T13:10:47.267Z</time></trkpt><trkpt lat="44.3270682" lon="8.4434838"><ele>120.0</ele><time>2026-04-18T13:10:48.267Z</time></trkpt><trkpt lat="44.327147" lon="8.4436311"><ele>120.0</ele><time>2026-04-18T13:10:49.267Z</time></trkpt><trkpt lat="44.3271903" lon="8.4438127"><ele>120.0</ele><time>2026-04-18T13:10:50.266Z</time></trkpt><trkpt lat="44.3272252" lon="8.4440096"><ele>120.0</ele><time>2026-04-18T13:10:51.267Z</time></trkpt><trkpt lat="44.3272643" lon="8.4442028"><ele>119.25</ele><time>2026-04-18T13:10:52.267Z</time></trkpt><trkpt lat="44.3272985" lon="8.4443821"><ele>118.5</ele><time>2026-04-18T13:10:53.267Z</time></trkpt><trkpt lat="44.3273337" lon="8.4445504"><ele>117.75</ele><time>2026-04-18T13:10:54.267Z</time></trkpt><trkpt lat="44.3273587" lon="8.4447156"><ele>117.0</ele><time>2026-04-18T13:10:55.266Z</time></trkpt><trkpt lat="44.3273549" lon="8.4448874"><ele>117.0</ele><time>2026-04-18T13:10:56.266Z</time></trkpt><trkpt lat="44.3273175" lon="8.4450627"><ele>117.0</ele><time>2026-04-18T13:10:57.267Z</time></trkpt><trkpt lat="44.3272571" lon="8.445252"><ele>117.0</ele><time>2026-04-18T13:10:58.267Z</time></trkpt><trkpt lat="44.3271921" lon="8.4454506"><ele>117.0</ele><time>2026-04-18T13:10:59.267Z</time></trkpt><trkpt lat="44.3271266" lon="8.4456506"><ele>117.66666666666666</ele><time>2026-04-18T13:11:00.267Z</time></trkpt><trkpt lat="44.3270631" lon="8.4458482"><ele>118.33333333333333</ele><time>2026-04-18T13:11:01.266Z</time></trkpt><trkpt lat="44.327003" lon="8.4460414"><ele>119.0</ele><time>2026-04-18T13:11:02.267Z</time></trkpt><trkpt lat="44.3269595" lon="8.446234"><ele>116.0</ele><time>2026-04-18T13:11:03.266Z</time></trkpt><trkpt lat="44.3269452" lon="8.4464364"><ele>113.0</ele><time>2026-04-18T13:11:04.266Z</time></trkpt><trkpt lat="44.3269429" lon="8.4466532"><ele>110.0</ele><time>2026-04-18T13:11:05.267Z</time></trkpt><trkpt lat="44.3269558" lon="8.4468815"><ele>110.0</ele><time>2026-04-18T13:11:06.267Z</time></trkpt><trkpt lat="44.3269623" lon="8.4471106"><ele>110.0</ele><time>2026-04-18T13:11:07.267Z</time></trkpt><trkpt lat="44.32697" lon="8.4473385"><ele>110.0</ele><time>2026-04-18T13:11:08.267Z</time></trkpt><trkpt lat="44.3269732" lon="8.4475719"><ele>108.0</ele><time>2026-04-18T13:11:09.267Z</time></trkpt><trkpt lat="44.3269583" lon="8.4477999"><ele>106.0</ele><time>2026-04-18T13:11:10.267Z</time></trkpt><trkpt lat="44.3269261" lon="8.4480241"><ele>104.0</ele><time>2026-04-18T13:11:11.267Z</time></trkpt><trkpt lat="44.3268559" lon="8.4482392"><ele>102.0</ele><time>2026-04-18T13:11:12.267Z</time></trkpt><trkpt lat="44.3267791" lon="8.4484575"><ele>100.0</ele><time>2026-04-18T13:11:13.266Z</time></trkpt><trkpt lat="44.326692" lon="8.4486808"><ele>98.0</ele><time>2026-04-18T13:11:14.266Z</time></trkpt><trkpt lat="44.326603" lon="8.4489042"><ele>98.0</ele><time>2026-04-18T13:11:15.267Z</time></trkpt><trkpt lat="44.3265126" lon="8.4491191"><ele>98.0</ele><time>2026-04-18T13:11:16.266Z</time></trkpt><trkpt lat="44.3264347" lon="8.449314"><ele>98.0</ele><time>2026-04-18T13:11:17.266Z</time></trkpt><trkpt lat="44.3263614" lon="8.4494994"><ele>97.5</ele><time>2026-04-18T13:11:18.267Z</time></trkpt><trkpt lat="44.3263056" lon="8.449663"><ele>97.0</ele><time>2026-04-18T13:11:19.267Z</time></trkpt><trkpt lat="44.3262987" lon="8.449834"><ele>96.5</ele><time>2026-04-18T13:11:20.266Z</time></trkpt><trkpt lat="44.3263459" lon="8.4500222"><ele>96.0</ele><time>2026-04-18T13:11:21.267Z</time></trkpt><trkpt lat="44.3264067" lon="8.4502177"><ele>96.0</ele><time>2026-04-18T13:11:22.267Z</time></trkpt><trkpt lat="44.3264688" lon="8.4504134"><ele>96.0</ele><time>2026-04-18T13:11:23.267Z</time></trkpt><trkpt lat="44.3265245" lon="8.4506137"><ele>96.0</ele><time>2026-04-18T13:11:24.267Z</time></trkpt><trkpt lat="44.3265461" lon="8.4508104"><ele>96.0</ele><time>2026-04-18T13:11:25.268Z</time></trkpt><trkpt lat="44.3265294" lon="8.4510117"><ele>94.66666666666667</ele><time>2026-04-18T13:11:26.268Z</time></trkpt><trkpt lat="44.3265033" lon="8.4512296"><ele>93.33333333333334</ele><time>2026-04-18T13:11:27.268Z</time></trkpt><trkpt lat="44.3264795" lon="8.451458"><ele>92.0</ele><time>2026-04-18T13:11:28.268Z</time></trkpt><trkpt lat="44.3264479" lon="8.4516965"><ele>91.33333333333334</ele><time>2026-04-18T13:11:29.268Z</time></trkpt><trkpt lat="44.3264156" lon="8.4519423"><ele>90.66666666666667</ele><time>2026-04-18T13:11:30.268Z</time></trkpt><trkpt lat="44.3263832" lon="8.4521988"><ele>90.0</ele><time>2026-04-18T13:11:31.268Z</time></trkpt><trkpt lat="44.3263508" lon="8.4524634"><ele>91.66666666666667</ele><time>2026-04-18T13:11:32.268Z</time></trkpt><trkpt lat="44.3263159" lon="8.452725"><ele>93.33333333333334</ele><time>2026-04-18T13:11:33.268Z</time></trkpt><trkpt lat="44.3262822" lon="8.4529881"><ele>95.0</ele><time>2026-04-18T13:11:34.268Z</time></trkpt><trkpt lat="44.3262437" lon="8.4532503"><ele>95.0</ele><time>2026-04-18T13:11:35.268Z</time></trkpt><trkpt lat="44.3262067" lon="8.4535078"><ele>95.0</ele><time>2026-04-18T13:11:36.267Z</time></trkpt><trkpt lat="44.3261702" lon="8.4537637"><ele>95.0</ele><time>2026-04-18T13:11:37.268Z</time></trkpt><trkpt lat="44.3261259" lon="8.4540212"><ele>92.0</ele><time>2026-04-18T13:11:38.268Z</time></trkpt><trkpt lat="44.3260636" lon="8.4542783"><ele>89.0</ele><time>2026-04-18T13:11:39.268Z</time></trkpt><trkpt lat="44.3259715" lon="8.4545136"><ele>86.0</ele><time>2026-04-18T13:11:40.268Z</time></trkpt><trkpt lat="44.3258713" lon="8.4547387"><ele>85.0</ele><time>2026-04-18T13:11:41.267Z</time></trkpt><trkpt lat="44.3257742" lon="8.4549621"><ele>84.0</ele><time>2026-04-18T13:11:42.268Z</time></trkpt><trkpt lat="44.3256737" lon="8.4551944"><ele>83.0</ele><time>2026-04-18T13:11:43.268Z</time></trkpt><trkpt lat="44.3255723" lon="8.4554226"><ele>85.66666666666667</ele><time>2026-04-18T13:11:44.268Z</time></trkpt><trkpt lat="44.3254731" lon="8.4556505"><ele>88.33333333333333</ele><time>2026-04-18T13:11:45.268Z</time></trkpt><trkpt lat="44.3253869" lon="8.4558689"><ele>91.0</ele><time>2026-04-18T13:11:46.268Z</time></trkpt><trkpt lat="44.325315" lon="8.4560976"><ele>87.33333333333333</ele><time>2026-04-18T13:11:47.267Z</time></trkpt><trkpt lat="44.3252767" lon="8.4563485"><ele>83.66666666666667</ele><time>2026-04-18T13:11:48.268Z</time></trkpt><trkpt lat="44.325248" lon="8.45662"><ele>80.0</ele><time>2026-04-18T13:11:49.268Z</time></trkpt><trkpt lat="44.3252229" lon="8.4568722"><ele>80.0</ele><time>2026-04-18T13:11:50.268Z</time></trkpt><trkpt lat="44.32517" lon="8.4571073"><ele>80.0</ele><time>2026-04-18T13:11:51.268Z</time></trkpt><trkpt lat="44.3250845" lon="8.4573136"><ele>80.0</ele><time>2026-04-18T13:11:52.267Z</time></trkpt><trkpt lat="44.3249804" lon="8.4575022"><ele>77.0</ele><time>2026-04-18T13:11:53.268Z</time></trkpt><trkpt lat="44.3248822" lon="8.4577094"><ele>74.0</ele><time>2026-04-18T13:11:54.268Z</time></trkpt><trkpt lat="44.3248" lon="8.4579476"><ele>71.0</ele><time>2026-04-18T13:11:55.267Z</time></trkpt><trkpt lat="44.3247245" lon="8.4581851"><ele>68.66666666666667</ele><time>2026-04-18T13:11:56.268Z</time></trkpt><trkpt lat="44.3246549" lon="8.458407"><ele>66.33333333333333</ele><time>2026-04-18T13:11:57.268Z</time></trkpt><trkpt lat="44.3245845" lon="8.458608"><ele>64.0</ele><time>2026-04-18T13:11:58.268Z</time></trkpt><trkpt lat="44.3245042" lon="8.4587761"><ele>63.0</ele><time>2026-04-18T13:11:59.267Z</time></trkpt><trkpt lat="44.3244044" lon="8.4588837"><ele>62.0</ele><time>2026-04-18T13:12:00.268Z</time></trkpt><trkpt lat="44.324278" lon="8.458939"><ele>61.0</ele><time>2026-04-18T13:12:01.267Z</time></trkpt><trkpt lat="44.3241192" lon="8.4589538"><ele>60.0</ele><time>2026-04-18T13:12:02.268Z</time></trkpt><trkpt lat="44.3239407" lon="8.4589738"><ele>57.0</ele><time>2026-04-18T13:12:03.267Z</time></trkpt><trkpt lat="44.3237548" lon="8.4589955"><ele>54.0</ele><time>2026-04-18T13:12:04.268Z</time></trkpt><trkpt lat="44.3235686" lon="8.4590213"><ele>51.0</ele><time>2026-04-18T13:12:05.268Z</time></trkpt><trkpt lat="44.3233878" lon="8.4590402"><ele>51.0</ele><time>2026-04-18T13:12:06.267Z</time></trkpt><trkpt lat="44.323218" lon="8.4590534"><ele>51.0</ele><time>2026-04-18T13:12:07.268Z</time></trkpt><trkpt lat="44.323069" lon="8.4590762"><ele>51.0</ele><time>2026-04-18T13:12:08.268Z</time></trkpt><trkpt lat="44.3229421" lon="8.4591321"><ele>51.66666666666667</ele><time>2026-04-18T13:12:09.268Z</time></trkpt><trkpt lat="44.3228226" lon="8.4592452"><ele>52.333333333333336</ele><time>2026-04-18T13:12:10.268Z</time></trkpt><trkpt lat="44.3227236" lon="8.4594121"><ele>53.0</ele><time>2026-04-18T13:12:11.268Z</time></trkpt><trkpt lat="44.3226446" lon="8.4596073"><ele>50.25</ele><time>2026-04-18T13:12:12.268Z</time></trkpt><trkpt lat="44.3225773" lon="8.4597943"><ele>47.5</ele><time>2026-04-18T13:12:13.268Z</time></trkpt><trkpt lat="44.3225455" lon="8.4599768"><ele>44.75</ele><time>2026-04-18T13:12:14.268Z</time></trkpt><trkpt lat="44.3225627" lon="8.4601637"><ele>42.0</ele><time>2026-04-18T13:12:15.267Z</time></trkpt><trkpt lat="44.3226198" lon="8.4603471"><ele>41.25</ele><time>2026-04-18T13:12:16.267Z</time></trkpt><trkpt lat="44.3226654" lon="8.4605234"><ele>40.5</ele><time>2026-04-18T13:12:17.267Z</time></trkpt><trkpt lat="44.3226905" lon="8.4606955"><ele>39.75</ele><time>2026-04-18T13:12:18.268Z</time></trkpt><trkpt lat="44.3226618" lon="8.460838"><ele>39.0</ele><time>2026-04-18T13:12:19.268Z</time></trkpt><trkpt lat="44.3225801" lon="8.4609585"><ele>39.0</ele><time>2026-04-18T13:12:20.268Z</time></trkpt><trkpt lat="44.322459" lon="8.4610713"><ele>39.0</ele><time>2026-04-18T13:12:21.268Z</time></trkpt><trkpt lat="44.3223272" lon="8.4611755"><ele>39.0</ele><time>2026-04-18T13:12:22.267Z</time></trkpt><trkpt lat="44.3221997" lon="8.4612741"><ele>39.0</ele><time>2026-04-18T13:12:23.268Z</time></trkpt><trkpt lat="44.3220801" lon="8.4613736"><ele>40.0</ele><time>2026-04-18T13:12:24.268Z</time></trkpt><trkpt lat="44.3219564" lon="8.4614681"><ele>41.0</ele><time>2026-04-18T13:12:25.268Z</time></trkpt><trkpt lat="44.3218384" lon="8.4615602"><ele>42.0</ele><time>2026-04-18T13:12:26.267Z</time></trkpt><trkpt lat="44.3217245" lon="8.4616478"><ele>43.0</ele><time>2026-04-18T13:12:27.268Z</time></trkpt><trkpt lat="44.3216143" lon="8.461736"><ele>43.0</ele><time>2026-04-18T13:12:28.267Z</time></trkpt><trkpt lat="44.3215046" lon="8.4618182"><ele>43.0</ele><time>2026-04-18T13:12:29.268Z</time></trkpt><trkpt lat="44.3214035" lon="8.4619037"><ele>43.0</ele><time>2026-04-18T13:12:30.268Z</time></trkpt><trkpt lat="44.3213152" lon="8.4619962"><ele>43.0</ele><time>2026-04-18T13:12:31.268Z</time></trkpt><trkpt lat="44.3212473" lon="8.4621119"><ele>41.5</ele><time>2026-04-18T13:12:32.268Z</time></trkpt><trkpt lat="44.3211932" lon="8.4622565"><ele>40.0</ele><time>2026-04-18T13:12:33.268Z</time></trkpt><trkpt lat="44.3211637" lon="8.4624156"><ele>38.5</ele><time>2026-04-18T13:12:34.267Z</time></trkpt><trkpt lat="44.3211432" lon="8.4625761"><ele>37.0</ele><time>2026-04-18T13:12:35.268Z</time></trkpt><trkpt lat="44.3211246" lon="8.4627261"><ele>37.0</ele><time>2026-04-18T13:12:36.268Z</time></trkpt><trkpt lat="44.32111" lon="8.462873"><ele>37.0</ele><time>2026-04-18T13:12:37.268Z</time></trkpt><trkpt lat="44.3210943" lon="8.4630257"><ele>37.0</ele><time>2026-04-18T13:12:38.268Z</time></trkpt><trkpt lat="44.3210759" lon="8.4631815"><ele>37.0</ele><time>2026-04-18T13:12:39.268Z</time></trkpt><trkpt lat="44.3210585" lon="8.4633353"><ele>37.0</ele><time>2026-04-18T13:12:40.268Z</time></trkpt><trkpt lat="44.3210414" lon="8.4634885"><ele>36.6</ele><time>2026-04-18T13:12:41.268Z</time></trkpt><trkpt lat="44.3210237" lon="8.4636434"><ele>36.2</ele><time>2026-04-18T13:12:42.267Z</time></trkpt><trkpt lat="44.3210047" lon="8.4637922"><ele>35.8</ele><time>2026-04-18T13:12:43.268Z</time></trkpt><trkpt lat="44.3209832" lon="8.4639405"><ele>35.4</ele><time>2026-04-18T13:12:44.268Z</time></trkpt><trkpt lat="44.3209654" lon="8.4640887"><ele>35.0</ele><time>2026-04-18T13:12:45.268Z</time></trkpt><trkpt lat="44.3209489" lon="8.4642272"><ele>33.4</ele><time>2026-04-18T13:12:46.268Z</time></trkpt><trkpt lat="44.3209366" lon="8.4643689"><ele>31.8</ele><time>2026-04-18T13:12:47.267Z</time></trkpt><trkpt lat="44.3209221" lon="8.4645167"><ele>30.200000000000003</ele><time>2026-04-18T13:12:48.267Z</time></trkpt><trkpt lat="44.320905" lon="8.4646782"><ele>28.6</ele><time>2026-04-18T13:12:49.267Z</time></trkpt><trkpt lat="44.3208837" lon="8.4648392"><ele>27.0</ele><time>2026-04-18T13:12:50.268Z</time></trkpt><trkpt lat="44.3208615" lon="8.4649948"><ele>26.5</ele><time>2026-04-18T13:12:51.268Z</time></trkpt><trkpt lat="44.3208398" lon="8.4651563"><ele>26.0</ele><time>2026-04-18T13:12:52.267Z</time></trkpt><trkpt lat="44.3208204" lon="8.4653245"><ele>25.5</ele><time>2026-04-18T13:12:53.268Z</time></trkpt><trkpt lat="44.3208029" lon="8.46549"><ele>25.0</ele><time>2026-04-18T13:12:54.268Z</time></trkpt><trkpt lat="44.3207838" lon="8.4656724"><ele>25.0</ele><time>2026-04-18T13:12:55.267Z</time></trkpt><trkpt lat="44.3207618" lon="8.4658651"><ele>25.0</ele><time>2026-04-18T13:12:56.267Z</time></trkpt><trkpt lat="44.3207388" lon="8.4660462"><ele>25.0</ele><time>2026-04-18T13:12:57.268Z</time></trkpt><trkpt lat="44.3207151" lon="8.4662019"><ele>25.0</ele><time>2026-04-18T13:12:58.268Z</time></trkpt><trkpt lat="44.320691" lon="8.4663477"><ele>25.0</ele><time>2026-04-18T13:12:59.268Z</time></trkpt><trkpt lat="44.3206718" lon="8.4664868"><ele>25.0</ele><time>2026-04-18T13:13:00.267Z</time></trkpt><trkpt lat="44.3206516" lon="8.4666281"><ele>25.0</ele><time>2026-04-18T13:13:01.267Z</time></trkpt><trkpt lat="44.3206354" lon="8.4667641"><ele>25.0</ele><time>2026-04-18T13:13:02.267Z</time></trkpt><trkpt lat="44.3206155" lon="8.4668958"><ele>25.0</ele><time>2026-04-18T13:13:03.268Z</time></trkpt><trkpt lat="44.3205849" lon="8.4670184"><ele>24.0</ele><time>2026-04-18T13:13:04.268Z</time></trkpt><trkpt lat="44.3205395" lon="8.4671529"><ele>23.0</ele><time>2026-04-18T13:13:05.268Z</time></trkpt><trkpt lat="44.3204783" lon="8.4672812"><ele>22.0</ele><time>2026-04-18T13:13:06.268Z</time></trkpt><trkpt lat="44.3204016" lon="8.4674086"><ele>21.0</ele><time>2026-04-18T13:13:07.268Z</time></trkpt><trkpt lat="44.3203049" lon="8.4675273"><ele>21.0</ele><time>2026-04-18T13:13:08.268Z</time></trkpt><trkpt lat="44.3201946" lon="8.4676386"><ele>21.0</ele><time>2026-04-18T13:13:09.268Z</time></trkpt><trkpt lat="44.3200765" lon="8.4677515"><ele>21.0</ele><time>2026-04-18T13:13:10.268Z</time></trkpt><trkpt lat="44.319944" lon="8.4678549"><ele>21.0</ele><time>2026-04-18T13:13:11.268Z</time></trkpt><trkpt lat="44.3198007" lon="8.467973"><ele>20.0</ele><time>2026-04-18T13:13:12.268Z</time></trkpt><trkpt lat="44.3196617" lon="8.4680875"><ele>19.0</ele><time>2026-04-18T13:13:13.267Z</time></trkpt><trkpt lat="44.319521" lon="8.4682105"><ele>18.0</ele><time>2026-04-18T13:13:14.267Z</time></trkpt><trkpt lat="44.3193692" lon="8.4683326"><ele>18.0</ele><time>2026-04-18T13:13:15.268Z</time></trkpt><trkpt lat="44.3192225" lon="8.4684566"><ele>18.0</ele><time>2026-04-18T13:13:16.268Z</time></trkpt><trkpt lat="44.3190774" lon="8.4685837"><ele>18.0</ele><time>2026-04-18T13:13:17.268Z</time></trkpt><trkpt lat="44.3189332" lon="8.4687027"><ele>17.666666666666668</ele><time>2026-04-18T13:13:18.268Z</time></trkpt><trkpt lat="44.3187871" lon="8.4688232"><ele>17.333333333333336</ele><time>2026-04-18T13:13:19.268Z</time></trkpt><trkpt lat="44.3186436" lon="8.4689452"><ele>17.0</ele><time>2026-04-18T13:13:20.268Z</time></trkpt><trkpt lat="44.318498" lon="8.4690616"><ele>17.0</ele><time>2026-04-18T13:13:21.268Z</time></trkpt><trkpt lat="44.318356" lon="8.4691787"><ele>17.0</ele><time>2026-04-18T13:13:22.268Z</time></trkpt><trkpt lat="44.3182137" lon="8.4692951"><ele>17.0</ele><time>2026-04-18T13:13:23.268Z</time></trkpt><trkpt lat="44.3180703" lon="8.4694185"><ele>17.333333333333336</ele><time>2026-04-18T13:13:24.267Z</time></trkpt><trkpt lat="44.3179269" lon="8.469534"><ele>17.666666666666668</ele><time>2026-04-18T13:13:25.268Z</time></trkpt><trkpt lat="44.3177855" lon="8.4696517"><ele>18.0</ele><time>2026-04-18T13:13:26.268Z</time></trkpt><trkpt lat="44.3176457" lon="8.4697669"><ele>18.0</ele><time>2026-04-18T13:13:27.268Z</time></trkpt><trkpt lat="44.3175124" lon="8.4698828"><ele>18.0</ele><time>2026-04-18T13:13:28.268Z</time></trkpt><trkpt lat="44.3173812" lon="8.4699881"><ele>18.0</ele><time>2026-04-18T13:13:29.268Z</time></trkpt><trkpt lat="44.3172527" lon="8.4701151"><ele>18.5</ele><time>2026-04-18T13:13:30.268Z</time></trkpt><trkpt lat="44.3171371" lon="8.4702214"><ele>19.0</ele><time>2026-04-18T13:13:31.268Z</time></trkpt><trkpt lat="44.3170183" lon="8.4703187"><ele>19.5</ele><time>2026-04-18T13:13:32.268Z</time></trkpt><trkpt lat="44.3168949" lon="8.4704247"><ele>20.0</ele><time>2026-04-18T13:13:33.268Z</time></trkpt><trkpt lat="44.3167644" lon="8.4705296"><ele>20.0</ele><time>2026-04-18T13:13:34.268Z</time></trkpt><trkpt lat="44.3166298" lon="8.470636"><ele>20.0</ele><time>2026-04-18T13:13:35.268Z</time></trkpt><trkpt lat="44.3164954" lon="8.4707426"><ele>20.0</ele><time>2026-04-18T13:13:36.267Z</time></trkpt><trkpt lat="44.3163644" lon="8.470846"><ele>21.666666666666668</ele><time>2026-04-18T13:13:37.268Z</time></trkpt><trkpt lat="44.3162284" lon="8.4709628"><ele>23.333333333333336</ele><time>2026-04-18T13:13:38.267Z</time></trkpt><trkpt lat="44.3160854" lon="8.4710719"><ele>25.0</ele><time>2026-04-18T13:13:39.268Z</time></trkpt><trkpt lat="44.3159324" lon="8.4712272"><ele>22.333333333333336</ele><time>2026-04-18T13:13:40.267Z</time></trkpt><trkpt lat="44.3157865" lon="8.4713459"><ele>19.666666666666668</ele><time>2026-04-18T13:13:41.268Z</time></trkpt><trkpt lat="44.3156462" lon="8.4714437"><ele>17.0</ele><time>2026-04-18T13:13:42.268Z</time></trkpt><trkpt lat="44.3155016" lon="8.4715448"><ele>17.0</ele><time>2026-04-18T13:13:43.268Z</time></trkpt><trkpt lat="44.3153708" lon="8.4716343"><ele>17.0</ele><time>2026-04-18T13:13:44.268Z</time></trkpt><trkpt lat="44.3152397" lon="8.4717183"><ele>17.0</ele><time>2026-04-18T13:13:45.268Z</time></trkpt><trkpt lat="44.315116" lon="8.4717949"><ele>17.0</ele><time>2026-04-18T13:13:46.268Z</time></trkpt><trkpt lat="44.3149996" lon="8.471862"><ele>17.0</ele><time>2026-04-18T13:13:47.268Z</time></trkpt><trkpt lat="44.314887" lon="8.4719226"><ele>17.0</ele><time>2026-04-18T13:13:48.268Z</time></trkpt><trkpt lat="44.3147835" lon="8.4719775"><ele>17.0</ele><time>2026-04-18T13:13:49.268Z</time></trkpt><trkpt lat="44.3146983" lon="8.4720268"><ele>17.0</ele><time>2026-04-18T13:13:50.268Z</time></trkpt><trkpt lat="44.3146265" lon="8.4720608"><ele>17.0</ele><time>2026-04-18T13:13:51.268Z</time></trkpt><trkpt lat="44.3145641" lon="8.4720887"><ele>16.5</ele><time>2026-04-18T13:13:52.267Z</time></trkpt><trkpt lat="44.314492" lon="8.4721286"><ele>16.0</ele><time>2026-04-18T13:13:54.267Z</time></trkpt><trkpt lat="44.3144333" lon="8.4721647"><ele>15.5</ele><time>2026-04-18T13:13:57.268Z</time></trkpt><trkpt lat="44.3143407" lon="8.4722129"><ele>15.0</ele><time>2026-04-18T13:14:00.268Z</time></trkpt><trkpt lat="44.3142786" lon="8.4722442"><ele>14.500000000000002</ele><time>2026-04-18T13:14:02.268Z</time></trkpt><trkpt lat="44.3142004" lon="8.4723124"><ele>14.0</ele><time>2026-04-18T13:14:11.269Z</time></trkpt><trkpt lat="44.314086" lon="8.4723794"><ele>14.000000000000002</ele><time>2026-04-18T13:14:13.269Z</time></trkpt><trkpt lat="44.3140156" lon="8.4724177"><ele>14.0</ele><time>2026-04-18T13:14:14.269Z</time></trkpt><trkpt lat="44.3139447" lon="8.4724571"><ele>14.0</ele><time>2026-04-18T13:14:15.269Z</time></trkpt><trkpt lat="44.3138622" lon="8.4725053"><ele>14.0</ele><time>2026-04-18T13:14:16.269Z</time></trkpt><trkpt lat="44.3137764" lon="8.4725568"><ele>14.000000000000002</ele><time>2026-04-18T13:14:17.269Z</time></trkpt><trkpt lat="44.3136784" lon="8.4726229"><ele>14.0</ele><time>2026-04-18T13:14:18.268Z</time></trkpt><trkpt lat="44.3135619" lon="8.4727063"><ele>13.5</ele><time>2026-04-18T13:14:19.268Z</time></trkpt><trkpt lat="44.3134405" lon="8.472789"><ele>13.0</ele><time>2026-04-18T13:14:20.268Z</time></trkpt><trkpt lat="44.3133007" lon="8.472863"><ele>12.5</ele><time>2026-04-18T13:14:21.269Z</time></trkpt><trkpt lat="44.3131575" lon="8.4729368"><ele>12.0</ele><time>2026-04-18T13:14:22.269Z</time></trkpt><trkpt lat="44.3130185" lon="8.4730181"><ele>12.0</ele><time>2026-04-18T13:14:23.269Z</time></trkpt><trkpt lat="44.312882" lon="8.4730916"><ele>12.0</ele><time>2026-04-18T13:14:24.268Z</time></trkpt><trkpt lat="44.3127395" lon="8.4731601"><ele>12.0</ele><time>2026-04-18T13:14:25.269Z</time></trkpt><trkpt lat="44.3125975" lon="8.4732182"><ele>12.0</ele><time>2026-04-18T13:14:26.269Z</time></trkpt><trkpt lat="44.3124621" lon="8.4732668"><ele>12.0</ele><time>2026-04-18T13:14:27.269Z</time></trkpt><trkpt lat="44.3123301" lon="8.4733075"><ele>12.0</ele><time>2026-04-18T13:14:28.269Z</time></trkpt><trkpt lat="44.3122011" lon="8.4733513"><ele>12.0</ele><time>2026-04-18T13:14:29.269Z</time></trkpt><trkpt lat="44.3120693" lon="8.4733942"><ele>12.0</ele><time>2026-04-18T13:14:30.268Z</time></trkpt><trkpt lat="44.3119387" lon="8.4734429"><ele>12.0</ele><time>2026-04-18T13:14:31.269Z</time></trkpt><trkpt lat="44.311804" lon="8.4735021"><ele>12.0</ele><time>2026-04-18T13:14:32.269Z</time></trkpt><trkpt lat="44.3116706" lon="8.4735541"><ele>12.0</ele><time>2026-04-18T13:14:33.269Z</time></trkpt><trkpt lat="44.3115349" lon="8.4736079"><ele>12.0</ele><time>2026-04-18T13:14:34.268Z</time></trkpt><trkpt lat="44.3113996" lon="8.4736481"><ele>12.0</ele><time>2026-04-18T13:14:35.269Z</time></trkpt><trkpt lat="44.3112812" lon="8.4737022"><ele>12.0</ele><time>2026-04-18T13:14:36.268Z</time></trkpt><trkpt lat="44.3111646" lon="8.4737506"><ele>12.0</ele><time>2026-04-18T13:14:37.269Z</time></trkpt><trkpt lat="44.3110501" lon="8.4737984"><ele>12.0</ele><time>2026-04-18T13:14:38.269Z</time></trkpt><trkpt lat="44.3109382" lon="8.4738371"><ele>12.0</ele><time>2026-04-18T13:14:39.269Z</time></trkpt><trkpt lat="44.3108409" lon="8.4738715"><ele>12.0</ele><time>2026-04-18T13:14:40.268Z</time></trkpt><trkpt lat="44.3107604" lon="8.4738946"><ele>12.0</ele><time>2026-04-18T13:14:41.268Z</time></trkpt><trkpt lat="44.3106942" lon="8.4739236"><ele>12.0</ele><time>2026-04-18T13:14:42.269Z</time></trkpt><trkpt lat="44.3105981" lon="8.4739636"><ele>12.0</ele><time>2026-04-18T13:14:44.269Z</time></trkpt><trkpt lat="44.3105311" lon="8.4739633"><ele>12.0</ele><time>2026-04-18T13:14:53.269Z</time></trkpt><trkpt lat="44.3104654" lon="8.4739966"><ele>12.0</ele><time>2026-04-18T13:14:55.269Z</time></trkpt><trkpt lat="44.3103557" lon="8.4740357"><ele>12.0</ele><time>2026-04-18T13:14:57.269Z</time></trkpt><trkpt lat="44.3102826" lon="8.474063"><ele>12.0</ele><time>2026-04-18T13:14:58.268Z</time></trkpt><trkpt lat="44.3102161" lon="8.4741123"><ele>12.0</ele><time>2026-04-18T13:14:59.268Z</time></trkpt><trkpt lat="44.3101341" lon="8.4741365"><ele>12.0</ele><time>2026-04-18T13:15:00.268Z</time></trkpt><trkpt lat="44.3100462" lon="8.4741493"><ele>12.0</ele><time>2026-04-18T13:15:01.268Z</time></trkpt><trkpt lat="44.3099602" lon="8.4741727"><ele>12.0</ele><time>2026-04-18T13:15:02.269Z</time></trkpt><trkpt lat="44.3098682" lon="8.4741978"><ele>12.0</ele><time>2026-04-18T13:15:03.269Z</time></trkpt><trkpt lat="44.3097647" lon="8.4742228"><ele>12.0</ele><time>2026-04-18T13:15:04.268Z</time></trkpt><trkpt lat="44.3096541" lon="8.4742514"><ele>12.0</ele><time>2026-04-18T13:15:05.269Z</time></trkpt><trkpt lat="44.309542" lon="8.4742815"><ele>12.0</ele><time>2026-04-18T13:15:06.269Z</time></trkpt><trkpt lat="44.3094292" lon="8.4743147"><ele>13.5</ele><time>2026-04-18T13:15:07.268Z</time></trkpt><trkpt lat="44.3093145" lon="8.4743517"><ele>15.0</ele><time>2026-04-18T13:15:08.269Z</time></trkpt><trkpt lat="44.3092017" lon="8.4743892"><ele>16.5</ele><time>2026-04-18T13:15:09.268Z</time></trkpt><trkpt lat="44.3090865" lon="8.4744214"><ele>18.0</ele><time>2026-04-18T13:15:10.269Z</time></trkpt><trkpt lat="44.3089608" lon="8.4744585"><ele>16.75</ele><time>2026-04-18T13:15:11.269Z</time></trkpt><trkpt lat="44.3088261" lon="8.4745048"><ele>15.5</ele><time>2026-04-18T13:15:12.269Z</time></trkpt><trkpt lat="44.3086889" lon="8.4745492"><ele>14.25</ele><time>2026-04-18T13:15:13.269Z</time></trkpt><trkpt lat="44.3085554" lon="8.4745836"><ele>13.0</ele><time>2026-04-18T13:15:14.269Z</time></trkpt><trkpt lat="44.3084282" lon="8.4746237"><ele>12.5</ele><time>2026-04-18T13:15:15.268Z</time></trkpt><trkpt lat="44.3083028" lon="8.4746689"><ele>12.0</ele><time>2026-04-18T13:15:16.269Z</time></trkpt><trkpt lat="44.3081824" lon="8.474711"><ele>11.5</ele><time>2026-04-18T13:15:17.268Z</time></trkpt><trkpt lat="44.3080608" lon="8.4747564"><ele>11.0</ele><time>2026-04-18T13:15:18.268Z</time></trkpt><trkpt lat="44.3079373" lon="8.474798"><ele>11.0</ele><time>2026-04-18T13:15:19.269Z</time></trkpt><trkpt lat="44.3078169" lon="8.4748353"><ele>11.0</ele><time>2026-04-18T13:15:20.268Z</time></trkpt><trkpt lat="44.3076976" lon="8.4748726"><ele>11.0</ele><time>2026-04-18T13:15:21.269Z</time></trkpt><trkpt lat="44.3075706" lon="8.4749202"><ele>11.0</ele><time>2026-04-18T13:15:22.269Z</time></trkpt><trkpt lat="44.307435" lon="8.4749647"><ele>11.0</ele><time>2026-04-18T13:15:23.269Z</time></trkpt><trkpt lat="44.3073025" lon="8.475002"><ele>11.0</ele><time>2026-04-18T13:15:24.269Z</time></trkpt><trkpt lat="44.3071695" lon="8.4750392"><ele>11.0</ele><time>2026-04-18T13:15:25.269Z</time></trkpt><trkpt lat="44.3070303" lon="8.475084"><ele>11.0</ele><time>2026-04-18T13:15:26.269Z</time></trkpt><trkpt lat="44.3068977" lon="8.4751196"><ele>10.5</ele><time>2026-04-18T13:15:27.269Z</time></trkpt><trkpt lat="44.3067669" lon="8.4751628"><ele>10.0</ele><time>2026-04-18T13:15:28.269Z</time></trkpt><trkpt lat="44.306636" lon="8.4752087"><ele>9.5</ele><time>2026-04-18T13:15:29.268Z</time></trkpt><trkpt lat="44.3065005" lon="8.4752497"><ele>9.0</ele><time>2026-04-18T13:15:30.268Z</time></trkpt><trkpt lat="44.3063665" lon="8.4752931"><ele>9.25</ele><time>2026-04-18T13:15:31.269Z</time></trkpt><trkpt lat="44.3062281" lon="8.4753348"><ele>9.5</ele><time>2026-04-18T13:15:32.269Z</time></trkpt><trkpt lat="44.3060937" lon="8.4753764"><ele>9.75</ele><time>2026-04-18T13:15:33.269Z</time></trkpt><trkpt lat="44.3059587" lon="8.4754162"><ele>10.0</ele><time>2026-04-18T13:15:34.268Z</time></trkpt><trkpt lat="44.3058314" lon="8.475455"><ele>10.0</ele><time>2026-04-18T13:15:35.269Z</time></trkpt><trkpt lat="44.3057117" lon="8.4754958"><ele>10.0</ele><time>2026-04-18T13:15:36.269Z</time></trkpt><trkpt lat="44.3056084" lon="8.4755351"><ele>10.0</ele><time>2026-04-18T13:15:37.269Z</time></trkpt><trkpt lat="44.305508" lon="8.4755626"><ele>10.0</ele><time>2026-04-18T13:15:38.268Z</time></trkpt><trkpt lat="44.3054173" lon="8.4755953"><ele>10.0</ele><time>2026-04-18T13:15:39.269Z</time></trkpt><trkpt lat="44.3053367" lon="8.4756154"><ele>10.8</ele><time>2026-04-18T13:15:40.269Z</time></trkpt><trkpt lat="44.3051841" lon="8.4756312"><ele>11.6</ele><time>2026-04-18T13:15:42.269Z</time></trkpt><trkpt lat="44.3050884" lon="8.4756807"><ele>12.399999999999999</ele><time>2026-04-18T13:15:44.269Z</time></trkpt><trkpt lat="44.3050182" lon="8.4756937"><ele>13.2</ele><time>2026-04-18T13:15:46.269Z</time></trkpt><trkpt lat="44.3049438" lon="8.4757267"><ele>14.0</ele><time>2026-04-18T13:16:09.269Z</time></trkpt><trkpt lat="44.3048448" lon="8.4757636"><ele>14.0</ele><time>2026-04-18T13:16:11.269Z</time></trkpt><trkpt lat="44.3047783" lon="8.4757778"><ele>13.999999999999998</ele><time>2026-04-18T13:16:12.268Z</time></trkpt><trkpt lat="44.3046476" lon="8.4758199"><ele>13.999999999999998</ele><time>2026-04-18T13:16:14.269Z</time></trkpt><trkpt lat="44.3045611" lon="8.4758435"><ele>14.0</ele><time>2026-04-18T13:16:15.269Z</time></trkpt><trkpt lat="44.3044591" lon="8.4758654"><ele>14.0</ele><time>2026-04-18T13:16:16.269Z</time></trkpt><trkpt lat="44.3043495" lon="8.475892"><ele>13.833333333333334</ele><time>2026-04-18T13:16:17.269Z</time></trkpt><trkpt lat="44.3042473" lon="8.4759188"><ele>13.666666666666668</ele><time>2026-04-18T13:16:18.268Z</time></trkpt><trkpt lat="44.3041578" lon="8.4759449"><ele>13.5</ele><time>2026-04-18T13:16:19.269Z</time></trkpt><trkpt lat="44.3040773" lon="8.4759696"><ele>13.333333333333332</ele><time>2026-04-18T13:16:20.269Z</time></trkpt><trkpt lat="44.3040095" lon="8.4759885"><ele>13.166666666666666</ele><time>2026-04-18T13:16:21.268Z</time></trkpt><trkpt lat="44.3039186" lon="8.4760156"><ele>13.0</ele><time>2026-04-18T13:16:23.269Z</time></trkpt><trkpt lat="44.3038474" lon="8.4760761"><ele>13.0</ele><time>2026-04-18T13:17:12.27Z</time></trkpt><trkpt lat="44.3037707" lon="8.4760434"><ele>13.0</ele><time>2026-04-18T13:17:14.27Z</time></trkpt><trkpt lat="44.3037339" lon="8.4758656"><ele>13.0</ele><time>2026-04-18T13:17:16.27Z</time></trkpt><trkpt lat="44.3037103" lon="8.4757294"><ele>13.0</ele><time>2026-04-18T13:17:17.269Z</time></trkpt><trkpt lat="44.3036851" lon="8.4755672"><ele>13.0</ele><time>2026-04-18T13:17:18.27Z</time></trkpt><trkpt lat="44.3036607" lon="8.475403"><ele>14.0</ele><time>2026-04-18T13:17:19.27Z</time></trkpt><trkpt lat="44.3036339" lon="8.4752264"><ele>15.0</ele><time>2026-04-18T13:17:20.269Z</time></trkpt><trkpt lat="44.3035975" lon="8.4750392"><ele>16.0</ele><time>2026-04-18T13:17:21.27Z</time></trkpt><trkpt lat="44.3035585" lon="8.4748462"><ele>17.0</ele><time>2026-04-18T13:17:22.27Z</time></trkpt><trkpt lat="44.3035151" lon="8.4746327"><ele>16.0</ele><time>2026-04-18T13:17:23.27Z</time></trkpt><trkpt lat="44.3034637" lon="8.4744318"><ele>15.0</ele><time>2026-04-18T13:17:24.27Z</time></trkpt><trkpt lat="44.303423" lon="8.4742306"><ele>14.0</ele><time>2026-04-18T13:17:25.27Z</time></trkpt><trkpt lat="44.3033744" lon="8.4740231"><ele>14.0</ele><time>2026-04-18T13:17:26.27Z</time></trkpt><trkpt lat="44.3033341" lon="8.4738005"><ele>14.0</ele><time>2026-04-18T13:17:27.27Z</time></trkpt><trkpt lat="44.3032921" lon="8.4735703"><ele>14.0</ele><time>2026-04-18T13:17:28.27Z</time></trkpt><trkpt lat="44.3032459" lon="8.4733383"><ele>14.0</ele><time>2026-04-18T13:17:29.27Z</time></trkpt><trkpt lat="44.303199" lon="8.4731033"><ele>14.0</ele><time>2026-04-18T13:17:30.27Z</time></trkpt><trkpt lat="44.3031497" lon="8.4728727"><ele>14.0</ele><time>2026-04-18T13:17:31.27Z</time></trkpt><trkpt lat="44.3030995" lon="8.4726379"><ele>13.666666666666668</ele><time>2026-04-18T13:17:32.27Z</time></trkpt><trkpt lat="44.303048" lon="8.4724151"><ele>13.333333333333332</ele><time>2026-04-18T13:17:33.27Z</time></trkpt><trkpt lat="44.3030006" lon="8.4722057"><ele>13.0</ele><time>2026-04-18T13:17:34.27Z</time></trkpt><trkpt lat="44.3029622" lon="8.4720102"><ele>13.5</ele><time>2026-04-18T13:17:35.27Z</time></trkpt><trkpt lat="44.3029254" lon="8.4718344"><ele>14.0</ele><time>2026-04-18T13:17:36.27Z</time></trkpt><trkpt lat="44.3028987" lon="8.4716723"><ele>14.5</ele><time>2026-04-18T13:17:37.27Z</time></trkpt><trkpt lat="44.3028684" lon="8.4715297"><ele>15.0</ele><time>2026-04-18T13:17:38.27Z</time></trkpt><trkpt lat="44.302838" lon="8.4713732"><ele>15.2</ele><time>2026-04-18T13:17:39.27Z</time></trkpt><trkpt lat="44.302803" lon="8.4712156"><ele>15.4</ele><time>2026-04-18T13:17:40.27Z</time></trkpt><trkpt lat="44.3027681" lon="8.4710585"><ele>15.600000000000001</ele><time>2026-04-18T13:17:41.27Z</time></trkpt><trkpt lat="44.3027375" lon="8.4709163"><ele>15.8</ele><time>2026-04-18T13:17:42.27Z</time></trkpt><trkpt lat="44.3027076" lon="8.4707815"><ele>16.0</ele><time>2026-04-18T13:17:43.27Z</time></trkpt><trkpt lat="44.3026827" lon="8.4706538"><ele>16.0</ele><time>2026-04-18T13:17:44.269Z</time></trkpt><trkpt lat="44.3026624" lon="8.4705378"><ele>15.999999999999998</ele><time>2026-04-18T13:17:45.27Z</time></trkpt><trkpt lat="44.3026613" lon="8.4704323"><ele>16.0</ele><time>2026-04-18T13:17:46.27Z</time></trkpt><trkpt lat="44.3026704" lon="8.4703308"><ele>16.0</ele><time>2026-04-18T13:17:47.269Z</time></trkpt><trkpt lat="44.3026802" lon="8.4702304"><ele>15.999999999999998</ele><time>2026-04-18T13:17:48.27Z</time></trkpt><trkpt lat="44.302675" lon="8.4701327"><ele>16.0</ele><time>2026-04-18T13:17:49.27Z</time></trkpt><trkpt lat="44.3026578" lon="8.4700441"><ele>16.0</ele><time>2026-04-18T13:17:50.27Z</time></trkpt><trkpt lat="44.3026395" lon="8.4699282"><ele>15.666666666666666</ele><time>2026-04-18T13:17:52.27Z</time></trkpt><trkpt lat="44.3026363" lon="8.469839"><ele>15.333333333333332</ele><time>2026-04-18T13:17:54.27Z</time></trkpt><trkpt lat="44.3026413" lon="8.4697091"><ele>15.0</ele><time>2026-04-18T13:17:56.269Z</time></trkpt><trkpt lat="44.3026526" lon="8.4695837"><ele>14.666666666666668</ele><time>2026-04-18T13:17:57.27Z</time></trkpt><trkpt lat="44.3026666" lon="8.469458"><ele>14.333333333333334</ele><time>2026-04-18T13:17:58.27Z</time></trkpt><trkpt lat="44.3026778" lon="8.4693366"><ele>14.0</ele><time>2026-04-18T13:17:59.27Z</time></trkpt><trkpt lat="44.3026914" lon="8.4692277"><ele>13.500000000000002</ele><time>2026-04-18T13:18:00.27Z</time></trkpt><trkpt lat="44.3027047" lon="8.4691412"><ele>13.0</ele><time>2026-04-18T13:18:01.27Z</time></trkpt><trkpt lat="44.3027227" lon="8.4690481"><ele>12.5</ele><time>2026-04-18T13:18:02.27Z</time></trkpt><trkpt lat="44.3027453" lon="8.4689492"><ele>12.0</ele><time>2026-04-18T13:18:05.269Z</time></trkpt><trkpt lat="44.3026707" lon="8.4688729"><ele>11.5</ele><time>2026-04-18T13:18:07.27Z</time></trkpt><trkpt lat="44.302533" lon="8.4688522"><ele>11.0</ele><time>2026-04-18T13:18:09.27Z</time></trkpt><trkpt lat="44.3024362" lon="8.4688399"><ele>11.0</ele><time>2026-04-18T13:18:10.27Z</time></trkpt><trkpt lat="44.3023315" lon="8.4688162"><ele>11.0</ele><time>2026-04-18T13:18:11.27Z</time></trkpt><trkpt lat="44.3022156" lon="8.4687885"><ele>11.0</ele><time>2026-04-18T13:18:12.27Z</time></trkpt><trkpt lat="44.3020978" lon="8.4687551"><ele>11.0</ele><time>2026-04-18T13:18:13.27Z</time></trkpt><trkpt lat="44.301981" lon="8.4686952"><ele>11.0</ele><time>2026-04-18T13:18:14.269Z</time></trkpt><trkpt lat="44.3018676" lon="8.4685974"><ele>11.0</ele><time>2026-04-18T13:18:15.27Z</time></trkpt><trkpt lat="44.3017613" lon="8.4684621"><ele>11.0</ele><time>2026-04-18T13:18:16.27Z</time></trkpt><trkpt lat="44.3016535" lon="8.4682985"><ele>11.0</ele><time>2026-04-18T13:18:17.27Z</time></trkpt><trkpt lat="44.3015475" lon="8.4680998"><ele>11.0</ele><time>2026-04-18T13:18:18.269Z</time></trkpt><trkpt lat="44.3014293" lon="8.4678979"><ele>11.0</ele><time>2026-04-18T13:18:19.27Z</time></trkpt><trkpt lat="44.3013" lon="8.4676826"><ele>11.0</ele><time>2026-04-18T13:18:20.27Z</time></trkpt><trkpt lat="44.3011734" lon="8.4674641"><ele>11.0</ele><time>2026-04-18T13:18:21.27Z</time></trkpt><trkpt lat="44.3010489" lon="8.4672418"><ele>11.0</ele><time>2026-04-18T13:18:22.269Z</time></trkpt><trkpt lat="44.300923" lon="8.4670098"><ele>11.0</ele><time>2026-04-18T13:18:23.27Z</time></trkpt><trkpt lat="44.3007989" lon="8.466771"><ele>10.666666666666666</ele><time>2026-04-18T13:18:24.27Z</time></trkpt><trkpt lat="44.3006772" lon="8.4665339"><ele>10.333333333333334</ele><time>2026-04-18T13:18:25.27Z</time></trkpt><trkpt lat="44.3005442" lon="8.4663042"><ele>10.0</ele><time>2026-04-18T13:18:26.27Z</time></trkpt><trkpt lat="44.3004047" lon="8.4660802"><ele>9.666666666666668</ele><time>2026-04-18T13:18:27.27Z</time></trkpt><trkpt lat="44.3002568" lon="8.465864"><ele>9.333333333333334</ele><time>2026-04-18T13:18:28.27Z</time></trkpt><trkpt lat="44.3001106" lon="8.4656467"><ele>9.0</ele><time>2026-04-18T13:18:29.269Z</time></trkpt><trkpt lat="44.2999731" lon="8.4654246"><ele>9.0</ele><time>2026-04-18T13:18:30.27Z</time></trkpt><trkpt lat="44.2998401" lon="8.4652045"><ele>9.0</ele><time>2026-04-18T13:18:31.269Z</time></trkpt><trkpt lat="44.2997142" lon="8.4649781"><ele>9.0</ele><time>2026-04-18T13:18:32.269Z</time></trkpt><trkpt lat="44.2995888" lon="8.4647538"><ele>8.666666666666666</ele><time>2026-04-18T13:18:33.269Z</time></trkpt><trkpt lat="44.2994695" lon="8.4645489"><ele>8.333333333333332</ele><time>2026-04-18T13:18:34.27Z</time></trkpt><trkpt lat="44.2993587" lon="8.4643592"><ele>8.0</ele><time>2026-04-18T13:18:35.27Z</time></trkpt><trkpt lat="44.2992542" lon="8.4641762"><ele>8.0</ele><time>2026-04-18T13:18:36.27Z</time></trkpt><trkpt lat="44.2991528" lon="8.4640027"><ele>8.0</ele><time>2026-04-18T13:18:37.27Z</time></trkpt><trkpt lat="44.2990555" lon="8.4638413"><ele>8.0</ele><time>2026-04-18T13:18:38.27Z</time></trkpt><trkpt lat="44.2989714" lon="8.4636913"><ele>8.0</ele><time>2026-04-18T13:18:39.269Z</time></trkpt><trkpt lat="44.2988989" lon="8.4635476"><ele>8.0</ele><time>2026-04-18T13:18:40.27Z</time></trkpt><trkpt lat="44.2988274" lon="8.463415"><ele>8.0</ele><time>2026-04-18T13:18:41.27Z</time></trkpt><trkpt lat="44.2987597" lon="8.4632972"><ele>8.0</ele><time>2026-04-18T13:18:42.27Z</time></trkpt><trkpt lat="44.2987174" lon="8.4631754"><ele>8.0</ele><time>2026-04-18T13:18:43.27Z</time></trkpt><trkpt lat="44.2987063" lon="8.4630578"><ele>8.0</ele><time>2026-04-18T13:18:44.27Z</time></trkpt><trkpt lat="44.298718" lon="8.4629675"><ele>8.166666666666666</ele><time>2026-04-18T13:18:45.27Z</time></trkpt><trkpt lat="44.2987536" lon="8.462868"><ele>8.333333333333332</ele><time>2026-04-18T13:18:47.27Z</time></trkpt><trkpt lat="44.2988238" lon="8.4628166"><ele>8.5</ele><time>2026-04-18T13:18:52.27Z</time></trkpt><trkpt lat="44.2989232" lon="8.4627589"><ele>8.666666666666666</ele><time>2026-04-18T13:18:57.27Z</time></trkpt><trkpt lat="44.2990025" lon="8.4626466"><ele>8.833333333333334</ele><time>2026-04-18T13:18:59.269Z</time></trkpt><trkpt lat="44.2990234" lon="8.4625583"><ele>9.0</ele><time>2026-04-18T13:19:00.27Z</time></trkpt><trkpt lat="44.2989884" lon="8.4624422"><ele>9.0</ele><time>2026-04-18T13:19:02.27Z</time></trkpt><trkpt lat="44.2988874" lon="8.4623732"><ele>9.0</ele><time>2026-04-18T13:19:04.27Z</time></trkpt><trkpt lat="44.2988323" lon="8.4623155"><ele>9.0</ele><time>2026-04-18T13:19:05.27Z</time></trkpt><trkpt lat="44.2987852" lon="8.4622523"><ele>9.0</ele><time>2026-04-18T13:19:06.269Z</time></trkpt><trkpt lat="44.2987362" lon="8.4621713"><ele>9.0</ele><time>2026-04-18T13:19:07.27Z</time></trkpt><trkpt lat="44.2986923" lon="8.4620682"><ele>9.0</ele><time>2026-04-18T13:19:08.269Z</time></trkpt><trkpt lat="44.2986531" lon="8.4619518"><ele>9.0</ele><time>2026-04-18T13:19:09.269Z</time></trkpt><trkpt lat="44.2986026" lon="8.4618184"><ele>9.0</ele><time>2026-04-18T13:19:10.27Z</time></trkpt><trkpt lat="44.2985446" lon="8.4616575"><ele>9.0</ele><time>2026-04-18T13:19:11.27Z</time></trkpt><trkpt lat="44.2984862" lon="8.4614753"><ele>9.0</ele><time>2026-04-18T13:19:12.269Z</time></trkpt><trkpt lat="44.2984277" lon="8.4612857"><ele>9.0</ele><time>2026-04-18T13:19:13.27Z</time></trkpt><trkpt lat="44.2983667" lon="8.4611021"><ele>9.0</ele><time>2026-04-18T13:19:14.27Z</time></trkpt><trkpt lat="44.2983085" lon="8.4609235"><ele>9.0</ele><time>2026-04-18T13:19:15.27Z</time></trkpt><trkpt lat="44.2982448" lon="8.4607569"><ele>9.0</ele><time>2026-04-18T13:19:16.27Z</time></trkpt><trkpt lat="44.2981809" lon="8.460596"><ele>9.0</ele><time>2026-04-18T13:19:17.27Z</time></trkpt><trkpt lat="44.298125" lon="8.4604561"><ele>9.0</ele><time>2026-04-18T13:19:18.27Z</time></trkpt><trkpt lat="44.2980697" lon="8.4603175"><ele>9.0</ele><time>2026-04-18T13:19:19.27Z</time></trkpt><trkpt lat="44.2980108" lon="8.4601758"><ele>9.0</ele><time>2026-04-18T13:19:20.269Z</time></trkpt><trkpt lat="44.2979462" lon="8.4600335"><ele>9.0</ele><time>2026-04-18T13:19:21.269Z</time></trkpt><trkpt lat="44.2978861" lon="8.459898"><ele>9.0</ele><time>2026-04-18T13:19:22.27Z</time></trkpt><trkpt lat="44.2978198" lon="8.4597607"><ele>9.0</ele><time>2026-04-18T13:19:23.27Z</time></trkpt><trkpt lat="44.2977511" lon="8.4596283"><ele>9.0</ele><time>2026-04-18T13:19:24.27Z</time></trkpt><trkpt lat="44.2976867" lon="8.4594965"><ele>9.0</ele><time>2026-04-18T13:19:25.27Z</time></trkpt><trkpt lat="44.2976144" lon="8.4593747"><ele>9.0</ele><time>2026-04-18T13:19:26.27Z</time></trkpt><trkpt lat="44.2975487" lon="8.4592547"><ele>9.0</ele><time>2026-04-18T13:19:27.27Z</time></trkpt><trkpt lat="44.297486" lon="8.4591415"><ele>9.0</ele><time>2026-04-18T13:19:28.27Z</time></trkpt><trkpt lat="44.2974283" lon="8.4590418"><ele>9.0</ele><time>2026-04-18T13:19:29.269Z</time></trkpt><trkpt lat="44.2973732" lon="8.4589508"><ele>9.0</ele><time>2026-04-18T13:19:30.27Z</time></trkpt><trkpt lat="44.2973199" lon="8.4588569"><ele>9.0</ele><time>2026-04-18T13:19:31.27Z</time></trkpt><trkpt lat="44.2972641" lon="8.4587524"><ele>9.0</ele><time>2026-04-18T13:19:32.27Z</time></trkpt><trkpt lat="44.2972037" lon="8.4586413"><ele>9.0</ele><time>2026-04-18T13:19:33.27Z</time></trkpt><trkpt lat="44.2971456" lon="8.4585447"><ele>9.0</ele><time>2026-04-18T13:19:34.269Z</time></trkpt><trkpt lat="44.2970902" lon="8.4584452"><ele>9.25</ele><time>2026-04-18T13:19:35.27Z</time></trkpt><trkpt lat="44.2970226" lon="8.4583356"><ele>9.5</ele><time>2026-04-18T13:19:36.269Z</time></trkpt><trkpt lat="44.296942" lon="8.4582062"><ele>9.75</ele><time>2026-04-18T13:19:37.271Z</time></trkpt><trkpt lat="44.2968517" lon="8.4580631"><ele>10.0</ele><time>2026-04-18T13:19:38.271Z</time></trkpt><trkpt lat="44.2967635" lon="8.4579176"><ele>9.6</ele><time>2026-04-18T13:19:39.271Z</time></trkpt><trkpt lat="44.2966823" lon="8.4577856"><ele>9.2</ele><time>2026-04-18T13:19:40.271Z</time></trkpt><trkpt lat="44.2966154" lon="8.4576699"><ele>8.8</ele><time>2026-04-18T13:19:41.271Z</time></trkpt><trkpt lat="44.2965646" lon="8.4575726"><ele>8.4</ele><time>2026-04-18T13:19:42.271Z</time></trkpt><trkpt lat="44.2965209" lon="8.4574935"><ele>8.0</ele><time>2026-04-18T13:19:43.271Z</time></trkpt><trkpt lat="44.2964811" lon="8.4574203"><ele>7.999999999999999</ele><time>2026-04-18T13:19:44.27Z</time></trkpt><trkpt lat="44.2964484" lon="8.4573362"><ele>8.0</ele><time>2026-04-18T13:19:45.271Z</time></trkpt><trkpt lat="44.2964281" lon="8.457246"><ele>8.0</ele><time>2026-04-18T13:19:46.271Z</time></trkpt><trkpt lat="44.2964196" lon="8.4571584"><ele>8.0</ele><time>2026-04-18T13:19:47.271Z</time></trkpt><trkpt lat="44.2964015" lon="8.4569767"><ele>7.999999999999999</ele><time>2026-04-18T13:19:49.27Z</time></trkpt><trkpt lat="44.2963972" lon="8.4568632"><ele>8.0</ele><time>2026-04-18T13:19:50.27Z</time></trkpt><trkpt lat="44.296388" lon="8.4567433"><ele>7.999999999999999</ele><time>2026-04-18T13:19:51.271Z</time></trkpt><trkpt lat="44.2963692" lon="8.4566371"><ele>8.0</ele><time>2026-04-18T13:19:52.271Z</time></trkpt><trkpt lat="44.2963406" lon="8.4565397"><ele>8.0</ele><time>2026-04-18T13:19:53.271Z</time></trkpt><trkpt lat="44.2963038" lon="8.456461"><ele>8.0</ele><time>2026-04-18T13:19:54.271Z</time></trkpt><trkpt lat="44.2962189" lon="8.4563485"><ele>7.999999999999999</ele><time>2026-04-18T13:19:56.27Z</time></trkpt><trkpt lat="44.2961537" lon="8.4563134"><ele>8.0</ele><time>2026-04-18T13:19:57.271Z</time></trkpt><trkpt lat="44.2960682" lon="8.4562797"><ele>8.0</ele><time>2026-04-18T13:19:58.271Z</time></trkpt><trkpt lat="44.2959749" lon="8.456273"><ele>8.0</ele><time>2026-04-18T13:19:59.27Z</time></trkpt><trkpt lat="44.2958722" lon="8.4562635"><ele>8.0</ele><time>2026-04-18T13:20:00.271Z</time></trkpt><trkpt lat="44.2957949" lon="8.4561897"><ele>8.0</ele><time>2026-04-18T13:20:01.271Z</time></trkpt><trkpt lat="44.2957166" lon="8.4560968"><ele>8.0</ele><time>2026-04-18T13:20:02.271Z</time></trkpt><trkpt lat="44.2956539" lon="8.4559734"><ele>7.999999999999999</ele><time>2026-04-18T13:20:03.271Z</time></trkpt><trkpt lat="44.2955966" lon="8.4558778"><ele>8.0</ele><time>2026-04-18T13:20:04.271Z</time></trkpt><trkpt lat="44.2955451" lon="8.4557896"><ele>8.0</ele><time>2026-04-18T13:20:05.271Z</time></trkpt><trkpt lat="44.2954937" lon="8.4557097"><ele>8.0</ele><time>2026-04-18T13:20:06.27Z</time></trkpt><trkpt lat="44.2954479" lon="8.4556281"><ele>7.999999999999999</ele><time>2026-04-18T13:20:07.271Z</time></trkpt><trkpt lat="44.2953942" lon="8.4555394"><ele>8.0</ele><time>2026-04-18T13:20:08.271Z</time></trkpt><trkpt lat="44.2953363" lon="8.4554493"><ele>8.166666666666666</ele><time>2026-04-18T13:20:09.271Z</time></trkpt><trkpt lat="44.2952678" lon="8.4553796"><ele>8.333333333333332</ele><time>2026-04-18T13:20:10.271Z</time></trkpt><trkpt lat="44.2951954" lon="8.4553063"><ele>8.5</ele><time>2026-04-18T13:20:11.271Z</time></trkpt><trkpt lat="44.2951271" lon="8.4552312"><ele>8.666666666666666</ele><time>2026-04-18T13:20:12.271Z</time></trkpt><trkpt lat="44.2950681" lon="8.4551522"><ele>8.833333333333334</ele><time>2026-04-18T13:20:13.271Z</time></trkpt><trkpt lat="44.2950025" lon="8.4550694"><ele>9.0</ele><time>2026-04-18T13:20:14.27Z</time></trkpt><trkpt lat="44.2949396" lon="8.45498"><ele>9.0</ele><time>2026-04-18T13:20:15.271Z</time></trkpt><trkpt lat="44.2948829" lon="8.4548896"><ele>9.0</ele><time>2026-04-18T13:20:16.271Z</time></trkpt><trkpt lat="44.2948245" lon="8.4547909"><ele>9.0</ele><time>2026-04-18T13:20:17.271Z</time></trkpt><trkpt lat="44.29477" lon="8.4546929"><ele>9.0</ele><time>2026-04-18T13:20:18.271Z</time></trkpt><trkpt lat="44.294716" lon="8.4545915"><ele>9.0</ele><time>2026-04-18T13:20:19.271Z</time></trkpt><trkpt lat="44.2946576" lon="8.4544901"><ele>9.2</ele><time>2026-04-18T13:20:20.271Z</time></trkpt><trkpt lat="44.2945931" lon="8.4543844"><ele>9.4</ele><time>2026-04-18T13:20:21.271Z</time></trkpt><trkpt lat="44.29453" lon="8.4542671"><ele>9.6</ele><time>2026-04-18T13:20:22.271Z</time></trkpt><trkpt lat="44.2944712" lon="8.454145"><ele>9.8</ele><time>2026-04-18T13:20:23.271Z</time></trkpt><trkpt lat="44.2944149" lon="8.4540196"><ele>10.0</ele><time>2026-04-18T13:20:24.27Z</time></trkpt><trkpt lat="44.2943558" lon="8.4538893"><ele>9.8</ele><time>2026-04-18T13:20:25.271Z</time></trkpt><trkpt lat="44.2943054" lon="8.453757"><ele>9.6</ele><time>2026-04-18T13:20:26.27Z</time></trkpt><trkpt lat="44.2942566" lon="8.4536332"><ele>9.4</ele><time>2026-04-18T13:20:27.271Z</time></trkpt><trkpt lat="44.2942134" lon="8.453515"><ele>9.2</ele><time>2026-04-18T13:20:28.271Z</time></trkpt><trkpt lat="44.294162" lon="8.4533953"><ele>9.0</ele><time>2026-04-18T13:20:29.271Z</time></trkpt><trkpt lat="44.2941026" lon="8.4532743"><ele>9.0</ele><time>2026-04-18T13:20:30.271Z</time></trkpt><trkpt lat="44.2940392" lon="8.4531444"><ele>9.0</ele><time>2026-04-18T13:20:31.271Z</time></trkpt><trkpt lat="44.2939752" lon="8.4530095"><ele>9.0</ele><time>2026-04-18T13:20:32.27Z</time></trkpt><trkpt lat="44.2939104" lon="8.452884"><ele>9.0</ele><time>2026-04-18T13:20:33.27Z</time></trkpt><trkpt lat="44.2938516" lon="8.4527748"><ele>9.0</ele><time>2026-04-18T13:20:34.271Z</time></trkpt><trkpt lat="44.2937967" lon="8.4526754"><ele>9.0</ele><time>2026-04-18T13:20:35.271Z</time></trkpt><trkpt lat="44.2937452" lon="8.452612"><ele>9.0</ele><time>2026-04-18T13:20:36.271Z</time></trkpt><trkpt lat="44.2936785" lon="8.4525821"><ele>9.0</ele><time>2026-04-18T13:20:37.271Z</time></trkpt><trkpt lat="44.293594" lon="8.4525754"><ele>9.0</ele><time>2026-04-18T13:20:38.271Z</time></trkpt><trkpt lat="44.2934963" lon="8.452593"><ele>9.0</ele><time>2026-04-18T13:20:39.271Z</time></trkpt><trkpt lat="44.2933892" lon="8.4526174"><ele>9.0</ele><time>2026-04-18T13:20:40.271Z</time></trkpt><trkpt lat="44.2932806" lon="8.4526429"><ele>9.0</ele><time>2026-04-18T13:20:41.27Z</time></trkpt><trkpt lat="44.2931683" lon="8.4526727"><ele>9.0</ele><time>2026-04-18T13:20:42.271Z</time></trkpt><trkpt lat="44.2930567" lon="8.4527133"><ele>9.0</ele><time>2026-04-18T13:20:43.271Z</time></trkpt><trkpt lat="44.2929407" lon="8.4527643"><ele>9.0</ele><time>2026-04-18T13:20:44.271Z</time></trkpt><trkpt lat="44.2928321" lon="8.4528248"><ele>9.0</ele><time>2026-04-18T13:20:45.271Z</time></trkpt><trkpt lat="44.2927358" lon="8.4528831"><ele>9.0</ele><time>2026-04-18T13:20:46.271Z</time></trkpt><trkpt lat="44.2926347" lon="8.4529414"><ele>9.0</ele><time>2026-04-18T13:20:47.27Z</time></trkpt><trkpt lat="44.2922474" lon="8.4533573"><ele>8.5</ele><time>2026-04-18T13:20:51.271Z</time></trkpt><trkpt lat="44.2921695" lon="8.4534285"><ele>8.0</ele><time>2026-04-18T13:20:52.271Z</time></trkpt><trkpt lat="44.2920796" lon="8.4534621"><ele>7.5</ele><time>2026-04-18T13:20:53.271Z</time></trkpt><trkpt lat="44.2920015" lon="8.4535182"><ele>7.0</ele><time>2026-04-18T13:20:54.271Z</time></trkpt><trkpt lat="44.2919525" lon="8.453576"><ele>6.5</ele><time>2026-04-18T13:20:55.27Z</time></trkpt><trkpt lat="44.2919018" lon="8.4536687"><ele>6.0</ele><time>2026-04-18T13:20:57.27Z</time></trkpt><trkpt lat="44.291853" lon="8.4537704"><ele>5.8</ele><time>2026-04-18T13:20:59.271Z</time></trkpt><trkpt lat="44.2917871" lon="8.4538709"><ele>5.6</ele><time>2026-04-18T13:21:01.271Z</time></trkpt><trkpt lat="44.2917112" lon="8.4539417"><ele>5.4</ele><time>2026-04-18T13:21:03.271Z</time></trkpt><trkpt lat="44.2915944" lon="8.4539842"><ele>5.2</ele><time>2026-04-18T13:21:05.271Z</time></trkpt><trkpt lat="44.2915097" lon="8.4539705"><ele>5.0</ele><time>2026-04-18T13:21:06.271Z</time></trkpt><trkpt lat="44.2914271" lon="8.453931"><ele>4.8</ele><time>2026-04-18T13:21:07.271Z</time></trkpt><trkpt lat="44.2913427" lon="8.4538758"><ele>4.6</ele><time>2026-04-18T13:21:08.271Z</time></trkpt><trkpt lat="44.2912567" lon="8.4538006"><ele>4.4</ele><time>2026-04-18T13:21:09.271Z</time></trkpt><trkpt lat="44.2911664" lon="8.4537142"><ele>4.2</ele><time>2026-04-18T13:21:10.271Z</time></trkpt><trkpt lat="44.2910856" lon="8.4536283"><ele>4.0</ele><time>2026-04-18T13:21:11.271Z</time></trkpt><trkpt lat="44.2910067" lon="8.4535459"><ele>4.4</ele><time>2026-04-18T13:21:12.271Z</time></trkpt><trkpt lat="44.2909274" lon="8.4534548"><ele>4.800000000000001</ele><time>2026-04-18T13:21:13.271Z</time></trkpt><trkpt lat="44.29085" lon="8.4533656"><ele>5.199999999999999</ele><time>2026-04-18T13:21:14.271Z</time></trkpt><trkpt lat="44.290778" lon="8.453281"><ele>5.6</ele><time>2026-04-18T13:21:15.271Z</time></trkpt><trkpt lat="44.2907062" lon="8.4531902"><ele>6.0</ele><time>2026-04-18T13:21:16.271Z</time></trkpt><trkpt lat="44.290634" lon="8.4530924"><ele>6.0</ele><time>2026-04-18T13:21:17.27Z</time></trkpt><trkpt lat="44.2905592" lon="8.45298"><ele>6.0</ele><time>2026-04-18T13:21:18.27Z</time></trkpt><trkpt lat="44.2904834" lon="8.4528747"><ele>6.0</ele><time>2026-04-18T13:21:19.271Z</time></trkpt><trkpt lat="44.290397" lon="8.4527782"><ele>6.0</ele><time>2026-04-18T13:21:20.27Z</time></trkpt><trkpt lat="44.2903104" lon="8.4526811"><ele>6.0</ele><time>2026-04-18T13:21:21.271Z</time></trkpt><trkpt lat="44.290223" lon="8.4525824"><ele>6.0</ele><time>2026-04-18T13:21:22.27Z</time></trkpt><trkpt lat="44.2901424" lon="8.4524846"><ele>6.0</ele><time>2026-04-18T13:21:23.27Z</time></trkpt><trkpt lat="44.2900626" lon="8.4523892"><ele>6.0</ele><time>2026-04-18T13:21:24.27Z</time></trkpt><trkpt lat="44.2899823" lon="8.4522997"><ele>6.0</ele><time>2026-04-18T13:21:25.271Z</time></trkpt><trkpt lat="44.2899044" lon="8.4522174"><ele>6.0</ele><time>2026-04-18T13:21:26.271Z</time></trkpt><trkpt lat="44.2898208" lon="8.4521294"><ele>5.25</ele><time>2026-04-18T13:21:27.271Z</time></trkpt><trkpt lat="44.2897291" lon="8.4520484"><ele>4.5</ele><time>2026-04-18T13:21:28.27Z</time></trkpt><trkpt lat="44.2896409" lon="8.4519493"><ele>3.75</ele><time>2026-04-18T13:21:29.271Z</time></trkpt><trkpt lat="44.2895442" lon="8.4518437"><ele>3.0</ele><time>2026-04-18T13:21:30.271Z</time></trkpt><trkpt lat="44.2894419" lon="8.4517217"><ele>3.0</ele><time>2026-04-18T13:21:31.271Z</time></trkpt><trkpt lat="44.2893426" lon="8.4516022"><ele>3.0</ele><time>2026-04-18T13:21:32.271Z</time></trkpt><trkpt lat="44.2892485" lon="8.4514886"><ele>3.0</ele><time>2026-04-18T13:21:33.271Z</time></trkpt><trkpt lat="44.2891536" lon="8.4513763"><ele>3.0</ele><time>2026-04-18T13:21:34.27Z</time></trkpt><trkpt lat="44.2890613" lon="8.4512664"><ele>3.25</ele><time>2026-04-18T13:21:35.271Z</time></trkpt><trkpt lat="44.2889731" lon="8.4511685"><ele>3.5</ele><time>2026-04-18T13:21:36.27Z</time></trkpt><trkpt lat="44.2888742" lon="8.4510526"><ele>3.75</ele><time>2026-04-18T13:21:37.271Z</time></trkpt><trkpt lat="44.2887707" lon="8.4509113"><ele>4.0</ele><time>2026-04-18T13:21:38.27Z</time></trkpt><trkpt lat="44.2886664" lon="8.4507614"><ele>4.0</ele><time>2026-04-18T13:21:39.27Z</time></trkpt><trkpt lat="44.2885575" lon="8.4506246"><ele>4.0</ele><time>2026-04-18T13:21:40.271Z</time></trkpt><trkpt lat="44.2884476" lon="8.4505008"><ele>4.0</ele><time>2026-04-18T13:21:41.271Z</time></trkpt><trkpt lat="44.2883389" lon="8.4503759"><ele>4.0</ele><time>2026-04-18T13:21:42.271Z</time></trkpt><trkpt lat="44.2882361" lon="8.4502557"><ele>4.0</ele><time>2026-04-18T13:21:43.27Z</time></trkpt><trkpt lat="44.2881333" lon="8.4501454"><ele>4.0</ele><time>2026-04-18T13:21:44.271Z</time></trkpt><trkpt lat="44.2880298" lon="8.4500311"><ele>4.0</ele><time>2026-04-18T13:21:45.271Z</time></trkpt><trkpt lat="44.2879311" lon="8.4499131"><ele>4.0</ele><time>2026-04-18T13:21:46.271Z</time></trkpt><trkpt lat="44.287826" lon="8.449798"><ele>4.0</ele><time>2026-04-18T13:21:47.27Z</time></trkpt><trkpt lat="44.2877158" lon="8.449694"><ele>4.0</ele><time>2026-04-18T13:21:48.271Z</time></trkpt><trkpt lat="44.2876061" lon="8.4495904"><ele>4.0</ele><time>2026-04-18T13:21:49.27Z</time></trkpt><trkpt lat="44.2874946" lon="8.4494708"><ele>4.0</ele><time>2026-04-18T13:21:50.271Z</time></trkpt><trkpt lat="44.2873774" lon="8.4493383"><ele>4.0</ele><time>2026-04-18T13:21:51.271Z</time></trkpt><trkpt lat="44.2872591" lon="8.4492037"><ele>4.0</ele><time>2026-04-18T13:21:52.271Z</time></trkpt><trkpt lat="44.2871388" lon="8.449064"><ele>4.0</ele><time>2026-04-18T13:21:53.27Z</time></trkpt><trkpt lat="44.2870268" lon="8.4489309"><ele>4.0</ele><time>2026-04-18T13:21:54.271Z</time></trkpt><trkpt lat="44.2869279" lon="8.4488152"><ele>4.0</ele><time>2026-04-18T13:21:55.27Z</time></trkpt><trkpt lat="44.2868393" lon="8.4487114"><ele>4.0</ele><time>2026-04-18T13:21:56.271Z</time></trkpt><trkpt lat="44.2867524" lon="8.448617"><ele>4.0</ele><time>2026-04-18T13:21:57.271Z</time></trkpt><trkpt lat="44.2866724" lon="8.4485258"><ele>3.8000000000000003</ele><time>2026-04-18T13:21:58.271Z</time></trkpt><trkpt lat="44.286591" lon="8.448429"><ele>3.6000000000000005</ele><time>2026-04-18T13:21:59.271Z</time></trkpt><trkpt lat="44.2865142" lon="8.4483391"><ele>3.4</ele><time>2026-04-18T13:22:00.271Z</time></trkpt><trkpt lat="44.2864417" lon="8.4482508"><ele>3.2</ele><time>2026-04-18T13:22:01.271Z</time></trkpt><trkpt lat="44.2863753" lon="8.4481593"><ele>3.0</ele><time>2026-04-18T13:22:02.27Z</time></trkpt><trkpt lat="44.2863174" lon="8.4480821"><ele>3.0</ele><time>2026-04-18T13:22:03.27Z</time></trkpt><trkpt lat="44.2862582" lon="8.448011"><ele>3.0</ele><time>2026-04-18T13:22:04.271Z</time></trkpt><trkpt lat="44.2861871" lon="8.4479391"><ele>3.0</ele><time>2026-04-18T13:22:05.271Z</time></trkpt><trkpt lat="44.2861025" lon="8.4478442"><ele>3.0</ele><time>2026-04-18T13:22:06.27Z</time></trkpt><trkpt lat="44.2860023" lon="8.44773"><ele>3.0</ele><time>2026-04-18T13:22:07.27Z</time></trkpt><trkpt lat="44.2858831" lon="8.4475827"><ele>3.333333333333333</ele><time>2026-04-18T13:22:08.271Z</time></trkpt><trkpt lat="44.2857637" lon="8.4474429"><ele>3.6666666666666665</ele><time>2026-04-18T13:22:09.27Z</time></trkpt><trkpt lat="44.28565" lon="8.4473101"><ele>4.0</ele><time>2026-04-18T13:22:10.27Z</time></trkpt><trkpt lat="44.285527" lon="8.4471779"><ele>5.0</ele><time>2026-04-18T13:22:11.27Z</time></trkpt><trkpt lat="44.2854022" lon="8.4470399"><ele>6.0</ele><time>2026-04-18T13:22:12.271Z</time></trkpt><trkpt lat="44.2852766" lon="8.4469023"><ele>7.0</ele><time>2026-04-18T13:22:13.271Z</time></trkpt><trkpt lat="44.2851535" lon="8.4467603"><ele>7.0</ele><time>2026-04-18T13:22:14.271Z</time></trkpt><trkpt lat="44.2850287" lon="8.4466081"><ele>7.0</ele><time>2026-04-18T13:22:15.272Z</time></trkpt><trkpt lat="44.2849075" lon="8.4464644"><ele>7.0</ele><time>2026-04-18T13:22:16.272Z</time></trkpt><trkpt lat="44.2847948" lon="8.4463282"><ele>7.0</ele><time>2026-04-18T13:22:17.272Z</time></trkpt><trkpt lat="44.2846752" lon="8.4461945"><ele>7.0</ele><time>2026-04-18T13:22:18.271Z</time></trkpt><trkpt lat="44.284557" lon="8.4460561"><ele>7.0</ele><time>2026-04-18T13:22:19.272Z</time></trkpt><trkpt lat="44.2844489" lon="8.4459364"><ele>7.0</ele><time>2026-04-18T13:22:20.272Z</time></trkpt><trkpt lat="44.2843528" lon="8.4458211"><ele>7.0</ele><time>2026-04-18T13:22:21.272Z</time></trkpt><trkpt lat="44.2842635" lon="8.4457248"><ele>6.999999999999999</ele><time>2026-04-18T13:22:22.272Z</time></trkpt><trkpt lat="44.2841818" lon="8.4456394"><ele>6.999999999999999</ele><time>2026-04-18T13:22:23.271Z</time></trkpt><trkpt lat="44.2841014" lon="8.4455525"><ele>7.0</ele><time>2026-04-18T13:22:24.272Z</time></trkpt><trkpt lat="44.2840245" lon="8.44548"><ele>7.0</ele><time>2026-04-18T13:22:25.272Z</time></trkpt><trkpt lat="44.2839478" lon="8.445405"><ele>7.166666666666667</ele><time>2026-04-18T13:22:26.272Z</time></trkpt><trkpt lat="44.2838799" lon="8.445325"><ele>7.333333333333334</ele><time>2026-04-18T13:22:27.272Z</time></trkpt><trkpt lat="44.2838039" lon="8.4452453"><ele>7.5</ele><time>2026-04-18T13:22:28.272Z</time></trkpt><trkpt lat="44.2837256" lon="8.4451761"><ele>7.666666666666666</ele><time>2026-04-18T13:22:29.272Z</time></trkpt><trkpt lat="44.2836606" lon="8.4450999"><ele>7.833333333333333</ele><time>2026-04-18T13:22:30.271Z</time></trkpt><trkpt lat="44.2835945" lon="8.4450333"><ele>8.0</ele><time>2026-04-18T13:22:31.272Z</time></trkpt><trkpt lat="44.2835267" lon="8.4449739"><ele>8.0</ele><time>2026-04-18T13:22:32.272Z</time></trkpt><trkpt lat="44.2834656" lon="8.4449161"><ele>8.0</ele><time>2026-04-18T13:22:33.272Z</time></trkpt><trkpt lat="44.2833731" lon="8.4448063"><ele>8.0</ele><time>2026-04-18T13:22:35.271Z</time></trkpt><trkpt lat="44.2832738" lon="8.4447078"><ele>8.0</ele><time>2026-04-18T13:22:37.272Z</time></trkpt><trkpt lat="44.2832086" lon="8.4446804"><ele>8.0</ele><time>2026-04-18T13:22:38.272Z</time></trkpt><trkpt lat="44.2831387" lon="8.4446737"><ele>7.833333333333333</ele><time>2026-04-18T13:22:39.272Z</time></trkpt><trkpt lat="44.283065" lon="8.4446529"><ele>7.666666666666666</ele><time>2026-04-18T13:22:40.271Z</time></trkpt><trkpt lat="44.2829877" lon="8.4446275"><ele>7.5</ele><time>2026-04-18T13:22:41.272Z</time></trkpt><trkpt lat="44.2829076" lon="8.4445887"><ele>7.333333333333334</ele><time>2026-04-18T13:22:42.272Z</time></trkpt><trkpt lat="44.2828248" lon="8.4445423"><ele>7.166666666666667</ele><time>2026-04-18T13:22:43.272Z</time></trkpt><trkpt lat="44.2827368" lon="8.4444821"><ele>7.0</ele><time>2026-04-18T13:22:44.272Z</time></trkpt><trkpt lat="44.2826404" lon="8.4444311"><ele>7.0</ele><time>2026-04-18T13:22:45.272Z</time></trkpt><trkpt lat="44.2825381" lon="8.4443689"><ele>6.999999999999999</ele><time>2026-04-18T13:22:46.272Z</time></trkpt><trkpt lat="44.2824348" lon="8.4443085"><ele>6.999999999999999</ele><time>2026-04-18T13:22:47.272Z</time></trkpt><trkpt lat="44.2823357" lon="8.4442528"><ele>7.0</ele><time>2026-04-18T13:22:48.271Z</time></trkpt><trkpt lat="44.2822316" lon="8.4441972"><ele>7.0</ele><time>2026-04-18T13:22:49.272Z</time></trkpt><trkpt lat="44.2821269" lon="8.4441366"><ele>6.5</ele><time>2026-04-18T13:22:50.272Z</time></trkpt><trkpt lat="44.2820193" lon="8.4440788"><ele>6.0</ele><time>2026-04-18T13:22:51.271Z</time></trkpt><trkpt lat="44.2819131" lon="8.4440169"><ele>5.5</ele><time>2026-04-18T13:22:52.272Z</time></trkpt><trkpt lat="44.2817959" lon="8.4439543"><ele>5.0</ele><time>2026-04-18T13:22:53.272Z</time></trkpt><trkpt lat="44.2816613" lon="8.443883"><ele>5.0</ele><time>2026-04-18T13:22:54.272Z</time></trkpt><trkpt lat="44.2815201" lon="8.4438138"><ele>5.0</ele><time>2026-04-18T13:22:55.272Z</time></trkpt><trkpt lat="44.2813901" lon="8.443732"><ele>5.0</ele><time>2026-04-18T13:22:56.272Z</time></trkpt><trkpt lat="44.2812765" lon="8.4436604"><ele>5.0</ele><time>2026-04-18T13:22:57.272Z</time></trkpt><trkpt lat="44.2811736" lon="8.4435973"><ele>5.0</ele><time>2026-04-18T13:22:58.272Z</time></trkpt><trkpt lat="44.2810652" lon="8.4435392"><ele>5.0</ele><time>2026-04-18T13:22:59.271Z</time></trkpt><trkpt lat="44.2809435" lon="8.4434558"><ele>5.0</ele><time>2026-04-18T13:23:00.272Z</time></trkpt><trkpt lat="44.2808176" lon="8.4433713"><ele>5.0</ele><time>2026-04-18T13:23:01.272Z</time></trkpt><trkpt lat="44.2806921" lon="8.4432939"><ele>5.0</ele><time>2026-04-18T13:23:02.272Z</time></trkpt><trkpt lat="44.2805543" lon="8.4432205"><ele>5.0</ele><time>2026-04-18T13:23:03.272Z</time></trkpt><trkpt lat="44.280414" lon="8.4431365"><ele>5.0</ele><time>2026-04-18T13:23:04.272Z</time></trkpt><trkpt lat="44.2802614" lon="8.4430427"><ele>5.333333333333334</ele><time>2026-04-18T13:23:05.272Z</time></trkpt><trkpt lat="44.2800994" lon="8.4429456"><ele>5.666666666666667</ele><time>2026-04-18T13:23:06.272Z</time></trkpt><trkpt lat="44.2799332" lon="8.4428447"><ele>6.0</ele><time>2026-04-18T13:23:07.272Z</time></trkpt><trkpt lat="44.2797677" lon="8.4427503"><ele>5.333333333333333</ele><time>2026-04-18T13:23:08.271Z</time></trkpt><trkpt lat="44.2796025" lon="8.4426466"><ele>4.666666666666666</ele><time>2026-04-18T13:23:09.272Z</time></trkpt><trkpt lat="44.2794304" lon="8.4425472"><ele>4.0</ele><time>2026-04-18T13:23:10.272Z</time></trkpt><trkpt lat="44.2792645" lon="8.4424426"><ele>4.0</ele><time>2026-04-18T13:23:11.272Z</time></trkpt><trkpt lat="44.279106" lon="8.4423452"><ele>4.0</ele><time>2026-04-18T13:23:12.271Z</time></trkpt><trkpt lat="44.2789569" lon="8.442255"><ele>4.0</ele><time>2026-04-18T13:23:13.272Z</time></trkpt><trkpt lat="44.2788187" lon="8.4421772"><ele>3.75</ele><time>2026-04-18T13:23:14.271Z</time></trkpt><trkpt lat="44.2786872" lon="8.4420992"><ele>3.5</ele><time>2026-04-18T13:23:15.272Z</time></trkpt><trkpt lat="44.2785645" lon="8.4420287"><ele>3.25</ele><time>2026-04-18T13:23:16.272Z</time></trkpt><trkpt lat="44.2784472" lon="8.4419607"><ele>3.0</ele><time>2026-04-18T13:23:17.272Z</time></trkpt><trkpt lat="44.2783299" lon="8.441896"><ele>3.0</ele><time>2026-04-18T13:23:18.272Z</time></trkpt><trkpt lat="44.2782096" lon="8.4418272"><ele>3.0</ele><time>2026-04-18T13:23:19.272Z</time></trkpt><trkpt lat="44.2780876" lon="8.4417567"><ele>3.0</ele><time>2026-04-18T13:23:20.272Z</time></trkpt><trkpt lat="44.2779693" lon="8.441677"><ele>3.0</ele><time>2026-04-18T13:23:21.272Z</time></trkpt><trkpt lat="44.2778558" lon="8.4416076"><ele>3.25</ele><time>2026-04-18T13:23:22.272Z</time></trkpt><trkpt lat="44.2777453" lon="8.4415332"><ele>3.5</ele><time>2026-04-18T13:23:23.272Z</time></trkpt><trkpt lat="44.2776326" lon="8.4414649"><ele>3.75</ele><time>2026-04-18T13:23:24.272Z</time></trkpt><trkpt lat="44.2775256" lon="8.4413986"><ele>4.0</ele><time>2026-04-18T13:23:25.272Z</time></trkpt><trkpt lat="44.2774277" lon="8.4413405"><ele>4.0</ele><time>2026-04-18T13:23:26.271Z</time></trkpt><trkpt lat="44.277339" lon="8.4412864"><ele>4.0</ele><time>2026-04-18T13:23:27.272Z</time></trkpt><trkpt lat="44.2772542" lon="8.4412374"><ele>4.0</ele><time>2026-04-18T13:23:28.272Z</time></trkpt><trkpt lat="44.2771686" lon="8.4411872"><ele>4.0</ele><time>2026-04-18T13:23:29.272Z</time></trkpt><trkpt lat="44.2770769" lon="8.4411366"><ele>4.0</ele><time>2026-04-18T13:23:30.271Z</time></trkpt><trkpt lat="44.2769829" lon="8.4410864"><ele>4.0</ele><time>2026-04-18T13:23:31.272Z</time></trkpt><trkpt lat="44.2768816" lon="8.4410312"><ele>4.0</ele><time>2026-04-18T13:23:32.271Z</time></trkpt><trkpt lat="44.2767744" lon="8.4409692"><ele>4.0</ele><time>2026-04-18T13:23:33.271Z</time></trkpt><trkpt lat="44.2766651" lon="8.4408997"><ele>4.0</ele><time>2026-04-18T13:23:34.271Z</time></trkpt><trkpt lat="44.2765555" lon="8.4408329"><ele>4.0</ele><time>2026-04-18T13:23:35.272Z</time></trkpt><trkpt lat="44.2764509" lon="8.4407704"><ele>4.0</ele><time>2026-04-18T13:23:36.271Z</time></trkpt><trkpt lat="44.2763438" lon="8.4407083"><ele>4.0</ele><time>2026-04-18T13:23:37.271Z</time></trkpt><trkpt lat="44.276244" lon="8.4406477"><ele>4.0</ele><time>2026-04-18T13:23:38.272Z</time></trkpt><trkpt lat="44.2761375" lon="8.4405879"><ele>4.0</ele><time>2026-04-18T13:23:39.271Z</time></trkpt><trkpt lat="44.2760344" lon="8.4405228"><ele>4.0</ele><time>2026-04-18T13:23:40.272Z</time></trkpt><trkpt lat="44.2759388" lon="8.4404657"><ele>4.0</ele><time>2026-04-18T13:23:41.272Z</time></trkpt><trkpt lat="44.275849" lon="8.4404127"><ele>4.0</ele><time>2026-04-18T13:23:42.271Z</time></trkpt><trkpt lat="44.2757659" lon="8.4403636"><ele>4.0</ele><time>2026-04-18T13:23:43.272Z</time></trkpt><trkpt lat="44.2756958" lon="8.440321"><ele>4.166666666666666</ele><time>2026-04-18T13:23:44.272Z</time></trkpt><trkpt lat="44.2756248" lon="8.4402788"><ele>4.333333333333333</ele><time>2026-04-18T13:23:45.272Z</time></trkpt><trkpt lat="44.2755469" lon="8.4402285"><ele>4.5</ele><time>2026-04-18T13:23:46.271Z</time></trkpt><trkpt lat="44.275466" lon="8.4401834"><ele>4.666666666666667</ele><time>2026-04-18T13:23:47.272Z</time></trkpt><trkpt lat="44.2753777" lon="8.4401308"><ele>4.833333333333334</ele><time>2026-04-18T13:23:48.271Z</time></trkpt><trkpt lat="44.2752877" lon="8.4400754"><ele>5.0</ele><time>2026-04-18T13:23:49.272Z</time></trkpt><trkpt lat="44.2751981" lon="8.4400164"><ele>5.6</ele><time>2026-04-18T13:23:50.272Z</time></trkpt><trkpt lat="44.2751014" lon="8.4399595"><ele>6.2</ele><time>2026-04-18T13:23:51.272Z</time></trkpt><trkpt lat="44.2750049" lon="8.4399014"><ele>6.800000000000001</ele><time>2026-04-18T13:23:52.272Z</time></trkpt><trkpt lat="44.274909" lon="8.4398421"><ele>7.4</ele><time>2026-04-18T13:23:53.272Z</time></trkpt><trkpt lat="44.2748169" lon="8.4397883"><ele>8.0</ele><time>2026-04-18T13:23:54.272Z</time></trkpt><trkpt lat="44.2747374" lon="8.4397391"><ele>8.166666666666666</ele><time>2026-04-18T13:23:55.271Z</time></trkpt><trkpt lat="44.2746608" lon="8.4396879"><ele>8.333333333333332</ele><time>2026-04-18T13:23:56.271Z</time></trkpt><trkpt lat="44.2745897" lon="8.4396471"><ele>8.5</ele><time>2026-04-18T13:23:57.272Z</time></trkpt><trkpt lat="44.2745126" lon="8.4396141"><ele>8.666666666666666</ele><time>2026-04-18T13:23:58.272Z</time></trkpt><trkpt lat="44.2744316" lon="8.4395689"><ele>8.833333333333334</ele><time>2026-04-18T13:23:59.272Z</time></trkpt><trkpt lat="44.2743443" lon="8.4395215"><ele>9.0</ele><time>2026-04-18T13:24:00.272Z</time></trkpt><trkpt lat="44.2742473" lon="8.4394799"><ele>9.0</ele><time>2026-04-18T13:24:01.272Z</time></trkpt><trkpt lat="44.2741464" lon="8.4394397"><ele>9.0</ele><time>2026-04-18T13:24:02.271Z</time></trkpt><trkpt lat="44.2740466" lon="8.4394055"><ele>9.0</ele><time>2026-04-18T13:24:03.271Z</time></trkpt><trkpt lat="44.2739458" lon="8.4393704"><ele>9.0</ele><time>2026-04-18T13:24:04.272Z</time></trkpt><trkpt lat="44.2738583" lon="8.4393379"><ele>9.0</ele><time>2026-04-18T13:24:05.272Z</time></trkpt><trkpt lat="44.2737774" lon="8.4393099"><ele>10.4</ele><time>2026-04-18T13:24:06.272Z</time></trkpt><trkpt lat="44.2736931" lon="8.4392791"><ele>11.8</ele><time>2026-04-18T13:24:07.272Z</time></trkpt><trkpt lat="44.273602" lon="8.439248"><ele>13.200000000000001</ele><time>2026-04-18T13:24:08.272Z</time></trkpt><trkpt lat="44.2735112" lon="8.4392217"><ele>14.600000000000001</ele><time>2026-04-18T13:24:09.272Z</time></trkpt><trkpt lat="44.2734219" lon="8.4391863"><ele>16.0</ele><time>2026-04-18T13:24:10.272Z</time></trkpt><trkpt lat="44.2733342" lon="8.4391582"><ele>15.999999999999998</ele><time>2026-04-18T13:24:11.272Z</time></trkpt><trkpt lat="44.2732488" lon="8.4391334"><ele>16.0</ele><time>2026-04-18T13:24:12.272Z</time></trkpt><trkpt lat="44.2731732" lon="8.4391171"><ele>16.0</ele><time>2026-04-18T13:24:13.272Z</time></trkpt><trkpt lat="44.2730685" lon="8.4390676"><ele>16.0</ele><time>2026-04-18T13:24:15.272Z</time></trkpt><trkpt lat="44.2730004" lon="8.439044"><ele>15.999999999999998</ele><time>2026-04-18T13:24:17.272Z</time></trkpt><trkpt lat="44.2729273" lon="8.4390104"><ele>16.0</ele><time>2026-04-18T13:24:20.272Z</time></trkpt><trkpt lat="44.272822" lon="8.4390206"><ele>15.0</ele><time>2026-04-18T13:24:47.272Z</time></trkpt><trkpt lat="44.2726958" lon="8.4389491"><ele>14.000000000000002</ele><time>2026-04-18T13:24:49.273Z</time></trkpt><trkpt lat="44.2726094" lon="8.4388911"><ele>13.0</ele><time>2026-04-18T13:24:50.273Z</time></trkpt><trkpt lat="44.2725117" lon="8.4388445"><ele>12.0</ele><time>2026-04-18T13:24:51.272Z</time></trkpt><trkpt lat="44.2724249" lon="8.4387989"><ele>11.0</ele><time>2026-04-18T13:24:52.273Z</time></trkpt><trkpt lat="44.2723504" lon="8.4387736"><ele>10.833333333333332</ele><time>2026-04-18T13:24:53.273Z</time></trkpt><trkpt lat="44.2722709" lon="8.4387476"><ele>10.666666666666666</ele><time>2026-04-18T13:24:54.272Z</time></trkpt><trkpt lat="44.2721844" lon="8.4387208"><ele>10.5</ele><time>2026-04-18T13:24:55.273Z</time></trkpt><trkpt lat="44.2720971" lon="8.4387099"><ele>10.333333333333334</ele><time>2026-04-18T13:24:56.272Z</time></trkpt><trkpt lat="44.2720178" lon="8.4386923"><ele>10.166666666666668</ele><time>2026-04-18T13:24:57.273Z</time></trkpt><trkpt lat="44.2719377" lon="8.4386707"><ele>10.0</ele><time>2026-04-18T13:24:58.273Z</time></trkpt><trkpt lat="44.2718555" lon="8.4386544"><ele>10.0</ele><time>2026-04-18T13:24:59.273Z</time></trkpt><trkpt lat="44.271761" lon="8.4386513"><ele>10.0</ele><time>2026-04-18T13:25:00.273Z</time></trkpt><trkpt lat="44.2716674" lon="8.4386525"><ele>10.0</ele><time>2026-04-18T13:25:01.273Z</time></trkpt><trkpt lat="44.2715762" lon="8.438664"><ele>10.0</ele><time>2026-04-18T13:25:02.273Z</time></trkpt><trkpt lat="44.271485" lon="8.4386775"><ele>10.0</ele><time>2026-04-18T13:25:03.273Z</time></trkpt><trkpt lat="44.2713951" lon="8.4387006"><ele>9.8</ele><time>2026-04-18T13:25:04.273Z</time></trkpt><trkpt lat="44.2713059" lon="8.4387217"><ele>9.6</ele><time>2026-04-18T13:25:05.273Z</time></trkpt><trkpt lat="44.271221" lon="8.4387378"><ele>9.4</ele><time>2026-04-18T13:25:06.273Z</time></trkpt><trkpt lat="44.2711329" lon="8.4387553"><ele>9.2</ele><time>2026-04-18T13:25:07.273Z</time></trkpt><trkpt lat="44.2710435" lon="8.4387766"><ele>9.0</ele><time>2026-04-18T13:25:08.273Z</time></trkpt><trkpt lat="44.2709459" lon="8.4388062"><ele>9.0</ele><time>2026-04-18T13:25:09.273Z</time></trkpt><trkpt lat="44.2708444" lon="8.4388412"><ele>9.0</ele><time>2026-04-18T13:25:10.273Z</time></trkpt><trkpt lat="44.2707461" lon="8.4388835"><ele>9.0</ele><time>2026-04-18T13:25:11.273Z</time></trkpt><trkpt lat="44.2706465" lon="8.4389196"><ele>9.0</ele><time>2026-04-18T13:25:12.273Z</time></trkpt><trkpt lat="44.2705473" lon="8.4389585"><ele>9.0</ele><time>2026-04-18T13:25:13.273Z</time></trkpt><trkpt lat="44.270446" lon="8.4390149"><ele>8.75</ele><time>2026-04-18T13:25:14.273Z</time></trkpt><trkpt lat="44.2703193" lon="8.439088"><ele>8.5</ele><time>2026-04-18T13:25:15.272Z</time></trkpt><trkpt lat="44.2701812" lon="8.4391742"><ele>8.25</ele><time>2026-04-18T13:25:16.272Z</time></trkpt><trkpt lat="44.2700402" lon="8.4392415"><ele>8.0</ele><time>2026-04-18T13:25:17.273Z</time></trkpt><trkpt lat="44.2698943" lon="8.4393095"><ele>8.0</ele><time>2026-04-18T13:25:18.273Z</time></trkpt><trkpt lat="44.2697411" lon="8.4393986"><ele>8.0</ele><time>2026-04-18T13:25:19.273Z</time></trkpt><trkpt lat="44.2695874" lon="8.4394993"><ele>8.0</ele><time>2026-04-18T13:25:20.273Z</time></trkpt><trkpt lat="44.269435" lon="8.4395853"><ele>7.0</ele><time>2026-04-18T13:25:21.273Z</time></trkpt><trkpt lat="44.2692767" lon="8.4396763"><ele>6.0</ele><time>2026-04-18T13:25:22.273Z</time></trkpt><trkpt lat="44.2691204" lon="8.4397404"><ele>5.0</ele><time>2026-04-18T13:25:23.273Z</time></trkpt><trkpt lat="44.2689706" lon="8.4398105"><ele>5.25</ele><time>2026-04-18T13:25:24.272Z</time></trkpt><trkpt lat="44.2688256" lon="8.4398845"><ele>5.5</ele><time>2026-04-18T13:25:25.273Z</time></trkpt><trkpt lat="44.2686841" lon="8.439953"><ele>5.75</ele><time>2026-04-18T13:25:26.273Z</time></trkpt><trkpt lat="44.2685474" lon="8.4400209"><ele>6.0</ele><time>2026-04-18T13:25:27.273Z</time></trkpt><trkpt lat="44.2684036" lon="8.440095"><ele>6.0</ele><time>2026-04-18T13:25:28.272Z</time></trkpt><trkpt lat="44.2682543" lon="8.4401702"><ele>6.0</ele><time>2026-04-18T13:25:29.272Z</time></trkpt><trkpt lat="44.2681099" lon="8.440239"><ele>6.0</ele><time>2026-04-18T13:25:30.273Z</time></trkpt><trkpt lat="44.2679823" lon="8.440302"><ele>6.0</ele><time>2026-04-18T13:25:31.272Z</time></trkpt><trkpt lat="44.267874" lon="8.4403635"><ele>5.8</ele><time>2026-04-18T13:25:32.272Z</time></trkpt><trkpt lat="44.2677699" lon="8.44042"><ele>5.6</ele><time>2026-04-18T13:25:33.272Z</time></trkpt><trkpt lat="44.2676683" lon="8.4404583"><ele>5.4</ele><time>2026-04-18T13:25:34.273Z</time></trkpt><trkpt lat="44.2675734" lon="8.4404919"><ele>5.2</ele><time>2026-04-18T13:25:35.273Z</time></trkpt><trkpt lat="44.2674842" lon="8.4405179"><ele>5.0</ele><time>2026-04-18T13:25:36.273Z</time></trkpt><trkpt lat="44.2674072" lon="8.4405208"><ele>4.833333333333334</ele><time>2026-04-18T13:25:37.272Z</time></trkpt><trkpt lat="44.2673407" lon="8.4404892"><ele>4.666666666666667</ele><time>2026-04-18T13:25:38.273Z</time></trkpt><trkpt lat="44.2672717" lon="8.4404594"><ele>4.5</ele><time>2026-04-18T13:25:39.273Z</time></trkpt><trkpt lat="44.2671996" lon="8.4404477"><ele>4.333333333333333</ele><time>2026-04-18T13:25:40.273Z</time></trkpt><trkpt lat="44.2670965" lon="8.440514"><ele>4.166666666666666</ele><time>2026-04-18T13:25:42.272Z</time></trkpt><trkpt lat="44.2670507" lon="8.4405776"><ele>4.0</ele><time>2026-04-18T13:25:43.273Z</time></trkpt><trkpt lat="44.2669967" lon="8.4406582"><ele>3.4999999999999996</ele><time>2026-04-18T13:25:44.273Z</time></trkpt><trkpt lat="44.2669305" lon="8.4407358"><ele>3.0</ele><time>2026-04-18T13:25:45.273Z</time></trkpt><trkpt lat="44.2668599" lon="8.4408007"><ele>2.5</ele><time>2026-04-18T13:25:46.272Z</time></trkpt><trkpt lat="44.2667963" lon="8.4408461"><ele>2.0</ele><time>2026-04-18T13:25:47.273Z</time></trkpt><trkpt lat="44.2667337" lon="8.4408933"><ele>1.5</ele><time>2026-04-18T13:25:48.273Z</time></trkpt><trkpt lat="44.2666606" lon="8.4409362"><ele>1.0</ele><time>2026-04-18T13:25:49.273Z</time></trkpt><trkpt lat="44.2665774" lon="8.4409839"><ele>1.0</ele><time>2026-04-18T13:25:50.273Z</time></trkpt><trkpt lat="44.2664776" lon="8.441052"><ele>1.0</ele><time>2026-04-18T13:25:51.272Z</time></trkpt><trkpt lat="44.266375" lon="8.4411103"><ele>1.0</ele><time>2026-04-18T13:25:52.273Z</time></trkpt><trkpt lat="44.2662501" lon="8.4411791"><ele>1.0</ele><time>2026-04-18T13:25:53.273Z</time></trkpt><trkpt lat="44.2661121" lon="8.4412528"><ele>1.6666666666666665</ele><time>2026-04-18T13:25:54.273Z</time></trkpt><trkpt lat="44.2659523" lon="8.441322"><ele>2.3333333333333335</ele><time>2026-04-18T13:25:55.273Z</time></trkpt><trkpt lat="44.2657991" lon="8.4413978"><ele>3.0</ele><time>2026-04-18T13:25:56.272Z</time></trkpt><trkpt lat="44.2656364" lon="8.4414682"><ele>3.666666666666667</ele><time>2026-04-18T13:25:57.272Z</time></trkpt><trkpt lat="44.2654714" lon="8.4415482"><ele>4.333333333333334</ele><time>2026-04-18T13:25:58.272Z</time></trkpt><trkpt lat="44.2653064" lon="8.4416285"><ele>5.0</ele><time>2026-04-18T13:25:59.273Z</time></trkpt><trkpt lat="44.2651448" lon="8.4417193"><ele>5.0</ele><time>2026-04-18T13:26:00.273Z</time></trkpt><trkpt lat="44.2649884" lon="8.4418115"><ele>5.0</ele><time>2026-04-18T13:26:01.272Z</time></trkpt><trkpt lat="44.2648476" lon="8.4419101"><ele>5.0</ele><time>2026-04-18T13:26:02.273Z</time></trkpt><trkpt lat="44.26472" lon="8.4420095"><ele>5.0</ele><time>2026-04-18T13:26:03.273Z</time></trkpt><trkpt lat="44.2645949" lon="8.4421221"><ele>5.0</ele><time>2026-04-18T13:26:04.273Z</time></trkpt><trkpt lat="44.2644791" lon="8.4422457"><ele>5.0</ele><time>2026-04-18T13:26:05.273Z</time></trkpt><trkpt lat="44.2643738" lon="8.4423784"><ele>5.0</ele><time>2026-04-18T13:26:06.272Z</time></trkpt><trkpt lat="44.2642758" lon="8.4425203"><ele>5.0</ele><time>2026-04-18T13:26:07.273Z</time></trkpt><trkpt lat="44.2641801" lon="8.4426783"><ele>5.0</ele><time>2026-04-18T13:26:08.273Z</time></trkpt><trkpt lat="44.2640869" lon="8.4428515"><ele>5.0</ele><time>2026-04-18T13:26:09.273Z</time></trkpt><trkpt lat="44.2639935" lon="8.4430361"><ele>5.0</ele><time>2026-04-18T13:26:10.273Z</time></trkpt><trkpt lat="44.2639035" lon="8.4432105"><ele>5.0</ele><time>2026-04-18T13:26:11.272Z</time></trkpt><trkpt lat="44.2638161" lon="8.4433693"><ele>5.0</ele><time>2026-04-18T13:26:12.273Z</time></trkpt><trkpt lat="44.2637356" lon="8.443524"><ele>5.0</ele><time>2026-04-18T13:26:13.272Z</time></trkpt><trkpt lat="44.2636563" lon="8.4436712"><ele>4.5</ele><time>2026-04-18T13:26:14.273Z</time></trkpt><trkpt lat="44.2635763" lon="8.4438197"><ele>4.0</ele><time>2026-04-18T13:26:15.273Z</time></trkpt><trkpt lat="44.2634962" lon="8.4439664"><ele>3.5</ele><time>2026-04-18T13:26:16.273Z</time></trkpt><trkpt lat="44.2634178" lon="8.4441247"><ele>3.0</ele><time>2026-04-18T13:26:17.273Z</time></trkpt><trkpt lat="44.2633325" lon="8.4442815"><ele>3.0</ele><time>2026-04-18T13:26:18.273Z</time></trkpt><trkpt lat="44.2632512" lon="8.4444339"><ele>3.0</ele><time>2026-04-18T13:26:19.273Z</time></trkpt><trkpt lat="44.2631735" lon="8.4445816"><ele>3.0</ele><time>2026-04-18T13:26:20.273Z</time></trkpt><trkpt lat="44.2630979" lon="8.4447268"><ele>3.0</ele><time>2026-04-18T13:26:21.273Z</time></trkpt><trkpt lat="44.2630126" lon="8.4448863"><ele>3.333333333333333</ele><time>2026-04-18T13:26:22.273Z</time></trkpt><trkpt lat="44.2629166" lon="8.4450532"><ele>3.6666666666666665</ele><time>2026-04-18T13:26:23.273Z</time></trkpt><trkpt lat="44.2628197" lon="8.4452298"><ele>4.0</ele><time>2026-04-18T13:26:24.272Z</time></trkpt><trkpt lat="44.2627183" lon="8.4454124"><ele>3.6666666666666665</ele><time>2026-04-18T13:26:25.273Z</time></trkpt><trkpt lat="44.2626189" lon="8.4456035"><ele>3.333333333333333</ele><time>2026-04-18T13:26:26.273Z</time></trkpt><trkpt lat="44.2625175" lon="8.4457898"><ele>3.0</ele><time>2026-04-18T13:26:27.273Z</time></trkpt><trkpt lat="44.2624175" lon="8.4459745"><ele>3.0</ele><time>2026-04-18T13:26:28.273Z</time></trkpt><trkpt lat="44.262318" lon="8.4461557"><ele>3.0</ele><time>2026-04-18T13:26:29.273Z</time></trkpt><trkpt lat="44.2622228" lon="8.4463499"><ele>3.0</ele><time>2026-04-18T13:26:30.273Z</time></trkpt><trkpt lat="44.2621233" lon="8.4465331"><ele>3.5</ele><time>2026-04-18T13:26:31.272Z</time></trkpt><trkpt lat="44.2620284" lon="8.4467045"><ele>4.0</ele><time>2026-04-18T13:26:32.272Z</time></trkpt><trkpt lat="44.261946" lon="8.4468633"><ele>4.5</ele><time>2026-04-18T13:26:33.272Z</time></trkpt><trkpt lat="44.2618708" lon="8.4470176"><ele>5.0</ele><time>2026-04-18T13:26:34.273Z</time></trkpt><trkpt lat="44.2618042" lon="8.4471689"><ele>5.2</ele><time>2026-04-18T13:26:35.273Z</time></trkpt><trkpt lat="44.2617568" lon="8.4473083"><ele>5.4</ele><time>2026-04-18T13:26:36.273Z</time></trkpt><trkpt lat="44.261715" lon="8.447431"><ele>5.6</ele><time>2026-04-18T13:26:37.273Z</time></trkpt><trkpt lat="44.2616709" lon="8.4475517"><ele>5.8</ele><time>2026-04-18T13:26:38.272Z</time></trkpt><trkpt lat="44.2616239" lon="8.4476693"><ele>6.0</ele><time>2026-04-18T13:26:39.273Z</time></trkpt><trkpt lat="44.261605" lon="8.4477893"><ele>6.0</ele><time>2026-04-18T13:26:40.273Z</time></trkpt><trkpt lat="44.2616185" lon="8.4479546"><ele>6.0</ele><time>2026-04-18T13:26:41.273Z</time></trkpt><trkpt lat="44.2616561" lon="8.4481454"><ele>6.0</ele><time>2026-04-18T13:26:42.273Z</time></trkpt><trkpt lat="44.2616802" lon="8.4483463"><ele>6.0</ele><time>2026-04-18T13:26:43.273Z</time></trkpt><trkpt lat="44.2616964" lon="8.4485766"><ele>7.333333333333334</ele><time>2026-04-18T13:26:44.273Z</time></trkpt><trkpt lat="44.2617194" lon="8.4488214"><ele>8.666666666666668</ele><time>2026-04-18T13:26:45.273Z</time></trkpt><trkpt lat="44.2617394" lon="8.4490795"><ele>10.0</ele><time>2026-04-18T13:26:46.273Z</time></trkpt><trkpt lat="44.2617663" lon="8.4493481"><ele>10.0</ele><time>2026-04-18T13:26:47.273Z</time></trkpt><trkpt lat="44.2617815" lon="8.4496148"><ele>10.0</ele><time>2026-04-18T13:26:48.272Z</time></trkpt><trkpt lat="44.2617768" lon="8.4498878"><ele>10.0</ele><time>2026-04-18T13:26:49.273Z</time></trkpt><trkpt lat="44.2617433" lon="8.4501587"><ele>9.666666666666668</ele><time>2026-04-18T13:26:50.273Z</time></trkpt><trkpt lat="44.2616828" lon="8.4504315"><ele>9.333333333333334</ele><time>2026-04-18T13:26:51.273Z</time></trkpt><trkpt lat="44.261607" lon="8.4507015"><ele>9.0</ele><time>2026-04-18T13:26:52.273Z</time></trkpt><trkpt lat="44.2615129" lon="8.4509614"><ele>10.0</ele><time>2026-04-18T13:26:53.273Z</time></trkpt><trkpt lat="44.2614029" lon="8.4512084"><ele>11.0</ele><time>2026-04-18T13:26:54.274Z</time></trkpt><trkpt lat="44.2612731" lon="8.4514248"><ele>12.0</ele><time>2026-04-18T13:26:55.274Z</time></trkpt><trkpt lat="44.2611293" lon="8.4516492"><ele>12.0</ele><time>2026-04-18T13:26:56.274Z</time></trkpt><trkpt lat="44.2609745" lon="8.451867"><ele>12.0</ele><time>2026-04-18T13:26:57.274Z</time></trkpt><trkpt lat="44.2608116" lon="8.4520791"><ele>12.0</ele><time>2026-04-18T13:26:58.274Z</time></trkpt><trkpt lat="44.2606392" lon="8.4522744"><ele>10.0</ele><time>2026-04-18T13:26:59.274Z</time></trkpt><trkpt lat="44.2604545" lon="8.4524525"><ele>8.0</ele><time>2026-04-18T13:27:00.274Z</time></trkpt><trkpt lat="44.2602664" lon="8.4526081"><ele>6.0</ele><time>2026-04-18T13:27:01.274Z</time></trkpt><trkpt lat="44.26007" lon="8.4527351"><ele>6.0</ele><time>2026-04-18T13:27:02.274Z</time></trkpt><trkpt lat="44.2598672" lon="8.4528546"><ele>6.0</ele><time>2026-04-18T13:27:03.273Z</time></trkpt><trkpt lat="44.2596552" lon="8.4529282"><ele>6.0</ele><time>2026-04-18T13:27:04.273Z</time></trkpt><trkpt lat="44.2594343" lon="8.4529695"><ele>6.666666666666666</ele><time>2026-04-18T13:27:05.274Z</time></trkpt><trkpt lat="44.2592178" lon="8.4529845"><ele>7.333333333333333</ele><time>2026-04-18T13:27:06.274Z</time></trkpt><trkpt lat="44.2589985" lon="8.4529726"><ele>8.0</ele><time>2026-04-18T13:27:07.274Z</time></trkpt><trkpt lat="44.2587807" lon="8.4529495"><ele>8.0</ele><time>2026-04-18T13:27:08.274Z</time></trkpt><trkpt lat="44.2585798" lon="8.4529064"><ele>8.0</ele><time>2026-04-18T13:27:09.274Z</time></trkpt><trkpt lat="44.2583814" lon="8.4528566"><ele>8.0</ele><time>2026-04-18T13:27:10.274Z</time></trkpt><trkpt lat="44.2581893" lon="8.45277"><ele>7.0</ele><time>2026-04-18T13:27:11.274Z</time></trkpt><trkpt lat="44.2579801" lon="8.4526593"><ele>6.0</ele><time>2026-04-18T13:27:12.274Z</time></trkpt><trkpt lat="44.2577785" lon="8.4525181"><ele>5.0</ele><time>2026-04-18T13:27:13.274Z</time></trkpt><trkpt lat="44.2575759" lon="8.4523739"><ele>5.0</ele><time>2026-04-18T13:27:14.274Z</time></trkpt><trkpt lat="44.2573853" lon="8.4522247"><ele>5.0</ele><time>2026-04-18T13:27:15.274Z</time></trkpt><trkpt lat="44.257212" lon="8.4520788"><ele>5.0</ele><time>2026-04-18T13:27:16.274Z</time></trkpt><trkpt lat="44.2570475" lon="8.4519406"><ele>8.333333333333334</ele><time>2026-04-18T13:27:17.273Z</time></trkpt><trkpt lat="44.2568895" lon="8.4518198"><ele>11.666666666666666</ele><time>2026-04-18T13:27:18.274Z</time></trkpt><trkpt lat="44.2567427" lon="8.4517121"><ele>15.0</ele><time>2026-04-18T13:27:19.273Z</time></trkpt><trkpt lat="44.2566095" lon="8.4516198"><ele>15.0</ele><time>2026-04-18T13:27:20.274Z</time></trkpt><trkpt lat="44.2564703" lon="8.4515641"><ele>15.0</ele><time>2026-04-18T13:27:21.274Z</time></trkpt><trkpt lat="44.2563263" lon="8.4515317"><ele>15.0</ele><time>2026-04-18T13:27:22.274Z</time></trkpt><trkpt lat="44.2561699" lon="8.4515201"><ele>15.0</ele><time>2026-04-18T13:27:23.274Z</time></trkpt><trkpt lat="44.2560041" lon="8.4515204"><ele>12.666666666666666</ele><time>2026-04-18T13:27:24.274Z</time></trkpt><trkpt lat="44.2558409" lon="8.451514"><ele>10.333333333333332</ele><time>2026-04-18T13:27:25.274Z</time></trkpt><trkpt lat="44.2556675" lon="8.4514851"><ele>8.0</ele><time>2026-04-18T13:27:26.273Z</time></trkpt><trkpt lat="44.2554894" lon="8.4514188"><ele>7.0</ele><time>2026-04-18T13:27:27.274Z</time></trkpt><trkpt lat="44.2553074" lon="8.4513218"><ele>6.0</ele><time>2026-04-18T13:27:28.273Z</time></trkpt><trkpt lat="44.2551285" lon="8.4511856"><ele>5.0</ele><time>2026-04-18T13:27:29.273Z</time></trkpt><trkpt lat="44.2549657" lon="8.4510001"><ele>5.0</ele><time>2026-04-18T13:27:30.273Z</time></trkpt><trkpt lat="44.2548113" lon="8.4507862"><ele>5.0</ele><time>2026-04-18T13:27:31.274Z</time></trkpt><trkpt lat="44.2546683" lon="8.4505992"><ele>5.0</ele><time>2026-04-18T13:27:32.274Z</time></trkpt><trkpt lat="44.2545338" lon="8.450463"><ele>14.0</ele><time>2026-04-18T13:27:33.274Z</time></trkpt><trkpt lat="44.2543839" lon="8.4503589"><ele>23.0</ele><time>2026-04-18T13:27:34.274Z</time></trkpt><trkpt lat="44.2542277" lon="8.450304"><ele>32.0</ele><time>2026-04-18T13:27:35.273Z</time></trkpt><trkpt lat="44.2540873" lon="8.4502898"><ele>32.0</ele><time>2026-04-18T13:27:36.274Z</time></trkpt><trkpt lat="44.2539698" lon="8.4502958"><ele>32.0</ele><time>2026-04-18T13:27:37.274Z</time></trkpt><trkpt lat="44.2538686" lon="8.4503069"><ele>32.0</ele><time>2026-04-18T13:27:38.274Z</time></trkpt><trkpt lat="44.2537903" lon="8.4503098"><ele>32.0</ele><time>2026-04-18T13:27:39.273Z</time></trkpt><trkpt lat="44.253674" lon="8.4503091"><ele>32.0</ele><time>2026-04-18T13:27:41.273Z</time></trkpt><trkpt lat="44.253597" lon="8.4503123"><ele>32.0</ele><time>2026-04-18T13:27:42.274Z</time></trkpt><trkpt lat="44.2534953" lon="8.4503079"><ele>32.0</ele><time>2026-04-18T13:27:43.274Z</time></trkpt><trkpt lat="44.2533642" lon="8.4503126"><ele>32.0</ele><time>2026-04-18T13:27:44.274Z</time></trkpt><trkpt lat="44.2532268" lon="8.4503189"><ele>32.0</ele><time>2026-04-18T13:27:45.274Z</time></trkpt><trkpt lat="44.2530792" lon="8.4503018"><ele>27.25</ele><time>2026-04-18T13:27:46.273Z</time></trkpt><trkpt lat="44.2529377" lon="8.4502338"><ele>22.5</ele><time>2026-04-18T13:27:47.274Z</time></trkpt><trkpt lat="44.2528064" lon="8.4501404"><ele>17.75</ele><time>2026-04-18T13:27:48.274Z</time></trkpt><trkpt lat="44.2526871" lon="8.4500334"><ele>13.0</ele><time>2026-04-18T13:27:49.274Z</time></trkpt><trkpt lat="44.2525811" lon="8.4498946"><ele>13.0</ele><time>2026-04-18T13:27:50.274Z</time></trkpt><trkpt lat="44.2524917" lon="8.4497471"><ele>13.0</ele><time>2026-04-18T13:27:51.274Z</time></trkpt><trkpt lat="44.2524268" lon="8.449591"><ele>13.0</ele><time>2026-04-18T13:27:52.274Z</time></trkpt><trkpt lat="44.2523787" lon="8.4494563"><ele>13.0</ele><time>2026-04-18T13:27:53.273Z</time></trkpt><trkpt lat="44.2523362" lon="8.4493301"><ele>12.600000000000001</ele><time>2026-04-18T13:27:54.274Z</time></trkpt><trkpt lat="44.2523001" lon="8.4492109"><ele>12.200000000000001</ele><time>2026-04-18T13:27:55.274Z</time></trkpt><trkpt lat="44.2522578" lon="8.4491044"><ele>11.8</ele><time>2026-04-18T13:27:56.273Z</time></trkpt><trkpt lat="44.2522154" lon="8.4489876"><ele>11.4</ele><time>2026-04-18T13:27:57.274Z</time></trkpt><trkpt lat="44.2521629" lon="8.4488805"><ele>11.0</ele><time>2026-04-18T13:27:58.274Z</time></trkpt><trkpt lat="44.252107" lon="8.4487817"><ele>11.0</ele><time>2026-04-18T13:27:59.273Z</time></trkpt><trkpt lat="44.2520449" lon="8.4486816"><ele>11.0</ele><time>2026-04-18T13:28:00.274Z</time></trkpt><trkpt lat="44.25198" lon="8.4485948"><ele>11.0</ele><time>2026-04-18T13:28:01.273Z</time></trkpt><trkpt lat="44.2519095" lon="8.4485122"><ele>11.0</ele><time>2026-04-18T13:28:02.274Z</time></trkpt><trkpt lat="44.2518338" lon="8.4484339"><ele>11.0</ele><time>2026-04-18T13:28:03.274Z</time></trkpt><trkpt lat="44.2517575" lon="8.4483533"><ele>11.0</ele><time>2026-04-18T13:28:04.274Z</time></trkpt><trkpt lat="44.2516796" lon="8.4482711"><ele>11.0</ele><time>2026-04-18T13:28:05.274Z</time></trkpt><trkpt lat="44.2515951" lon="8.4481898"><ele>11.0</ele><time>2026-04-18T13:28:06.274Z</time></trkpt><trkpt lat="44.2515053" lon="8.448109"><ele>11.0</ele><time>2026-04-18T13:28:07.274Z</time></trkpt><trkpt lat="44.2514153" lon="8.4480224"><ele>11.0</ele><time>2026-04-18T13:28:08.274Z</time></trkpt><trkpt lat="44.2513254" lon="8.4479376"><ele>12.200000000000001</ele><time>2026-04-18T13:28:09.274Z</time></trkpt><trkpt lat="44.2512383" lon="8.4478534"><ele>13.4</ele><time>2026-04-18T13:28:10.274Z</time></trkpt><trkpt lat="44.2511528" lon="8.4477745"><ele>14.6</ele><time>2026-04-18T13:28:11.274Z</time></trkpt><trkpt lat="44.2510737" lon="8.4477045"><ele>15.8</ele><time>2026-04-18T13:28:12.274Z</time></trkpt><trkpt lat="44.2509868" lon="8.4476419"><ele>17.0</ele><time>2026-04-18T13:28:13.274Z</time></trkpt><trkpt lat="44.25089" lon="8.4475876"><ele>17.0</ele><time>2026-04-18T13:28:14.274Z</time></trkpt><trkpt lat="44.2507842" lon="8.4475315"><ele>17.0</ele><time>2026-04-18T13:28:15.274Z</time></trkpt><trkpt lat="44.2506731" lon="8.4474777"><ele>17.0</ele><time>2026-04-18T13:28:16.274Z</time></trkpt><trkpt lat="44.2505626" lon="8.447426"><ele>17.0</ele><time>2026-04-18T13:28:17.273Z</time></trkpt><trkpt lat="44.2504564" lon="8.4473726"><ele>18.8</ele><time>2026-04-18T13:28:18.274Z</time></trkpt><trkpt lat="44.2503606" lon="8.4473147"><ele>20.6</ele><time>2026-04-18T13:28:19.274Z</time></trkpt><trkpt lat="44.2502634" lon="8.4472575"><ele>22.400000000000002</ele><time>2026-04-18T13:28:20.274Z</time></trkpt><trkpt lat="44.2501696" lon="8.4471992"><ele>24.2</ele><time>2026-04-18T13:28:21.274Z</time></trkpt><trkpt lat="44.2500832" lon="8.4471418"><ele>26.0</ele><time>2026-04-18T13:28:22.274Z</time></trkpt><trkpt lat="44.2499985" lon="8.4470741"><ele>26.0</ele><time>2026-04-18T13:28:23.274Z</time></trkpt><trkpt lat="44.249913" lon="8.4470082"><ele>26.0</ele><time>2026-04-18T13:28:24.273Z</time></trkpt><trkpt lat="44.2498155" lon="8.4469296"><ele>26.0</ele><time>2026-04-18T13:28:25.274Z</time></trkpt><trkpt lat="44.249704" lon="8.4468423"><ele>26.0</ele><time>2026-04-18T13:28:26.274Z</time></trkpt><trkpt lat="44.2495862" lon="8.4467536"><ele>21.5</ele><time>2026-04-18T13:28:27.273Z</time></trkpt><trkpt lat="44.2494738" lon="8.4466626"><ele>17.0</ele><time>2026-04-18T13:28:28.273Z</time></trkpt><trkpt lat="44.2493655" lon="8.4465763"><ele>12.5</ele><time>2026-04-18T13:28:29.273Z</time></trkpt><trkpt lat="44.2492604" lon="8.4464903"><ele>8.0</ele><time>2026-04-18T13:28:30.274Z</time></trkpt><trkpt lat="44.2491551" lon="8.4464051"><ele>8.0</ele><time>2026-04-18T13:28:31.274Z</time></trkpt><trkpt lat="44.2490433" lon="8.4463163"><ele>8.0</ele><time>2026-04-18T13:28:32.274Z</time></trkpt><trkpt lat="44.2489231" lon="8.4462242"><ele>8.0</ele><time>2026-04-18T13:28:33.274Z</time></trkpt><trkpt lat="44.2487779" lon="8.4461205"><ele>8.0</ele><time>2026-04-18T13:28:34.274Z</time></trkpt><trkpt lat="44.248618" lon="8.4459927"><ele>9.666666666666666</ele><time>2026-04-18T13:28:35.274Z</time></trkpt><trkpt lat="44.2484768" lon="8.445859"><ele>11.333333333333332</ele><time>2026-04-18T13:28:36.274Z</time></trkpt><trkpt lat="44.2483399" lon="8.4457506"><ele>13.0</ele><time>2026-04-18T13:28:37.274Z</time></trkpt><trkpt lat="44.2482041" lon="8.4456589"><ele>10.333333333333332</ele><time>2026-04-18T13:28:38.274Z</time></trkpt><trkpt lat="44.2480566" lon="8.4455878"><ele>7.666666666666666</ele><time>2026-04-18T13:28:39.274Z</time></trkpt><trkpt lat="44.2478944" lon="8.4455354"><ele>5.0</ele><time>2026-04-18T13:28:40.274Z</time></trkpt><trkpt lat="44.2477188" lon="8.4454859"><ele>7.666666666666666</ele><time>2026-04-18T13:28:41.274Z</time></trkpt><trkpt lat="44.2475358" lon="8.4454153"><ele>10.333333333333332</ele><time>2026-04-18T13:28:42.274Z</time></trkpt><trkpt lat="44.2473633" lon="8.4453343"><ele>13.0</ele><time>2026-04-18T13:28:43.274Z</time></trkpt><trkpt lat="44.247203" lon="8.4452647"><ele>13.0</ele><time>2026-04-18T13:28:44.274Z</time></trkpt><trkpt lat="44.2470523" lon="8.4452005"><ele>13.0</ele><time>2026-04-18T13:28:45.273Z</time></trkpt><trkpt lat="44.2469156" lon="8.4451445"><ele>13.0</ele><time>2026-04-18T13:28:46.274Z</time></trkpt><trkpt lat="44.2467823" lon="8.4450878"><ele>13.0</ele><time>2026-04-18T13:28:47.273Z</time></trkpt><trkpt lat="44.2466531" lon="8.4450061"><ele>13.0</ele><time>2026-04-18T13:28:48.274Z</time></trkpt><trkpt lat="44.2465359" lon="8.4448962"><ele>13.0</ele><time>2026-04-18T13:28:49.275Z</time></trkpt><trkpt lat="44.246418" lon="8.4447826"><ele>13.0</ele><time>2026-04-18T13:28:50.275Z</time></trkpt><trkpt lat="44.246309" lon="8.4446481"><ele>13.0</ele><time>2026-04-18T13:28:51.275Z</time></trkpt><trkpt lat="44.2461941" lon="8.4445162"><ele>13.75</ele><time>2026-04-18T13:28:52.274Z</time></trkpt><trkpt lat="44.2460742" lon="8.4444032"><ele>14.5</ele><time>2026-04-18T13:28:53.275Z</time></trkpt><trkpt lat="44.2459473" lon="8.4443121"><ele>15.25</ele><time>2026-04-18T13:28:54.275Z</time></trkpt><trkpt lat="44.2458126" lon="8.4442453"><ele>16.0</ele><time>2026-04-18T13:28:55.275Z</time></trkpt><trkpt lat="44.2456752" lon="8.4441874"><ele>13.75</ele><time>2026-04-18T13:28:56.274Z</time></trkpt><trkpt lat="44.2455424" lon="8.4441358"><ele>11.5</ele><time>2026-04-18T13:28:57.275Z</time></trkpt><trkpt lat="44.2454223" lon="8.4440882"><ele>9.25</ele><time>2026-04-18T13:28:58.275Z</time></trkpt><trkpt lat="44.245308" lon="8.4440339"><ele>7.0</ele><time>2026-04-18T13:28:59.274Z</time></trkpt><trkpt lat="44.2451943" lon="8.4439559"><ele>7.0</ele><time>2026-04-18T13:29:00.275Z</time></trkpt><trkpt lat="44.2450745" lon="8.4438648"><ele>7.0</ele><time>2026-04-18T13:29:01.275Z</time></trkpt><trkpt lat="44.2449426" lon="8.4437761"><ele>7.0</ele><time>2026-04-18T13:29:02.275Z</time></trkpt><trkpt lat="44.2448141" lon="8.443695"><ele>7.0</ele><time>2026-04-18T13:29:03.275Z</time></trkpt><trkpt lat="44.2446882" lon="8.4436262"><ele>12.75</ele><time>2026-04-18T13:29:04.275Z</time></trkpt><trkpt lat="44.2445663" lon="8.4435706"><ele>18.5</ele><time>2026-04-18T13:29:05.275Z</time></trkpt><trkpt lat="44.2444463" lon="8.4435476"><ele>24.25</ele><time>2026-04-18T13:29:06.274Z</time></trkpt><trkpt lat="44.2443434" lon="8.4435434"><ele>30.0</ele><time>2026-04-18T13:29:07.274Z</time></trkpt><trkpt lat="44.2442418" lon="8.4435654"><ele>30.0</ele><time>2026-04-18T13:29:08.275Z</time></trkpt><trkpt lat="44.2441221" lon="8.4436071"><ele>30.0</ele><time>2026-04-18T13:29:09.275Z</time></trkpt><trkpt lat="44.2439966" lon="8.443689"><ele>30.0</ele><time>2026-04-18T13:29:10.274Z</time></trkpt><trkpt lat="44.2438827" lon="8.443788"><ele>30.0</ele><time>2026-04-18T13:29:11.274Z</time></trkpt><trkpt lat="44.2437895" lon="8.4439083"><ele>27.25</ele><time>2026-04-18T13:29:12.275Z</time></trkpt><trkpt lat="44.2436934" lon="8.444038"><ele>24.5</ele><time>2026-04-18T13:29:13.275Z</time></trkpt><trkpt lat="44.2435833" lon="8.4441804"><ele>21.75</ele><time>2026-04-18T13:29:14.275Z</time></trkpt><trkpt lat="44.2434604" lon="8.4443204"><ele>19.0</ele><time>2026-04-18T13:29:15.275Z</time></trkpt><trkpt lat="44.2433224" lon="8.4444324"><ele>19.0</ele><time>2026-04-18T13:29:16.275Z</time></trkpt><trkpt lat="44.2431683" lon="8.4445237"><ele>19.0</ele><time>2026-04-18T13:29:17.275Z</time></trkpt><trkpt lat="44.2430131" lon="8.4446043"><ele>19.0</ele><time>2026-04-18T13:29:18.275Z</time></trkpt><trkpt lat="44.2428579" lon="8.4446797"><ele>18.333333333333332</ele><time>2026-04-18T13:29:19.275Z</time></trkpt><trkpt lat="44.2427006" lon="8.4447571"><ele>17.666666666666668</ele><time>2026-04-18T13:29:20.275Z</time></trkpt><trkpt lat="44.2425444" lon="8.4448311"><ele>17.0</ele><time>2026-04-18T13:29:21.274Z</time></trkpt><trkpt lat="44.2423915" lon="8.4448971"><ele>17.75</ele><time>2026-04-18T13:29:22.275Z</time></trkpt><trkpt lat="44.2422409" lon="8.4449322"><ele>18.5</ele><time>2026-04-18T13:29:23.274Z</time></trkpt><trkpt lat="44.2420969" lon="8.444939"><ele>19.25</ele><time>2026-04-18T13:29:24.275Z</time></trkpt><trkpt lat="44.2419545" lon="8.4448947"><ele>20.0</ele><time>2026-04-18T13:29:25.275Z</time></trkpt><trkpt lat="44.241827" lon="8.4448275"><ele>20.0</ele><time>2026-04-18T13:29:26.275Z</time></trkpt><trkpt lat="44.241714" lon="8.4447355"><ele>20.0</ele><time>2026-04-18T13:29:27.275Z</time></trkpt><trkpt lat="44.2416103" lon="8.444632"><ele>20.0</ele><time>2026-04-18T13:29:28.274Z</time></trkpt><trkpt lat="44.2415138" lon="8.4445473"><ele>20.0</ele><time>2026-04-18T13:29:29.274Z</time></trkpt><trkpt lat="44.2414179" lon="8.4444854"><ele>23.5</ele><time>2026-04-18T13:29:30.274Z</time></trkpt><trkpt lat="44.2413252" lon="8.444439"><ele>27.0</ele><time>2026-04-18T13:29:31.275Z</time></trkpt><trkpt lat="44.2412156" lon="8.4444101"><ele>30.5</ele><time>2026-04-18T13:29:32.274Z</time></trkpt><trkpt lat="44.2410978" lon="8.4443774"><ele>34.0</ele><time>2026-04-18T13:29:33.274Z</time></trkpt><trkpt lat="44.2409704" lon="8.444345"><ele>34.0</ele><time>2026-04-18T13:29:34.274Z</time></trkpt><trkpt lat="44.2408402" lon="8.4442986"><ele>34.0</ele><time>2026-04-18T13:29:35.275Z</time></trkpt><trkpt lat="44.2407146" lon="8.4442349"><ele>34.0</ele><time>2026-04-18T13:29:36.275Z</time></trkpt><trkpt lat="44.240599" lon="8.4441577"><ele>34.0</ele><time>2026-04-18T13:29:37.274Z</time></trkpt><trkpt lat="44.2404972" lon="8.4440632"><ele>37.5</ele><time>2026-04-18T13:29:38.275Z</time></trkpt><trkpt lat="44.2404044" lon="8.4439512"><ele>41.0</ele><time>2026-04-18T13:29:39.275Z</time></trkpt><trkpt lat="44.2403262" lon="8.4438278"><ele>44.5</ele><time>2026-04-18T13:29:40.275Z</time></trkpt><trkpt lat="44.240251" lon="8.4436905"><ele>48.0</ele><time>2026-04-18T13:29:41.275Z</time></trkpt><trkpt lat="44.2401806" lon="8.4435589"><ele>48.0</ele><time>2026-04-18T13:29:42.275Z</time></trkpt><trkpt lat="44.2401051" lon="8.4434346"><ele>48.0</ele><time>2026-04-18T13:29:43.275Z</time></trkpt><trkpt lat="44.240034" lon="8.4433102"><ele>48.0</ele><time>2026-04-18T13:29:44.275Z</time></trkpt><trkpt lat="44.2399652" lon="8.4431853"><ele>48.0</ele><time>2026-04-18T13:29:45.274Z</time></trkpt><trkpt lat="44.2398817" lon="8.443068"><ele>50.5</ele><time>2026-04-18T13:29:46.274Z</time></trkpt><trkpt lat="44.2397857" lon="8.4429508"><ele>53.0</ele><time>2026-04-18T13:29:47.275Z</time></trkpt><trkpt lat="44.2396761" lon="8.4428448"><ele>55.5</ele><time>2026-04-18T13:29:48.275Z</time></trkpt><trkpt lat="44.2395665" lon="8.4427684"><ele>58.0</ele><time>2026-04-18T13:29:49.275Z</time></trkpt><trkpt lat="44.2394575" lon="8.4426951"><ele>58.0</ele><time>2026-04-18T13:29:50.274Z</time></trkpt><trkpt lat="44.2393535" lon="8.4426128"><ele>58.0</ele><time>2026-04-18T13:29:51.275Z</time></trkpt><trkpt lat="44.2392516" lon="8.4425324"><ele>58.0</ele><time>2026-04-18T13:29:52.275Z</time></trkpt><trkpt lat="44.2391481" lon="8.4424489"><ele>58.0</ele><time>2026-04-18T13:29:53.275Z</time></trkpt><trkpt lat="44.2390467" lon="8.4423919"><ele>55.599999999999994</ele><time>2026-04-18T13:29:54.274Z</time></trkpt><trkpt lat="44.2389432" lon="8.4423745"><ele>53.199999999999996</ele><time>2026-04-18T13:29:55.274Z</time></trkpt><trkpt lat="44.2388337" lon="8.4423841"><ele>50.8</ele><time>2026-04-18T13:29:56.275Z</time></trkpt><trkpt lat="44.2387224" lon="8.4424174"><ele>48.4</ele><time>2026-04-18T13:29:57.274Z</time></trkpt><trkpt lat="44.2386204" lon="8.4424684"><ele>46.0</ele><time>2026-04-18T13:29:58.275Z</time></trkpt><trkpt lat="44.2385223" lon="8.4425357"><ele>46.0</ele><time>2026-04-18T13:29:59.274Z</time></trkpt><trkpt lat="44.2384169" lon="8.4426022"><ele>46.0</ele><time>2026-04-18T13:30:00.275Z</time></trkpt><trkpt lat="44.2383028" lon="8.442657"><ele>46.0</ele><time>2026-04-18T13:30:01.274Z</time></trkpt><trkpt lat="44.2381806" lon="8.4426873"><ele>46.0</ele><time>2026-04-18T13:30:02.274Z</time></trkpt><trkpt lat="44.2380527" lon="8.4426926"><ele>37.75</ele><time>2026-04-18T13:30:03.274Z</time></trkpt><trkpt lat="44.2379292" lon="8.4426607"><ele>29.5</ele><time>2026-04-18T13:30:04.275Z</time></trkpt><trkpt lat="44.2378151" lon="8.442612"><ele>21.25</ele><time>2026-04-18T13:30:05.274Z</time></trkpt><trkpt lat="44.2377052" lon="8.4425623"><ele>13.0</ele><time>2026-04-18T13:30:06.275Z</time></trkpt><trkpt lat="44.2376041" lon="8.442511"><ele>13.0</ele><time>2026-04-18T13:30:07.275Z</time></trkpt><trkpt lat="44.2375248" lon="8.4424321"><ele>13.0</ele><time>2026-04-18T13:30:08.275Z</time></trkpt><trkpt lat="44.2374747" lon="8.4423375"><ele>13.0</ele><time>2026-04-18T13:30:09.275Z</time></trkpt><trkpt lat="44.2374305" lon="8.4422304"><ele>13.0</ele><time>2026-04-18T13:30:10.274Z</time></trkpt><trkpt lat="44.2373897" lon="8.4421154"><ele>13.0</ele><time>2026-04-18T13:30:11.275Z</time></trkpt><trkpt lat="44.237352" lon="8.4419845"><ele>11.5</ele><time>2026-04-18T13:30:12.275Z</time></trkpt><trkpt lat="44.2373227" lon="8.4418495"><ele>10.0</ele><time>2026-04-18T13:30:13.274Z</time></trkpt><trkpt lat="44.2373024" lon="8.4416984"><ele>8.5</ele><time>2026-04-18T13:30:14.275Z</time></trkpt><trkpt lat="44.2372911" lon="8.4415366"><ele>7.0</ele><time>2026-04-18T13:30:15.275Z</time></trkpt><trkpt lat="44.237286" lon="8.4413633"><ele>6.75</ele><time>2026-04-18T13:30:16.274Z</time></trkpt><trkpt lat="44.2372953" lon="8.4411755"><ele>6.5</ele><time>2026-04-18T13:30:17.275Z</time></trkpt><trkpt lat="44.2372982" lon="8.440993"><ele>6.25</ele><time>2026-04-18T13:30:18.275Z</time></trkpt><trkpt lat="44.2373123" lon="8.4408168"><ele>6.0</ele><time>2026-04-18T13:30:19.275Z</time></trkpt><trkpt lat="44.2373269" lon="8.440649"><ele>10.75</ele><time>2026-04-18T13:30:20.275Z</time></trkpt><trkpt lat="44.2373406" lon="8.4404843"><ele>15.5</ele><time>2026-04-18T13:30:21.275Z</time></trkpt><trkpt lat="44.2373525" lon="8.440319"><ele>20.25</ele><time>2026-04-18T13:30:22.275Z</time></trkpt><trkpt lat="44.23738" lon="8.4401483"><ele>25.0</ele><time>2026-04-18T13:30:23.275Z</time></trkpt><trkpt lat="44.2374195" lon="8.4399763"><ele>25.0</ele><time>2026-04-18T13:30:24.274Z</time></trkpt><trkpt lat="44.2374691" lon="8.4398141"><ele>25.0</ele><time>2026-04-18T13:30:25.274Z</time></trkpt><trkpt lat="44.2375267" lon="8.4396692"><ele>25.0</ele><time>2026-04-18T13:30:26.275Z</time></trkpt><trkpt lat="44.2375966" lon="8.4395339"><ele>25.0</ele><time>2026-04-18T13:30:27.274Z</time></trkpt><trkpt lat="44.2376812" lon="8.4394103"><ele>22.2</ele><time>2026-04-18T13:30:28.275Z</time></trkpt><trkpt lat="44.2377689" lon="8.4393046"><ele>19.4</ele><time>2026-04-18T13:30:29.275Z</time></trkpt><trkpt lat="44.2378483" lon="8.4392033"><ele>16.6</ele><time>2026-04-18T13:30:30.274Z</time></trkpt><trkpt lat="44.2379252" lon="8.4391025"><ele>13.8</ele><time>2026-04-18T13:30:31.275Z</time></trkpt><trkpt lat="44.2379938" lon="8.4389909"><ele>11.0</ele><time>2026-04-18T13:30:32.275Z</time></trkpt><trkpt lat="44.2380552" lon="8.4388684"><ele>9.600000000000001</ele><time>2026-04-18T13:30:33.274Z</time></trkpt><trkpt lat="44.2381037" lon="8.4387403"><ele>8.200000000000001</ele><time>2026-04-18T13:30:34.274Z</time></trkpt><trkpt lat="44.2381357" lon="8.4386092"><ele>6.800000000000001</ele><time>2026-04-18T13:30:35.275Z</time></trkpt><trkpt lat="44.2381533" lon="8.4384732"><ele>5.4</ele><time>2026-04-18T13:30:36.274Z</time></trkpt><trkpt lat="44.2381522" lon="8.4383315"><ele>4.0</ele><time>2026-04-18T13:30:37.275Z</time></trkpt><trkpt lat="44.2381287" lon="8.4381866"><ele>4.0</ele><time>2026-04-18T13:30:38.275Z</time></trkpt><trkpt lat="44.238087" lon="8.4380309"><ele>4.0</ele><time>2026-04-18T13:30:39.275Z</time></trkpt><trkpt lat="44.2380343" lon="8.4378862"><ele>4.0</ele><time>2026-04-18T13:30:40.276Z</time></trkpt><trkpt lat="44.2379757" lon="8.43774"><ele>4.0</ele><time>2026-04-18T13:30:41.275Z</time></trkpt><trkpt lat="44.2379238" lon="8.4376036"><ele>4.0</ele><time>2026-04-18T13:30:42.276Z</time></trkpt><trkpt lat="44.2378658" lon="8.4374633"><ele>4.0</ele><time>2026-04-18T13:30:43.276Z</time></trkpt><trkpt lat="44.2378094" lon="8.4373189"><ele>4.0</ele><time>2026-04-18T13:30:44.276Z</time></trkpt><trkpt lat="44.2377475" lon="8.4371657"><ele>4.0</ele><time>2026-04-18T13:30:45.276Z</time></trkpt><trkpt lat="44.2376905" lon="8.4370201"><ele>4.4</ele><time>2026-04-18T13:30:46.276Z</time></trkpt><trkpt lat="44.2376343" lon="8.4368794"><ele>4.800000000000001</ele><time>2026-04-18T13:30:47.276Z</time></trkpt><trkpt lat="44.237582" lon="8.4367476"><ele>5.199999999999999</ele><time>2026-04-18T13:30:48.276Z</time></trkpt><trkpt lat="44.2375303" lon="8.4366198"><ele>5.6</ele><time>2026-04-18T13:30:49.276Z</time></trkpt><trkpt lat="44.2374755" lon="8.4364902"><ele>6.0</ele><time>2026-04-18T13:30:50.275Z</time></trkpt><trkpt lat="44.2374292" lon="8.4363722"><ele>6.0</ele><time>2026-04-18T13:30:51.276Z</time></trkpt><trkpt lat="44.2373865" lon="8.4362602"><ele>6.0</ele><time>2026-04-18T13:30:52.275Z</time></trkpt><trkpt lat="44.2373445" lon="8.4361502"><ele>6.0</ele><time>2026-04-18T13:30:53.276Z</time></trkpt><trkpt lat="44.2373011" lon="8.4360393"><ele>6.0</ele><time>2026-04-18T13:30:54.275Z</time></trkpt><trkpt lat="44.2372539" lon="8.4359247"><ele>6.0</ele><time>2026-04-18T13:30:55.276Z</time></trkpt><trkpt lat="44.2372062" lon="8.4358006"><ele>5.6</ele><time>2026-04-18T13:30:56.275Z</time></trkpt><trkpt lat="44.2371605" lon="8.4356815"><ele>5.199999999999999</ele><time>2026-04-18T13:30:57.276Z</time></trkpt><trkpt lat="44.2371143" lon="8.4355549"><ele>4.800000000000001</ele><time>2026-04-18T13:30:58.276Z</time></trkpt><trkpt lat="44.2370658" lon="8.4354217"><ele>4.4</ele><time>2026-04-18T13:30:59.276Z</time></trkpt><trkpt lat="44.2370067" lon="8.4352893"><ele>4.0</ele><time>2026-04-18T13:31:00.275Z</time></trkpt><trkpt lat="44.2369567" lon="8.4351671"><ele>4.0</ele><time>2026-04-18T13:31:01.276Z</time></trkpt><trkpt lat="44.2369115" lon="8.4350469"><ele>4.0</ele><time>2026-04-18T13:31:02.276Z</time></trkpt><trkpt lat="44.2368628" lon="8.4349263"><ele>4.0</ele><time>2026-04-18T13:31:03.276Z</time></trkpt><trkpt lat="44.2368136" lon="8.4348071"><ele>4.0</ele><time>2026-04-18T13:31:04.276Z</time></trkpt><trkpt lat="44.2367695" lon="8.4346811"><ele>4.0</ele><time>2026-04-18T13:31:05.276Z</time></trkpt><trkpt lat="44.2367218" lon="8.4345523"><ele>4.5</ele><time>2026-04-18T13:31:06.276Z</time></trkpt><trkpt lat="44.2366675" lon="8.4344253"><ele>5.0</ele><time>2026-04-18T13:31:07.276Z</time></trkpt><trkpt lat="44.2366164" lon="8.434297"><ele>5.5</ele><time>2026-04-18T13:31:08.276Z</time></trkpt><trkpt lat="44.2365613" lon="8.4341655"><ele>6.0</ele><time>2026-04-18T13:31:09.276Z</time></trkpt><trkpt lat="44.2364885" lon="8.434014"><ele>5.5</ele><time>2026-04-18T13:31:10.276Z</time></trkpt><trkpt lat="44.236416" lon="8.4338395"><ele>5.0</ele><time>2026-04-18T13:31:11.276Z</time></trkpt><trkpt lat="44.2363519" lon="8.4336664"><ele>4.5</ele><time>2026-04-18T13:31:12.276Z</time></trkpt><trkpt lat="44.2362871" lon="8.4335074"><ele>4.0</ele><time>2026-04-18T13:31:13.276Z</time></trkpt><trkpt lat="44.2362236" lon="8.4333551"><ele>4.0</ele><time>2026-04-18T13:31:14.276Z</time></trkpt><trkpt lat="44.2361608" lon="8.4332146"><ele>4.0</ele><time>2026-04-18T13:31:15.276Z</time></trkpt><trkpt lat="44.2361054" lon="8.4330806"><ele>4.0</ele><time>2026-04-18T13:31:16.276Z</time></trkpt><trkpt lat="44.2360472" lon="8.432949"><ele>4.0</ele><time>2026-04-18T13:31:17.276Z</time></trkpt><trkpt lat="44.2359907" lon="8.4328149"><ele>5.0</ele><time>2026-04-18T13:31:18.275Z</time></trkpt><trkpt lat="44.2359319" lon="8.4326851"><ele>6.0</ele><time>2026-04-18T13:31:19.276Z</time></trkpt><trkpt lat="44.235875" lon="8.4325538"><ele>7.0</ele><time>2026-04-18T13:31:20.276Z</time></trkpt><trkpt lat="44.2358158" lon="8.4324273"><ele>8.0</ele><time>2026-04-18T13:31:21.275Z</time></trkpt><trkpt lat="44.2357596" lon="8.4323009"><ele>9.0</ele><time>2026-04-18T13:31:22.275Z</time></trkpt><trkpt lat="44.2356997" lon="8.4321845"><ele>10.0</ele><time>2026-04-18T13:31:23.276Z</time></trkpt><trkpt lat="44.2356451" lon="8.4320599"><ele>11.0</ele><time>2026-04-18T13:31:24.275Z</time></trkpt><trkpt lat="44.2355846" lon="8.4319421"><ele>11.999999999999998</ele><time>2026-04-18T13:31:25.275Z</time></trkpt><trkpt lat="44.2355303" lon="8.4318136"><ele>13.0</ele><time>2026-04-18T13:31:26.275Z</time></trkpt><trkpt lat="44.2354664" lon="8.4316834"><ele>14.0</ele><time>2026-04-18T13:31:27.276Z</time></trkpt><trkpt lat="44.2354103" lon="8.4315554"><ele>12.0</ele><time>2026-04-18T13:31:28.276Z</time></trkpt><trkpt lat="44.2353574" lon="8.4314406"><ele>9.999999999999998</ele><time>2026-04-18T13:31:29.276Z</time></trkpt><trkpt lat="44.2352968" lon="8.4313169"><ele>8.0</ele><time>2026-04-18T13:31:30.276Z</time></trkpt><trkpt lat="44.2352361" lon="8.4311874"><ele>6.0</ele><time>2026-04-18T13:31:31.276Z</time></trkpt><trkpt lat="44.2351763" lon="8.4310635"><ele>4.0</ele><time>2026-04-18T13:31:32.275Z</time></trkpt><trkpt lat="44.2351173" lon="8.4309428"><ele>4.0</ele><time>2026-04-18T13:31:33.276Z</time></trkpt><trkpt lat="44.2350578" lon="8.4308258"><ele>4.0</ele><time>2026-04-18T13:31:34.276Z</time></trkpt><trkpt lat="44.2350008" lon="8.4307128"><ele>4.0</ele><time>2026-04-18T13:31:35.276Z</time></trkpt><trkpt lat="44.2349438" lon="8.430594"><ele>4.0</ele><time>2026-04-18T13:31:36.276Z</time></trkpt><trkpt lat="44.2348885" lon="8.4304862"><ele>4.0</ele><time>2026-04-18T13:31:37.275Z</time></trkpt><trkpt lat="44.2348309" lon="8.4303724"><ele>3.6</ele><time>2026-04-18T13:31:38.275Z</time></trkpt><trkpt lat="44.2347693" lon="8.4302579"><ele>3.2</ele><time>2026-04-18T13:31:39.276Z</time></trkpt><trkpt lat="44.2347103" lon="8.4301485"><ele>2.8000000000000003</ele><time>2026-04-18T13:31:40.276Z</time></trkpt><trkpt lat="44.2346514" lon="8.430029"><ele>2.4000000000000004</ele><time>2026-04-18T13:31:41.276Z</time></trkpt><trkpt lat="44.2345921" lon="8.4299171"><ele>2.0</ele><time>2026-04-18T13:31:42.275Z</time></trkpt><trkpt lat="44.2345245" lon="8.4297999"><ele>2.0</ele><time>2026-04-18T13:31:43.276Z</time></trkpt><trkpt lat="44.2344579" lon="8.4296732"><ele>2.0</ele><time>2026-04-18T13:31:44.276Z</time></trkpt><trkpt lat="44.2343925" lon="8.4295498"><ele>2.0</ele><time>2026-04-18T13:31:45.276Z</time></trkpt><trkpt lat="44.2343258" lon="8.4294317"><ele>2.0</ele><time>2026-04-18T13:31:46.276Z</time></trkpt><trkpt lat="44.2342597" lon="8.4293082"><ele>2.0</ele><time>2026-04-18T13:31:47.276Z</time></trkpt><trkpt lat="44.2341902" lon="8.4291865"><ele>2.5</ele><time>2026-04-18T13:31:48.276Z</time></trkpt><trkpt lat="44.2341164" lon="8.4290588"><ele>3.0</ele><time>2026-04-18T13:31:49.276Z</time></trkpt><trkpt lat="44.2340459" lon="8.4289308"><ele>3.5</ele><time>2026-04-18T13:31:50.275Z</time></trkpt><trkpt lat="44.2339756" lon="8.4288059"><ele>4.0</ele><time>2026-04-18T13:31:51.276Z</time></trkpt><trkpt lat="44.2339003" lon="8.428678"><ele>4.25</ele><time>2026-04-18T13:31:52.276Z</time></trkpt><trkpt lat="44.2338259" lon="8.4285447"><ele>4.5</ele><time>2026-04-18T13:31:53.276Z</time></trkpt><trkpt lat="44.2337516" lon="8.4284145"><ele>4.75</ele><time>2026-04-18T13:31:54.276Z</time></trkpt><trkpt lat="44.2336714" lon="8.4282985"><ele>5.0</ele><time>2026-04-18T13:31:55.276Z</time></trkpt><trkpt lat="44.2335762" lon="8.4282077"><ele>5.0</ele><time>2026-04-18T13:31:56.275Z</time></trkpt><trkpt lat="44.2334675" lon="8.4281285"><ele>5.0</ele><time>2026-04-18T13:31:57.275Z</time></trkpt><trkpt lat="44.2333347" lon="8.4280564"><ele>5.0</ele><time>2026-04-18T13:31:58.276Z</time></trkpt><trkpt lat="44.2331775" lon="8.4279828"><ele>5.0</ele><time>2026-04-18T13:31:59.276Z</time></trkpt><trkpt lat="44.23303" lon="8.4279102"><ele>6.0</ele><time>2026-04-18T13:32:00.275Z</time></trkpt><trkpt lat="44.2328998" lon="8.4278398"><ele>7.0</ele><time>2026-04-18T13:32:01.276Z</time></trkpt><trkpt lat="44.2327876" lon="8.4277545"><ele>8.0</ele><time>2026-04-18T13:32:02.276Z</time></trkpt><trkpt lat="44.2326878" lon="8.4276674"><ele>9.0</ele><time>2026-04-18T13:32:03.276Z</time></trkpt><trkpt lat="44.2326029" lon="8.4275532"><ele>9.0</ele><time>2026-04-18T13:32:04.276Z</time></trkpt><trkpt lat="44.2325304" lon="8.4274245"><ele>9.0</ele><time>2026-04-18T13:32:05.275Z</time></trkpt><trkpt lat="44.232476" lon="8.4272927"><ele>9.0</ele><time>2026-04-18T13:32:06.275Z</time></trkpt><trkpt lat="44.2324291" lon="8.4271446"><ele>9.0</ele><time>2026-04-18T13:32:07.275Z</time></trkpt><trkpt lat="44.2323848" lon="8.4269944"><ele>10.75</ele><time>2026-04-18T13:32:08.275Z</time></trkpt><trkpt lat="44.232335" lon="8.4268438"><ele>12.5</ele><time>2026-04-18T13:32:09.276Z</time></trkpt><trkpt lat="44.2322817" lon="8.4266903"><ele>14.25</ele><time>2026-04-18T13:32:10.276Z</time></trkpt><trkpt lat="44.2322271" lon="8.4265411"><ele>16.0</ele><time>2026-04-18T13:32:11.276Z</time></trkpt><trkpt lat="44.2321666" lon="8.4263915"><ele>14.5</ele><time>2026-04-18T13:32:12.276Z</time></trkpt><trkpt lat="44.2320969" lon="8.4262433"><ele>13.0</ele><time>2026-04-18T13:32:13.276Z</time></trkpt><trkpt lat="44.2320183" lon="8.426102"><ele>11.5</ele><time>2026-04-18T13:32:14.275Z</time></trkpt><trkpt lat="44.2319428" lon="8.425966"><ele>10.0</ele><time>2026-04-18T13:32:15.276Z</time></trkpt><trkpt lat="44.2318708" lon="8.4258351"><ele>10.0</ele><time>2026-04-18T13:32:16.276Z</time></trkpt><trkpt lat="44.2317976" lon="8.4257007"><ele>10.0</ele><time>2026-04-18T13:32:17.276Z</time></trkpt><trkpt lat="44.2317285" lon="8.4255674"><ele>10.0</ele><time>2026-04-18T13:32:18.276Z</time></trkpt><trkpt lat="44.2316542" lon="8.4254358"><ele>10.0</ele><time>2026-04-18T13:32:19.275Z</time></trkpt><trkpt lat="44.2315739" lon="8.425291"><ele>10.666666666666668</ele><time>2026-04-18T13:32:20.276Z</time></trkpt><trkpt lat="44.231479" lon="8.4251276"><ele>11.333333333333334</ele><time>2026-04-18T13:32:21.276Z</time></trkpt><trkpt lat="44.2313683" lon="8.4249378"><ele>12.0</ele><time>2026-04-18T13:32:22.276Z</time></trkpt><trkpt lat="44.2312637" lon="8.4247536"><ele>12.5</ele><time>2026-04-18T13:32:23.276Z</time></trkpt><trkpt lat="44.2311654" lon="8.4245842"><ele>13.0</ele><time>2026-04-18T13:32:24.276Z</time></trkpt><trkpt lat="44.2310727" lon="8.4244307"><ele>13.5</ele><time>2026-04-18T13:32:25.276Z</time></trkpt><trkpt lat="44.2309838" lon="8.424289"><ele>14.0</ele><time>2026-04-18T13:32:26.275Z</time></trkpt><trkpt lat="44.2309002" lon="8.4241644"><ele>14.0</ele><time>2026-04-18T13:32:27.275Z</time></trkpt><trkpt lat="44.230823" lon="8.4240457"><ele>13.999999999999998</ele><time>2026-04-18T13:32:28.275Z</time></trkpt><trkpt lat="44.2307574" lon="8.4239517"><ele>13.999999999999998</ele><time>2026-04-18T13:32:29.275Z</time></trkpt><trkpt lat="44.2307004" lon="8.4238678"><ele>14.0</ele><time>2026-04-18T13:32:30.276Z</time></trkpt><trkpt lat="44.230657" lon="8.4237973"><ele>14.0</ele><time>2026-04-18T13:32:31.276Z</time></trkpt><trkpt lat="44.2305805" lon="8.4236537"><ele>11.75</ele><time>2026-04-18T13:32:33.276Z</time></trkpt><trkpt lat="44.230518" lon="8.4235513"><ele>9.5</ele><time>2026-04-18T13:32:34.276Z</time></trkpt><trkpt lat="44.2304436" lon="8.423439"><ele>7.25</ele><time>2026-04-18T13:32:35.276Z</time></trkpt><trkpt lat="44.230355" lon="8.423309"><ele>5.0</ele><time>2026-04-18T13:32:36.276Z</time></trkpt><trkpt lat="44.2302672" lon="8.4231616"><ele>5.0</ele><time>2026-04-18T13:32:37.276Z</time></trkpt><trkpt lat="44.2301776" lon="8.4229841"><ele>5.0</ele><time>2026-04-18T13:32:38.276Z</time></trkpt><trkpt lat="44.2300735" lon="8.4227902"><ele>5.0</ele><time>2026-04-18T13:32:39.276Z</time></trkpt><trkpt lat="44.2299655" lon="8.4225811"><ele>7.0</ele><time>2026-04-18T13:32:40.275Z</time></trkpt><trkpt lat="44.2298391" lon="8.422372"><ele>9.0</ele><time>2026-04-18T13:32:41.275Z</time></trkpt><trkpt lat="44.2297134" lon="8.4221687"><ele>11.0</ele><time>2026-04-18T13:32:42.276Z</time></trkpt><trkpt lat="44.2295829" lon="8.4219662"><ele>11.0</ele><time>2026-04-18T13:32:43.275Z</time></trkpt><trkpt lat="44.2294459" lon="8.421769"><ele>11.0</ele><time>2026-04-18T13:32:44.275Z</time></trkpt><trkpt lat="44.2293207" lon="8.4215822"><ele>11.0</ele><time>2026-04-18T13:32:45.275Z</time></trkpt><trkpt lat="44.2292119" lon="8.4214119"><ele>10.75</ele><time>2026-04-18T13:32:46.276Z</time></trkpt><trkpt lat="44.2291126" lon="8.4212524"><ele>10.5</ele><time>2026-04-18T13:32:47.276Z</time></trkpt><trkpt lat="44.2290307" lon="8.421098"><ele>10.25</ele><time>2026-04-18T13:32:48.276Z</time></trkpt><trkpt lat="44.2289603" lon="8.4209497"><ele>10.0</ele><time>2026-04-18T13:32:49.276Z</time></trkpt><trkpt lat="44.2288991" lon="8.4208033"><ele>9.25</ele><time>2026-04-18T13:32:50.276Z</time></trkpt><trkpt lat="44.2288367" lon="8.4206405"><ele>8.5</ele><time>2026-04-18T13:32:51.276Z</time></trkpt><trkpt lat="44.2287712" lon="8.420459"><ele>7.75</ele><time>2026-04-18T13:32:52.276Z</time></trkpt><trkpt lat="44.2287112" lon="8.4202659"><ele>7.0</ele><time>2026-04-18T13:32:53.276Z</time></trkpt><trkpt lat="44.2286482" lon="8.4200656"><ele>7.0</ele><time>2026-04-18T13:32:54.275Z</time></trkpt><trkpt lat="44.2285906" lon="8.419862"><ele>7.0</ele><time>2026-04-18T13:32:55.276Z</time></trkpt><trkpt lat="44.2285368" lon="8.4196596"><ele>7.0</ele><time>2026-04-18T13:32:56.276Z</time></trkpt><trkpt lat="44.228486" lon="8.4194643"><ele>7.5</ele><time>2026-04-18T13:32:57.276Z</time></trkpt><trkpt lat="44.2284404" lon="8.4192728"><ele>8.0</ele><time>2026-04-18T13:32:58.276Z</time></trkpt><trkpt lat="44.2283985" lon="8.4190979"><ele>8.5</ele><time>2026-04-18T13:32:59.276Z</time></trkpt><trkpt lat="44.2283614" lon="8.4189362"><ele>9.0</ele><time>2026-04-18T13:33:00.275Z</time></trkpt><trkpt lat="44.2283185" lon="8.4187689"><ele>9.25</ele><time>2026-04-18T13:33:01.276Z</time></trkpt><trkpt lat="44.2282715" lon="8.4186057"><ele>9.5</ele><time>2026-04-18T13:33:02.276Z</time></trkpt><trkpt lat="44.2282118" lon="8.4184404"><ele>9.75</ele><time>2026-04-18T13:33:03.276Z</time></trkpt><trkpt lat="44.2281419" lon="8.418278"><ele>10.0</ele><time>2026-04-18T13:33:04.276Z</time></trkpt><trkpt lat="44.2280521" lon="8.4180747"><ele>8.666666666666668</ele><time>2026-04-18T13:33:05.276Z</time></trkpt><trkpt lat="44.2279469" lon="8.4178677"><ele>7.333333333333334</ele><time>2026-04-18T13:33:06.276Z</time></trkpt><trkpt lat="44.2278398" lon="8.4176625"><ele>6.0</ele><time>2026-04-18T13:33:07.276Z</time></trkpt><trkpt lat="44.2277163" lon="8.4174615"><ele>6.0</ele><time>2026-04-18T13:33:08.276Z</time></trkpt><trkpt lat="44.2275855" lon="8.4172687"><ele>6.0</ele><time>2026-04-18T13:33:09.276Z</time></trkpt><trkpt lat="44.2274494" lon="8.4170901"><ele>6.0</ele><time>2026-04-18T13:33:10.276Z</time></trkpt><trkpt lat="44.2273179" lon="8.4169269"><ele>6.0</ele><time>2026-04-18T13:33:11.275Z</time></trkpt><trkpt lat="44.2271849" lon="8.4167695"><ele>6.0</ele><time>2026-04-18T13:33:12.276Z</time></trkpt><trkpt lat="44.2270468" lon="8.4166135"><ele>6.0</ele><time>2026-04-18T13:33:13.275Z</time></trkpt><trkpt lat="44.2269022" lon="8.4164666"><ele>6.0</ele><time>2026-04-18T13:33:14.276Z</time></trkpt><trkpt lat="44.2267549" lon="8.41632"><ele>6.0</ele><time>2026-04-18T13:33:15.276Z</time></trkpt><trkpt lat="44.2266068" lon="8.4161829"><ele>6.0</ele><time>2026-04-18T13:33:16.276Z</time></trkpt><trkpt lat="44.2264595" lon="8.4160639"><ele>6.0</ele><time>2026-04-18T13:33:17.275Z</time></trkpt><trkpt lat="44.2263201" lon="8.4159515"><ele>6.0</ele><time>2026-04-18T13:33:18.276Z</time></trkpt><trkpt lat="44.2261958" lon="8.4158469"><ele>6.0</ele><time>2026-04-18T13:33:19.276Z</time></trkpt><trkpt lat="44.2260811" lon="8.4157485"><ele>6.0</ele><time>2026-04-18T13:33:20.276Z</time></trkpt><trkpt lat="44.2259677" lon="8.4156594"><ele>6.0</ele><time>2026-04-18T13:33:21.276Z</time></trkpt><trkpt lat="44.2258506" lon="8.4155526"><ele>6.0</ele><time>2026-04-18T13:33:22.276Z</time></trkpt><trkpt lat="44.2257279" lon="8.4154403"><ele>6.0</ele><time>2026-04-18T13:33:23.276Z</time></trkpt><trkpt lat="44.2256031" lon="8.4153331"><ele>6.0</ele><time>2026-04-18T13:33:24.276Z</time></trkpt><trkpt lat="44.2254859" lon="8.415238"><ele>5.75</ele><time>2026-04-18T13:33:25.275Z</time></trkpt><trkpt lat="44.2253644" lon="8.4151421"><ele>5.5</ele><time>2026-04-18T13:33:26.276Z</time></trkpt><trkpt lat="44.2252373" lon="8.4150512"><ele>5.25</ele><time>2026-04-18T13:33:27.276Z</time></trkpt><trkpt lat="44.2251199" lon="8.4149597"><ele>5.0</ele><time>2026-04-18T13:33:28.276Z</time></trkpt><trkpt lat="44.2249948" lon="8.4148728"><ele>5.0</ele><time>2026-04-18T13:33:29.276Z</time></trkpt><trkpt lat="44.2248746" lon="8.414789"><ele>5.0</ele><time>2026-04-18T13:33:30.276Z</time></trkpt><trkpt lat="44.2247535" lon="8.4147159"><ele>5.0</ele><time>2026-04-18T13:33:31.275Z</time></trkpt><trkpt lat="44.2246342" lon="8.4146545"><ele>5.0</ele><time>2026-04-18T13:33:32.276Z</time></trkpt><trkpt lat="44.2245176" lon="8.4145985"><ele>4.75</ele><time>2026-04-18T13:33:33.276Z</time></trkpt><trkpt lat="44.2243968" lon="8.414546"><ele>4.5</ele><time>2026-04-18T13:33:34.276Z</time></trkpt><trkpt lat="44.2242753" lon="8.4145034"><ele>4.25</ele><time>2026-04-18T13:33:35.276Z</time></trkpt><trkpt lat="44.2241595" lon="8.4144682"><ele>4.0</ele><time>2026-04-18T13:33:36.276Z</time></trkpt><trkpt lat="44.2240425" lon="8.4144287"><ele>3.75</ele><time>2026-04-18T13:33:37.275Z</time></trkpt><trkpt lat="44.2239292" lon="8.4143949"><ele>3.5</ele><time>2026-04-18T13:33:38.276Z</time></trkpt><trkpt lat="44.223813" lon="8.414365"><ele>3.25</ele><time>2026-04-18T13:33:39.276Z</time></trkpt><trkpt lat="44.2236968" lon="8.4143337"><ele>3.0</ele><time>2026-04-18T13:33:40.276Z</time></trkpt><trkpt lat="44.2235634" lon="8.4143122"><ele>3.0</ele><time>2026-04-18T13:33:41.276Z</time></trkpt><trkpt lat="44.2234198" lon="8.4142921"><ele>3.0</ele><time>2026-04-18T13:33:42.276Z</time></trkpt><trkpt lat="44.2232688" lon="8.4142863"><ele>3.0</ele><time>2026-04-18T13:33:43.276Z</time></trkpt><trkpt lat="44.223116" lon="8.4142819"><ele>3.0</ele><time>2026-04-18T13:33:44.277Z</time></trkpt><trkpt lat="44.2229474" lon="8.4142818"><ele>3.333333333333333</ele><time>2026-04-18T13:33:45.277Z</time></trkpt><trkpt lat="44.2227577" lon="8.4142976"><ele>3.6666666666666665</ele><time>2026-04-18T13:33:46.276Z</time></trkpt><trkpt lat="44.2225507" lon="8.414297"><ele>4.0</ele><time>2026-04-18T13:33:47.277Z</time></trkpt><trkpt lat="44.2223358" lon="8.4143179"><ele>4.0</ele><time>2026-04-18T13:33:48.277Z</time></trkpt><trkpt lat="44.2221165" lon="8.4143343"><ele>4.0</ele><time>2026-04-18T13:33:49.277Z</time></trkpt><trkpt lat="44.2219098" lon="8.4143528"><ele>4.0</ele><time>2026-04-18T13:33:50.277Z</time></trkpt><trkpt lat="44.2217064" lon="8.4143658"><ele>4.0</ele><time>2026-04-18T13:33:51.277Z</time></trkpt><trkpt lat="44.221511" lon="8.4143803"><ele>4.0</ele><time>2026-04-18T13:33:52.276Z</time></trkpt><trkpt lat="44.2213274" lon="8.414397"><ele>4.0</ele><time>2026-04-18T13:33:53.277Z</time></trkpt><trkpt lat="44.2211447" lon="8.4144066"><ele>4.333333333333333</ele><time>2026-04-18T13:33:54.277Z</time></trkpt><trkpt lat="44.2209633" lon="8.4144218"><ele>4.666666666666667</ele><time>2026-04-18T13:33:55.276Z</time></trkpt><trkpt lat="44.2207898" lon="8.414441"><ele>5.0</ele><time>2026-04-18T13:33:56.277Z</time></trkpt><trkpt lat="44.2206331" lon="8.4144555"><ele>6.4</ele><time>2026-04-18T13:33:57.277Z</time></trkpt><trkpt lat="44.2204967" lon="8.4144761"><ele>7.8</ele><time>2026-04-18T13:33:58.277Z</time></trkpt><trkpt lat="44.2203828" lon="8.4144986"><ele>9.2</ele><time>2026-04-18T13:33:59.277Z</time></trkpt><trkpt lat="44.2202898" lon="8.4145171"><ele>10.6</ele><time>2026-04-18T13:34:00.277Z</time></trkpt><trkpt lat="44.2202042" lon="8.4145306"><ele>12.0</ele><time>2026-04-18T13:34:01.277Z</time></trkpt><trkpt lat="44.2201341" lon="8.4145369"><ele>12.0</ele><time>2026-04-18T13:34:02.277Z</time></trkpt><trkpt lat="44.2200707" lon="8.4145416"><ele>12.0</ele><time>2026-04-18T13:34:03.277Z</time></trkpt><trkpt lat="44.2199906" lon="8.4145255"><ele>12.0</ele><time>2026-04-18T13:34:04.277Z</time></trkpt><trkpt lat="44.2199038" lon="8.4144954"><ele>12.0</ele><time>2026-04-18T13:34:05.277Z</time></trkpt><trkpt lat="44.219814" lon="8.4145005"><ele>12.0</ele><time>2026-04-18T13:34:06.277Z</time></trkpt><trkpt lat="44.2197324" lon="8.4145662"><ele>12.0</ele><time>2026-04-18T13:34:07.276Z</time></trkpt><trkpt lat="44.2196664" lon="8.4146731"><ele>10.0</ele><time>2026-04-18T13:34:08.277Z</time></trkpt><trkpt lat="44.2195928" lon="8.414764"><ele>8.0</ele><time>2026-04-18T13:34:09.276Z</time></trkpt><trkpt lat="44.2194665" lon="8.4147644"><ele>6.0</ele><time>2026-04-18T13:34:10.276Z</time></trkpt><trkpt lat="44.2193115" lon="8.4147313"><ele>4.0</ele><time>2026-04-18T13:34:11.277Z</time></trkpt><trkpt lat="44.2191497" lon="8.4146949"><ele>3.6666666666666665</ele><time>2026-04-18T13:34:12.277Z</time></trkpt><trkpt lat="44.2189714" lon="8.4146983"><ele>3.333333333333333</ele><time>2026-04-18T13:34:13.277Z</time></trkpt><trkpt lat="44.2187848" lon="8.4147086"><ele>3.0</ele><time>2026-04-18T13:34:14.277Z</time></trkpt><trkpt lat="44.2185951" lon="8.4147342"><ele>3.0</ele><time>2026-04-18T13:34:15.277Z</time></trkpt><trkpt lat="44.2184167" lon="8.4147618"><ele>3.0</ele><time>2026-04-18T13:34:16.276Z</time></trkpt><trkpt lat="44.2182418" lon="8.4147958"><ele>3.0</ele><time>2026-04-18T13:34:17.277Z</time></trkpt><trkpt lat="44.2180811" lon="8.4148164"><ele>3.75</ele><time>2026-04-18T13:34:18.276Z</time></trkpt><trkpt lat="44.2179282" lon="8.4148379"><ele>4.5</ele><time>2026-04-18T13:34:19.277Z</time></trkpt><trkpt lat="44.2177894" lon="8.4148628"><ele>5.25</ele><time>2026-04-18T13:34:20.276Z</time></trkpt><trkpt lat="44.2176582" lon="8.4148877"><ele>6.0</ele><time>2026-04-18T13:34:21.277Z</time></trkpt><trkpt lat="44.2175274" lon="8.414908"><ele>6.0</ele><time>2026-04-18T13:34:22.277Z</time></trkpt><trkpt lat="44.217398" lon="8.414929"><ele>6.0</ele><time>2026-04-18T13:34:23.277Z</time></trkpt><trkpt lat="44.217278" lon="8.4149606"><ele>6.0</ele><time>2026-04-18T13:34:24.277Z</time></trkpt><trkpt lat="44.2171635" lon="8.4149934"><ele>6.0</ele><time>2026-04-18T13:34:25.276Z</time></trkpt><trkpt lat="44.2170446" lon="8.4150277"><ele>8.0</ele><time>2026-04-18T13:34:26.276Z</time></trkpt><trkpt lat="44.2169252" lon="8.4150545"><ele>10.0</ele><time>2026-04-18T13:34:27.277Z</time></trkpt><trkpt lat="44.2168051" lon="8.4150891"><ele>12.0</ele><time>2026-04-18T13:34:28.277Z</time></trkpt><trkpt lat="44.2166915" lon="8.415121"><ele>14.0</ele><time>2026-04-18T13:34:29.277Z</time></trkpt><trkpt lat="44.2165716" lon="8.4151585"><ele>16.25</ele><time>2026-04-18T13:34:30.277Z</time></trkpt><trkpt lat="44.2164504" lon="8.4151989"><ele>18.5</ele><time>2026-04-18T13:34:31.277Z</time></trkpt><trkpt lat="44.2163289" lon="8.4152305"><ele>20.75</ele><time>2026-04-18T13:34:32.277Z</time></trkpt><trkpt lat="44.2162074" lon="8.4152684"><ele>23.0</ele><time>2026-04-18T13:34:33.276Z</time></trkpt><trkpt lat="44.2160881" lon="8.4153206"><ele>23.0</ele><time>2026-04-18T13:34:34.277Z</time></trkpt><trkpt lat="44.2159696" lon="8.4153743"><ele>23.0</ele><time>2026-04-18T13:34:35.277Z</time></trkpt><trkpt lat="44.2158556" lon="8.4154372"><ele>23.0</ele><time>2026-04-18T13:34:36.277Z</time></trkpt><trkpt lat="44.2157448" lon="8.4155128"><ele>23.0</ele><time>2026-04-18T13:34:37.277Z</time></trkpt><trkpt lat="44.2156392" lon="8.4155871"><ele>22.2</ele><time>2026-04-18T13:34:38.276Z</time></trkpt><trkpt lat="44.215543" lon="8.4156508"><ele>21.4</ele><time>2026-04-18T13:34:39.276Z</time></trkpt><trkpt lat="44.2154407" lon="8.4157244"><ele>20.599999999999998</ele><time>2026-04-18T13:34:40.276Z</time></trkpt><trkpt lat="44.2153412" lon="8.4158053"><ele>19.799999999999997</ele><time>2026-04-18T13:34:41.277Z</time></trkpt><trkpt lat="44.2152473" lon="8.4158842"><ele>19.0</ele><time>2026-04-18T13:34:42.276Z</time></trkpt><trkpt lat="44.2151571" lon="8.4159497"><ele>19.0</ele><time>2026-04-18T13:34:43.277Z</time></trkpt><trkpt lat="44.2150638" lon="8.4160235"><ele>19.0</ele><time>2026-04-18T13:34:44.277Z</time></trkpt><trkpt lat="44.2149674" lon="8.4161001"><ele>19.0</ele><time>2026-04-18T13:34:45.277Z</time></trkpt><trkpt lat="44.2148657" lon="8.416168"><ele>19.0</ele><time>2026-04-18T13:34:46.277Z</time></trkpt><trkpt lat="44.2147644" lon="8.4162369"><ele>19.0</ele><time>2026-04-18T13:34:47.277Z</time></trkpt><trkpt lat="44.2146649" lon="8.4162953"><ele>17.4</ele><time>2026-04-18T13:34:48.277Z</time></trkpt><trkpt lat="44.2145643" lon="8.4163398"><ele>15.799999999999999</ele><time>2026-04-18T13:34:49.276Z</time></trkpt><trkpt lat="44.2144618" lon="8.4163731"><ele>14.2</ele><time>2026-04-18T13:34:50.277Z</time></trkpt><trkpt lat="44.2143614" lon="8.4164021"><ele>12.600000000000001</ele><time>2026-04-18T13:34:51.277Z</time></trkpt><trkpt lat="44.2142558" lon="8.4164345"><ele>11.0</ele><time>2026-04-18T13:34:52.277Z</time></trkpt><trkpt lat="44.2141449" lon="8.4164616"><ele>11.0</ele><time>2026-04-18T13:34:53.277Z</time></trkpt><trkpt lat="44.2140262" lon="8.4164912"><ele>11.0</ele><time>2026-04-18T13:34:54.277Z</time></trkpt><trkpt lat="44.213911" lon="8.4165094"><ele>11.0</ele><time>2026-04-18T13:34:55.277Z</time></trkpt><trkpt lat="44.2137979" lon="8.4165289"><ele>11.0</ele><time>2026-04-18T13:34:56.277Z</time></trkpt><trkpt lat="44.2136829" lon="8.4165508"><ele>12.0</ele><time>2026-04-18T13:34:57.277Z</time></trkpt><trkpt lat="44.2135613" lon="8.4165763"><ele>13.0</ele><time>2026-04-18T13:34:58.277Z</time></trkpt><trkpt lat="44.2134364" lon="8.4165977"><ele>14.0</ele><time>2026-04-18T13:34:59.277Z</time></trkpt><trkpt lat="44.2133178" lon="8.4166236"><ele>15.0</ele><time>2026-04-18T13:35:00.276Z</time></trkpt><trkpt lat="44.2132057" lon="8.4166464"><ele>15.0</ele><time>2026-04-18T13:35:01.277Z</time></trkpt><trkpt lat="44.2130973" lon="8.4166623"><ele>15.0</ele><time>2026-04-18T13:35:02.277Z</time></trkpt><trkpt lat="44.2129889" lon="8.41668"><ele>15.0</ele><time>2026-04-18T13:35:03.276Z</time></trkpt><trkpt lat="44.212872" lon="8.4166938"><ele>15.0</ele><time>2026-04-18T13:35:04.277Z</time></trkpt><trkpt lat="44.2127536" lon="8.4167212"><ele>15.0</ele><time>2026-04-18T13:35:05.277Z</time></trkpt><trkpt lat="44.212635" lon="8.4167582"><ele>15.0</ele><time>2026-04-18T13:35:06.277Z</time></trkpt><trkpt lat="44.2125207" lon="8.4168152"><ele>15.0</ele><time>2026-04-18T13:35:07.277Z</time></trkpt><trkpt lat="44.2124096" lon="8.4168901"><ele>15.0</ele><time>2026-04-18T13:35:08.277Z</time></trkpt><trkpt lat="44.2123034" lon="8.4169853"><ele>15.75</ele><time>2026-04-18T13:35:09.277Z</time></trkpt><trkpt lat="44.2121963" lon="8.4170924"><ele>16.5</ele><time>2026-04-18T13:35:10.276Z</time></trkpt><trkpt lat="44.2120925" lon="8.4172165"><ele>17.25</ele><time>2026-04-18T13:35:11.276Z</time></trkpt><trkpt lat="44.2119823" lon="8.4173544"><ele>18.0</ele><time>2026-04-18T13:35:12.277Z</time></trkpt><trkpt lat="44.2118592" lon="8.4174877"><ele>18.0</ele><time>2026-04-18T13:35:13.276Z</time></trkpt><trkpt lat="44.2117463" lon="8.4176082"><ele>18.0</ele><time>2026-04-18T13:35:14.277Z</time></trkpt><trkpt lat="44.2116469" lon="8.4176998"><ele>18.0</ele><time>2026-04-18T13:35:15.277Z</time></trkpt><trkpt lat="44.2115541" lon="8.4177894"><ele>18.0</ele><time>2026-04-18T13:35:16.277Z</time></trkpt><trkpt lat="44.2114583" lon="8.4178705"><ele>20.0</ele><time>2026-04-18T13:35:17.277Z</time></trkpt><trkpt lat="44.2113559" lon="8.4179294"><ele>22.0</ele><time>2026-04-18T13:35:18.277Z</time></trkpt><trkpt lat="44.2112485" lon="8.4179754"><ele>24.0</ele><time>2026-04-18T13:35:19.277Z</time></trkpt><trkpt lat="44.2111318" lon="8.418005"><ele>26.0</ele><time>2026-04-18T13:35:20.277Z</time></trkpt><trkpt lat="44.2110197" lon="8.4180061"><ele>26.0</ele><time>2026-04-18T13:35:21.277Z</time></trkpt><trkpt lat="44.2109048" lon="8.4179918"><ele>26.0</ele><time>2026-04-18T13:35:22.277Z</time></trkpt><trkpt lat="44.2107911" lon="8.4179631"><ele>26.0</ele><time>2026-04-18T13:35:23.276Z</time></trkpt><trkpt lat="44.2106834" lon="8.4179096"><ele>26.0</ele><time>2026-04-18T13:35:24.276Z</time></trkpt><trkpt lat="44.2105753" lon="8.4178577"><ele>23.25</ele><time>2026-04-18T13:35:25.277Z</time></trkpt><trkpt lat="44.2104655" lon="8.4178014"><ele>20.5</ele><time>2026-04-18T13:35:26.277Z</time></trkpt><trkpt lat="44.2103533" lon="8.4177505"><ele>17.75</ele><time>2026-04-18T13:35:27.277Z</time></trkpt><trkpt lat="44.2102427" lon="8.4176992"><ele>15.0</ele><time>2026-04-18T13:35:28.277Z</time></trkpt><trkpt lat="44.2101335" lon="8.417647"><ele>15.0</ele><time>2026-04-18T13:35:29.277Z</time></trkpt><trkpt lat="44.210023" lon="8.4176034"><ele>15.0</ele><time>2026-04-18T13:35:30.277Z</time></trkpt><trkpt lat="44.2099073" lon="8.417563"><ele>15.0</ele><time>2026-04-18T13:35:31.277Z</time></trkpt><trkpt lat="44.2097887" lon="8.417534"><ele>15.0</ele><time>2026-04-18T13:35:32.277Z</time></trkpt><trkpt lat="44.2096699" lon="8.4175175"><ele>14.75</ele><time>2026-04-18T13:35:33.277Z</time></trkpt><trkpt lat="44.2095496" lon="8.4175178"><ele>14.5</ele><time>2026-04-18T13:35:34.277Z</time></trkpt><trkpt lat="44.2094315" lon="8.4175105"><ele>14.25</ele><time>2026-04-18T13:35:35.278Z</time></trkpt><trkpt lat="44.2093089" lon="8.4175089"><ele>14.0</ele><time>2026-04-18T13:35:36.278Z</time></trkpt><trkpt lat="44.2091845" lon="8.4175009"><ele>14.0</ele><time>2026-04-18T13:35:37.278Z</time></trkpt><trkpt lat="44.2090629" lon="8.4174893"><ele>14.0</ele><time>2026-04-18T13:35:38.278Z</time></trkpt><trkpt lat="44.208943" lon="8.4174743"><ele>14.0</ele><time>2026-04-18T13:35:39.277Z</time></trkpt><trkpt lat="44.2088244" lon="8.4174629"><ele>14.0</ele><time>2026-04-18T13:35:40.278Z</time></trkpt><trkpt lat="44.2087115" lon="8.417444"><ele>16.0</ele><time>2026-04-18T13:35:41.277Z</time></trkpt><trkpt lat="44.2085955" lon="8.4174337"><ele>18.0</ele><time>2026-04-18T13:35:42.278Z</time></trkpt><trkpt lat="44.2084772" lon="8.4174362"><ele>20.0</ele><time>2026-04-18T13:35:43.278Z</time></trkpt><trkpt lat="44.20836" lon="8.4174494"><ele>22.0</ele><time>2026-04-18T13:35:44.278Z</time></trkpt><trkpt lat="44.2082431" lon="8.4174796"><ele>21.0</ele><time>2026-04-18T13:35:45.278Z</time></trkpt><trkpt lat="44.2081273" lon="8.4175172"><ele>20.0</ele><time>2026-04-18T13:35:46.278Z</time></trkpt><trkpt lat="44.2080145" lon="8.4175563"><ele>19.0</ele><time>2026-04-18T13:35:47.278Z</time></trkpt><trkpt lat="44.2078967" lon="8.4175636"><ele>18.0</ele><time>2026-04-18T13:35:48.278Z</time></trkpt><trkpt lat="44.2077801" lon="8.4175665"><ele>18.0</ele><time>2026-04-18T13:35:49.277Z</time></trkpt><trkpt lat="44.2076639" lon="8.4175216"><ele>18.0</ele><time>2026-04-18T13:35:50.277Z</time></trkpt><trkpt lat="44.2075548" lon="8.417496"><ele>18.0</ele><time>2026-04-18T13:35:51.277Z</time></trkpt><trkpt lat="44.2074441" lon="8.4174465"><ele>18.0</ele><time>2026-04-18T13:35:52.278Z</time></trkpt><trkpt lat="44.2073327" lon="8.4173714"><ele>16.75</ele><time>2026-04-18T13:35:53.278Z</time></trkpt><trkpt lat="44.2072208" lon="8.4172709"><ele>15.5</ele><time>2026-04-18T13:35:54.277Z</time></trkpt><trkpt lat="44.2071176" lon="8.4172318"><ele>14.25</ele><time>2026-04-18T13:35:55.278Z</time></trkpt><trkpt lat="44.207016" lon="8.4171633"><ele>13.0</ele><time>2026-04-18T13:35:56.278Z</time></trkpt><trkpt lat="44.2069122" lon="8.4170929"><ele>13.0</ele><time>2026-04-18T13:35:57.277Z</time></trkpt><trkpt lat="44.2068009" lon="8.4170167"><ele>13.0</ele><time>2026-04-18T13:35:58.278Z</time></trkpt><trkpt lat="44.2066905" lon="8.4169476"><ele>13.0</ele><time>2026-04-18T13:35:59.278Z</time></trkpt><trkpt lat="44.206597" lon="8.4168954"><ele>13.0</ele><time>2026-04-18T13:36:00.277Z</time></trkpt><trkpt lat="44.2065017" lon="8.4168522"><ele>13.0</ele><time>2026-04-18T13:36:01.278Z</time></trkpt><trkpt lat="44.2063898" lon="8.4167967"><ele>10.666666666666666</ele><time>2026-04-18T13:36:02.278Z</time></trkpt><trkpt lat="44.2062529" lon="8.41673"><ele>8.333333333333332</ele><time>2026-04-18T13:36:03.278Z</time></trkpt><trkpt lat="44.2061072" lon="8.4166686"><ele>6.0</ele><time>2026-04-18T13:36:04.278Z</time></trkpt><trkpt lat="44.2059517" lon="8.4166116"><ele>6.0</ele><time>2026-04-18T13:36:05.278Z</time></trkpt><trkpt lat="44.2057949" lon="8.4165597"><ele>6.0</ele><time>2026-04-18T13:36:06.278Z</time></trkpt><trkpt lat="44.2056341" lon="8.4165133"><ele>6.0</ele><time>2026-04-18T13:36:07.277Z</time></trkpt><trkpt lat="44.2054807" lon="8.4164635"><ele>5.75</ele><time>2026-04-18T13:36:08.278Z</time></trkpt><trkpt lat="44.2053359" lon="8.4164186"><ele>5.5</ele><time>2026-04-18T13:36:09.277Z</time></trkpt><trkpt lat="44.2052001" lon="8.4163777"><ele>5.25</ele><time>2026-04-18T13:36:10.278Z</time></trkpt><trkpt lat="44.2050732" lon="8.4163438"><ele>5.0</ele><time>2026-04-18T13:36:11.278Z</time></trkpt><trkpt lat="44.2049404" lon="8.4163064"><ele>6.0</ele><time>2026-04-18T13:36:12.278Z</time></trkpt><trkpt lat="44.2048027" lon="8.4162717"><ele>7.0</ele><time>2026-04-18T13:36:13.278Z</time></trkpt><trkpt lat="44.2046473" lon="8.4162327"><ele>8.0</ele><time>2026-04-18T13:36:14.277Z</time></trkpt><trkpt lat="44.2044835" lon="8.4161927"><ele>8.0</ele><time>2026-04-18T13:36:15.278Z</time></trkpt><trkpt lat="44.2043172" lon="8.4161515"><ele>8.0</ele><time>2026-04-18T13:36:16.278Z</time></trkpt><trkpt lat="44.2041529" lon="8.4161039"><ele>8.0</ele><time>2026-04-18T13:36:17.278Z</time></trkpt><trkpt lat="44.2039868" lon="8.4160644"><ele>7.333333333333333</ele><time>2026-04-18T13:36:18.278Z</time></trkpt><trkpt lat="44.2038282" lon="8.4160195"><ele>6.666666666666666</ele><time>2026-04-18T13:36:19.277Z</time></trkpt><trkpt lat="44.2036761" lon="8.4159637"><ele>6.0</ele><time>2026-04-18T13:36:20.278Z</time></trkpt><trkpt lat="44.2035211" lon="8.4159234"><ele>6.0</ele><time>2026-04-18T13:36:21.278Z</time></trkpt><trkpt lat="44.2033678" lon="8.4158954"><ele>6.0</ele><time>2026-04-18T13:36:22.278Z</time></trkpt><trkpt lat="44.2032246" lon="8.4158789"><ele>6.0</ele><time>2026-04-18T13:36:23.278Z</time></trkpt><trkpt lat="44.2031007" lon="8.4158765"><ele>6.0</ele><time>2026-04-18T13:36:24.278Z</time></trkpt><trkpt lat="44.2029811" lon="8.4158743"><ele>6.0</ele><time>2026-04-18T13:36:25.278Z</time></trkpt><trkpt lat="44.2028602" lon="8.4158733"><ele>6.0</ele><time>2026-04-18T13:36:26.278Z</time></trkpt><trkpt lat="44.2027218" lon="8.4158706"><ele>6.0</ele><time>2026-04-18T13:36:27.277Z</time></trkpt><trkpt lat="44.2025613" lon="8.4158692"><ele>6.0</ele><time>2026-04-18T13:36:28.277Z</time></trkpt><trkpt lat="44.202393" lon="8.41585"><ele>5.666666666666667</ele><time>2026-04-18T13:36:29.278Z</time></trkpt><trkpt lat="44.2022286" lon="8.4158526"><ele>5.333333333333334</ele><time>2026-04-18T13:36:30.278Z</time></trkpt><trkpt lat="44.202061" lon="8.4158884"><ele>5.0</ele><time>2026-04-18T13:36:31.278Z</time></trkpt><trkpt lat="44.2018966" lon="8.4159436"><ele>5.0</ele><time>2026-04-18T13:36:32.278Z</time></trkpt><trkpt lat="44.2017237" lon="8.4160255"><ele>5.0</ele><time>2026-04-18T13:36:33.278Z</time></trkpt><trkpt lat="44.2015502" lon="8.4161157"><ele>5.0</ele><time>2026-04-18T13:36:34.277Z</time></trkpt><trkpt lat="44.2013794" lon="8.4162054"><ele>4.666666666666667</ele><time>2026-04-18T13:36:35.278Z</time></trkpt><trkpt lat="44.2012176" lon="8.4162931"><ele>4.333333333333333</ele><time>2026-04-18T13:36:36.278Z</time></trkpt><trkpt lat="44.2010548" lon="8.4163685"><ele>4.0</ele><time>2026-04-18T13:36:37.278Z</time></trkpt><trkpt lat="44.2008951" lon="8.4164468"><ele>4.0</ele><time>2026-04-18T13:36:38.277Z</time></trkpt><trkpt lat="44.2007417" lon="8.4165217"><ele>4.0</ele><time>2026-04-18T13:36:39.278Z</time></trkpt><trkpt lat="44.2005878" lon="8.4166084"><ele>4.0</ele><time>2026-04-18T13:36:40.278Z</time></trkpt><trkpt lat="44.2004313" lon="8.4167127"><ele>8.333333333333334</ele><time>2026-04-18T13:36:41.278Z</time></trkpt><trkpt lat="44.200283" lon="8.4168269"><ele>12.666666666666668</ele><time>2026-04-18T13:36:42.278Z</time></trkpt><trkpt lat="44.2001385" lon="8.4169572"><ele>17.0</ele><time>2026-04-18T13:36:43.278Z</time></trkpt><trkpt lat="44.2000069" lon="8.417087"><ele>15.5</ele><time>2026-04-18T13:36:44.278Z</time></trkpt><trkpt lat="44.1998886" lon="8.4172131"><ele>14.0</ele><time>2026-04-18T13:36:45.278Z</time></trkpt><trkpt lat="44.1997738" lon="8.4173402"><ele>12.5</ele><time>2026-04-18T13:36:46.278Z</time></trkpt><trkpt lat="44.1996608" lon="8.4174703"><ele>11.0</ele><time>2026-04-18T13:36:47.278Z</time></trkpt><trkpt lat="44.1995543" lon="8.4176078"><ele>14.25</ele><time>2026-04-18T13:36:48.278Z</time></trkpt><trkpt lat="44.1994541" lon="8.4177687"><ele>17.5</ele><time>2026-04-18T13:36:49.277Z</time></trkpt><trkpt lat="44.1993692" lon="8.4179433"><ele>20.75</ele><time>2026-04-18T13:36:50.278Z</time></trkpt><trkpt lat="44.1993056" lon="8.4181197"><ele>24.0</ele><time>2026-04-18T13:36:51.278Z</time></trkpt><trkpt lat="44.1992547" lon="8.4182988"><ele>24.0</ele><time>2026-04-18T13:36:52.277Z</time></trkpt><trkpt lat="44.1992053" lon="8.4184763"><ele>24.0</ele><time>2026-04-18T13:36:53.278Z</time></trkpt><trkpt lat="44.1991578" lon="8.418639"><ele>24.0</ele><time>2026-04-18T13:36:54.278Z</time></trkpt><trkpt lat="44.1990994" lon="8.4187992"><ele>24.0</ele><time>2026-04-18T13:36:55.278Z</time></trkpt><trkpt lat="44.1990241" lon="8.4189322"><ele>29.0</ele><time>2026-04-18T13:36:56.278Z</time></trkpt><trkpt lat="44.1989419" lon="8.419052"><ele>34.0</ele><time>2026-04-18T13:36:57.277Z</time></trkpt><trkpt lat="44.1988535" lon="8.4191704"><ele>39.0</ele><time>2026-04-18T13:36:58.278Z</time></trkpt><trkpt lat="44.1987644" lon="8.4192932"><ele>44.0</ele><time>2026-04-18T13:36:59.278Z</time></trkpt><trkpt lat="44.1986834" lon="8.4194259"><ele>44.0</ele><time>2026-04-18T13:37:00.278Z</time></trkpt><trkpt lat="44.1986226" lon="8.4195613"><ele>44.0</ele><time>2026-04-18T13:37:01.278Z</time></trkpt><trkpt lat="44.1985589" lon="8.419701"><ele>44.0</ele><time>2026-04-18T13:37:02.278Z</time></trkpt><trkpt lat="44.1984939" lon="8.4198508"><ele>44.0</ele><time>2026-04-18T13:37:03.278Z</time></trkpt><trkpt lat="44.1984301" lon="8.4199975"><ele>40.0</ele><time>2026-04-18T13:37:04.277Z</time></trkpt><trkpt lat="44.1983739" lon="8.4201538"><ele>36.0</ele><time>2026-04-18T13:37:05.278Z</time></trkpt><trkpt lat="44.198345" lon="8.4203363"><ele>32.0</ele><time>2026-04-18T13:37:06.278Z</time></trkpt><trkpt lat="44.1983561" lon="8.4205221"><ele>28.0</ele><time>2026-04-18T13:37:07.278Z</time></trkpt><trkpt lat="44.1983832" lon="8.4207121"><ele>28.0</ele><time>2026-04-18T13:37:08.278Z</time></trkpt><trkpt lat="44.1984092" lon="8.4208913"><ele>28.0</ele><time>2026-04-18T13:37:09.278Z</time></trkpt><trkpt lat="44.1984385" lon="8.4210643"><ele>28.0</ele><time>2026-04-18T13:37:10.277Z</time></trkpt><trkpt lat="44.1984632" lon="8.42124"><ele>28.0</ele><time>2026-04-18T13:37:11.278Z</time></trkpt><trkpt lat="44.1984769" lon="8.421414"><ele>29.5</ele><time>2026-04-18T13:37:12.278Z</time></trkpt><trkpt lat="44.1984871" lon="8.4215832"><ele>31.0</ele><time>2026-04-18T13:37:13.278Z</time></trkpt><trkpt lat="44.1984892" lon="8.4217403"><ele>32.5</ele><time>2026-04-18T13:37:14.278Z</time></trkpt><trkpt lat="44.1984912" lon="8.4219108"><ele>34.0</ele><time>2026-04-18T13:37:15.277Z</time></trkpt><trkpt lat="44.1984664" lon="8.4220853"><ele>31.0</ele><time>2026-04-18T13:37:16.278Z</time></trkpt><trkpt lat="44.1984157" lon="8.4222627"><ele>28.0</ele><time>2026-04-18T13:37:17.278Z</time></trkpt><trkpt lat="44.1983559" lon="8.4224601"><ele>25.0</ele><time>2026-04-18T13:37:18.278Z</time></trkpt><trkpt lat="44.1982783" lon="8.4226789"><ele>25.0</ele><time>2026-04-18T13:37:19.278Z</time></trkpt><trkpt lat="44.1981908" lon="8.4228996"><ele>25.0</ele><time>2026-04-18T13:37:20.278Z</time></trkpt><trkpt lat="44.1981045" lon="8.4231035"><ele>25.0</ele><time>2026-04-18T13:37:21.278Z</time></trkpt><trkpt lat="44.1980188" lon="8.4232946"><ele>24.0</ele><time>2026-04-18T13:37:22.278Z</time></trkpt><trkpt lat="44.1979422" lon="8.4234648"><ele>23.0</ele><time>2026-04-18T13:37:23.279Z</time></trkpt><trkpt lat="44.1978681" lon="8.4236274"><ele>22.0</ele><time>2026-04-18T13:37:24.279Z</time></trkpt><trkpt lat="44.1977939" lon="8.423778"><ele>21.0</ele><time>2026-04-18T13:37:25.278Z</time></trkpt><trkpt lat="44.1977056" lon="8.4239382"><ele>21.0</ele><time>2026-04-18T13:37:26.279Z</time></trkpt><trkpt lat="44.1975935" lon="8.4241086"><ele>21.0</ele><time>2026-04-18T13:37:27.279Z</time></trkpt><trkpt lat="44.1974574" lon="8.4242745"><ele>21.0</ele><time>2026-04-18T13:37:28.279Z</time></trkpt><trkpt lat="44.1973117" lon="8.4244277"><ele>14.0</ele><time>2026-04-18T13:37:29.279Z</time></trkpt><trkpt lat="44.1971679" lon="8.4245769"><ele>7.0</ele><time>2026-04-18T13:37:30.278Z</time></trkpt><trkpt lat="44.1970285" lon="8.4247085"><ele>0.0</ele><time>2026-04-18T13:37:31.279Z</time></trkpt><trkpt lat="44.1968825" lon="8.4248165"><ele>0.0</ele><time>2026-04-18T13:37:32.279Z</time></trkpt><trkpt lat="44.196725" lon="8.4248825"><ele>0.0</ele><time>2026-04-18T13:37:33.279Z</time></trkpt><trkpt lat="44.1965509" lon="8.4249102"><ele>0.0</ele><time>2026-04-18T13:37:34.279Z</time></trkpt><trkpt lat="44.1963681" lon="8.4249007"><ele>0.0</ele><time>2026-04-18T13:37:35.279Z</time></trkpt><trkpt lat="44.196172" lon="8.4248805"><ele>0.0</ele><time>2026-04-18T13:37:36.279Z</time></trkpt><trkpt lat="44.1959764" lon="8.4248587"><ele>0.0</ele><time>2026-04-18T13:37:37.279Z</time></trkpt><trkpt lat="44.1955255" lon="8.4246329"><ele>17.333333333333332</ele><time>2026-04-18T13:37:40.279Z</time></trkpt><trkpt lat="44.1953481" lon="8.4245661"><ele>34.666666666666664</ele><time>2026-04-18T13:37:41.279Z</time></trkpt><trkpt lat="44.1951702" lon="8.4245644"><ele>52.0</ele><time>2026-04-18T13:37:42.279Z</time></trkpt><trkpt lat="44.1950197" lon="8.4244939"><ele>52.0</ele><time>2026-04-18T13:37:43.279Z</time></trkpt><trkpt lat="44.1949103" lon="8.4244199"><ele>52.0</ele><time>2026-04-18T13:37:44.279Z</time></trkpt><trkpt lat="44.1948362" lon="8.4243067"><ele>52.0</ele><time>2026-04-18T13:37:45.279Z</time></trkpt><trkpt lat="44.1948069" lon="8.4241082"><ele>52.0</ele><time>2026-04-18T13:37:46.278Z</time></trkpt><trkpt lat="44.194732" lon="8.4239477"><ele>47.75</ele><time>2026-04-18T13:37:47.279Z</time></trkpt><trkpt lat="44.1946381" lon="8.4238222"><ele>43.5</ele><time>2026-04-18T13:37:48.279Z</time></trkpt><trkpt lat="44.1945293" lon="8.4237225"><ele>39.25</ele><time>2026-04-18T13:37:49.279Z</time></trkpt><trkpt lat="44.1944144" lon="8.4236151"><ele>35.0</ele><time>2026-04-18T13:37:50.279Z</time></trkpt><trkpt lat="44.1943235" lon="8.4234095"><ele>35.0</ele><time>2026-04-18T13:37:51.279Z</time></trkpt><trkpt lat="44.1942312" lon="8.4232141"><ele>35.0</ele><time>2026-04-18T13:37:52.279Z</time></trkpt><trkpt lat="44.1941111" lon="8.4230613"><ele>35.0</ele><time>2026-04-18T13:37:53.278Z</time></trkpt><trkpt lat="44.1939682" lon="8.4229688"><ele>36.5</ele><time>2026-04-18T13:37:54.279Z</time></trkpt><trkpt lat="44.1938279" lon="8.4229523"><ele>38.0</ele><time>2026-04-18T13:37:55.278Z</time></trkpt><trkpt lat="44.1936796" lon="8.4229551"><ele>39.5</ele><time>2026-04-18T13:37:56.279Z</time></trkpt><trkpt lat="44.1935333" lon="8.4229173"><ele>41.0</ele><time>2026-04-18T13:37:57.279Z</time></trkpt><trkpt lat="44.1934007" lon="8.4228499"><ele>41.0</ele><time>2026-04-18T13:37:58.278Z</time></trkpt><trkpt lat="44.1932845" lon="8.4227547"><ele>41.0</ele><time>2026-04-18T13:37:59.279Z</time></trkpt><trkpt lat="44.1931847" lon="8.4226271"><ele>41.0</ele><time>2026-04-18T13:38:00.279Z</time></trkpt><trkpt lat="44.1931134" lon="8.4224804"><ele>41.0</ele><time>2026-04-18T13:38:01.279Z</time></trkpt><trkpt lat="44.1930399" lon="8.4223485"><ele>40.83333333333333</ele><time>2026-04-18T13:38:02.279Z</time></trkpt><trkpt lat="44.1929583" lon="8.4222438"><ele>40.666666666666664</ele><time>2026-04-18T13:38:03.279Z</time></trkpt><trkpt lat="44.1928659" lon="8.4221782"><ele>40.5</ele><time>2026-04-18T13:38:04.279Z</time></trkpt><trkpt lat="44.1928002" lon="8.4221192"><ele>40.333333333333336</ele><time>2026-04-18T13:38:05.279Z</time></trkpt><trkpt lat="44.1927446" lon="8.4220396"><ele>40.16666666666667</ele><time>2026-04-18T13:38:06.279Z</time></trkpt><trkpt lat="44.1926981" lon="8.4219543"><ele>40.0</ele><time>2026-04-18T13:38:07.279Z</time></trkpt><trkpt lat="44.1926459" lon="8.4218397"><ele>40.0</ele><time>2026-04-18T13:38:09.279Z</time></trkpt><trkpt lat="44.1926161" lon="8.4219242"><ele>40.0</ele><time>2026-04-18T13:38:14.279Z</time></trkpt><trkpt lat="44.192648" lon="8.4217129"><ele>40.0</ele><time>2026-04-18T13:47:09.283Z</time></trkpt><trkpt lat="44.1926496" lon="8.4215943"><ele>40.0</ele><time>2026-04-18T13:47:10.283Z</time></trkpt><trkpt lat="44.1926444" lon="8.4214756"><ele>40.0</ele><time>2026-04-18T13:47:11.283Z</time></trkpt><trkpt lat="44.1926072" lon="8.4213402"><ele>43.75</ele><time>2026-04-18T13:47:12.283Z</time></trkpt><trkpt lat="44.1925607" lon="8.4211962"><ele>47.5</ele><time>2026-04-18T13:47:13.283Z</time></trkpt><trkpt lat="44.1924811" lon="8.4210511"><ele>51.25</ele><time>2026-04-18T13:47:14.282Z</time></trkpt><trkpt lat="44.1924107" lon="8.4209017"><ele>55.0</ele><time>2026-04-18T13:47:15.283Z</time></trkpt><trkpt lat="44.1923274" lon="8.420748"><ele>44.5</ele><time>2026-04-18T13:47:16.283Z</time></trkpt><trkpt lat="44.1922304" lon="8.4205969"><ele>34.0</ele><time>2026-04-18T13:47:17.283Z</time></trkpt><trkpt lat="44.1921211" lon="8.4204614"><ele>23.5</ele><time>2026-04-18T13:47:18.283Z</time></trkpt><trkpt lat="44.1920134" lon="8.4203112"><ele>13.0</ele><time>2026-04-18T13:47:19.283Z</time></trkpt><trkpt lat="44.1919174" lon="8.4201598"><ele>13.0</ele><time>2026-04-18T13:47:20.283Z</time></trkpt><trkpt lat="44.1918382" lon="8.4200054"><ele>13.0</ele><time>2026-04-18T13:47:21.283Z</time></trkpt><trkpt lat="44.1917754" lon="8.419847"><ele>13.0</ele><time>2026-04-18T13:47:22.283Z</time></trkpt><trkpt lat="44.1917273" lon="8.4196616"><ele>13.0</ele><time>2026-04-18T13:47:23.283Z</time></trkpt><trkpt lat="44.1916934" lon="8.4194598"><ele>17.0</ele><time>2026-04-18T13:47:24.283Z</time></trkpt><trkpt lat="44.1916687" lon="8.4192487"><ele>21.0</ele><time>2026-04-18T13:47:25.283Z</time></trkpt><trkpt lat="44.1916551" lon="8.4190236"><ele>25.0</ele><time>2026-04-18T13:47:26.283Z</time></trkpt><trkpt lat="44.1916434" lon="8.4187872"><ele>25.0</ele><time>2026-04-18T13:47:27.283Z</time></trkpt><trkpt lat="44.1916311" lon="8.4185366"><ele>25.0</ele><time>2026-04-18T13:47:28.283Z</time></trkpt><trkpt lat="44.1916137" lon="8.4182837"><ele>25.0</ele><time>2026-04-18T13:47:29.282Z</time></trkpt><trkpt lat="44.1915992" lon="8.418031"><ele>16.666666666666668</ele><time>2026-04-18T13:47:30.282Z</time></trkpt><trkpt lat="44.1915823" lon="8.4177872"><ele>8.333333333333334</ele><time>2026-04-18T13:47:31.283Z</time></trkpt><trkpt lat="44.1915553" lon="8.4175445"><ele>0.0</ele><time>2026-04-18T13:47:32.283Z</time></trkpt><trkpt lat="44.1915033" lon="8.4173045"><ele>1.0</ele><time>2026-04-18T13:47:33.282Z</time></trkpt><trkpt lat="44.1914198" lon="8.4170741"><ele>2.0</ele><time>2026-04-18T13:47:34.283Z</time></trkpt><trkpt lat="44.1913203" lon="8.4168523"><ele>3.0</ele><time>2026-04-18T13:47:35.283Z</time></trkpt><trkpt lat="44.1912098" lon="8.4166444"><ele>3.0</ele><time>2026-04-18T13:47:36.283Z</time></trkpt><trkpt lat="44.1910943" lon="8.4164395"><ele>3.0</ele><time>2026-04-18T13:47:37.283Z</time></trkpt><trkpt lat="44.1909791" lon="8.4162434"><ele>3.0</ele><time>2026-04-18T13:47:38.283Z</time></trkpt><trkpt lat="44.1908654" lon="8.4160464"><ele>3.666666666666667</ele><time>2026-04-18T13:47:39.283Z</time></trkpt><trkpt lat="44.1907558" lon="8.4158567"><ele>4.333333333333334</ele><time>2026-04-18T13:47:40.283Z</time></trkpt><trkpt lat="44.1906519" lon="8.4156707"><ele>5.0</ele><time>2026-04-18T13:47:41.282Z</time></trkpt><trkpt lat="44.1905446" lon="8.4154755"><ele>12.0</ele><time>2026-04-18T13:47:42.282Z</time></trkpt><trkpt lat="44.1904373" lon="8.4152844"><ele>19.0</ele><time>2026-04-18T13:47:43.283Z</time></trkpt><trkpt lat="44.1903332" lon="8.4150824"><ele>26.0</ele><time>2026-04-18T13:47:44.283Z</time></trkpt><trkpt lat="44.1902276" lon="8.4148705"><ele>26.0</ele><time>2026-04-18T13:47:45.283Z</time></trkpt><trkpt lat="44.1901183" lon="8.4146569"><ele>26.0</ele><time>2026-04-18T13:47:46.282Z</time></trkpt><trkpt lat="44.1900144" lon="8.4144337"><ele>26.0</ele><time>2026-04-18T13:47:47.283Z</time></trkpt><trkpt lat="44.1895935" lon="8.4135238"><ele>27.333333333333332</ele><time>2026-04-18T13:47:51.283Z</time></trkpt><trkpt lat="44.1894314" lon="8.4133215"><ele>28.666666666666664</ele><time>2026-04-18T13:47:52.282Z</time></trkpt><trkpt lat="44.1893227" lon="8.4131235"><ele>30.0</ele><time>2026-04-18T13:47:53.283Z</time></trkpt><trkpt lat="44.1892302" lon="8.4129426"><ele>30.0</ele><time>2026-04-18T13:47:54.283Z</time></trkpt><trkpt lat="44.1891914" lon="8.4127321"><ele>30.0</ele><time>2026-04-18T13:47:55.283Z</time></trkpt><trkpt lat="44.1891401" lon="8.4125295"><ele>30.0</ele><time>2026-04-18T13:47:56.282Z</time></trkpt><trkpt lat="44.1890842" lon="8.4123757"><ele>30.0</ele><time>2026-04-18T13:47:57.282Z</time></trkpt><trkpt lat="44.1890014" lon="8.4121981"><ele>25.75</ele><time>2026-04-18T13:47:58.283Z</time></trkpt><trkpt lat="44.1889336" lon="8.4120313"><ele>21.5</ele><time>2026-04-18T13:47:59.283Z</time></trkpt><trkpt lat="44.1888638" lon="8.4118551"><ele>17.25</ele><time>2026-04-18T13:48:00.283Z</time></trkpt><trkpt lat="44.1887921" lon="8.4116849"><ele>13.0</ele><time>2026-04-18T13:48:01.282Z</time></trkpt><trkpt lat="44.1887125" lon="8.4115091"><ele>13.0</ele><time>2026-04-18T13:48:02.283Z</time></trkpt><trkpt lat="44.1886305" lon="8.4113273"><ele>13.0</ele><time>2026-04-18T13:48:03.283Z</time></trkpt><trkpt lat="44.1885409" lon="8.4111341"><ele>13.0</ele><time>2026-04-18T13:48:04.283Z</time></trkpt><trkpt lat="44.1884529" lon="8.410923"><ele>9.0</ele><time>2026-04-18T13:48:05.283Z</time></trkpt><trkpt lat="44.1883567" lon="8.4107062"><ele>5.0</ele><time>2026-04-18T13:48:06.283Z</time></trkpt><trkpt lat="44.1882613" lon="8.4104937"><ele>1.0</ele><time>2026-04-18T13:48:07.282Z</time></trkpt><trkpt lat="44.1881535" lon="8.4102886"><ele>1.0</ele><time>2026-04-18T13:48:08.282Z</time></trkpt><trkpt lat="44.1880362" lon="8.4100877"><ele>1.0</ele><time>2026-04-18T13:48:09.283Z</time></trkpt><trkpt lat="44.1879062" lon="8.4098954"><ele>1.0</ele><time>2026-04-18T13:48:10.282Z</time></trkpt><trkpt lat="44.1877715" lon="8.4097182"><ele>4.666666666666667</ele><time>2026-04-18T13:48:11.283Z</time></trkpt><trkpt lat="44.1876338" lon="8.4095423"><ele>8.333333333333334</ele><time>2026-04-18T13:48:12.283Z</time></trkpt><trkpt lat="44.1874918" lon="8.4093723"><ele>12.0</ele><time>2026-04-18T13:48:13.283Z</time></trkpt><trkpt lat="44.1873449" lon="8.4092196"><ele>8.333333333333334</ele><time>2026-04-18T13:48:14.283Z</time></trkpt><trkpt lat="44.187187" lon="8.409094"><ele>4.666666666666667</ele><time>2026-04-18T13:48:15.283Z</time></trkpt><trkpt lat="44.1870153" lon="8.4090095"><ele>1.0</ele><time>2026-04-18T13:48:16.282Z</time></trkpt><trkpt lat="44.1868454" lon="8.4089158"><ele>2.0</ele><time>2026-04-18T13:48:17.283Z</time></trkpt><trkpt lat="44.1866962" lon="8.4088007"><ele>3.0</ele><time>2026-04-18T13:48:18.283Z</time></trkpt><trkpt lat="44.1865649" lon="8.4086549"><ele>4.0</ele><time>2026-04-18T13:48:19.283Z</time></trkpt><trkpt lat="44.1864541" lon="8.4084821"><ele>4.0</ele><time>2026-04-18T13:48:20.282Z</time></trkpt><trkpt lat="44.1863508" lon="8.4082919"><ele>4.0</ele><time>2026-04-18T13:48:21.283Z</time></trkpt><trkpt lat="44.1862584" lon="8.4081109"><ele>4.0</ele><time>2026-04-18T13:48:22.283Z</time></trkpt><trkpt lat="44.1861656" lon="8.407939"><ele>6.666666666666666</ele><time>2026-04-18T13:48:23.282Z</time></trkpt><trkpt lat="44.1860644" lon="8.4077773"><ele>9.333333333333334</ele><time>2026-04-18T13:48:24.283Z</time></trkpt><trkpt lat="44.1859328" lon="8.4076211"><ele>12.0</ele><time>2026-04-18T13:48:25.282Z</time></trkpt><trkpt lat="44.1857796" lon="8.4074792"><ele>13.0</ele><time>2026-04-18T13:48:26.283Z</time></trkpt><trkpt lat="44.1856085" lon="8.4073322"><ele>14.0</ele><time>2026-04-18T13:48:27.283Z</time></trkpt><trkpt lat="44.1854278" lon="8.4071782"><ele>15.0</ele><time>2026-04-18T13:48:28.283Z</time></trkpt><trkpt lat="44.1852511" lon="8.4070309"><ele>15.0</ele><time>2026-04-18T13:48:29.283Z</time></trkpt><trkpt lat="44.185066" lon="8.4068793"><ele>15.0</ele><time>2026-04-18T13:48:30.282Z</time></trkpt><trkpt lat="44.1848778" lon="8.4067286"><ele>15.0</ele><time>2026-04-18T13:48:31.283Z</time></trkpt><trkpt lat="44.1846952" lon="8.4065818"><ele>12.333333333333334</ele><time>2026-04-18T13:48:32.282Z</time></trkpt><trkpt lat="44.1845163" lon="8.406433"><ele>9.666666666666668</ele><time>2026-04-18T13:48:33.282Z</time></trkpt><trkpt lat="44.1843366" lon="8.4062834"><ele>7.0</ele><time>2026-04-18T13:48:34.283Z</time></trkpt><trkpt lat="44.1841575" lon="8.4061302"><ele>8.666666666666668</ele><time>2026-04-18T13:48:35.282Z</time></trkpt><trkpt lat="44.1839835" lon="8.4059798"><ele>10.333333333333334</ele><time>2026-04-18T13:48:36.283Z</time></trkpt><trkpt lat="44.1838155" lon="8.4058196"><ele>12.0</ele><time>2026-04-18T13:48:37.283Z</time></trkpt><trkpt lat="44.1836568" lon="8.4056547"><ele>12.0</ele><time>2026-04-18T13:48:38.283Z</time></trkpt><trkpt lat="44.1835095" lon="8.4054991"><ele>12.0</ele><time>2026-04-18T13:48:39.283Z</time></trkpt><trkpt lat="44.1833751" lon="8.4053256"><ele>12.0</ele><time>2026-04-18T13:48:40.283Z</time></trkpt><trkpt lat="44.1832522" lon="8.4051248"><ele>13.333333333333332</ele><time>2026-04-18T13:48:41.283Z</time></trkpt><trkpt lat="44.1831471" lon="8.4048895"><ele>14.666666666666666</ele><time>2026-04-18T13:48:42.283Z</time></trkpt><trkpt lat="44.1830437" lon="8.404647"><ele>16.0</ele><time>2026-04-18T13:48:43.282Z</time></trkpt><trkpt lat="44.1827058" lon="8.4039572"><ele>15.0</ele><time>2026-04-18T13:48:46.282Z</time></trkpt><trkpt lat="44.1826225" lon="8.4037152"><ele>14.0</ele><time>2026-04-18T13:48:47.283Z</time></trkpt><trkpt lat="44.1825446" lon="8.403474"><ele>13.0</ele><time>2026-04-18T13:48:48.283Z</time></trkpt><trkpt lat="44.1824794" lon="8.4032186"><ele>12.666666666666666</ele><time>2026-04-18T13:48:49.283Z</time></trkpt><trkpt lat="44.1824309" lon="8.4029636"><ele>12.333333333333332</ele><time>2026-04-18T13:48:50.283Z</time></trkpt><trkpt lat="44.1823886" lon="8.4027606"><ele>12.0</ele><time>2026-04-18T13:48:51.283Z</time></trkpt><trkpt lat="44.1823534" lon="8.4025589"><ele>11.5</ele><time>2026-04-18T13:48:52.282Z</time></trkpt><trkpt lat="44.1823098" lon="8.4023605"><ele>11.0</ele><time>2026-04-18T13:48:53.283Z</time></trkpt><trkpt lat="44.1822708" lon="8.402153"><ele>10.5</ele><time>2026-04-18T13:48:54.283Z</time></trkpt><trkpt lat="44.1822259" lon="8.4019693"><ele>10.0</ele><time>2026-04-18T13:48:55.283Z</time></trkpt><trkpt lat="44.1821944" lon="8.4017883"><ele>10.0</ele><time>2026-04-18T13:48:56.282Z</time></trkpt><trkpt lat="44.1821546" lon="8.4016336"><ele>10.0</ele><time>2026-04-18T13:48:57.283Z</time></trkpt><trkpt lat="44.1821248" lon="8.4014732"><ele>10.0</ele><time>2026-04-18T13:48:58.283Z</time></trkpt><trkpt lat="44.1820919" lon="8.4013214"><ele>10.0</ele><time>2026-04-18T13:48:59.282Z</time></trkpt><trkpt lat="44.1820583" lon="8.4011855"><ele>9.666666666666668</ele><time>2026-04-18T13:49:00.282Z</time></trkpt><trkpt lat="44.182028" lon="8.4010586"><ele>9.333333333333334</ele><time>2026-04-18T13:49:01.283Z</time></trkpt><trkpt lat="44.1819984" lon="8.4009539"><ele>9.0</ele><time>2026-04-18T13:49:02.283Z</time></trkpt><trkpt lat="44.1819737" lon="8.4008431"><ele>8.666666666666666</ele><time>2026-04-18T13:49:03.282Z</time></trkpt><trkpt lat="44.1819509" lon="8.400735"><ele>8.333333333333332</ele><time>2026-04-18T13:49:04.283Z</time></trkpt><trkpt lat="44.1819237" lon="8.4006299"><ele>8.0</ele><time>2026-04-18T13:49:05.283Z</time></trkpt><trkpt lat="44.1818997" lon="8.4005399"><ele>8.142857142857142</ele><time>2026-04-18T13:49:06.283Z</time></trkpt><trkpt lat="44.1818806" lon="8.4004517"><ele>8.285714285714285</ele><time>2026-04-18T13:49:07.283Z</time></trkpt><trkpt lat="44.1818635" lon="8.4003568"><ele>8.428571428571429</ele><time>2026-04-18T13:49:08.283Z</time></trkpt><trkpt lat="44.181841" lon="8.4002647"><ele>8.571428571428571</ele><time>2026-04-18T13:49:09.283Z</time></trkpt><trkpt lat="44.1818219" lon="8.4001652"><ele>8.714285714285715</ele><time>2026-04-18T13:49:10.282Z</time></trkpt><trkpt lat="44.181801" lon="8.4000718"><ele>8.857142857142858</ele><time>2026-04-18T13:49:11.283Z</time></trkpt><trkpt lat="44.1817781" lon="8.3999785"><ele>9.0</ele><time>2026-04-18T13:49:12.283Z</time></trkpt><trkpt lat="44.1817551" lon="8.3998754"><ele>9.0</ele><time>2026-04-18T13:49:13.283Z</time></trkpt><trkpt lat="44.1817401" lon="8.399775"><ele>9.0</ele><time>2026-04-18T13:49:14.283Z</time></trkpt><trkpt lat="44.1817302" lon="8.3996708"><ele>9.0</ele><time>2026-04-18T13:49:15.283Z</time></trkpt><trkpt lat="44.1817195" lon="8.3995568"><ele>9.0</ele><time>2026-04-18T13:49:16.283Z</time></trkpt><trkpt lat="44.1817047" lon="8.399429"><ele>9.0</ele><time>2026-04-18T13:49:17.283Z</time></trkpt><trkpt lat="44.1816925" lon="8.3992831"><ele>9.0</ele><time>2026-04-18T13:49:18.283Z</time></trkpt><trkpt lat="44.1816836" lon="8.3991185"><ele>9.0</ele><time>2026-04-18T13:49:19.284Z</time></trkpt><trkpt lat="44.1816851" lon="8.3989471"><ele>9.0</ele><time>2026-04-18T13:49:20.284Z</time></trkpt><trkpt lat="44.1816866" lon="8.3987857"><ele>9.0</ele><time>2026-04-18T13:49:21.284Z</time></trkpt><trkpt lat="44.1816856" lon="8.3986372"><ele>9.0</ele><time>2026-04-18T13:49:22.284Z</time></trkpt><trkpt lat="44.1816819" lon="8.3985008"><ele>9.0</ele><time>2026-04-18T13:49:23.284Z</time></trkpt><trkpt lat="44.1816789" lon="8.3983712"><ele>8.833333333333334</ele><time>2026-04-18T13:49:24.284Z</time></trkpt><trkpt lat="44.1816791" lon="8.3982507"><ele>8.666666666666666</ele><time>2026-04-18T13:49:25.283Z</time></trkpt><trkpt lat="44.181677" lon="8.3981412"><ele>8.5</ele><time>2026-04-18T13:49:26.283Z</time></trkpt><trkpt lat="44.1816758" lon="8.398038"><ele>8.333333333333332</ele><time>2026-04-18T13:49:27.283Z</time></trkpt><trkpt lat="44.1816718" lon="8.3979377"><ele>8.166666666666666</ele><time>2026-04-18T13:49:28.284Z</time></trkpt><trkpt lat="44.1816738" lon="8.3977898"><ele>8.0</ele><time>2026-04-18T13:49:30.283Z</time></trkpt><trkpt lat="44.1816672" lon="8.3977017"><ele>7.6000000000000005</ele><time>2026-04-18T13:49:33.284Z</time></trkpt><trkpt lat="44.1816654" lon="8.3975874"><ele>7.200000000000001</ele><time>2026-04-18T13:49:35.284Z</time></trkpt><trkpt lat="44.1816662" lon="8.3974141"><ele>6.8</ele><time>2026-04-18T13:49:37.284Z</time></trkpt><trkpt lat="44.1816609" lon="8.3973133"><ele>6.4</ele><time>2026-04-18T13:49:38.284Z</time></trkpt><trkpt lat="44.1816587" lon="8.3971388"><ele>6.0</ele><time>2026-04-18T13:49:40.283Z</time></trkpt><trkpt lat="44.1816569" lon="8.3970458"><ele>6.0</ele><time>2026-04-18T13:49:41.284Z</time></trkpt><trkpt lat="44.1816569" lon="8.3969467"><ele>6.0</ele><time>2026-04-18T13:49:42.284Z</time></trkpt><trkpt lat="44.1816579" lon="8.3968409"><ele>6.0</ele><time>2026-04-18T13:49:43.283Z</time></trkpt><trkpt lat="44.1816651" lon="8.3967384"><ele>6.0</ele><time>2026-04-18T13:49:44.284Z</time></trkpt><trkpt lat="44.1816666" lon="8.3966273"><ele>6.0</ele><time>2026-04-18T13:49:45.284Z</time></trkpt><trkpt lat="44.1816645" lon="8.3965101"><ele>6.0</ele><time>2026-04-18T13:49:46.284Z</time></trkpt><trkpt lat="44.181662" lon="8.3963845"><ele>6.199999999999999</ele><time>2026-04-18T13:49:47.284Z</time></trkpt><trkpt lat="44.1816549" lon="8.3962558"><ele>6.3999999999999995</ele><time>2026-04-18T13:49:48.284Z</time></trkpt><trkpt lat="44.1816459" lon="8.3961179"><ele>6.6</ele><time>2026-04-18T13:49:49.284Z</time></trkpt><trkpt lat="44.1816415" lon="8.3959808"><ele>6.8</ele><time>2026-04-18T13:49:50.284Z</time></trkpt><trkpt lat="44.1816408" lon="8.395843"><ele>7.0</ele><time>2026-04-18T13:49:51.284Z</time></trkpt><trkpt lat="44.1816403" lon="8.3957145"><ele>7.000000000000001</ele><time>2026-04-18T13:49:52.283Z</time></trkpt><trkpt lat="44.1816398" lon="8.3955891"><ele>7.0</ele><time>2026-04-18T13:49:53.284Z</time></trkpt><trkpt lat="44.18164" lon="8.3954777"><ele>7.0</ele><time>2026-04-18T13:49:54.284Z</time></trkpt><trkpt lat="44.1816416" lon="8.3953663"><ele>7.0</ele><time>2026-04-18T13:49:55.284Z</time></trkpt><trkpt lat="44.1816373" lon="8.3952595"><ele>7.000000000000001</ele><time>2026-04-18T13:49:56.283Z</time></trkpt><trkpt lat="44.181635" lon="8.3951518"><ele>7.0</ele><time>2026-04-18T13:49:57.284Z</time></trkpt><trkpt lat="44.1816362" lon="8.3950462"><ele>7.166666666666667</ele><time>2026-04-18T13:49:58.283Z</time></trkpt><trkpt lat="44.1816352" lon="8.394953"><ele>7.333333333333334</ele><time>2026-04-18T13:49:59.284Z</time></trkpt><trkpt lat="44.1816325" lon="8.3948576"><ele>7.5</ele><time>2026-04-18T13:50:00.283Z</time></trkpt><trkpt lat="44.1816297" lon="8.3947574"><ele>7.666666666666666</ele><time>2026-04-18T13:50:01.284Z</time></trkpt><trkpt lat="44.1816197" lon="8.3946295"><ele>7.833333333333333</ele><time>2026-04-18T13:50:03.284Z</time></trkpt><trkpt lat="44.1816079" lon="8.3945083"><ele>8.0</ele><time>2026-04-18T13:50:06.284Z</time></trkpt><trkpt lat="44.1816093" lon="8.3943996"><ele>8.0</ele><time>2026-04-18T13:50:09.284Z</time></trkpt><trkpt lat="44.1816152" lon="8.3943121"><ele>8.0</ele><time>2026-04-18T13:50:10.284Z</time></trkpt><trkpt lat="44.1816169" lon="8.3941961"><ele>8.0</ele><time>2026-04-18T13:50:11.284Z</time></trkpt><trkpt lat="44.181618" lon="8.3940544"><ele>8.0</ele><time>2026-04-18T13:50:12.284Z</time></trkpt><trkpt lat="44.1816187" lon="8.3939154"><ele>8.0</ele><time>2026-04-18T13:50:13.283Z</time></trkpt><trkpt lat="44.1816207" lon="8.3937664"><ele>7.75</ele><time>2026-04-18T13:50:14.284Z</time></trkpt><trkpt lat="44.1816179" lon="8.3936032"><ele>7.5</ele><time>2026-04-18T13:50:15.284Z</time></trkpt><trkpt lat="44.181613" lon="8.3934396"><ele>7.25</ele><time>2026-04-18T13:50:16.284Z</time></trkpt><trkpt lat="44.1816092" lon="8.393282"><ele>7.0</ele><time>2026-04-18T13:50:17.284Z</time></trkpt><trkpt lat="44.1816085" lon="8.3931276"><ele>6.8</ele><time>2026-04-18T13:50:18.284Z</time></trkpt><trkpt lat="44.1816049" lon="8.3929696"><ele>6.6</ele><time>2026-04-18T13:50:19.283Z</time></trkpt><trkpt lat="44.1815978" lon="8.392814"><ele>6.3999999999999995</ele><time>2026-04-18T13:50:20.284Z</time></trkpt><trkpt lat="44.1815957" lon="8.3926598"><ele>6.199999999999999</ele><time>2026-04-18T13:50:21.284Z</time></trkpt><trkpt lat="44.1815957" lon="8.3925027"><ele>6.0</ele><time>2026-04-18T13:50:22.284Z</time></trkpt><trkpt lat="44.1815948" lon="8.392351"><ele>6.0</ele><time>2026-04-18T13:50:23.284Z</time></trkpt><trkpt lat="44.1815911" lon="8.392192"><ele>6.0</ele><time>2026-04-18T13:50:24.283Z</time></trkpt><trkpt lat="44.1815852" lon="8.3920385"><ele>6.0</ele><time>2026-04-18T13:50:25.283Z</time></trkpt><trkpt lat="44.1815815" lon="8.3918767"><ele>6.0</ele><time>2026-04-18T13:50:26.284Z</time></trkpt><trkpt lat="44.181577" lon="8.3917206"><ele>6.5</ele><time>2026-04-18T13:50:27.283Z</time></trkpt><trkpt lat="44.1815748" lon="8.3915656"><ele>7.0</ele><time>2026-04-18T13:50:28.284Z</time></trkpt><trkpt lat="44.181572" lon="8.3914071"><ele>7.5</ele><time>2026-04-18T13:50:29.284Z</time></trkpt><trkpt lat="44.1815717" lon="8.3912451"><ele>8.0</ele><time>2026-04-18T13:50:30.284Z</time></trkpt><trkpt lat="44.1815693" lon="8.3910768"><ele>8.0</ele><time>2026-04-18T13:50:31.283Z</time></trkpt><trkpt lat="44.1815639" lon="8.3909153"><ele>8.0</ele><time>2026-04-18T13:50:32.283Z</time></trkpt><trkpt lat="44.181559" lon="8.3907576"><ele>8.0</ele><time>2026-04-18T13:50:33.283Z</time></trkpt><trkpt lat="44.1815536" lon="8.3905933"><ele>8.0</ele><time>2026-04-18T13:50:34.284Z</time></trkpt><trkpt lat="44.181553" lon="8.3904293"><ele>8.5</ele><time>2026-04-18T13:50:35.283Z</time></trkpt><trkpt lat="44.1815512" lon="8.3902619"><ele>9.0</ele><time>2026-04-18T13:50:36.284Z</time></trkpt><trkpt lat="44.1815478" lon="8.3900898"><ele>9.5</ele><time>2026-04-18T13:50:37.283Z</time></trkpt><trkpt lat="44.181537" lon="8.3899039"><ele>10.0</ele><time>2026-04-18T13:50:38.284Z</time></trkpt><trkpt lat="44.1815273" lon="8.38971"><ele>10.0</ele><time>2026-04-18T13:50:39.284Z</time></trkpt><trkpt lat="44.1815287" lon="8.3895028"><ele>10.0</ele><time>2026-04-18T13:50:40.284Z</time></trkpt><trkpt lat="44.1815314" lon="8.3892972"><ele>10.0</ele><time>2026-04-18T13:50:41.283Z</time></trkpt><trkpt lat="44.1815326" lon="8.3890831"><ele>10.0</ele><time>2026-04-18T13:50:42.283Z</time></trkpt><trkpt lat="44.1815305" lon="8.3888654"><ele>10.0</ele><time>2026-04-18T13:50:43.284Z</time></trkpt><trkpt lat="44.181531" lon="8.3886428"><ele>10.0</ele><time>2026-04-18T13:50:44.284Z</time></trkpt><trkpt lat="44.1815262" lon="8.3884136"><ele>9.666666666666668</ele><time>2026-04-18T13:50:45.284Z</time></trkpt><trkpt lat="44.1815207" lon="8.3881849"><ele>9.333333333333334</ele><time>2026-04-18T13:50:46.283Z</time></trkpt><trkpt lat="44.1815134" lon="8.3879612"><ele>9.0</ele><time>2026-04-18T13:50:47.284Z</time></trkpt><trkpt lat="44.1815085" lon="8.3877464"><ele>8.0</ele><time>2026-04-18T13:50:48.284Z</time></trkpt><trkpt lat="44.1815017" lon="8.3875346"><ele>7.0</ele><time>2026-04-18T13:50:49.284Z</time></trkpt><trkpt lat="44.1814976" lon="8.3873433"><ele>6.0</ele><time>2026-04-18T13:50:50.284Z</time></trkpt><trkpt lat="44.1814906" lon="8.3871518"><ele>5.0</ele><time>2026-04-18T13:50:51.283Z</time></trkpt><trkpt lat="44.1814791" lon="8.3869619"><ele>5.0</ele><time>2026-04-18T13:50:52.283Z</time></trkpt><trkpt lat="44.181458" lon="8.3867818"><ele>5.0</ele><time>2026-04-18T13:50:53.283Z</time></trkpt><trkpt lat="44.1814221" lon="8.3866058"><ele>5.0</ele><time>2026-04-18T13:50:54.283Z</time></trkpt><trkpt lat="44.1813636" lon="8.3864193"><ele>5.0</ele><time>2026-04-18T13:50:55.283Z</time></trkpt><trkpt lat="44.1812985" lon="8.3862318"><ele>5.666666666666667</ele><time>2026-04-18T13:50:56.284Z</time></trkpt><trkpt lat="44.1812301" lon="8.3860398"><ele>6.333333333333334</ele><time>2026-04-18T13:50:57.284Z</time></trkpt><trkpt lat="44.1811654" lon="8.3858378"><ele>7.0</ele><time>2026-04-18T13:50:58.284Z</time></trkpt><trkpt lat="44.1811159" lon="8.3856506"><ele>7.5</ele><time>2026-04-18T13:50:59.283Z</time></trkpt><trkpt lat="44.1810718" lon="8.3854839"><ele>8.0</ele><time>2026-04-18T13:51:00.284Z</time></trkpt><trkpt lat="44.1810405" lon="8.3853153"><ele>8.5</ele><time>2026-04-18T13:51:01.284Z</time></trkpt><trkpt lat="44.1810173" lon="8.3851471"><ele>9.0</ele><time>2026-04-18T13:51:02.284Z</time></trkpt><trkpt lat="44.1809966" lon="8.384972"><ele>9.0</ele><time>2026-04-18T13:51:03.284Z</time></trkpt><trkpt lat="44.1809698" lon="8.3847792"><ele>9.0</ele><time>2026-04-18T13:51:04.284Z</time></trkpt><trkpt lat="44.180948" lon="8.3845546"><ele>9.0</ele><time>2026-04-18T13:51:05.284Z</time></trkpt><trkpt lat="44.1809304" lon="8.3843119"><ele>9.666666666666666</ele><time>2026-04-18T13:51:06.284Z</time></trkpt><trkpt lat="44.1809146" lon="8.3840573"><ele>10.333333333333332</ele><time>2026-04-18T13:51:07.284Z</time></trkpt><trkpt lat="44.1808886" lon="8.3838091"><ele>11.0</ele><time>2026-04-18T13:51:08.284Z</time></trkpt><trkpt lat="44.1808549" lon="8.3835728"><ele>9.333333333333332</ele><time>2026-04-18T13:51:09.284Z</time></trkpt><trkpt lat="44.1807978" lon="8.383351"><ele>7.666666666666666</ele><time>2026-04-18T13:51:10.283Z</time></trkpt><trkpt lat="44.1807249" lon="8.3831372"><ele>6.0</ele><time>2026-04-18T13:51:11.284Z</time></trkpt><trkpt lat="44.1806343" lon="8.3829494"><ele>6.0</ele><time>2026-04-18T13:51:12.284Z</time></trkpt><trkpt lat="44.1805455" lon="8.3827787"><ele>6.0</ele><time>2026-04-18T13:51:13.284Z</time></trkpt><trkpt lat="44.1804576" lon="8.3826253"><ele>6.0</ele><time>2026-04-18T13:51:14.284Z</time></trkpt><trkpt lat="44.1803844" lon="8.3824848"><ele>6.0</ele><time>2026-04-18T13:51:15.284Z</time></trkpt><trkpt lat="44.1803154" lon="8.3823491"><ele>6.0</ele><time>2026-04-18T13:51:16.284Z</time></trkpt><trkpt lat="44.1802471" lon="8.3822038"><ele>6.0</ele><time>2026-04-18T13:51:17.284Z</time></trkpt><trkpt lat="44.1801894" lon="8.3820557"><ele>6.0</ele><time>2026-04-18T13:51:18.284Z</time></trkpt><trkpt lat="44.1801453" lon="8.3819153"><ele>6.0</ele><time>2026-04-18T13:51:19.284Z</time></trkpt><trkpt lat="44.1801101" lon="8.3817805"><ele>7.5</ele><time>2026-04-18T13:51:20.284Z</time></trkpt><trkpt lat="44.18008" lon="8.3816325"><ele>9.0</ele><time>2026-04-18T13:51:21.284Z</time></trkpt><trkpt lat="44.1800515" lon="8.3814824"><ele>10.5</ele><time>2026-04-18T13:51:22.284Z</time></trkpt><trkpt lat="44.1800199" lon="8.3813262"><ele>12.0</ele><time>2026-04-18T13:51:23.284Z</time></trkpt><trkpt lat="44.1799846" lon="8.3811646"><ele>13.5</ele><time>2026-04-18T13:51:24.284Z</time></trkpt><trkpt lat="44.179944" lon="8.3809869"><ele>15.0</ele><time>2026-04-18T13:51:25.283Z</time></trkpt><trkpt lat="44.1798959" lon="8.380787"><ele>16.5</ele><time>2026-04-18T13:51:26.284Z</time></trkpt><trkpt lat="44.179857" lon="8.3805868"><ele>18.0</ele><time>2026-04-18T13:51:27.284Z</time></trkpt><trkpt lat="44.1798211" lon="8.380398"><ele>12.666666666666666</ele><time>2026-04-18T13:51:28.284Z</time></trkpt><trkpt lat="44.1797853" lon="8.380214"><ele>7.333333333333333</ele><time>2026-04-18T13:51:29.284Z</time></trkpt><trkpt lat="44.179739" lon="8.380008"><ele>2.0</ele><time>2026-04-18T13:51:30.284Z</time></trkpt><trkpt lat="44.1796983" lon="8.3797592"><ele>4.0</ele><time>2026-04-18T13:51:31.284Z</time></trkpt><trkpt lat="44.1796556" lon="8.3795108"><ele>6.0</ele><time>2026-04-18T13:51:32.284Z</time></trkpt><trkpt lat="44.1796029" lon="8.379255"><ele>8.0</ele><time>2026-04-18T13:51:33.284Z</time></trkpt><trkpt lat="44.1795479" lon="8.3789849"><ele>9.0</ele><time>2026-04-18T13:51:34.284Z</time></trkpt><trkpt lat="44.1794957" lon="8.3787172"><ele>10.0</ele><time>2026-04-18T13:51:35.283Z</time></trkpt><trkpt lat="44.1794458" lon="8.3784494"><ele>11.0</ele><time>2026-04-18T13:51:36.283Z</time></trkpt><trkpt lat="44.1793941" lon="8.3781752"><ele>12.0</ele><time>2026-04-18T13:51:37.284Z</time></trkpt><trkpt lat="44.179347" lon="8.3779017"><ele>13.0</ele><time>2026-04-18T13:51:38.284Z</time></trkpt><trkpt lat="44.1792963" lon="8.3776227"><ele>14.0</ele><time>2026-04-18T13:51:39.284Z</time></trkpt><trkpt lat="44.1792468" lon="8.3773428"><ele>16.0</ele><time>2026-04-18T13:51:40.284Z</time></trkpt><trkpt lat="44.179194" lon="8.3770668"><ele>18.0</ele><time>2026-04-18T13:51:41.284Z</time></trkpt><trkpt lat="44.179135" lon="8.3767931"><ele>20.0</ele><time>2026-04-18T13:51:42.284Z</time></trkpt><trkpt lat="44.1790675" lon="8.3765187"><ele>14.666666666666668</ele><time>2026-04-18T13:51:43.284Z</time></trkpt><trkpt lat="44.1789987" lon="8.3762495"><ele>9.333333333333334</ele><time>2026-04-18T13:51:44.283Z</time></trkpt><trkpt lat="44.1789404" lon="8.3759821"><ele>4.0</ele><time>2026-04-18T13:51:45.284Z</time></trkpt><trkpt lat="44.178891" lon="8.375711"><ele>4.666666666666666</ele><time>2026-04-18T13:51:46.284Z</time></trkpt><trkpt lat="44.1788418" lon="8.3754442"><ele>5.333333333333333</ele><time>2026-04-18T13:51:47.284Z</time></trkpt><trkpt lat="44.1788035" lon="8.3751902"><ele>6.0</ele><time>2026-04-18T13:51:48.283Z</time></trkpt><trkpt lat="44.1787673" lon="8.3749413"><ele>6.0</ele><time>2026-04-18T13:51:49.284Z</time></trkpt><trkpt lat="44.1787303" lon="8.3747036"><ele>6.0</ele><time>2026-04-18T13:51:50.283Z</time></trkpt><trkpt lat="44.1787012" lon="8.3744594"><ele>6.0</ele><time>2026-04-18T13:51:51.284Z</time></trkpt><trkpt lat="44.1786612" lon="8.3742115"><ele>7.0</ele><time>2026-04-18T13:51:52.284Z</time></trkpt><trkpt lat="44.1786184" lon="8.3739555"><ele>8.0</ele><time>2026-04-18T13:51:53.285Z</time></trkpt><trkpt lat="44.1785656" lon="8.3736848"><ele>9.0</ele><time>2026-04-18T13:51:54.285Z</time></trkpt><trkpt lat="44.1785089" lon="8.3734035"><ele>9.0</ele><time>2026-04-18T13:51:55.285Z</time></trkpt><trkpt lat="44.1784467" lon="8.3731125"><ele>9.0</ele><time>2026-04-18T13:51:56.285Z</time></trkpt><trkpt lat="44.1783823" lon="8.3728217"><ele>9.0</ele><time>2026-04-18T13:51:57.285Z</time></trkpt><trkpt lat="44.1783141" lon="8.3725245"><ele>10.666666666666668</ele><time>2026-04-18T13:51:58.284Z</time></trkpt><trkpt lat="44.1782496" lon="8.3722321"><ele>12.333333333333334</ele><time>2026-04-18T13:51:59.285Z</time></trkpt><trkpt lat="44.1781828" lon="8.3719406"><ele>14.0</ele><time>2026-04-18T13:52:00.285Z</time></trkpt><trkpt lat="44.1781083" lon="8.3716534"><ele>11.0</ele><time>2026-04-18T13:52:01.285Z</time></trkpt><trkpt lat="44.178029" lon="8.3713739"><ele>8.0</ele><time>2026-04-18T13:52:02.285Z</time></trkpt><trkpt lat="44.1779403" lon="8.3710988"><ele>5.0</ele><time>2026-04-18T13:52:03.285Z</time></trkpt><trkpt lat="44.1778409" lon="8.3708272"><ele>5.0</ele><time>2026-04-18T13:52:04.285Z</time></trkpt><trkpt lat="44.1777334" lon="8.3705707"><ele>5.0</ele><time>2026-04-18T13:52:05.284Z</time></trkpt><trkpt lat="44.1776173" lon="8.3703273"><ele>5.0</ele><time>2026-04-18T13:52:06.285Z</time></trkpt><trkpt lat="44.1774793" lon="8.370104"><ele>4.333333333333334</ele><time>2026-04-18T13:52:07.285Z</time></trkpt><trkpt lat="44.1773121" lon="8.3699117"><ele>3.666666666666667</ele><time>2026-04-18T13:52:08.285Z</time></trkpt><trkpt lat="44.1771275" lon="8.3697423"><ele>3.0</ele><time>2026-04-18T13:52:09.285Z</time></trkpt><trkpt lat="44.1769355" lon="8.3695991"><ele>3.0</ele><time>2026-04-18T13:52:10.284Z</time></trkpt><trkpt lat="44.1767438" lon="8.3694569"><ele>3.0</ele><time>2026-04-18T13:52:11.285Z</time></trkpt><trkpt lat="44.1765661" lon="8.3693069"><ele>3.0</ele><time>2026-04-18T13:52:12.285Z</time></trkpt><trkpt lat="44.1764006" lon="8.3691378"><ele>3.0</ele><time>2026-04-18T13:52:13.285Z</time></trkpt><trkpt lat="44.1762603" lon="8.3689516"><ele>3.0</ele><time>2026-04-18T13:52:14.285Z</time></trkpt><trkpt lat="44.1761163" lon="8.3687878"><ele>3.0</ele><time>2026-04-18T13:52:15.285Z</time></trkpt><trkpt lat="44.175945" lon="8.368673"><ele>6.0</ele><time>2026-04-18T13:52:16.285Z</time></trkpt><trkpt lat="44.1757556" lon="8.3686251"><ele>9.0</ele><time>2026-04-18T13:52:17.285Z</time></trkpt><trkpt lat="44.1755639" lon="8.3686125"><ele>12.0</ele><time>2026-04-18T13:52:18.284Z</time></trkpt><trkpt lat="44.1753849" lon="8.3685956"><ele>12.0</ele><time>2026-04-18T13:52:19.285Z</time></trkpt><trkpt lat="44.1752133" lon="8.3685444"><ele>12.0</ele><time>2026-04-18T13:52:20.285Z</time></trkpt><trkpt lat="44.1750578" lon="8.3684496"><ele>12.0</ele><time>2026-04-18T13:52:21.285Z</time></trkpt><trkpt lat="44.1749216" lon="8.3683018"><ele>14.0</ele><time>2026-04-18T13:52:22.284Z</time></trkpt><trkpt lat="44.1747921" lon="8.3681497"><ele>16.0</ele><time>2026-04-18T13:52:23.285Z</time></trkpt><trkpt lat="44.1746671" lon="8.3679917"><ele>18.0</ele><time>2026-04-18T13:52:24.285Z</time></trkpt><trkpt lat="44.1745421" lon="8.3678486"><ele>18.0</ele><time>2026-04-18T13:52:25.285Z</time></trkpt><trkpt lat="44.1744213" lon="8.3677044"><ele>18.0</ele><time>2026-04-18T13:52:26.285Z</time></trkpt><trkpt lat="44.1743043" lon="8.3675502"><ele>18.0</ele><time>2026-04-18T13:52:27.285Z</time></trkpt><trkpt lat="44.1742012" lon="8.3673988"><ele>18.0</ele><time>2026-04-18T13:52:28.284Z</time></trkpt><trkpt lat="44.1741081" lon="8.3672272"><ele>18.0</ele><time>2026-04-18T13:52:29.285Z</time></trkpt><trkpt lat="44.1740436" lon="8.3670385"><ele>18.0</ele><time>2026-04-18T13:52:30.285Z</time></trkpt><trkpt lat="44.1739806" lon="8.3668567"><ele>18.0</ele><time>2026-04-18T13:52:31.285Z</time></trkpt><trkpt lat="44.1739155" lon="8.3666656"><ele>14.0</ele><time>2026-04-18T13:52:32.285Z</time></trkpt><trkpt lat="44.1737764" lon="8.3662236"><ele>10.0</ele><time>2026-04-18T13:52:34.285Z</time></trkpt><trkpt lat="44.1736806" lon="8.3660409"><ele>10.0</ele><time>2026-04-18T13:52:35.285Z</time></trkpt><trkpt lat="44.1735863" lon="8.365858"><ele>10.0</ele><time>2026-04-18T13:52:36.285Z</time></trkpt><trkpt lat="44.1735005" lon="8.3656711"><ele>10.0</ele><time>2026-04-18T13:52:37.284Z</time></trkpt><trkpt lat="44.1734457" lon="8.365463"><ele>12.666666666666668</ele><time>2026-04-18T13:52:38.285Z</time></trkpt><trkpt lat="44.1734119" lon="8.3652514"><ele>15.333333333333334</ele><time>2026-04-18T13:52:39.284Z</time></trkpt><trkpt lat="44.1733749" lon="8.3650405"><ele>18.0</ele><time>2026-04-18T13:52:40.285Z</time></trkpt><trkpt lat="44.1733476" lon="8.364835"><ele>21.0</ele><time>2026-04-18T13:52:41.285Z</time></trkpt><trkpt lat="44.173329" lon="8.3646379"><ele>24.0</ele><time>2026-04-18T13:52:42.285Z</time></trkpt><trkpt lat="44.1732975" lon="8.3644387"><ele>27.0</ele><time>2026-04-18T13:52:43.285Z</time></trkpt><trkpt lat="44.1732636" lon="8.3642391"><ele>30.0</ele><time>2026-04-18T13:52:44.285Z</time></trkpt><trkpt lat="44.17323" lon="8.3640513"><ele>30.0</ele><time>2026-04-18T13:52:45.284Z</time></trkpt><trkpt lat="44.1731976" lon="8.3638705"><ele>30.0</ele><time>2026-04-18T13:52:46.284Z</time></trkpt><trkpt lat="44.1731667" lon="8.3636935"><ele>30.0</ele><time>2026-04-18T13:52:47.285Z</time></trkpt><trkpt lat="44.1731448" lon="8.3635182"><ele>30.0</ele><time>2026-04-18T13:52:48.285Z</time></trkpt><trkpt lat="44.1731259" lon="8.3633394"><ele>23.666666666666668</ele><time>2026-04-18T13:52:49.285Z</time></trkpt><trkpt lat="44.1730958" lon="8.3631446"><ele>17.333333333333332</ele><time>2026-04-18T13:52:50.284Z</time></trkpt><trkpt lat="44.1730519" lon="8.3629327"><ele>11.0</ele><time>2026-04-18T13:52:51.285Z</time></trkpt><trkpt lat="44.1730055" lon="8.3627127"><ele>11.0</ele><time>2026-04-18T13:52:52.285Z</time></trkpt><trkpt lat="44.1729597" lon="8.3625077"><ele>11.0</ele><time>2026-04-18T13:52:53.285Z</time></trkpt><trkpt lat="44.1729164" lon="8.3623158"><ele>11.0</ele><time>2026-04-18T13:52:54.285Z</time></trkpt><trkpt lat="44.1728771" lon="8.3621386"><ele>11.0</ele><time>2026-04-18T13:52:55.284Z</time></trkpt><trkpt lat="44.172833" lon="8.3619811"><ele>13.0</ele><time>2026-04-18T13:52:56.285Z</time></trkpt><trkpt lat="44.1727927" lon="8.3618414"><ele>15.0</ele><time>2026-04-18T13:52:57.285Z</time></trkpt><trkpt lat="44.1727632" lon="8.3617009"><ele>17.0</ele><time>2026-04-18T13:52:58.284Z</time></trkpt><trkpt lat="44.1727338" lon="8.3615702"><ele>19.0</ele><time>2026-04-18T13:52:59.285Z</time></trkpt><trkpt lat="44.1727039" lon="8.3614463"><ele>21.0</ele><time>2026-04-18T13:53:00.285Z</time></trkpt><trkpt lat="44.1726803" lon="8.3613241"><ele>22.0</ele><time>2026-04-18T13:53:01.285Z</time></trkpt><trkpt lat="44.1726493" lon="8.3611881"><ele>23.0</ele><time>2026-04-18T13:53:02.285Z</time></trkpt><trkpt lat="44.1726177" lon="8.3610436"><ele>24.0</ele><time>2026-04-18T13:53:03.284Z</time></trkpt><trkpt lat="44.1726085" lon="8.3609"><ele>25.0</ele><time>2026-04-18T13:53:04.285Z</time></trkpt><trkpt lat="44.1725869" lon="8.3607607"><ele>26.0</ele><time>2026-04-18T13:53:05.285Z</time></trkpt><trkpt lat="44.1725441" lon="8.3606316"><ele>25.4</ele><time>2026-04-18T13:53:06.284Z</time></trkpt><trkpt lat="44.1724901" lon="8.3605188"><ele>24.8</ele><time>2026-04-18T13:53:07.285Z</time></trkpt><trkpt lat="44.1724429" lon="8.3603988"><ele>24.2</ele><time>2026-04-18T13:53:08.285Z</time></trkpt><trkpt lat="44.1724086" lon="8.3602562"><ele>23.599999999999998</ele><time>2026-04-18T13:53:09.284Z</time></trkpt><trkpt lat="44.1723662" lon="8.360119"><ele>23.0</ele><time>2026-04-18T13:53:10.285Z</time></trkpt><trkpt lat="44.1723321" lon="8.3599629"><ele>19.0</ele><time>2026-04-18T13:53:11.285Z</time></trkpt><trkpt lat="44.1723065" lon="8.359818"><ele>14.999999999999998</ele><time>2026-04-18T13:53:12.284Z</time></trkpt><trkpt lat="44.1722871" lon="8.3596988"><ele>11.0</ele><time>2026-04-18T13:53:13.285Z</time></trkpt><trkpt lat="44.1722642" lon="8.3595862"><ele>7.0</ele><time>2026-04-18T13:53:14.284Z</time></trkpt><trkpt lat="44.1722472" lon="8.3594808"><ele>3.0</ele><time>2026-04-18T13:53:15.285Z</time></trkpt><trkpt lat="44.1722403" lon="8.3593326"><ele>2.8333333333333335</ele><time>2026-04-18T13:53:17.284Z</time></trkpt><trkpt lat="44.1722592" lon="8.359232"><ele>2.6666666666666665</ele><time>2026-04-18T13:53:19.285Z</time></trkpt><trkpt lat="44.1723141" lon="8.3591504"><ele>2.5</ele><time>2026-04-18T13:53:21.285Z</time></trkpt><trkpt lat="44.1723611" lon="8.3590565"><ele>2.333333333333333</ele><time>2026-04-18T13:53:23.285Z</time></trkpt><trkpt lat="44.1723143" lon="8.3589467"><ele>2.1666666666666665</ele><time>2026-04-18T13:53:26.285Z</time></trkpt><trkpt lat="44.1722334" lon="8.3589225"><ele>2.0</ele><time>2026-04-18T13:53:28.285Z</time></trkpt><trkpt lat="44.1721504" lon="8.3588013"><ele>1.9999999999999998</ele><time>2026-04-18T13:53:30.285Z</time></trkpt><trkpt lat="44.1721072" lon="8.3586493"><ele>2.0</ele><time>2026-04-18T13:53:32.285Z</time></trkpt><trkpt lat="44.1720885" lon="8.3585524"><ele>2.0</ele><time>2026-04-18T13:53:33.285Z</time></trkpt><trkpt lat="44.1720681" lon="8.3584476"><ele>2.0</ele><time>2026-04-18T13:53:34.284Z</time></trkpt><trkpt lat="44.1720445" lon="8.3583436"><ele>1.9999999999999998</ele><time>2026-04-18T13:53:35.285Z</time></trkpt><trkpt lat="44.1720222" lon="8.3582394"><ele>2.0</ele><time>2026-04-18T13:53:36.284Z</time></trkpt><trkpt lat="44.1720056" lon="8.3581267"><ele>2.2</ele><time>2026-04-18T13:53:37.285Z</time></trkpt><trkpt lat="44.1719823" lon="8.3580132"><ele>2.4000000000000004</ele><time>2026-04-18T13:53:38.285Z</time></trkpt><trkpt lat="44.1719593" lon="8.3578839"><ele>2.5999999999999996</ele><time>2026-04-18T13:53:39.285Z</time></trkpt><trkpt lat="44.1719304" lon="8.3577505"><ele>2.8</ele><time>2026-04-18T13:53:40.285Z</time></trkpt><trkpt lat="44.1719017" lon="8.3576118"><ele>3.0</ele><time>2026-04-18T13:53:41.284Z</time></trkpt><trkpt lat="44.1718757" lon="8.3574809"><ele>3.0</ele><time>2026-04-18T13:53:42.285Z</time></trkpt><trkpt lat="44.171847" lon="8.357342"><ele>3.0</ele><time>2026-04-18T13:53:43.285Z</time></trkpt><trkpt lat="44.1718203" lon="8.3572033"><ele>3.0</ele><time>2026-04-18T13:53:44.285Z</time></trkpt><trkpt lat="44.1717935" lon="8.3570798"><ele>3.0</ele><time>2026-04-18T13:53:45.285Z</time></trkpt><trkpt lat="44.1717739" lon="8.3569817"><ele>3.0</ele><time>2026-04-18T13:53:46.285Z</time></trkpt><trkpt lat="44.1717458" lon="8.3568445"><ele>3.4</ele><time>2026-04-18T13:53:48.285Z</time></trkpt><trkpt lat="44.1717075" lon="8.3566343"><ele>3.8</ele><time>2026-04-18T13:53:51.285Z</time></trkpt><trkpt lat="44.1716793" lon="8.3565117"><ele>4.2</ele><time>2026-04-18T13:53:52.285Z</time></trkpt><trkpt lat="44.1716557" lon="8.356384"><ele>4.6</ele><time>2026-04-18T13:53:53.284Z</time></trkpt><trkpt lat="44.171639" lon="8.3562718"><ele>5.0</ele><time>2026-04-18T13:53:54.285Z</time></trkpt><trkpt lat="44.171617" lon="8.3561455"><ele>5.25</ele><time>2026-04-18T13:53:55.285Z</time></trkpt><trkpt lat="44.1715883" lon="8.3559882"><ele>5.5</ele><time>2026-04-18T13:53:56.285Z</time></trkpt><trkpt lat="44.1715593" lon="8.3558185"><ele>5.75</ele><time>2026-04-18T13:53:57.285Z</time></trkpt><trkpt lat="44.1715213" lon="8.3556415"><ele>6.0</ele><time>2026-04-18T13:53:58.285Z</time></trkpt><trkpt lat="44.1714895" lon="8.355452"><ele>6.0</ele><time>2026-04-18T13:53:59.285Z</time></trkpt><trkpt lat="44.1714504" lon="8.3552557"><ele>6.0</ele><time>2026-04-18T13:54:00.285Z</time></trkpt><trkpt lat="44.1714128" lon="8.3550654"><ele>6.0</ele><time>2026-04-18T13:54:01.285Z</time></trkpt><trkpt lat="44.171377" lon="8.3548884"><ele>6.0</ele><time>2026-04-18T13:54:02.285Z</time></trkpt><trkpt lat="44.1713499" lon="8.354717"><ele>6.0</ele><time>2026-04-18T13:54:03.285Z</time></trkpt><trkpt lat="44.1713181" lon="8.3545622"><ele>6.0</ele><time>2026-04-18T13:54:04.285Z</time></trkpt><trkpt lat="44.1712897" lon="8.3544143"><ele>6.0</ele><time>2026-04-18T13:54:05.284Z</time></trkpt><trkpt lat="44.1712585" lon="8.354263"><ele>6.0</ele><time>2026-04-18T13:54:06.286Z</time></trkpt><trkpt lat="44.1712268" lon="8.3541083"><ele>6.0</ele><time>2026-04-18T13:54:07.285Z</time></trkpt><trkpt lat="44.1711949" lon="8.3539533"><ele>6.0</ele><time>2026-04-18T13:54:08.286Z</time></trkpt><trkpt lat="44.1711619" lon="8.3538093"><ele>6.0</ele><time>2026-04-18T13:54:09.286Z</time></trkpt><trkpt lat="44.1711384" lon="8.3536724"><ele>6.0</ele><time>2026-04-18T13:54:10.286Z</time></trkpt><trkpt lat="44.1711119" lon="8.3535504"><ele>6.0</ele><time>2026-04-18T13:54:11.285Z</time></trkpt><trkpt lat="44.1710881" lon="8.3534414"><ele>6.333333333333333</ele><time>2026-04-18T13:54:12.286Z</time></trkpt><trkpt lat="44.171068" lon="8.3533374"><ele>6.666666666666666</ele><time>2026-04-18T13:54:13.286Z</time></trkpt><trkpt lat="44.1710455" lon="8.3532309"><ele>7.0</ele><time>2026-04-18T13:54:14.286Z</time></trkpt><trkpt lat="44.1710263" lon="8.353122"><ele>7.333333333333333</ele><time>2026-04-18T13:54:15.286Z</time></trkpt><trkpt lat="44.1709909" lon="8.3529942"><ele>7.666666666666666</ele><time>2026-04-18T13:54:16.286Z</time></trkpt><trkpt lat="44.1709538" lon="8.3528787"><ele>8.0</ele><time>2026-04-18T13:54:17.286Z</time></trkpt><trkpt lat="44.1709219" lon="8.3527415"><ele>8.0</ele><time>2026-04-18T13:54:18.286Z</time></trkpt><trkpt lat="44.1708843" lon="8.3526099"><ele>8.0</ele><time>2026-04-18T13:54:19.286Z</time></trkpt><trkpt lat="44.1708479" lon="8.3524878"><ele>8.0</ele><time>2026-04-18T13:54:20.285Z</time></trkpt><trkpt lat="44.1708122" lon="8.3523657"><ele>8.0</ele><time>2026-04-18T13:54:21.286Z</time></trkpt><trkpt lat="44.1707675" lon="8.3522528"><ele>8.0</ele><time>2026-04-18T13:54:22.286Z</time></trkpt><trkpt lat="44.1707345" lon="8.3521264"><ele>8.4</ele><time>2026-04-18T13:54:23.286Z</time></trkpt><trkpt lat="44.1707029" lon="8.3520068"><ele>8.8</ele><time>2026-04-18T13:54:24.286Z</time></trkpt><trkpt lat="44.1706786" lon="8.3518631"><ele>9.2</ele><time>2026-04-18T13:54:25.286Z</time></trkpt><trkpt lat="44.1706483" lon="8.3517162"><ele>9.6</ele><time>2026-04-18T13:54:26.286Z</time></trkpt><trkpt lat="44.1706153" lon="8.3515867"><ele>10.0</ele><time>2026-04-18T13:54:27.286Z</time></trkpt><trkpt lat="44.1705888" lon="8.3514557"><ele>8.8</ele><time>2026-04-18T13:54:28.286Z</time></trkpt><trkpt lat="44.1705616" lon="8.3513244"><ele>7.6</ele><time>2026-04-18T13:54:29.285Z</time></trkpt><trkpt lat="44.1705344" lon="8.3512036"><ele>6.4</ele><time>2026-04-18T13:54:30.286Z</time></trkpt><trkpt lat="44.1705074" lon="8.351092"><ele>5.2</ele><time>2026-04-18T13:54:31.286Z</time></trkpt><trkpt lat="44.1704865" lon="8.3509705"><ele>4.0</ele><time>2026-04-18T13:54:32.286Z</time></trkpt><trkpt lat="44.1704772" lon="8.3508306"><ele>4.0</ele><time>2026-04-18T13:54:33.286Z</time></trkpt><trkpt lat="44.1704707" lon="8.3506871"><ele>4.0</ele><time>2026-04-18T13:54:34.286Z</time></trkpt><trkpt lat="44.1704611" lon="8.3505453"><ele>4.0</ele><time>2026-04-18T13:54:35.286Z</time></trkpt><trkpt lat="44.1704425" lon="8.3504084"><ele>4.0</ele><time>2026-04-18T13:54:36.285Z</time></trkpt><trkpt lat="44.1704192" lon="8.3502778"><ele>4.0</ele><time>2026-04-18T13:54:37.286Z</time></trkpt><trkpt lat="44.1703895" lon="8.35015"><ele>4.4</ele><time>2026-04-18T13:54:38.286Z</time></trkpt><trkpt lat="44.170364" lon="8.3500277"><ele>4.800000000000001</ele><time>2026-04-18T13:54:39.285Z</time></trkpt><trkpt lat="44.1703554" lon="8.3499014"><ele>5.199999999999999</ele><time>2026-04-18T13:54:40.286Z</time></trkpt><trkpt lat="44.1703733" lon="8.3497717"><ele>5.6</ele><time>2026-04-18T13:54:41.285Z</time></trkpt><trkpt lat="44.1704111" lon="8.349655"><ele>6.0</ele><time>2026-04-18T13:54:42.286Z</time></trkpt><trkpt lat="44.1704606" lon="8.3495437"><ele>6.8</ele><time>2026-04-18T13:54:43.286Z</time></trkpt><trkpt lat="44.1705023" lon="8.349424"><ele>7.6</ele><time>2026-04-18T13:54:44.286Z</time></trkpt><trkpt lat="44.1705487" lon="8.3492989"><ele>8.4</ele><time>2026-04-18T13:54:45.285Z</time></trkpt><trkpt lat="44.170602" lon="8.3491671"><ele>9.2</ele><time>2026-04-18T13:54:46.286Z</time></trkpt><trkpt lat="44.1706514" lon="8.3490365"><ele>10.0</ele><time>2026-04-18T13:54:47.285Z</time></trkpt><trkpt lat="44.1706877" lon="8.3489094"><ele>11.4</ele><time>2026-04-18T13:54:48.286Z</time></trkpt><trkpt lat="44.1707137" lon="8.3487686"><ele>12.8</ele><time>2026-04-18T13:54:49.286Z</time></trkpt><trkpt lat="44.1707243" lon="8.3486189"><ele>14.2</ele><time>2026-04-18T13:54:50.286Z</time></trkpt><trkpt lat="44.1707209" lon="8.348473"><ele>15.6</ele><time>2026-04-18T13:54:51.286Z</time></trkpt><trkpt lat="44.1707151" lon="8.348335"><ele>17.0</ele><time>2026-04-18T13:54:52.286Z</time></trkpt><trkpt lat="44.1707055" lon="8.3481855"><ele>16.2</ele><time>2026-04-18T13:54:53.286Z</time></trkpt><trkpt lat="44.1706863" lon="8.3480379"><ele>15.399999999999999</ele><time>2026-04-18T13:54:54.286Z</time></trkpt><trkpt lat="44.1706751" lon="8.3478869"><ele>14.600000000000001</ele><time>2026-04-18T13:54:55.286Z</time></trkpt><trkpt lat="44.1706643" lon="8.3477326"><ele>13.8</ele><time>2026-04-18T13:54:56.286Z</time></trkpt><trkpt lat="44.1706524" lon="8.3475835"><ele>13.0</ele><time>2026-04-18T13:54:57.286Z</time></trkpt><trkpt lat="44.1706426" lon="8.3474379"><ele>12.999999999999998</ele><time>2026-04-18T13:54:58.286Z</time></trkpt><trkpt lat="44.1706342" lon="8.3472969"><ele>13.0</ele><time>2026-04-18T13:54:59.285Z</time></trkpt><trkpt lat="44.1706312" lon="8.3471674"><ele>13.0</ele><time>2026-04-18T13:55:00.286Z</time></trkpt><trkpt lat="44.1706295" lon="8.3470528"><ele>13.0</ele><time>2026-04-18T13:55:01.286Z</time></trkpt><trkpt lat="44.1706212" lon="8.3469525"><ele>12.999999999999998</ele><time>2026-04-18T13:55:02.286Z</time></trkpt><trkpt lat="44.1706077" lon="8.3468665"><ele>13.0</ele><time>2026-04-18T13:55:03.286Z</time></trkpt><trkpt lat="44.1706101" lon="8.3467657"><ele>12.833333333333332</ele><time>2026-04-18T13:55:04.285Z</time></trkpt><trkpt lat="44.1706171" lon="8.3466725"><ele>12.666666666666666</ele><time>2026-04-18T13:55:05.286Z</time></trkpt><trkpt lat="44.1706424" lon="8.3465472"><ele>12.5</ele><time>2026-04-18T13:55:07.286Z</time></trkpt><trkpt lat="44.1706531" lon="8.3464316"><ele>12.333333333333332</ele><time>2026-04-18T13:55:09.286Z</time></trkpt><trkpt lat="44.1706608" lon="8.3462624"><ele>12.166666666666666</ele><time>2026-04-18T13:55:11.286Z</time></trkpt><trkpt lat="44.1706648" lon="8.3461559"><ele>12.0</ele><time>2026-04-18T13:55:12.285Z</time></trkpt><trkpt lat="44.1706719" lon="8.3460291"><ele>12.0</ele><time>2026-04-18T13:55:13.286Z</time></trkpt><trkpt lat="44.1706727" lon="8.3458932"><ele>12.0</ele><time>2026-04-18T13:55:14.286Z</time></trkpt><trkpt lat="44.1706624" lon="8.3457748"><ele>12.0</ele><time>2026-04-18T13:55:15.286Z</time></trkpt><trkpt lat="44.1706399" lon="8.3456509"><ele>12.0</ele><time>2026-04-18T13:55:16.285Z</time></trkpt><trkpt lat="44.1706175" lon="8.3455218"><ele>12.0</ele><time>2026-04-18T13:55:17.286Z</time></trkpt><trkpt lat="44.1706005" lon="8.3453908"><ele>12.2</ele><time>2026-04-18T13:55:18.286Z</time></trkpt><trkpt lat="44.1705876" lon="8.345261"><ele>12.399999999999999</ele><time>2026-04-18T13:55:19.286Z</time></trkpt><trkpt lat="44.1705802" lon="8.34513"><ele>12.600000000000001</ele><time>2026-04-18T13:55:20.286Z</time></trkpt><trkpt lat="44.1705699" lon="8.3449936"><ele>12.8</ele><time>2026-04-18T13:55:21.286Z</time></trkpt><trkpt lat="44.1705609" lon="8.3448686"><ele>13.0</ele><time>2026-04-18T13:55:22.286Z</time></trkpt><trkpt lat="44.1705405" lon="8.3447466"><ele>13.0</ele><time>2026-04-18T13:55:23.286Z</time></trkpt><trkpt lat="44.1705092" lon="8.3446303"><ele>13.0</ele><time>2026-04-18T13:55:24.286Z</time></trkpt><trkpt lat="44.1704647" lon="8.3445167"><ele>13.0</ele><time>2026-04-18T13:55:25.285Z</time></trkpt><trkpt lat="44.1704076" lon="8.3444058"><ele>13.0</ele><time>2026-04-18T13:55:26.286Z</time></trkpt><trkpt lat="44.170355" lon="8.3442943"><ele>13.0</ele><time>2026-04-18T13:55:27.286Z</time></trkpt><trkpt lat="44.1703008" lon="8.3441784"><ele>13.0</ele><time>2026-04-18T13:55:28.286Z</time></trkpt><trkpt lat="44.1702488" lon="8.3440689"><ele>13.0</ele><time>2026-04-18T13:55:29.286Z</time></trkpt><trkpt lat="44.1701971" lon="8.3439598"><ele>13.0</ele><time>2026-04-18T13:55:30.286Z</time></trkpt><trkpt lat="44.1701479" lon="8.3438506"><ele>13.0</ele><time>2026-04-18T13:55:31.285Z</time></trkpt><trkpt lat="44.170099" lon="8.3437469"><ele>13.0</ele><time>2026-04-18T13:55:32.286Z</time></trkpt><trkpt lat="44.1700459" lon="8.3436359"><ele>12.833333333333332</ele><time>2026-04-18T13:55:33.285Z</time></trkpt><trkpt lat="44.1700033" lon="8.3435318"><ele>12.666666666666666</ele><time>2026-04-18T13:55:34.286Z</time></trkpt><trkpt lat="44.1699633" lon="8.3434555"><ele>12.5</ele><time>2026-04-18T13:55:35.286Z</time></trkpt><trkpt lat="44.1699211" lon="8.3433582"><ele>12.333333333333332</ele><time>2026-04-18T13:55:36.286Z</time></trkpt><trkpt lat="44.1698745" lon="8.3432776"><ele>12.166666666666666</ele><time>2026-04-18T13:55:37.286Z</time></trkpt><trkpt lat="44.1698298" lon="8.3431798"><ele>12.0</ele><time>2026-04-18T13:55:38.286Z</time></trkpt><trkpt lat="44.1697865" lon="8.3430885"><ele>11.833333333333334</ele><time>2026-04-18T13:55:39.286Z</time></trkpt><trkpt lat="44.1697505" lon="8.3430074"><ele>11.666666666666666</ele><time>2026-04-18T13:55:40.286Z</time></trkpt><trkpt lat="44.1697128" lon="8.3429338"><ele>11.5</ele><time>2026-04-18T13:55:41.285Z</time></trkpt><trkpt lat="44.1696483" lon="8.3427785"><ele>11.333333333333332</ele><time>2026-04-18T13:55:43.286Z</time></trkpt><trkpt lat="44.1696154" lon="8.3426964"><ele>11.166666666666666</ele><time>2026-04-18T13:55:44.286Z</time></trkpt><trkpt lat="44.1695806" lon="8.3426123"><ele>11.0</ele><time>2026-04-18T13:55:45.286Z</time></trkpt><trkpt lat="44.1695436" lon="8.3425331"><ele>11.0</ele><time>2026-04-18T13:55:46.286Z</time></trkpt><trkpt lat="44.169482" lon="8.3424009"><ele>11.0</ele><time>2026-04-18T13:55:48.286Z</time></trkpt><trkpt lat="44.1694472" lon="8.342301"><ele>11.0</ele><time>2026-04-18T13:55:50.286Z</time></trkpt><trkpt lat="44.1693749" lon="8.3421673"><ele>11.0</ele><time>2026-04-18T13:55:52.286Z</time></trkpt><trkpt lat="44.1693275" lon="8.3420893"><ele>11.0</ele><time>2026-04-18T13:55:53.286Z</time></trkpt><trkpt lat="44.1692418" lon="8.3419594"><ele>10.25</ele><time>2026-04-18T13:55:54.285Z</time></trkpt><trkpt lat="44.1691555" lon="8.3418167"><ele>9.5</ele><time>2026-04-18T13:55:55.286Z</time></trkpt><trkpt lat="44.1690765" lon="8.3416881"><ele>8.75</ele><time>2026-04-18T13:55:56.286Z</time></trkpt><trkpt lat="44.1690029" lon="8.3415594"><ele>8.0</ele><time>2026-04-18T13:55:57.286Z</time></trkpt><trkpt lat="44.1689374" lon="8.3414418"><ele>7.666666666666666</ele><time>2026-04-18T13:55:58.285Z</time></trkpt><trkpt lat="44.168875" lon="8.3413326"><ele>7.333333333333333</ele><time>2026-04-18T13:55:59.286Z</time></trkpt><trkpt lat="44.1688198" lon="8.3412372"><ele>7.0</ele><time>2026-04-18T13:56:00.286Z</time></trkpt><trkpt lat="44.1687797" lon="8.3411449"><ele>6.666666666666666</ele><time>2026-04-18T13:56:01.286Z</time></trkpt><trkpt lat="44.1687481" lon="8.3410496"><ele>6.333333333333333</ele><time>2026-04-18T13:56:02.286Z</time></trkpt><trkpt lat="44.1687192" lon="8.3409701"><ele>6.0</ele><time>2026-04-18T13:56:03.287Z</time></trkpt><trkpt lat="44.1686524" lon="8.3408881"><ele>6.0</ele><time>2026-04-18T13:56:05.286Z</time></trkpt><trkpt lat="44.1685529" lon="8.3407654"><ele>6.0</ele><time>2026-04-18T13:56:07.286Z</time></trkpt><trkpt lat="44.1684906" lon="8.3406821"><ele>6.0</ele><time>2026-04-18T13:56:08.287Z</time></trkpt><trkpt lat="44.168426" lon="8.3405946"><ele>6.0</ele><time>2026-04-18T13:56:09.287Z</time></trkpt><trkpt lat="44.1683538" lon="8.3405278"><ele>6.0</ele><time>2026-04-18T13:56:10.287Z</time></trkpt><trkpt lat="44.1682745" lon="8.3404563"><ele>6.0</ele><time>2026-04-18T13:56:11.286Z</time></trkpt><trkpt lat="44.1682148" lon="8.340355"><ele>6.0</ele><time>2026-04-18T13:56:12.287Z</time></trkpt><trkpt lat="44.1681545" lon="8.3402509"><ele>6.0</ele><time>2026-04-18T13:56:13.287Z</time></trkpt><trkpt lat="44.1680864" lon="8.3401539"><ele>6.0</ele><time>2026-04-18T13:56:14.287Z</time></trkpt><trkpt lat="44.1679989" lon="8.3400596"><ele>6.0</ele><time>2026-04-18T13:56:15.286Z</time></trkpt><trkpt lat="44.1679076" lon="8.3399507"><ele>5.666666666666667</ele><time>2026-04-18T13:56:16.287Z</time></trkpt><trkpt lat="44.1678076" lon="8.3398196"><ele>5.333333333333334</ele><time>2026-04-18T13:56:17.287Z</time></trkpt><trkpt lat="44.1676814" lon="8.3396724"><ele>5.0</ele><time>2026-04-18T13:56:18.287Z</time></trkpt><trkpt lat="44.1675578" lon="8.339532"><ele>5.0</ele><time>2026-04-18T13:56:19.287Z</time></trkpt><trkpt lat="44.1674381" lon="8.3393897"><ele>5.0</ele><time>2026-04-18T13:56:20.287Z</time></trkpt><trkpt lat="44.1673212" lon="8.3392509"><ele>5.0</ele><time>2026-04-18T13:56:21.287Z</time></trkpt><trkpt lat="44.1672062" lon="8.3391205"><ele>5.0</ele><time>2026-04-18T13:56:22.287Z</time></trkpt><trkpt lat="44.1670986" lon="8.3389893"><ele>5.0</ele><time>2026-04-18T13:56:23.286Z</time></trkpt><trkpt lat="44.1669936" lon="8.338842"><ele>5.0</ele><time>2026-04-18T13:56:24.287Z</time></trkpt><trkpt lat="44.1668889" lon="8.338695"><ele>5.0</ele><time>2026-04-18T13:56:25.287Z</time></trkpt><trkpt lat="44.1667953" lon="8.3385455"><ele>5.0</ele><time>2026-04-18T13:56:26.287Z</time></trkpt><trkpt lat="44.1667058" lon="8.3383993"><ele>5.0</ele><time>2026-04-18T13:56:27.287Z</time></trkpt><trkpt lat="44.1666078" lon="8.3382601"><ele>5.0</ele><time>2026-04-18T13:56:28.287Z</time></trkpt><trkpt lat="44.1665233" lon="8.3381024"><ele>5.0</ele><time>2026-04-18T13:56:29.286Z</time></trkpt><trkpt lat="44.1664214" lon="8.337936"><ele>5.0</ele><time>2026-04-18T13:56:30.287Z</time></trkpt><trkpt lat="44.166314" lon="8.3377662"><ele>5.0</ele><time>2026-04-18T13:56:31.287Z</time></trkpt><trkpt lat="44.1661857" lon="8.3376055"><ele>5.0</ele><time>2026-04-18T13:56:32.287Z</time></trkpt><trkpt lat="44.1660434" lon="8.3374661"><ele>5.0</ele><time>2026-04-18T13:56:33.287Z</time></trkpt><trkpt lat="44.1658987" lon="8.3373429"><ele>5.0</ele><time>2026-04-18T13:56:34.287Z</time></trkpt><trkpt lat="44.1657573" lon="8.3372417"><ele>5.0</ele><time>2026-04-18T13:56:35.287Z</time></trkpt><trkpt lat="44.1656043" lon="8.3371711"><ele>9.666666666666666</ele><time>2026-04-18T13:56:36.286Z</time></trkpt><trkpt lat="44.1654377" lon="8.3371043"><ele>14.333333333333332</ele><time>2026-04-18T13:56:37.286Z</time></trkpt><trkpt lat="44.1652518" lon="8.3370364"><ele>19.0</ele><time>2026-04-18T13:56:38.287Z</time></trkpt><trkpt lat="44.1650549" lon="8.3369815"><ele>17.666666666666664</ele><time>2026-04-18T13:56:39.286Z</time></trkpt><trkpt lat="44.1648512" lon="8.3369498"><ele>16.333333333333332</ele><time>2026-04-18T13:56:40.287Z</time></trkpt><trkpt lat="44.1646468" lon="8.3369234"><ele>15.0</ele><time>2026-04-18T13:56:41.287Z</time></trkpt><trkpt lat="44.1644462" lon="8.3369053"><ele>15.0</ele><time>2026-04-18T13:56:42.287Z</time></trkpt><trkpt lat="44.1642487" lon="8.336879"><ele>15.0</ele><time>2026-04-18T13:56:43.286Z</time></trkpt><trkpt lat="44.1640586" lon="8.3368512"><ele>15.0</ele><time>2026-04-18T13:56:44.286Z</time></trkpt><trkpt lat="44.1638882" lon="8.3368269"><ele>21.666666666666664</ele><time>2026-04-18T13:56:45.287Z</time></trkpt><trkpt lat="44.1637214" lon="8.3367896"><ele>28.333333333333332</ele><time>2026-04-18T13:56:46.287Z</time></trkpt><trkpt lat="44.163553" lon="8.3367482"><ele>35.0</ele><time>2026-04-18T13:56:47.287Z</time></trkpt><trkpt lat="44.1633901" lon="8.3366784"><ele>35.0</ele><time>2026-04-18T13:56:48.287Z</time></trkpt><trkpt lat="44.163246" lon="8.3366049"><ele>35.0</ele><time>2026-04-18T13:56:49.287Z</time></trkpt><trkpt lat="44.1631132" lon="8.3365233"><ele>35.0</ele><time>2026-04-18T13:56:50.286Z</time></trkpt><trkpt lat="44.162995" lon="8.3364336"><ele>35.0</ele><time>2026-04-18T13:56:51.286Z</time></trkpt><trkpt lat="44.1628878" lon="8.3363207"><ele>37.0</ele><time>2026-04-18T13:56:52.286Z</time></trkpt><trkpt lat="44.1627845" lon="8.336215"><ele>39.0</ele><time>2026-04-18T13:56:53.287Z</time></trkpt><trkpt lat="44.1626906" lon="8.3360823"><ele>41.0</ele><time>2026-04-18T13:56:54.287Z</time></trkpt><trkpt lat="44.1625995" lon="8.3357175"><ele>25.5</ele><time>2026-04-18T13:56:56.287Z</time></trkpt><trkpt lat="44.1622522" lon="8.3354116"><ele>10.0</ele><time>2026-04-18T13:56:59.287Z</time></trkpt><trkpt lat="44.1622123" lon="8.3351885"><ele>10.0</ele><time>2026-04-18T13:57:00.287Z</time></trkpt><trkpt lat="44.1621732" lon="8.3349844"><ele>10.0</ele><time>2026-04-18T13:57:01.287Z</time></trkpt><trkpt lat="44.1621408" lon="8.3347869"><ele>10.0</ele><time>2026-04-18T13:57:02.287Z</time></trkpt><trkpt lat="44.1621058" lon="8.3345769"><ele>10.333333333333334</ele><time>2026-04-18T13:57:03.287Z</time></trkpt><trkpt lat="44.162067" lon="8.3343561"><ele>10.666666666666666</ele><time>2026-04-18T13:57:04.287Z</time></trkpt><trkpt lat="44.1620248" lon="8.3341101"><ele>11.0</ele><time>2026-04-18T13:57:05.287Z</time></trkpt><trkpt lat="44.1619844" lon="8.333837"><ele>12.0</ele><time>2026-04-18T13:57:06.287Z</time></trkpt><trkpt lat="44.1619466" lon="8.3335472"><ele>13.0</ele><time>2026-04-18T13:57:07.287Z</time></trkpt><trkpt lat="44.1619057" lon="8.3332536"><ele>14.0</ele><time>2026-04-18T13:57:08.287Z</time></trkpt><trkpt lat="44.1618628" lon="8.3329545"><ele>14.0</ele><time>2026-04-18T13:57:09.286Z</time></trkpt><trkpt lat="44.1618174" lon="8.3326514"><ele>14.0</ele><time>2026-04-18T13:57:10.286Z</time></trkpt><trkpt lat="44.1617711" lon="8.3323488"><ele>14.0</ele><time>2026-04-18T13:57:11.287Z</time></trkpt><trkpt lat="44.1617258" lon="8.3320403"><ele>13.333333333333334</ele><time>2026-04-18T13:57:12.287Z</time></trkpt><trkpt lat="44.1616819" lon="8.3317404"><ele>12.666666666666668</ele><time>2026-04-18T13:57:13.287Z</time></trkpt><trkpt lat="44.1616362" lon="8.3314459"><ele>12.0</ele><time>2026-04-18T13:57:14.286Z</time></trkpt><trkpt lat="44.1615923" lon="8.3311592"><ele>12.0</ele><time>2026-04-18T13:57:15.287Z</time></trkpt><trkpt lat="44.1615488" lon="8.3308843"><ele>12.0</ele><time>2026-04-18T13:57:16.286Z</time></trkpt><trkpt lat="44.1615112" lon="8.3306253"><ele>12.0</ele><time>2026-04-18T13:57:17.287Z</time></trkpt><trkpt lat="44.1614747" lon="8.3303819"><ele>9.0</ele><time>2026-04-18T13:57:18.287Z</time></trkpt><trkpt lat="44.1614384" lon="8.3301337"><ele>6.0</ele><time>2026-04-18T13:57:19.287Z</time></trkpt><trkpt lat="44.1613941" lon="8.329864"><ele>3.0</ele><time>2026-04-18T13:57:20.287Z</time></trkpt><trkpt lat="44.1613494" lon="8.3295809"><ele>3.0</ele><time>2026-04-18T13:57:21.287Z</time></trkpt><trkpt lat="44.1613089" lon="8.3292851"><ele>3.0</ele><time>2026-04-18T13:57:22.286Z</time></trkpt><trkpt lat="44.1612606" lon="8.3289824"><ele>3.0</ele><time>2026-04-18T13:57:23.287Z</time></trkpt><trkpt lat="44.1612152" lon="8.3286771"><ele>3.0</ele><time>2026-04-18T13:57:24.287Z</time></trkpt><trkpt lat="44.1611705" lon="8.3283737"><ele>3.0</ele><time>2026-04-18T13:57:25.287Z</time></trkpt><trkpt lat="44.1611206" lon="8.3280665"><ele>3.0</ele><time>2026-04-18T13:57:26.287Z</time></trkpt><trkpt lat="44.1610758" lon="8.3277603"><ele>4.333333333333334</ele><time>2026-04-18T13:57:27.286Z</time></trkpt><trkpt lat="44.161033" lon="8.3274622"><ele>5.666666666666667</ele><time>2026-04-18T13:57:28.286Z</time></trkpt><trkpt lat="44.1609897" lon="8.327175"><ele>7.0</ele><time>2026-04-18T13:57:29.287Z</time></trkpt><trkpt lat="44.1609476" lon="8.3268849"><ele>8.0</ele><time>2026-04-18T13:57:30.287Z</time></trkpt><trkpt lat="44.1609057" lon="8.3266005"><ele>9.0</ele><time>2026-04-18T13:57:31.286Z</time></trkpt><trkpt lat="44.1608634" lon="8.3263319"><ele>10.0</ele><time>2026-04-18T13:57:32.287Z</time></trkpt><trkpt lat="44.1608176" lon="8.326061"><ele>8.0</ele><time>2026-04-18T13:57:33.286Z</time></trkpt><trkpt lat="44.1607716" lon="8.3257859"><ele>6.0</ele><time>2026-04-18T13:57:34.287Z</time></trkpt><trkpt lat="44.1607299" lon="8.3255086"><ele>4.0</ele><time>2026-04-18T13:57:35.287Z</time></trkpt><trkpt lat="44.1606856" lon="8.3252397"><ele>4.0</ele><time>2026-04-18T13:57:36.287Z</time></trkpt><trkpt lat="44.1606485" lon="8.3249911"><ele>4.0</ele><time>2026-04-18T13:57:37.287Z</time></trkpt><trkpt lat="44.1606185" lon="8.3247626"><ele>4.0</ele><time>2026-04-18T13:57:38.287Z</time></trkpt><trkpt lat="44.1605832" lon="8.324556"><ele>3.75</ele><time>2026-04-18T13:57:39.287Z</time></trkpt><trkpt lat="44.1605491" lon="8.3243667"><ele>3.5</ele><time>2026-04-18T13:57:40.287Z</time></trkpt><trkpt lat="44.1605193" lon="8.3241735"><ele>3.25</ele><time>2026-04-18T13:57:41.286Z</time></trkpt><trkpt lat="44.1604883" lon="8.3239669"><ele>3.0</ele><time>2026-04-18T13:57:42.287Z</time></trkpt><trkpt lat="44.1604571" lon="8.3237369"><ele>2.6666666666666665</ele><time>2026-04-18T13:57:43.287Z</time></trkpt><trkpt lat="44.1604264" lon="8.3234997"><ele>2.333333333333333</ele><time>2026-04-18T13:57:44.287Z</time></trkpt><trkpt lat="44.1603997" lon="8.323271"><ele>2.0</ele><time>2026-04-18T13:57:45.287Z</time></trkpt><trkpt lat="44.1603649" lon="8.3230521"><ele>3.0</ele><time>2026-04-18T13:57:46.286Z</time></trkpt><trkpt lat="44.1603387" lon="8.3228324"><ele>4.0</ele><time>2026-04-18T13:57:47.287Z</time></trkpt><trkpt lat="44.1603038" lon="8.3226094"><ele>5.0</ele><time>2026-04-18T13:57:48.287Z</time></trkpt><trkpt lat="44.1602705" lon="8.3223848"><ele>4.333333333333334</ele><time>2026-04-18T13:57:49.287Z</time></trkpt><trkpt lat="44.1602314" lon="8.3221617"><ele>3.666666666666667</ele><time>2026-04-18T13:57:50.286Z</time></trkpt><trkpt lat="44.1601949" lon="8.3219382"><ele>3.0</ele><time>2026-04-18T13:57:51.287Z</time></trkpt><trkpt lat="44.1601597" lon="8.3217143"><ele>3.0</ele><time>2026-04-18T13:57:52.287Z</time></trkpt><trkpt lat="44.160127" lon="8.3214895"><ele>3.0</ele><time>2026-04-18T13:57:53.287Z</time></trkpt><trkpt lat="44.1600955" lon="8.3212616"><ele>3.0</ele><time>2026-04-18T13:57:54.288Z</time></trkpt><trkpt lat="44.1600627" lon="8.3210264"><ele>3.666666666666667</ele><time>2026-04-18T13:57:55.288Z</time></trkpt><trkpt lat="44.1600249" lon="8.3207954"><ele>4.333333333333334</ele><time>2026-04-18T13:57:56.288Z</time></trkpt><trkpt lat="44.1599924" lon="8.3205628"><ele>5.0</ele><time>2026-04-18T13:57:57.288Z</time></trkpt><trkpt lat="44.1599593" lon="8.3203367"><ele>4.333333333333334</ele><time>2026-04-18T13:57:58.288Z</time></trkpt><trkpt lat="44.1599217" lon="8.3201152"><ele>3.666666666666667</ele><time>2026-04-18T13:57:59.288Z</time></trkpt><trkpt lat="44.1598813" lon="8.3198902"><ele>3.0</ele><time>2026-04-18T13:58:00.288Z</time></trkpt><trkpt lat="44.1598424" lon="8.3196589"><ele>3.0</ele><time>2026-04-18T13:58:01.288Z</time></trkpt><trkpt lat="44.1597987" lon="8.319433"><ele>3.0</ele><time>2026-04-18T13:58:02.288Z</time></trkpt><trkpt lat="44.1597524" lon="8.319207"><ele>3.0</ele><time>2026-04-18T13:58:03.288Z</time></trkpt><trkpt lat="44.1597095" lon="8.3189843"><ele>3.666666666666667</ele><time>2026-04-18T13:58:04.288Z</time></trkpt><trkpt lat="44.1596655" lon="8.3187634"><ele>4.333333333333334</ele><time>2026-04-18T13:58:05.288Z</time></trkpt><trkpt lat="44.1596181" lon="8.3185292"><ele>5.0</ele><time>2026-04-18T13:58:06.288Z</time></trkpt><trkpt lat="44.1595687" lon="8.3182859"><ele>5.666666666666667</ele><time>2026-04-18T13:58:07.287Z</time></trkpt><trkpt lat="44.1595199" lon="8.3180365"><ele>6.333333333333334</ele><time>2026-04-18T13:58:08.288Z</time></trkpt><trkpt lat="44.1594689" lon="8.3177711"><ele>7.0</ele><time>2026-04-18T13:58:09.288Z</time></trkpt><trkpt lat="44.1594201" lon="8.3175078"><ele>7.0</ele><time>2026-04-18T13:58:10.288Z</time></trkpt><trkpt lat="44.1593766" lon="8.3172601"><ele>7.0</ele><time>2026-04-18T13:58:11.288Z</time></trkpt><trkpt lat="44.1593294" lon="8.3170313"><ele>7.0</ele><time>2026-04-18T13:58:12.288Z</time></trkpt><trkpt lat="44.1592776" lon="8.3167882"><ele>9.0</ele><time>2026-04-18T13:58:13.287Z</time></trkpt><trkpt lat="44.1592228" lon="8.3165283"><ele>11.0</ele><time>2026-04-18T13:58:14.287Z</time></trkpt><trkpt lat="44.1591751" lon="8.3162657"><ele>13.0</ele><time>2026-04-18T13:58:15.288Z</time></trkpt><trkpt lat="44.1591229" lon="8.3160306"><ele>14.0</ele><time>2026-04-18T13:58:16.288Z</time></trkpt><trkpt lat="44.1590805" lon="8.3158104"><ele>15.0</ele><time>2026-04-18T13:58:17.288Z</time></trkpt><trkpt lat="44.1590442" lon="8.3156022"><ele>16.0</ele><time>2026-04-18T13:58:18.288Z</time></trkpt><trkpt lat="44.1590025" lon="8.3154027"><ele>12.5</ele><time>2026-04-18T13:58:19.288Z</time></trkpt><trkpt lat="44.1589713" lon="8.3152252"><ele>9.0</ele><time>2026-04-18T13:58:20.287Z</time></trkpt><trkpt lat="44.1589411" lon="8.3150517"><ele>5.5</ele><time>2026-04-18T13:58:21.288Z</time></trkpt><trkpt lat="44.1589072" lon="8.3148866"><ele>2.0</ele><time>2026-04-18T13:58:22.288Z</time></trkpt><trkpt lat="44.1588762" lon="8.3147199"><ele>2.0</ele><time>2026-04-18T13:58:23.287Z</time></trkpt><trkpt lat="44.1588443" lon="8.314565"><ele>2.0</ele><time>2026-04-18T13:58:24.288Z</time></trkpt><trkpt lat="44.158809" lon="8.3144126"><ele>2.0</ele><time>2026-04-18T13:58:25.288Z</time></trkpt><trkpt lat="44.1587766" lon="8.3142488"><ele>2.0</ele><time>2026-04-18T13:58:26.288Z</time></trkpt><trkpt lat="44.1587437" lon="8.3140911"><ele>2.0</ele><time>2026-04-18T13:58:27.287Z</time></trkpt><trkpt lat="44.1587147" lon="8.3139321"><ele>2.0</ele><time>2026-04-18T13:58:28.288Z</time></trkpt><trkpt lat="44.158681" lon="8.3137666"><ele>2.0</ele><time>2026-04-18T13:58:29.288Z</time></trkpt><trkpt lat="44.1586499" lon="8.3136014"><ele>2.0</ele><time>2026-04-18T13:58:30.287Z</time></trkpt><trkpt lat="44.1586156" lon="8.3134299"><ele>2.5</ele><time>2026-04-18T13:58:31.287Z</time></trkpt><trkpt lat="44.1585783" lon="8.3132646"><ele>3.0</ele><time>2026-04-18T13:58:32.287Z</time></trkpt><trkpt lat="44.1585441" lon="8.3131019"><ele>3.5</ele><time>2026-04-18T13:58:33.288Z</time></trkpt><trkpt lat="44.1585148" lon="8.3129486"><ele>4.0</ele><time>2026-04-18T13:58:34.288Z</time></trkpt><trkpt lat="44.1584795" lon="8.312805"><ele>4.6</ele><time>2026-04-18T13:58:35.288Z</time></trkpt><trkpt lat="44.158444" lon="8.3126717"><ele>5.2</ele><time>2026-04-18T13:58:36.288Z</time></trkpt><trkpt lat="44.1584084" lon="8.3125666"><ele>5.799999999999999</ele><time>2026-04-18T13:58:37.288Z</time></trkpt><trkpt lat="44.1583616" lon="8.3124472"><ele>6.3999999999999995</ele><time>2026-04-18T13:58:39.288Z</time></trkpt><trkpt lat="44.1583313" lon="8.31234"><ele>7.0</ele><time>2026-04-18T13:58:41.288Z</time></trkpt><trkpt lat="44.1582986" lon="8.3122118"><ele>7.000000000000001</ele><time>2026-04-18T13:58:43.288Z</time></trkpt><trkpt lat="44.1582721" lon="8.3121077"><ele>7.0</ele><time>2026-04-18T13:58:50.288Z</time></trkpt><trkpt lat="44.1582457" lon="8.3120023"><ele>7.0</ele><time>2026-04-18T13:58:52.288Z</time></trkpt><trkpt lat="44.1582204" lon="8.3119104"><ele>7.0</ele><time>2026-04-18T13:58:54.288Z</time></trkpt><trkpt lat="44.1581989" lon="8.3118207"><ele>7.000000000000001</ele><time>2026-04-18T13:58:58.287Z</time></trkpt><trkpt lat="44.1581742" lon="8.3117323"><ele>7.0</ele><time>2026-04-18T13:59:00.287Z</time></trkpt><trkpt lat="44.1581506" lon="8.311604"><ele>6.166666666666667</ele><time>2026-04-18T13:59:02.288Z</time></trkpt><trkpt lat="44.1581236" lon="8.3114509"><ele>5.333333333333334</ele><time>2026-04-18T13:59:04.288Z</time></trkpt><trkpt lat="44.1581054" lon="8.3113588"><ele>4.5</ele><time>2026-04-18T13:59:05.288Z</time></trkpt><trkpt lat="44.15809" lon="8.3112591"><ele>3.666666666666667</ele><time>2026-04-18T13:59:06.288Z</time></trkpt><trkpt lat="44.1580813" lon="8.3111403"><ele>2.833333333333333</ele><time>2026-04-18T13:59:07.287Z</time></trkpt><trkpt lat="44.1580614" lon="8.3110087"><ele>2.0</ele><time>2026-04-18T13:59:08.288Z</time></trkpt><trkpt lat="44.1580421" lon="8.3108673"><ele>2.0</ele><time>2026-04-18T13:59:09.288Z</time></trkpt><trkpt lat="44.1580178" lon="8.310735"><ele>2.0</ele><time>2026-04-18T13:59:10.288Z</time></trkpt><trkpt lat="44.1579926" lon="8.3105797"><ele>2.0</ele><time>2026-04-18T13:59:11.288Z</time></trkpt><trkpt lat="44.1579625" lon="8.3104282"><ele>2.0</ele><time>2026-04-18T13:59:12.284Z</time></trkpt><trkpt lat="44.1579327" lon="8.3102739"><ele>2.0</ele><time>2026-04-18T13:59:13.288Z</time></trkpt><trkpt lat="44.1578986" lon="8.3101127"><ele>2.25</ele><time>2026-04-18T13:59:14.288Z</time></trkpt><trkpt lat="44.1578653" lon="8.309955"><ele>2.5</ele><time>2026-04-18T13:59:15.288Z</time></trkpt><trkpt lat="44.1578332" lon="8.309798"><ele>2.75</ele><time>2026-04-18T13:59:16.288Z</time></trkpt><trkpt lat="44.1577984" lon="8.309644"><ele>3.0</ele><time>2026-04-18T13:59:17.288Z</time></trkpt><trkpt lat="44.1577652" lon="8.3094919"><ele>3.0</ele><time>2026-04-18T13:59:18.288Z</time></trkpt><trkpt lat="44.1577334" lon="8.3093405"><ele>3.0</ele><time>2026-04-18T13:59:19.288Z</time></trkpt><trkpt lat="44.1577072" lon="8.3091897"><ele>3.0</ele><time>2026-04-18T13:59:20.288Z</time></trkpt><trkpt lat="44.1576788" lon="8.3090415"><ele>3.0</ele><time>2026-04-18T13:59:21.287Z</time></trkpt><trkpt lat="44.157648" lon="8.3088918"><ele>3.0</ele><time>2026-04-18T13:59:22.288Z</time></trkpt><trkpt lat="44.1576148" lon="8.3087406"><ele>3.5</ele><time>2026-04-18T13:59:23.287Z</time></trkpt><trkpt lat="44.1575792" lon="8.3085883"><ele>4.0</ele><time>2026-04-18T13:59:24.287Z</time></trkpt><trkpt lat="44.1575452" lon="8.308435"><ele>4.5</ele><time>2026-04-18T13:59:25.288Z</time></trkpt><trkpt lat="44.1575113" lon="8.3082847"><ele>5.0</ele><time>2026-04-18T13:59:26.288Z</time></trkpt><trkpt lat="44.1574808" lon="8.3081369"><ele>5.2</ele><time>2026-04-18T13:59:27.288Z</time></trkpt><trkpt lat="44.1574508" lon="8.3079874"><ele>5.4</ele><time>2026-04-18T13:59:28.288Z</time></trkpt><trkpt lat="44.1574169" lon="8.3078429"><ele>5.6</ele><time>2026-04-18T13:59:29.287Z</time></trkpt><trkpt lat="44.157382" lon="8.3076883"><ele>5.8</ele><time>2026-04-18T13:59:30.288Z</time></trkpt><trkpt lat="44.157346" lon="8.3075406"><ele>6.0</ele><time>2026-04-18T13:59:31.287Z</time></trkpt><trkpt lat="44.1573135" lon="8.3073983"><ele>5.0</ele><time>2026-04-18T13:59:32.288Z</time></trkpt><trkpt lat="44.1572812" lon="8.3072493"><ele>4.0</ele><time>2026-04-18T13:59:33.288Z</time></trkpt><trkpt lat="44.1572441" lon="8.3070964"><ele>3.0</ele><time>2026-04-18T13:59:34.288Z</time></trkpt><trkpt lat="44.1572109" lon="8.3069444"><ele>2.0</ele><time>2026-04-18T13:59:35.287Z</time></trkpt><trkpt lat="44.1571774" lon="8.3067892"><ele>2.0</ele><time>2026-04-18T13:59:36.288Z</time></trkpt><trkpt lat="44.1571448" lon="8.30663"><ele>2.0</ele><time>2026-04-18T13:59:37.288Z</time></trkpt><trkpt lat="44.1571103" lon="8.3064729"><ele>2.0</ele><time>2026-04-18T13:59:38.288Z</time></trkpt><trkpt lat="44.1570746" lon="8.3063173"><ele>2.0</ele><time>2026-04-18T13:59:39.288Z</time></trkpt><trkpt lat="44.1570411" lon="8.3061717"><ele>2.0</ele><time>2026-04-18T13:59:40.288Z</time></trkpt><trkpt lat="44.1570146" lon="8.306032"><ele>2.0</ele><time>2026-04-18T13:59:41.288Z</time></trkpt><trkpt lat="44.1569846" lon="8.3058922"><ele>2.0</ele><time>2026-04-18T13:59:42.288Z</time></trkpt><trkpt lat="44.1569538" lon="8.305746"><ele>2.0</ele><time>2026-04-18T13:59:43.287Z</time></trkpt><trkpt lat="44.1569197" lon="8.3056024"><ele>2.0</ele><time>2026-04-18T13:59:44.289Z</time></trkpt><trkpt lat="44.1568874" lon="8.3054508"><ele>2.5</ele><time>2026-04-18T13:59:45.289Z</time></trkpt><trkpt lat="44.1568542" lon="8.3052885"><ele>3.0</ele><time>2026-04-18T13:59:46.289Z</time></trkpt><trkpt lat="44.156821" lon="8.3051346"><ele>3.5</ele><time>2026-04-18T13:59:47.289Z</time></trkpt><trkpt lat="44.1567878" lon="8.3049821"><ele>4.0</ele><time>2026-04-18T13:59:48.289Z</time></trkpt><trkpt lat="44.1567561" lon="8.3048278"><ele>4.5</ele><time>2026-04-18T13:59:49.289Z</time></trkpt><trkpt lat="44.1567207" lon="8.304672"><ele>5.0</ele><time>2026-04-18T13:59:50.289Z</time></trkpt><trkpt lat="44.1566814" lon="8.3045151"><ele>5.5</ele><time>2026-04-18T13:59:51.289Z</time></trkpt><trkpt lat="44.1566472" lon="8.3043564"><ele>6.0</ele><time>2026-04-18T13:59:52.289Z</time></trkpt><trkpt lat="44.156617" lon="8.3042002"><ele>6.0</ele><time>2026-04-18T13:59:53.288Z</time></trkpt><trkpt lat="44.1565758" lon="8.3040396"><ele>6.0</ele><time>2026-04-18T13:59:54.289Z</time></trkpt><trkpt lat="44.1565411" lon="8.3038825"><ele>6.0</ele><time>2026-04-18T13:59:55.289Z</time></trkpt><trkpt lat="44.1565055" lon="8.3037272"><ele>6.0</ele><time>2026-04-18T13:59:56.288Z</time></trkpt><trkpt lat="44.1564709" lon="8.3035653"><ele>5.25</ele><time>2026-04-18T13:59:57.288Z</time></trkpt><trkpt lat="44.1564347" lon="8.3034113"><ele>4.5</ele><time>2026-04-18T13:59:58.289Z</time></trkpt><trkpt lat="44.1563991" lon="8.3032601"><ele>3.75</ele><time>2026-04-18T13:59:59.289Z</time></trkpt><trkpt lat="44.1563648" lon="8.3031016"><ele>3.0</ele><time>2026-04-18T14:00:00.289Z</time></trkpt><trkpt lat="44.1563177" lon="8.3029492"><ele>3.0</ele><time>2026-04-18T14:00:01.289Z</time></trkpt><trkpt lat="44.1562756" lon="8.3027914"><ele>3.0</ele><time>2026-04-18T14:00:02.288Z</time></trkpt><trkpt lat="44.1562297" lon="8.3026304"><ele>3.0</ele><time>2026-04-18T14:00:03.289Z</time></trkpt><trkpt lat="44.1561778" lon="8.302463"><ele>3.0</ele><time>2026-04-18T14:00:04.289Z</time></trkpt><trkpt lat="44.156119" lon="8.302274"><ele>3.25</ele><time>2026-04-18T14:00:05.289Z</time></trkpt><trkpt lat="44.1560613" lon="8.3020699"><ele>3.5</ele><time>2026-04-18T14:00:06.288Z</time></trkpt><trkpt lat="44.1560114" lon="8.3018768"><ele>3.75</ele><time>2026-04-18T14:00:07.289Z</time></trkpt><trkpt lat="44.1559646" lon="8.3016986"><ele>4.0</ele><time>2026-04-18T14:00:08.288Z</time></trkpt><trkpt lat="44.1559156" lon="8.3015418"><ele>4.5</ele><time>2026-04-18T14:00:09.289Z</time></trkpt><trkpt lat="44.1558703" lon="8.3013834"><ele>5.0</ele><time>2026-04-18T14:00:10.289Z</time></trkpt><trkpt lat="44.1558234" lon="8.3012306"><ele>5.5</ele><time>2026-04-18T14:00:11.289Z</time></trkpt><trkpt lat="44.155778" lon="8.301082"><ele>6.0</ele><time>2026-04-18T14:00:12.289Z</time></trkpt><trkpt lat="44.1557313" lon="8.3009311"><ele>4.75</ele><time>2026-04-18T14:00:13.289Z</time></trkpt><trkpt lat="44.1556817" lon="8.300772"><ele>3.5</ele><time>2026-04-18T14:00:14.288Z</time></trkpt><trkpt lat="44.1556328" lon="8.3006122"><ele>2.25</ele><time>2026-04-18T14:00:15.288Z</time></trkpt><trkpt lat="44.1555782" lon="8.3004596"><ele>1.0</ele><time>2026-04-18T14:00:16.289Z</time></trkpt><trkpt lat="44.1555313" lon="8.3003113"><ele>1.0</ele><time>2026-04-18T14:00:17.289Z</time></trkpt><trkpt lat="44.1554855" lon="8.3001565"><ele>1.0</ele><time>2026-04-18T14:00:18.288Z</time></trkpt><trkpt lat="44.1554353" lon="8.3000037"><ele>1.0</ele><time>2026-04-18T14:00:19.289Z</time></trkpt><trkpt lat="44.1553868" lon="8.2998499"><ele>1.0</ele><time>2026-04-18T14:00:20.289Z</time></trkpt><trkpt lat="44.1553373" lon="8.2996988"><ele>1.75</ele><time>2026-04-18T14:00:21.289Z</time></trkpt><trkpt lat="44.1552901" lon="8.2995464"><ele>2.5</ele><time>2026-04-18T14:00:22.289Z</time></trkpt><trkpt lat="44.1552419" lon="8.2993952"><ele>3.25</ele><time>2026-04-18T14:00:23.289Z</time></trkpt><trkpt lat="44.1551952" lon="8.2992392"><ele>4.0</ele><time>2026-04-18T14:00:24.288Z</time></trkpt><trkpt lat="44.1551465" lon="8.2990799"><ele>4.0</ele><time>2026-04-18T14:00:25.289Z</time></trkpt><trkpt lat="44.1550981" lon="8.2989207"><ele>4.0</ele><time>2026-04-18T14:00:26.289Z</time></trkpt><trkpt lat="44.1550547" lon="8.2987718"><ele>4.0</ele><time>2026-04-18T14:00:27.289Z</time></trkpt><trkpt lat="44.1550049" lon="8.2986207"><ele>4.0</ele><time>2026-04-18T14:00:28.289Z</time></trkpt><trkpt lat="44.1549597" lon="8.2984691"><ele>4.5</ele><time>2026-04-18T14:00:29.289Z</time></trkpt><trkpt lat="44.1549144" lon="8.2983218"><ele>5.0</ele><time>2026-04-18T14:00:30.289Z</time></trkpt><trkpt lat="44.1548709" lon="8.2981682"><ele>5.5</ele><time>2026-04-18T14:00:31.289Z</time></trkpt><trkpt lat="44.1548246" lon="8.2980185"><ele>6.0</ele><time>2026-04-18T14:00:32.288Z</time></trkpt><trkpt lat="44.1547745" lon="8.2978612"><ele>5.0</ele><time>2026-04-18T14:00:33.289Z</time></trkpt><trkpt lat="44.1547249" lon="8.2977058"><ele>4.0</ele><time>2026-04-18T14:00:34.289Z</time></trkpt><trkpt lat="44.1546815" lon="8.2975511"><ele>3.0</ele><time>2026-04-18T14:00:35.289Z</time></trkpt><trkpt lat="44.1546328" lon="8.2973988"><ele>2.0</ele><time>2026-04-18T14:00:36.289Z</time></trkpt><trkpt lat="44.1545863" lon="8.297243"><ele>2.0</ele><time>2026-04-18T14:00:37.289Z</time></trkpt><trkpt lat="44.1545396" lon="8.2970842"><ele>2.0</ele><time>2026-04-18T14:00:38.289Z</time></trkpt><trkpt lat="44.1544921" lon="8.2969302"><ele>2.0</ele><time>2026-04-18T14:00:39.288Z</time></trkpt><trkpt lat="44.154442" lon="8.296781"><ele>2.0</ele><time>2026-04-18T14:00:40.289Z</time></trkpt><trkpt lat="44.154393" lon="8.2966297"><ele>2.0</ele><time>2026-04-18T14:00:41.288Z</time></trkpt><trkpt lat="44.154351" lon="8.2964803"><ele>2.0</ele><time>2026-04-18T14:00:42.289Z</time></trkpt><trkpt lat="44.1543047" lon="8.2963343"><ele>2.0</ele><time>2026-04-18T14:00:43.289Z</time></trkpt><trkpt lat="44.1542615" lon="8.2961916"><ele>2.0</ele><time>2026-04-18T14:00:44.288Z</time></trkpt><trkpt lat="44.1542213" lon="8.2960471"><ele>2.25</ele><time>2026-04-18T14:00:45.289Z</time></trkpt><trkpt lat="44.1541741" lon="8.2959022"><ele>2.5</ele><time>2026-04-18T14:00:46.288Z</time></trkpt><trkpt lat="44.1541285" lon="8.2957556"><ele>2.75</ele><time>2026-04-18T14:00:47.289Z</time></trkpt><trkpt lat="44.1540793" lon="8.2956084"><ele>3.0</ele><time>2026-04-18T14:00:48.289Z</time></trkpt><trkpt lat="44.1540353" lon="8.2954604"><ele>2.5</ele><time>2026-04-18T14:00:49.289Z</time></trkpt><trkpt lat="44.1539933" lon="8.2953115"><ele>2.0</ele><time>2026-04-18T14:00:50.289Z</time></trkpt><trkpt lat="44.1539518" lon="8.295163"><ele>1.5</ele><time>2026-04-18T14:00:51.289Z</time></trkpt><trkpt lat="44.1539051" lon="8.2950149"><ele>1.0</ele><time>2026-04-18T14:00:52.288Z</time></trkpt><trkpt lat="44.1538615" lon="8.2948628"><ele>1.5</ele><time>2026-04-18T14:00:53.288Z</time></trkpt><trkpt lat="44.1538147" lon="8.2947072"><ele>2.0</ele><time>2026-04-18T14:00:54.289Z</time></trkpt><trkpt lat="44.1537707" lon="8.2945618"><ele>2.5</ele><time>2026-04-18T14:00:55.289Z</time></trkpt><trkpt lat="44.1537225" lon="8.2944127"><ele>3.0</ele><time>2026-04-18T14:00:56.289Z</time></trkpt><trkpt lat="44.1536726" lon="8.2942682"><ele>3.0</ele><time>2026-04-18T14:00:57.289Z</time></trkpt><trkpt lat="44.1536219" lon="8.2941136"><ele>3.0</ele><time>2026-04-18T14:00:58.289Z</time></trkpt><trkpt lat="44.1535712" lon="8.2939642"><ele>3.0</ele><time>2026-04-18T14:00:59.289Z</time></trkpt><trkpt lat="44.153517" lon="8.2938156"><ele>3.0</ele><time>2026-04-18T14:01:00.288Z</time></trkpt><trkpt lat="44.1534624" lon="8.2936732"><ele>4.25</ele><time>2026-04-18T14:01:01.289Z</time></trkpt><trkpt lat="44.1534013" lon="8.2935356"><ele>5.5</ele><time>2026-04-18T14:01:02.288Z</time></trkpt><trkpt lat="44.1533413" lon="8.2934011"><ele>6.75</ele><time>2026-04-18T14:01:03.289Z</time></trkpt><trkpt lat="44.1532762" lon="8.2932625"><ele>8.0</ele><time>2026-04-18T14:01:04.289Z</time></trkpt><trkpt lat="44.1532169" lon="8.2931221"><ele>7.800000000000001</ele><time>2026-04-18T14:01:05.289Z</time></trkpt><trkpt lat="44.1531544" lon="8.2929808"><ele>7.6000000000000005</ele><time>2026-04-18T14:01:06.289Z</time></trkpt><trkpt lat="44.1530942" lon="8.2928437"><ele>7.3999999999999995</ele><time>2026-04-18T14:01:07.289Z</time></trkpt><trkpt lat="44.1530387" lon="8.2927183"><ele>7.199999999999999</ele><time>2026-04-18T14:01:08.288Z</time></trkpt><trkpt lat="44.1529859" lon="8.292592"><ele>7.0</ele><time>2026-04-18T14:01:09.288Z</time></trkpt><trkpt lat="44.1529349" lon="8.2924671"><ele>7.0</ele><time>2026-04-18T14:01:10.289Z</time></trkpt><trkpt lat="44.1528827" lon="8.2923436"><ele>7.0</ele><time>2026-04-18T14:01:11.289Z</time></trkpt><trkpt lat="44.1528212" lon="8.2922148"><ele>7.0</ele><time>2026-04-18T14:01:12.288Z</time></trkpt><trkpt lat="44.1527509" lon="8.2920564"><ele>7.0</ele><time>2026-04-18T14:01:13.289Z</time></trkpt><trkpt lat="44.152671" lon="8.2918729"><ele>7.0</ele><time>2026-04-18T14:01:14.289Z</time></trkpt><trkpt lat="44.1525879" lon="8.2916783"><ele>7.0</ele><time>2026-04-18T14:01:15.288Z</time></trkpt><trkpt lat="44.1525063" lon="8.2914809"><ele>7.0</ele><time>2026-04-18T14:01:16.289Z</time></trkpt><trkpt lat="44.1524298" lon="8.2912889"><ele>6.333333333333334</ele><time>2026-04-18T14:01:17.288Z</time></trkpt><trkpt lat="44.1523456" lon="8.2910899"><ele>5.666666666666667</ele><time>2026-04-18T14:01:18.288Z</time></trkpt><trkpt lat="44.1522587" lon="8.2908977"><ele>5.0</ele><time>2026-04-18T14:01:19.289Z</time></trkpt><trkpt lat="44.1521713" lon="8.2907019"><ele>6.333333333333334</ele><time>2026-04-18T14:01:20.289Z</time></trkpt><trkpt lat="44.1520866" lon="8.290514"><ele>7.666666666666667</ele><time>2026-04-18T14:01:21.289Z</time></trkpt><trkpt lat="44.1520092" lon="8.2903304"><ele>9.0</ele><time>2026-04-18T14:01:22.289Z</time></trkpt><trkpt lat="44.1519333" lon="8.2901539"><ele>9.0</ele><time>2026-04-18T14:01:23.288Z</time></trkpt><trkpt lat="44.1518632" lon="8.2899838"><ele>9.0</ele><time>2026-04-18T14:01:24.289Z</time></trkpt><trkpt lat="44.1517889" lon="8.2898183"><ele>9.0</ele><time>2026-04-18T14:01:25.289Z</time></trkpt><trkpt lat="44.151722" lon="8.2896681"><ele>9.0</ele><time>2026-04-18T14:01:26.288Z</time></trkpt><trkpt lat="44.1516602" lon="8.2895297"><ele>9.2</ele><time>2026-04-18T14:01:27.289Z</time></trkpt><trkpt lat="44.1516063" lon="8.2894041"><ele>9.4</ele><time>2026-04-18T14:01:28.289Z</time></trkpt><trkpt lat="44.1515543" lon="8.2892804"><ele>9.6</ele><time>2026-04-18T14:01:29.289Z</time></trkpt><trkpt lat="44.1515049" lon="8.2891582"><ele>9.8</ele><time>2026-04-18T14:01:30.289Z</time></trkpt><trkpt lat="44.1514471" lon="8.2890371"><ele>10.0</ele><time>2026-04-18T14:01:31.288Z</time></trkpt><trkpt lat="44.1513936" lon="8.2889189"><ele>10.0</ele><time>2026-04-18T14:01:32.289Z</time></trkpt><trkpt lat="44.1513391" lon="8.2888012"><ele>10.0</ele><time>2026-04-18T14:01:33.29Z</time></trkpt><trkpt lat="44.1512846" lon="8.2886858"><ele>10.0</ele><time>2026-04-18T14:01:34.29Z</time></trkpt><trkpt lat="44.1512315" lon="8.2885668"><ele>10.0</ele><time>2026-04-18T14:01:35.29Z</time></trkpt><trkpt lat="44.1511757" lon="8.288447"><ele>10.0</ele><time>2026-04-18T14:01:36.29Z</time></trkpt><trkpt lat="44.1511236" lon="8.2883249"><ele>10.0</ele><time>2026-04-18T14:01:37.29Z</time></trkpt><trkpt lat="44.1510698" lon="8.2882082"><ele>10.0</ele><time>2026-04-18T14:01:38.29Z</time></trkpt><trkpt lat="44.1510261" lon="8.2881053"><ele>10.0</ele><time>2026-04-18T14:01:39.29Z</time></trkpt><trkpt lat="44.1509825" lon="8.2880178"><ele>10.0</ele><time>2026-04-18T14:01:40.29Z</time></trkpt><trkpt lat="44.1509486" lon="8.2879296"><ele>10.0</ele><time>2026-04-18T14:01:41.29Z</time></trkpt><trkpt lat="44.1509133" lon="8.2878423"><ele>10.0</ele><time>2026-04-18T14:01:42.289Z</time></trkpt><trkpt lat="44.1508719" lon="8.2877131"><ele>9.833333333333334</ele><time>2026-04-18T14:01:44.29Z</time></trkpt><trkpt lat="44.1508458" lon="8.2875785"><ele>9.666666666666668</ele><time>2026-04-18T14:01:46.29Z</time></trkpt><trkpt lat="44.1508207" lon="8.2874906"><ele>9.5</ele><time>2026-04-18T14:01:50.289Z</time></trkpt><trkpt lat="44.1508204" lon="8.2874027"><ele>9.333333333333334</ele><time>2026-04-18T14:01:52.29Z</time></trkpt><trkpt lat="44.1507877" lon="8.2872938"><ele>9.166666666666666</ele><time>2026-04-18T14:01:54.29Z</time></trkpt><trkpt lat="44.1507567" lon="8.287133"><ele>9.0</ele><time>2026-04-18T14:01:56.29Z</time></trkpt><trkpt lat="44.1507591" lon="8.287038"><ele>9.0</ele><time>2026-04-18T14:01:57.29Z</time></trkpt><trkpt lat="44.1507634" lon="8.28694"><ele>9.0</ele><time>2026-04-18T14:01:58.289Z</time></trkpt><trkpt lat="44.1507703" lon="8.2868342"><ele>9.0</ele><time>2026-04-18T14:01:59.289Z</time></trkpt><trkpt lat="44.1507709" lon="8.2866978"><ele>9.0</ele><time>2026-04-18T14:02:00.289Z</time></trkpt><trkpt lat="44.1507773" lon="8.2865251"><ele>9.0</ele><time>2026-04-18T14:02:01.29Z</time></trkpt><trkpt lat="44.1507852" lon="8.2863309"><ele>8.333333333333334</ele><time>2026-04-18T14:02:02.29Z</time></trkpt><trkpt lat="44.150799" lon="8.286116"><ele>7.666666666666667</ele><time>2026-04-18T14:02:03.29Z</time></trkpt><trkpt lat="44.1508099" lon="8.2859094"><ele>7.0</ele><time>2026-04-18T14:02:04.29Z</time></trkpt><trkpt lat="44.1508074" lon="8.285705"><ele>7.0</ele><time>2026-04-18T14:02:05.289Z</time></trkpt><trkpt lat="44.1507907" lon="8.2855"><ele>7.0</ele><time>2026-04-18T14:02:06.289Z</time></trkpt><trkpt lat="44.1507712" lon="8.2852955"><ele>7.0</ele><time>2026-04-18T14:02:07.29Z</time></trkpt><trkpt lat="44.1507475" lon="8.2851068"><ele>7.0</ele><time>2026-04-18T14:02:08.29Z</time></trkpt><trkpt lat="44.150718" lon="8.2849106"><ele>8.0</ele><time>2026-04-18T14:02:09.29Z</time></trkpt><trkpt lat="44.1506784" lon="8.2846801"><ele>9.0</ele><time>2026-04-18T14:02:10.29Z</time></trkpt><trkpt lat="44.1506415" lon="8.2844405"><ele>10.0</ele><time>2026-04-18T14:02:11.29Z</time></trkpt><trkpt lat="44.1505878" lon="8.2842045"><ele>10.0</ele><time>2026-04-18T14:02:12.29Z</time></trkpt><trkpt lat="44.1505068" lon="8.2839804"><ele>10.0</ele><time>2026-04-18T14:02:13.29Z</time></trkpt><trkpt lat="44.1504149" lon="8.2837641"><ele>10.0</ele><time>2026-04-18T14:02:14.29Z</time></trkpt><trkpt lat="44.1503119" lon="8.2835667"><ele>11.0</ele><time>2026-04-18T14:02:15.29Z</time></trkpt><trkpt lat="44.150216" lon="8.283402"><ele>12.0</ele><time>2026-04-18T14:02:16.289Z</time></trkpt><trkpt lat="44.1501215" lon="8.2832722"><ele>13.0</ele><time>2026-04-18T14:02:17.29Z</time></trkpt><trkpt lat="44.1500468" lon="8.2831555"><ele>14.0</ele><time>2026-04-18T14:02:18.289Z</time></trkpt><trkpt lat="44.1499952" lon="8.2830587"><ele>14.833333333333334</ele><time>2026-04-18T14:02:19.29Z</time></trkpt><trkpt lat="44.1499548" lon="8.2829547"><ele>15.666666666666668</ele><time>2026-04-18T14:02:20.29Z</time></trkpt><trkpt lat="44.1499316" lon="8.2828529"><ele>16.5</ele><time>2026-04-18T14:02:21.289Z</time></trkpt><trkpt lat="44.1499164" lon="8.2827494"><ele>17.333333333333332</ele><time>2026-04-18T14:02:22.29Z</time></trkpt><trkpt lat="44.1499042" lon="8.2826378"><ele>18.166666666666664</ele><time>2026-04-18T14:02:23.29Z</time></trkpt><trkpt lat="44.1498942" lon="8.2825287"><ele>19.0</ele><time>2026-04-18T14:02:24.29Z</time></trkpt><trkpt lat="44.1498805" lon="8.2824222"><ele>18.0</ele><time>2026-04-18T14:02:25.29Z</time></trkpt><trkpt lat="44.1498442" lon="8.2823191"><ele>17.0</ele><time>2026-04-18T14:02:26.29Z</time></trkpt><trkpt lat="44.1497917" lon="8.282218"><ele>15.999999999999998</ele><time>2026-04-18T14:02:27.29Z</time></trkpt><trkpt lat="44.1497215" lon="8.282115"><ele>15.0</ele><time>2026-04-18T14:02:28.29Z</time></trkpt><trkpt lat="44.1496511" lon="8.2820113"><ele>14.0</ele><time>2026-04-18T14:02:29.29Z</time></trkpt><trkpt lat="44.1495805" lon="8.2819078"><ele>14.0</ele><time>2026-04-18T14:02:30.29Z</time></trkpt><trkpt lat="44.1495021" lon="8.2817937"><ele>14.0</ele><time>2026-04-18T14:02:31.29Z</time></trkpt><trkpt lat="44.149415" lon="8.2816777"><ele>14.0</ele><time>2026-04-18T14:02:32.289Z</time></trkpt><trkpt lat="44.14933" lon="8.2815563"><ele>14.0</ele><time>2026-04-18T14:02:33.29Z</time></trkpt><trkpt lat="44.1492468" lon="8.2814307"><ele>13.0</ele><time>2026-04-18T14:02:34.29Z</time></trkpt><trkpt lat="44.1491622" lon="8.2813095"><ele>12.0</ele><time>2026-04-18T14:02:35.29Z</time></trkpt><trkpt lat="44.1490778" lon="8.2811892"><ele>11.0</ele><time>2026-04-18T14:02:36.29Z</time></trkpt><trkpt lat="44.1489917" lon="8.2810682"><ele>10.0</ele><time>2026-04-18T14:02:37.29Z</time></trkpt><trkpt lat="44.1489111" lon="8.2809383"><ele>10.0</ele><time>2026-04-18T14:02:38.289Z</time></trkpt><trkpt lat="44.1488462" lon="8.2807929"><ele>10.0</ele><time>2026-04-18T14:02:39.29Z</time></trkpt><trkpt lat="44.1487936" lon="8.2806316"><ele>10.0</ele><time>2026-04-18T14:02:40.29Z</time></trkpt><trkpt lat="44.1487477" lon="8.2804612"><ele>10.0</ele><time>2026-04-18T14:02:41.29Z</time></trkpt><trkpt lat="44.1486947" lon="8.2802983"><ele>11.0</ele><time>2026-04-18T14:02:42.29Z</time></trkpt><trkpt lat="44.1486434" lon="8.2801267"><ele>12.0</ele><time>2026-04-18T14:02:43.29Z</time></trkpt><trkpt lat="44.1485866" lon="8.2799363"><ele>13.0</ele><time>2026-04-18T14:02:44.29Z</time></trkpt><trkpt lat="44.1485181" lon="8.2797087"><ele>13.333333333333332</ele><time>2026-04-18T14:02:45.29Z</time></trkpt><trkpt lat="44.1484512" lon="8.2794823"><ele>13.666666666666668</ele><time>2026-04-18T14:02:46.29Z</time></trkpt><trkpt lat="44.148374" lon="8.2792756"><ele>14.0</ele><time>2026-04-18T14:02:47.29Z</time></trkpt><trkpt lat="44.1482937" lon="8.2790691"><ele>13.5</ele><time>2026-04-18T14:02:48.29Z</time></trkpt><trkpt lat="44.1482023" lon="8.2788857"><ele>13.0</ele><time>2026-04-18T14:02:49.29Z</time></trkpt><trkpt lat="44.1481327" lon="8.2787221"><ele>12.5</ele><time>2026-04-18T14:02:50.29Z</time></trkpt><trkpt lat="44.1480639" lon="8.2785724"><ele>12.0</ele><time>2026-04-18T14:02:51.289Z</time></trkpt><trkpt lat="44.1479974" lon="8.2784316"><ele>12.0</ele><time>2026-04-18T14:02:52.29Z</time></trkpt><trkpt lat="44.1479264" lon="8.2782956"><ele>12.0</ele><time>2026-04-18T14:02:53.289Z</time></trkpt><trkpt lat="44.1478622" lon="8.2781723"><ele>12.0</ele><time>2026-04-18T14:02:54.289Z</time></trkpt><trkpt lat="44.147785" lon="8.2780766"><ele>12.0</ele><time>2026-04-18T14:02:55.29Z</time></trkpt><trkpt lat="44.1477026" lon="8.2779918"><ele>12.0</ele><time>2026-04-18T14:02:56.29Z</time></trkpt><trkpt lat="44.1476159" lon="8.2779235"><ele>12.0</ele><time>2026-04-18T14:02:57.29Z</time></trkpt><trkpt lat="44.1475087" lon="8.277867"><ele>12.0</ele><time>2026-04-18T14:02:58.29Z</time></trkpt><trkpt lat="44.1473848" lon="8.2778111"><ele>12.0</ele><time>2026-04-18T14:02:59.29Z</time></trkpt><trkpt lat="44.1472362" lon="8.277741"><ele>12.0</ele><time>2026-04-18T14:03:00.29Z</time></trkpt><trkpt lat="44.1470937" lon="8.2776651"><ele>10.75</ele><time>2026-04-18T14:03:01.29Z</time></trkpt><trkpt lat="44.1469633" lon="8.2776023"><ele>9.5</ele><time>2026-04-18T14:03:02.29Z</time></trkpt><trkpt lat="44.1468412" lon="8.277536"><ele>8.25</ele><time>2026-04-18T14:03:03.289Z</time></trkpt><trkpt lat="44.1467327" lon="8.27748"><ele>7.0</ele><time>2026-04-18T14:03:04.29Z</time></trkpt><trkpt lat="44.1466333" lon="8.2774328"><ele>6.8</ele><time>2026-04-18T14:03:05.289Z</time></trkpt><trkpt lat="44.1465366" lon="8.2773986"><ele>6.6</ele><time>2026-04-18T14:03:06.29Z</time></trkpt><trkpt lat="44.1464486" lon="8.2773651"><ele>6.3999999999999995</ele><time>2026-04-18T14:03:07.289Z</time></trkpt><trkpt lat="44.1463574" lon="8.2773217"><ele>6.199999999999999</ele><time>2026-04-18T14:03:08.29Z</time></trkpt><trkpt lat="44.1462694" lon="8.2772757"><ele>6.0</ele><time>2026-04-18T14:03:09.29Z</time></trkpt><trkpt lat="44.1461913" lon="8.2772316"><ele>6.0</ele><time>2026-04-18T14:03:10.29Z</time></trkpt><trkpt lat="44.1461241" lon="8.2771984"><ele>6.0</ele><time>2026-04-18T14:03:11.29Z</time></trkpt><trkpt lat="44.1460669" lon="8.2771595"><ele>6.0</ele><time>2026-04-18T14:03:12.29Z</time></trkpt><trkpt lat="44.1459747" lon="8.2770704"><ele>6.0</ele><time>2026-04-18T14:03:14.29Z</time></trkpt><trkpt lat="44.1458827" lon="8.2769983"><ele>6.0</ele><time>2026-04-18T14:03:16.289Z</time></trkpt><trkpt lat="44.1458178" lon="8.2769534"><ele>6.0</ele><time>2026-04-18T14:03:17.29Z</time></trkpt><trkpt lat="44.1457516" lon="8.2768985"><ele>5.5</ele><time>2026-04-18T14:03:18.29Z</time></trkpt><trkpt lat="44.1456809" lon="8.276831"><ele>5.0</ele><time>2026-04-18T14:03:19.289Z</time></trkpt><trkpt lat="44.1456053" lon="8.2767364"><ele>4.5</ele><time>2026-04-18T14:03:20.29Z</time></trkpt><trkpt lat="44.1455011" lon="8.2766333"><ele>4.0</ele><time>2026-04-18T14:03:21.29Z</time></trkpt><trkpt lat="44.1454027" lon="8.2765042"><ele>4.5</ele><time>2026-04-18T14:03:22.29Z</time></trkpt><trkpt lat="44.1453037" lon="8.2763824"><ele>5.0</ele><time>2026-04-18T14:03:23.291Z</time></trkpt><trkpt lat="44.1452121" lon="8.276257"><ele>5.5</ele><time>2026-04-18T14:03:24.291Z</time></trkpt><trkpt lat="44.145119" lon="8.2761386"><ele>6.0</ele><time>2026-04-18T14:03:25.291Z</time></trkpt><trkpt lat="44.1450233" lon="8.2760228"><ele>6.0</ele><time>2026-04-18T14:03:26.29Z</time></trkpt><trkpt lat="44.1449322" lon="8.2759153"><ele>6.0</ele><time>2026-04-18T14:03:27.29Z</time></trkpt><trkpt lat="44.1448486" lon="8.2758154"><ele>6.0</ele><time>2026-04-18T14:03:28.291Z</time></trkpt><trkpt lat="44.1447735" lon="8.2757202"><ele>6.0</ele><time>2026-04-18T14:03:29.291Z</time></trkpt><trkpt lat="44.1447087" lon="8.275633"><ele>6.0</ele><time>2026-04-18T14:03:30.29Z</time></trkpt><trkpt lat="44.1446444" lon="8.2755513"><ele>5.666666666666667</ele><time>2026-04-18T14:03:31.29Z</time></trkpt><trkpt lat="44.1445928" lon="8.2754807"><ele>5.333333333333333</ele><time>2026-04-18T14:03:32.291Z</time></trkpt><trkpt lat="44.1445495" lon="8.2754122"><ele>5.0</ele><time>2026-04-18T14:03:33.291Z</time></trkpt><trkpt lat="44.1445238" lon="8.2752595"><ele>4.666666666666666</ele><time>2026-04-18T14:03:35.291Z</time></trkpt><trkpt lat="44.1445406" lon="8.2751725"><ele>4.333333333333333</ele><time>2026-04-18T14:03:36.291Z</time></trkpt><trkpt lat="44.1445632" lon="8.2750229"><ele>4.0</ele><time>2026-04-18T14:03:38.291Z</time></trkpt><trkpt lat="44.1445007" lon="8.274889"><ele>4.0</ele><time>2026-04-18T14:03:40.291Z</time></trkpt><trkpt lat="44.1443811" lon="8.2748527"><ele>4.0</ele><time>2026-04-18T14:03:42.29Z</time></trkpt><trkpt lat="44.1443058" lon="8.2748369"><ele>4.0</ele><time>2026-04-18T14:03:43.29Z</time></trkpt><trkpt lat="44.1442236" lon="8.2748122"><ele>4.0</ele><time>2026-04-18T14:03:44.291Z</time></trkpt><trkpt lat="44.1441508" lon="8.2747475"><ele>4.0</ele><time>2026-04-18T14:03:45.291Z</time></trkpt><trkpt lat="44.1440743" lon="8.2746602"><ele>4.25</ele><time>2026-04-18T14:03:46.291Z</time></trkpt><trkpt lat="44.1439932" lon="8.2745649"><ele>4.5</ele><time>2026-04-18T14:03:47.291Z</time></trkpt><trkpt lat="44.1439043" lon="8.2744499"><ele>4.75</ele><time>2026-04-18T14:03:48.291Z</time></trkpt><trkpt lat="44.1437989" lon="8.2743225"><ele>5.0</ele><time>2026-04-18T14:03:49.291Z</time></trkpt><trkpt lat="44.1436881" lon="8.2741748"><ele>5.0</ele><time>2026-04-18T14:03:50.29Z</time></trkpt><trkpt lat="44.143585" lon="8.2740137"><ele>5.0</ele><time>2026-04-18T14:03:51.291Z</time></trkpt><trkpt lat="44.1434781" lon="8.2738654"><ele>5.0</ele><time>2026-04-18T14:03:52.291Z</time></trkpt><trkpt lat="44.1433814" lon="8.2737302"><ele>5.0</ele><time>2026-04-18T14:03:53.291Z</time></trkpt><trkpt lat="44.1432953" lon="8.2736143"><ele>5.0</ele><time>2026-04-18T14:03:54.291Z</time></trkpt><trkpt lat="44.1432242" lon="8.2735124"><ele>5.0</ele><time>2026-04-18T14:03:55.291Z</time></trkpt><trkpt lat="44.1431571" lon="8.2734238"><ele>5.0</ele><time>2026-04-18T14:03:56.291Z</time></trkpt><trkpt lat="44.1431036" lon="8.2733517"><ele>5.0</ele><time>2026-04-18T14:03:57.291Z</time></trkpt><trkpt lat="44.1430499" lon="8.2732878"><ele>5.0</ele><time>2026-04-18T14:03:58.291Z</time></trkpt><trkpt lat="44.1430018" lon="8.2732201"><ele>5.0</ele><time>2026-04-18T14:03:59.29Z</time></trkpt><trkpt lat="44.1429492" lon="8.2730841"><ele>4.6</ele><time>2026-04-18T14:04:01.291Z</time></trkpt><trkpt lat="44.1429294" lon="8.2729872"><ele>4.2</ele><time>2026-04-18T14:04:03.291Z</time></trkpt><trkpt lat="44.1429252" lon="8.2728492"><ele>3.8</ele><time>2026-04-18T14:04:05.291Z</time></trkpt><trkpt lat="44.1429044" lon="8.2727174"><ele>3.4</ele><time>2026-04-18T14:04:07.291Z</time></trkpt><trkpt lat="44.142824" lon="8.2726489"><ele>3.0</ele><time>2026-04-18T14:04:09.29Z</time></trkpt><trkpt lat="44.1427225" lon="8.2726468"><ele>2.9999999999999996</ele><time>2026-04-18T14:04:11.291Z</time></trkpt><trkpt lat="44.1426564" lon="8.27265"><ele>3.0</ele><time>2026-04-18T14:04:12.291Z</time></trkpt><trkpt lat="44.1425876" lon="8.2726328"><ele>3.0</ele><time>2026-04-18T14:04:13.291Z</time></trkpt><trkpt lat="44.1425269" lon="8.2725961"><ele>3.0</ele><time>2026-04-18T14:04:14.29Z</time></trkpt><trkpt lat="44.1424691" lon="8.2725448"><ele>3.0</ele><time>2026-04-18T14:04:15.291Z</time></trkpt><trkpt lat="44.1424153" lon="8.2724844"><ele>2.9999999999999996</ele><time>2026-04-18T14:04:16.291Z</time></trkpt><trkpt lat="44.1423596" lon="8.2724208"><ele>3.0</ele><time>2026-04-18T14:04:17.291Z</time></trkpt><trkpt lat="44.1423006" lon="8.2723566"><ele>3.0</ele><time>2026-04-18T14:04:18.291Z</time></trkpt><trkpt lat="44.142245" lon="8.2722987"><ele>3.0</ele><time>2026-04-18T14:04:19.29Z</time></trkpt><trkpt lat="44.1421951" lon="8.2722416"><ele>3.0</ele><time>2026-04-18T14:04:20.29Z</time></trkpt><trkpt lat="44.1421493" lon="8.2721758"><ele>3.0</ele><time>2026-04-18T14:04:21.291Z</time></trkpt><trkpt lat="44.1421033" lon="8.2721094"><ele>3.0</ele><time>2026-04-18T14:04:22.29Z</time></trkpt><trkpt lat="44.1420415" lon="8.2720274"><ele>3.0</ele><time>2026-04-18T14:04:23.291Z</time></trkpt><trkpt lat="44.1419634" lon="8.2719397"><ele>3.2</ele><time>2026-04-18T14:04:24.291Z</time></trkpt><trkpt lat="44.1418882" lon="8.271843"><ele>3.4</ele><time>2026-04-18T14:04:25.291Z</time></trkpt><trkpt lat="44.1418231" lon="8.2717464"><ele>3.6000000000000005</ele><time>2026-04-18T14:04:26.291Z</time></trkpt><trkpt lat="44.1417631" lon="8.2716676"><ele>3.8000000000000003</ele><time>2026-04-18T14:04:27.29Z</time></trkpt><trkpt lat="44.1416991" lon="8.2715864"><ele>4.0</ele><time>2026-04-18T14:04:28.291Z</time></trkpt><trkpt lat="44.14162" lon="8.2714935"><ele>4.0</ele><time>2026-04-18T14:04:29.29Z</time></trkpt><trkpt lat="44.1415239" lon="8.2713742"><ele>4.0</ele><time>2026-04-18T14:04:30.291Z</time></trkpt><trkpt lat="44.1414251" lon="8.2712436"><ele>4.0</ele><time>2026-04-18T14:04:31.291Z</time></trkpt><trkpt lat="44.1413293" lon="8.2711092"><ele>4.0</ele><time>2026-04-18T14:04:32.291Z</time></trkpt><trkpt lat="44.1412319" lon="8.2709882"><ele>4.0</ele><time>2026-04-18T14:04:33.291Z</time></trkpt><trkpt lat="44.1411477" lon="8.2708761"><ele>4.0</ele><time>2026-04-18T14:04:34.29Z</time></trkpt><trkpt lat="44.1410708" lon="8.2707651"><ele>4.0</ele><time>2026-04-18T14:04:35.291Z</time></trkpt><trkpt lat="44.1409829" lon="8.2706555"><ele>4.0</ele><time>2026-04-18T14:04:36.291Z</time></trkpt><trkpt lat="44.1408815" lon="8.2705367"><ele>4.0</ele><time>2026-04-18T14:04:37.29Z</time></trkpt><trkpt lat="44.1407687" lon="8.2703835"><ele>4.0</ele><time>2026-04-18T14:04:38.29Z</time></trkpt><trkpt lat="44.1406597" lon="8.2702381"><ele>4.0</ele><time>2026-04-18T14:04:39.291Z</time></trkpt><trkpt lat="44.1405587" lon="8.2701145"><ele>4.0</ele><time>2026-04-18T14:04:40.291Z</time></trkpt><trkpt lat="44.1404688" lon="8.2699984"><ele>3.6666666666666665</ele><time>2026-04-18T14:04:41.291Z</time></trkpt><trkpt lat="44.1403704" lon="8.2698776"><ele>3.333333333333333</ele><time>2026-04-18T14:04:42.291Z</time></trkpt><trkpt lat="44.140264" lon="8.269738"><ele>3.0</ele><time>2026-04-18T14:04:43.291Z</time></trkpt><trkpt lat="44.140141" lon="8.269569"><ele>3.0</ele><time>2026-04-18T14:04:44.291Z</time></trkpt><trkpt lat="44.1400107" lon="8.2693912"><ele>3.0</ele><time>2026-04-18T14:04:45.291Z</time></trkpt><trkpt lat="44.1398869" lon="8.2692124"><ele>3.0</ele><time>2026-04-18T14:04:46.291Z</time></trkpt><trkpt lat="44.139759" lon="8.2690551"><ele>3.666666666666667</ele><time>2026-04-18T14:04:47.291Z</time></trkpt><trkpt lat="44.1396173" lon="8.2689057"><ele>4.333333333333334</ele><time>2026-04-18T14:04:48.29Z</time></trkpt><trkpt lat="44.1394793" lon="8.268759"><ele>5.0</ele><time>2026-04-18T14:04:49.291Z</time></trkpt><trkpt lat="44.1393488" lon="8.2686079"><ele>5.0</ele><time>2026-04-18T14:04:50.29Z</time></trkpt><trkpt lat="44.1392176" lon="8.2684646"><ele>5.0</ele><time>2026-04-18T14:04:51.291Z</time></trkpt><trkpt lat="44.1390751" lon="8.268326"><ele>5.0</ele><time>2026-04-18T14:04:52.291Z</time></trkpt><trkpt lat="44.1389354" lon="8.2681927"><ele>4.333333333333334</ele><time>2026-04-18T14:04:53.291Z</time></trkpt><trkpt lat="44.138793" lon="8.2680616"><ele>3.666666666666667</ele><time>2026-04-18T14:04:54.291Z</time></trkpt><trkpt lat="44.1386548" lon="8.2679348"><ele>3.0</ele><time>2026-04-18T14:04:55.291Z</time></trkpt><trkpt lat="44.138516" lon="8.2678111"><ele>3.0</ele><time>2026-04-18T14:04:56.291Z</time></trkpt><trkpt lat="44.1383811" lon="8.2676912"><ele>3.0</ele><time>2026-04-18T14:04:57.29Z</time></trkpt><trkpt lat="44.1382593" lon="8.2675793"><ele>3.0</ele><time>2026-04-18T14:04:58.297Z</time></trkpt><trkpt lat="44.138145" lon="8.2674795"><ele>3.0</ele><time>2026-04-18T14:04:59.291Z</time></trkpt><trkpt lat="44.138036" lon="8.26738"><ele>3.0</ele><time>2026-04-18T14:05:00.291Z</time></trkpt><trkpt lat="44.137928" lon="8.2672824"><ele>3.0</ele><time>2026-04-18T14:05:01.291Z</time></trkpt><trkpt lat="44.1378221" lon="8.2671794"><ele>3.0</ele><time>2026-04-18T14:05:02.291Z</time></trkpt><trkpt lat="44.1377133" lon="8.2670686"><ele>3.0</ele><time>2026-04-18T14:05:03.291Z</time></trkpt><trkpt lat="44.1376074" lon="8.2669354"><ele>3.0</ele><time>2026-04-18T14:05:04.291Z</time></trkpt><trkpt lat="44.1375165" lon="8.2668043"><ele>3.0</ele><time>2026-04-18T14:05:05.291Z</time></trkpt><trkpt lat="44.1374406" lon="8.266678"><ele>3.0</ele><time>2026-04-18T14:05:06.291Z</time></trkpt><trkpt lat="44.1373721" lon="8.2665496"><ele>3.0</ele><time>2026-04-18T14:05:07.291Z</time></trkpt><trkpt lat="44.1373056" lon="8.2664156"><ele>3.0</ele><time>2026-04-18T14:05:08.291Z</time></trkpt><trkpt lat="44.1372419" lon="8.2662802"><ele>3.0</ele><time>2026-04-18T14:05:09.291Z</time></trkpt><trkpt lat="44.1371791" lon="8.2661459"><ele>3.0</ele><time>2026-04-18T14:05:10.291Z</time></trkpt><trkpt lat="44.1371164" lon="8.2660162"><ele>3.0</ele><time>2026-04-18T14:05:11.292Z</time></trkpt><trkpt lat="44.1370518" lon="8.2658845"><ele>3.0</ele><time>2026-04-18T14:05:12.292Z</time></trkpt><trkpt lat="44.1369875" lon="8.2657527"><ele>3.0</ele><time>2026-04-18T14:05:13.292Z</time></trkpt><trkpt lat="44.1369281" lon="8.2656235"><ele>3.0</ele><time>2026-04-18T14:05:14.291Z</time></trkpt><trkpt lat="44.1368633" lon="8.2655003"><ele>3.0</ele><time>2026-04-18T14:05:15.291Z</time></trkpt><trkpt lat="44.1367961" lon="8.2653909"><ele>3.0</ele><time>2026-04-18T14:05:16.292Z</time></trkpt><trkpt lat="44.1367244" lon="8.2652867"><ele>3.0</ele><time>2026-04-18T14:05:17.292Z</time></trkpt><trkpt lat="44.1366455" lon="8.265191"><ele>3.0</ele><time>2026-04-18T14:05:18.292Z</time></trkpt><trkpt lat="44.1365623" lon="8.2651003"><ele>3.0</ele><time>2026-04-18T14:05:19.292Z</time></trkpt><trkpt lat="44.1364765" lon="8.2650138"><ele>3.0</ele><time>2026-04-18T14:05:20.292Z</time></trkpt><trkpt lat="44.1363949" lon="8.2649319"><ele>3.0</ele><time>2026-04-18T14:05:21.292Z</time></trkpt><trkpt lat="44.1363146" lon="8.2648583"><ele>3.4</ele><time>2026-04-18T14:05:22.291Z</time></trkpt><trkpt lat="44.1362316" lon="8.2647833"><ele>3.8</ele><time>2026-04-18T14:05:23.292Z</time></trkpt><trkpt lat="44.1361526" lon="8.2647095"><ele>4.2</ele><time>2026-04-18T14:05:24.292Z</time></trkpt><trkpt lat="44.1360736" lon="8.2646416"><ele>4.6</ele><time>2026-04-18T14:05:25.292Z</time></trkpt><trkpt lat="44.1359922" lon="8.2645691"><ele>5.0</ele><time>2026-04-18T14:05:26.292Z</time></trkpt><trkpt lat="44.1359042" lon="8.2644922"><ele>5.0</ele><time>2026-04-18T14:05:27.291Z</time></trkpt><trkpt lat="44.135799" lon="8.2644143"><ele>5.0</ele><time>2026-04-18T14:05:28.292Z</time></trkpt><trkpt lat="44.1356816" lon="8.2643183"><ele>5.0</ele><time>2026-04-18T14:05:29.292Z</time></trkpt><trkpt lat="44.1355701" lon="8.2642028"><ele>5.0</ele><time>2026-04-18T14:05:30.292Z</time></trkpt><trkpt lat="44.13545" lon="8.2640888"><ele>5.25</ele><time>2026-04-18T14:05:31.292Z</time></trkpt><trkpt lat="44.1353367" lon="8.2639784"><ele>5.5</ele><time>2026-04-18T14:05:32.291Z</time></trkpt><trkpt lat="44.1352291" lon="8.2638655"><ele>5.75</ele><time>2026-04-18T14:05:33.292Z</time></trkpt><trkpt lat="44.1351234" lon="8.2637517"><ele>6.0</ele><time>2026-04-18T14:05:34.292Z</time></trkpt><trkpt lat="44.1350101" lon="8.2636431"><ele>5.5</ele><time>2026-04-18T14:05:35.292Z</time></trkpt><trkpt lat="44.1348948" lon="8.2635349"><ele>5.0</ele><time>2026-04-18T14:05:36.292Z</time></trkpt><trkpt lat="44.1347757" lon="8.2634191"><ele>4.5</ele><time>2026-04-18T14:05:37.291Z</time></trkpt><trkpt lat="44.13465" lon="8.2632981"><ele>4.0</ele><time>2026-04-18T14:05:38.292Z</time></trkpt><trkpt lat="44.1345106" lon="8.2631773"><ele>3.6666666666666665</ele><time>2026-04-18T14:05:39.291Z</time></trkpt><trkpt lat="44.1343687" lon="8.2630391"><ele>3.333333333333333</ele><time>2026-04-18T14:05:40.292Z</time></trkpt><trkpt lat="44.1342271" lon="8.2628949"><ele>3.0</ele><time>2026-04-18T14:05:41.292Z</time></trkpt><trkpt lat="44.1340909" lon="8.262761"><ele>3.5</ele><time>2026-04-18T14:05:42.292Z</time></trkpt><trkpt lat="44.1339705" lon="8.2626442"><ele>4.0</ele><time>2026-04-18T14:05:43.292Z</time></trkpt><trkpt lat="44.1338624" lon="8.2625542"><ele>4.5</ele><time>2026-04-18T14:05:44.292Z</time></trkpt><trkpt lat="44.1337651" lon="8.2624805"><ele>5.0</ele><time>2026-04-18T14:05:45.292Z</time></trkpt><trkpt lat="44.1336718" lon="8.2624015"><ele>5.0</ele><time>2026-04-18T14:05:46.291Z</time></trkpt><trkpt lat="44.1335719" lon="8.2623014"><ele>5.0</ele><time>2026-04-18T14:05:47.292Z</time></trkpt><trkpt lat="44.1334595" lon="8.2621828"><ele>5.0</ele><time>2026-04-18T14:05:48.292Z</time></trkpt><trkpt lat="44.1333306" lon="8.2620558"><ele>5.0</ele><time>2026-04-18T14:05:49.292Z</time></trkpt><trkpt lat="44.1331908" lon="8.2619258"><ele>5.0</ele><time>2026-04-18T14:05:50.292Z</time></trkpt><trkpt lat="44.133055" lon="8.261796"><ele>5.0</ele><time>2026-04-18T14:05:51.292Z</time></trkpt><trkpt lat="44.132929" lon="8.2616789"><ele>5.0</ele><time>2026-04-18T14:05:52.292Z</time></trkpt><trkpt lat="44.1328044" lon="8.2615731"><ele>5.0</ele><time>2026-04-18T14:05:53.292Z</time></trkpt><trkpt lat="44.1326879" lon="8.261467"><ele>5.0</ele><time>2026-04-18T14:05:54.292Z</time></trkpt><trkpt lat="44.132587" lon="8.2613696"><ele>5.0</ele><time>2026-04-18T14:05:55.292Z</time></trkpt><trkpt lat="44.1324986" lon="8.2612917"><ele>5.0</ele><time>2026-04-18T14:05:56.292Z</time></trkpt><trkpt lat="44.1324174" lon="8.2612174"><ele>5.666666666666667</ele><time>2026-04-18T14:05:57.292Z</time></trkpt><trkpt lat="44.1323423" lon="8.2611484"><ele>6.333333333333334</ele><time>2026-04-18T14:05:58.292Z</time></trkpt><trkpt lat="44.1322686" lon="8.2610963"><ele>7.0</ele><time>2026-04-18T14:05:59.292Z</time></trkpt><trkpt lat="44.1321986" lon="8.2610468"><ele>7.666666666666667</ele><time>2026-04-18T14:06:00.292Z</time></trkpt><trkpt lat="44.1321096" lon="8.260951"><ele>8.333333333333334</ele><time>2026-04-18T14:06:02.292Z</time></trkpt><trkpt lat="44.1320428" lon="8.260891"><ele>9.0</ele><time>2026-04-18T14:06:04.292Z</time></trkpt><trkpt lat="44.1319715" lon="8.2608313"><ele>9.0</ele><time>2026-04-18T14:06:07.292Z</time></trkpt><trkpt lat="44.1319077" lon="8.2607655"><ele>9.0</ele><time>2026-04-18T14:06:09.292Z</time></trkpt><trkpt lat="44.1318332" lon="8.260695"><ele>9.0</ele><time>2026-04-18T14:06:11.292Z</time></trkpt><trkpt lat="44.131743" lon="8.260604"><ele>9.0</ele><time>2026-04-18T14:06:13.291Z</time></trkpt><trkpt lat="44.131642" lon="8.2605104"><ele>9.0</ele><time>2026-04-18T14:06:15.292Z</time></trkpt><trkpt lat="44.1315455" lon="8.2604263"><ele>8.8</ele><time>2026-04-18T14:06:17.291Z</time></trkpt><trkpt lat="44.1314849" lon="8.2603862"><ele>8.600000000000001</ele><time>2026-04-18T14:06:18.292Z</time></trkpt><trkpt lat="44.131386" lon="8.2603096"><ele>8.4</ele><time>2026-04-18T14:06:20.292Z</time></trkpt><trkpt lat="44.1313009" lon="8.2602355"><ele>8.200000000000001</ele><time>2026-04-18T14:06:22.292Z</time></trkpt><trkpt lat="44.1312061" lon="8.2601652"><ele>8.0</ele><time>2026-04-18T14:06:24.292Z</time></trkpt><trkpt lat="44.131135" lon="8.260114"><ele>8.0</ele><time>2026-04-18T14:06:26.292Z</time></trkpt><trkpt lat="44.1310293" lon="8.2600213"><ele>8.0</ele><time>2026-04-18T14:06:28.291Z</time></trkpt><trkpt lat="44.1309722" lon="8.2599762"><ele>8.0</ele><time>2026-04-18T14:06:29.291Z</time></trkpt><trkpt lat="44.1308864" lon="8.2599165"><ele>8.0</ele><time>2026-04-18T14:06:31.292Z</time></trkpt><trkpt lat="44.1307952" lon="8.2598535"><ele>8.0</ele><time>2026-04-18T14:06:34.292Z</time></trkpt><trkpt lat="44.1306891" lon="8.2597417"><ele>7.800000000000001</ele><time>2026-04-18T14:06:36.292Z</time></trkpt><trkpt lat="44.1306166" lon="8.2596738"><ele>7.6000000000000005</ele><time>2026-04-18T14:06:37.291Z</time></trkpt><trkpt lat="44.1305168" lon="8.2595995"><ele>7.3999999999999995</ele><time>2026-04-18T14:06:38.292Z</time></trkpt><trkpt lat="44.1304144" lon="8.2595253"><ele>7.199999999999999</ele><time>2026-04-18T14:06:39.292Z</time></trkpt><trkpt lat="44.1303174" lon="8.2594493"><ele>7.0</ele><time>2026-04-18T14:06:40.292Z</time></trkpt><trkpt lat="44.1302314" lon="8.2593711"><ele>7.0</ele><time>2026-04-18T14:06:41.292Z</time></trkpt><trkpt lat="44.1301443" lon="8.2592968"><ele>6.999999999999999</ele><time>2026-04-18T14:06:42.291Z</time></trkpt><trkpt lat="44.1300509" lon="8.2592258"><ele>6.999999999999999</ele><time>2026-04-18T14:06:43.292Z</time></trkpt><trkpt lat="44.129955" lon="8.2591559"><ele>7.0</ele><time>2026-04-18T14:06:44.291Z</time></trkpt><trkpt lat="44.1298517" lon="8.2590826"><ele>7.0</ele><time>2026-04-18T14:06:45.291Z</time></trkpt><trkpt lat="44.1297334" lon="8.2589934"><ele>7.5</ele><time>2026-04-18T14:06:46.292Z</time></trkpt><trkpt lat="44.1296111" lon="8.2588939"><ele>8.0</ele><time>2026-04-18T14:06:47.292Z</time></trkpt><trkpt lat="44.1294947" lon="8.2588017"><ele>8.5</ele><time>2026-04-18T14:06:48.291Z</time></trkpt><trkpt lat="44.1293827" lon="8.258715"><ele>9.0</ele><time>2026-04-18T14:06:49.292Z</time></trkpt><trkpt lat="44.1292775" lon="8.2586316"><ele>9.0</ele><time>2026-04-18T14:06:50.292Z</time></trkpt><trkpt lat="44.1291831" lon="8.258562"><ele>9.0</ele><time>2026-04-18T14:06:51.292Z</time></trkpt><trkpt lat="44.1290973" lon="8.2585004"><ele>9.0</ele><time>2026-04-18T14:06:52.291Z</time></trkpt><trkpt lat="44.1290225" lon="8.2584408"><ele>9.0</ele><time>2026-04-18T14:06:53.292Z</time></trkpt><trkpt lat="44.1289514" lon="8.2583906"><ele>9.0</ele><time>2026-04-18T14:06:54.292Z</time></trkpt><trkpt lat="44.1288904" lon="8.258345"><ele>9.0</ele><time>2026-04-18T14:06:55.292Z</time></trkpt><trkpt lat="44.1288262" lon="8.2582978"><ele>9.166666666666666</ele><time>2026-04-18T14:06:56.292Z</time></trkpt><trkpt lat="44.128762" lon="8.2582449"><ele>9.333333333333334</ele><time>2026-04-18T14:06:57.292Z</time></trkpt><trkpt lat="44.1287072" lon="8.2581936"><ele>9.5</ele><time>2026-04-18T14:06:58.293Z</time></trkpt><trkpt lat="44.1286497" lon="8.2581471"><ele>9.666666666666668</ele><time>2026-04-18T14:06:59.293Z</time></trkpt><trkpt lat="44.1285781" lon="8.2580902"><ele>9.833333333333334</ele><time>2026-04-18T14:07:00.293Z</time></trkpt><trkpt lat="44.1285034" lon="8.2580179"><ele>10.0</ele><time>2026-04-18T14:07:01.292Z</time></trkpt><trkpt lat="44.1284469" lon="8.2579545"><ele>10.0</ele><time>2026-04-18T14:07:02.292Z</time></trkpt><trkpt lat="44.1283785" lon="8.2578572"><ele>10.0</ele><time>2026-04-18T14:07:04.293Z</time></trkpt><trkpt lat="44.1283331" lon="8.257756"><ele>10.0</ele><time>2026-04-18T14:07:06.293Z</time></trkpt><trkpt lat="44.1283205" lon="8.2576317"><ele>10.0</ele><time>2026-04-18T14:07:08.293Z</time></trkpt><trkpt lat="44.1282605" lon="8.25757"><ele>10.0</ele><time>2026-04-18T14:07:10.292Z</time></trkpt><trkpt lat="44.1281911" lon="8.2575804"><ele>10.0</ele><time>2026-04-18T14:07:12.293Z</time></trkpt><trkpt lat="44.1281074" lon="8.2576265"><ele>10.6</ele><time>2026-04-18T14:07:14.293Z</time></trkpt><trkpt lat="44.1280347" lon="8.2576331"><ele>11.2</ele><time>2026-04-18T14:07:16.293Z</time></trkpt><trkpt lat="44.1279663" lon="8.257606"><ele>11.8</ele><time>2026-04-18T14:07:18.293Z</time></trkpt><trkpt lat="44.1278752" lon="8.2575457"><ele>12.4</ele><time>2026-04-18T14:07:21.293Z</time></trkpt><trkpt lat="44.1277471" lon="8.2574447"><ele>13.0</ele><time>2026-04-18T14:07:23.292Z</time></trkpt><trkpt lat="44.1276726" lon="8.2573648"><ele>13.0</ele><time>2026-04-18T14:07:24.293Z</time></trkpt><trkpt lat="44.1276051" lon="8.2572959"><ele>13.0</ele><time>2026-04-18T14:07:25.292Z</time></trkpt><trkpt lat="44.1275473" lon="8.257231"><ele>13.0</ele><time>2026-04-18T14:07:26.292Z</time></trkpt><trkpt lat="44.1274465" lon="8.2571292"><ele>13.0</ele><time>2026-04-18T14:07:28.293Z</time></trkpt><trkpt lat="44.127386" lon="8.2570692"><ele>13.0</ele><time>2026-04-18T14:07:29.293Z</time></trkpt><trkpt lat="44.1273076" lon="8.2569935"><ele>12.75</ele><time>2026-04-18T14:07:30.293Z</time></trkpt><trkpt lat="44.127226" lon="8.2569066"><ele>12.5</ele><time>2026-04-18T14:07:31.293Z</time></trkpt><trkpt lat="44.1271242" lon="8.2568021"><ele>12.25</ele><time>2026-04-18T14:07:32.293Z</time></trkpt><trkpt lat="44.1270333" lon="8.2566911"><ele>12.0</ele><time>2026-04-18T14:07:33.293Z</time></trkpt><trkpt lat="44.1269406" lon="8.2566032"><ele>12.0</ele><time>2026-04-18T14:07:34.293Z</time></trkpt><trkpt lat="44.1268644" lon="8.2565148"><ele>12.0</ele><time>2026-04-18T14:07:35.293Z</time></trkpt><trkpt lat="44.1267876" lon="8.2564559"><ele>12.0</ele><time>2026-04-18T14:07:36.293Z</time></trkpt><trkpt lat="44.1267297" lon="8.2564093"><ele>12.0</ele><time>2026-04-18T14:07:37.293Z</time></trkpt><trkpt lat="44.1266414" lon="8.2562951"><ele>12.0</ele><time>2026-04-18T14:07:39.293Z</time></trkpt><trkpt lat="44.1265853" lon="8.2562498"><ele>12.0</ele><time>2026-04-18T14:07:40.293Z</time></trkpt><trkpt lat="44.1264992" lon="8.2561553"><ele>12.166666666666666</ele><time>2026-04-18T14:07:42.293Z</time></trkpt><trkpt lat="44.1264125" lon="8.2560903"><ele>12.333333333333332</ele><time>2026-04-18T14:07:44.293Z</time></trkpt><trkpt lat="44.126347" lon="8.2560144"><ele>12.5</ele><time>2026-04-18T14:07:46.293Z</time></trkpt><trkpt lat="44.1262907" lon="8.255932"><ele>12.666666666666666</ele><time>2026-04-18T14:07:48.293Z</time></trkpt><trkpt lat="44.12626" lon="8.255843"><ele>12.833333333333332</ele><time>2026-04-18T14:07:50.293Z</time></trkpt><trkpt lat="44.1262483" lon="8.2557564"><ele>13.0</ele><time>2026-04-18T14:07:51.293Z</time></trkpt><trkpt lat="44.1261616" lon="8.2556668"><ele>13.0</ele><time>2026-04-18T14:07:53.292Z</time></trkpt><trkpt lat="44.1260683" lon="8.2556909"><ele>13.0</ele><time>2026-04-18T14:07:55.292Z</time></trkpt><trkpt lat="44.1259563" lon="8.2557031"><ele>13.0</ele><time>2026-04-18T14:07:57.293Z</time></trkpt><trkpt lat="44.1258425" lon="8.2556484"><ele>13.0</ele><time>2026-04-18T14:07:59.292Z</time></trkpt><trkpt lat="44.1257847" lon="8.2556077"><ele>13.0</ele><time>2026-04-18T14:08:00.293Z</time></trkpt><trkpt lat="44.1257238" lon="8.255568"><ele>13.166666666666666</ele><time>2026-04-18T14:08:01.293Z</time></trkpt><trkpt lat="44.1256575" lon="8.2555269"><ele>13.333333333333332</ele><time>2026-04-18T14:08:02.293Z</time></trkpt><trkpt lat="44.1255954" lon="8.255486"><ele>13.5</ele><time>2026-04-18T14:08:03.292Z</time></trkpt><trkpt lat="44.1255299" lon="8.2554281"><ele>13.666666666666668</ele><time>2026-04-18T14:08:04.293Z</time></trkpt><trkpt lat="44.1254581" lon="8.2553808"><ele>13.833333333333334</ele><time>2026-04-18T14:08:05.293Z</time></trkpt><trkpt lat="44.1253941" lon="8.255332"><ele>14.0</ele><time>2026-04-18T14:08:06.293Z</time></trkpt><trkpt lat="44.1253247" lon="8.2552795"><ele>14.0</ele><time>2026-04-18T14:08:07.293Z</time></trkpt><trkpt lat="44.1252413" lon="8.2552261"><ele>13.999999999999998</ele><time>2026-04-18T14:08:08.293Z</time></trkpt><trkpt lat="44.1251434" lon="8.2551703"><ele>13.999999999999998</ele><time>2026-04-18T14:08:09.293Z</time></trkpt><trkpt lat="44.125027" lon="8.2551241"><ele>14.0</ele><time>2026-04-18T14:08:10.293Z</time></trkpt><trkpt lat="44.1249331" lon="8.2550391"><ele>14.0</ele><time>2026-04-18T14:08:11.293Z</time></trkpt><trkpt lat="44.1248584" lon="8.254968"><ele>13.799999999999999</ele><time>2026-04-18T14:08:12.293Z</time></trkpt><trkpt lat="44.1247915" lon="8.2548932"><ele>13.599999999999998</ele><time>2026-04-18T14:08:13.293Z</time></trkpt><trkpt lat="44.1247143" lon="8.2548235"><ele>13.4</ele><time>2026-04-18T14:08:14.293Z</time></trkpt><trkpt lat="44.1246126" lon="8.2547657"><ele>13.2</ele><time>2026-04-18T14:08:15.293Z</time></trkpt><trkpt lat="44.1244865" lon="8.2546716"><ele>13.0</ele><time>2026-04-18T14:08:16.293Z</time></trkpt><trkpt lat="44.1243582" lon="8.2545831"><ele>13.0</ele><time>2026-04-18T14:08:17.293Z</time></trkpt><trkpt lat="44.1242442" lon="8.2544921"><ele>13.0</ele><time>2026-04-18T14:08:18.293Z</time></trkpt><trkpt lat="44.1241393" lon="8.2544059"><ele>13.0</ele><time>2026-04-18T14:08:19.293Z</time></trkpt><trkpt lat="44.1240404" lon="8.2543308"><ele>13.0</ele><time>2026-04-18T14:08:20.293Z</time></trkpt><trkpt lat="44.1239542" lon="8.2542532"><ele>12.8</ele><time>2026-04-18T14:08:21.293Z</time></trkpt><trkpt lat="44.1238639" lon="8.2541875"><ele>12.600000000000001</ele><time>2026-04-18T14:08:22.293Z</time></trkpt><trkpt lat="44.1237824" lon="8.2541301"><ele>12.399999999999999</ele><time>2026-04-18T14:08:23.293Z</time></trkpt><trkpt lat="44.1237138" lon="8.2540804"><ele>12.2</ele><time>2026-04-18T14:08:24.293Z</time></trkpt><trkpt lat="44.1236563" lon="8.2540298"><ele>12.0</ele><time>2026-04-18T14:08:25.293Z</time></trkpt><trkpt lat="44.1235602" lon="8.25394"><ele>12.0</ele><time>2026-04-18T14:08:27.292Z</time></trkpt><trkpt lat="44.1234591" lon="8.253857"><ele>12.0</ele><time>2026-04-18T14:08:29.293Z</time></trkpt><trkpt lat="44.1233931" lon="8.2538015"><ele>12.0</ele><time>2026-04-18T14:08:30.292Z</time></trkpt><trkpt lat="44.1233186" lon="8.2537393"><ele>12.0</ele><time>2026-04-18T14:08:31.293Z</time></trkpt><trkpt lat="44.1232427" lon="8.253673"><ele>12.0</ele><time>2026-04-18T14:08:32.293Z</time></trkpt><trkpt lat="44.1231728" lon="8.2535979"><ele>11.833333333333334</ele><time>2026-04-18T14:08:33.293Z</time></trkpt><trkpt lat="44.1231104" lon="8.2535264"><ele>11.666666666666666</ele><time>2026-04-18T14:08:34.293Z</time></trkpt><trkpt lat="44.1230581" lon="8.2534585"><ele>11.5</ele><time>2026-04-18T14:08:35.292Z</time></trkpt><trkpt lat="44.1230011" lon="8.2533828"><ele>11.333333333333332</ele><time>2026-04-18T14:08:36.293Z</time></trkpt><trkpt lat="44.1229452" lon="8.2532875"><ele>11.166666666666666</ele><time>2026-04-18T14:08:37.293Z</time></trkpt><trkpt lat="44.1228826" lon="8.253199"><ele>11.0</ele><time>2026-04-18T14:08:38.293Z</time></trkpt><trkpt lat="44.1228197" lon="8.253105"><ele>11.0</ele><time>2026-04-18T14:08:39.293Z</time></trkpt><trkpt lat="44.1227483" lon="8.2530101"><ele>11.0</ele><time>2026-04-18T14:08:40.292Z</time></trkpt><trkpt lat="44.122683" lon="8.2529095"><ele>11.0</ele><time>2026-04-18T14:08:41.292Z</time></trkpt><trkpt lat="44.1226171" lon="8.2528102"><ele>11.0</ele><time>2026-04-18T14:08:42.293Z</time></trkpt><trkpt lat="44.1225542" lon="8.252724"><ele>11.0</ele><time>2026-04-18T14:08:43.293Z</time></trkpt><trkpt lat="44.1224875" lon="8.2526543"><ele>11.0</ele><time>2026-04-18T14:08:44.293Z</time></trkpt><trkpt lat="44.1224225" lon="8.2525711"><ele>11.0</ele><time>2026-04-18T14:08:45.294Z</time></trkpt><trkpt lat="44.1223626" lon="8.252493"><ele>11.0</ele><time>2026-04-18T14:08:46.294Z</time></trkpt><trkpt lat="44.1223108" lon="8.2524232"><ele>11.0</ele><time>2026-04-18T14:08:47.294Z</time></trkpt><trkpt lat="44.1222709" lon="8.2523462"><ele>11.0</ele><time>2026-04-18T14:08:48.294Z</time></trkpt><trkpt lat="44.1222004" lon="8.2522139"><ele>11.0</ele><time>2026-04-18T14:08:50.294Z</time></trkpt><trkpt lat="44.1221147" lon="8.2520811"><ele>11.166666666666666</ele><time>2026-04-18T14:08:52.294Z</time></trkpt><trkpt lat="44.1220557" lon="8.2520015"><ele>11.333333333333332</ele><time>2026-04-18T14:08:53.294Z</time></trkpt><trkpt lat="44.1219943" lon="8.2519303"><ele>11.5</ele><time>2026-04-18T14:08:54.294Z</time></trkpt><trkpt lat="44.1219383" lon="8.2518641"><ele>11.666666666666666</ele><time>2026-04-18T14:08:55.294Z</time></trkpt><trkpt lat="44.1218433" lon="8.251771"><ele>11.833333333333334</ele><time>2026-04-18T14:08:57.294Z</time></trkpt><trkpt lat="44.1217999" lon="8.251701"><ele>12.0</ele><time>2026-04-18T14:08:58.294Z</time></trkpt><trkpt lat="44.121727" lon="8.2515694"><ele>12.0</ele><time>2026-04-18T14:09:00.294Z</time></trkpt><trkpt lat="44.1216779" lon="8.2515047"><ele>12.0</ele><time>2026-04-18T14:09:01.293Z</time></trkpt><trkpt lat="44.12158" lon="8.2513838"><ele>12.0</ele><time>2026-04-18T14:09:03.294Z</time></trkpt><trkpt lat="44.121533" lon="8.2512957"><ele>12.0</ele><time>2026-04-18T14:09:04.294Z</time></trkpt><trkpt lat="44.1214492" lon="8.251215"><ele>12.0</ele><time>2026-04-18T14:09:05.294Z</time></trkpt><trkpt lat="44.1213671" lon="8.2511056"><ele>11.666666666666666</ele><time>2026-04-18T14:09:06.293Z</time></trkpt><trkpt lat="44.1212977" lon="8.2510046"><ele>11.333333333333334</ele><time>2026-04-18T14:09:07.294Z</time></trkpt><trkpt lat="44.1212303" lon="8.2509149"><ele>11.0</ele><time>2026-04-18T14:09:08.294Z</time></trkpt><trkpt lat="44.1211693" lon="8.2508419"><ele>10.666666666666668</ele><time>2026-04-18T14:09:09.294Z</time></trkpt><trkpt lat="44.1211101" lon="8.2507861"><ele>10.333333333333334</ele><time>2026-04-18T14:09:10.293Z</time></trkpt><trkpt lat="44.1210512" lon="8.2507268"><ele>10.0</ele><time>2026-04-18T14:09:11.294Z</time></trkpt><trkpt lat="44.1209968" lon="8.2506464"><ele>9.833333333333334</ele><time>2026-04-18T14:09:12.294Z</time></trkpt><trkpt lat="44.1209279" lon="8.2505794"><ele>9.666666666666668</ele><time>2026-04-18T14:09:13.294Z</time></trkpt><trkpt lat="44.1208705" lon="8.250497"><ele>9.5</ele><time>2026-04-18T14:09:14.294Z</time></trkpt><trkpt lat="44.1208104" lon="8.250431"><ele>9.333333333333334</ele><time>2026-04-18T14:09:15.293Z</time></trkpt><trkpt lat="44.1207502" lon="8.250362"><ele>9.166666666666666</ele><time>2026-04-18T14:09:16.294Z</time></trkpt><trkpt lat="44.1206962" lon="8.2502862"><ele>9.0</ele><time>2026-04-18T14:09:17.294Z</time></trkpt><trkpt lat="44.1206317" lon="8.2502066"><ele>9.0</ele><time>2026-04-18T14:09:18.294Z</time></trkpt><trkpt lat="44.1205755" lon="8.2501167"><ele>9.0</ele><time>2026-04-18T14:09:19.294Z</time></trkpt><trkpt lat="44.1205126" lon="8.2500475"><ele>9.0</ele><time>2026-04-18T14:09:20.294Z</time></trkpt><trkpt lat="44.1204428" lon="8.2499547"><ele>9.0</ele><time>2026-04-18T14:09:21.294Z</time></trkpt><trkpt lat="44.1203568" lon="8.2498513"><ele>9.0</ele><time>2026-04-18T14:09:22.293Z</time></trkpt><trkpt lat="44.1202702" lon="8.2497472"><ele>9.2</ele><time>2026-04-18T14:09:23.294Z</time></trkpt><trkpt lat="44.1201912" lon="8.2496476"><ele>9.4</ele><time>2026-04-18T14:09:24.294Z</time></trkpt><trkpt lat="44.1201277" lon="8.249569"><ele>9.6</ele><time>2026-04-18T14:09:25.293Z</time></trkpt><trkpt lat="44.1200503" lon="8.2494808"><ele>9.8</ele><time>2026-04-18T14:09:27.294Z</time></trkpt><trkpt lat="44.1199988" lon="8.2494032"><ele>10.0</ele><time>2026-04-18T14:09:29.294Z</time></trkpt><trkpt lat="44.1199534" lon="8.2492999"><ele>9.333333333333334</ele><time>2026-04-18T14:09:31.294Z</time></trkpt><trkpt lat="44.1198896" lon="8.2491849"><ele>8.666666666666668</ele><time>2026-04-18T14:09:33.293Z</time></trkpt><trkpt lat="44.1197695" lon="8.2491372"><ele>8.0</ele><time>2026-04-18T14:09:35.294Z</time></trkpt><trkpt lat="44.1197022" lon="8.2491145"><ele>7.333333333333334</ele><time>2026-04-18T14:09:36.294Z</time></trkpt><trkpt lat="44.1196322" lon="8.2490844"><ele>6.666666666666667</ele><time>2026-04-18T14:09:37.294Z</time></trkpt><trkpt lat="44.1195667" lon="8.2490455"><ele>6.0</ele><time>2026-04-18T14:09:38.293Z</time></trkpt><trkpt lat="44.1194926" lon="8.2490072"><ele>6.0</ele><time>2026-04-18T14:09:39.294Z</time></trkpt><trkpt lat="44.1194234" lon="8.2489795"><ele>6.0</ele><time>2026-04-18T14:09:40.294Z</time></trkpt><trkpt lat="44.1193511" lon="8.248949"><ele>6.0</ele><time>2026-04-18T14:09:41.293Z</time></trkpt><trkpt lat="44.1192754" lon="8.2489229"><ele>6.0</ele><time>2026-04-18T14:09:42.294Z</time></trkpt><trkpt lat="44.1191967" lon="8.2489027"><ele>6.0</ele><time>2026-04-18T14:09:43.294Z</time></trkpt><trkpt lat="44.1191188" lon="8.2488815"><ele>6.0</ele><time>2026-04-18T14:09:44.294Z</time></trkpt><trkpt lat="44.1190421" lon="8.248859"><ele>6.428571428571428</ele><time>2026-04-18T14:09:45.294Z</time></trkpt><trkpt lat="44.1189742" lon="8.2488409"><ele>6.857142857142858</ele><time>2026-04-18T14:09:46.293Z</time></trkpt><trkpt lat="44.118911" lon="8.2488295"><ele>7.2857142857142865</ele><time>2026-04-18T14:09:47.294Z</time></trkpt><trkpt lat="44.1188394" lon="8.2488208"><ele>7.714285714285714</ele><time>2026-04-18T14:09:48.294Z</time></trkpt><trkpt lat="44.1187649" lon="8.2488065"><ele>8.142857142857142</ele><time>2026-04-18T14:09:49.294Z</time></trkpt><trkpt lat="44.1186889" lon="8.2487814"><ele>8.571428571428573</ele><time>2026-04-18T14:09:50.294Z</time></trkpt><trkpt lat="44.1186072" lon="8.2487646"><ele>9.0</ele><time>2026-04-18T14:09:51.294Z</time></trkpt><trkpt lat="44.118519" lon="8.2487402"><ele>9.0</ele><time>2026-04-18T14:09:52.294Z</time></trkpt><trkpt lat="44.1184199" lon="8.2487102"><ele>9.0</ele><time>2026-04-18T14:09:53.293Z</time></trkpt><trkpt lat="44.1183146" lon="8.2486846"><ele>9.0</ele><time>2026-04-18T14:09:54.293Z</time></trkpt><trkpt lat="44.118193" lon="8.2486497"><ele>9.0</ele><time>2026-04-18T14:09:55.294Z</time></trkpt><trkpt lat="44.1180437" lon="8.2486244"><ele>8.333333333333334</ele><time>2026-04-18T14:09:56.294Z</time></trkpt><trkpt lat="44.117884" lon="8.2485895"><ele>7.666666666666667</ele><time>2026-04-18T14:09:57.293Z</time></trkpt><trkpt lat="44.1177134" lon="8.2485511"><ele>7.0</ele><time>2026-04-18T14:09:58.294Z</time></trkpt><trkpt lat="44.1175477" lon="8.2485067"><ele>7.666666666666667</ele><time>2026-04-18T14:09:59.294Z</time></trkpt><trkpt lat="44.1173841" lon="8.2484735"><ele>8.333333333333334</ele><time>2026-04-18T14:10:00.294Z</time></trkpt><trkpt lat="44.11724" lon="8.2484267"><ele>9.0</ele><time>2026-04-18T14:10:01.294Z</time></trkpt><trkpt lat="44.1171022" lon="8.248397"><ele>9.0</ele><time>2026-04-18T14:10:02.294Z</time></trkpt><trkpt lat="44.1169738" lon="8.2483676"><ele>9.0</ele><time>2026-04-18T14:10:03.294Z</time></trkpt><trkpt lat="44.1168461" lon="8.2483368"><ele>9.0</ele><time>2026-04-18T14:10:04.294Z</time></trkpt><trkpt lat="44.1167155" lon="8.2482891"><ele>9.0</ele><time>2026-04-18T14:10:05.293Z</time></trkpt><trkpt lat="44.1165858" lon="8.2482229"><ele>8.75</ele><time>2026-04-18T14:10:06.294Z</time></trkpt><trkpt lat="44.1164592" lon="8.2481735"><ele>8.5</ele><time>2026-04-18T14:10:07.294Z</time></trkpt><trkpt lat="44.1163447" lon="8.2481114"><ele>8.25</ele><time>2026-04-18T14:10:08.293Z</time></trkpt><trkpt lat="44.1162306" lon="8.2480418"><ele>8.0</ele><time>2026-04-18T14:10:09.294Z</time></trkpt><trkpt lat="44.1161242" lon="8.2479726"><ele>8.0</ele><time>2026-04-18T14:10:10.294Z</time></trkpt><trkpt lat="44.1160222" lon="8.2479009"><ele>8.0</ele><time>2026-04-18T14:10:11.294Z</time></trkpt><trkpt lat="44.1159311" lon="8.2478289"><ele>8.0</ele><time>2026-04-18T14:10:12.293Z</time></trkpt><trkpt lat="44.1158425" lon="8.2477591"><ele>8.0</ele><time>2026-04-18T14:10:13.294Z</time></trkpt><trkpt lat="44.1157529" lon="8.2476843"><ele>8.0</ele><time>2026-04-18T14:10:14.294Z</time></trkpt><trkpt lat="44.1156598" lon="8.2476019"><ele>8.0</ele><time>2026-04-18T14:10:15.293Z</time></trkpt><trkpt lat="44.1155644" lon="8.2475126"><ele>8.0</ele><time>2026-04-18T14:10:16.294Z</time></trkpt><trkpt lat="44.1154674" lon="8.2474257"><ele>8.0</ele><time>2026-04-18T14:10:17.294Z</time></trkpt><trkpt lat="44.1153682" lon="8.2473414"><ele>8.0</ele><time>2026-04-18T14:10:18.294Z</time></trkpt><trkpt lat="44.1152764" lon="8.2472457"><ele>7.800000000000001</ele><time>2026-04-18T14:10:19.294Z</time></trkpt><trkpt lat="44.1151927" lon="8.2471522"><ele>7.6000000000000005</ele><time>2026-04-18T14:10:20.294Z</time></trkpt><trkpt lat="44.1151125" lon="8.2470605"><ele>7.3999999999999995</ele><time>2026-04-18T14:10:21.294Z</time></trkpt><trkpt lat="44.1150353" lon="8.246968"><ele>7.199999999999999</ele><time>2026-04-18T14:10:22.294Z</time></trkpt><trkpt lat="44.1149545" lon="8.2468803"><ele>7.0</ele><time>2026-04-18T14:10:23.293Z</time></trkpt><trkpt lat="44.1148714" lon="8.2467847"><ele>7.0</ele><time>2026-04-18T14:10:24.293Z</time></trkpt><trkpt lat="44.1147883" lon="8.2466878"><ele>6.999999999999999</ele><time>2026-04-18T14:10:25.294Z</time></trkpt><trkpt lat="44.1146964" lon="8.2465934"><ele>6.999999999999999</ele><time>2026-04-18T14:10:26.294Z</time></trkpt><trkpt lat="44.1146131" lon="8.2465038"><ele>7.0</ele><time>2026-04-18T14:10:27.294Z</time></trkpt><trkpt lat="44.1145352" lon="8.2464159"><ele>7.0</ele><time>2026-04-18T14:10:28.294Z</time></trkpt><trkpt lat="44.1144573" lon="8.2463354"><ele>7.3999999999999995</ele><time>2026-04-18T14:10:29.294Z</time></trkpt><trkpt lat="44.1143777" lon="8.2462614"><ele>7.799999999999999</ele><time>2026-04-18T14:10:30.294Z</time></trkpt><trkpt lat="44.1142854" lon="8.2461903"><ele>8.2</ele><time>2026-04-18T14:10:31.294Z</time></trkpt><trkpt lat="44.1141976" lon="8.2461217"><ele>8.6</ele><time>2026-04-18T14:10:32.294Z</time></trkpt><trkpt lat="44.114135" lon="8.2460183"><ele>9.0</ele><time>2026-04-18T14:10:33.295Z</time></trkpt><trkpt lat="44.1140446" lon="8.2459329"><ele>9.0</ele><time>2026-04-18T14:10:34.294Z</time></trkpt><trkpt lat="44.1139641" lon="8.2458428"><ele>9.0</ele><time>2026-04-18T14:10:35.295Z</time></trkpt><trkpt lat="44.1138714" lon="8.2457725"><ele>9.0</ele><time>2026-04-18T14:10:36.294Z</time></trkpt><trkpt lat="44.1137998" lon="8.2456708"><ele>9.0</ele><time>2026-04-18T14:10:37.295Z</time></trkpt><trkpt lat="44.1137302" lon="8.245576"><ele>9.0</ele><time>2026-04-18T14:10:38.295Z</time></trkpt><trkpt lat="44.1136627" lon="8.2454937"><ele>9.2</ele><time>2026-04-18T14:10:39.295Z</time></trkpt><trkpt lat="44.1135881" lon="8.2454157"><ele>9.4</ele><time>2026-04-18T14:10:40.294Z</time></trkpt><trkpt lat="44.1135189" lon="8.2453267"><ele>9.6</ele><time>2026-04-18T14:10:41.295Z</time></trkpt><trkpt lat="44.1134502" lon="8.2452397"><ele>9.8</ele><time>2026-04-18T14:10:42.295Z</time></trkpt><trkpt lat="44.1133804" lon="8.2451637"><ele>10.0</ele><time>2026-04-18T14:10:43.295Z</time></trkpt><trkpt lat="44.1133139" lon="8.2450867"><ele>10.0</ele><time>2026-04-18T14:10:44.295Z</time></trkpt><trkpt lat="44.1132506" lon="8.2450109"><ele>10.0</ele><time>2026-04-18T14:10:45.294Z</time></trkpt><trkpt lat="44.1131861" lon="8.2449312"><ele>10.0</ele><time>2026-04-18T14:10:46.295Z</time></trkpt><trkpt lat="44.1131216" lon="8.2448543"><ele>10.0</ele><time>2026-04-18T14:10:47.295Z</time></trkpt><trkpt lat="44.1130452" lon="8.2447784"><ele>10.0</ele><time>2026-04-18T14:10:48.295Z</time></trkpt><trkpt lat="44.1129554" lon="8.2446987"><ele>9.75</ele><time>2026-04-18T14:10:49.295Z</time></trkpt><trkpt lat="44.11286" lon="8.2446014"><ele>9.5</ele><time>2026-04-18T14:10:50.295Z</time></trkpt><trkpt lat="44.1127623" lon="8.2445025"><ele>9.25</ele><time>2026-04-18T14:10:51.295Z</time></trkpt><trkpt lat="44.1126676" lon="8.2443955"><ele>9.0</ele><time>2026-04-18T14:10:52.295Z</time></trkpt><trkpt lat="44.112572" lon="8.2442921"><ele>9.0</ele><time>2026-04-18T14:10:53.295Z</time></trkpt><trkpt lat="44.1124743" lon="8.2441861"><ele>9.0</ele><time>2026-04-18T14:10:54.295Z</time></trkpt><trkpt lat="44.1123703" lon="8.2440828"><ele>9.0</ele><time>2026-04-18T14:10:55.295Z</time></trkpt><trkpt lat="44.112252" lon="8.2439659"><ele>9.0</ele><time>2026-04-18T14:10:56.295Z</time></trkpt><trkpt lat="44.1121412" lon="8.2438242"><ele>9.5</ele><time>2026-04-18T14:10:57.295Z</time></trkpt><trkpt lat="44.1120368" lon="8.2436858"><ele>10.0</ele><time>2026-04-18T14:10:58.294Z</time></trkpt><trkpt lat="44.1119305" lon="8.2435572"><ele>10.5</ele><time>2026-04-18T14:10:59.295Z</time></trkpt><trkpt lat="44.1118308" lon="8.2434438"><ele>11.0</ele><time>2026-04-18T14:11:00.295Z</time></trkpt><trkpt lat="44.1117367" lon="8.2433423"><ele>11.0</ele><time>2026-04-18T14:11:01.294Z</time></trkpt><trkpt lat="44.1116379" lon="8.2432564"><ele>11.0</ele><time>2026-04-18T14:11:02.294Z</time></trkpt><trkpt lat="44.1115367" lon="8.2431543"><ele>11.0</ele><time>2026-04-18T14:11:03.295Z</time></trkpt><trkpt lat="44.1114296" lon="8.2430471"><ele>11.0</ele><time>2026-04-18T14:11:04.294Z</time></trkpt><trkpt lat="44.1113378" lon="8.2429304"><ele>10.0</ele><time>2026-04-18T14:11:05.295Z</time></trkpt><trkpt lat="44.111251" lon="8.242826"><ele>9.0</ele><time>2026-04-18T14:11:06.295Z</time></trkpt><trkpt lat="44.1111474" lon="8.2427484"><ele>8.0</ele><time>2026-04-18T14:11:07.295Z</time></trkpt><trkpt lat="44.111059" lon="8.242658"><ele>7.0</ele><time>2026-04-18T14:11:08.295Z</time></trkpt><trkpt lat="44.1109905" lon="8.2425621"><ele>6.0</ele><time>2026-04-18T14:11:09.295Z</time></trkpt><trkpt lat="44.1109262" lon="8.2425011"><ele>6.0</ele><time>2026-04-18T14:11:10.295Z</time></trkpt><trkpt lat="44.1108734" lon="8.2424483"><ele>6.0</ele><time>2026-04-18T14:11:11.295Z</time></trkpt><trkpt lat="44.1107916" lon="8.2423566"><ele>6.0</ele><time>2026-04-18T14:11:13.294Z</time></trkpt><trkpt lat="44.1107403" lon="8.2422963"><ele>6.0</ele><time>2026-04-18T14:11:14.295Z</time></trkpt><trkpt lat="44.1106344" lon="8.242265"><ele>6.0</ele><time>2026-04-18T14:11:16.295Z</time></trkpt><trkpt lat="44.1105364" lon="8.2423098"><ele>6.0</ele><time>2026-04-18T14:11:18.295Z</time></trkpt><trkpt lat="44.110463" lon="8.2423094"><ele>6.0</ele><time>2026-04-18T14:11:19.294Z</time></trkpt><trkpt lat="44.1103709" lon="8.2422888"><ele>6.0</ele><time>2026-04-18T14:11:20.295Z</time></trkpt><trkpt lat="44.1102583" lon="8.2422564"><ele>6.0</ele><time>2026-04-18T14:11:21.295Z</time></trkpt><trkpt lat="44.1101248" lon="8.2422077"><ele>6.0</ele><time>2026-04-18T14:11:22.295Z</time></trkpt><trkpt lat="44.1099949" lon="8.2421431"><ele>6.25</ele><time>2026-04-18T14:11:23.295Z</time></trkpt><trkpt lat="44.109882" lon="8.242073"><ele>6.5</ele><time>2026-04-18T14:11:24.295Z</time></trkpt><trkpt lat="44.1097778" lon="8.2419851"><ele>6.75</ele><time>2026-04-18T14:11:25.295Z</time></trkpt><trkpt lat="44.1096824" lon="8.2418756"><ele>7.0</ele><time>2026-04-18T14:11:26.294Z</time></trkpt><trkpt lat="44.1095827" lon="8.2417749"><ele>7.0</ele><time>2026-04-18T14:11:27.295Z</time></trkpt><trkpt lat="44.1094845" lon="8.2416718"><ele>7.0</ele><time>2026-04-18T14:11:28.295Z</time></trkpt><trkpt lat="44.1093963" lon="8.2415604"><ele>7.0</ele><time>2026-04-18T14:11:29.295Z</time></trkpt><trkpt lat="44.1093025" lon="8.2414601"><ele>7.0</ele><time>2026-04-18T14:11:30.295Z</time></trkpt><trkpt lat="44.1092088" lon="8.2413783"><ele>7.0</ele><time>2026-04-18T14:11:31.295Z</time></trkpt><trkpt lat="44.1091102" lon="8.2413125"><ele>6.999999999999999</ele><time>2026-04-18T14:11:32.294Z</time></trkpt><trkpt lat="44.1090233" lon="8.2412385"><ele>6.999999999999999</ele><time>2026-04-18T14:11:33.294Z</time></trkpt><trkpt lat="44.1089386" lon="8.241167"><ele>7.0</ele><time>2026-04-18T14:11:34.295Z</time></trkpt><trkpt lat="44.108857" lon="8.2410991"><ele>7.0</ele><time>2026-04-18T14:11:35.295Z</time></trkpt><trkpt lat="44.1087782" lon="8.2410287"><ele>7.0</ele><time>2026-04-18T14:11:36.295Z</time></trkpt><trkpt lat="44.1086952" lon="8.240947"><ele>6.999999999999999</ele><time>2026-04-18T14:11:37.295Z</time></trkpt><trkpt lat="44.1086078" lon="8.2408667"><ele>6.999999999999999</ele><time>2026-04-18T14:11:38.295Z</time></trkpt><trkpt lat="44.108508" lon="8.2407945"><ele>7.0</ele><time>2026-04-18T14:11:39.295Z</time></trkpt><trkpt lat="44.1084203" lon="8.2407123"><ele>7.0</ele><time>2026-04-18T14:11:40.295Z</time></trkpt><trkpt lat="44.1083354" lon="8.2406129"><ele>6.5</ele><time>2026-04-18T14:11:41.294Z</time></trkpt><trkpt lat="44.1082264" lon="8.2405105"><ele>6.0</ele><time>2026-04-18T14:11:42.295Z</time></trkpt><trkpt lat="44.1081125" lon="8.2403865"><ele>5.5</ele><time>2026-04-18T14:11:43.295Z</time></trkpt><trkpt lat="44.1079815" lon="8.2402425"><ele>5.0</ele><time>2026-04-18T14:11:44.295Z</time></trkpt><trkpt lat="44.1078364" lon="8.2400939"><ele>5.0</ele><time>2026-04-18T14:11:45.294Z</time></trkpt><trkpt lat="44.1076896" lon="8.2399344"><ele>5.0</ele><time>2026-04-18T14:11:46.295Z</time></trkpt><trkpt lat="44.1075439" lon="8.2397498"><ele>5.0</ele><time>2026-04-18T14:11:47.295Z</time></trkpt><trkpt lat="44.1074017" lon="8.2395513"><ele>5.666666666666667</ele><time>2026-04-18T14:11:48.295Z</time></trkpt><trkpt lat="44.1072624" lon="8.2393769"><ele>6.333333333333334</ele><time>2026-04-18T14:11:49.295Z</time></trkpt><trkpt lat="44.1071345" lon="8.2392123"><ele>7.0</ele><time>2026-04-18T14:11:50.295Z</time></trkpt><trkpt lat="44.1070181" lon="8.2390607"><ele>14.0</ele><time>2026-04-18T14:11:51.295Z</time></trkpt><trkpt lat="44.1069082" lon="8.2389295"><ele>21.0</ele><time>2026-04-18T14:11:52.295Z</time></trkpt><trkpt lat="44.1068111" lon="8.238808"><ele>28.0</ele><time>2026-04-18T14:11:53.295Z</time></trkpt><trkpt lat="44.1067161" lon="8.2387081"><ele>35.0</ele><time>2026-04-18T14:11:54.295Z</time></trkpt><trkpt lat="44.1066159" lon="8.2386365"><ele>35.75</ele><time>2026-04-18T14:11:55.295Z</time></trkpt><trkpt lat="44.1065032" lon="8.2385847"><ele>36.5</ele><time>2026-04-18T14:11:56.294Z</time></trkpt><trkpt lat="44.1063748" lon="8.238559"><ele>37.25</ele><time>2026-04-18T14:11:57.295Z</time></trkpt><trkpt lat="44.1062484" lon="8.2385663"><ele>38.0</ele><time>2026-04-18T14:11:58.295Z</time></trkpt><trkpt lat="44.1061162" lon="8.2386067"><ele>38.0</ele><time>2026-04-18T14:11:59.295Z</time></trkpt><trkpt lat="44.1059942" lon="8.2386656"><ele>38.0</ele><time>2026-04-18T14:12:00.295Z</time></trkpt><trkpt lat="44.1058736" lon="8.2387388"><ele>38.0</ele><time>2026-04-18T14:12:01.295Z</time></trkpt><trkpt lat="44.1057651" lon="8.2388077"><ele>38.0</ele><time>2026-04-18T14:12:02.295Z</time></trkpt><trkpt lat="44.1056471" lon="8.2388625"><ele>41.0</ele><time>2026-04-18T14:12:03.295Z</time></trkpt><trkpt lat="44.1055202" lon="8.2388972"><ele>44.0</ele><time>2026-04-18T14:12:04.295Z</time></trkpt><trkpt lat="44.1053865" lon="8.2389216"><ele>47.0</ele><time>2026-04-18T14:12:05.295Z</time></trkpt><trkpt lat="44.1052496" lon="8.2389465"><ele>50.0</ele><time>2026-04-18T14:12:06.294Z</time></trkpt><trkpt lat="44.10512" lon="8.2389672"><ele>41.5</ele><time>2026-04-18T14:12:07.295Z</time></trkpt><trkpt lat="44.104999" lon="8.2389876"><ele>33.0</ele><time>2026-04-18T14:12:08.295Z</time></trkpt><trkpt lat="44.1048782" lon="8.2390032"><ele>24.5</ele><time>2026-04-18T14:12:09.295Z</time></trkpt><trkpt lat="44.1047591" lon="8.2390192"><ele>16.0</ele><time>2026-04-18T14:12:10.294Z</time></trkpt><trkpt lat="44.1046369" lon="8.2390255"><ele>14.0</ele><time>2026-04-18T14:12:11.294Z</time></trkpt><trkpt lat="44.1045185" lon="8.2390141"><ele>12.0</ele><time>2026-04-18T14:12:12.295Z</time></trkpt><trkpt lat="44.1043938" lon="8.2389738"><ele>10.0</ele><time>2026-04-18T14:12:13.295Z</time></trkpt><trkpt lat="44.1042726" lon="8.2389164"><ele>8.0</ele><time>2026-04-18T14:12:14.295Z</time></trkpt><trkpt lat="44.104164" lon="8.238861"><ele>10.0</ele><time>2026-04-18T14:12:15.294Z</time></trkpt><trkpt lat="44.10407" lon="8.2388151"><ele>12.0</ele><time>2026-04-18T14:12:16.294Z</time></trkpt><trkpt lat="44.1039909" lon="8.2387736"><ele>14.0</ele><time>2026-04-18T14:12:17.295Z</time></trkpt><trkpt lat="44.1039199" lon="8.2387358"><ele>16.0</ele><time>2026-04-18T14:12:18.295Z</time></trkpt><trkpt lat="44.1038458" lon="8.2386993"><ele>18.0</ele><time>2026-04-18T14:12:19.294Z</time></trkpt><trkpt lat="44.1037668" lon="8.2386362"><ele>20.0</ele><time>2026-04-18T14:12:20.295Z</time></trkpt><trkpt lat="44.1036955" lon="8.23857"><ele>20.0</ele><time>2026-04-18T14:12:21.296Z</time></trkpt><trkpt lat="44.1036269" lon="8.2384968"><ele>20.0</ele><time>2026-04-18T14:12:22.296Z</time></trkpt><trkpt lat="44.1035552" lon="8.2384148"><ele>20.0</ele><time>2026-04-18T14:12:23.296Z</time></trkpt><trkpt lat="44.1034836" lon="8.2383446"><ele>20.0</ele><time>2026-04-18T14:12:24.295Z</time></trkpt><trkpt lat="44.1034095" lon="8.2382772"><ele>20.0</ele><time>2026-04-18T14:12:25.296Z</time></trkpt><trkpt lat="44.1033171" lon="8.238198"><ele>19.4</ele><time>2026-04-18T14:12:26.296Z</time></trkpt><trkpt lat="44.1032277" lon="8.2381049"><ele>18.8</ele><time>2026-04-18T14:12:27.296Z</time></trkpt><trkpt lat="44.103131" lon="8.238021"><ele>18.2</ele><time>2026-04-18T14:12:28.296Z</time></trkpt><trkpt lat="44.1030541" lon="8.2379426"><ele>17.6</ele><time>2026-04-18T14:12:29.296Z</time></trkpt><trkpt lat="44.1029775" lon="8.2378735"><ele>17.0</ele><time>2026-04-18T14:12:30.295Z</time></trkpt><trkpt lat="44.1029048" lon="8.2377976"><ele>17.0</ele><time>2026-04-18T14:12:31.295Z</time></trkpt><trkpt lat="44.1028336" lon="8.2377085"><ele>17.0</ele><time>2026-04-18T14:12:32.296Z</time></trkpt><trkpt lat="44.1027651" lon="8.237615"><ele>17.0</ele><time>2026-04-18T14:12:33.296Z</time></trkpt><trkpt lat="44.1026971" lon="8.2375072"><ele>17.0</ele><time>2026-04-18T14:12:34.295Z</time></trkpt><trkpt lat="44.1026245" lon="8.2374085"><ele>17.0</ele><time>2026-04-18T14:12:35.295Z</time></trkpt><trkpt lat="44.1025298" lon="8.2373206"><ele>17.0</ele><time>2026-04-18T14:12:36.296Z</time></trkpt><trkpt lat="44.1024275" lon="8.2372537"><ele>17.0</ele><time>2026-04-18T14:12:37.295Z</time></trkpt><trkpt lat="44.1023211" lon="8.237192"><ele>17.0</ele><time>2026-04-18T14:12:38.296Z</time></trkpt><trkpt lat="44.1022182" lon="8.2371252"><ele>17.0</ele><time>2026-04-18T14:12:39.296Z</time></trkpt><trkpt lat="44.1021183" lon="8.2370594"><ele>17.0</ele><time>2026-04-18T14:12:40.296Z</time></trkpt><trkpt lat="44.1020195" lon="8.2369932"><ele>17.0</ele><time>2026-04-18T14:12:41.295Z</time></trkpt><trkpt lat="44.1019235" lon="8.2369299"><ele>17.0</ele><time>2026-04-18T14:12:42.296Z</time></trkpt><trkpt lat="44.1018236" lon="8.2368523"><ele>17.0</ele><time>2026-04-18T14:12:43.296Z</time></trkpt><trkpt lat="44.1017307" lon="8.2367683"><ele>17.0</ele><time>2026-04-18T14:12:44.296Z</time></trkpt><trkpt lat="44.10165" lon="8.2366886"><ele>17.0</ele><time>2026-04-18T14:12:45.295Z</time></trkpt><trkpt lat="44.1015843" lon="8.2366181"><ele>17.0</ele><time>2026-04-18T14:12:46.295Z</time></trkpt><trkpt lat="44.101536" lon="8.2365493"><ele>17.0</ele><time>2026-04-18T14:12:47.296Z</time></trkpt><trkpt lat="44.1014881" lon="8.2364837"><ele>17.0</ele><time>2026-04-18T14:12:48.296Z</time></trkpt><trkpt lat="44.1014356" lon="8.2364217"><ele>17.0</ele><time>2026-04-18T14:12:49.296Z</time></trkpt><trkpt lat="44.1013656" lon="8.2363254"><ele>17.0</ele><time>2026-04-18T14:12:51.296Z</time></trkpt><trkpt lat="44.101294" lon="8.2361993"><ele>17.0</ele><time>2026-04-18T14:12:53.296Z</time></trkpt><trkpt lat="44.1011844" lon="8.2361242"><ele>17.0</ele><time>2026-04-18T14:12:55.296Z</time></trkpt><trkpt lat="44.1011181" lon="8.2360855"><ele>17.0</ele><time>2026-04-18T14:12:56.296Z</time></trkpt><trkpt lat="44.101045" lon="8.2360364"><ele>17.0</ele><time>2026-04-18T14:12:57.296Z</time></trkpt><trkpt lat="44.1009711" lon="8.2359817"><ele>17.0</ele><time>2026-04-18T14:12:58.296Z</time></trkpt><trkpt lat="44.1008828" lon="8.2359148"><ele>17.0</ele><time>2026-04-18T14:12:59.296Z</time></trkpt><trkpt lat="44.1007799" lon="8.2358331"><ele>17.0</ele><time>2026-04-18T14:13:00.296Z</time></trkpt><trkpt lat="44.1006609" lon="8.2357297"><ele>17.0</ele><time>2026-04-18T14:13:01.296Z</time></trkpt><trkpt lat="44.1005303" lon="8.2356104"><ele>17.0</ele><time>2026-04-18T14:13:02.296Z</time></trkpt><trkpt lat="44.1004055" lon="8.2354885"><ele>15.75</ele><time>2026-04-18T14:13:03.296Z</time></trkpt><trkpt lat="44.1002904" lon="8.2353687"><ele>14.5</ele><time>2026-04-18T14:13:04.296Z</time></trkpt><trkpt lat="44.1001736" lon="8.2352495"><ele>13.25</ele><time>2026-04-18T14:13:05.296Z</time></trkpt><trkpt lat="44.1000581" lon="8.2351277"><ele>12.0</ele><time>2026-04-18T14:13:06.296Z</time></trkpt><trkpt lat="44.0999395" lon="8.2350056"><ele>11.666666666666666</ele><time>2026-04-18T14:13:07.295Z</time></trkpt><trkpt lat="44.0998016" lon="8.2348698"><ele>11.333333333333332</ele><time>2026-04-18T14:13:08.296Z</time></trkpt><trkpt lat="44.0996557" lon="8.2347232"><ele>11.0</ele><time>2026-04-18T14:13:09.296Z</time></trkpt><trkpt lat="44.0994992" lon="8.2345641"><ele>11.0</ele><time>2026-04-18T14:13:10.295Z</time></trkpt><trkpt lat="44.0993289" lon="8.2343931"><ele>11.0</ele><time>2026-04-18T14:13:11.296Z</time></trkpt><trkpt lat="44.0991702" lon="8.2342289"><ele>11.0</ele><time>2026-04-18T14:13:12.295Z</time></trkpt><trkpt lat="44.099019" lon="8.2340738"><ele>12.0</ele><time>2026-04-18T14:13:13.296Z</time></trkpt><trkpt lat="44.0988753" lon="8.2339244"><ele>13.0</ele><time>2026-04-18T14:13:14.296Z</time></trkpt><trkpt lat="44.0987387" lon="8.233786"><ele>14.0</ele><time>2026-04-18T14:13:15.296Z</time></trkpt><trkpt lat="44.0986027" lon="8.2336509"><ele>14.0</ele><time>2026-04-18T14:13:16.296Z</time></trkpt><trkpt lat="44.0984595" lon="8.2335124"><ele>14.0</ele><time>2026-04-18T14:13:17.296Z</time></trkpt><trkpt lat="44.0983135" lon="8.2333687"><ele>14.0</ele><time>2026-04-18T14:13:18.296Z</time></trkpt><trkpt lat="44.0981729" lon="8.2332209"><ele>13.0</ele><time>2026-04-18T14:13:19.296Z</time></trkpt><trkpt lat="44.0980346" lon="8.2330772"><ele>12.0</ele><time>2026-04-18T14:13:20.295Z</time></trkpt><trkpt lat="44.0979056" lon="8.232936"><ele>11.0</ele><time>2026-04-18T14:13:21.296Z</time></trkpt><trkpt lat="44.0977821" lon="8.2328048"><ele>11.0</ele><time>2026-04-18T14:13:22.296Z</time></trkpt><trkpt lat="44.0976603" lon="8.2326865"><ele>11.0</ele><time>2026-04-18T14:13:23.296Z</time></trkpt><trkpt lat="44.0975466" lon="8.232574"><ele>11.0</ele><time>2026-04-18T14:13:24.296Z</time></trkpt><trkpt lat="44.0974408" lon="8.2324673"><ele>11.0</ele><time>2026-04-18T14:13:25.296Z</time></trkpt><trkpt lat="44.0973484" lon="8.2323749"><ele>10.833333333333332</ele><time>2026-04-18T14:13:26.296Z</time></trkpt><trkpt lat="44.0972775" lon="8.2322937"><ele>10.666666666666666</ele><time>2026-04-18T14:13:27.296Z</time></trkpt><trkpt lat="44.0972188" lon="8.2322344"><ele>10.5</ele><time>2026-04-18T14:13:28.296Z</time></trkpt><trkpt lat="44.0971254" lon="8.2321268"><ele>10.333333333333334</ele><time>2026-04-18T14:13:30.296Z</time></trkpt><trkpt lat="44.0970761" lon="8.2320645"><ele>10.166666666666668</ele><time>2026-04-18T14:13:31.296Z</time></trkpt><trkpt lat="44.0970226" lon="8.232014"><ele>10.0</ele><time>2026-04-18T14:13:32.296Z</time></trkpt><trkpt lat="44.0969669" lon="8.2319674"><ele>10.0</ele><time>2026-04-18T14:13:33.296Z</time></trkpt><trkpt lat="44.0969129" lon="8.2319221"><ele>10.0</ele><time>2026-04-18T14:13:34.296Z</time></trkpt><trkpt lat="44.0968221" lon="8.2318336"><ele>10.0</ele><time>2026-04-18T14:13:36.296Z</time></trkpt><trkpt lat="44.096761" lon="8.2317943"><ele>10.0</ele><time>2026-04-18T14:13:37.296Z</time></trkpt><trkpt lat="44.0966709" lon="8.2317508"><ele>10.0</ele><time>2026-04-18T14:13:38.295Z</time></trkpt><trkpt lat="44.0965665" lon="8.2316972"><ele>10.0</ele><time>2026-04-18T14:13:39.296Z</time></trkpt><trkpt lat="44.0964571" lon="8.2316429"><ele>9.8</ele><time>2026-04-18T14:13:40.296Z</time></trkpt><trkpt lat="44.0963507" lon="8.2315922"><ele>9.6</ele><time>2026-04-18T14:13:41.296Z</time></trkpt><trkpt lat="44.0962511" lon="8.2315452"><ele>9.4</ele><time>2026-04-18T14:13:42.296Z</time></trkpt><trkpt lat="44.0961615" lon="8.2315011"><ele>9.2</ele><time>2026-04-18T14:13:43.296Z</time></trkpt><trkpt lat="44.0961006" lon="8.2314561"><ele>9.0</ele><time>2026-04-18T14:13:44.296Z</time></trkpt><trkpt lat="44.0960117" lon="8.2313771"><ele>9.2</ele><time>2026-04-18T14:13:46.296Z</time></trkpt><trkpt lat="44.0958886" lon="8.2313484"><ele>9.4</ele><time>2026-04-18T14:13:48.296Z</time></trkpt><trkpt lat="44.0958047" lon="8.2313437"><ele>9.6</ele><time>2026-04-18T14:13:49.295Z</time></trkpt><trkpt lat="44.0956945" lon="8.2313212"><ele>9.8</ele><time>2026-04-18T14:13:50.296Z</time></trkpt><trkpt lat="44.095572" lon="8.2312822"><ele>10.0</ele><time>2026-04-18T14:13:51.296Z</time></trkpt><trkpt lat="44.0954464" lon="8.2312394"><ele>10.0</ele><time>2026-04-18T14:13:52.296Z</time></trkpt><trkpt lat="44.0953435" lon="8.2312092"><ele>10.0</ele><time>2026-04-18T14:13:53.296Z</time></trkpt><trkpt lat="44.0952646" lon="8.2311732"><ele>10.0</ele><time>2026-04-18T14:13:54.296Z</time></trkpt><trkpt lat="44.0951896" lon="8.2311527"><ele>10.0</ele><time>2026-04-18T14:13:55.296Z</time></trkpt><trkpt lat="44.0951265" lon="8.2311395"><ele>10.0</ele><time>2026-04-18T14:13:56.296Z</time></trkpt><trkpt lat="44.095022" lon="8.2311026"><ele>10.0</ele><time>2026-04-18T14:13:58.295Z</time></trkpt><trkpt lat="44.0949381" lon="8.2310577"><ele>10.0</ele><time>2026-04-18T14:14:00.295Z</time></trkpt><trkpt lat="44.0948692" lon="8.2310186"><ele>10.0</ele><time>2026-04-18T14:14:03.296Z</time></trkpt><trkpt lat="44.0948265" lon="8.230932"><ele>10.0</ele><time>2026-04-18T14:14:07.297Z</time></trkpt><trkpt lat="44.09489" lon="8.2309572"><ele>10.0</ele><time>2026-04-18T14:14:43.297Z</time></trkpt><trkpt lat="44.0949397" lon="8.2310187"><ele>10.0</ele><time>2026-04-18T14:14:51.412Z</time></trkpt><trkpt lat="44.0949947" lon="8.2309581"><ele>10.0</ele><time>2026-04-18T14:14:57.336Z</time></trkpt><trkpt lat="44.0950566" lon="8.2309252"><ele>10.0</ele><time>2026-04-18T14:15:03.339Z</time></trkpt><trkpt lat="44.095044" lon="8.2308361"><ele>10.0</ele><time>2026-04-18T14:15:11.363Z</time></trkpt><trkpt lat="44.0949535" lon="8.2308093"><ele>10.0</ele><time>2026-04-18T14:16:08.371Z</time></trkpt><trkpt lat="44.0949091" lon="8.230877"><ele>10.0</ele><time>2026-04-18T14:16:19.396Z</time></trkpt><trkpt lat="44.094867" lon="8.2309495"><ele>10.0</ele><time>2026-04-18T14:16:24.379Z</time></trkpt><trkpt lat="44.0947597" lon="8.2309601"><ele>10.0</ele><time>2026-04-18T14:18:13.4Z</time></trkpt><trkpt lat="44.0945558" lon="8.2309043"><ele>9.4</ele><time>2026-04-18T14:18:15.299Z</time></trkpt><trkpt lat="44.0944572" lon="8.2308765"><ele>8.8</ele><time>2026-04-18T14:18:16.299Z</time></trkpt><trkpt lat="44.0943579" lon="8.2308491"><ele>8.2</ele><time>2026-04-18T14:18:17.299Z</time></trkpt><trkpt lat="44.0942697" lon="8.2308196"><ele>7.6</ele><time>2026-04-18T14:18:18.299Z</time></trkpt><trkpt lat="44.0941909" lon="8.2307683"><ele>7.0</ele><time>2026-04-18T14:18:19.299Z</time></trkpt><trkpt lat="44.0941105" lon="8.2306919"><ele>7.25</ele><time>2026-04-18T14:18:20.299Z</time></trkpt><trkpt lat="44.0940224" lon="8.2306143"><ele>7.5</ele><time>2026-04-18T14:18:21.299Z</time></trkpt><trkpt lat="44.0939146" lon="8.2305785"><ele>7.75</ele><time>2026-04-18T14:18:22.299Z</time></trkpt><trkpt lat="44.0937942" lon="8.2305806"><ele>8.0</ele><time>2026-04-18T14:18:23.299Z</time></trkpt><trkpt lat="44.0936705" lon="8.2305763"><ele>8.0</ele><time>2026-04-18T14:18:24.299Z</time></trkpt><trkpt lat="44.0935479" lon="8.2305321"><ele>8.0</ele><time>2026-04-18T14:18:25.299Z</time></trkpt><trkpt lat="44.0934219" lon="8.2304333"><ele>8.0</ele><time>2026-04-18T14:18:26.299Z</time></trkpt><trkpt lat="44.0932875" lon="8.2303362"><ele>8.0</ele><time>2026-04-18T14:18:27.299Z</time></trkpt><trkpt lat="44.0931493" lon="8.2302322"><ele>7.666666666666666</ele><time>2026-04-18T14:18:28.298Z</time></trkpt><trkpt lat="44.0930088" lon="8.2301337"><ele>7.333333333333334</ele><time>2026-04-18T14:18:29.299Z</time></trkpt><trkpt lat="44.0928607" lon="8.2300359"><ele>7.0</ele><time>2026-04-18T14:18:30.299Z</time></trkpt><trkpt lat="44.0927143" lon="8.2299354"><ele>7.0</ele><time>2026-04-18T14:18:31.298Z</time></trkpt><trkpt lat="44.0925675" lon="8.2298449"><ele>7.0</ele><time>2026-04-18T14:18:32.298Z</time></trkpt><trkpt lat="44.092417" lon="8.2297548"><ele>7.0</ele><time>2026-04-18T14:18:33.299Z</time></trkpt><trkpt lat="44.0922607" lon="8.2296658"><ele>7.666666666666667</ele><time>2026-04-18T14:18:34.299Z</time></trkpt><trkpt lat="44.0921036" lon="8.229579"><ele>8.333333333333334</ele><time>2026-04-18T14:18:35.299Z</time></trkpt><trkpt lat="44.0919457" lon="8.2294944"><ele>9.0</ele><time>2026-04-18T14:18:36.299Z</time></trkpt><trkpt lat="44.091789" lon="8.2294126"><ele>9.0</ele><time>2026-04-18T14:18:37.299Z</time></trkpt><trkpt lat="44.0916377" lon="8.2293301"><ele>9.0</ele><time>2026-04-18T14:18:38.299Z</time></trkpt><trkpt lat="44.0914891" lon="8.229246"><ele>9.0</ele><time>2026-04-18T14:18:39.298Z</time></trkpt><trkpt lat="44.0913425" lon="8.2291614"><ele>9.0</ele><time>2026-04-18T14:18:40.299Z</time></trkpt><trkpt lat="44.0912129" lon="8.2290782"><ele>9.0</ele><time>2026-04-18T14:18:41.298Z</time></trkpt><trkpt lat="44.0910948" lon="8.2290051"><ele>9.0</ele><time>2026-04-18T14:18:42.299Z</time></trkpt><trkpt lat="44.090983" lon="8.22893"><ele>9.0</ele><time>2026-04-18T14:18:43.299Z</time></trkpt><trkpt lat="44.0908721" lon="8.2288518"><ele>9.0</ele><time>2026-04-18T14:18:44.299Z</time></trkpt><trkpt lat="44.0907676" lon="8.2287717"><ele>9.0</ele><time>2026-04-18T14:18:45.299Z</time></trkpt><trkpt lat="44.0906721" lon="8.2286942"><ele>9.0</ele><time>2026-04-18T14:18:46.299Z</time></trkpt><trkpt lat="44.0905845" lon="8.2286133"><ele>9.0</ele><time>2026-04-18T14:18:47.299Z</time></trkpt><trkpt lat="44.0904926" lon="8.2285321"><ele>9.0</ele><time>2026-04-18T14:18:48.299Z</time></trkpt><trkpt lat="44.0904023" lon="8.228456"><ele>8.6</ele><time>2026-04-18T14:18:49.298Z</time></trkpt><trkpt lat="44.0903158" lon="8.2283759"><ele>8.2</ele><time>2026-04-18T14:18:50.299Z</time></trkpt><trkpt lat="44.0902338" lon="8.2282974"><ele>7.799999999999999</ele><time>2026-04-18T14:18:51.299Z</time></trkpt><trkpt lat="44.0901453" lon="8.2282195"><ele>7.3999999999999995</ele><time>2026-04-18T14:18:52.299Z</time></trkpt><trkpt lat="44.0900523" lon="8.2281582"><ele>7.0</ele><time>2026-04-18T14:18:53.299Z</time></trkpt><trkpt lat="44.0899562" lon="8.228097"><ele>7.0</ele><time>2026-04-18T14:18:54.298Z</time></trkpt><trkpt lat="44.0898392" lon="8.2280259"><ele>7.0</ele><time>2026-04-18T14:18:55.298Z</time></trkpt><trkpt lat="44.0897018" lon="8.22795"><ele>7.0</ele><time>2026-04-18T14:18:56.299Z</time></trkpt><trkpt lat="44.0895498" lon="8.2278668"><ele>7.0</ele><time>2026-04-18T14:18:57.298Z</time></trkpt><trkpt lat="44.0894057" lon="8.2277789"><ele>7.0</ele><time>2026-04-18T14:18:58.299Z</time></trkpt><trkpt lat="44.0892767" lon="8.2276996"><ele>7.0</ele><time>2026-04-18T14:18:59.299Z</time></trkpt><trkpt lat="44.0891454" lon="8.2276297"><ele>7.0</ele><time>2026-04-18T14:19:00.298Z</time></trkpt><trkpt lat="44.0890045" lon="8.2275535"><ele>7.0</ele><time>2026-04-18T14:19:01.299Z</time></trkpt><trkpt lat="44.0888573" lon="8.2274708"><ele>7.0</ele><time>2026-04-18T14:19:02.298Z</time></trkpt><trkpt lat="44.0887047" lon="8.2273798"><ele>7.0</ele><time>2026-04-18T14:19:03.299Z</time></trkpt><trkpt lat="44.0885458" lon="8.2272823"><ele>7.0</ele><time>2026-04-18T14:19:04.299Z</time></trkpt><trkpt lat="44.0883755" lon="8.227181"><ele>6.333333333333334</ele><time>2026-04-18T14:19:05.298Z</time></trkpt><trkpt lat="44.0881998" lon="8.2270781"><ele>5.666666666666667</ele><time>2026-04-18T14:19:06.299Z</time></trkpt><trkpt lat="44.088024" lon="8.2269733"><ele>5.0</ele><time>2026-04-18T14:19:07.299Z</time></trkpt><trkpt lat="44.0878363" lon="8.226864"><ele>5.0</ele><time>2026-04-18T14:19:08.299Z</time></trkpt><trkpt lat="44.0876456" lon="8.2267536"><ele>5.0</ele><time>2026-04-18T14:19:09.299Z</time></trkpt><trkpt lat="44.0874579" lon="8.2266443"><ele>5.0</ele><time>2026-04-18T14:19:10.299Z</time></trkpt><trkpt lat="44.0872833" lon="8.2265325"><ele>4.666666666666667</ele><time>2026-04-18T14:19:11.299Z</time></trkpt><trkpt lat="44.0871135" lon="8.2264325"><ele>4.333333333333333</ele><time>2026-04-18T14:19:12.299Z</time></trkpt><trkpt lat="44.0869404" lon="8.2263287"><ele>4.0</ele><time>2026-04-18T14:19:13.299Z</time></trkpt><trkpt lat="44.0867546" lon="8.2262241"><ele>3.6666666666666665</ele><time>2026-04-18T14:19:14.299Z</time></trkpt><trkpt lat="44.0865659" lon="8.2261138"><ele>3.333333333333333</ele><time>2026-04-18T14:19:15.299Z</time></trkpt><trkpt lat="44.0863916" lon="8.2260118"><ele>3.0</ele><time>2026-04-18T14:19:16.299Z</time></trkpt><trkpt lat="44.0862381" lon="8.225927"><ele>3.0</ele><time>2026-04-18T14:19:17.299Z</time></trkpt><trkpt lat="44.0861005" lon="8.2258599"><ele>3.0</ele><time>2026-04-18T14:19:18.299Z</time></trkpt><trkpt lat="44.0859714" lon="8.2257995"><ele>3.0</ele><time>2026-04-18T14:19:19.299Z</time></trkpt><trkpt lat="44.0858345" lon="8.2257337"><ele>3.0</ele><time>2026-04-18T14:19:20.299Z</time></trkpt><trkpt lat="44.0856818" lon="8.2256717"><ele>3.333333333333333</ele><time>2026-04-18T14:19:21.299Z</time></trkpt><trkpt lat="44.0855173" lon="8.2256051"><ele>3.6666666666666665</ele><time>2026-04-18T14:19:22.298Z</time></trkpt><trkpt lat="44.0853549" lon="8.225531"><ele>4.0</ele><time>2026-04-18T14:19:23.298Z</time></trkpt><trkpt lat="44.085188" lon="8.2254509"><ele>4.0</ele><time>2026-04-18T14:19:24.298Z</time></trkpt><trkpt lat="44.0850155" lon="8.2253694"><ele>4.0</ele><time>2026-04-18T14:19:25.299Z</time></trkpt><trkpt lat="44.0848423" lon="8.225285"><ele>4.0</ele><time>2026-04-18T14:19:26.299Z</time></trkpt><trkpt lat="44.084681" lon="8.2251884"><ele>4.0</ele><time>2026-04-18T14:19:27.299Z</time></trkpt><trkpt lat="44.0845405" lon="8.2250869"><ele>4.0</ele><time>2026-04-18T14:19:28.299Z</time></trkpt><trkpt lat="44.0844266" lon="8.2249876"><ele>4.0</ele><time>2026-04-18T14:19:29.299Z</time></trkpt><trkpt lat="44.0843233" lon="8.2248758"><ele>4.0</ele><time>2026-04-18T14:19:30.299Z</time></trkpt><trkpt lat="44.0842141" lon="8.2247518"><ele>3.6666666666666665</ele><time>2026-04-18T14:19:31.299Z</time></trkpt><trkpt lat="44.0840924" lon="8.2246168"><ele>3.333333333333333</ele><time>2026-04-18T14:19:32.299Z</time></trkpt><trkpt lat="44.0839729" lon="8.2244753"><ele>3.0</ele><time>2026-04-18T14:19:33.298Z</time></trkpt><trkpt lat="44.0838518" lon="8.2243347"><ele>3.0</ele><time>2026-04-18T14:19:34.3Z</time></trkpt><trkpt lat="44.0837407" lon="8.2242034"><ele>3.0</ele><time>2026-04-18T14:19:35.299Z</time></trkpt><trkpt lat="44.0836391" lon="8.224085"><ele>3.0</ele><time>2026-04-18T14:19:36.3Z</time></trkpt><trkpt lat="44.083544" lon="8.2239707"><ele>3.0</ele><time>2026-04-18T14:19:37.299Z</time></trkpt><trkpt lat="44.0834449" lon="8.2238501"><ele>3.0</ele><time>2026-04-18T14:19:38.3Z</time></trkpt><trkpt lat="44.0833398" lon="8.2237201"><ele>3.0</ele><time>2026-04-18T14:19:39.3Z</time></trkpt><trkpt lat="44.0832407" lon="8.2235926"><ele>3.0</ele><time>2026-04-18T14:19:40.3Z</time></trkpt><trkpt lat="44.0831425" lon="8.2234816"><ele>3.0</ele><time>2026-04-18T14:19:41.3Z</time></trkpt><trkpt lat="44.0830508" lon="8.2233776"><ele>3.0</ele><time>2026-04-18T14:19:42.3Z</time></trkpt><trkpt lat="44.082967" lon="8.2232831"><ele>3.0</ele><time>2026-04-18T14:19:43.3Z</time></trkpt><trkpt lat="44.0828897" lon="8.2231954"><ele>3.0</ele><time>2026-04-18T14:19:44.3Z</time></trkpt><trkpt lat="44.0828103" lon="8.2231127"><ele>3.0</ele><time>2026-04-18T14:19:45.3Z</time></trkpt><trkpt lat="44.0827341" lon="8.2230357"><ele>3.0</ele><time>2026-04-18T14:19:46.3Z</time></trkpt><trkpt lat="44.0826552" lon="8.2229629"><ele>3.3333333333333335</ele><time>2026-04-18T14:19:47.3Z</time></trkpt><trkpt lat="44.0825743" lon="8.2228967"><ele>3.666666666666667</ele><time>2026-04-18T14:19:48.3Z</time></trkpt><trkpt lat="44.0825021" lon="8.2228358"><ele>4.0</ele><time>2026-04-18T14:19:49.3Z</time></trkpt><trkpt lat="44.0824352" lon="8.2227737"><ele>4.333333333333334</ele><time>2026-04-18T14:19:50.299Z</time></trkpt><trkpt lat="44.0823737" lon="8.2227183"><ele>4.666666666666667</ele><time>2026-04-18T14:19:51.3Z</time></trkpt><trkpt lat="44.0823191" lon="8.2226699"><ele>5.0</ele><time>2026-04-18T14:19:52.3Z</time></trkpt><trkpt lat="44.082263" lon="8.2226197"><ele>5.0</ele><time>2026-04-18T14:19:53.3Z</time></trkpt><trkpt lat="44.0822059" lon="8.2225603"><ele>5.0</ele><time>2026-04-18T14:19:54.3Z</time></trkpt><trkpt lat="44.0821555" lon="8.2225034"><ele>5.0</ele><time>2026-04-18T14:19:55.3Z</time></trkpt><trkpt lat="44.0820458" lon="8.2224286"><ele>5.0</ele><time>2026-04-18T14:19:57.3Z</time></trkpt><trkpt lat="44.0819839" lon="8.2224093"><ele>5.0</ele><time>2026-04-18T14:19:58.3Z</time></trkpt><trkpt lat="44.0819182" lon="8.222384"><ele>5.0</ele><time>2026-04-18T14:19:59.299Z</time></trkpt><trkpt lat="44.0818492" lon="8.2223498"><ele>5.0</ele><time>2026-04-18T14:20:00.3Z</time></trkpt><trkpt lat="44.0817766" lon="8.2223021"><ele>5.0</ele><time>2026-04-18T14:20:01.299Z</time></trkpt><trkpt lat="44.0816969" lon="8.222242"><ele>5.0</ele><time>2026-04-18T14:20:02.299Z</time></trkpt><trkpt lat="44.0816169" lon="8.2221795"><ele>5.0</ele><time>2026-04-18T14:20:03.3Z</time></trkpt><trkpt lat="44.0815308" lon="8.222116"><ele>5.0</ele><time>2026-04-18T14:20:04.3Z</time></trkpt><trkpt lat="44.0814243" lon="8.2220367"><ele>4.333333333333334</ele><time>2026-04-18T14:20:05.299Z</time></trkpt><trkpt lat="44.0812952" lon="8.2219486"><ele>3.666666666666667</ele><time>2026-04-18T14:20:06.3Z</time></trkpt><trkpt lat="44.0811477" lon="8.2218427"><ele>3.0</ele><time>2026-04-18T14:20:07.299Z</time></trkpt><trkpt lat="44.0809911" lon="8.2217282"><ele>3.0</ele><time>2026-04-18T14:20:08.3Z</time></trkpt><trkpt lat="44.0808251" lon="8.2216157"><ele>3.0</ele><time>2026-04-18T14:20:09.3Z</time></trkpt><trkpt lat="44.0806539" lon="8.2214987"><ele>3.0</ele><time>2026-04-18T14:20:10.299Z</time></trkpt><trkpt lat="44.0804807" lon="8.2213777"><ele>3.0</ele><time>2026-04-18T14:20:11.3Z</time></trkpt><trkpt lat="44.0803054" lon="8.2212614"><ele>3.0</ele><time>2026-04-18T14:20:12.3Z</time></trkpt><trkpt lat="44.0801231" lon="8.221141"><ele>3.0</ele><time>2026-04-18T14:20:13.3Z</time></trkpt><trkpt lat="44.0799397" lon="8.2210216"><ele>3.0</ele><time>2026-04-18T14:20:14.299Z</time></trkpt><trkpt lat="44.0797538" lon="8.2209031"><ele>3.0</ele><time>2026-04-18T14:20:15.3Z</time></trkpt><trkpt lat="44.0795651" lon="8.2207846"><ele>3.0</ele><time>2026-04-18T14:20:16.3Z</time></trkpt><trkpt lat="44.0793707" lon="8.2206642"><ele>3.0</ele><time>2026-04-18T14:20:17.3Z</time></trkpt><trkpt lat="44.0791678" lon="8.2205321"><ele>3.0</ele><time>2026-04-18T14:20:18.299Z</time></trkpt><trkpt lat="44.0789681" lon="8.2203981"><ele>3.0</ele><time>2026-04-18T14:20:19.299Z</time></trkpt><trkpt lat="44.0787701" lon="8.2202598"><ele>3.0</ele><time>2026-04-18T14:20:20.3Z</time></trkpt><trkpt lat="44.0785741" lon="8.2201159"><ele>3.0</ele><time>2026-04-18T14:20:21.3Z</time></trkpt><trkpt lat="44.0783863" lon="8.2199695"><ele>3.0</ele><time>2026-04-18T14:20:22.3Z</time></trkpt><trkpt lat="44.0782026" lon="8.2198248"><ele>2.6666666666666665</ele><time>2026-04-18T14:20:23.3Z</time></trkpt><trkpt lat="44.0780227" lon="8.2196808"><ele>2.333333333333333</ele><time>2026-04-18T14:20:24.299Z</time></trkpt><trkpt lat="44.0778501" lon="8.2195439"><ele>2.0</ele><time>2026-04-18T14:20:25.3Z</time></trkpt><trkpt lat="44.0776842" lon="8.2194126"><ele>2.0</ele><time>2026-04-18T14:20:26.3Z</time></trkpt><trkpt lat="44.0775119" lon="8.2192856"><ele>2.0</ele><time>2026-04-18T14:20:27.3Z</time></trkpt><trkpt lat="44.07734" lon="8.2191625"><ele>2.0</ele><time>2026-04-18T14:20:28.299Z</time></trkpt><trkpt lat="44.0771737" lon="8.2190482"><ele>2.6666666666666665</ele><time>2026-04-18T14:20:29.299Z</time></trkpt><trkpt lat="44.0770063" lon="8.2189499"><ele>3.333333333333333</ele><time>2026-04-18T14:20:30.3Z</time></trkpt><trkpt lat="44.0768375" lon="8.2188609"><ele>4.0</ele><time>2026-04-18T14:20:31.299Z</time></trkpt><trkpt lat="44.0766592" lon="8.2187876"><ele>4.0</ele><time>2026-04-18T14:20:32.3Z</time></trkpt><trkpt lat="44.0764803" lon="8.2187188"><ele>4.0</ele><time>2026-04-18T14:20:33.3Z</time></trkpt><trkpt lat="44.0763035" lon="8.2186492"><ele>4.0</ele><time>2026-04-18T14:20:34.3Z</time></trkpt><trkpt lat="44.0761239" lon="8.2185803"><ele>4.0</ele><time>2026-04-18T14:20:35.3Z</time></trkpt><trkpt lat="44.0759489" lon="8.2185195"><ele>4.0</ele><time>2026-04-18T14:20:36.299Z</time></trkpt><trkpt lat="44.075779" lon="8.2184613"><ele>4.0</ele><time>2026-04-18T14:20:37.3Z</time></trkpt><trkpt lat="44.0756117" lon="8.2183917"><ele>3.6666666666666665</ele><time>2026-04-18T14:20:38.3Z</time></trkpt><trkpt lat="44.0754297" lon="8.2183262"><ele>3.333333333333333</ele><time>2026-04-18T14:20:39.3Z</time></trkpt><trkpt lat="44.0752346" lon="8.2182533"><ele>3.0</ele><time>2026-04-18T14:20:40.299Z</time></trkpt><trkpt lat="44.0750219" lon="8.2181744"><ele>3.0</ele><time>2026-04-18T14:20:41.3Z</time></trkpt><trkpt lat="44.0747994" lon="8.2180909"><ele>3.0</ele><time>2026-04-18T14:20:42.3Z</time></trkpt><trkpt lat="44.0745558" lon="8.2180026"><ele>3.0</ele><time>2026-04-18T14:20:43.3Z</time></trkpt><trkpt lat="44.0743136" lon="8.2179099"><ele>3.0</ele><time>2026-04-18T14:20:44.3Z</time></trkpt><trkpt lat="44.0740761" lon="8.2178118"><ele>4.0</ele><time>2026-04-18T14:20:45.3Z</time></trkpt><trkpt lat="44.0738422" lon="8.217714"><ele>5.0</ele><time>2026-04-18T14:20:46.3Z</time></trkpt><trkpt lat="44.0736071" lon="8.2176251"><ele>5.0</ele><time>2026-04-18T14:20:47.3Z</time></trkpt><trkpt lat="44.0733675" lon="8.2175334"><ele>5.0</ele><time>2026-04-18T14:20:48.299Z</time></trkpt><trkpt lat="44.0731322" lon="8.2174459"><ele>4.0</ele><time>2026-04-18T14:20:49.3Z</time></trkpt><trkpt lat="44.0728938" lon="8.217356"><ele>3.0</ele><time>2026-04-18T14:20:50.3Z</time></trkpt><trkpt lat="44.0726513" lon="8.2172567"><ele>2.5</ele><time>2026-04-18T14:20:51.299Z</time></trkpt><trkpt lat="44.0724036" lon="8.217158"><ele>2.0</ele><time>2026-04-18T14:20:52.299Z</time></trkpt><trkpt lat="44.0721541" lon="8.2170532"><ele>2.0</ele><time>2026-04-18T14:20:53.3Z</time></trkpt><trkpt lat="44.0719091" lon="8.216945"><ele>2.0</ele><time>2026-04-18T14:20:54.299Z</time></trkpt><trkpt lat="44.0716591" lon="8.2168361"><ele>2.0</ele><time>2026-04-18T14:20:55.3Z</time></trkpt><trkpt lat="44.0714106" lon="8.2167285"><ele>2.0</ele><time>2026-04-18T14:20:56.299Z</time></trkpt><trkpt lat="44.0711637" lon="8.2166115"><ele>2.0</ele><time>2026-04-18T14:20:57.299Z</time></trkpt><trkpt lat="44.0709246" lon="8.2164923"><ele>2.0</ele><time>2026-04-18T14:20:58.3Z</time></trkpt><trkpt lat="44.0706816" lon="8.2163733"><ele>2.5</ele><time>2026-04-18T14:20:59.3Z</time></trkpt><trkpt lat="44.0704359" lon="8.2162616"><ele>3.0</ele><time>2026-04-18T14:21:00.3Z</time></trkpt><trkpt lat="44.0701976" lon="8.2161525"><ele>3.0</ele><time>2026-04-18T14:21:01.299Z</time></trkpt><trkpt lat="44.0699647" lon="8.2160426"><ele>3.0</ele><time>2026-04-18T14:21:02.3Z</time></trkpt><trkpt lat="44.0697331" lon="8.215935"><ele>2.5</ele><time>2026-04-18T14:21:03.299Z</time></trkpt><trkpt lat="44.0695043" lon="8.2158193"><ele>2.0</ele><time>2026-04-18T14:21:04.3Z</time></trkpt><trkpt lat="44.0692745" lon="8.2157085"><ele>2.5</ele><time>2026-04-18T14:21:05.299Z</time></trkpt><trkpt lat="44.0690524" lon="8.2155875"><ele>3.0</ele><time>2026-04-18T14:21:06.299Z</time></trkpt><trkpt lat="44.068833" lon="8.215458"><ele>3.0</ele><time>2026-04-18T14:21:07.3Z</time></trkpt><trkpt lat="44.0686126" lon="8.2153222"><ele>3.0</ele><time>2026-04-18T14:21:08.3Z</time></trkpt><trkpt lat="44.0683919" lon="8.2151714"><ele>2.5</ele><time>2026-04-18T14:21:09.3Z</time></trkpt><trkpt lat="44.068164" lon="8.2150201"><ele>2.0</ele><time>2026-04-18T14:21:10.3Z</time></trkpt><trkpt lat="44.0679332" lon="8.2148809"><ele>1.5</ele><time>2026-04-18T14:21:11.3Z</time></trkpt><trkpt lat="44.0676981" lon="8.2147573"><ele>1.0</ele><time>2026-04-18T14:21:12.299Z</time></trkpt><trkpt lat="44.0674672" lon="8.2146477"><ele>1.0</ele><time>2026-04-18T14:21:13.3Z</time></trkpt><trkpt lat="44.0672422" lon="8.2145437"><ele>1.0</ele><time>2026-04-18T14:21:14.3Z</time></trkpt><trkpt lat="44.0670355" lon="8.2144429"><ele>1.0</ele><time>2026-04-18T14:21:15.3Z</time></trkpt><trkpt lat="44.0668285" lon="8.2143485"><ele>1.0</ele><time>2026-04-18T14:21:16.3Z</time></trkpt><trkpt lat="44.0666021" lon="8.214262"><ele>2.0</ele><time>2026-04-18T14:21:17.3Z</time></trkpt><trkpt lat="44.0663551" lon="8.2141676"><ele>3.0</ele><time>2026-04-18T14:21:18.3Z</time></trkpt><trkpt lat="44.066106" lon="8.214051"><ele>3.0</ele><time>2026-04-18T14:21:19.3Z</time></trkpt><trkpt lat="44.0658661" lon="8.2139267"><ele>3.0</ele><time>2026-04-18T14:21:20.3Z</time></trkpt><trkpt lat="44.0656284" lon="8.2138028"><ele>3.0</ele><time>2026-04-18T14:21:21.3Z</time></trkpt><trkpt lat="44.0654025" lon="8.213697"><ele>3.0</ele><time>2026-04-18T14:21:22.3Z</time></trkpt><trkpt lat="44.0651939" lon="8.2136128"><ele>3.0</ele><time>2026-04-18T14:21:23.3Z</time></trkpt><trkpt lat="44.0649815" lon="8.2135227"><ele>3.0</ele><time>2026-04-18T14:21:24.299Z</time></trkpt><trkpt lat="44.0647693" lon="8.2134159"><ele>3.0</ele><time>2026-04-18T14:21:25.301Z</time></trkpt><trkpt lat="44.0645441" lon="8.2133081"><ele>3.0</ele><time>2026-04-18T14:21:26.3Z</time></trkpt><trkpt lat="44.0643158" lon="8.2132014"><ele>3.0</ele><time>2026-04-18T14:21:27.301Z</time></trkpt><trkpt lat="44.0640756" lon="8.2130957"><ele>3.5</ele><time>2026-04-18T14:21:28.301Z</time></trkpt><trkpt lat="44.0638422" lon="8.212987"><ele>4.0</ele><time>2026-04-18T14:21:29.301Z</time></trkpt><trkpt lat="44.0636016" lon="8.212882"><ele>4.0</ele><time>2026-04-18T14:21:30.301Z</time></trkpt><trkpt lat="44.0633612" lon="8.2127767"><ele>4.0</ele><time>2026-04-18T14:21:31.301Z</time></trkpt><trkpt lat="44.0631191" lon="8.2126694"><ele>3.5</ele><time>2026-04-18T14:21:32.301Z</time></trkpt><trkpt lat="44.0628723" lon="8.2125582"><ele>3.0</ele><time>2026-04-18T14:21:33.301Z</time></trkpt><trkpt lat="44.0626246" lon="8.2124492"><ele>3.0</ele><time>2026-04-18T14:21:34.301Z</time></trkpt><trkpt lat="44.0623797" lon="8.2123433"><ele>3.0</ele><time>2026-04-18T14:21:35.3Z</time></trkpt><trkpt lat="44.0621328" lon="8.2122369"><ele>3.0</ele><time>2026-04-18T14:21:36.3Z</time></trkpt><trkpt lat="44.0618824" lon="8.2121282"><ele>3.0</ele><time>2026-04-18T14:21:37.301Z</time></trkpt><trkpt lat="44.0616316" lon="8.212024"><ele>3.5</ele><time>2026-04-18T14:21:38.301Z</time></trkpt><trkpt lat="44.0613845" lon="8.2119204"><ele>4.0</ele><time>2026-04-18T14:21:39.3Z</time></trkpt><trkpt lat="44.0611376" lon="8.2118288"><ele>4.0</ele><time>2026-04-18T14:21:40.3Z</time></trkpt><trkpt lat="44.0608896" lon="8.2117422"><ele>4.0</ele><time>2026-04-18T14:21:41.301Z</time></trkpt><trkpt lat="44.0606394" lon="8.2116622"><ele>3.5</ele><time>2026-04-18T14:21:42.301Z</time></trkpt><trkpt lat="44.0603903" lon="8.2115809"><ele>3.0</ele><time>2026-04-18T14:21:43.301Z</time></trkpt><trkpt lat="44.0601448" lon="8.2115157"><ele>3.5</ele><time>2026-04-18T14:21:44.301Z</time></trkpt><trkpt lat="44.0599005" lon="8.2114464"><ele>4.0</ele><time>2026-04-18T14:21:45.301Z</time></trkpt><trkpt lat="44.0596641" lon="8.2113842"><ele>4.0</ele><time>2026-04-18T14:21:46.301Z</time></trkpt><trkpt lat="44.0594326" lon="8.2113179"><ele>4.0</ele><time>2026-04-18T14:21:47.301Z</time></trkpt><trkpt lat="44.0592139" lon="8.2112542"><ele>3.6666666666666665</ele><time>2026-04-18T14:21:48.3Z</time></trkpt><trkpt lat="44.0590131" lon="8.211196"><ele>3.333333333333333</ele><time>2026-04-18T14:21:49.301Z</time></trkpt><trkpt lat="44.0588256" lon="8.2111391"><ele>3.0</ele><time>2026-04-18T14:21:50.301Z</time></trkpt><trkpt lat="44.0586581" lon="8.2110957"><ele>3.0</ele><time>2026-04-18T14:21:51.301Z</time></trkpt><trkpt lat="44.0585027" lon="8.2110489"><ele>3.0</ele><time>2026-04-18T14:21:52.301Z</time></trkpt><trkpt lat="44.0583627" lon="8.2110113"><ele>3.0</ele><time>2026-04-18T14:21:53.301Z</time></trkpt><trkpt lat="44.0582389" lon="8.210974"><ele>3.0</ele><time>2026-04-18T14:21:54.3Z</time></trkpt><trkpt lat="44.0581342" lon="8.2109429"><ele>3.1666666666666665</ele><time>2026-04-18T14:21:55.301Z</time></trkpt><trkpt lat="44.0580363" lon="8.2109144"><ele>3.333333333333333</ele><time>2026-04-18T14:21:56.301Z</time></trkpt><trkpt lat="44.0579541" lon="8.210883"><ele>3.5</ele><time>2026-04-18T14:21:57.3Z</time></trkpt><trkpt lat="44.057888" lon="8.2108536"><ele>3.6666666666666665</ele><time>2026-04-18T14:21:58.301Z</time></trkpt><trkpt lat="44.0578029" lon="8.2108098"><ele>3.833333333333333</ele><time>2026-04-18T14:22:00.301Z</time></trkpt><trkpt lat="44.0577357" lon="8.2107248"><ele>4.0</ele><time>2026-04-18T14:22:04.301Z</time></trkpt><trkpt lat="44.0577031" lon="8.21058"><ele>4.0</ele><time>2026-04-18T14:22:06.301Z</time></trkpt><trkpt lat="44.0576875" lon="8.2104847"><ele>4.0</ele><time>2026-04-18T14:22:08.301Z</time></trkpt><trkpt lat="44.0576392" lon="8.2104089"><ele>4.0</ele><time>2026-04-18T14:22:10.301Z</time></trkpt><trkpt lat="44.0575854" lon="8.2104825"><ele>4.0</ele><time>2026-04-18T14:22:12.3Z</time></trkpt><trkpt lat="44.0574936" lon="8.2105702"><ele>4.0</ele><time>2026-04-18T14:22:14.3Z</time></trkpt><trkpt lat="44.0573653" lon="8.210611"><ele>4.0</ele><time>2026-04-18T14:22:16.301Z</time></trkpt><trkpt lat="44.057271" lon="8.2105919"><ele>4.0</ele><time>2026-04-18T14:22:17.301Z</time></trkpt><trkpt lat="44.057161" lon="8.2105449"><ele>4.0</ele><time>2026-04-18T14:22:18.301Z</time></trkpt><trkpt lat="44.0570301" lon="8.2104741"><ele>4.0</ele><time>2026-04-18T14:22:19.301Z</time></trkpt><trkpt lat="44.0568829" lon="8.2103901"><ele>4.0</ele><time>2026-04-18T14:22:20.301Z</time></trkpt><trkpt lat="44.0567237" lon="8.2102975"><ele>4.0</ele><time>2026-04-18T14:22:21.301Z</time></trkpt><trkpt lat="44.0565519" lon="8.2102048"><ele>4.0</ele><time>2026-04-18T14:22:22.301Z</time></trkpt><trkpt lat="44.0563759" lon="8.2101115"><ele>4.0</ele><time>2026-04-18T14:22:23.3Z</time></trkpt><trkpt lat="44.0561926" lon="8.2100126"><ele>4.0</ele><time>2026-04-18T14:22:24.3Z</time></trkpt><trkpt lat="44.0560055" lon="8.2099081"><ele>4.0</ele><time>2026-04-18T14:22:25.301Z</time></trkpt><trkpt lat="44.0558179" lon="8.2098088"><ele>4.0</ele><time>2026-04-18T14:22:26.3Z</time></trkpt><trkpt lat="44.0556245" lon="8.2097042"><ele>4.0</ele><time>2026-04-18T14:22:27.3Z</time></trkpt><trkpt lat="44.0554248" lon="8.2095924"><ele>4.0</ele><time>2026-04-18T14:22:28.3Z</time></trkpt><trkpt lat="44.0552216" lon="8.2094783"><ele>4.0</ele><time>2026-04-18T14:22:29.301Z</time></trkpt><trkpt lat="44.055015" lon="8.2093608"><ele>4.0</ele><time>2026-04-18T14:22:30.301Z</time></trkpt><trkpt lat="44.0548061" lon="8.2092441"><ele>4.0</ele><time>2026-04-18T14:22:31.301Z</time></trkpt><trkpt lat="44.0545942" lon="8.2091315"><ele>4.5</ele><time>2026-04-18T14:22:32.301Z</time></trkpt><trkpt lat="44.0543846" lon="8.2090196"><ele>5.0</ele><time>2026-04-18T14:22:33.301Z</time></trkpt><trkpt lat="44.0541743" lon="8.2089026"><ele>5.5</ele><time>2026-04-18T14:22:34.301Z</time></trkpt><trkpt lat="44.053966" lon="8.2087875"><ele>6.0</ele><time>2026-04-18T14:22:35.301Z</time></trkpt><trkpt lat="44.0537566" lon="8.2086688"><ele>6.0</ele><time>2026-04-18T14:22:36.3Z</time></trkpt><trkpt lat="44.0535476" lon="8.2085537"><ele>6.0</ele><time>2026-04-18T14:22:37.3Z</time></trkpt><trkpt lat="44.0533302" lon="8.208428"><ele>6.0</ele><time>2026-04-18T14:22:38.3Z</time></trkpt><trkpt lat="44.0531039" lon="8.2082984"><ele>6.0</ele><time>2026-04-18T14:22:39.301Z</time></trkpt><trkpt lat="44.0528698" lon="8.2081674"><ele>6.5</ele><time>2026-04-18T14:22:40.3Z</time></trkpt><trkpt lat="44.0526352" lon="8.2080436"><ele>7.0</ele><time>2026-04-18T14:22:41.301Z</time></trkpt><trkpt lat="44.0523976" lon="8.2079196"><ele>6.0</ele><time>2026-04-18T14:22:42.301Z</time></trkpt><trkpt lat="44.052159" lon="8.2078052"><ele>5.0</ele><time>2026-04-18T14:22:43.301Z</time></trkpt><trkpt lat="44.0519111" lon="8.2076964"><ele>5.0</ele><time>2026-04-18T14:22:44.301Z</time></trkpt><trkpt lat="44.0516639" lon="8.2075964"><ele>5.0</ele><time>2026-04-18T14:22:45.301Z</time></trkpt><trkpt lat="44.0514142" lon="8.2074993"><ele>3.5</ele><time>2026-04-18T14:22:46.301Z</time></trkpt><trkpt lat="44.0511677" lon="8.2074038"><ele>2.0</ele><time>2026-04-18T14:22:47.301Z</time></trkpt><trkpt lat="44.0509269" lon="8.2073098"><ele>3.5</ele><time>2026-04-18T14:22:48.301Z</time></trkpt><trkpt lat="44.050691" lon="8.2072221"><ele>5.0</ele><time>2026-04-18T14:22:49.301Z</time></trkpt><trkpt lat="44.0504595" lon="8.2071364"><ele>5.0</ele><time>2026-04-18T14:22:50.3Z</time></trkpt><trkpt lat="44.0502385" lon="8.2070502"><ele>5.0</ele><time>2026-04-18T14:22:51.301Z</time></trkpt><trkpt lat="44.0500212" lon="8.2069739"><ele>5.333333333333334</ele><time>2026-04-18T14:22:52.301Z</time></trkpt><trkpt lat="44.0498156" lon="8.206899"><ele>5.666666666666667</ele><time>2026-04-18T14:22:53.301Z</time></trkpt><trkpt lat="44.0496199" lon="8.2068322"><ele>6.0</ele><time>2026-04-18T14:22:54.3Z</time></trkpt><trkpt lat="44.0494294" lon="8.2067823"><ele>6.0</ele><time>2026-04-18T14:22:55.301Z</time></trkpt><trkpt lat="44.0492514" lon="8.2067413"><ele>6.0</ele><time>2026-04-18T14:22:56.301Z</time></trkpt><trkpt lat="44.0490718" lon="8.2067128"><ele>6.0</ele><time>2026-04-18T14:22:57.301Z</time></trkpt><trkpt lat="44.0488803" lon="8.2066963"><ele>5.333333333333333</ele><time>2026-04-18T14:22:58.3Z</time></trkpt><trkpt lat="44.0486737" lon="8.2066874"><ele>4.666666666666666</ele><time>2026-04-18T14:22:59.301Z</time></trkpt><trkpt lat="44.0484532" lon="8.2066787"><ele>4.0</ele><time>2026-04-18T14:23:00.301Z</time></trkpt><trkpt lat="44.0482143" lon="8.2066813"><ele>3.5</ele><time>2026-04-18T14:23:01.301Z</time></trkpt><trkpt lat="44.0479695" lon="8.2066982"><ele>3.0</ele><time>2026-04-18T14:23:02.301Z</time></trkpt><trkpt lat="44.0477299" lon="8.2067263"><ele>3.0</ele><time>2026-04-18T14:23:03.3Z</time></trkpt><trkpt lat="44.0474972" lon="8.2067607"><ele>3.0</ele><time>2026-04-18T14:23:04.301Z</time></trkpt><trkpt lat="44.0472599" lon="8.2067884"><ele>4.0</ele><time>2026-04-18T14:23:05.3Z</time></trkpt><trkpt lat="44.0470209" lon="8.2068238"><ele>5.0</ele><time>2026-04-18T14:23:06.301Z</time></trkpt><trkpt lat="44.0467833" lon="8.2068589"><ele>4.5</ele><time>2026-04-18T14:23:07.301Z</time></trkpt><trkpt lat="44.046543" lon="8.2068957"><ele>4.0</ele><time>2026-04-18T14:23:08.3Z</time></trkpt><trkpt lat="44.0463071" lon="8.206923"><ele>4.0</ele><time>2026-04-18T14:23:09.301Z</time></trkpt><trkpt lat="44.0460704" lon="8.2069597"><ele>4.0</ele><time>2026-04-18T14:23:10.3Z</time></trkpt><trkpt lat="44.0458364" lon="8.2069988"><ele>4.5</ele><time>2026-04-18T14:23:11.301Z</time></trkpt><trkpt lat="44.0455935" lon="8.2070229"><ele>5.0</ele><time>2026-04-18T14:23:12.301Z</time></trkpt><trkpt lat="44.045347" lon="8.2070572"><ele>5.0</ele><time>2026-04-18T14:23:13.301Z</time></trkpt><trkpt lat="44.0451065" lon="8.2070936"><ele>5.0</ele><time>2026-04-18T14:23:14.301Z</time></trkpt><trkpt lat="44.0448683" lon="8.2071246"><ele>18.5</ele><time>2026-04-18T14:23:15.3Z</time></trkpt><trkpt lat="44.0446331" lon="8.2071555"><ele>32.0</ele><time>2026-04-18T14:23:16.301Z</time></trkpt><trkpt lat="44.0444028" lon="8.2071857"><ele>32.0</ele><time>2026-04-18T14:23:17.302Z</time></trkpt><trkpt lat="44.0441835" lon="8.2072182"><ele>32.0</ele><time>2026-04-18T14:23:18.302Z</time></trkpt><trkpt lat="44.043967" lon="8.2072501"><ele>32.0</ele><time>2026-04-18T14:23:19.301Z</time></trkpt><trkpt lat="44.0437548" lon="8.2072764"><ele>24.0</ele><time>2026-04-18T14:23:20.302Z</time></trkpt><trkpt lat="44.0395001" lon="8.2078892"><ele>24.0</ele><time>2026-04-18T14:23:44.302Z</time></trkpt><trkpt lat="44.0393437" lon="8.2078846"><ele>24.0</ele><time>2026-04-18T14:23:45.302Z</time></trkpt><trkpt lat="44.0391385" lon="8.2079183"><ele>24.0</ele><time>2026-04-18T14:23:47.302Z</time></trkpt><trkpt lat="44.0389826" lon="8.2079217"><ele>22.0</ele><time>2026-04-18T14:23:48.301Z</time></trkpt><trkpt lat="44.0388299" lon="8.2079253"><ele>20.0</ele><time>2026-04-18T14:23:49.301Z</time></trkpt><trkpt lat="44.0386777" lon="8.2079114"><ele>18.0</ele><time>2026-04-18T14:23:50.302Z</time></trkpt><trkpt lat="44.0385253" lon="8.2078929"><ele>18.0</ele><time>2026-04-18T14:23:51.302Z</time></trkpt><trkpt lat="44.0383693" lon="8.2078804"><ele>18.0</ele><time>2026-04-18T14:23:52.302Z</time></trkpt><trkpt lat="44.0382129" lon="8.2078589"><ele>18.0</ele><time>2026-04-18T14:23:53.302Z</time></trkpt><trkpt lat="44.0380505" lon="8.2078541"><ele>19.0</ele><time>2026-04-18T14:23:54.302Z</time></trkpt><trkpt lat="44.0378704" lon="8.2078487"><ele>20.0</ele><time>2026-04-18T14:23:55.302Z</time></trkpt><trkpt lat="44.0376698" lon="8.2078422"><ele>21.0</ele><time>2026-04-18T14:23:56.301Z</time></trkpt><trkpt lat="44.0374585" lon="8.2078224"><ele>21.0</ele><time>2026-04-18T14:23:57.301Z</time></trkpt><trkpt lat="44.0372499" lon="8.2078088"><ele>21.0</ele><time>2026-04-18T14:23:58.302Z</time></trkpt><trkpt lat="44.0370692" lon="8.2078006"><ele>21.0</ele><time>2026-04-18T14:23:59.302Z</time></trkpt><trkpt lat="44.0369042" lon="8.2077857"><ele>21.0</ele><time>2026-04-18T14:24:00.302Z</time></trkpt><trkpt lat="44.0367459" lon="8.2077804"><ele>21.0</ele><time>2026-04-18T14:24:01.302Z</time></trkpt><trkpt lat="44.0366006" lon="8.2077706"><ele>21.0</ele><time>2026-04-18T14:24:02.301Z</time></trkpt><trkpt lat="44.0364683" lon="8.2077424"><ele>21.0</ele><time>2026-04-18T14:24:03.302Z</time></trkpt><trkpt lat="44.0363409" lon="8.207697"><ele>17.75</ele><time>2026-04-18T14:24:04.302Z</time></trkpt><trkpt lat="44.0362229" lon="8.2076279"><ele>14.5</ele><time>2026-04-18T14:24:05.302Z</time></trkpt><trkpt lat="44.0361031" lon="8.2075599"><ele>11.25</ele><time>2026-04-18T14:24:06.301Z</time></trkpt><trkpt lat="44.0359806" lon="8.2075184"><ele>8.0</ele><time>2026-04-18T14:24:07.302Z</time></trkpt><trkpt lat="44.0358466" lon="8.2075123"><ele>9.5</ele><time>2026-04-18T14:24:08.302Z</time></trkpt><trkpt lat="44.0357146" lon="8.2075334"><ele>11.0</ele><time>2026-04-18T14:24:09.301Z</time></trkpt><trkpt lat="44.0355817" lon="8.2075485"><ele>12.5</ele><time>2026-04-18T14:24:10.302Z</time></trkpt><trkpt lat="44.0354536" lon="8.2075591"><ele>14.0</ele><time>2026-04-18T14:24:11.302Z</time></trkpt><trkpt lat="44.0353261" lon="8.2075674"><ele>14.0</ele><time>2026-04-18T14:24:12.302Z</time></trkpt><trkpt lat="44.0352005" lon="8.2075761"><ele>14.0</ele><time>2026-04-18T14:24:13.302Z</time></trkpt><trkpt lat="44.0350813" lon="8.2075833"><ele>14.0</ele><time>2026-04-18T14:24:14.301Z</time></trkpt><trkpt lat="44.0349642" lon="8.2075898"><ele>14.0</ele><time>2026-04-18T14:24:15.301Z</time></trkpt><trkpt lat="44.0348482" lon="8.2075932"><ele>14.25</ele><time>2026-04-18T14:24:16.302Z</time></trkpt><trkpt lat="44.0347332" lon="8.2075797"><ele>14.5</ele><time>2026-04-18T14:24:17.302Z</time></trkpt><trkpt lat="44.0346165" lon="8.2075489"><ele>14.75</ele><time>2026-04-18T14:24:18.301Z</time></trkpt><trkpt lat="44.0344988" lon="8.2074982"><ele>15.0</ele><time>2026-04-18T14:24:19.302Z</time></trkpt><trkpt lat="44.034376" lon="8.2074273"><ele>15.0</ele><time>2026-04-18T14:24:20.301Z</time></trkpt><trkpt lat="44.0342507" lon="8.2073443"><ele>15.0</ele><time>2026-04-18T14:24:21.302Z</time></trkpt><trkpt lat="44.0341248" lon="8.2072521"><ele>15.0</ele><time>2026-04-18T14:24:22.302Z</time></trkpt><trkpt lat="44.0340094" lon="8.2071734"><ele>15.0</ele><time>2026-04-18T14:24:23.301Z</time></trkpt><trkpt lat="44.0338988" lon="8.207107"><ele>16.75</ele><time>2026-04-18T14:24:24.301Z</time></trkpt><trkpt lat="44.0337826" lon="8.2070362"><ele>18.5</ele><time>2026-04-18T14:24:25.301Z</time></trkpt><trkpt lat="44.0336719" lon="8.2069632"><ele>20.25</ele><time>2026-04-18T14:24:26.302Z</time></trkpt><trkpt lat="44.0335635" lon="8.206889"><ele>22.0</ele><time>2026-04-18T14:24:27.302Z</time></trkpt><trkpt lat="44.0334502" lon="8.2068197"><ele>22.0</ele><time>2026-04-18T14:24:28.302Z</time></trkpt><trkpt lat="44.033312" lon="8.206742"><ele>22.0</ele><time>2026-04-18T14:24:29.302Z</time></trkpt><trkpt lat="44.0331537" lon="8.206646"><ele>22.0</ele><time>2026-04-18T14:24:30.302Z</time></trkpt><trkpt lat="44.0329811" lon="8.2065302"><ele>21.666666666666664</ele><time>2026-04-18T14:24:31.301Z</time></trkpt><trkpt lat="44.0328141" lon="8.2064047"><ele>21.333333333333332</ele><time>2026-04-18T14:24:32.301Z</time></trkpt><trkpt lat="44.0326508" lon="8.2062803"><ele>21.0</ele><time>2026-04-18T14:24:33.302Z</time></trkpt><trkpt lat="44.0325109" lon="8.2061342"><ele>15.0</ele><time>2026-04-18T14:24:34.302Z</time></trkpt><trkpt lat="44.0324045" lon="8.2059512"><ele>9.0</ele><time>2026-04-18T14:24:35.302Z</time></trkpt><trkpt lat="44.032328" lon="8.2057337"><ele>3.0</ele><time>2026-04-18T14:24:36.301Z</time></trkpt><trkpt lat="44.0322869" lon="8.2054932"><ele>3.0</ele><time>2026-04-18T14:24:37.302Z</time></trkpt><trkpt lat="44.0322916" lon="8.2052396"><ele>3.0</ele><time>2026-04-18T14:24:38.302Z</time></trkpt><trkpt lat="44.0323364" lon="8.2049973"><ele>3.0</ele><time>2026-04-18T14:24:39.302Z</time></trkpt><trkpt lat="44.0323984" lon="8.2047777"><ele>3.0</ele><time>2026-04-18T14:24:40.302Z</time></trkpt><trkpt lat="44.0324333" lon="8.2045562"><ele>3.0</ele><time>2026-04-18T14:24:41.302Z</time></trkpt><trkpt lat="44.0324344" lon="8.2043326"><ele>3.0</ele><time>2026-04-18T14:24:42.301Z</time></trkpt><trkpt lat="44.032406" lon="8.2041134"><ele>4.666666666666666</ele><time>2026-04-18T14:24:43.302Z</time></trkpt><trkpt lat="44.0323468" lon="8.2038912"><ele>6.333333333333333</ele><time>2026-04-18T14:24:44.301Z</time></trkpt><trkpt lat="44.0322504" lon="8.2036926"><ele>8.0</ele><time>2026-04-18T14:24:45.302Z</time></trkpt><trkpt lat="44.0321444" lon="8.2035038"><ele>8.0</ele><time>2026-04-18T14:24:46.302Z</time></trkpt><trkpt lat="44.0320431" lon="8.2033226"><ele>8.0</ele><time>2026-04-18T14:24:47.302Z</time></trkpt><trkpt lat="44.0319365" lon="8.2031531"><ele>8.0</ele><time>2026-04-18T14:24:48.302Z</time></trkpt><trkpt lat="44.0318261" lon="8.2029985"><ele>7.666666666666666</ele><time>2026-04-18T14:24:49.301Z</time></trkpt><trkpt lat="44.0317001" lon="8.20285"><ele>7.333333333333334</ele><time>2026-04-18T14:24:50.302Z</time></trkpt><trkpt lat="44.0315717" lon="8.2027109"><ele>7.0</ele><time>2026-04-18T14:24:51.302Z</time></trkpt><trkpt lat="44.0314541" lon="8.2025765"><ele>7.0</ele><time>2026-04-18T14:24:52.302Z</time></trkpt><trkpt lat="44.0313446" lon="8.2024488"><ele>7.0</ele><time>2026-04-18T14:24:53.302Z</time></trkpt><trkpt lat="44.0312428" lon="8.2023288"><ele>7.0</ele><time>2026-04-18T14:24:54.302Z</time></trkpt><trkpt lat="44.0311473" lon="8.2022191"><ele>7.0</ele><time>2026-04-18T14:24:55.302Z</time></trkpt><trkpt lat="44.0310439" lon="8.2021197"><ele>7.75</ele><time>2026-04-18T14:24:56.302Z</time></trkpt><trkpt lat="44.0309357" lon="8.2020176"><ele>8.5</ele><time>2026-04-18T14:24:57.302Z</time></trkpt><trkpt lat="44.0308326" lon="8.201922"><ele>9.25</ele><time>2026-04-18T14:24:58.302Z</time></trkpt><trkpt lat="44.0307137" lon="8.2018279"><ele>10.0</ele><time>2026-04-18T14:24:59.301Z</time></trkpt><trkpt lat="44.0305714" lon="8.201716"><ele>10.0</ele><time>2026-04-18T14:25:00.302Z</time></trkpt><trkpt lat="44.0304062" lon="8.2015823"><ele>10.0</ele><time>2026-04-18T14:25:01.302Z</time></trkpt><trkpt lat="44.0302201" lon="8.2014342"><ele>10.0</ele><time>2026-04-18T14:25:02.302Z</time></trkpt><trkpt lat="44.0300381" lon="8.2012781"><ele>13.0</ele><time>2026-04-18T14:25:03.302Z</time></trkpt><trkpt lat="44.0298611" lon="8.201126"><ele>16.0</ele><time>2026-04-18T14:25:04.302Z</time></trkpt><trkpt lat="44.0296932" lon="8.2009873"><ele>19.0</ele><time>2026-04-18T14:25:05.301Z</time></trkpt><trkpt lat="44.0295333" lon="8.2008629"><ele>19.0</ele><time>2026-04-18T14:25:06.303Z</time></trkpt><trkpt lat="44.0293805" lon="8.2007502"><ele>19.0</ele><time>2026-04-18T14:25:07.303Z</time></trkpt><trkpt lat="44.029249" lon="8.2006494"><ele>19.0</ele><time>2026-04-18T14:25:08.302Z</time></trkpt><trkpt lat="44.0291185" lon="8.2005611"><ele>21.666666666666664</ele><time>2026-04-18T14:25:09.302Z</time></trkpt><trkpt lat="44.0289802" lon="8.2004681"><ele>24.333333333333332</ele><time>2026-04-18T14:25:10.303Z</time></trkpt><trkpt lat="44.0288224" lon="8.2003646"><ele>27.0</ele><time>2026-04-18T14:25:11.303Z</time></trkpt><trkpt lat="44.0286532" lon="8.2002403"><ele>27.0</ele><time>2026-04-18T14:25:12.303Z</time></trkpt><trkpt lat="44.028493" lon="8.2000992"><ele>27.0</ele><time>2026-04-18T14:25:13.303Z</time></trkpt><trkpt lat="44.0283423" lon="8.1999474"><ele>27.0</ele><time>2026-04-18T14:25:14.302Z</time></trkpt><trkpt lat="44.0282095" lon="8.1997904"><ele>25.666666666666668</ele><time>2026-04-18T14:25:15.303Z</time></trkpt><trkpt lat="44.0280822" lon="8.1996257"><ele>24.333333333333336</ele><time>2026-04-18T14:25:16.302Z</time></trkpt><trkpt lat="44.0279597" lon="8.1994535"><ele>23.0</ele><time>2026-04-18T14:25:17.303Z</time></trkpt><trkpt lat="44.0278271" lon="8.1992995"><ele>23.0</ele><time>2026-04-18T14:25:18.303Z</time></trkpt><trkpt lat="44.0276688" lon="8.199183"><ele>23.0</ele><time>2026-04-18T14:25:19.303Z</time></trkpt><trkpt lat="44.027497" lon="8.199106"><ele>23.0</ele><time>2026-04-18T14:25:20.303Z</time></trkpt><trkpt lat="44.0273308" lon="8.1990218"><ele>23.666666666666668</ele><time>2026-04-18T14:25:21.303Z</time></trkpt><trkpt lat="44.0271749" lon="8.1989121"><ele>24.333333333333336</ele><time>2026-04-18T14:25:22.303Z</time></trkpt><trkpt lat="44.0270253" lon="8.1987744"><ele>25.0</ele><time>2026-04-18T14:25:23.302Z</time></trkpt><trkpt lat="44.0268719" lon="8.1986274"><ele>25.0</ele><time>2026-04-18T14:25:24.303Z</time></trkpt><trkpt lat="44.0267215" lon="8.1984718"><ele>25.0</ele><time>2026-04-18T14:25:25.303Z</time></trkpt><trkpt lat="44.0265837" lon="8.1983029"><ele>25.0</ele><time>2026-04-18T14:25:26.303Z</time></trkpt><trkpt lat="44.0264579" lon="8.1981253"><ele>27.666666666666668</ele><time>2026-04-18T14:25:27.303Z</time></trkpt><trkpt lat="44.0263439" lon="8.1979512"><ele>30.333333333333336</ele><time>2026-04-18T14:25:28.303Z</time></trkpt><trkpt lat="44.0262252" lon="8.1978005"><ele>33.0</ele><time>2026-04-18T14:25:29.302Z</time></trkpt><trkpt lat="44.0260941" lon="8.1976803"><ele>33.0</ele><time>2026-04-18T14:25:30.303Z</time></trkpt><trkpt lat="44.0259471" lon="8.1975916"><ele>33.0</ele><time>2026-04-18T14:25:31.303Z</time></trkpt><trkpt lat="44.0258092" lon="8.1975074"><ele>33.0</ele><time>2026-04-18T14:25:32.303Z</time></trkpt><trkpt lat="44.0256923" lon="8.1973937"><ele>31.0</ele><time>2026-04-18T14:25:33.303Z</time></trkpt><trkpt lat="44.0256026" lon="8.1972413"><ele>29.0</ele><time>2026-04-18T14:25:34.303Z</time></trkpt><trkpt lat="44.0255353" lon="8.1970651"><ele>27.0</ele><time>2026-04-18T14:25:35.303Z</time></trkpt><trkpt lat="44.0254598" lon="8.1969097"><ele>25.0</ele><time>2026-04-18T14:25:36.303Z</time></trkpt><trkpt lat="44.0253655" lon="8.1967743"><ele>25.0</ele><time>2026-04-18T14:25:37.303Z</time></trkpt><trkpt lat="44.0252633" lon="8.1966382"><ele>25.0</ele><time>2026-04-18T14:25:38.303Z</time></trkpt><trkpt lat="44.0251905" lon="8.1964538"><ele>25.0</ele><time>2026-04-18T14:25:39.302Z</time></trkpt><trkpt lat="44.0251382" lon="8.1962542"><ele>25.0</ele><time>2026-04-18T14:25:40.303Z</time></trkpt><trkpt lat="44.0251039" lon="8.1960594"><ele>23.25</ele><time>2026-04-18T14:25:41.303Z</time></trkpt><trkpt lat="44.0250599" lon="8.1958758"><ele>21.5</ele><time>2026-04-18T14:25:42.303Z</time></trkpt><trkpt lat="44.024992" lon="8.1957307"><ele>19.75</ele><time>2026-04-18T14:25:43.303Z</time></trkpt><trkpt lat="44.024905" lon="8.1956137"><ele>18.0</ele><time>2026-04-18T14:25:44.303Z</time></trkpt><trkpt lat="44.0248143" lon="8.1954884"><ele>18.0</ele><time>2026-04-18T14:25:45.303Z</time></trkpt><trkpt lat="44.0247347" lon="8.1953455"><ele>18.0</ele><time>2026-04-18T14:25:46.303Z</time></trkpt><trkpt lat="44.0246906" lon="8.1951654"><ele>18.0</ele><time>2026-04-18T14:25:47.303Z</time></trkpt><trkpt lat="44.0246499" lon="8.1949882"><ele>18.0</ele><time>2026-04-18T14:25:48.303Z</time></trkpt><trkpt lat="44.0245782" lon="8.1948138"><ele>27.333333333333336</ele><time>2026-04-18T14:25:49.303Z</time></trkpt><trkpt lat="44.024487" lon="8.1946496"><ele>36.66666666666667</ele><time>2026-04-18T14:25:50.303Z</time></trkpt><trkpt lat="44.0243543" lon="8.1944875"><ele>46.0</ele><time>2026-04-18T14:25:51.303Z</time></trkpt><trkpt lat="44.0241917" lon="8.1943282"><ele>45.0</ele><time>2026-04-18T14:25:52.302Z</time></trkpt><trkpt lat="44.0240206" lon="8.1941445"><ele>44.0</ele><time>2026-04-18T14:25:53.302Z</time></trkpt><trkpt lat="44.0238412" lon="8.1939409"><ele>43.0</ele><time>2026-04-18T14:25:54.302Z</time></trkpt><trkpt lat="44.0236592" lon="8.193731"><ele>43.0</ele><time>2026-04-18T14:25:55.303Z</time></trkpt><trkpt lat="44.0234817" lon="8.1935504"><ele>43.0</ele><time>2026-04-18T14:25:56.302Z</time></trkpt><trkpt lat="44.0233059" lon="8.193409"><ele>43.0</ele><time>2026-04-18T14:25:57.302Z</time></trkpt><trkpt lat="44.0231511" lon="8.1933005"><ele>40.0</ele><time>2026-04-18T14:25:58.303Z</time></trkpt><trkpt lat="44.0230302" lon="8.1931799"><ele>37.0</ele><time>2026-04-18T14:25:59.303Z</time></trkpt><trkpt lat="44.0229312" lon="8.1929887"><ele>34.0</ele><time>2026-04-18T14:26:00.303Z</time></trkpt><trkpt lat="44.0228425" lon="8.1927538"><ele>34.0</ele><time>2026-04-18T14:26:01.303Z</time></trkpt><trkpt lat="44.0227577" lon="8.1924947"><ele>34.0</ele><time>2026-04-18T14:26:02.302Z</time></trkpt><trkpt lat="44.0226627" lon="8.1922464"><ele>34.0</ele><time>2026-04-18T14:26:03.303Z</time></trkpt><trkpt lat="44.0225689" lon="8.192026"><ele>34.66666666666667</ele><time>2026-04-18T14:26:04.303Z</time></trkpt><trkpt lat="44.022466" lon="8.1918418"><ele>35.333333333333336</ele><time>2026-04-18T14:26:05.303Z</time></trkpt><trkpt lat="44.0223173" lon="8.1917135"><ele>36.0</ele><time>2026-04-18T14:26:06.303Z</time></trkpt><trkpt lat="44.0221484" lon="8.1916405"><ele>36.0</ele><time>2026-04-18T14:26:07.303Z</time></trkpt><trkpt lat="44.0219456" lon="8.1915971"><ele>36.0</ele><time>2026-04-18T14:26:08.303Z</time></trkpt><trkpt lat="44.0217357" lon="8.1915391"><ele>36.0</ele><time>2026-04-18T14:26:09.303Z</time></trkpt><trkpt lat="44.0215144" lon="8.1914683"><ele>48.5</ele><time>2026-04-18T14:26:10.303Z</time></trkpt><trkpt lat="44.0212949" lon="8.1913914"><ele>61.0</ele><time>2026-04-18T14:26:11.303Z</time></trkpt><trkpt lat="44.0210724" lon="8.1913023"><ele>61.0</ele><time>2026-04-18T14:26:12.303Z</time></trkpt><trkpt lat="44.0208313" lon="8.1912206"><ele>61.0</ele><time>2026-04-18T14:26:13.302Z</time></trkpt><trkpt lat="44.0205826" lon="8.1911439"><ele>56.0</ele><time>2026-04-18T14:26:14.303Z</time></trkpt><trkpt lat="44.0203333" lon="8.1910757"><ele>51.0</ele><time>2026-04-18T14:26:15.302Z</time></trkpt><trkpt lat="44.0200919" lon="8.1910052"><ele>47.5</ele><time>2026-04-18T14:26:16.303Z</time></trkpt><trkpt lat="44.0198547" lon="8.1909291"><ele>44.0</ele><time>2026-04-18T14:26:17.303Z</time></trkpt><trkpt lat="44.019632" lon="8.1908464"><ele>44.0</ele><time>2026-04-18T14:26:18.303Z</time></trkpt><trkpt lat="44.0194261" lon="8.190771"><ele>44.0</ele><time>2026-04-18T14:26:19.303Z</time></trkpt><trkpt lat="44.0192348" lon="8.1907095"><ele>44.0</ele><time>2026-04-18T14:26:20.303Z</time></trkpt><trkpt lat="44.0190584" lon="8.1906603"><ele>52.33333333333333</ele><time>2026-04-18T14:26:21.302Z</time></trkpt><trkpt lat="44.0188978" lon="8.1906532"><ele>60.666666666666664</ele><time>2026-04-18T14:26:22.302Z</time></trkpt><trkpt lat="44.0187433" lon="8.1907244"><ele>69.0</ele><time>2026-04-18T14:26:23.303Z</time></trkpt><trkpt lat="44.0185721" lon="8.1908358"><ele>69.0</ele><time>2026-04-18T14:26:24.302Z</time></trkpt><trkpt lat="44.0183883" lon="8.190954"><ele>69.0</ele><time>2026-04-18T14:26:25.303Z</time></trkpt><trkpt lat="44.0181986" lon="8.1910551"><ele>69.0</ele><time>2026-04-18T14:26:26.302Z</time></trkpt><trkpt lat="44.0180051" lon="8.1911378"><ele>71.66666666666667</ele><time>2026-04-18T14:26:27.302Z</time></trkpt><trkpt lat="44.0178088" lon="8.1912357"><ele>74.33333333333334</ele><time>2026-04-18T14:26:28.303Z</time></trkpt><trkpt lat="44.0176078" lon="8.1913292"><ele>77.0</ele><time>2026-04-18T14:26:29.303Z</time></trkpt><trkpt lat="44.0173995" lon="8.1914289"><ele>62.66666666666667</ele><time>2026-04-18T14:26:30.303Z</time></trkpt><trkpt lat="44.0172011" lon="8.1915263"><ele>48.333333333333336</ele><time>2026-04-18T14:26:31.302Z</time></trkpt><trkpt lat="44.0170134" lon="8.1916199"><ele>34.0</ele><time>2026-04-18T14:26:32.302Z</time></trkpt><trkpt lat="44.016833" lon="8.1917056"><ele>34.0</ele><time>2026-04-18T14:26:33.303Z</time></trkpt><trkpt lat="44.0166584" lon="8.1917599"><ele>34.0</ele><time>2026-04-18T14:26:34.303Z</time></trkpt><trkpt lat="44.0165055" lon="8.1917649"><ele>34.0</ele><time>2026-04-18T14:26:35.302Z</time></trkpt><trkpt lat="44.0163771" lon="8.1917173"><ele>30.25</ele><time>2026-04-18T14:26:36.302Z</time></trkpt><trkpt lat="44.0162742" lon="8.1916094"><ele>26.5</ele><time>2026-04-18T14:26:37.302Z</time></trkpt><trkpt lat="44.0162007" lon="8.1914309"><ele>22.75</ele><time>2026-04-18T14:26:38.303Z</time></trkpt><trkpt lat="44.0161915" lon="8.1912369"><ele>19.0</ele><time>2026-04-18T14:26:39.303Z</time></trkpt><trkpt lat="44.0162167" lon="8.1910147"><ele>19.0</ele><time>2026-04-18T14:26:40.302Z</time></trkpt><trkpt lat="44.0162607" lon="8.1907692"><ele>19.0</ele><time>2026-04-18T14:26:41.303Z</time></trkpt><trkpt lat="44.0163057" lon="8.1905143"><ele>19.0</ele><time>2026-04-18T14:26:42.303Z</time></trkpt><trkpt lat="44.01634" lon="8.1902533"><ele>17.0</ele><time>2026-04-18T14:26:43.303Z</time></trkpt><trkpt lat="44.016383" lon="8.1899875"><ele>15.0</ele><time>2026-04-18T14:26:44.303Z</time></trkpt><trkpt lat="44.0164205" lon="8.1897425"><ele>13.0</ele><time>2026-04-18T14:26:45.303Z</time></trkpt><trkpt lat="44.0164532" lon="8.1895148"><ele>13.25</ele><time>2026-04-18T14:26:46.303Z</time></trkpt><trkpt lat="44.0164617" lon="8.189305"><ele>13.5</ele><time>2026-04-18T14:26:47.303Z</time></trkpt><trkpt lat="44.0164353" lon="8.1891002"><ele>13.75</ele><time>2026-04-18T14:26:48.302Z</time></trkpt><trkpt lat="44.0163653" lon="8.18893"><ele>14.0</ele><time>2026-04-18T14:26:49.303Z</time></trkpt><trkpt lat="44.0162718" lon="8.188768"><ele>14.0</ele><time>2026-04-18T14:26:50.303Z</time></trkpt><trkpt lat="44.0161775" lon="8.188585"><ele>14.0</ele><time>2026-04-18T14:26:51.303Z</time></trkpt><trkpt lat="44.0161173" lon="8.1883597"><ele>14.0</ele><time>2026-04-18T14:26:52.303Z</time></trkpt><trkpt lat="44.016092" lon="8.1880882"><ele>15.0</ele><time>2026-04-18T14:26:53.303Z</time></trkpt><trkpt lat="44.0160719" lon="8.1878132"><ele>16.0</ele><time>2026-04-18T14:26:54.304Z</time></trkpt><trkpt lat="44.0160468" lon="8.1875299"><ele>17.0</ele><time>2026-04-18T14:26:55.304Z</time></trkpt><trkpt lat="44.0160059" lon="8.1872325"><ele>17.666666666666668</ele><time>2026-04-18T14:26:56.304Z</time></trkpt><trkpt lat="44.0159531" lon="8.1869341"><ele>18.333333333333332</ele><time>2026-04-18T14:26:57.304Z</time></trkpt><trkpt lat="44.0158978" lon="8.1866416"><ele>19.0</ele><time>2026-04-18T14:26:58.304Z</time></trkpt><trkpt lat="44.0158434" lon="8.1863598"><ele>14.333333333333332</ele><time>2026-04-18T14:26:59.303Z</time></trkpt><trkpt lat="44.0157876" lon="8.1860836"><ele>9.666666666666666</ele><time>2026-04-18T14:27:00.304Z</time></trkpt><trkpt lat="44.0157305" lon="8.1858137"><ele>5.0</ele><time>2026-04-18T14:27:01.304Z</time></trkpt><trkpt lat="44.0156729" lon="8.1855495"><ele>5.0</ele><time>2026-04-18T14:27:02.304Z</time></trkpt><trkpt lat="44.0156136" lon="8.185305"><ele>5.0</ele><time>2026-04-18T14:27:03.304Z</time></trkpt><trkpt lat="44.0155506" lon="8.1850748"><ele>5.0</ele><time>2026-04-18T14:27:04.304Z</time></trkpt><trkpt lat="44.0154883" lon="8.1848578"><ele>6.25</ele><time>2026-04-18T14:27:05.304Z</time></trkpt><trkpt lat="44.0154289" lon="8.1846543"><ele>7.5</ele><time>2026-04-18T14:27:06.304Z</time></trkpt><trkpt lat="44.0153705" lon="8.1844608"><ele>8.75</ele><time>2026-04-18T14:27:07.304Z</time></trkpt><trkpt lat="44.0153146" lon="8.1842856"><ele>10.0</ele><time>2026-04-18T14:27:08.304Z</time></trkpt><trkpt lat="44.0152655" lon="8.1841301"><ele>12.25</ele><time>2026-04-18T14:27:09.304Z</time></trkpt><trkpt lat="44.0152177" lon="8.1839846"><ele>14.5</ele><time>2026-04-18T14:27:10.304Z</time></trkpt><trkpt lat="44.0151645" lon="8.1838435"><ele>16.75</ele><time>2026-04-18T14:27:11.304Z</time></trkpt><trkpt lat="44.0151099" lon="8.183706"><ele>19.0</ele><time>2026-04-18T14:27:12.304Z</time></trkpt><trkpt lat="44.0150608" lon="8.1835692"><ele>19.0</ele><time>2026-04-18T14:27:13.304Z</time></trkpt><trkpt lat="44.0150152" lon="8.183438"><ele>19.0</ele><time>2026-04-18T14:27:14.304Z</time></trkpt><trkpt lat="44.0149749" lon="8.1833203"><ele>19.0</ele><time>2026-04-18T14:27:15.304Z</time></trkpt><trkpt lat="44.0149367" lon="8.183214"><ele>19.0</ele><time>2026-04-18T14:27:16.303Z</time></trkpt><trkpt lat="44.0149066" lon="8.1831323"><ele>19.0</ele><time>2026-04-18T14:27:17.304Z</time></trkpt><trkpt lat="44.0148631" lon="8.1829965"><ele>18.0</ele><time>2026-04-18T14:27:19.304Z</time></trkpt><trkpt lat="44.0147965" lon="8.1828222"><ele>17.0</ele><time>2026-04-18T14:27:21.304Z</time></trkpt><trkpt lat="44.0147515" lon="8.1827017"><ele>15.999999999999998</ele><time>2026-04-18T14:27:22.304Z</time></trkpt><trkpt lat="44.0147038" lon="8.182569"><ele>15.0</ele><time>2026-04-18T14:27:23.304Z</time></trkpt><trkpt lat="44.0146581" lon="8.1824452"><ele>14.0</ele><time>2026-04-18T14:27:24.304Z</time></trkpt><trkpt lat="44.0146179" lon="8.1823422"><ele>14.0</ele><time>2026-04-18T14:27:25.304Z</time></trkpt><trkpt lat="44.0145813" lon="8.1822524"><ele>13.999999999999998</ele><time>2026-04-18T14:27:26.304Z</time></trkpt><trkpt lat="44.0145495" lon="8.1821729"><ele>13.999999999999998</ele><time>2026-04-18T14:27:27.304Z</time></trkpt><trkpt lat="44.0144751" lon="8.1820069"><ele>14.0</ele><time>2026-04-18T14:27:29.304Z</time></trkpt><trkpt lat="44.0144197" lon="8.1818941"><ele>14.0</ele><time>2026-04-18T14:27:30.304Z</time></trkpt><trkpt lat="44.0143663" lon="8.1817703"><ele>14.0</ele><time>2026-04-18T14:27:31.304Z</time></trkpt><trkpt lat="44.0143296" lon="8.1816531"><ele>14.0</ele><time>2026-04-18T14:27:32.304Z</time></trkpt><trkpt lat="44.0142793" lon="8.1815284"><ele>14.0</ele><time>2026-04-18T14:27:33.304Z</time></trkpt><trkpt lat="44.0142222" lon="8.1813732"><ele>14.0</ele><time>2026-04-18T14:27:34.303Z</time></trkpt><trkpt lat="44.0141612" lon="8.1812109"><ele>13.399999999999999</ele><time>2026-04-18T14:27:35.304Z</time></trkpt><trkpt lat="44.0141117" lon="8.1810553"><ele>12.799999999999999</ele><time>2026-04-18T14:27:36.304Z</time></trkpt><trkpt lat="44.0140689" lon="8.1809098"><ele>12.2</ele><time>2026-04-18T14:27:37.304Z</time></trkpt><trkpt lat="44.0140218" lon="8.180792"><ele>11.600000000000001</ele><time>2026-04-18T14:27:38.303Z</time></trkpt><trkpt lat="44.0139766" lon="8.1806718"><ele>11.0</ele><time>2026-04-18T14:27:39.303Z</time></trkpt><trkpt lat="44.0139329" lon="8.1805518"><ele>11.0</ele><time>2026-04-18T14:27:40.303Z</time></trkpt><trkpt lat="44.013887" lon="8.1804318"><ele>11.0</ele><time>2026-04-18T14:27:41.304Z</time></trkpt><trkpt lat="44.0138433" lon="8.1803193"><ele>11.0</ele><time>2026-04-18T14:27:42.304Z</time></trkpt><trkpt lat="44.013795" lon="8.1802108"><ele>11.0</ele><time>2026-04-18T14:27:43.304Z</time></trkpt><trkpt lat="44.013742" lon="8.180097"><ele>11.0</ele><time>2026-04-18T14:27:44.304Z</time></trkpt><trkpt lat="44.0136854" lon="8.1799862"><ele>11.0</ele><time>2026-04-18T14:27:45.304Z</time></trkpt><trkpt lat="44.0136265" lon="8.1798794"><ele>11.0</ele><time>2026-04-18T14:27:46.304Z</time></trkpt><trkpt lat="44.0135664" lon="8.1797659"><ele>11.0</ele><time>2026-04-18T14:27:47.304Z</time></trkpt><trkpt lat="44.0135015" lon="8.1796492"><ele>11.0</ele><time>2026-04-18T14:27:48.304Z</time></trkpt><trkpt lat="44.0134355" lon="8.1795363"><ele>11.0</ele><time>2026-04-18T14:27:49.304Z</time></trkpt><trkpt lat="44.0133666" lon="8.1794293"><ele>12.25</ele><time>2026-04-18T14:27:50.304Z</time></trkpt><trkpt lat="44.0132858" lon="8.1793157"><ele>13.5</ele><time>2026-04-18T14:27:51.304Z</time></trkpt><trkpt lat="44.0131895" lon="8.1791738"><ele>14.75</ele><time>2026-04-18T14:27:52.304Z</time></trkpt><trkpt lat="44.0130846" lon="8.1790185"><ele>16.0</ele><time>2026-04-18T14:27:53.304Z</time></trkpt><trkpt lat="44.0129837" lon="8.1788703"><ele>16.25</ele><time>2026-04-18T14:27:54.304Z</time></trkpt><trkpt lat="44.0128834" lon="8.1787389"><ele>16.5</ele><time>2026-04-18T14:27:55.304Z</time></trkpt><trkpt lat="44.0127863" lon="8.1786154"><ele>16.75</ele><time>2026-04-18T14:27:56.303Z</time></trkpt><trkpt lat="44.0126926" lon="8.1784971"><ele>17.0</ele><time>2026-04-18T14:27:57.303Z</time></trkpt><trkpt lat="44.0126063" lon="8.1783841"><ele>17.0</ele><time>2026-04-18T14:27:58.304Z</time></trkpt><trkpt lat="44.0125237" lon="8.1782888"><ele>17.0</ele><time>2026-04-18T14:27:59.304Z</time></trkpt><trkpt lat="44.0124481" lon="8.1781897"><ele>17.0</ele><time>2026-04-18T14:28:00.304Z</time></trkpt><trkpt lat="44.012371" lon="8.1780994"><ele>17.0</ele><time>2026-04-18T14:28:01.304Z</time></trkpt><trkpt lat="44.012293" lon="8.178012"><ele>17.0</ele><time>2026-04-18T14:28:02.303Z</time></trkpt><trkpt lat="44.0122151" lon="8.1779232"><ele>16.666666666666668</ele><time>2026-04-18T14:28:03.304Z</time></trkpt><trkpt lat="44.0121422" lon="8.1778477"><ele>16.333333333333336</ele><time>2026-04-18T14:28:04.304Z</time></trkpt><trkpt lat="44.012074" lon="8.1777726"><ele>16.0</ele><time>2026-04-18T14:28:05.304Z</time></trkpt><trkpt lat="44.012012" lon="8.1776941"><ele>15.666666666666668</ele><time>2026-04-18T14:28:06.304Z</time></trkpt><trkpt lat="44.0119484" lon="8.1776148"><ele>15.333333333333334</ele><time>2026-04-18T14:28:07.303Z</time></trkpt><trkpt lat="44.0118891" lon="8.1775408"><ele>15.0</ele><time>2026-04-18T14:28:08.304Z</time></trkpt><trkpt lat="44.0118182" lon="8.1774534"><ele>15.75</ele><time>2026-04-18T14:28:09.304Z</time></trkpt><trkpt lat="44.0117338" lon="8.1773362"><ele>16.5</ele><time>2026-04-18T14:28:10.303Z</time></trkpt><trkpt lat="44.0116493" lon="8.177208"><ele>17.25</ele><time>2026-04-18T14:28:11.304Z</time></trkpt><trkpt lat="44.0115724" lon="8.1770813"><ele>18.0</ele><time>2026-04-18T14:28:12.304Z</time></trkpt><trkpt lat="44.0115052" lon="8.1769666"><ele>17.0</ele><time>2026-04-18T14:28:13.304Z</time></trkpt><trkpt lat="44.0114437" lon="8.1768697"><ele>16.0</ele><time>2026-04-18T14:28:14.304Z</time></trkpt><trkpt lat="44.011389" lon="8.1767739"><ele>15.0</ele><time>2026-04-18T14:28:15.304Z</time></trkpt><trkpt lat="44.0113324" lon="8.1766779"><ele>14.0</ele><time>2026-04-18T14:28:16.304Z</time></trkpt><trkpt lat="44.0112905" lon="8.1765717"><ele>13.0</ele><time>2026-04-18T14:28:17.304Z</time></trkpt><trkpt lat="44.0112494" lon="8.1764705"><ele>12.0</ele><time>2026-04-18T14:28:18.304Z</time></trkpt><trkpt lat="44.0112093" lon="8.1763635"><ele>12.0</ele><time>2026-04-18T14:28:19.304Z</time></trkpt><trkpt lat="44.0111723" lon="8.1762657"><ele>12.0</ele><time>2026-04-18T14:28:20.303Z</time></trkpt><trkpt lat="44.0111358" lon="8.1761715"><ele>12.0</ele><time>2026-04-18T14:28:21.303Z</time></trkpt><trkpt lat="44.0110969" lon="8.1760723"><ele>12.0</ele><time>2026-04-18T14:28:22.304Z</time></trkpt><trkpt lat="44.0110609" lon="8.1759689"><ele>12.0</ele><time>2026-04-18T14:28:23.303Z</time></trkpt><trkpt lat="44.011023" lon="8.1758626"><ele>12.0</ele><time>2026-04-18T14:28:24.304Z</time></trkpt><trkpt lat="44.0109818" lon="8.1757545"><ele>11.833333333333334</ele><time>2026-04-18T14:28:25.303Z</time></trkpt><trkpt lat="44.0109383" lon="8.1756483"><ele>11.666666666666666</ele><time>2026-04-18T14:28:26.303Z</time></trkpt><trkpt lat="44.0108886" lon="8.1755545"><ele>11.5</ele><time>2026-04-18T14:28:27.304Z</time></trkpt><trkpt lat="44.010835" lon="8.1754562"><ele>11.333333333333332</ele><time>2026-04-18T14:28:28.304Z</time></trkpt><trkpt lat="44.0107781" lon="8.1753615"><ele>11.166666666666666</ele><time>2026-04-18T14:28:29.304Z</time></trkpt><trkpt lat="44.0107202" lon="8.1752691"><ele>11.0</ele><time>2026-04-18T14:28:30.304Z</time></trkpt><trkpt lat="44.010653" lon="8.1751882"><ele>11.0</ele><time>2026-04-18T14:28:31.304Z</time></trkpt><trkpt lat="44.0105781" lon="8.1751144"><ele>11.0</ele><time>2026-04-18T14:28:32.304Z</time></trkpt><trkpt lat="44.0105032" lon="8.1750412"><ele>11.0</ele><time>2026-04-18T14:28:33.304Z</time></trkpt><trkpt lat="44.0104255" lon="8.1749825"><ele>11.0</ele><time>2026-04-18T14:28:34.304Z</time></trkpt><trkpt lat="44.010349" lon="8.1749194"><ele>11.0</ele><time>2026-04-18T14:28:35.303Z</time></trkpt><trkpt lat="44.0102771" lon="8.1748572"><ele>11.0</ele><time>2026-04-18T14:28:36.304Z</time></trkpt><trkpt lat="44.0102185" lon="8.1747908"><ele>11.5</ele><time>2026-04-18T14:28:37.304Z</time></trkpt><trkpt lat="44.010156" lon="8.1747325"><ele>12.0</ele><time>2026-04-18T14:28:38.303Z</time></trkpt><trkpt lat="44.0101032" lon="8.1746752"><ele>12.5</ele><time>2026-04-18T14:28:39.304Z</time></trkpt><trkpt lat="44.0100267" lon="8.1746234"><ele>13.0</ele><time>2026-04-18T14:28:40.304Z</time></trkpt><trkpt lat="44.0099444" lon="8.1745497"><ele>13.500000000000002</ele><time>2026-04-18T14:28:41.304Z</time></trkpt><trkpt lat="44.0098466" lon="8.1744799"><ele>14.0</ele><time>2026-04-18T14:28:42.303Z</time></trkpt><trkpt lat="44.0097445" lon="8.174402"><ele>14.2</ele><time>2026-04-18T14:28:43.304Z</time></trkpt><trkpt lat="44.0096526" lon="8.1743324"><ele>14.399999999999999</ele><time>2026-04-18T14:28:44.305Z</time></trkpt><trkpt lat="44.0095623" lon="8.1742673"><ele>14.6</ele><time>2026-04-18T14:28:45.305Z</time></trkpt><trkpt lat="44.0094737" lon="8.1742054"><ele>14.8</ele><time>2026-04-18T14:28:46.304Z</time></trkpt><trkpt lat="44.0094007" lon="8.1741481"><ele>15.0</ele><time>2026-04-18T14:28:47.305Z</time></trkpt><trkpt lat="44.009344" lon="8.1740791"><ele>15.0</ele><time>2026-04-18T14:28:48.304Z</time></trkpt><trkpt lat="44.0092763" lon="8.1740217"><ele>15.0</ele><time>2026-04-18T14:28:49.305Z</time></trkpt><trkpt lat="44.0092078" lon="8.1739635"><ele>15.0</ele><time>2026-04-18T14:28:50.305Z</time></trkpt><trkpt lat="44.009132" lon="8.1739019"><ele>15.0</ele><time>2026-04-18T14:28:51.305Z</time></trkpt><trkpt lat="44.0090632" lon="8.1738392"><ele>15.0</ele><time>2026-04-18T14:28:52.305Z</time></trkpt><trkpt lat="44.0090001" lon="8.1737896"><ele>15.0</ele><time>2026-04-18T14:28:53.305Z</time></trkpt><trkpt lat="44.0089132" lon="8.1737223"><ele>14.25</ele><time>2026-04-18T14:28:55.305Z</time></trkpt><trkpt lat="44.0088378" lon="8.1736762"><ele>13.5</ele><time>2026-04-18T14:28:56.304Z</time></trkpt><trkpt lat="44.0087328" lon="8.1736101"><ele>12.75</ele><time>2026-04-18T14:28:58.305Z</time></trkpt><trkpt lat="44.0086468" lon="8.1735178"><ele>12.0</ele><time>2026-04-18T14:29:00.305Z</time></trkpt><trkpt lat="44.0085467" lon="8.1733644"><ele>12.0</ele><time>2026-04-18T14:29:02.305Z</time></trkpt><trkpt lat="44.008464" lon="8.1732532"><ele>12.0</ele><time>2026-04-18T14:29:03.305Z</time></trkpt><trkpt lat="44.0083832" lon="8.1731443"><ele>12.0</ele><time>2026-04-18T14:29:04.305Z</time></trkpt><trkpt lat="44.0082974" lon="8.1730279"><ele>12.0</ele><time>2026-04-18T14:29:05.305Z</time></trkpt><trkpt lat="44.0082048" lon="8.1729163"><ele>11.6</ele><time>2026-04-18T14:29:06.305Z</time></trkpt><trkpt lat="44.0081142" lon="8.1728153"><ele>11.2</ele><time>2026-04-18T14:29:07.305Z</time></trkpt><trkpt lat="44.0080341" lon="8.1727228"><ele>10.8</ele><time>2026-04-18T14:29:08.305Z</time></trkpt><trkpt lat="44.007962" lon="8.1726407"><ele>10.4</ele><time>2026-04-18T14:29:09.305Z</time></trkpt><trkpt lat="44.007911" lon="8.1725753"><ele>10.0</ele><time>2026-04-18T14:29:10.305Z</time></trkpt><trkpt lat="44.0078467" lon="8.1724965"><ele>10.0</ele><time>2026-04-18T14:29:12.305Z</time></trkpt><trkpt lat="44.0077705" lon="8.1724037"><ele>10.0</ele><time>2026-04-18T14:29:15.305Z</time></trkpt><trkpt lat="44.0077021" lon="8.1722864"><ele>10.0</ele><time>2026-04-18T14:29:17.305Z</time></trkpt><trkpt lat="44.0076227" lon="8.1721486"><ele>10.0</ele><time>2026-04-18T14:29:19.304Z</time></trkpt><trkpt lat="44.0075839" lon="8.172073"><ele>10.0</ele><time>2026-04-18T14:29:20.305Z</time></trkpt><trkpt lat="44.0075053" lon="8.1719459"><ele>10.166666666666668</ele><time>2026-04-18T14:29:22.305Z</time></trkpt><trkpt lat="44.0074596" lon="8.1718825"><ele>10.333333333333334</ele><time>2026-04-18T14:29:23.305Z</time></trkpt><trkpt lat="44.0074136" lon="8.1718191"><ele>10.5</ele><time>2026-04-18T14:29:24.304Z</time></trkpt><trkpt lat="44.0073434" lon="8.1717373"><ele>10.666666666666666</ele><time>2026-04-18T14:29:26.305Z</time></trkpt><trkpt lat="44.0072727" lon="8.1717057"><ele>10.833333333333332</ele><time>2026-04-18T14:29:28.305Z</time></trkpt><trkpt lat="44.0072028" lon="8.1716521"><ele>11.0</ele><time>2026-04-18T14:29:30.305Z</time></trkpt><trkpt lat="44.007117" lon="8.1715905"><ele>11.166666666666666</ele><time>2026-04-18T14:29:32.305Z</time></trkpt><trkpt lat="44.0070552" lon="8.1715037"><ele>11.333333333333332</ele><time>2026-04-18T14:29:34.305Z</time></trkpt><trkpt lat="44.0069703" lon="8.1714027"><ele>11.5</ele><time>2026-04-18T14:29:36.305Z</time></trkpt><trkpt lat="44.0069095" lon="8.1713556"><ele>11.666666666666666</ele><time>2026-04-18T14:29:37.305Z</time></trkpt><trkpt lat="44.0068524" lon="8.1712937"><ele>11.833333333333334</ele><time>2026-04-18T14:29:38.305Z</time></trkpt><trkpt lat="44.006797" lon="8.171243"><ele>12.0</ele><time>2026-04-18T14:29:39.305Z</time></trkpt><trkpt lat="44.0067386" lon="8.171192"><ele>11.999999999999998</ele><time>2026-04-18T14:29:40.305Z</time></trkpt><trkpt lat="44.0066962" lon="8.1711194"><ele>12.0</ele><time>2026-04-18T14:29:41.305Z</time></trkpt><trkpt lat="44.0066491" lon="8.1710611"><ele>12.0</ele><time>2026-04-18T14:29:42.305Z</time></trkpt><trkpt lat="44.0065976" lon="8.1710015"><ele>12.0</ele><time>2026-04-18T14:29:43.305Z</time></trkpt><trkpt lat="44.0065431" lon="8.1709321"><ele>12.0</ele><time>2026-04-18T14:29:44.304Z</time></trkpt><trkpt lat="44.0064838" lon="8.1708598"><ele>11.999999999999998</ele><time>2026-04-18T14:29:45.305Z</time></trkpt><trkpt lat="44.006423" lon="8.1707918"><ele>12.0</ele><time>2026-04-18T14:29:46.304Z</time></trkpt><trkpt lat="44.0063757" lon="8.1707149"><ele>11.428571428571427</ele><time>2026-04-18T14:29:47.304Z</time></trkpt><trkpt lat="44.0063384" lon="8.1706392"><ele>10.857142857142858</ele><time>2026-04-18T14:29:48.305Z</time></trkpt><trkpt lat="44.0062996" lon="8.1705682"><ele>10.285714285714285</ele><time>2026-04-18T14:29:49.305Z</time></trkpt><trkpt lat="44.006258" lon="8.1704919"><ele>9.714285714285714</ele><time>2026-04-18T14:29:50.305Z</time></trkpt><trkpt lat="44.0062066" lon="8.1704257"><ele>9.142857142857142</ele><time>2026-04-18T14:29:51.305Z</time></trkpt><trkpt lat="44.0061478" lon="8.1703615"><ele>8.571428571428571</ele><time>2026-04-18T14:29:52.304Z</time></trkpt><trkpt lat="44.0060805" lon="8.1702963"><ele>8.0</ele><time>2026-04-18T14:29:53.305Z</time></trkpt><trkpt lat="44.0060253" lon="8.1702307"><ele>8.0</ele><time>2026-04-18T14:29:54.305Z</time></trkpt><trkpt lat="44.0059341" lon="8.1701311"><ele>8.0</ele><time>2026-04-18T14:29:56.305Z</time></trkpt><trkpt lat="44.0058569" lon="8.1700181"><ele>8.0</ele><time>2026-04-18T14:29:58.304Z</time></trkpt><trkpt lat="44.0057622" lon="8.1699121"><ele>8.0</ele><time>2026-04-18T14:30:00.305Z</time></trkpt><trkpt lat="44.0057058" lon="8.1698366"><ele>8.0</ele><time>2026-04-18T14:30:01.305Z</time></trkpt><trkpt lat="44.0056471" lon="8.1697562"><ele>8.166666666666666</ele><time>2026-04-18T14:30:02.305Z</time></trkpt><trkpt lat="44.0055935" lon="8.1696908"><ele>8.333333333333332</ele><time>2026-04-18T14:30:03.305Z</time></trkpt><trkpt lat="44.0055255" lon="8.1696171"><ele>8.5</ele><time>2026-04-18T14:30:05.305Z</time></trkpt><trkpt lat="44.0054777" lon="8.1695533"><ele>8.666666666666666</ele><time>2026-04-18T14:30:09.305Z</time></trkpt><trkpt lat="44.0054294" lon="8.1694868"><ele>8.833333333333334</ele><time>2026-04-18T14:30:11.304Z</time></trkpt><trkpt lat="44.0053607" lon="8.1694091"><ele>9.0</ele><time>2026-04-18T14:30:13.305Z</time></trkpt><trkpt lat="44.0052647" lon="8.169303"><ele>9.0</ele><time>2026-04-18T14:30:15.305Z</time></trkpt><trkpt lat="44.0052114" lon="8.1692401"><ele>9.0</ele><time>2026-04-18T14:30:16.305Z</time></trkpt><trkpt lat="44.0051624" lon="8.1691748"><ele>9.0</ele><time>2026-04-18T14:30:17.305Z</time></trkpt><trkpt lat="44.0051134" lon="8.169119"><ele>9.0</ele><time>2026-04-18T14:30:18.305Z</time></trkpt><trkpt lat="44.005038" lon="8.1690202"><ele>9.0</ele><time>2026-04-18T14:30:20.305Z</time></trkpt><trkpt lat="44.0049387" lon="8.1688932"><ele>9.0</ele><time>2026-04-18T14:30:22.305Z</time></trkpt><trkpt lat="44.0048849" lon="8.1688235"><ele>9.166666666666666</ele><time>2026-04-18T14:30:23.304Z</time></trkpt><trkpt lat="44.0048288" lon="8.1687593"><ele>9.333333333333334</ele><time>2026-04-18T14:30:24.305Z</time></trkpt><trkpt lat="44.0047743" lon="8.1686925"><ele>9.5</ele><time>2026-04-18T14:30:25.305Z</time></trkpt><trkpt lat="44.0047146" lon="8.1686226"><ele>9.666666666666668</ele><time>2026-04-18T14:30:26.305Z</time></trkpt><trkpt lat="44.0046532" lon="8.1685469"><ele>9.833333333333334</ele><time>2026-04-18T14:30:27.304Z</time></trkpt><trkpt lat="44.0045892" lon="8.1684764"><ele>10.0</ele><time>2026-04-18T14:30:28.305Z</time></trkpt><trkpt lat="44.0045255" lon="8.1684109"><ele>10.0</ele><time>2026-04-18T14:30:29.305Z</time></trkpt><trkpt lat="44.0044665" lon="8.1683406"><ele>10.0</ele><time>2026-04-18T14:30:30.305Z</time></trkpt><trkpt lat="44.0044033" lon="8.1682819"><ele>10.0</ele><time>2026-04-18T14:30:31.305Z</time></trkpt><trkpt lat="44.004354" lon="8.1682111"><ele>10.0</ele><time>2026-04-18T14:30:32.304Z</time></trkpt><trkpt lat="44.004292" lon="8.1681638"><ele>10.0</ele><time>2026-04-18T14:30:33.306Z</time></trkpt><trkpt lat="44.0042342" lon="8.1681072"><ele>10.0</ele><time>2026-04-18T14:30:34.305Z</time></trkpt><trkpt lat="44.0041911" lon="8.168033"><ele>10.0</ele><time>2026-04-18T14:30:35.306Z</time></trkpt><trkpt lat="44.0041219" lon="8.1679927"><ele>10.5</ele><time>2026-04-18T14:30:36.306Z</time></trkpt><trkpt lat="44.004064" lon="8.167939"><ele>11.0</ele><time>2026-04-18T14:30:37.306Z</time></trkpt><trkpt lat="44.0039551" lon="8.1679057"><ele>11.5</ele><time>2026-04-18T14:30:39.306Z</time></trkpt><trkpt lat="44.0039154" lon="8.1678321"><ele>12.0</ele><time>2026-04-18T14:30:40.305Z</time></trkpt><trkpt lat="44.0037959" lon="8.1677824"><ele>12.499999999999998</ele><time>2026-04-18T14:30:42.306Z</time></trkpt><trkpt lat="44.0037448" lon="8.1677175"><ele>13.0</ele><time>2026-04-18T14:30:43.306Z</time></trkpt><trkpt lat="44.0036815" lon="8.1676536"><ele>12.999999999999998</ele><time>2026-04-18T14:30:44.306Z</time></trkpt><trkpt lat="44.0036111" lon="8.1676248"><ele>13.0</ele><time>2026-04-18T14:30:45.306Z</time></trkpt><trkpt lat="44.0035495" lon="8.1676053"><ele>13.0</ele><time>2026-04-18T14:30:46.306Z</time></trkpt><trkpt lat="44.0034294" lon="8.1675369"><ele>13.0</ele><time>2026-04-18T14:30:48.306Z</time></trkpt><trkpt lat="44.0033764" lon="8.167464"><ele>12.999999999999998</ele><time>2026-04-18T14:30:49.306Z</time></trkpt><trkpt lat="44.0032944" lon="8.1674067"><ele>13.0</ele><time>2026-04-18T14:30:50.306Z</time></trkpt><trkpt lat="44.0031926" lon="8.167333"><ele>12.8</ele><time>2026-04-18T14:30:51.306Z</time></trkpt><trkpt lat="44.0030966" lon="8.1672374"><ele>12.600000000000001</ele><time>2026-04-18T14:30:52.306Z</time></trkpt><trkpt lat="44.0030051" lon="8.1671713"><ele>12.399999999999999</ele><time>2026-04-18T14:30:53.306Z</time></trkpt><trkpt lat="44.0029269" lon="8.1671257"><ele>12.2</ele><time>2026-04-18T14:30:54.306Z</time></trkpt><trkpt lat="44.002862" lon="8.1670849"><ele>12.0</ele><time>2026-04-18T14:30:55.306Z</time></trkpt><trkpt lat="44.002755" lon="8.1670352"><ele>12.0</ele><time>2026-04-18T14:30:57.305Z</time></trkpt><trkpt lat="44.0026691" lon="8.1669752"><ele>12.0</ele><time>2026-04-18T14:30:59.306Z</time></trkpt><trkpt lat="44.002622" lon="8.1669028"><ele>12.0</ele><time>2026-04-18T14:31:01.305Z</time></trkpt><trkpt lat="44.0025719" lon="8.1668176"><ele>12.0</ele><time>2026-04-18T14:31:03.306Z</time></trkpt><trkpt lat="44.0024629" lon="8.1667992"><ele>12.0</ele><time>2026-04-18T14:31:05.306Z</time></trkpt><trkpt lat="44.0023928" lon="8.1667566"><ele>12.0</ele><time>2026-04-18T14:31:06.306Z</time></trkpt><trkpt lat="44.0023091" lon="8.1667061"><ele>12.0</ele><time>2026-04-18T14:31:07.306Z</time></trkpt><trkpt lat="44.0021882" lon="8.1666251"><ele>12.0</ele><time>2026-04-18T14:31:08.306Z</time></trkpt><trkpt lat="44.002054" lon="8.1665067"><ele>12.0</ele><time>2026-04-18T14:31:09.306Z</time></trkpt><trkpt lat="44.0019084" lon="8.166388"><ele>12.0</ele><time>2026-04-18T14:31:10.306Z</time></trkpt><trkpt lat="44.0017689" lon="8.1662853"><ele>12.0</ele><time>2026-04-18T14:31:11.306Z</time></trkpt><trkpt lat="44.0016244" lon="8.1661875"><ele>12.0</ele><time>2026-04-18T14:31:12.305Z</time></trkpt><trkpt lat="44.0014856" lon="8.166096"><ele>12.0</ele><time>2026-04-18T14:31:13.305Z</time></trkpt><trkpt lat="44.0013469" lon="8.1660044"><ele>12.0</ele><time>2026-04-18T14:31:14.306Z</time></trkpt><trkpt lat="44.0012122" lon="8.1659138"><ele>12.0</ele><time>2026-04-18T14:31:15.306Z</time></trkpt><trkpt lat="44.0010681" lon="8.165837"><ele>12.0</ele><time>2026-04-18T14:31:16.306Z</time></trkpt><trkpt lat="44.0009467" lon="8.1657409"><ele>12.0</ele><time>2026-04-18T14:31:17.306Z</time></trkpt><trkpt lat="44.0007956" lon="8.1656833"><ele>12.0</ele><time>2026-04-18T14:31:18.306Z</time></trkpt><trkpt lat="44.0006408" lon="8.1655976"><ele>11.8</ele><time>2026-04-18T14:31:19.305Z</time></trkpt><trkpt lat="44.0005411" lon="8.165516"><ele>11.6</ele><time>2026-04-18T14:31:20.306Z</time></trkpt><trkpt lat="44.0004441" lon="8.165495"><ele>11.4</ele><time>2026-04-18T14:31:21.306Z</time></trkpt><trkpt lat="44.0003676" lon="8.1654673"><ele>11.200000000000001</ele><time>2026-04-18T14:31:23.306Z</time></trkpt><trkpt lat="44.0002771" lon="8.1654398"><ele>11.0</ele><time>2026-04-18T14:31:25.306Z</time></trkpt><trkpt lat="44.0002012" lon="8.1654081"><ele>11.0</ele><time>2026-04-18T14:31:26.306Z</time></trkpt><trkpt lat="44.0000921" lon="8.1653574"><ele>11.0</ele><time>2026-04-18T14:31:27.305Z</time></trkpt><trkpt lat="43.9999591" lon="8.165295"><ele>11.0</ele><time>2026-04-18T14:31:28.306Z</time></trkpt><trkpt lat="43.9998185" lon="8.1652377"><ele>11.0</ele><time>2026-04-18T14:31:29.306Z</time></trkpt><trkpt lat="43.9996719" lon="8.165184"><ele>11.0</ele><time>2026-04-18T14:31:30.305Z</time></trkpt><trkpt lat="43.9995185" lon="8.1651387"><ele>11.0</ele><time>2026-04-18T14:31:31.305Z</time></trkpt><trkpt lat="43.9993646" lon="8.1651362"><ele>11.0</ele><time>2026-04-18T14:31:32.306Z</time></trkpt><trkpt lat="43.9991962" lon="8.1651446"><ele>11.666666666666666</ele><time>2026-04-18T14:31:33.306Z</time></trkpt><trkpt lat="43.9990224" lon="8.1651629"><ele>12.333333333333332</ele><time>2026-04-18T14:31:34.306Z</time></trkpt><trkpt lat="43.9988453" lon="8.1651804"><ele>13.0</ele><time>2026-04-18T14:31:35.306Z</time></trkpt><trkpt lat="43.9986666" lon="8.165189"><ele>13.0</ele><time>2026-04-18T14:31:36.306Z</time></trkpt><trkpt lat="43.9984866" lon="8.1652166"><ele>13.0</ele><time>2026-04-18T14:31:37.306Z</time></trkpt><trkpt lat="43.9983346" lon="8.1652324"><ele>13.0</ele><time>2026-04-18T14:31:38.306Z</time></trkpt><trkpt lat="43.9981704" lon="8.1652581"><ele>13.333333333333332</ele><time>2026-04-18T14:31:39.305Z</time></trkpt><trkpt lat="43.9980101" lon="8.1652886"><ele>13.666666666666668</ele><time>2026-04-18T14:31:40.306Z</time></trkpt><trkpt lat="43.9978557" lon="8.1653091"><ele>14.0</ele><time>2026-04-18T14:31:41.306Z</time></trkpt><trkpt lat="43.997714" lon="8.1653195"><ele>14.0</ele><time>2026-04-18T14:31:42.305Z</time></trkpt><trkpt lat="43.9975782" lon="8.1653376"><ele>14.0</ele><time>2026-04-18T14:31:43.306Z</time></trkpt><trkpt lat="43.9974628" lon="8.1653417"><ele>14.0</ele><time>2026-04-18T14:31:44.306Z</time></trkpt><trkpt lat="43.9973412" lon="8.1653476"><ele>14.0</ele><time>2026-04-18T14:31:45.306Z</time></trkpt><trkpt lat="43.9972246" lon="8.1653339"><ele>13.5</ele><time>2026-04-18T14:31:46.306Z</time></trkpt><trkpt lat="43.997113" lon="8.1653023"><ele>13.0</ele><time>2026-04-18T14:31:47.306Z</time></trkpt><trkpt lat="43.9970022" lon="8.1652571"><ele>12.5</ele><time>2026-04-18T14:31:48.306Z</time></trkpt><trkpt lat="43.9968827" lon="8.1651902"><ele>12.0</ele><time>2026-04-18T14:31:49.306Z</time></trkpt><trkpt lat="43.9967558" lon="8.1651218"><ele>10.333333333333334</ele><time>2026-04-18T14:31:50.305Z</time></trkpt><trkpt lat="43.9966209" lon="8.1650489"><ele>8.666666666666668</ele><time>2026-04-18T14:31:51.306Z</time></trkpt><trkpt lat="43.9964829" lon="8.1649641"><ele>7.0</ele><time>2026-04-18T14:31:52.306Z</time></trkpt><trkpt lat="43.9963395" lon="8.1648768"><ele>7.666666666666667</ele><time>2026-04-18T14:31:53.305Z</time></trkpt><trkpt lat="43.9961842" lon="8.1647866"><ele>8.333333333333334</ele><time>2026-04-18T14:31:54.306Z</time></trkpt><trkpt lat="43.996014" lon="8.1646948"><ele>9.0</ele><time>2026-04-18T14:31:55.305Z</time></trkpt><trkpt lat="43.9958302" lon="8.1645865"><ele>9.0</ele><time>2026-04-18T14:31:56.306Z</time></trkpt><trkpt lat="43.9956443" lon="8.164461"><ele>9.0</ele><time>2026-04-18T14:31:57.306Z</time></trkpt><trkpt lat="43.9954614" lon="8.1643442"><ele>9.0</ele><time>2026-04-18T14:31:58.305Z</time></trkpt><trkpt lat="43.9952823" lon="8.1642342"><ele>9.0</ele><time>2026-04-18T14:31:59.306Z</time></trkpt><trkpt lat="43.9951085" lon="8.1641298"><ele>9.0</ele><time>2026-04-18T14:32:00.306Z</time></trkpt><trkpt lat="43.9949413" lon="8.1640304"><ele>9.0</ele><time>2026-04-18T14:32:01.306Z</time></trkpt><trkpt lat="43.9947799" lon="8.1639247"><ele>11.0</ele><time>2026-04-18T14:32:02.306Z</time></trkpt><trkpt lat="43.9946241" lon="8.1638271"><ele>13.0</ele><time>2026-04-18T14:32:03.306Z</time></trkpt><trkpt lat="43.9944746" lon="8.163737"><ele>15.0</ele><time>2026-04-18T14:32:04.305Z</time></trkpt><trkpt lat="43.994324" lon="8.1636505"><ele>13.333333333333334</ele><time>2026-04-18T14:32:05.306Z</time></trkpt><trkpt lat="43.99417" lon="8.1635674"><ele>11.666666666666668</ele><time>2026-04-18T14:32:06.306Z</time></trkpt><trkpt lat="43.9940125" lon="8.1634868"><ele>10.0</ele><time>2026-04-18T14:32:07.306Z</time></trkpt><trkpt lat="43.9938543" lon="8.1634099"><ele>10.0</ele><time>2026-04-18T14:32:08.306Z</time></trkpt><trkpt lat="43.9936853" lon="8.1633331"><ele>10.0</ele><time>2026-04-18T14:32:09.305Z</time></trkpt><trkpt lat="43.9935053" lon="8.1632473"><ele>10.0</ele><time>2026-04-18T14:32:10.306Z</time></trkpt><trkpt lat="43.9933056" lon="8.1631627"><ele>16.333333333333332</ele><time>2026-04-18T14:32:11.306Z</time></trkpt><trkpt lat="43.993091" lon="8.1630795"><ele>22.666666666666664</ele><time>2026-04-18T14:32:12.305Z</time></trkpt><trkpt lat="43.992874" lon="8.1629936"><ele>29.0</ele><time>2026-04-18T14:32:13.306Z</time></trkpt><trkpt lat="43.9926569" lon="8.1629187"><ele>29.0</ele><time>2026-04-18T14:32:14.306Z</time></trkpt><trkpt lat="43.9924439" lon="8.1628601"><ele>29.0</ele><time>2026-04-18T14:32:15.305Z</time></trkpt><trkpt lat="43.9922221" lon="8.1628282"><ele>29.0</ele><time>2026-04-18T14:32:16.306Z</time></trkpt><trkpt lat="43.9919997" lon="8.1628012"><ele>29.0</ele><time>2026-04-18T14:32:17.306Z</time></trkpt><trkpt lat="43.9917916" lon="8.1627742"><ele>29.0</ele><time>2026-04-18T14:32:18.306Z</time></trkpt><trkpt lat="43.9915991" lon="8.1627446"><ele>29.0</ele><time>2026-04-18T14:32:19.306Z</time></trkpt><trkpt lat="43.9914226" lon="8.1627109"><ele>27.666666666666664</ele><time>2026-04-18T14:32:20.306Z</time></trkpt><trkpt lat="43.991257" lon="8.1626715"><ele>26.333333333333336</ele><time>2026-04-18T14:32:21.305Z</time></trkpt><trkpt lat="43.991104" lon="8.1626242"><ele>25.0</ele><time>2026-04-18T14:32:22.306Z</time></trkpt><trkpt lat="43.9909643" lon="8.1625684"><ele>21.5</ele><time>2026-04-18T14:32:23.305Z</time></trkpt><trkpt lat="43.9908362" lon="8.1625167"><ele>18.0</ele><time>2026-04-18T14:32:24.306Z</time></trkpt><trkpt lat="43.9907122" lon="8.1624689"><ele>14.5</ele><time>2026-04-18T14:32:25.307Z</time></trkpt><trkpt lat="43.9905806" lon="8.1624162"><ele>11.0</ele><time>2026-04-18T14:32:26.307Z</time></trkpt><trkpt lat="43.9904332" lon="8.162335"><ele>29.333333333333332</ele><time>2026-04-18T14:32:27.307Z</time></trkpt><trkpt lat="43.9902858" lon="8.1622333"><ele>47.666666666666664</ele><time>2026-04-18T14:32:28.306Z</time></trkpt><trkpt lat="43.99015" lon="8.1621375"><ele>66.0</ele><time>2026-04-18T14:32:29.306Z</time></trkpt><trkpt lat="43.9900216" lon="8.1620506"><ele>56.0</ele><time>2026-04-18T14:32:30.307Z</time></trkpt><trkpt lat="43.9898994" lon="8.1619711"><ele>46.0</ele><time>2026-04-18T14:32:31.306Z</time></trkpt><trkpt lat="43.9897813" lon="8.1619033"><ele>36.0</ele><time>2026-04-18T14:32:32.306Z</time></trkpt><trkpt lat="43.9896744" lon="8.1618385"><ele>26.0</ele><time>2026-04-18T14:32:33.305Z</time></trkpt><trkpt lat="43.9895759" lon="8.1617866"><ele>26.0</ele><time>2026-04-18T14:32:34.306Z</time></trkpt><trkpt lat="43.9894884" lon="8.1617303"><ele>26.0</ele><time>2026-04-18T14:32:35.306Z</time></trkpt><trkpt lat="43.9893952" lon="8.1616829"><ele>26.0</ele><time>2026-04-18T14:32:36.305Z</time></trkpt><trkpt lat="43.9892929" lon="8.1616283"><ele>26.0</ele><time>2026-04-18T14:32:37.314Z</time></trkpt><trkpt lat="43.9891737" lon="8.1615626"><ele>26.0</ele><time>2026-04-18T14:32:38.306Z</time></trkpt><trkpt lat="43.9890566" lon="8.1614988"><ele>28.6</ele><time>2026-04-18T14:32:39.306Z</time></trkpt><trkpt lat="43.9889493" lon="8.1614338"><ele>31.200000000000003</ele><time>2026-04-18T14:32:40.305Z</time></trkpt><trkpt lat="43.9888456" lon="8.1613718"><ele>33.8</ele><time>2026-04-18T14:32:41.305Z</time></trkpt><trkpt lat="43.9887518" lon="8.1613212"><ele>36.4</ele><time>2026-04-18T14:32:42.306Z</time></trkpt><trkpt lat="43.9886606" lon="8.1612749"><ele>39.0</ele><time>2026-04-18T14:32:43.306Z</time></trkpt><trkpt lat="43.9885785" lon="8.1612367"><ele>39.0</ele><time>2026-04-18T14:32:44.306Z</time></trkpt><trkpt lat="43.9884987" lon="8.1612012"><ele>39.0</ele><time>2026-04-18T14:32:45.306Z</time></trkpt><trkpt lat="43.9884195" lon="8.1611526"><ele>39.0</ele><time>2026-04-18T14:32:46.305Z</time></trkpt><trkpt lat="43.9883252" lon="8.1611002"><ele>39.0</ele><time>2026-04-18T14:32:47.306Z</time></trkpt><trkpt lat="43.988229" lon="8.1610458"><ele>39.0</ele><time>2026-04-18T14:32:48.306Z</time></trkpt><trkpt lat="43.9881347" lon="8.1609938"><ele>35.333333333333336</ele><time>2026-04-18T14:32:49.306Z</time></trkpt><trkpt lat="43.9880498" lon="8.1609541"><ele>31.666666666666668</ele><time>2026-04-18T14:32:50.306Z</time></trkpt><trkpt lat="43.9879671" lon="8.160913"><ele>28.0</ele><time>2026-04-18T14:32:51.306Z</time></trkpt><trkpt lat="43.9878935" lon="8.1608757"><ele>24.333333333333336</ele><time>2026-04-18T14:32:52.306Z</time></trkpt><trkpt lat="43.9878141" lon="8.1608283"><ele>20.666666666666668</ele><time>2026-04-18T14:32:53.305Z</time></trkpt><trkpt lat="43.9877347" lon="8.1607786"><ele>17.0</ele><time>2026-04-18T14:32:54.306Z</time></trkpt><trkpt lat="43.9876497" lon="8.1607324"><ele>18.4</ele><time>2026-04-18T14:32:55.305Z</time></trkpt><trkpt lat="43.9875647" lon="8.1606925"><ele>19.799999999999997</ele><time>2026-04-18T14:32:56.306Z</time></trkpt><trkpt lat="43.9874804" lon="8.1606507"><ele>21.2</ele><time>2026-04-18T14:32:57.306Z</time></trkpt><trkpt lat="43.9873968" lon="8.1606079"><ele>22.599999999999998</ele><time>2026-04-18T14:32:58.306Z</time></trkpt><trkpt lat="43.987312" lon="8.1605617"><ele>24.0</ele><time>2026-04-18T14:32:59.306Z</time></trkpt><trkpt lat="43.9872259" lon="8.1605197"><ele>24.0</ele><time>2026-04-18T14:33:00.305Z</time></trkpt><trkpt lat="43.9871447" lon="8.160483"><ele>24.0</ele><time>2026-04-18T14:33:01.306Z</time></trkpt><trkpt lat="43.987074" lon="8.1604489"><ele>24.0</ele><time>2026-04-18T14:33:02.306Z</time></trkpt><trkpt lat="43.9870049" lon="8.1604188"><ele>24.0</ele><time>2026-04-18T14:33:03.306Z</time></trkpt><trkpt lat="43.9869417" lon="8.1603862"><ele>24.0</ele><time>2026-04-18T14:33:04.306Z</time></trkpt><trkpt lat="43.98683" lon="8.1603385"><ele>24.0</ele><time>2026-04-18T14:33:06.306Z</time></trkpt><trkpt lat="43.9867678" lon="8.160309"><ele>24.0</ele><time>2026-04-18T14:33:07.306Z</time></trkpt><trkpt lat="43.986701" lon="8.1602765"><ele>24.0</ele><time>2026-04-18T14:33:08.305Z</time></trkpt><trkpt lat="43.9866336" lon="8.1602493"><ele>24.0</ele><time>2026-04-18T14:33:09.306Z</time></trkpt><trkpt lat="43.9865516" lon="8.1602164"><ele>24.0</ele><time>2026-04-18T14:33:10.306Z</time></trkpt><trkpt lat="43.9864463" lon="8.160187"><ele>24.0</ele><time>2026-04-18T14:33:11.305Z</time></trkpt><trkpt lat="43.986328" lon="8.1601489"><ele>21.8</ele><time>2026-04-18T14:33:12.306Z</time></trkpt><trkpt lat="43.9862169" lon="8.1601003"><ele>19.599999999999998</ele><time>2026-04-18T14:33:13.306Z</time></trkpt><trkpt lat="43.9861239" lon="8.1600609"><ele>17.4</ele><time>2026-04-18T14:33:14.306Z</time></trkpt><trkpt lat="43.9860379" lon="8.1600305"><ele>15.2</ele><time>2026-04-18T14:33:15.306Z</time></trkpt><trkpt lat="43.9859491" lon="8.1600137"><ele>13.0</ele><time>2026-04-18T14:33:16.306Z</time></trkpt><trkpt lat="43.9858414" lon="8.1599912"><ele>11.75</ele><time>2026-04-18T14:33:17.306Z</time></trkpt><trkpt lat="43.9857136" lon="8.1599645"><ele>10.5</ele><time>2026-04-18T14:33:18.306Z</time></trkpt><trkpt lat="43.9855687" lon="8.159931"><ele>9.25</ele><time>2026-04-18T14:33:19.305Z</time></trkpt><trkpt lat="43.9854389" lon="8.1598979"><ele>8.0</ele><time>2026-04-18T14:33:20.305Z</time></trkpt><trkpt lat="43.9853169" lon="8.1598544"><ele>11.25</ele><time>2026-04-18T14:33:21.305Z</time></trkpt><trkpt lat="43.9851932" lon="8.159827"><ele>14.5</ele><time>2026-04-18T14:33:22.306Z</time></trkpt><trkpt lat="43.9850687" lon="8.159795"><ele>17.75</ele><time>2026-04-18T14:33:23.306Z</time></trkpt><trkpt lat="43.9849386" lon="8.1597616"><ele>21.0</ele><time>2026-04-18T14:33:24.306Z</time></trkpt><trkpt lat="43.9848105" lon="8.1597341"><ele>21.0</ele><time>2026-04-18T14:33:25.306Z</time></trkpt><trkpt lat="43.9846882" lon="8.1597024"><ele>21.0</ele><time>2026-04-18T14:33:26.306Z</time></trkpt><trkpt lat="43.9845671" lon="8.1596742"><ele>21.0</ele><time>2026-04-18T14:33:27.305Z</time></trkpt><trkpt lat="43.9844398" lon="8.1596474"><ele>21.0</ele><time>2026-04-18T14:33:28.306Z</time></trkpt><trkpt lat="43.9843059" lon="8.1596263"><ele>18.0</ele><time>2026-04-18T14:33:29.306Z</time></trkpt><trkpt lat="43.9841547" lon="8.1596072"><ele>15.0</ele><time>2026-04-18T14:33:30.305Z</time></trkpt><trkpt lat="43.9839759" lon="8.1595715"><ele>12.0</ele><time>2026-04-18T14:33:31.306Z</time></trkpt><trkpt lat="43.9837911" lon="8.15952"><ele>12.0</ele><time>2026-04-18T14:33:32.306Z</time></trkpt><trkpt lat="43.9836078" lon="8.159452"><ele>12.0</ele><time>2026-04-18T14:33:33.306Z</time></trkpt><trkpt lat="43.9834211" lon="8.1593947"><ele>12.0</ele><time>2026-04-18T14:33:34.306Z</time></trkpt><trkpt lat="43.9832316" lon="8.159346"><ele>11.666666666666666</ele><time>2026-04-18T14:33:35.306Z</time></trkpt><trkpt lat="43.9830531" lon="8.1593038"><ele>11.333333333333332</ele><time>2026-04-18T14:33:36.306Z</time></trkpt><trkpt lat="43.9828784" lon="8.1592636"><ele>11.0</ele><time>2026-04-18T14:33:37.306Z</time></trkpt><trkpt lat="43.9827156" lon="8.1592253"><ele>11.0</ele><time>2026-04-18T14:33:38.305Z</time></trkpt><trkpt lat="43.9825678" lon="8.1591904"><ele>11.0</ele><time>2026-04-18T14:33:39.306Z</time></trkpt><trkpt lat="43.9824403" lon="8.1591609"><ele>11.0</ele><time>2026-04-18T14:33:40.305Z</time></trkpt><trkpt lat="43.9823189" lon="8.1591262"><ele>11.0</ele><time>2026-04-18T14:33:41.307Z</time></trkpt><trkpt lat="43.9822015" lon="8.1590953"><ele>10.600000000000001</ele><time>2026-04-18T14:33:42.307Z</time></trkpt><trkpt lat="43.9820891" lon="8.1590696"><ele>10.200000000000001</ele><time>2026-04-18T14:33:43.307Z</time></trkpt><trkpt lat="43.98198" lon="8.1590482"><ele>9.8</ele><time>2026-04-18T14:33:44.307Z</time></trkpt><trkpt lat="43.9818817" lon="8.1590289"><ele>9.4</ele><time>2026-04-18T14:33:45.307Z</time></trkpt><trkpt lat="43.9817809" lon="8.1590096"><ele>9.0</ele><time>2026-04-18T14:33:46.307Z</time></trkpt><trkpt lat="43.981661" lon="8.1589932"><ele>11.75</ele><time>2026-04-18T14:33:47.307Z</time></trkpt><trkpt lat="43.9815216" lon="8.1589785"><ele>14.5</ele><time>2026-04-18T14:33:48.307Z</time></trkpt><trkpt lat="43.9813666" lon="8.1589394"><ele>17.25</ele><time>2026-04-18T14:33:49.307Z</time></trkpt><trkpt lat="43.9812272" lon="8.1588943"><ele>20.0</ele><time>2026-04-18T14:33:50.307Z</time></trkpt><trkpt lat="43.9811111" lon="8.1588392"><ele>20.0</ele><time>2026-04-18T14:33:51.306Z</time></trkpt><trkpt lat="43.9810118" lon="8.1587739"><ele>20.0</ele><time>2026-04-18T14:33:52.307Z</time></trkpt><trkpt lat="43.9809211" lon="8.1587161"><ele>20.0</ele><time>2026-04-18T14:33:53.307Z</time></trkpt><trkpt lat="43.980832" lon="8.1586656"><ele>20.0</ele><time>2026-04-18T14:33:54.307Z</time></trkpt><trkpt lat="43.9807475" lon="8.1586285"><ele>20.0</ele><time>2026-04-18T14:33:55.307Z</time></trkpt><trkpt lat="43.9806714" lon="8.1586027"><ele>18.333333333333336</ele><time>2026-04-18T14:33:56.307Z</time></trkpt><trkpt lat="43.9806047" lon="8.1585788"><ele>16.666666666666668</ele><time>2026-04-18T14:33:57.307Z</time></trkpt><trkpt lat="43.9805362" lon="8.1585479"><ele>15.0</ele><time>2026-04-18T14:33:58.307Z</time></trkpt><trkpt lat="43.9804742" lon="8.158525"><ele>13.333333333333334</ele><time>2026-04-18T14:33:59.307Z</time></trkpt><trkpt lat="43.9803472" lon="8.1584867"><ele>11.666666666666668</ele><time>2026-04-18T14:34:01.307Z</time></trkpt><trkpt lat="43.9802698" lon="8.158469"><ele>10.0</ele><time>2026-04-18T14:34:02.307Z</time></trkpt><trkpt lat="43.9801746" lon="8.1584462"><ele>10.0</ele><time>2026-04-18T14:34:03.307Z</time></trkpt><trkpt lat="43.9800637" lon="8.1584106"><ele>10.0</ele><time>2026-04-18T14:34:04.307Z</time></trkpt><trkpt lat="43.9799578" lon="8.15838"><ele>10.0</ele><time>2026-04-18T14:34:05.307Z</time></trkpt><trkpt lat="43.9798662" lon="8.1583502"><ele>10.0</ele><time>2026-04-18T14:34:06.307Z</time></trkpt><trkpt lat="43.9797903" lon="8.1583288"><ele>10.0</ele><time>2026-04-18T14:34:07.307Z</time></trkpt><trkpt lat="43.9797133" lon="8.1583056"><ele>10.0</ele><time>2026-04-18T14:34:08.306Z</time></trkpt><trkpt lat="43.9796358" lon="8.1582783"><ele>10.0</ele><time>2026-04-18T14:34:09.307Z</time></trkpt><trkpt lat="43.9795547" lon="8.1582511"><ele>10.0</ele><time>2026-04-18T14:34:10.307Z</time></trkpt><trkpt lat="43.979468" lon="8.158225"><ele>10.0</ele><time>2026-04-18T14:34:11.307Z</time></trkpt><trkpt lat="43.9793651" lon="8.1581919"><ele>10.0</ele><time>2026-04-18T14:34:12.307Z</time></trkpt><trkpt lat="43.9792433" lon="8.1581625"><ele>12.75</ele><time>2026-04-18T14:34:13.307Z</time></trkpt><trkpt lat="43.9791052" lon="8.158119"><ele>15.5</ele><time>2026-04-18T14:34:14.307Z</time></trkpt><trkpt lat="43.9789782" lon="8.1580574"><ele>18.25</ele><time>2026-04-18T14:34:15.307Z</time></trkpt><trkpt lat="43.9788707" lon="8.1580271"><ele>21.0</ele><time>2026-04-18T14:34:16.307Z</time></trkpt><trkpt lat="43.9787767" lon="8.1580059"><ele>21.0</ele><time>2026-04-18T14:34:17.307Z</time></trkpt><trkpt lat="43.9787019" lon="8.157985"><ele>21.0</ele><time>2026-04-18T14:34:18.307Z</time></trkpt><trkpt lat="43.9786294" lon="8.1579695"><ele>21.0</ele><time>2026-04-18T14:34:19.307Z</time></trkpt><trkpt lat="43.978551" lon="8.1579429"><ele>21.0</ele><time>2026-04-18T14:34:20.306Z</time></trkpt><trkpt lat="43.9784738" lon="8.157915"><ele>21.0</ele><time>2026-04-18T14:34:21.307Z</time></trkpt><trkpt lat="43.9784023" lon="8.157893"><ele>21.0</ele><time>2026-04-18T14:34:22.307Z</time></trkpt><trkpt lat="43.978328" lon="8.1578697"><ele>19.333333333333332</ele><time>2026-04-18T14:34:23.307Z</time></trkpt><trkpt lat="43.9782542" lon="8.1578502"><ele>17.666666666666668</ele><time>2026-04-18T14:34:24.307Z</time></trkpt><trkpt lat="43.9781817" lon="8.1578245"><ele>16.0</ele><time>2026-04-18T14:34:25.307Z</time></trkpt><trkpt lat="43.9781071" lon="8.1577998"><ele>14.333333333333332</ele><time>2026-04-18T14:34:26.306Z</time></trkpt><trkpt lat="43.9780316" lon="8.1577793"><ele>12.666666666666666</ele><time>2026-04-18T14:34:27.306Z</time></trkpt><trkpt lat="43.9779578" lon="8.1577655"><ele>11.0</ele><time>2026-04-18T14:34:28.306Z</time></trkpt><trkpt lat="43.9778837" lon="8.1577545"><ele>11.0</ele><time>2026-04-18T14:34:29.307Z</time></trkpt><trkpt lat="43.9778078" lon="8.1577501"><ele>11.0</ele><time>2026-04-18T14:34:30.307Z</time></trkpt><trkpt lat="43.9777286" lon="8.1577619"><ele>11.0</ele><time>2026-04-18T14:34:31.306Z</time></trkpt><trkpt lat="43.9776376" lon="8.1577896"><ele>11.0</ele><time>2026-04-18T14:34:32.307Z</time></trkpt><trkpt lat="43.9775234" lon="8.1578221"><ele>11.0</ele><time>2026-04-18T14:34:33.306Z</time></trkpt><trkpt lat="43.9773889" lon="8.1578418"><ele>11.0</ele><time>2026-04-18T14:34:34.307Z</time></trkpt><trkpt lat="43.9772495" lon="8.1578523"><ele>11.0</ele><time>2026-04-18T14:34:35.307Z</time></trkpt><trkpt lat="43.9771048" lon="8.1578799"><ele>11.0</ele><time>2026-04-18T14:34:36.307Z</time></trkpt><trkpt lat="43.9769632" lon="8.1578996"><ele>11.0</ele><time>2026-04-18T14:34:37.307Z</time></trkpt><trkpt lat="43.9768254" lon="8.1579224"><ele>11.0</ele><time>2026-04-18T14:34:38.307Z</time></trkpt><trkpt lat="43.976683" lon="8.1579496"><ele>11.0</ele><time>2026-04-18T14:34:39.306Z</time></trkpt><trkpt lat="43.9765465" lon="8.1579689"><ele>11.0</ele><time>2026-04-18T14:34:40.306Z</time></trkpt><trkpt lat="43.9764283" lon="8.1579913"><ele>11.0</ele><time>2026-04-18T14:34:41.307Z</time></trkpt><trkpt lat="43.9763177" lon="8.1580171"><ele>11.0</ele><time>2026-04-18T14:34:42.307Z</time></trkpt><trkpt lat="43.9762004" lon="8.1580377"><ele>11.0</ele><time>2026-04-18T14:34:43.306Z</time></trkpt><trkpt lat="43.9760882" lon="8.1580641"><ele>11.0</ele><time>2026-04-18T14:34:44.306Z</time></trkpt><trkpt lat="43.9759802" lon="8.1580771"><ele>11.0</ele><time>2026-04-18T14:34:45.306Z</time></trkpt><trkpt lat="43.9758805" lon="8.1580963"><ele>11.0</ele><time>2026-04-18T14:34:46.307Z</time></trkpt><trkpt lat="43.9757929" lon="8.1581119"><ele>11.0</ele><time>2026-04-18T14:34:47.307Z</time></trkpt><trkpt lat="43.9757005" lon="8.1581281"><ele>11.0</ele><time>2026-04-18T14:34:48.307Z</time></trkpt><trkpt lat="43.9756158" lon="8.1581435"><ele>11.0</ele><time>2026-04-18T14:34:49.307Z</time></trkpt><trkpt lat="43.9755268" lon="8.1581645"><ele>11.0</ele><time>2026-04-18T14:34:50.307Z</time></trkpt><trkpt lat="43.9754366" lon="8.158179"><ele>11.0</ele><time>2026-04-18T14:34:51.307Z</time></trkpt><trkpt lat="43.9753478" lon="8.1581933"><ele>11.0</ele><time>2026-04-18T14:34:52.307Z</time></trkpt><trkpt lat="43.9752519" lon="8.1582297"><ele>10.8</ele><time>2026-04-18T14:34:53.307Z</time></trkpt><trkpt lat="43.9751631" lon="8.1582828"><ele>10.600000000000001</ele><time>2026-04-18T14:34:54.307Z</time></trkpt><trkpt lat="43.975078" lon="8.1583488"><ele>10.4</ele><time>2026-04-18T14:34:55.307Z</time></trkpt><trkpt lat="43.9750144" lon="8.1584452"><ele>10.2</ele><time>2026-04-18T14:34:56.307Z</time></trkpt><trkpt lat="43.9749534" lon="8.1585455"><ele>10.0</ele><time>2026-04-18T14:34:57.306Z</time></trkpt><trkpt lat="43.9748985" lon="8.1586457"><ele>10.0</ele><time>2026-04-18T14:34:58.307Z</time></trkpt><trkpt lat="43.9748529" lon="8.1587487"><ele>10.0</ele><time>2026-04-18T14:34:59.307Z</time></trkpt><trkpt lat="43.9748007" lon="8.1588436"><ele>10.0</ele><time>2026-04-18T14:35:00.307Z</time></trkpt><trkpt lat="43.9747513" lon="8.158936"><ele>10.0</ele><time>2026-04-18T14:35:01.307Z</time></trkpt><trkpt lat="43.9746979" lon="8.1590257"><ele>10.0</ele><time>2026-04-18T14:35:02.307Z</time></trkpt><trkpt lat="43.9746377" lon="8.1591151"><ele>10.0</ele><time>2026-04-18T14:35:03.307Z</time></trkpt><trkpt lat="43.974571" lon="8.159196"><ele>9.333333333333334</ele><time>2026-04-18T14:35:04.307Z</time></trkpt><trkpt lat="43.9745026" lon="8.1592662"><ele>8.666666666666668</ele><time>2026-04-18T14:35:05.306Z</time></trkpt><trkpt lat="43.9744285" lon="8.1593266"><ele>8.0</ele><time>2026-04-18T14:35:06.307Z</time></trkpt><trkpt lat="43.9743498" lon="8.1593726"><ele>7.333333333333334</ele><time>2026-04-18T14:35:07.307Z</time></trkpt><trkpt lat="43.9742679" lon="8.1594117"><ele>6.666666666666667</ele><time>2026-04-18T14:35:08.307Z</time></trkpt><trkpt lat="43.9741858" lon="8.159442"><ele>6.0</ele><time>2026-04-18T14:35:09.307Z</time></trkpt><trkpt lat="43.9740984" lon="8.1594744"><ele>6.0</ele><time>2026-04-18T14:35:10.307Z</time></trkpt><trkpt lat="43.9740139" lon="8.1595008"><ele>6.0</ele><time>2026-04-18T14:35:11.306Z</time></trkpt><trkpt lat="43.9739283" lon="8.1595252"><ele>6.0</ele><time>2026-04-18T14:35:12.307Z</time></trkpt><trkpt lat="43.9738484" lon="8.1595453"><ele>6.0</ele><time>2026-04-18T14:35:13.307Z</time></trkpt><trkpt lat="43.973767" lon="8.1595681"><ele>6.0</ele><time>2026-04-18T14:35:14.307Z</time></trkpt><trkpt lat="43.973684" lon="8.159588"><ele>6.0</ele><time>2026-04-18T14:35:15.307Z</time></trkpt><trkpt lat="43.9735962" lon="8.1596105"><ele>6.0</ele><time>2026-04-18T14:35:16.306Z</time></trkpt><trkpt lat="43.9735057" lon="8.1596335"><ele>6.0</ele><time>2026-04-18T14:35:17.306Z</time></trkpt><trkpt lat="43.9734086" lon="8.1596574"><ele>6.0</ele><time>2026-04-18T14:35:18.306Z</time></trkpt><trkpt lat="43.9733147" lon="8.1596805"><ele>6.0</ele><time>2026-04-18T14:35:19.307Z</time></trkpt><trkpt lat="43.9732164" lon="8.1597018"><ele>6.0</ele><time>2026-04-18T14:35:20.307Z</time></trkpt><trkpt lat="43.9731229" lon="8.1597309"><ele>5.8</ele><time>2026-04-18T14:35:21.307Z</time></trkpt><trkpt lat="43.9730295" lon="8.1597604"><ele>5.6</ele><time>2026-04-18T14:35:22.307Z</time></trkpt><trkpt lat="43.972939" lon="8.1597827"><ele>5.4</ele><time>2026-04-18T14:35:23.307Z</time></trkpt><trkpt lat="43.9728429" lon="8.1598037"><ele>5.2</ele><time>2026-04-18T14:35:24.307Z</time></trkpt><trkpt lat="43.9727476" lon="8.1598262"><ele>5.0</ele><time>2026-04-18T14:35:25.306Z</time></trkpt><trkpt lat="43.9726548" lon="8.1598481"><ele>4.6</ele><time>2026-04-18T14:35:26.307Z</time></trkpt><trkpt lat="43.9725628" lon="8.1598718"><ele>4.2</ele><time>2026-04-18T14:35:27.306Z</time></trkpt><trkpt lat="43.9724712" lon="8.1599035"><ele>3.8</ele><time>2026-04-18T14:35:28.307Z</time></trkpt><trkpt lat="43.9723767" lon="8.1599297"><ele>3.4</ele><time>2026-04-18T14:35:29.306Z</time></trkpt><trkpt lat="43.9722824" lon="8.1599555"><ele>3.0</ele><time>2026-04-18T14:35:30.307Z</time></trkpt><trkpt lat="43.9721851" lon="8.1599976"><ele>3.0</ele><time>2026-04-18T14:35:31.307Z</time></trkpt><trkpt lat="43.9720926" lon="8.1600357"><ele>3.0</ele><time>2026-04-18T14:35:32.307Z</time></trkpt><trkpt lat="43.9720037" lon="8.1600821"><ele>3.0</ele><time>2026-04-18T14:35:33.308Z</time></trkpt><trkpt lat="43.9719177" lon="8.1601372"><ele>3.0</ele><time>2026-04-18T14:35:34.307Z</time></trkpt><trkpt lat="43.9718196" lon="8.1602017"><ele>3.0</ele><time>2026-04-18T14:35:35.307Z</time></trkpt><trkpt lat="43.9716988" lon="8.1602734"><ele>4.0</ele><time>2026-04-18T14:35:36.308Z</time></trkpt><trkpt lat="43.9715505" lon="8.1603476"><ele>5.0</ele><time>2026-04-18T14:35:37.308Z</time></trkpt><trkpt lat="43.9713917" lon="8.1604167"><ele>6.0</ele><time>2026-04-18T14:35:38.308Z</time></trkpt><trkpt lat="43.9712282" lon="8.1604913"><ele>6.0</ele><time>2026-04-18T14:35:39.308Z</time></trkpt><trkpt lat="43.9710584" lon="8.1605742"><ele>6.0</ele><time>2026-04-18T14:35:40.308Z</time></trkpt><trkpt lat="43.9708861" lon="8.1606683"><ele>6.0</ele><time>2026-04-18T14:35:41.308Z</time></trkpt><trkpt lat="43.9706914" lon="8.1607527"><ele>6.333333333333334</ele><time>2026-04-18T14:35:42.308Z</time></trkpt><trkpt lat="43.9704884" lon="8.1608275"><ele>6.666666666666667</ele><time>2026-04-18T14:35:43.307Z</time></trkpt><trkpt lat="43.9702822" lon="8.1608962"><ele>7.0</ele><time>2026-04-18T14:35:44.308Z</time></trkpt><trkpt lat="43.9700801" lon="8.1609794"><ele>10.0</ele><time>2026-04-18T14:35:45.308Z</time></trkpt><trkpt lat="43.9698885" lon="8.1610908"><ele>13.0</ele><time>2026-04-18T14:35:46.308Z</time></trkpt><trkpt lat="43.9697244" lon="8.1612189"><ele>16.0</ele><time>2026-04-18T14:35:47.307Z</time></trkpt><trkpt lat="43.9695826" lon="8.1613535"><ele>16.0</ele><time>2026-04-18T14:35:48.307Z</time></trkpt><trkpt lat="43.9694555" lon="8.1615076"><ele>16.0</ele><time>2026-04-18T14:35:49.307Z</time></trkpt><trkpt lat="43.9693407" lon="8.1616583"><ele>16.0</ele><time>2026-04-18T14:35:50.308Z</time></trkpt><trkpt lat="43.9692316" lon="8.1617957"><ele>14.5</ele><time>2026-04-18T14:35:51.308Z</time></trkpt><trkpt lat="43.9691277" lon="8.1619334"><ele>13.0</ele><time>2026-04-18T14:35:52.308Z</time></trkpt><trkpt lat="43.9690237" lon="8.1620666"><ele>11.5</ele><time>2026-04-18T14:35:53.308Z</time></trkpt><trkpt lat="43.9689193" lon="8.1622115"><ele>10.0</ele><time>2026-04-18T14:35:54.308Z</time></trkpt><trkpt lat="43.968834" lon="8.1623896"><ele>10.0</ele><time>2026-04-18T14:35:55.308Z</time></trkpt><trkpt lat="43.9687639" lon="8.1625589"><ele>10.0</ele><time>2026-04-18T14:35:56.308Z</time></trkpt><trkpt lat="43.9686877" lon="8.16273"><ele>10.0</ele><time>2026-04-18T14:35:57.308Z</time></trkpt><trkpt lat="43.968616" lon="8.1629035"><ele>10.0</ele><time>2026-04-18T14:35:58.308Z</time></trkpt><trkpt lat="43.9685435" lon="8.1630693"><ele>8.0</ele><time>2026-04-18T14:35:59.308Z</time></trkpt><trkpt lat="43.968463" lon="8.1632129"><ele>6.0</ele><time>2026-04-18T14:36:00.308Z</time></trkpt><trkpt lat="43.9683803" lon="8.1633222"><ele>4.0</ele><time>2026-04-18T14:36:01.308Z</time></trkpt><trkpt lat="43.9683009" lon="8.1634291"><ele>2.0</ele><time>2026-04-18T14:36:02.308Z</time></trkpt><trkpt lat="43.968223" lon="8.1635266"><ele>8.0</ele><time>2026-04-18T14:36:03.308Z</time></trkpt><trkpt lat="43.9681394" lon="8.1636224"><ele>14.0</ele><time>2026-04-18T14:36:04.308Z</time></trkpt><trkpt lat="43.9680556" lon="8.1637186"><ele>20.0</ele><time>2026-04-18T14:36:05.308Z</time></trkpt><trkpt lat="43.9679595" lon="8.163818"><ele>26.0</ele><time>2026-04-18T14:36:06.308Z</time></trkpt><trkpt lat="43.9678575" lon="8.1639052"><ele>26.0</ele><time>2026-04-18T14:36:07.308Z</time></trkpt><trkpt lat="43.9677445" lon="8.1639842"><ele>26.0</ele><time>2026-04-18T14:36:08.308Z</time></trkpt><trkpt lat="43.9676208" lon="8.1640464"><ele>26.0</ele><time>2026-04-18T14:36:09.308Z</time></trkpt><trkpt lat="43.9674944" lon="8.1641023"><ele>26.0</ele><time>2026-04-18T14:36:10.308Z</time></trkpt><trkpt lat="43.9673729" lon="8.164151"><ele>25.25</ele><time>2026-04-18T14:36:11.308Z</time></trkpt><trkpt lat="43.967251" lon="8.1641962"><ele>24.5</ele><time>2026-04-18T14:36:12.308Z</time></trkpt><trkpt lat="43.9671332" lon="8.1642575"><ele>23.75</ele><time>2026-04-18T14:36:13.308Z</time></trkpt><trkpt lat="43.967021" lon="8.1643286"><ele>23.0</ele><time>2026-04-18T14:36:14.308Z</time></trkpt><trkpt lat="43.9669172" lon="8.1644252"><ele>23.0</ele><time>2026-04-18T14:36:15.308Z</time></trkpt><trkpt lat="43.9668196" lon="8.1645392"><ele>23.0</ele><time>2026-04-18T14:36:16.307Z</time></trkpt><trkpt lat="43.9667192" lon="8.1646551"><ele>23.0</ele><time>2026-04-18T14:36:17.308Z</time></trkpt><trkpt lat="43.9666079" lon="8.1647556"><ele>23.0</ele><time>2026-04-18T14:36:18.308Z</time></trkpt><trkpt lat="43.9664968" lon="8.1648301"><ele>22.5</ele><time>2026-04-18T14:36:19.307Z</time></trkpt><trkpt lat="43.9663777" lon="8.164884"><ele>22.0</ele><time>2026-04-18T14:36:20.307Z</time></trkpt><trkpt lat="43.9662589" lon="8.1649431"><ele>21.5</ele><time>2026-04-18T14:36:21.307Z</time></trkpt><trkpt lat="43.9661373" lon="8.1650068"><ele>21.0</ele><time>2026-04-18T14:36:22.308Z</time></trkpt><trkpt lat="43.9660155" lon="8.165092"><ele>21.0</ele><time>2026-04-18T14:36:23.308Z</time></trkpt><trkpt lat="43.9658895" lon="8.165216"><ele>21.0</ele><time>2026-04-18T14:36:24.308Z</time></trkpt><trkpt lat="43.9657613" lon="8.165387"><ele>21.0</ele><time>2026-04-18T14:36:25.307Z</time></trkpt><trkpt lat="43.965624" lon="8.1655569"><ele>20.0</ele><time>2026-04-18T14:36:26.308Z</time></trkpt><trkpt lat="43.9654711" lon="8.16567"><ele>19.0</ele><time>2026-04-18T14:36:27.308Z</time></trkpt><trkpt lat="43.965301" lon="8.1657435"><ele>18.0</ele><time>2026-04-18T14:36:28.308Z</time></trkpt><trkpt lat="43.9651228" lon="8.1658181"><ele>29.666666666666668</ele><time>2026-04-18T14:36:29.308Z</time></trkpt><trkpt lat="43.9649478" lon="8.1659259"><ele>41.333333333333336</ele><time>2026-04-18T14:36:30.308Z</time></trkpt><trkpt lat="43.9647756" lon="8.1660667"><ele>53.0</ele><time>2026-04-18T14:36:31.308Z</time></trkpt><trkpt lat="43.9646171" lon="8.1661923"><ele>53.0</ele><time>2026-04-18T14:36:32.308Z</time></trkpt><trkpt lat="43.9644597" lon="8.1663007"><ele>53.0</ele><time>2026-04-18T14:36:33.307Z</time></trkpt><trkpt lat="43.9643185" lon="8.1663996"><ele>53.0</ele><time>2026-04-18T14:36:34.308Z</time></trkpt><trkpt lat="43.9641886" lon="8.1664852"><ele>50.0</ele><time>2026-04-18T14:36:35.308Z</time></trkpt><trkpt lat="43.9640601" lon="8.1665556"><ele>47.0</ele><time>2026-04-18T14:36:36.308Z</time></trkpt><trkpt lat="43.9639255" lon="8.166616"><ele>44.0</ele><time>2026-04-18T14:36:37.308Z</time></trkpt><trkpt lat="43.9637978" lon="8.1666665"><ele>41.0</ele><time>2026-04-18T14:36:38.308Z</time></trkpt><trkpt lat="43.9636706" lon="8.1667104"><ele>41.0</ele><time>2026-04-18T14:36:39.308Z</time></trkpt><trkpt lat="43.9635474" lon="8.1667427"><ele>41.0</ele><time>2026-04-18T14:36:40.308Z</time></trkpt><trkpt lat="43.9634259" lon="8.1667655"><ele>41.0</ele><time>2026-04-18T14:36:41.307Z</time></trkpt><trkpt lat="43.9633058" lon="8.1668162"><ele>41.0</ele><time>2026-04-18T14:36:42.308Z</time></trkpt><trkpt lat="43.9631789" lon="8.1668582"><ele>49.0</ele><time>2026-04-18T14:36:43.307Z</time></trkpt><trkpt lat="43.9630507" lon="8.1669086"><ele>57.0</ele><time>2026-04-18T14:36:44.308Z</time></trkpt><trkpt lat="43.9629291" lon="8.1670002"><ele>65.0</ele><time>2026-04-18T14:36:45.308Z</time></trkpt><trkpt lat="43.9628108" lon="8.1670914"><ele>73.0</ele><time>2026-04-18T14:36:46.308Z</time></trkpt><trkpt lat="43.9626977" lon="8.1671681"><ele>73.0</ele><time>2026-04-18T14:36:47.308Z</time></trkpt><trkpt lat="43.9625945" lon="8.1672388"><ele>73.0</ele><time>2026-04-18T14:36:48.308Z</time></trkpt><trkpt lat="43.9624975" lon="8.1673358"><ele>73.0</ele><time>2026-04-18T14:36:49.308Z</time></trkpt><trkpt lat="43.9624028" lon="8.1675562"><ele>73.0</ele><time>2026-04-18T14:36:50.305Z</time></trkpt><trkpt lat="43.962295" lon="8.1677477"><ele>68.0</ele><time>2026-04-18T14:36:51.308Z</time></trkpt><trkpt lat="43.9621872" lon="8.167957"><ele>63.0</ele><time>2026-04-18T14:36:52.308Z</time></trkpt><trkpt lat="43.9620926" lon="8.1681418"><ele>58.0</ele><time>2026-04-18T14:36:53.308Z</time></trkpt><trkpt lat="43.9620042" lon="8.1682827"><ele>65.5</ele><time>2026-04-18T14:36:54.308Z</time></trkpt><trkpt lat="43.9619184" lon="8.1684195"><ele>73.0</ele><time>2026-04-18T14:36:55.308Z</time></trkpt><trkpt lat="43.9618266" lon="8.1685551"><ele>80.5</ele><time>2026-04-18T14:36:56.308Z</time></trkpt><trkpt lat="43.9617238" lon="8.1686862"><ele>88.0</ele><time>2026-04-18T14:36:57.308Z</time></trkpt><trkpt lat="43.9616114" lon="8.1688152"><ele>88.0</ele><time>2026-04-18T14:36:58.307Z</time></trkpt><trkpt lat="43.9614982" lon="8.1689339"><ele>88.0</ele><time>2026-04-18T14:36:59.315Z</time></trkpt><trkpt lat="43.9613797" lon="8.1690488"><ele>88.0</ele><time>2026-04-18T14:37:00.307Z</time></trkpt><trkpt lat="43.9612477" lon="8.1691634"><ele>88.0</ele><time>2026-04-18T14:37:01.308Z</time></trkpt><trkpt lat="43.9610857" lon="8.1692925"><ele>89.66666666666666</ele><time>2026-04-18T14:37:02.308Z</time></trkpt><trkpt lat="43.9609183" lon="8.1694369"><ele>91.33333333333333</ele><time>2026-04-18T14:37:03.307Z</time></trkpt><trkpt lat="43.960745" lon="8.1695828"><ele>93.0</ele><time>2026-04-18T14:37:04.308Z</time></trkpt><trkpt lat="43.9605729" lon="8.1697244"><ele>75.66666666666667</ele><time>2026-04-18T14:37:05.308Z</time></trkpt><trkpt lat="43.9604216" lon="8.1698999"><ele>58.33333333333333</ele><time>2026-04-18T14:37:06.307Z</time></trkpt><trkpt lat="43.9602834" lon="8.1701039"><ele>41.0</ele><time>2026-04-18T14:37:07.308Z</time></trkpt><trkpt lat="43.96014" lon="8.1703104"><ele>49.0</ele><time>2026-04-18T14:37:08.308Z</time></trkpt><trkpt lat="43.9599797" lon="8.1705125"><ele>57.0</ele><time>2026-04-18T14:37:09.308Z</time></trkpt><trkpt lat="43.9598125" lon="8.1707196"><ele>65.0</ele><time>2026-04-18T14:37:10.308Z</time></trkpt><trkpt lat="43.9596598" lon="8.1709382"><ele>65.0</ele><time>2026-04-18T14:37:11.307Z</time></trkpt><trkpt lat="43.9595047" lon="8.1711512"><ele>65.0</ele><time>2026-04-18T14:37:12.307Z</time></trkpt><trkpt lat="43.959316" lon="8.1713314"><ele>65.0</ele><time>2026-04-18T14:37:13.308Z</time></trkpt><trkpt lat="43.959165" lon="8.1715388"><ele>69.66666666666667</ele><time>2026-04-18T14:37:14.308Z</time></trkpt><trkpt lat="43.9590613" lon="8.1718378"><ele>74.33333333333333</ele><time>2026-04-18T14:37:15.308Z</time></trkpt><trkpt lat="43.9589542" lon="8.1720654"><ele>79.0</ele><time>2026-04-18T14:37:16.308Z</time></trkpt><trkpt lat="43.958813" lon="8.1722224"><ele>65.33333333333333</ele><time>2026-04-18T14:37:17.307Z</time></trkpt><trkpt lat="43.9587085" lon="8.172406"><ele>51.666666666666664</ele><time>2026-04-18T14:37:18.307Z</time></trkpt><trkpt lat="43.9586022" lon="8.1725748"><ele>38.0</ele><time>2026-04-18T14:37:19.308Z</time></trkpt><trkpt lat="43.9584692" lon="8.1726742"><ele>52.666666666666664</ele><time>2026-04-18T14:37:20.307Z</time></trkpt><trkpt lat="43.9583303" lon="8.1727314"><ele>67.33333333333333</ele><time>2026-04-18T14:37:21.308Z</time></trkpt><trkpt lat="43.958172" lon="8.1727427"><ele>82.0</ele><time>2026-04-18T14:37:22.308Z</time></trkpt><trkpt lat="43.9579886" lon="8.17274"><ele>82.0</ele><time>2026-04-18T14:37:23.308Z</time></trkpt><trkpt lat="43.9577983" lon="8.1727717"><ele>82.0</ele><time>2026-04-18T14:37:24.308Z</time></trkpt><trkpt lat="43.9576014" lon="8.172833"><ele>82.0</ele><time>2026-04-18T14:37:25.309Z</time></trkpt><trkpt lat="43.9574198" lon="8.1729198"><ele>86.66666666666666</ele><time>2026-04-18T14:37:26.309Z</time></trkpt><trkpt lat="43.9572394" lon="8.1729831"><ele>91.33333333333333</ele><time>2026-04-18T14:37:27.309Z</time></trkpt><trkpt lat="43.9570406" lon="8.1730033"><ele>96.0</ele><time>2026-04-18T14:37:28.309Z</time></trkpt><trkpt lat="43.9568297" lon="8.1730013"><ele>97.66666666666666</ele><time>2026-04-18T14:37:29.309Z</time></trkpt><trkpt lat="43.9566357" lon="8.1729345"><ele>99.33333333333333</ele><time>2026-04-18T14:37:30.308Z</time></trkpt><trkpt lat="43.9564383" lon="8.1728557"><ele>101.0</ele><time>2026-04-18T14:37:31.309Z</time></trkpt><trkpt lat="43.956257" lon="8.1727317"><ele>101.0</ele><time>2026-04-18T14:37:32.309Z</time></trkpt><trkpt lat="43.9560704" lon="8.1726382"><ele>101.0</ele><time>2026-04-18T14:37:33.309Z</time></trkpt><trkpt lat="43.9558674" lon="8.1725595"><ele>101.0</ele><time>2026-04-18T14:37:34.309Z</time></trkpt><trkpt lat="43.9556482" lon="8.1725524"><ele>105.33333333333333</ele><time>2026-04-18T14:37:35.309Z</time></trkpt><trkpt lat="43.9554479" lon="8.1725266"><ele>109.66666666666666</ele><time>2026-04-18T14:37:36.308Z</time></trkpt><trkpt lat="43.9552677" lon="8.1724646"><ele>114.0</ele><time>2026-04-18T14:37:37.309Z</time></trkpt><trkpt lat="43.9551033" lon="8.172336"><ele>103.33333333333333</ele><time>2026-04-18T14:37:38.309Z</time></trkpt><trkpt lat="43.9549534" lon="8.1721611"><ele>92.66666666666666</ele><time>2026-04-18T14:37:39.308Z</time></trkpt><trkpt lat="43.9548176" lon="8.171986"><ele>82.0</ele><time>2026-04-18T14:37:40.308Z</time></trkpt><trkpt lat="43.9546893" lon="8.1718276"><ele>82.0</ele><time>2026-04-18T14:37:41.309Z</time></trkpt><trkpt lat="43.9545705" lon="8.1716607"><ele>82.0</ele><time>2026-04-18T14:37:42.308Z</time></trkpt><trkpt lat="43.9545012" lon="8.1714237"><ele>82.0</ele><time>2026-04-18T14:37:43.309Z</time></trkpt><trkpt lat="43.954435" lon="8.1711664"><ele>84.66666666666666</ele><time>2026-04-18T14:37:44.308Z</time></trkpt><trkpt lat="43.9543627" lon="8.1708965"><ele>87.33333333333333</ele><time>2026-04-18T14:37:45.308Z</time></trkpt><trkpt lat="43.9542906" lon="8.1706299"><ele>90.0</ele><time>2026-04-18T14:37:46.309Z</time></trkpt><trkpt lat="43.9542311" lon="8.1703627"><ele>81.33333333333333</ele><time>2026-04-18T14:37:47.309Z</time></trkpt><trkpt lat="43.9541922" lon="8.1700828"><ele>72.66666666666666</ele><time>2026-04-18T14:37:48.309Z</time></trkpt><trkpt lat="43.9541674" lon="8.1697986"><ele>64.0</ele><time>2026-04-18T14:37:49.309Z</time></trkpt><trkpt lat="43.9541496" lon="8.1695445"><ele>64.0</ele><time>2026-04-18T14:37:50.309Z</time></trkpt><trkpt lat="43.9541251" lon="8.1693045"><ele>64.0</ele><time>2026-04-18T14:37:51.309Z</time></trkpt><trkpt lat="43.9540616" lon="8.1691036"><ele>64.0</ele><time>2026-04-18T14:37:52.309Z</time></trkpt><trkpt lat="43.9539443" lon="8.1689385"><ele>70.66666666666666</ele><time>2026-04-18T14:37:53.309Z</time></trkpt><trkpt lat="43.9538088" lon="8.1687911"><ele>77.33333333333333</ele><time>2026-04-18T14:37:54.309Z</time></trkpt><trkpt lat="43.9536737" lon="8.1686873"><ele>84.0</ele><time>2026-04-18T14:37:55.309Z</time></trkpt><trkpt lat="43.9535472" lon="8.1685829"><ele>84.0</ele><time>2026-04-18T14:37:56.309Z</time></trkpt><trkpt lat="43.9534334" lon="8.1684753"><ele>84.0</ele><time>2026-04-18T14:37:57.309Z</time></trkpt><trkpt lat="43.9533344" lon="8.1683487"><ele>84.0</ele><time>2026-04-18T14:37:58.309Z</time></trkpt><trkpt lat="43.9532605" lon="8.1681827"><ele>84.0</ele><time>2026-04-18T14:37:59.309Z</time></trkpt><trkpt lat="43.9531898" lon="8.1680067"><ele>79.25</ele><time>2026-04-18T14:38:00.309Z</time></trkpt><trkpt lat="43.9531249" lon="8.167843"><ele>74.5</ele><time>2026-04-18T14:38:01.309Z</time></trkpt><trkpt lat="43.9530742" lon="8.167691"><ele>69.75</ele><time>2026-04-18T14:38:02.308Z</time></trkpt><trkpt lat="43.9530301" lon="8.1675258"><ele>65.0</ele><time>2026-04-18T14:38:03.308Z</time></trkpt><trkpt lat="43.952997" lon="8.1673399"><ele>64.0</ele><time>2026-04-18T14:38:04.308Z</time></trkpt><trkpt lat="43.9529825" lon="8.1671229"><ele>63.0</ele><time>2026-04-18T14:38:05.309Z</time></trkpt><trkpt lat="43.95297" lon="8.1669102"><ele>62.0</ele><time>2026-04-18T14:38:06.309Z</time></trkpt><trkpt lat="43.9529407" lon="8.1666987"><ele>63.66666666666667</ele><time>2026-04-18T14:38:07.309Z</time></trkpt><trkpt lat="43.9528915" lon="8.1664857"><ele>65.33333333333333</ele><time>2026-04-18T14:38:08.308Z</time></trkpt><trkpt lat="43.9528337" lon="8.1662849"><ele>67.0</ele><time>2026-04-18T14:38:09.309Z</time></trkpt><trkpt lat="43.952764" lon="8.1660789"><ele>67.0</ele><time>2026-04-18T14:38:10.309Z</time></trkpt><trkpt lat="43.9527062" lon="8.1658617"><ele>67.0</ele><time>2026-04-18T14:38:11.309Z</time></trkpt><trkpt lat="43.9526648" lon="8.1656491"><ele>67.0</ele><time>2026-04-18T14:38:12.309Z</time></trkpt><trkpt lat="43.9526416" lon="8.1654393"><ele>68.0</ele><time>2026-04-18T14:38:13.309Z</time></trkpt><trkpt lat="43.9526235" lon="8.1652418"><ele>69.0</ele><time>2026-04-18T14:38:14.309Z</time></trkpt><trkpt lat="43.9526058" lon="8.1650452"><ele>70.0</ele><time>2026-04-18T14:38:15.309Z</time></trkpt><trkpt lat="43.952587" lon="8.1648563"><ele>71.0</ele><time>2026-04-18T14:38:16.309Z</time></trkpt><trkpt lat="43.9525749" lon="8.1646741"><ele>68.33333333333334</ele><time>2026-04-18T14:38:17.309Z</time></trkpt><trkpt lat="43.952576" lon="8.1644831"><ele>65.66666666666667</ele><time>2026-04-18T14:38:18.309Z</time></trkpt><trkpt lat="43.9526001" lon="8.1642759"><ele>63.0</ele><time>2026-04-18T14:38:19.308Z</time></trkpt><trkpt lat="43.9526364" lon="8.1640412"><ele>58.33333333333333</ele><time>2026-04-18T14:38:20.309Z</time></trkpt><trkpt lat="43.9526935" lon="8.1638073"><ele>53.666666666666664</ele><time>2026-04-18T14:38:21.309Z</time></trkpt><trkpt lat="43.9527467" lon="8.1635736"><ele>49.0</ele><time>2026-04-18T14:38:22.309Z</time></trkpt><trkpt lat="43.9527914" lon="8.1633563"><ele>45.0</ele><time>2026-04-18T14:38:23.308Z</time></trkpt><trkpt lat="43.9528334" lon="8.1631374"><ele>41.0</ele><time>2026-04-18T14:38:24.309Z</time></trkpt><trkpt lat="43.9528762" lon="8.1629062"><ele>37.0</ele><time>2026-04-18T14:38:25.309Z</time></trkpt><trkpt lat="43.9529264" lon="8.1626646"><ele>37.0</ele><time>2026-04-18T14:38:26.309Z</time></trkpt><trkpt lat="43.9529797" lon="8.1624199"><ele>37.0</ele><time>2026-04-18T14:38:27.309Z</time></trkpt><trkpt lat="43.9530328" lon="8.1621817"><ele>37.0</ele><time>2026-04-18T14:38:28.309Z</time></trkpt><trkpt lat="43.9530811" lon="8.1619501"><ele>36.66666666666667</ele><time>2026-04-18T14:38:29.309Z</time></trkpt><trkpt lat="43.9531227" lon="8.1617329"><ele>36.333333333333336</ele><time>2026-04-18T14:38:30.309Z</time></trkpt><trkpt lat="43.9531655" lon="8.1615228"><ele>36.0</ele><time>2026-04-18T14:38:31.309Z</time></trkpt><trkpt lat="43.9532063" lon="8.1613279"><ele>33.75</ele><time>2026-04-18T14:38:32.309Z</time></trkpt><trkpt lat="43.9532524" lon="8.1611353"><ele>31.5</ele><time>2026-04-18T14:38:33.308Z</time></trkpt><trkpt lat="43.9532952" lon="8.1609436"><ele>29.25</ele><time>2026-04-18T14:38:34.309Z</time></trkpt><trkpt lat="43.9533245" lon="8.1607607"><ele>27.0</ele><time>2026-04-18T14:38:35.308Z</time></trkpt><trkpt lat="43.9533272" lon="8.1605897"><ele>26.5</ele><time>2026-04-18T14:38:36.308Z</time></trkpt><trkpt lat="43.9533064" lon="8.1604222"><ele>26.0</ele><time>2026-04-18T14:38:37.309Z</time></trkpt><trkpt lat="43.953275" lon="8.1602627"><ele>25.5</ele><time>2026-04-18T14:38:38.309Z</time></trkpt><trkpt lat="43.9532146" lon="8.1600965"><ele>25.0</ele><time>2026-04-18T14:38:39.308Z</time></trkpt><trkpt lat="43.9531431" lon="8.159907"><ele>27.0</ele><time>2026-04-18T14:38:40.309Z</time></trkpt><trkpt lat="43.9530758" lon="8.1597161"><ele>29.0</ele><time>2026-04-18T14:38:41.309Z</time></trkpt><trkpt lat="43.9530154" lon="8.1595491"><ele>31.0</ele><time>2026-04-18T14:38:42.309Z</time></trkpt><trkpt lat="43.9529591" lon="8.1593993"><ele>33.0</ele><time>2026-04-18T14:38:43.309Z</time></trkpt><trkpt lat="43.952904" lon="8.1592418"><ele>33.0</ele><time>2026-04-18T14:38:44.309Z</time></trkpt><trkpt lat="43.9528594" lon="8.1590626"><ele>33.0</ele><time>2026-04-18T14:38:45.309Z</time></trkpt><trkpt lat="43.9528205" lon="8.1588601"><ele>33.0</ele><time>2026-04-18T14:38:46.309Z</time></trkpt><trkpt lat="43.9527996" lon="8.1586326"><ele>34.666666666666664</ele><time>2026-04-18T14:38:47.309Z</time></trkpt><trkpt lat="43.9528028" lon="8.1584094"><ele>36.33333333333333</ele><time>2026-04-18T14:38:48.309Z</time></trkpt><trkpt lat="43.9528194" lon="8.1582028"><ele>38.0</ele><time>2026-04-18T14:38:49.309Z</time></trkpt><trkpt lat="43.9528271" lon="8.1580077"><ele>39.25</ele><time>2026-04-18T14:38:50.309Z</time></trkpt><trkpt lat="43.9528191" lon="8.1578183"><ele>40.5</ele><time>2026-04-18T14:38:51.309Z</time></trkpt><trkpt lat="43.9527908" lon="8.157642"><ele>41.75</ele><time>2026-04-18T14:38:52.309Z</time></trkpt><trkpt lat="43.9527534" lon="8.1574699"><ele>43.0</ele><time>2026-04-18T14:38:53.309Z</time></trkpt><trkpt lat="43.9527095" lon="8.1573062"><ele>45.0</ele><time>2026-04-18T14:38:54.309Z</time></trkpt><trkpt lat="43.9526678" lon="8.1571444"><ele>47.0</ele><time>2026-04-18T14:38:55.308Z</time></trkpt><trkpt lat="43.9526286" lon="8.1569834"><ele>49.0</ele><time>2026-04-18T14:38:56.309Z</time></trkpt><trkpt lat="43.9525879" lon="8.1568279"><ele>51.0</ele><time>2026-04-18T14:38:57.309Z</time></trkpt><trkpt lat="43.9525488" lon="8.1566725"><ele>42.25</ele><time>2026-04-18T14:38:58.308Z</time></trkpt><trkpt lat="43.9525093" lon="8.1565116"><ele>33.5</ele><time>2026-04-18T14:38:59.309Z</time></trkpt><trkpt lat="43.9524742" lon="8.1563344"><ele>24.75</ele><time>2026-04-18T14:39:00.309Z</time></trkpt><trkpt lat="43.9524426" lon="8.1561334"><ele>16.0</ele><time>2026-04-18T14:39:01.309Z</time></trkpt><trkpt lat="43.9524139" lon="8.1559261"><ele>16.0</ele><time>2026-04-18T14:39:02.309Z</time></trkpt><trkpt lat="43.9523929" lon="8.1557267"><ele>16.0</ele><time>2026-04-18T14:39:03.309Z</time></trkpt><trkpt lat="43.9523792" lon="8.1555459"><ele>16.0</ele><time>2026-04-18T14:39:04.309Z</time></trkpt><trkpt lat="43.9523639" lon="8.1553882"><ele>16.0</ele><time>2026-04-18T14:39:05.309Z</time></trkpt><trkpt lat="43.9523449" lon="8.155231"><ele>16.6</ele><time>2026-04-18T14:39:06.308Z</time></trkpt><trkpt lat="43.9523182" lon="8.1550791"><ele>17.200000000000003</ele><time>2026-04-18T14:39:07.309Z</time></trkpt><trkpt lat="43.9522875" lon="8.1549321"><ele>17.799999999999997</ele><time>2026-04-18T14:39:08.309Z</time></trkpt><trkpt lat="43.9522569" lon="8.1547961"><ele>18.4</ele><time>2026-04-18T14:39:09.309Z</time></trkpt><trkpt lat="43.9522257" lon="8.1546681"><ele>19.0</ele><time>2026-04-18T14:39:10.309Z</time></trkpt><trkpt lat="43.9521917" lon="8.1545435"><ele>18.0</ele><time>2026-04-18T14:39:11.309Z</time></trkpt><trkpt lat="43.9521611" lon="8.1544245"><ele>17.0</ele><time>2026-04-18T14:39:12.309Z</time></trkpt><trkpt lat="43.9521317" lon="8.1543049"><ele>16.0</ele><time>2026-04-18T14:39:13.31Z</time></trkpt><trkpt lat="43.9521039" lon="8.1541937"><ele>15.0</ele><time>2026-04-18T14:39:14.31Z</time></trkpt><trkpt lat="43.9520776" lon="8.1540878"><ele>13.999999999999998</ele><time>2026-04-18T14:39:15.31Z</time></trkpt><trkpt lat="43.9520544" lon="8.1539829"><ele>13.0</ele><time>2026-04-18T14:39:16.31Z</time></trkpt><trkpt lat="43.952029" lon="8.153882"><ele>12.8</ele><time>2026-04-18T14:39:17.31Z</time></trkpt><trkpt lat="43.9520051" lon="8.1537909"><ele>12.600000000000001</ele><time>2026-04-18T14:39:18.31Z</time></trkpt><trkpt lat="43.9519779" lon="8.1537031"><ele>12.399999999999999</ele><time>2026-04-18T14:39:19.31Z</time></trkpt><trkpt lat="43.9519443" lon="8.1535912"><ele>12.2</ele><time>2026-04-18T14:39:20.31Z</time></trkpt><trkpt lat="43.951901" lon="8.153451"><ele>12.0</ele><time>2026-04-18T14:39:21.309Z</time></trkpt><trkpt lat="43.9518627" lon="8.1532847"><ele>11.5</ele><time>2026-04-18T14:39:22.31Z</time></trkpt><trkpt lat="43.9518228" lon="8.1531017"><ele>11.0</ele><time>2026-04-18T14:39:23.31Z</time></trkpt><trkpt lat="43.9517806" lon="8.1529186"><ele>10.5</ele><time>2026-04-18T14:39:24.31Z</time></trkpt><trkpt lat="43.9517403" lon="8.1527322"><ele>10.0</ele><time>2026-04-18T14:39:25.31Z</time></trkpt><trkpt lat="43.9516956" lon="8.1525507"><ele>9.25</ele><time>2026-04-18T14:39:26.31Z</time></trkpt><trkpt lat="43.9516514" lon="8.1523772"><ele>8.5</ele><time>2026-04-18T14:39:27.309Z</time></trkpt><trkpt lat="43.9516111" lon="8.1522202"><ele>7.75</ele><time>2026-04-18T14:39:28.31Z</time></trkpt><trkpt lat="43.9515693" lon="8.1520719"><ele>7.0</ele><time>2026-04-18T14:39:29.31Z</time></trkpt><trkpt lat="43.9515348" lon="8.1519332"><ele>7.000000000000001</ele><time>2026-04-18T14:39:30.31Z</time></trkpt><trkpt lat="43.9515049" lon="8.15181"><ele>7.0</ele><time>2026-04-18T14:39:31.31Z</time></trkpt><trkpt lat="43.9514841" lon="8.151685"><ele>7.0</ele><time>2026-04-18T14:39:32.309Z</time></trkpt><trkpt lat="43.9514821" lon="8.1515537"><ele>7.0</ele><time>2026-04-18T14:39:33.31Z</time></trkpt><trkpt lat="43.9514959" lon="8.1514315"><ele>7.000000000000001</ele><time>2026-04-18T14:39:34.31Z</time></trkpt><trkpt lat="43.9514833" lon="8.1513334"><ele>7.0</ele><time>2026-04-18T14:39:35.31Z</time></trkpt><trkpt lat="43.9514273" lon="8.1512319"><ele>7.0</ele><time>2026-04-18T14:39:36.31Z</time></trkpt><trkpt lat="43.9513563" lon="8.1511054"><ele>7.0</ele><time>2026-04-18T14:39:37.31Z</time></trkpt><trkpt lat="43.9512916" lon="8.1509442"><ele>7.0</ele><time>2026-04-18T14:39:38.309Z</time></trkpt><trkpt lat="43.9512543" lon="8.1507691"><ele>7.0</ele><time>2026-04-18T14:39:39.309Z</time></trkpt><trkpt lat="43.9512106" lon="8.150568"><ele>7.0</ele><time>2026-04-18T14:39:40.309Z</time></trkpt><trkpt lat="43.951159" lon="8.1503542"><ele>7.0</ele><time>2026-04-18T14:39:41.31Z</time></trkpt><trkpt lat="43.9511015" lon="8.1501303"><ele>7.0</ele><time>2026-04-18T14:39:42.31Z</time></trkpt><trkpt lat="43.9510411" lon="8.149889"><ele>7.0</ele><time>2026-04-18T14:39:43.31Z</time></trkpt><trkpt lat="43.9509821" lon="8.1496441"><ele>7.0</ele><time>2026-04-18T14:39:44.31Z</time></trkpt><trkpt lat="43.9509248" lon="8.1494066"><ele>7.0</ele><time>2026-04-18T14:39:45.31Z</time></trkpt><trkpt lat="43.9508693" lon="8.1491767"><ele>7.0</ele><time>2026-04-18T14:39:46.31Z</time></trkpt><trkpt lat="43.9508125" lon="8.1489455"><ele>7.0</ele><time>2026-04-18T14:39:47.31Z</time></trkpt><trkpt lat="43.9507584" lon="8.1487297"><ele>7.0</ele><time>2026-04-18T14:39:48.31Z</time></trkpt><trkpt lat="43.9507077" lon="8.1485133"><ele>7.0</ele><time>2026-04-18T14:39:49.31Z</time></trkpt><trkpt lat="43.9506498" lon="8.1482909"><ele>7.0</ele><time>2026-04-18T14:39:50.31Z</time></trkpt><trkpt lat="43.9505975" lon="8.1480596"><ele>7.0</ele><time>2026-04-18T14:39:51.309Z</time></trkpt><trkpt lat="43.9505351" lon="8.1478222"><ele>7.0</ele><time>2026-04-18T14:39:52.309Z</time></trkpt><trkpt lat="43.9504739" lon="8.1475804"><ele>7.0</ele><time>2026-04-18T14:39:53.31Z</time></trkpt><trkpt lat="43.9504097" lon="8.1473346"><ele>7.0</ele><time>2026-04-18T14:39:54.309Z</time></trkpt><trkpt lat="43.9503543" lon="8.1470783"><ele>7.333333333333334</ele><time>2026-04-18T14:39:55.31Z</time></trkpt><trkpt lat="43.9502939" lon="8.146819"><ele>7.666666666666666</ele><time>2026-04-18T14:39:56.31Z</time></trkpt><trkpt lat="43.9502289" lon="8.1465624"><ele>8.0</ele><time>2026-04-18T14:39:57.309Z</time></trkpt><trkpt lat="43.9501653" lon="8.1463061"><ele>8.333333333333332</ele><time>2026-04-18T14:39:58.309Z</time></trkpt><trkpt lat="43.9501047" lon="8.1460527"><ele>8.666666666666666</ele><time>2026-04-18T14:39:59.31Z</time></trkpt><trkpt lat="43.9500431" lon="8.1458042"><ele>9.0</ele><time>2026-04-18T14:40:00.31Z</time></trkpt><trkpt lat="43.9499852" lon="8.145564"><ele>8.333333333333334</ele><time>2026-04-18T14:40:01.31Z</time></trkpt><trkpt lat="43.9499295" lon="8.1453406"><ele>7.666666666666667</ele><time>2026-04-18T14:40:02.309Z</time></trkpt><trkpt lat="43.9498796" lon="8.1451322"><ele>7.0</ele><time>2026-04-18T14:40:03.31Z</time></trkpt><trkpt lat="43.9498346" lon="8.1449466"><ele>7.25</ele><time>2026-04-18T14:40:04.309Z</time></trkpt><trkpt lat="43.9497873" lon="8.1447734"><ele>7.5</ele><time>2026-04-18T14:40:05.31Z</time></trkpt><trkpt lat="43.9497426" lon="8.1445912"><ele>7.75</ele><time>2026-04-18T14:40:06.309Z</time></trkpt><trkpt lat="43.9496923" lon="8.1444004"><ele>8.0</ele><time>2026-04-18T14:40:07.31Z</time></trkpt><trkpt lat="43.9496419" lon="8.144198"><ele>7.0</ele><time>2026-04-18T14:40:08.31Z</time></trkpt><trkpt lat="43.9495938" lon="8.1439861"><ele>6.0</ele><time>2026-04-18T14:40:09.31Z</time></trkpt><trkpt lat="43.9495476" lon="8.1437772"><ele>5.0</ele><time>2026-04-18T14:40:10.31Z</time></trkpt><trkpt lat="43.949505" lon="8.1435784"><ele>5.0</ele><time>2026-04-18T14:40:11.309Z</time></trkpt><trkpt lat="43.9494592" lon="8.143391"><ele>5.0</ele><time>2026-04-18T14:40:12.31Z</time></trkpt><trkpt lat="43.9494168" lon="8.143202"><ele>5.0</ele><time>2026-04-18T14:40:13.309Z</time></trkpt><trkpt lat="43.9493715" lon="8.1430287"><ele>5.0</ele><time>2026-04-18T14:40:14.31Z</time></trkpt><trkpt lat="43.9493325" lon="8.1428655"><ele>5.25</ele><time>2026-04-18T14:40:15.31Z</time></trkpt><trkpt lat="43.9492925" lon="8.1427156"><ele>5.5</ele><time>2026-04-18T14:40:16.31Z</time></trkpt><trkpt lat="43.9492477" lon="8.1425552"><ele>5.75</ele><time>2026-04-18T14:40:17.31Z</time></trkpt><trkpt lat="43.9492076" lon="8.1423321"><ele>6.0</ele><time>2026-04-18T14:40:18.31Z</time></trkpt><trkpt lat="43.9491735" lon="8.1420811"><ele>6.333333333333334</ele><time>2026-04-18T14:40:19.309Z</time></trkpt><trkpt lat="43.9491441" lon="8.1418088"><ele>6.666666666666667</ele><time>2026-04-18T14:40:20.309Z</time></trkpt><trkpt lat="43.9491267" lon="8.14155"><ele>7.0</ele><time>2026-04-18T14:40:21.31Z</time></trkpt><trkpt lat="43.9491052" lon="8.1412975"><ele>7.5</ele><time>2026-04-18T14:40:22.31Z</time></trkpt><trkpt lat="43.9490787" lon="8.1410766"><ele>8.0</ele><time>2026-04-18T14:40:23.31Z</time></trkpt><trkpt lat="43.9490581" lon="8.1408677"><ele>8.5</ele><time>2026-04-18T14:40:24.31Z</time></trkpt><trkpt lat="43.9490383" lon="8.1406859"><ele>9.0</ele><time>2026-04-18T14:40:25.31Z</time></trkpt><trkpt lat="43.949024" lon="8.1405227"><ele>9.8</ele><time>2026-04-18T14:40:26.31Z</time></trkpt><trkpt lat="43.9490111" lon="8.140381"><ele>10.600000000000001</ele><time>2026-04-18T14:40:27.31Z</time></trkpt><trkpt lat="43.9489934" lon="8.1402337"><ele>11.4</ele><time>2026-04-18T14:40:28.31Z</time></trkpt><trkpt lat="43.9489772" lon="8.1401029"><ele>12.200000000000001</ele><time>2026-04-18T14:40:29.31Z</time></trkpt><trkpt lat="43.9489624" lon="8.139976"><ele>13.0</ele><time>2026-04-18T14:40:30.309Z</time></trkpt><trkpt lat="43.9489559" lon="8.1398781"><ele>15.166666666666664</ele><time>2026-04-18T14:40:31.309Z</time></trkpt><trkpt lat="43.9489362" lon="8.1397286"><ele>17.333333333333332</ele><time>2026-04-18T14:40:33.31Z</time></trkpt><trkpt lat="43.9489261" lon="8.1396308"><ele>19.5</ele><time>2026-04-18T14:40:35.31Z</time></trkpt><trkpt lat="43.948914" lon="8.1395351"><ele>21.666666666666664</ele><time>2026-04-18T14:40:53.31Z</time></trkpt><trkpt lat="43.9489077" lon="8.1394115"><ele>23.833333333333332</ele><time>2026-04-18T14:40:55.31Z</time></trkpt><trkpt lat="43.9488921" lon="8.1393074"><ele>26.0</ele><time>2026-04-18T14:40:56.31Z</time></trkpt><trkpt lat="43.9488604" lon="8.1391922"><ele>26.0</ele><time>2026-04-18T14:40:57.31Z</time></trkpt><trkpt lat="43.948807" lon="8.1390638"><ele>26.0</ele><time>2026-04-18T14:40:58.31Z</time></trkpt><trkpt lat="43.9487264" lon="8.1389459"><ele>26.0</ele><time>2026-04-18T14:40:59.31Z</time></trkpt><trkpt lat="43.9486241" lon="8.138856"><ele>26.0</ele><time>2026-04-18T14:41:00.311Z</time></trkpt><trkpt lat="43.948486" lon="8.1387921"><ele>28.333333333333332</ele><time>2026-04-18T14:41:01.311Z</time></trkpt><trkpt lat="43.9483292" lon="8.1387414"><ele>30.666666666666664</ele><time>2026-04-18T14:41:02.311Z</time></trkpt><trkpt lat="43.9481727" lon="8.1387053"><ele>33.0</ele><time>2026-04-18T14:41:03.311Z</time></trkpt><trkpt lat="43.9480157" lon="8.1386546"><ele>33.0</ele><time>2026-04-18T14:41:04.31Z</time></trkpt><trkpt lat="43.9478663" lon="8.1385602"><ele>33.0</ele><time>2026-04-18T14:41:05.311Z</time></trkpt><trkpt lat="43.9477062" lon="8.1384334"><ele>33.0</ele><time>2026-04-18T14:41:06.311Z</time></trkpt><trkpt lat="43.9475458" lon="8.1382756"><ele>35.333333333333336</ele><time>2026-04-18T14:41:07.311Z</time></trkpt><trkpt lat="43.9473872" lon="8.1381138"><ele>37.66666666666667</ele><time>2026-04-18T14:41:08.31Z</time></trkpt><trkpt lat="43.9472436" lon="8.1379619"><ele>40.0</ele><time>2026-04-18T14:41:09.311Z</time></trkpt><trkpt lat="43.9471032" lon="8.1378288"><ele>40.0</ele><time>2026-04-18T14:41:10.31Z</time></trkpt><trkpt lat="43.9469536" lon="8.13773"><ele>40.0</ele><time>2026-04-18T14:41:11.31Z</time></trkpt><trkpt lat="43.9467888" lon="8.1377061"><ele>40.0</ele><time>2026-04-18T14:41:12.311Z</time></trkpt><trkpt lat="43.9466127" lon="8.1377496"><ele>38.66666666666667</ele><time>2026-04-18T14:41:13.311Z</time></trkpt><trkpt lat="43.9464379" lon="8.1378418"><ele>37.333333333333336</ele><time>2026-04-18T14:41:14.311Z</time></trkpt><trkpt lat="43.9462636" lon="8.1379388"><ele>36.0</ele><time>2026-04-18T14:41:15.311Z</time></trkpt><trkpt lat="43.9460884" lon="8.1380009"><ele>36.0</ele><time>2026-04-18T14:41:16.311Z</time></trkpt><trkpt lat="43.9459115" lon="8.1380022"><ele>36.0</ele><time>2026-04-18T14:41:17.311Z</time></trkpt><trkpt lat="43.945729" lon="8.1379512"><ele>36.0</ele><time>2026-04-18T14:41:18.311Z</time></trkpt><trkpt lat="43.9455441" lon="8.1378443"><ele>36.666666666666664</ele><time>2026-04-18T14:41:19.311Z</time></trkpt><trkpt lat="43.9453501" lon="8.1377076"><ele>37.33333333333333</ele><time>2026-04-18T14:41:20.311Z</time></trkpt><trkpt lat="43.9451563" lon="8.1375766"><ele>38.0</ele><time>2026-04-18T14:41:21.31Z</time></trkpt><trkpt lat="43.9449657" lon="8.1374783"><ele>42.666666666666664</ele><time>2026-04-18T14:41:22.311Z</time></trkpt><trkpt lat="43.9447871" lon="8.1373771"><ele>47.33333333333333</ele><time>2026-04-18T14:41:23.31Z</time></trkpt><trkpt lat="43.9446484" lon="8.1372423"><ele>52.0</ele><time>2026-04-18T14:41:24.311Z</time></trkpt><trkpt lat="43.9445347" lon="8.1370747"><ele>52.0</ele><time>2026-04-18T14:41:25.311Z</time></trkpt><trkpt lat="43.9444128" lon="8.1369239"><ele>52.0</ele><time>2026-04-18T14:41:26.311Z</time></trkpt><trkpt lat="43.9442556" lon="8.1368518"><ele>52.0</ele><time>2026-04-18T14:41:27.311Z</time></trkpt><trkpt lat="43.9440786" lon="8.1368266"><ele>53.666666666666664</ele><time>2026-04-18T14:41:28.31Z</time></trkpt><trkpt lat="43.9439146" lon="8.136796"><ele>55.33333333333333</ele><time>2026-04-18T14:41:29.311Z</time></trkpt><trkpt lat="43.943778" lon="8.1366812"><ele>57.0</ele><time>2026-04-18T14:41:30.311Z</time></trkpt><trkpt lat="43.9436781" lon="8.1365007"><ele>57.0</ele><time>2026-04-18T14:41:31.31Z</time></trkpt><trkpt lat="43.9435964" lon="8.1362961"><ele>57.0</ele><time>2026-04-18T14:41:32.311Z</time></trkpt><trkpt lat="43.9434874" lon="8.1361054"><ele>57.0</ele><time>2026-04-18T14:41:33.311Z</time></trkpt><trkpt lat="43.9433357" lon="8.1359912"><ele>53.0</ele><time>2026-04-18T14:41:34.31Z</time></trkpt><trkpt lat="43.9431705" lon="8.1359233"><ele>49.0</ele><time>2026-04-18T14:41:35.311Z</time></trkpt><trkpt lat="43.9430153" lon="8.1359015"><ele>45.0</ele><time>2026-04-18T14:41:36.311Z</time></trkpt><trkpt lat="43.9428646" lon="8.135859"><ele>45.0</ele><time>2026-04-18T14:41:37.311Z</time></trkpt><trkpt lat="43.9427216" lon="8.1357357"><ele>45.0</ele><time>2026-04-18T14:41:38.311Z</time></trkpt><trkpt lat="43.9425675" lon="8.1355799"><ele>45.0</ele><time>2026-04-18T14:41:39.311Z</time></trkpt><trkpt lat="43.9424001" lon="8.1354691"><ele>52.33333333333333</ele><time>2026-04-18T14:41:40.31Z</time></trkpt><trkpt lat="43.9422208" lon="8.1354222"><ele>59.666666666666664</ele><time>2026-04-18T14:41:41.311Z</time></trkpt><trkpt lat="43.9420454" lon="8.1353864"><ele>67.0</ele><time>2026-04-18T14:41:42.31Z</time></trkpt><trkpt lat="43.9418796" lon="8.1353076"><ele>67.0</ele><time>2026-04-18T14:41:43.31Z</time></trkpt><trkpt lat="43.9417232" lon="8.1351661"><ele>67.0</ele><time>2026-04-18T14:41:44.311Z</time></trkpt><trkpt lat="43.9415784" lon="8.1350116"><ele>67.0</ele><time>2026-04-18T14:41:45.31Z</time></trkpt><trkpt lat="43.9414233" lon="8.1348848"><ele>68.0</ele><time>2026-04-18T14:41:46.311Z</time></trkpt><trkpt lat="43.9412628" lon="8.134813"><ele>69.0</ele><time>2026-04-18T14:41:47.311Z</time></trkpt><trkpt lat="43.9411138" lon="8.1347635"><ele>70.0</ele><time>2026-04-18T14:41:48.311Z</time></trkpt><trkpt lat="43.9409913" lon="8.1346736"><ele>70.0</ele><time>2026-04-18T14:41:49.311Z</time></trkpt><trkpt lat="43.9409332" lon="8.1345044"><ele>70.0</ele><time>2026-04-18T14:41:50.311Z</time></trkpt><trkpt lat="43.9409071" lon="8.1343001"><ele>70.0</ele><time>2026-04-18T14:41:51.311Z</time></trkpt><trkpt lat="43.9408947" lon="8.1340714"><ele>68.0</ele><time>2026-04-18T14:41:52.311Z</time></trkpt><trkpt lat="43.9408615" lon="8.1338561"><ele>66.0</ele><time>2026-04-18T14:41:53.311Z</time></trkpt><trkpt lat="43.9407902" lon="8.1336713"><ele>64.0</ele><time>2026-04-18T14:41:54.311Z</time></trkpt><trkpt lat="43.9406813" lon="8.1335355"><ele>64.0</ele><time>2026-04-18T14:41:55.311Z</time></trkpt><trkpt lat="43.9405594" lon="8.1334622"><ele>64.0</ele><time>2026-04-18T14:41:56.311Z</time></trkpt><trkpt lat="43.9404275" lon="8.1334486"><ele>64.0</ele><time>2026-04-18T14:41:57.31Z</time></trkpt><trkpt lat="43.9402923" lon="8.133516"><ele>64.0</ele><time>2026-04-18T14:41:58.31Z</time></trkpt><trkpt lat="43.940145" lon="8.1336147"><ele>67.66666666666666</ele><time>2026-04-18T14:41:59.311Z</time></trkpt><trkpt lat="43.9399836" lon="8.1336599"><ele>71.33333333333333</ele><time>2026-04-18T14:42:00.311Z</time></trkpt><trkpt lat="43.9398235" lon="8.1336871"><ele>75.0</ele><time>2026-04-18T14:42:01.311Z</time></trkpt><trkpt lat="43.9396836" lon="8.133747"><ele>75.0</ele><time>2026-04-18T14:42:02.31Z</time></trkpt><trkpt lat="43.9395458" lon="8.1338355"><ele>75.0</ele><time>2026-04-18T14:42:03.311Z</time></trkpt><trkpt lat="43.9393876" lon="8.1339438"><ele>75.0</ele><time>2026-04-18T14:42:04.311Z</time></trkpt><trkpt lat="43.9392321" lon="8.1340474"><ele>69.25</ele><time>2026-04-18T14:42:05.315Z</time></trkpt><trkpt lat="43.9391021" lon="8.1341279"><ele>63.5</ele><time>2026-04-18T14:42:06.311Z</time></trkpt><trkpt lat="43.9389853" lon="8.1341714"><ele>57.75</ele><time>2026-04-18T14:42:07.311Z</time></trkpt><trkpt lat="43.9388835" lon="8.1342064"><ele>52.0</ele><time>2026-04-18T14:42:08.311Z</time></trkpt><trkpt lat="43.9387844" lon="8.1342083"><ele>52.0</ele><time>2026-04-18T14:42:09.311Z</time></trkpt><trkpt lat="43.9386834" lon="8.1341988"><ele>52.0</ele><time>2026-04-18T14:42:10.31Z</time></trkpt><trkpt lat="43.9385818" lon="8.1341541"><ele>52.0</ele><time>2026-04-18T14:42:11.311Z</time></trkpt><trkpt lat="43.9384902" lon="8.1340813"><ele>52.0</ele><time>2026-04-18T14:42:12.311Z</time></trkpt><trkpt lat="43.9384095" lon="8.1339982"><ele>52.0</ele><time>2026-04-18T14:42:13.31Z</time></trkpt><trkpt lat="43.9383295" lon="8.1339247"><ele>56.83333333333333</ele><time>2026-04-18T14:42:14.311Z</time></trkpt><trkpt lat="43.9382527" lon="8.1338662"><ele>61.666666666666664</ele><time>2026-04-18T14:42:15.31Z</time></trkpt><trkpt lat="43.9381713" lon="8.1338242"><ele>66.5</ele><time>2026-04-18T14:42:16.311Z</time></trkpt><trkpt lat="43.9380937" lon="8.1337957"><ele>71.33333333333333</ele><time>2026-04-18T14:42:17.311Z</time></trkpt><trkpt lat="43.9380018" lon="8.1337872"><ele>76.16666666666667</ele><time>2026-04-18T14:42:18.311Z</time></trkpt><trkpt lat="43.9379031" lon="8.133789"><ele>81.0</ele><time>2026-04-18T14:42:19.311Z</time></trkpt><trkpt lat="43.9378049" lon="8.133775"><ele>81.0</ele><time>2026-04-18T14:42:20.311Z</time></trkpt><trkpt lat="43.9377068" lon="8.1337304"><ele>81.0</ele><time>2026-04-18T14:42:21.311Z</time></trkpt><trkpt lat="43.9376099" lon="8.1336529"><ele>81.0</ele><time>2026-04-18T14:42:22.311Z</time></trkpt><trkpt lat="43.9374953" lon="8.1335597"><ele>81.0</ele><time>2026-04-18T14:42:23.311Z</time></trkpt><trkpt lat="43.9373686" lon="8.1334485"><ele>83.5</ele><time>2026-04-18T14:42:24.311Z</time></trkpt><trkpt lat="43.9372431" lon="8.1333331"><ele>86.0</ele><time>2026-04-18T14:42:25.311Z</time></trkpt><trkpt lat="43.9371251" lon="8.1332038"><ele>88.5</ele><time>2026-04-18T14:42:26.311Z</time></trkpt><trkpt lat="43.9370178" lon="8.1330847"><ele>91.0</ele><time>2026-04-18T14:42:27.311Z</time></trkpt><trkpt lat="43.9369241" lon="8.1329811"><ele>91.0</ele><time>2026-04-18T14:42:28.31Z</time></trkpt><trkpt lat="43.9368381" lon="8.1328889"><ele>91.0</ele><time>2026-04-18T14:42:29.311Z</time></trkpt><trkpt lat="43.936763" lon="8.1327975"><ele>91.0</ele><time>2026-04-18T14:42:30.311Z</time></trkpt><trkpt lat="43.9366937" lon="8.1327039"><ele>91.0</ele><time>2026-04-18T14:42:31.311Z</time></trkpt><trkpt lat="43.936625" lon="8.1326122"><ele>91.0</ele><time>2026-04-18T14:42:32.311Z</time></trkpt><trkpt lat="43.9365491" lon="8.1325307"><ele>87.6</ele><time>2026-04-18T14:42:33.311Z</time></trkpt><trkpt lat="43.9364655" lon="8.13247"><ele>84.19999999999999</ele><time>2026-04-18T14:42:34.31Z</time></trkpt><trkpt lat="43.9363757" lon="8.1324399"><ele>80.80000000000001</ele><time>2026-04-18T14:42:35.31Z</time></trkpt><trkpt lat="43.9362854" lon="8.1324428"><ele>77.4</ele><time>2026-04-18T14:42:36.31Z</time></trkpt><trkpt lat="43.9361925" lon="8.1324778"><ele>74.0</ele><time>2026-04-18T14:42:37.311Z</time></trkpt><trkpt lat="43.936101" lon="8.1325187"><ele>74.0</ele><time>2026-04-18T14:42:38.311Z</time></trkpt><trkpt lat="43.9360123" lon="8.1325574"><ele>74.0</ele><time>2026-04-18T14:42:39.311Z</time></trkpt><trkpt lat="43.9359226" lon="8.1325794"><ele>74.0</ele><time>2026-04-18T14:42:40.311Z</time></trkpt><trkpt lat="43.9358338" lon="8.1325937"><ele>74.0</ele><time>2026-04-18T14:42:41.311Z</time></trkpt><trkpt lat="43.9357462" lon="8.1325988"><ele>74.0</ele><time>2026-04-18T14:42:42.311Z</time></trkpt><trkpt lat="43.9356523" lon="8.1325924"><ele>72.0</ele><time>2026-04-18T14:42:43.311Z</time></trkpt><trkpt lat="43.9355523" lon="8.1325662"><ele>70.0</ele><time>2026-04-18T14:42:44.311Z</time></trkpt><trkpt lat="43.9354539" lon="8.1325203"><ele>68.0</ele><time>2026-04-18T14:42:45.31Z</time></trkpt><trkpt lat="43.9353609" lon="8.1324521"><ele>66.0</ele><time>2026-04-18T14:42:46.31Z</time></trkpt><trkpt lat="43.9352789" lon="8.1323547"><ele>64.0</ele><time>2026-04-18T14:42:47.311Z</time></trkpt><trkpt lat="43.9352112" lon="8.1322493"><ele>66.0</ele><time>2026-04-18T14:42:48.312Z</time></trkpt><trkpt lat="43.9351551" lon="8.1321513"><ele>68.0</ele><time>2026-04-18T14:42:49.312Z</time></trkpt><trkpt lat="43.9350977" lon="8.1320637"><ele>70.0</ele><time>2026-04-18T14:42:50.312Z</time></trkpt><trkpt lat="43.935038" lon="8.1319903"><ele>72.0</ele><time>2026-04-18T14:42:51.312Z</time></trkpt><trkpt lat="43.9349766" lon="8.1319146"><ele>74.0</ele><time>2026-04-18T14:42:52.312Z</time></trkpt><trkpt lat="43.934913" lon="8.1318496"><ele>76.0</ele><time>2026-04-18T14:42:53.311Z</time></trkpt><trkpt lat="43.9348365" lon="8.1317948"><ele>76.0</ele><time>2026-04-18T14:42:54.312Z</time></trkpt><trkpt lat="43.9347604" lon="8.1317472"><ele>76.0</ele><time>2026-04-18T14:42:55.311Z</time></trkpt><trkpt lat="43.934675" lon="8.1317033"><ele>76.0</ele><time>2026-04-18T14:42:56.312Z</time></trkpt><trkpt lat="43.9345799" lon="8.1316782"><ele>76.0</ele><time>2026-04-18T14:42:57.312Z</time></trkpt><trkpt lat="43.9344609" lon="8.1316631"><ele>76.0</ele><time>2026-04-18T14:42:58.312Z</time></trkpt><trkpt lat="43.9343178" lon="8.1316478"><ele>71.66666666666666</ele><time>2026-04-18T14:42:59.312Z</time></trkpt><trkpt lat="43.9341571" lon="8.1316212"><ele>67.33333333333333</ele><time>2026-04-18T14:43:00.311Z</time></trkpt><trkpt lat="43.9339835" lon="8.1316088"><ele>63.0</ele><time>2026-04-18T14:43:01.312Z</time></trkpt><trkpt lat="43.9338149" lon="8.1316179"><ele>63.0</ele><time>2026-04-18T14:43:02.312Z</time></trkpt><trkpt lat="43.9336489" lon="8.1316363"><ele>63.0</ele><time>2026-04-18T14:43:03.312Z</time></trkpt><trkpt lat="43.9334884" lon="8.1316598"><ele>63.0</ele><time>2026-04-18T14:43:04.312Z</time></trkpt><trkpt lat="43.9333362" lon="8.1316723"><ele>63.25</ele><time>2026-04-18T14:43:05.312Z</time></trkpt><trkpt lat="43.9331966" lon="8.1316744"><ele>63.5</ele><time>2026-04-18T14:43:06.312Z</time></trkpt><trkpt lat="43.9330652" lon="8.1316402"><ele>63.75</ele><time>2026-04-18T14:43:07.311Z</time></trkpt><trkpt lat="43.9329524" lon="8.131581"><ele>64.0</ele><time>2026-04-18T14:43:08.312Z</time></trkpt><trkpt lat="43.9328445" lon="8.131503"><ele>68.0</ele><time>2026-04-18T14:43:09.312Z</time></trkpt><trkpt lat="43.9327558" lon="8.1314289"><ele>72.0</ele><time>2026-04-18T14:43:10.312Z</time></trkpt><trkpt lat="43.9326671" lon="8.131375"><ele>76.0</ele><time>2026-04-18T14:43:11.312Z</time></trkpt><trkpt lat="43.9325736" lon="8.1313447"><ele>80.0</ele><time>2026-04-18T14:43:12.311Z</time></trkpt><trkpt lat="43.9324796" lon="8.1313339"><ele>84.0</ele><time>2026-04-18T14:43:13.312Z</time></trkpt><trkpt lat="43.9323822" lon="8.1313597"><ele>84.0</ele><time>2026-04-18T14:43:14.312Z</time></trkpt><trkpt lat="43.9322877" lon="8.1314151"><ele>84.0</ele><time>2026-04-18T14:43:15.312Z</time></trkpt><trkpt lat="43.9322041" lon="8.1314689"><ele>84.0</ele><time>2026-04-18T14:43:16.312Z</time></trkpt><trkpt lat="43.9321234" lon="8.1315045"><ele>84.0</ele><time>2026-04-18T14:43:17.312Z</time></trkpt><trkpt lat="43.9320319" lon="8.1314943"><ele>84.0</ele><time>2026-04-18T14:43:18.312Z</time></trkpt><trkpt lat="43.9319451" lon="8.1314441"><ele>84.0</ele><time>2026-04-18T14:43:19.311Z</time></trkpt><trkpt lat="43.9318769" lon="8.1313773"><ele>84.0</ele><time>2026-04-18T14:43:20.312Z</time></trkpt><trkpt lat="43.9318201" lon="8.1313061"><ele>84.0</ele><time>2026-04-18T14:43:21.312Z</time></trkpt><trkpt lat="43.9317733" lon="8.1312294"><ele>84.0</ele><time>2026-04-18T14:43:22.312Z</time></trkpt><trkpt lat="43.9317233" lon="8.1311533"><ele>84.0</ele><time>2026-04-18T14:43:23.312Z</time></trkpt><trkpt lat="43.9316595" lon="8.1310923"><ele>84.0</ele><time>2026-04-18T14:43:24.312Z</time></trkpt><trkpt lat="43.9315797" lon="8.1310637"><ele>82.0</ele><time>2026-04-18T14:43:25.312Z</time></trkpt><trkpt lat="43.9314923" lon="8.1310282"><ele>80.0</ele><time>2026-04-18T14:43:26.312Z</time></trkpt><trkpt lat="43.9314006" lon="8.1310077"><ele>78.0</ele><time>2026-04-18T14:43:27.311Z</time></trkpt><trkpt lat="43.9313151" lon="8.1309805"><ele>76.0</ele><time>2026-04-18T14:43:28.312Z</time></trkpt><trkpt lat="43.931232" lon="8.1309306"><ele>74.0</ele><time>2026-04-18T14:43:29.312Z</time></trkpt><trkpt lat="43.9311512" lon="8.1308714"><ele>74.0</ele><time>2026-04-18T14:43:30.312Z</time></trkpt><trkpt lat="43.9310716" lon="8.1308105"><ele>74.0</ele><time>2026-04-18T14:43:31.312Z</time></trkpt><trkpt lat="43.9309861" lon="8.1307467"><ele>74.0</ele><time>2026-04-18T14:43:32.312Z</time></trkpt><trkpt lat="43.930879" lon="8.1306718"><ele>74.0</ele><time>2026-04-18T14:43:33.312Z</time></trkpt><trkpt lat="43.9307581" lon="8.1305845"><ele>74.0</ele><time>2026-04-18T14:43:34.312Z</time></trkpt><trkpt lat="43.9306355" lon="8.1305106"><ele>76.2</ele><time>2026-04-18T14:43:35.312Z</time></trkpt><trkpt lat="43.9305285" lon="8.1304454"><ele>78.4</ele><time>2026-04-18T14:43:36.312Z</time></trkpt><trkpt lat="43.9304384" lon="8.1303784"><ele>80.6</ele><time>2026-04-18T14:43:37.312Z</time></trkpt><trkpt lat="43.9303485" lon="8.1303255"><ele>82.8</ele><time>2026-04-18T14:43:38.312Z</time></trkpt><trkpt lat="43.9302628" lon="8.1302655"><ele>85.0</ele><time>2026-04-18T14:43:39.311Z</time></trkpt><trkpt lat="43.9301964" lon="8.1301874"><ele>85.0</ele><time>2026-04-18T14:43:40.312Z</time></trkpt><trkpt lat="43.930143" lon="8.1300988"><ele>85.0</ele><time>2026-04-18T14:43:41.312Z</time></trkpt><trkpt lat="43.9300881" lon="8.1300076"><ele>85.0</ele><time>2026-04-18T14:43:42.312Z</time></trkpt><trkpt lat="43.9300293" lon="8.1299193"><ele>85.0</ele><time>2026-04-18T14:43:43.312Z</time></trkpt><trkpt lat="43.9299688" lon="8.1298344"><ele>85.0</ele><time>2026-04-18T14:43:44.312Z</time></trkpt><trkpt lat="43.9299001" lon="8.1297591"><ele>85.0</ele><time>2026-04-18T14:43:45.312Z</time></trkpt><trkpt lat="43.9298193" lon="8.129708"><ele>85.0</ele><time>2026-04-18T14:43:46.312Z</time></trkpt><trkpt lat="43.9297391" lon="8.1296759"><ele>85.0</ele><time>2026-04-18T14:43:47.311Z</time></trkpt><trkpt lat="43.9296609" lon="8.1296608"><ele>85.0</ele><time>2026-04-18T14:43:48.312Z</time></trkpt><trkpt lat="43.9295789" lon="8.1296543"><ele>85.0</ele><time>2026-04-18T14:43:49.312Z</time></trkpt><trkpt lat="43.9294962" lon="8.1296329"><ele>85.0</ele><time>2026-04-18T14:43:50.312Z</time></trkpt><trkpt lat="43.9294177" lon="8.1295802"><ele>85.0</ele><time>2026-04-18T14:43:51.312Z</time></trkpt><trkpt lat="43.9293528" lon="8.1295034"><ele>85.0</ele><time>2026-04-18T14:43:52.312Z</time></trkpt><trkpt lat="43.9292943" lon="8.1294107"><ele>85.0</ele><time>2026-04-18T14:43:53.312Z</time></trkpt><trkpt lat="43.9292451" lon="8.1293015"><ele>85.0</ele><time>2026-04-18T14:43:54.312Z</time></trkpt><trkpt lat="43.9291972" lon="8.1291962"><ele>85.0</ele><time>2026-04-18T14:43:55.312Z</time></trkpt><trkpt lat="43.9291323" lon="8.1291092"><ele>85.0</ele><time>2026-04-18T14:43:56.312Z</time></trkpt><trkpt lat="43.9290654" lon="8.129031"><ele>85.0</ele><time>2026-04-18T14:43:57.312Z</time></trkpt><trkpt lat="43.9289912" lon="8.1289765"><ele>84.0</ele><time>2026-04-18T14:43:58.312Z</time></trkpt><trkpt lat="43.9289049" lon="8.1289382"><ele>83.0</ele><time>2026-04-18T14:43:59.312Z</time></trkpt><trkpt lat="43.9288148" lon="8.1289145"><ele>82.0</ele><time>2026-04-18T14:44:00.312Z</time></trkpt><trkpt lat="43.9287182" lon="8.1288855"><ele>81.0</ele><time>2026-04-18T14:44:01.312Z</time></trkpt><trkpt lat="43.9286342" lon="8.1288375"><ele>80.0</ele><time>2026-04-18T14:44:02.312Z</time></trkpt><trkpt lat="43.9285505" lon="8.1287738"><ele>80.0</ele><time>2026-04-18T14:44:03.312Z</time></trkpt><trkpt lat="43.9284654" lon="8.1286953"><ele>80.0</ele><time>2026-04-18T14:44:04.312Z</time></trkpt><trkpt lat="43.9283896" lon="8.1286083"><ele>80.0</ele><time>2026-04-18T14:44:05.312Z</time></trkpt><trkpt lat="43.9283249" lon="8.1285255"><ele>80.0</ele><time>2026-04-18T14:44:06.311Z</time></trkpt><trkpt lat="43.9282673" lon="8.1284411"><ele>80.0</ele><time>2026-04-18T14:44:07.312Z</time></trkpt><trkpt lat="43.9282168" lon="8.1283343"><ele>74.4</ele><time>2026-04-18T14:44:08.312Z</time></trkpt><trkpt lat="43.928194" lon="8.1282073"><ele>68.8</ele><time>2026-04-18T14:44:09.312Z</time></trkpt><trkpt lat="43.9281893" lon="8.1280688"><ele>63.2</ele><time>2026-04-18T14:44:10.312Z</time></trkpt><trkpt lat="43.9281983" lon="8.1279263"><ele>57.6</ele><time>2026-04-18T14:44:11.312Z</time></trkpt><trkpt lat="43.9281998" lon="8.1277904"><ele>52.0</ele><time>2026-04-18T14:44:12.312Z</time></trkpt><trkpt lat="43.9281916" lon="8.1276596"><ele>52.0</ele><time>2026-04-18T14:44:13.312Z</time></trkpt><trkpt lat="43.92817" lon="8.1275231"><ele>52.0</ele><time>2026-04-18T14:44:14.312Z</time></trkpt><trkpt lat="43.9281335" lon="8.1274046"><ele>52.0</ele><time>2026-04-18T14:44:15.312Z</time></trkpt><trkpt lat="43.9280788" lon="8.1272903"><ele>52.0</ele><time>2026-04-18T14:44:16.312Z</time></trkpt><trkpt lat="43.9280034" lon="8.127171"><ele>52.0</ele><time>2026-04-18T14:44:17.312Z</time></trkpt><trkpt lat="43.9279154" lon="8.127031"><ele>52.666666666666664</ele><time>2026-04-18T14:44:18.312Z</time></trkpt><trkpt lat="43.9278095" lon="8.1268602"><ele>53.33333333333333</ele><time>2026-04-18T14:44:19.311Z</time></trkpt><trkpt lat="43.9277195" lon="8.1266688"><ele>54.0</ele><time>2026-04-18T14:44:20.311Z</time></trkpt><trkpt lat="43.9276266" lon="8.126501"><ele>49.0</ele><time>2026-04-18T14:44:21.311Z</time></trkpt><trkpt lat="43.9275097" lon="8.1263348"><ele>44.0</ele><time>2026-04-18T14:44:22.311Z</time></trkpt><trkpt lat="43.9273837" lon="8.1261624"><ele>39.0</ele><time>2026-04-18T14:44:23.312Z</time></trkpt><trkpt lat="43.9272714" lon="8.1259616"><ele>39.0</ele><time>2026-04-18T14:44:24.312Z</time></trkpt><trkpt lat="43.9271873" lon="8.1257587"><ele>39.0</ele><time>2026-04-18T14:44:25.312Z</time></trkpt><trkpt lat="43.9270986" lon="8.1255505"><ele>39.0</ele><time>2026-04-18T14:44:26.312Z</time></trkpt><trkpt lat="43.9270143" lon="8.1253287"><ele>43.33333333333333</ele><time>2026-04-18T14:44:27.312Z</time></trkpt><trkpt lat="43.9269219" lon="8.1250921"><ele>47.666666666666664</ele><time>2026-04-18T14:44:28.312Z</time></trkpt><trkpt lat="43.9268494" lon="8.1248592"><ele>52.0</ele><time>2026-04-18T14:44:29.312Z</time></trkpt><trkpt lat="43.9268084" lon="8.1246599"><ele>56.5</ele><time>2026-04-18T14:44:30.312Z</time></trkpt><trkpt lat="43.9267892" lon="8.1244752"><ele>61.0</ele><time>2026-04-18T14:44:31.312Z</time></trkpt><trkpt lat="43.9267755" lon="8.1243047"><ele>65.5</ele><time>2026-04-18T14:44:32.311Z</time></trkpt><trkpt lat="43.9267592" lon="8.124158"><ele>70.0</ele><time>2026-04-18T14:44:33.312Z</time></trkpt><trkpt lat="43.926748" lon="8.1240168"><ele>71.2</ele><time>2026-04-18T14:44:34.312Z</time></trkpt><trkpt lat="43.9267356" lon="8.1238778"><ele>72.4</ele><time>2026-04-18T14:44:35.312Z</time></trkpt><trkpt lat="43.9267283" lon="8.1237304"><ele>73.6</ele><time>2026-04-18T14:44:36.313Z</time></trkpt><trkpt lat="43.9267192" lon="8.1235665"><ele>74.8</ele><time>2026-04-18T14:44:37.313Z</time></trkpt><trkpt lat="43.9266988" lon="8.1233994"><ele>76.0</ele><time>2026-04-18T14:44:38.312Z</time></trkpt><trkpt lat="43.9266405" lon="8.1231939"><ele>62.33333333333333</ele><time>2026-04-18T14:44:39.313Z</time></trkpt><trkpt lat="43.9265605" lon="8.122962"><ele>48.666666666666664</ele><time>2026-04-18T14:44:40.313Z</time></trkpt><trkpt lat="43.9264834" lon="8.1227182"><ele>35.0</ele><time>2026-04-18T14:44:41.313Z</time></trkpt><trkpt lat="43.9264259" lon="8.1224559"><ele>38.666666666666664</ele><time>2026-04-18T14:44:42.312Z</time></trkpt><trkpt lat="43.926387" lon="8.1222035"><ele>42.333333333333336</ele><time>2026-04-18T14:44:43.313Z</time></trkpt><trkpt lat="43.9263528" lon="8.1219639"><ele>46.0</ele><time>2026-04-18T14:44:44.313Z</time></trkpt><trkpt lat="43.926296" lon="8.121753"><ele>46.0</ele><time>2026-04-18T14:44:45.312Z</time></trkpt><trkpt lat="43.926221" lon="8.1215661"><ele>46.0</ele><time>2026-04-18T14:44:46.313Z</time></trkpt><trkpt lat="43.9261503" lon="8.1213937"><ele>46.0</ele><time>2026-04-18T14:44:47.312Z</time></trkpt><trkpt lat="43.9261322" lon="8.1212006"><ele>46.0</ele><time>2026-04-18T14:44:48.313Z</time></trkpt><trkpt lat="43.9261261" lon="8.1210039"><ele>47.8</ele><time>2026-04-18T14:44:49.312Z</time></trkpt><trkpt lat="43.9261048" lon="8.1208342"><ele>49.599999999999994</ele><time>2026-04-18T14:44:50.313Z</time></trkpt><trkpt lat="43.9260824" lon="8.1206956"><ele>51.4</ele><time>2026-04-18T14:44:51.313Z</time></trkpt><trkpt lat="43.9260467" lon="8.1205833"><ele>53.2</ele><time>2026-04-18T14:44:52.313Z</time></trkpt><trkpt lat="43.9260053" lon="8.1204664"><ele>55.0</ele><time>2026-04-18T14:44:53.313Z</time></trkpt><trkpt lat="43.9259629" lon="8.1203461"><ele>56.33333333333333</ele><time>2026-04-18T14:44:54.313Z</time></trkpt><trkpt lat="43.9259205" lon="8.1202311"><ele>57.666666666666664</ele><time>2026-04-18T14:44:55.312Z</time></trkpt><trkpt lat="43.9258794" lon="8.1201253"><ele>59.0</ele><time>2026-04-18T14:44:56.313Z</time></trkpt><trkpt lat="43.9258213" lon="8.120034"><ele>60.33333333333333</ele><time>2026-04-18T14:44:57.313Z</time></trkpt><trkpt lat="43.925761" lon="8.1199427"><ele>61.666666666666664</ele><time>2026-04-18T14:44:58.313Z</time></trkpt><trkpt lat="43.9256966" lon="8.1198568"><ele>63.0</ele><time>2026-04-18T14:44:59.313Z</time></trkpt><trkpt lat="43.925632" lon="8.1197609"><ele>56.199999999999996</ele><time>2026-04-18T14:45:00.313Z</time></trkpt><trkpt lat="43.9255684" lon="8.1196505"><ele>49.4</ele><time>2026-04-18T14:45:01.312Z</time></trkpt><trkpt lat="43.925509" lon="8.1195215"><ele>42.599999999999994</ele><time>2026-04-18T14:45:02.313Z</time></trkpt><trkpt lat="43.925461" lon="8.1193802"><ele>35.8</ele><time>2026-04-18T14:45:03.312Z</time></trkpt><trkpt lat="43.9254173" lon="8.1192389"><ele>29.0</ele><time>2026-04-18T14:45:04.313Z</time></trkpt><trkpt lat="43.9253815" lon="8.1190954"><ele>29.4</ele><time>2026-04-18T14:45:05.312Z</time></trkpt><trkpt lat="43.9253563" lon="8.1189553"><ele>29.799999999999997</ele><time>2026-04-18T14:45:06.312Z</time></trkpt><trkpt lat="43.9253392" lon="8.1188163"><ele>30.200000000000003</ele><time>2026-04-18T14:45:07.313Z</time></trkpt><trkpt lat="43.925334" lon="8.1186637"><ele>30.6</ele><time>2026-04-18T14:45:08.313Z</time></trkpt><trkpt lat="43.9253484" lon="8.1184979"><ele>31.0</ele><time>2026-04-18T14:45:09.313Z</time></trkpt><trkpt lat="43.9253831" lon="8.1183547"><ele>29.200000000000003</ele><time>2026-04-18T14:45:10.313Z</time></trkpt><trkpt lat="43.9254256" lon="8.1182278"><ele>27.400000000000002</ele><time>2026-04-18T14:45:11.313Z</time></trkpt><trkpt lat="43.9254712" lon="8.1181057"><ele>25.6</ele><time>2026-04-18T14:45:12.312Z</time></trkpt><trkpt lat="43.9255139" lon="8.1179847"><ele>23.8</ele><time>2026-04-18T14:45:13.312Z</time></trkpt><trkpt lat="43.9255543" lon="8.1178606"><ele>22.0</ele><time>2026-04-18T14:45:14.313Z</time></trkpt><trkpt lat="43.9255815" lon="8.1177344"><ele>22.0</ele><time>2026-04-18T14:45:15.312Z</time></trkpt><trkpt lat="43.9256051" lon="8.1176191"><ele>22.0</ele><time>2026-04-18T14:45:16.313Z</time></trkpt><trkpt lat="43.9256155" lon="8.1175052"><ele>22.0</ele><time>2026-04-18T14:45:17.312Z</time></trkpt><trkpt lat="43.9256127" lon="8.117381"><ele>22.0</ele><time>2026-04-18T14:45:18.313Z</time></trkpt><trkpt lat="43.9255906" lon="8.1172509"><ele>22.0</ele><time>2026-04-18T14:45:19.313Z</time></trkpt><trkpt lat="43.9255453" lon="8.1171168"><ele>23.0</ele><time>2026-04-18T14:45:20.312Z</time></trkpt><trkpt lat="43.9254776" lon="8.1169529"><ele>24.0</ele><time>2026-04-18T14:45:21.312Z</time></trkpt><trkpt lat="43.9253941" lon="8.1167625"><ele>25.0</ele><time>2026-04-18T14:45:22.313Z</time></trkpt><trkpt lat="43.925309" lon="8.1165183"><ele>25.333333333333336</ele><time>2026-04-18T14:45:23.313Z</time></trkpt><trkpt lat="43.9252154" lon="8.1162564"><ele>25.666666666666664</ele><time>2026-04-18T14:45:24.312Z</time></trkpt><trkpt lat="43.9251201" lon="8.115978"><ele>26.0</ele><time>2026-04-18T14:45:25.312Z</time></trkpt><trkpt lat="43.9250349" lon="8.1157124"><ele>26.0</ele><time>2026-04-18T14:45:26.312Z</time></trkpt><trkpt lat="43.9249465" lon="8.1154611"><ele>26.0</ele><time>2026-04-18T14:45:27.313Z</time></trkpt><trkpt lat="43.92487" lon="8.1152338"><ele>26.0</ele><time>2026-04-18T14:45:28.312Z</time></trkpt><trkpt lat="43.9248025" lon="8.1150027"><ele>25.5</ele><time>2026-04-18T14:45:29.312Z</time></trkpt><trkpt lat="43.9247606" lon="8.1147866"><ele>25.0</ele><time>2026-04-18T14:45:30.312Z</time></trkpt><trkpt lat="43.9247516" lon="8.1145753"><ele>24.5</ele><time>2026-04-18T14:45:31.313Z</time></trkpt><trkpt lat="43.9247489" lon="8.1143918"><ele>24.0</ele><time>2026-04-18T14:45:32.313Z</time></trkpt><trkpt lat="43.9247393" lon="8.1142408"><ele>24.0</ele><time>2026-04-18T14:45:33.313Z</time></trkpt><trkpt lat="43.9247232" lon="8.1141163"><ele>24.0</ele><time>2026-04-18T14:45:34.313Z</time></trkpt><trkpt lat="43.9247053" lon="8.113969"><ele>24.0</ele><time>2026-04-18T14:45:35.312Z</time></trkpt><trkpt lat="43.924675" lon="8.1138162"><ele>24.0</ele><time>2026-04-18T14:45:36.313Z</time></trkpt><trkpt lat="43.9246484" lon="8.1136534"><ele>24.0</ele><time>2026-04-18T14:45:37.313Z</time></trkpt><trkpt lat="43.9246221" lon="8.113471"><ele>23.0</ele><time>2026-04-18T14:45:38.313Z</time></trkpt><trkpt lat="43.9245858" lon="8.1132857"><ele>22.0</ele><time>2026-04-18T14:45:39.313Z</time></trkpt><trkpt lat="43.9245487" lon="8.1131001"><ele>21.0</ele><time>2026-04-18T14:45:40.313Z</time></trkpt><trkpt lat="43.9245089" lon="8.1129208"><ele>20.0</ele><time>2026-04-18T14:45:41.312Z</time></trkpt><trkpt lat="43.9244732" lon="8.1127463"><ele>20.0</ele><time>2026-04-18T14:45:42.313Z</time></trkpt><trkpt lat="43.9244408" lon="8.1125728"><ele>20.0</ele><time>2026-04-18T14:45:43.312Z</time></trkpt><trkpt lat="43.9244113" lon="8.1124013"><ele>20.0</ele><time>2026-04-18T14:45:44.312Z</time></trkpt><trkpt lat="43.9243853" lon="8.1122217"><ele>20.0</ele><time>2026-04-18T14:45:45.313Z</time></trkpt><trkpt lat="43.9243616" lon="8.1120048"><ele>18.666666666666668</ele><time>2026-04-18T14:45:46.312Z</time></trkpt><trkpt lat="43.9243472" lon="8.1117653"><ele>17.333333333333332</ele><time>2026-04-18T14:45:47.313Z</time></trkpt><trkpt lat="43.9243426" lon="8.1115257"><ele>16.0</ele><time>2026-04-18T14:45:48.313Z</time></trkpt><trkpt lat="43.9243309" lon="8.111289"><ele>14.666666666666666</ele><time>2026-04-18T14:45:49.313Z</time></trkpt><trkpt lat="43.9243119" lon="8.1110572"><ele>13.333333333333332</ele><time>2026-04-18T14:45:50.313Z</time></trkpt><trkpt lat="43.9242894" lon="8.1108079"><ele>12.0</ele><time>2026-04-18T14:45:51.313Z</time></trkpt><trkpt lat="43.9242721" lon="8.1105306"><ele>11.666666666666666</ele><time>2026-04-18T14:45:52.312Z</time></trkpt><trkpt lat="43.9242606" lon="8.1102468"><ele>11.333333333333332</ele><time>2026-04-18T14:45:53.313Z</time></trkpt><trkpt lat="43.9242453" lon="8.1099701"><ele>11.0</ele><time>2026-04-18T14:45:54.313Z</time></trkpt><trkpt lat="43.9242165" lon="8.1097099"><ele>9.666666666666666</ele><time>2026-04-18T14:45:55.313Z</time></trkpt><trkpt lat="43.9241867" lon="8.1094782"><ele>8.333333333333334</ele><time>2026-04-18T14:45:56.313Z</time></trkpt><trkpt lat="43.9241377" lon="8.1092565"><ele>7.0</ele><time>2026-04-18T14:45:57.313Z</time></trkpt><trkpt lat="43.9240555" lon="8.109066"><ele>7.0</ele><time>2026-04-18T14:45:58.313Z</time></trkpt><trkpt lat="43.9239402" lon="8.1089206"><ele>7.0</ele><time>2026-04-18T14:45:59.313Z</time></trkpt><trkpt lat="43.9238017" lon="8.1088053"><ele>7.0</ele><time>2026-04-18T14:46:00.313Z</time></trkpt><trkpt lat="43.9236564" lon="8.1086795"><ele>7.0</ele><time>2026-04-18T14:46:01.313Z</time></trkpt><trkpt lat="43.9235202" lon="8.1085223"><ele>7.0</ele><time>2026-04-18T14:46:02.312Z</time></trkpt><trkpt lat="43.9234152" lon="8.1083378"><ele>7.0</ele><time>2026-04-18T14:46:03.313Z</time></trkpt><trkpt lat="43.9233539" lon="8.1081207"><ele>7.0</ele><time>2026-04-18T14:46:04.313Z</time></trkpt><trkpt lat="43.9233148" lon="8.1078858"><ele>7.0</ele><time>2026-04-18T14:46:05.313Z</time></trkpt><trkpt lat="43.9232736" lon="8.1076331"><ele>7.0</ele><time>2026-04-18T14:46:06.312Z</time></trkpt><trkpt lat="43.9232155" lon="8.1073644"><ele>6.666666666666667</ele><time>2026-04-18T14:46:07.313Z</time></trkpt><trkpt lat="43.9231358" lon="8.1071093"><ele>6.333333333333334</ele><time>2026-04-18T14:46:08.312Z</time></trkpt><trkpt lat="43.923052" lon="8.1068654"><ele>6.0</ele><time>2026-04-18T14:46:09.313Z</time></trkpt><trkpt lat="43.9229743" lon="8.1066228"><ele>5.0</ele><time>2026-04-18T14:46:10.313Z</time></trkpt><trkpt lat="43.9229011" lon="8.1063924"><ele>4.0</ele><time>2026-04-18T14:46:11.313Z</time></trkpt><trkpt lat="43.9228298" lon="8.1061765"><ele>3.0</ele><time>2026-04-18T14:46:12.313Z</time></trkpt><trkpt lat="43.9227608" lon="8.1059679"><ele>3.0</ele><time>2026-04-18T14:46:13.313Z</time></trkpt><trkpt lat="43.9226944" lon="8.1057594"><ele>3.0</ele><time>2026-04-18T14:46:14.313Z</time></trkpt><trkpt lat="43.9226247" lon="8.1055521"><ele>3.0</ele><time>2026-04-18T14:46:15.313Z</time></trkpt><trkpt lat="43.9225566" lon="8.1053455"><ele>4.333333333333334</ele><time>2026-04-18T14:46:16.312Z</time></trkpt><trkpt lat="43.9224865" lon="8.1051399"><ele>5.666666666666667</ele><time>2026-04-18T14:46:17.312Z</time></trkpt><trkpt lat="43.9224172" lon="8.1049301"><ele>7.0</ele><time>2026-04-18T14:46:18.313Z</time></trkpt><trkpt lat="43.9223583" lon="8.104718"><ele>7.0</ele><time>2026-04-18T14:46:19.313Z</time></trkpt><trkpt lat="43.9222908" lon="8.1045276"><ele>7.0</ele><time>2026-04-18T14:46:20.313Z</time></trkpt><trkpt lat="43.9222314" lon="8.1043407"><ele>7.0</ele><time>2026-04-18T14:46:21.313Z</time></trkpt><trkpt lat="43.9221781" lon="8.104175"><ele>7.0</ele><time>2026-04-18T14:46:22.314Z</time></trkpt><trkpt lat="43.9221334" lon="8.1040315"><ele>7.000000000000001</ele><time>2026-04-18T14:46:23.314Z</time></trkpt><trkpt lat="43.9220909" lon="8.1039052"><ele>7.0</ele><time>2026-04-18T14:46:24.314Z</time></trkpt><trkpt lat="43.9220575" lon="8.1037938"><ele>7.0</ele><time>2026-04-18T14:46:25.314Z</time></trkpt><trkpt lat="43.92204" lon="8.1036972"><ele>7.0</ele><time>2026-04-18T14:46:26.314Z</time></trkpt><trkpt lat="43.9220368" lon="8.1035975"><ele>7.000000000000001</ele><time>2026-04-18T14:46:27.313Z</time></trkpt><trkpt lat="43.9220434" lon="8.1035004"><ele>7.0</ele><time>2026-04-18T14:46:28.313Z</time></trkpt><trkpt lat="43.9220001" lon="8.1033455"><ele>7.000000000000001</ele><time>2026-04-18T14:46:30.314Z</time></trkpt><trkpt lat="43.9219423" lon="8.1032878"><ele>7.0</ele><time>2026-04-18T14:46:31.314Z</time></trkpt><trkpt lat="43.9218855" lon="8.1032236"><ele>7.0</ele><time>2026-04-18T14:46:32.314Z</time></trkpt><trkpt lat="43.9218425" lon="8.1031288"><ele>7.0</ele><time>2026-04-18T14:46:33.314Z</time></trkpt><trkpt lat="43.921795" lon="8.1030043"><ele>7.000000000000001</ele><time>2026-04-18T14:46:34.313Z</time></trkpt><trkpt lat="43.9217463" lon="8.1028563"><ele>7.0</ele><time>2026-04-18T14:46:35.314Z</time></trkpt><trkpt lat="43.921684" lon="8.1026709"><ele>7.333333333333334</ele><time>2026-04-18T14:46:36.314Z</time></trkpt><trkpt lat="43.9216164" lon="8.1024526"><ele>7.666666666666666</ele><time>2026-04-18T14:46:37.314Z</time></trkpt><trkpt lat="43.9215465" lon="8.1022186"><ele>8.0</ele><time>2026-04-18T14:46:38.314Z</time></trkpt><trkpt lat="43.9214723" lon="8.1019728"><ele>8.0</ele><time>2026-04-18T14:46:39.314Z</time></trkpt><trkpt lat="43.9213965" lon="8.1017448"><ele>8.0</ele><time>2026-04-18T14:46:40.314Z</time></trkpt><trkpt lat="43.9213309" lon="8.1015343"><ele>8.0</ele><time>2026-04-18T14:46:41.313Z</time></trkpt><trkpt lat="43.9212643" lon="8.101321"><ele>7.666666666666666</ele><time>2026-04-18T14:46:42.314Z</time></trkpt><trkpt lat="43.9211939" lon="8.1011101"><ele>7.333333333333334</ele><time>2026-04-18T14:46:43.313Z</time></trkpt><trkpt lat="43.9211249" lon="8.1008909"><ele>7.0</ele><time>2026-04-18T14:46:44.314Z</time></trkpt><trkpt lat="43.9210535" lon="8.1006754"><ele>7.666666666666667</ele><time>2026-04-18T14:46:45.313Z</time></trkpt><trkpt lat="43.9209823" lon="8.1004723"><ele>8.333333333333334</ele><time>2026-04-18T14:46:46.313Z</time></trkpt><trkpt lat="43.9209163" lon="8.1002777"><ele>9.0</ele><time>2026-04-18T14:46:47.313Z</time></trkpt><trkpt lat="43.9208528" lon="8.1000908"><ele>9.25</ele><time>2026-04-18T14:46:48.314Z</time></trkpt><trkpt lat="43.9207932" lon="8.0999002"><ele>9.5</ele><time>2026-04-18T14:46:49.314Z</time></trkpt><trkpt lat="43.9207371" lon="8.0997027"><ele>9.75</ele><time>2026-04-18T14:46:50.313Z</time></trkpt><trkpt lat="43.9206772" lon="8.0995254"><ele>10.0</ele><time>2026-04-18T14:46:51.314Z</time></trkpt><trkpt lat="43.9206221" lon="8.0993537"><ele>10.0</ele><time>2026-04-18T14:46:52.314Z</time></trkpt><trkpt lat="43.9205705" lon="8.0991876"><ele>10.0</ele><time>2026-04-18T14:46:53.314Z</time></trkpt><trkpt lat="43.9205143" lon="8.0990186"><ele>10.0</ele><time>2026-04-18T14:46:54.314Z</time></trkpt><trkpt lat="43.9204559" lon="8.0988588"><ele>10.0</ele><time>2026-04-18T14:46:55.314Z</time></trkpt><trkpt lat="43.9204004" lon="8.0986998"><ele>10.0</ele><time>2026-04-18T14:46:56.314Z</time></trkpt><trkpt lat="43.9203539" lon="8.0985529"><ele>10.0</ele><time>2026-04-18T14:46:57.313Z</time></trkpt><trkpt lat="43.9203122" lon="8.0984147"><ele>10.0</ele><time>2026-04-18T14:46:58.314Z</time></trkpt><trkpt lat="43.9202621" lon="8.0982768"><ele>10.0</ele><time>2026-04-18T14:46:59.313Z</time></trkpt><trkpt lat="43.9202125" lon="8.0981264"><ele>10.0</ele><time>2026-04-18T14:47:00.314Z</time></trkpt><trkpt lat="43.9201634" lon="8.0979609"><ele>10.0</ele><time>2026-04-18T14:47:01.314Z</time></trkpt><trkpt lat="43.9201008" lon="8.0977727"><ele>10.0</ele><time>2026-04-18T14:47:02.314Z</time></trkpt><trkpt lat="43.9200267" lon="8.0975732"><ele>10.0</ele><time>2026-04-18T14:47:03.314Z</time></trkpt><trkpt lat="43.9199639" lon="8.0973811"><ele>9.75</ele><time>2026-04-18T14:47:04.314Z</time></trkpt><trkpt lat="43.9199143" lon="8.0972092"><ele>9.5</ele><time>2026-04-18T14:47:05.313Z</time></trkpt><trkpt lat="43.9198649" lon="8.0970517"><ele>9.25</ele><time>2026-04-18T14:47:06.314Z</time></trkpt><trkpt lat="43.9198071" lon="8.0968774"><ele>9.0</ele><time>2026-04-18T14:47:07.313Z</time></trkpt><trkpt lat="43.9197563" lon="8.0966807"><ele>9.0</ele><time>2026-04-18T14:47:08.313Z</time></trkpt><trkpt lat="43.9196941" lon="8.0964817"><ele>9.0</ele><time>2026-04-18T14:47:09.313Z</time></trkpt><trkpt lat="43.9196363" lon="8.0963042"><ele>9.0</ele><time>2026-04-18T14:47:10.313Z</time></trkpt><trkpt lat="43.9195807" lon="8.0961364"><ele>9.0</ele><time>2026-04-18T14:47:11.314Z</time></trkpt><trkpt lat="43.9195241" lon="8.0959593"><ele>9.0</ele><time>2026-04-18T14:47:12.314Z</time></trkpt><trkpt lat="43.919469" lon="8.0957825"><ele>9.0</ele><time>2026-04-18T14:47:13.314Z</time></trkpt><trkpt lat="43.9194082" lon="8.0956103"><ele>9.0</ele><time>2026-04-18T14:47:14.313Z</time></trkpt><trkpt lat="43.9193446" lon="8.0954208"><ele>9.0</ele><time>2026-04-18T14:47:15.314Z</time></trkpt><trkpt lat="43.919267" lon="8.0951946"><ele>8.0</ele><time>2026-04-18T14:47:16.314Z</time></trkpt><trkpt lat="43.919182" lon="8.0949418"><ele>7.0</ele><time>2026-04-18T14:47:17.314Z</time></trkpt><trkpt lat="43.9190971" lon="8.0946772"><ele>6.0</ele><time>2026-04-18T14:47:18.314Z</time></trkpt><trkpt lat="43.9190127" lon="8.0943891"><ele>6.0</ele><time>2026-04-18T14:47:19.314Z</time></trkpt><trkpt lat="43.9189253" lon="8.0941141"><ele>6.0</ele><time>2026-04-18T14:47:20.313Z</time></trkpt><trkpt lat="43.9188379" lon="8.0938437"><ele>6.0</ele><time>2026-04-18T14:47:21.314Z</time></trkpt><trkpt lat="43.9187504" lon="8.0935948"><ele>6.666666666666666</ele><time>2026-04-18T14:47:22.314Z</time></trkpt><trkpt lat="43.9186716" lon="8.093359"><ele>7.333333333333333</ele><time>2026-04-18T14:47:23.314Z</time></trkpt><trkpt lat="43.9186016" lon="8.0931289"><ele>8.0</ele><time>2026-04-18T14:47:24.313Z</time></trkpt><trkpt lat="43.9185335" lon="8.092925"><ele>8.0</ele><time>2026-04-18T14:47:25.313Z</time></trkpt><trkpt lat="43.9184851" lon="8.092757"><ele>8.0</ele><time>2026-04-18T14:47:26.314Z</time></trkpt><trkpt lat="43.9184453" lon="8.0926237"><ele>8.0</ele><time>2026-04-18T14:47:27.313Z</time></trkpt><trkpt lat="43.9184132" lon="8.0925246"><ele>8.0</ele><time>2026-04-18T14:47:28.314Z</time></trkpt><trkpt lat="43.9183602" lon="8.092373"><ele>8.0</ele><time>2026-04-18T14:47:30.314Z</time></trkpt><trkpt lat="43.9183107" lon="8.0922092"><ele>8.0</ele><time>2026-04-18T14:47:32.314Z</time></trkpt><trkpt lat="43.918277" lon="8.092088"><ele>8.0</ele><time>2026-04-18T14:47:33.313Z</time></trkpt><trkpt lat="43.9182268" lon="8.0919258"><ele>8.0</ele><time>2026-04-18T14:47:34.314Z</time></trkpt><trkpt lat="43.9181634" lon="8.0917462"><ele>8.0</ele><time>2026-04-18T14:47:35.314Z</time></trkpt><trkpt lat="43.9180983" lon="8.0915445"><ele>8.0</ele><time>2026-04-18T14:47:36.314Z</time></trkpt><trkpt lat="43.9180331" lon="8.0913152"><ele>8.0</ele><time>2026-04-18T14:47:37.314Z</time></trkpt><trkpt lat="43.9179568" lon="8.0910832"><ele>8.0</ele><time>2026-04-18T14:47:38.313Z</time></trkpt><trkpt lat="43.9178694" lon="8.0908485"><ele>8.0</ele><time>2026-04-18T14:47:39.314Z</time></trkpt><trkpt lat="43.9177577" lon="8.0906439"><ele>8.0</ele><time>2026-04-18T14:47:40.314Z</time></trkpt><trkpt lat="43.9176313" lon="8.090461"><ele>8.0</ele><time>2026-04-18T14:47:41.314Z</time></trkpt><trkpt lat="43.91748" lon="8.090301"><ele>7.333333333333333</ele><time>2026-04-18T14:47:42.313Z</time></trkpt><trkpt lat="43.9173226" lon="8.0901587"><ele>6.666666666666666</ele><time>2026-04-18T14:47:43.313Z</time></trkpt><trkpt lat="43.9171551" lon="8.0900416"><ele>6.0</ele><time>2026-04-18T14:47:44.313Z</time></trkpt><trkpt lat="43.9169894" lon="8.0899278"><ele>6.333333333333334</ele><time>2026-04-18T14:47:45.314Z</time></trkpt><trkpt lat="43.9168287" lon="8.0898066"><ele>6.666666666666667</ele><time>2026-04-18T14:47:46.314Z</time></trkpt><trkpt lat="43.9166715" lon="8.0896876"><ele>7.0</ele><time>2026-04-18T14:47:47.313Z</time></trkpt><trkpt lat="43.916525" lon="8.0895807"><ele>6.25</ele><time>2026-04-18T14:47:48.314Z</time></trkpt><trkpt lat="43.9163902" lon="8.0894781"><ele>5.5</ele><time>2026-04-18T14:47:49.314Z</time></trkpt><trkpt lat="43.9162687" lon="8.089384"><ele>4.75</ele><time>2026-04-18T14:47:50.313Z</time></trkpt><trkpt lat="43.9161523" lon="8.0892981"><ele>4.0</ele><time>2026-04-18T14:47:51.313Z</time></trkpt><trkpt lat="43.9160265" lon="8.0892086"><ele>4.666666666666666</ele><time>2026-04-18T14:47:52.314Z</time></trkpt><trkpt lat="43.9158877" lon="8.0891164"><ele>5.333333333333333</ele><time>2026-04-18T14:47:53.314Z</time></trkpt><trkpt lat="43.9157492" lon="8.0890159"><ele>6.0</ele><time>2026-04-18T14:47:54.313Z</time></trkpt><trkpt lat="43.9156037" lon="8.0889193"><ele>6.0</ele><time>2026-04-18T14:47:55.314Z</time></trkpt><trkpt lat="43.9154655" lon="8.0888248"><ele>6.0</ele><time>2026-04-18T14:47:56.314Z</time></trkpt><trkpt lat="43.9153349" lon="8.0887068"><ele>6.0</ele><time>2026-04-18T14:47:57.313Z</time></trkpt><trkpt lat="43.9151972" lon="8.0886003"><ele>6.0</ele><time>2026-04-18T14:47:58.314Z</time></trkpt><trkpt lat="43.9150532" lon="8.0884926"><ele>6.0</ele><time>2026-04-18T14:47:59.314Z</time></trkpt><trkpt lat="43.9149061" lon="8.0883859"><ele>6.0</ele><time>2026-04-18T14:48:00.314Z</time></trkpt><trkpt lat="43.9147514" lon="8.088271"><ele>6.0</ele><time>2026-04-18T14:48:01.314Z</time></trkpt><trkpt lat="43.9145953" lon="8.0881608"><ele>6.0</ele><time>2026-04-18T14:48:02.314Z</time></trkpt><trkpt lat="43.9144535" lon="8.0880632"><ele>6.0</ele><time>2026-04-18T14:48:03.314Z</time></trkpt><trkpt lat="43.9142983" lon="8.0879523"><ele>6.333333333333334</ele><time>2026-04-18T14:48:04.314Z</time></trkpt><trkpt lat="43.9141364" lon="8.0878425"><ele>6.666666666666667</ele><time>2026-04-18T14:48:05.314Z</time></trkpt><trkpt lat="43.9139867" lon="8.0877323"><ele>7.0</ele><time>2026-04-18T14:48:06.314Z</time></trkpt><trkpt lat="43.9138583" lon="8.0876435"><ele>7.000000000000001</ele><time>2026-04-18T14:48:07.314Z</time></trkpt><trkpt lat="43.9137587" lon="8.0875636"><ele>7.0</ele><time>2026-04-18T14:48:08.314Z</time></trkpt><trkpt lat="43.913677" lon="8.0875061"><ele>7.0</ele><time>2026-04-18T14:48:09.314Z</time></trkpt><trkpt lat="43.9136042" lon="8.0874562"><ele>7.0</ele><time>2026-04-18T14:48:10.313Z</time></trkpt><trkpt lat="43.9135325" lon="8.0874044"><ele>7.000000000000001</ele><time>2026-04-18T14:48:11.314Z</time></trkpt><trkpt lat="43.9134606" lon="8.0873537"><ele>7.0</ele><time>2026-04-18T14:48:12.315Z</time></trkpt><trkpt lat="43.9133807" lon="8.0872932"><ele>6.8</ele><time>2026-04-18T14:48:13.314Z</time></trkpt><trkpt lat="43.9132878" lon="8.0872273"><ele>6.6</ele><time>2026-04-18T14:48:14.315Z</time></trkpt><trkpt lat="43.9131928" lon="8.0871507"><ele>6.3999999999999995</ele><time>2026-04-18T14:48:15.315Z</time></trkpt><trkpt lat="43.9131026" lon="8.0870779"><ele>6.199999999999999</ele><time>2026-04-18T14:48:16.315Z</time></trkpt><trkpt lat="43.9130059" lon="8.0870093"><ele>6.0</ele><time>2026-04-18T14:48:17.315Z</time></trkpt><trkpt lat="43.9129037" lon="8.0869346"><ele>6.0</ele><time>2026-04-18T14:48:18.314Z</time></trkpt><trkpt lat="43.9128024" lon="8.0868615"><ele>6.0</ele><time>2026-04-18T14:48:19.315Z</time></trkpt><trkpt lat="43.9126987" lon="8.0867873"><ele>6.0</ele><time>2026-04-18T14:48:20.315Z</time></trkpt><trkpt lat="43.9125926" lon="8.0867159"><ele>6.0</ele><time>2026-04-18T14:48:21.315Z</time></trkpt><trkpt lat="43.9124954" lon="8.0866433"><ele>6.0</ele><time>2026-04-18T14:48:22.314Z</time></trkpt><trkpt lat="43.9124017" lon="8.0865759"><ele>6.0</ele><time>2026-04-18T14:48:23.315Z</time></trkpt><trkpt lat="43.9123166" lon="8.0865105"><ele>6.0</ele><time>2026-04-18T14:48:24.315Z</time></trkpt><trkpt lat="43.9122309" lon="8.0864589"><ele>6.0</ele><time>2026-04-18T14:48:25.315Z</time></trkpt><trkpt lat="43.9121471" lon="8.0863964"><ele>6.0</ele><time>2026-04-18T14:48:26.315Z</time></trkpt><trkpt lat="43.9120594" lon="8.0863324"><ele>6.0</ele><time>2026-04-18T14:48:27.315Z</time></trkpt><trkpt lat="43.9119757" lon="8.0862753"><ele>6.0</ele><time>2026-04-18T14:48:28.315Z</time></trkpt><trkpt lat="43.9118985" lon="8.0862242"><ele>6.0</ele><time>2026-04-18T14:48:29.315Z</time></trkpt><trkpt lat="43.9118212" lon="8.0861702"><ele>6.0</ele><time>2026-04-18T14:48:30.315Z</time></trkpt><trkpt lat="43.9117429" lon="8.0861177"><ele>6.0</ele><time>2026-04-18T14:48:31.315Z</time></trkpt><trkpt lat="43.9116624" lon="8.0860591"><ele>6.0</ele><time>2026-04-18T14:48:32.314Z</time></trkpt><trkpt lat="43.9115843" lon="8.0860025"><ele>6.0</ele><time>2026-04-18T14:48:33.315Z</time></trkpt><trkpt lat="43.9115092" lon="8.0859457"><ele>6.0</ele><time>2026-04-18T14:48:34.315Z</time></trkpt><trkpt lat="43.9114398" lon="8.085899"><ele>6.0</ele><time>2026-04-18T14:48:35.315Z</time></trkpt><trkpt lat="43.9113675" lon="8.0858476"><ele>6.0</ele><time>2026-04-18T14:48:36.315Z</time></trkpt><trkpt lat="43.9112849" lon="8.0857883"><ele>6.0</ele><time>2026-04-18T14:48:37.315Z</time></trkpt><trkpt lat="43.9112005" lon="8.0857169"><ele>6.0</ele><time>2026-04-18T14:48:38.315Z</time></trkpt><trkpt lat="43.9111201" lon="8.085645"><ele>6.0</ele><time>2026-04-18T14:48:39.315Z</time></trkpt><trkpt lat="43.9110415" lon="8.0855692"><ele>6.0</ele><time>2026-04-18T14:48:40.314Z</time></trkpt><trkpt lat="43.910955" lon="8.0855078"><ele>6.0</ele><time>2026-04-18T14:48:41.315Z</time></trkpt><trkpt lat="43.9108669" lon="8.0854342"><ele>6.0</ele><time>2026-04-18T14:48:42.315Z</time></trkpt><trkpt lat="43.9107764" lon="8.0853684"><ele>6.0</ele><time>2026-04-18T14:48:43.315Z</time></trkpt><trkpt lat="43.910695" lon="8.0853169"><ele>6.0</ele><time>2026-04-18T14:48:44.315Z</time></trkpt><trkpt lat="43.9106154" lon="8.0852879"><ele>6.0</ele><time>2026-04-18T14:48:45.315Z</time></trkpt><trkpt lat="43.9105411" lon="8.0852734"><ele>6.0</ele><time>2026-04-18T14:48:46.314Z</time></trkpt><trkpt lat="43.9104763" lon="8.0852672"><ele>6.0</ele><time>2026-04-18T14:48:47.315Z</time></trkpt><trkpt lat="43.9103641" lon="8.0852447"><ele>6.0</ele><time>2026-04-18T14:48:49.315Z</time></trkpt><trkpt lat="43.9102435" lon="8.0851778"><ele>5.999999999999999</ele><time>2026-04-18T14:48:51.314Z</time></trkpt><trkpt lat="43.9101786" lon="8.0851178"><ele>6.0</ele><time>2026-04-18T14:48:52.315Z</time></trkpt><trkpt lat="43.9101126" lon="8.0850499"><ele>6.0</ele><time>2026-04-18T14:48:53.315Z</time></trkpt><trkpt lat="43.9100655" lon="8.0849727"><ele>6.0</ele><time>2026-04-18T14:48:54.315Z</time></trkpt><trkpt lat="43.9100283" lon="8.0848915"><ele>6.0</ele><time>2026-04-18T14:48:55.315Z</time></trkpt><trkpt lat="43.9099893" lon="8.084817"><ele>5.999999999999999</ele><time>2026-04-18T14:48:56.314Z</time></trkpt><trkpt lat="43.9099502" lon="8.084742"><ele>6.0</ele><time>2026-04-18T14:48:57.315Z</time></trkpt><trkpt lat="43.9099083" lon="8.084667"><ele>6.199999999999999</ele><time>2026-04-18T14:48:58.315Z</time></trkpt><trkpt lat="43.9098544" lon="8.0845959"><ele>6.3999999999999995</ele><time>2026-04-18T14:48:59.314Z</time></trkpt><trkpt lat="43.9097879" lon="8.084497"><ele>6.6</ele><time>2026-04-18T14:49:00.315Z</time></trkpt><trkpt lat="43.9097092" lon="8.0843744"><ele>6.8</ele><time>2026-04-18T14:49:01.314Z</time></trkpt><trkpt lat="43.9096179" lon="8.0842314"><ele>7.0</ele><time>2026-04-18T14:49:02.315Z</time></trkpt><trkpt lat="43.9095195" lon="8.0840702"><ele>7.333333333333334</ele><time>2026-04-18T14:49:03.315Z</time></trkpt><trkpt lat="43.9094224" lon="8.0838753"><ele>7.666666666666666</ele><time>2026-04-18T14:49:04.315Z</time></trkpt><trkpt lat="43.9093178" lon="8.08368"><ele>8.0</ele><time>2026-04-18T14:49:05.314Z</time></trkpt><trkpt lat="43.9092163" lon="8.0834819"><ele>8.0</ele><time>2026-04-18T14:49:06.314Z</time></trkpt><trkpt lat="43.9091116" lon="8.0832831"><ele>8.0</ele><time>2026-04-18T14:49:07.315Z</time></trkpt><trkpt lat="43.909005" lon="8.0830884"><ele>8.0</ele><time>2026-04-18T14:49:08.315Z</time></trkpt><trkpt lat="43.9089003" lon="8.0828838"><ele>8.0</ele><time>2026-04-18T14:49:09.314Z</time></trkpt><trkpt lat="43.9087933" lon="8.0826865"><ele>8.0</ele><time>2026-04-18T14:49:10.315Z</time></trkpt><trkpt lat="43.9086757" lon="8.0825077"><ele>8.0</ele><time>2026-04-18T14:49:11.315Z</time></trkpt><trkpt lat="43.9085699" lon="8.0823413"><ele>8.0</ele><time>2026-04-18T14:49:12.315Z</time></trkpt><trkpt lat="43.9084601" lon="8.0821823"><ele>8.0</ele><time>2026-04-18T14:49:13.315Z</time></trkpt><trkpt lat="43.9083489" lon="8.0820324"><ele>8.0</ele><time>2026-04-18T14:49:14.315Z</time></trkpt><trkpt lat="43.9082322" lon="8.0818904"><ele>7.666666666666666</ele><time>2026-04-18T14:49:15.315Z</time></trkpt><trkpt lat="43.9081116" lon="8.081742"><ele>7.333333333333334</ele><time>2026-04-18T14:49:16.315Z</time></trkpt><trkpt lat="43.9079839" lon="8.0815935"><ele>7.0</ele><time>2026-04-18T14:49:17.315Z</time></trkpt><trkpt lat="43.9078802" lon="8.0814793"><ele>7.000000000000001</ele><time>2026-04-18T14:49:18.314Z</time></trkpt><trkpt lat="43.9077919" lon="8.0813856"><ele>7.0</ele><time>2026-04-18T14:49:19.315Z</time></trkpt><trkpt lat="43.9077204" lon="8.0813049"><ele>7.0</ele><time>2026-04-18T14:49:20.315Z</time></trkpt><trkpt lat="43.9076638" lon="8.0812503"><ele>7.0</ele><time>2026-04-18T14:49:21.314Z</time></trkpt><trkpt lat="43.9075906" lon="8.0811616"><ele>7.000000000000001</ele><time>2026-04-18T14:49:23.315Z</time></trkpt><trkpt lat="43.9075276" lon="8.0811186"><ele>7.0</ele><time>2026-04-18T14:50:07.316Z</time></trkpt><trkpt lat="43.9074184" lon="8.080975"><ele>7.0</ele><time>2026-04-18T14:50:10.316Z</time></trkpt><trkpt lat="43.9073176" lon="8.0808845"><ele>7.0</ele><time>2026-04-18T14:50:11.316Z</time></trkpt><trkpt lat="43.9072075" lon="8.0807691"><ele>7.0</ele><time>2026-04-18T14:50:12.316Z</time></trkpt><trkpt lat="43.9070846" lon="8.080635"><ele>7.0</ele><time>2026-04-18T14:50:13.316Z</time></trkpt><trkpt lat="43.9069465" lon="8.0804925"><ele>7.333333333333334</ele><time>2026-04-18T14:50:14.316Z</time></trkpt><trkpt lat="43.9067933" lon="8.080333"><ele>7.666666666666666</ele><time>2026-04-18T14:50:15.316Z</time></trkpt><trkpt lat="43.9066376" lon="8.0801713"><ele>8.0</ele><time>2026-04-18T14:50:16.315Z</time></trkpt><trkpt lat="43.906483" lon="8.0800093"><ele>7.666666666666666</ele><time>2026-04-18T14:50:17.315Z</time></trkpt><trkpt lat="43.9063294" lon="8.0798467"><ele>7.333333333333334</ele><time>2026-04-18T14:50:18.316Z</time></trkpt><trkpt lat="43.9061784" lon="8.0796918"><ele>7.0</ele><time>2026-04-18T14:50:19.315Z</time></trkpt><trkpt lat="43.9060299" lon="8.0795414"><ele>7.0</ele><time>2026-04-18T14:50:20.316Z</time></trkpt><trkpt lat="43.9058789" lon="8.0793891"><ele>7.0</ele><time>2026-04-18T14:50:21.316Z</time></trkpt><trkpt lat="43.9057255" lon="8.0792361"><ele>7.0</ele><time>2026-04-18T14:50:22.316Z</time></trkpt><trkpt lat="43.9055704" lon="8.0790828"><ele>7.333333333333334</ele><time>2026-04-18T14:50:23.316Z</time></trkpt><trkpt lat="43.9054134" lon="8.0789276"><ele>7.666666666666666</ele><time>2026-04-18T14:50:24.316Z</time></trkpt><trkpt lat="43.9052519" lon="8.0787699"><ele>8.0</ele><time>2026-04-18T14:50:25.316Z</time></trkpt><trkpt lat="43.9050885" lon="8.0786037"><ele>7.666666666666666</ele><time>2026-04-18T14:50:26.316Z</time></trkpt><trkpt lat="43.904923" lon="8.0784404"><ele>7.333333333333334</ele><time>2026-04-18T14:50:27.315Z</time></trkpt><trkpt lat="43.9047574" lon="8.0782808"><ele>7.0</ele><time>2026-04-18T14:50:28.316Z</time></trkpt><trkpt lat="43.9045927" lon="8.0781168"><ele>7.0</ele><time>2026-04-18T14:50:29.316Z</time></trkpt><trkpt lat="43.9044264" lon="8.0779566"><ele>7.0</ele><time>2026-04-18T14:50:30.316Z</time></trkpt><trkpt lat="43.9042503" lon="8.0778045"><ele>7.0</ele><time>2026-04-18T14:50:31.316Z</time></trkpt><trkpt lat="43.9040762" lon="8.0776636"><ele>7.0</ele><time>2026-04-18T14:50:32.316Z</time></trkpt><trkpt lat="43.9039076" lon="8.0775129"><ele>7.0</ele><time>2026-04-18T14:50:33.316Z</time></trkpt><trkpt lat="43.9037705" lon="8.0773205"><ele>7.0</ele><time>2026-04-18T14:50:34.315Z</time></trkpt><trkpt lat="43.9036563" lon="8.0770941"><ele>7.0</ele><time>2026-04-18T14:50:35.316Z</time></trkpt><trkpt lat="43.9035725" lon="8.0768171"><ele>7.0</ele><time>2026-04-18T14:50:36.315Z</time></trkpt><trkpt lat="43.9035047" lon="8.0765317"><ele>7.0</ele><time>2026-04-18T14:50:37.316Z</time></trkpt><trkpt lat="43.9034171" lon="8.0762665"><ele>7.666666666666667</ele><time>2026-04-18T14:50:38.315Z</time></trkpt><trkpt lat="43.903332" lon="8.0760169"><ele>8.333333333333334</ele><time>2026-04-18T14:50:39.316Z</time></trkpt><trkpt lat="43.9032462" lon="8.0757865"><ele>9.0</ele><time>2026-04-18T14:50:40.316Z</time></trkpt><trkpt lat="43.9031301" lon="8.0755725"><ele>11.333333333333332</ele><time>2026-04-18T14:50:41.316Z</time></trkpt><trkpt lat="43.9029854" lon="8.0754092"><ele>13.666666666666666</ele><time>2026-04-18T14:50:42.315Z</time></trkpt><trkpt lat="43.9027945" lon="8.0752719"><ele>16.0</ele><time>2026-04-18T14:50:43.316Z</time></trkpt><trkpt lat="43.9025823" lon="8.0751792"><ele>17.666666666666664</ele><time>2026-04-18T14:50:44.316Z</time></trkpt><trkpt lat="43.9023805" lon="8.0750583"><ele>19.333333333333332</ele><time>2026-04-18T14:50:45.316Z</time></trkpt><trkpt lat="43.9021996" lon="8.0749143"><ele>21.0</ele><time>2026-04-18T14:50:46.316Z</time></trkpt><trkpt lat="43.9020542" lon="8.0747492"><ele>24.333333333333336</ele><time>2026-04-18T14:50:47.316Z</time></trkpt><trkpt lat="43.9019244" lon="8.0745755"><ele>27.666666666666668</ele><time>2026-04-18T14:50:48.315Z</time></trkpt><trkpt lat="43.9017614" lon="8.0744504"><ele>31.0</ele><time>2026-04-18T14:50:49.316Z</time></trkpt><trkpt lat="43.9016032" lon="8.0743718"><ele>31.0</ele><time>2026-04-18T14:50:50.316Z</time></trkpt><trkpt lat="43.9014774" lon="8.0743503"><ele>31.0</ele><time>2026-04-18T14:50:51.316Z</time></trkpt><trkpt lat="43.9013658" lon="8.0744034"><ele>31.0</ele><time>2026-04-18T14:50:52.315Z</time></trkpt><trkpt lat="43.9012844" lon="8.0745084"><ele>31.0</ele><time>2026-04-18T14:50:53.316Z</time></trkpt><trkpt lat="43.9012449" lon="8.0746635"><ele>31.0</ele><time>2026-04-18T14:50:54.316Z</time></trkpt><trkpt lat="43.9012379" lon="8.0748479"><ele>31.0</ele><time>2026-04-18T14:50:55.316Z</time></trkpt><trkpt lat="43.9012225" lon="8.0750282"><ele>31.0</ele><time>2026-04-18T14:50:56.316Z</time></trkpt><trkpt lat="43.9011685" lon="8.0751943"><ele>31.0</ele><time>2026-04-18T14:50:57.315Z</time></trkpt><trkpt lat="43.9010721" lon="8.0753231"><ele>33.0</ele><time>2026-04-18T14:50:58.316Z</time></trkpt><trkpt lat="43.9009454" lon="8.075403"><ele>35.0</ele><time>2026-04-18T14:50:59.316Z</time></trkpt><trkpt lat="43.900788" lon="8.0754203"><ele>37.0</ele><time>2026-04-18T14:51:00.316Z</time></trkpt><trkpt lat="43.9006147" lon="8.075433"><ele>37.0</ele><time>2026-04-18T14:51:01.316Z</time></trkpt><trkpt lat="43.9004477" lon="8.0755071"><ele>37.0</ele><time>2026-04-18T14:51:02.316Z</time></trkpt><trkpt lat="43.9003025" lon="8.0756022"><ele>37.0</ele><time>2026-04-18T14:51:03.316Z</time></trkpt><trkpt lat="43.9001613" lon="8.0756588"><ele>40.5</ele><time>2026-04-18T14:51:04.316Z</time></trkpt><trkpt lat="43.9000213" lon="8.0756618"><ele>44.0</ele><time>2026-04-18T14:51:05.315Z</time></trkpt><trkpt lat="43.8998903" lon="8.0755954"><ele>47.5</ele><time>2026-04-18T14:51:06.316Z</time></trkpt><trkpt lat="43.8997744" lon="8.0754305"><ele>51.0</ele><time>2026-04-18T14:51:07.316Z</time></trkpt><trkpt lat="43.8996278" lon="8.0752825"><ele>51.0</ele><time>2026-04-18T14:51:08.316Z</time></trkpt><trkpt lat="43.8994647" lon="8.0751789"><ele>51.0</ele><time>2026-04-18T14:51:09.316Z</time></trkpt><trkpt lat="43.8992863" lon="8.0750749"><ele>51.0</ele><time>2026-04-18T14:51:10.316Z</time></trkpt><trkpt lat="43.8991031" lon="8.0749633"><ele>58.66666666666667</ele><time>2026-04-18T14:51:11.315Z</time></trkpt><trkpt lat="43.8989553" lon="8.0748165"><ele>66.33333333333334</ele><time>2026-04-18T14:51:12.315Z</time></trkpt><trkpt lat="43.898836" lon="8.0746897"><ele>74.0</ele><time>2026-04-18T14:51:13.316Z</time></trkpt><trkpt lat="43.8987232" lon="8.0745834"><ele>74.0</ele><time>2026-04-18T14:51:14.316Z</time></trkpt><trkpt lat="43.8986164" lon="8.0745621"><ele>74.0</ele><time>2026-04-18T14:51:15.316Z</time></trkpt><trkpt lat="43.8985369" lon="8.0746138"><ele>74.0</ele><time>2026-04-18T14:51:16.316Z</time></trkpt><trkpt lat="43.8984892" lon="8.0747116"><ele>74.0</ele><time>2026-04-18T14:51:17.315Z</time></trkpt><trkpt lat="43.8984735" lon="8.0748654"><ele>74.0</ele><time>2026-04-18T14:51:18.316Z</time></trkpt><trkpt lat="43.8985036" lon="8.0750351"><ele>67.33333333333334</ele><time>2026-04-18T14:51:19.316Z</time></trkpt><trkpt lat="43.8985515" lon="8.0752414"><ele>60.66666666666667</ele><time>2026-04-18T14:51:20.315Z</time></trkpt><trkpt lat="43.898608" lon="8.0754659"><ele>54.0</ele><time>2026-04-18T14:51:21.316Z</time></trkpt><trkpt lat="43.8986626" lon="8.0757065"><ele>51.0</ele><time>2026-04-18T14:51:22.316Z</time></trkpt><trkpt lat="43.898711" lon="8.0759475"><ele>48.0</ele><time>2026-04-18T14:51:23.316Z</time></trkpt><trkpt lat="43.8987472" lon="8.0761624"><ele>45.0</ele><time>2026-04-18T14:51:24.316Z</time></trkpt><trkpt lat="43.898752" lon="8.0763529"><ele>45.0</ele><time>2026-04-18T14:51:25.316Z</time></trkpt><trkpt lat="43.8987296" lon="8.0765177"><ele>45.0</ele><time>2026-04-18T14:51:26.316Z</time></trkpt><trkpt lat="43.8986823" lon="8.0766361"><ele>45.0</ele><time>2026-04-18T14:51:27.316Z</time></trkpt><trkpt lat="43.8986146" lon="8.0767135"><ele>45.0</ele><time>2026-04-18T14:51:28.316Z</time></trkpt><trkpt lat="43.8985381" lon="8.076753"><ele>45.0</ele><time>2026-04-18T14:51:29.315Z</time></trkpt><trkpt lat="43.898451" lon="8.0767579"><ele>50.25</ele><time>2026-04-18T14:51:30.316Z</time></trkpt><trkpt lat="43.8983596" lon="8.0767158"><ele>55.5</ele><time>2026-04-18T14:51:31.316Z</time></trkpt><trkpt lat="43.8982665" lon="8.0766304"><ele>60.75</ele><time>2026-04-18T14:51:32.316Z</time></trkpt><trkpt lat="43.8981748" lon="8.0765046"><ele>66.0</ele><time>2026-04-18T14:51:33.316Z</time></trkpt><trkpt lat="43.8980705" lon="8.0763322"><ele>66.66666666666667</ele><time>2026-04-18T14:51:34.316Z</time></trkpt><trkpt lat="43.8979646" lon="8.0761603"><ele>67.33333333333334</ele><time>2026-04-18T14:51:35.316Z</time></trkpt><trkpt lat="43.8978707" lon="8.0759503"><ele>68.0</ele><time>2026-04-18T14:51:36.316Z</time></trkpt><trkpt lat="43.8977667" lon="8.0757199"><ele>68.0</ele><time>2026-04-18T14:51:37.316Z</time></trkpt><trkpt lat="43.8976549" lon="8.0754742"><ele>68.0</ele><time>2026-04-18T14:51:38.316Z</time></trkpt><trkpt lat="43.8975207" lon="8.0752505"><ele>68.0</ele><time>2026-04-18T14:51:39.316Z</time></trkpt><trkpt lat="43.89737" lon="8.0750307"><ele>75.0</ele><time>2026-04-18T14:51:40.316Z</time></trkpt><trkpt lat="43.897222" lon="8.0748472"><ele>82.0</ele><time>2026-04-18T14:51:41.315Z</time></trkpt><trkpt lat="43.8970779" lon="8.074698"><ele>89.0</ele><time>2026-04-18T14:51:42.316Z</time></trkpt><trkpt lat="43.8969447" lon="8.0745917"><ele>89.0</ele><time>2026-04-18T14:51:43.315Z</time></trkpt><trkpt lat="43.8968163" lon="8.0745536"><ele>89.0</ele><time>2026-04-18T14:51:44.316Z</time></trkpt><trkpt lat="43.8966983" lon="8.0745819"><ele>89.0</ele><time>2026-04-18T14:51:45.316Z</time></trkpt><trkpt lat="43.8966046" lon="8.0747026"><ele>89.0</ele><time>2026-04-18T14:51:46.316Z</time></trkpt><trkpt lat="43.8965402" lon="8.0748904"><ele>90.33333333333334</ele><time>2026-04-18T14:51:47.316Z</time></trkpt><trkpt lat="43.8965312" lon="8.0750844"><ele>91.66666666666667</ele><time>2026-04-18T14:51:48.315Z</time></trkpt><trkpt lat="43.8965486" lon="8.0752954"><ele>93.0</ele><time>2026-04-18T14:51:49.315Z</time></trkpt><trkpt lat="43.8965721" lon="8.0755366"><ele>93.0</ele><time>2026-04-18T14:51:50.315Z</time></trkpt><trkpt lat="43.8965765" lon="8.0757945"><ele>93.0</ele><time>2026-04-18T14:51:51.316Z</time></trkpt><trkpt lat="43.8965462" lon="8.0760298"><ele>93.0</ele><time>2026-04-18T14:51:52.316Z</time></trkpt><trkpt lat="43.8965071" lon="8.0762366"><ele>93.0</ele><time>2026-04-18T14:51:53.317Z</time></trkpt><trkpt lat="43.8964441" lon="8.0764037"><ele>93.0</ele><time>2026-04-18T14:51:54.317Z</time></trkpt><trkpt lat="43.8963613" lon="8.0765263"><ele>93.0</ele><time>2026-04-18T14:51:55.317Z</time></trkpt><trkpt lat="43.8962463" lon="8.0765927"><ele>93.0</ele><time>2026-04-18T14:51:56.317Z</time></trkpt><trkpt lat="43.8961202" lon="8.0765778"><ele>93.0</ele><time>2026-04-18T14:51:57.317Z</time></trkpt><trkpt lat="43.8959985" lon="8.0765001"><ele>93.0</ele><time>2026-04-18T14:51:58.317Z</time></trkpt><trkpt lat="43.8958884" lon="8.0763815"><ele>93.0</ele><time>2026-04-18T14:51:59.317Z</time></trkpt><trkpt lat="43.8957738" lon="8.076277"><ele>93.0</ele><time>2026-04-18T14:52:00.316Z</time></trkpt><trkpt lat="43.8956671" lon="8.0762431"><ele>97.0</ele><time>2026-04-18T14:52:01.317Z</time></trkpt><trkpt lat="43.8955633" lon="8.0762151"><ele>101.0</ele><time>2026-04-18T14:52:02.316Z</time></trkpt><trkpt lat="43.8954572" lon="8.0761702"><ele>105.00000000000001</ele><time>2026-04-18T14:52:03.317Z</time></trkpt><trkpt lat="43.8953582" lon="8.0761123"><ele>109.0</ele><time>2026-04-18T14:52:04.317Z</time></trkpt><trkpt lat="43.8952713" lon="8.0760294"><ele>113.0</ele><time>2026-04-18T14:52:05.317Z</time></trkpt><trkpt lat="43.895213" lon="8.0759099"><ele>113.0</ele><time>2026-04-18T14:52:06.317Z</time></trkpt><trkpt lat="43.8951792" lon="8.0757767"><ele>113.00000000000001</ele><time>2026-04-18T14:52:07.316Z</time></trkpt><trkpt lat="43.8951747" lon="8.0756175"><ele>113.00000000000001</ele><time>2026-04-18T14:52:08.316Z</time></trkpt><trkpt lat="43.8951792" lon="8.0754744"><ele>113.0</ele><time>2026-04-18T14:52:09.317Z</time></trkpt><trkpt lat="43.8951951" lon="8.0753383"><ele>113.0</ele><time>2026-04-18T14:52:10.317Z</time></trkpt><trkpt lat="43.895202" lon="8.0752061"><ele>113.2</ele><time>2026-04-18T14:52:11.317Z</time></trkpt><trkpt lat="43.8951979" lon="8.0750742"><ele>113.4</ele><time>2026-04-18T14:52:12.317Z</time></trkpt><trkpt lat="43.8951786" lon="8.074941"><ele>113.60000000000001</ele><time>2026-04-18T14:52:13.317Z</time></trkpt><trkpt lat="43.895149" lon="8.0748111"><ele>113.80000000000001</ele><time>2026-04-18T14:52:14.317Z</time></trkpt><trkpt lat="43.8950902" lon="8.0746968"><ele>114.0</ele><time>2026-04-18T14:52:15.317Z</time></trkpt><trkpt lat="43.8950013" lon="8.0746196"><ele>118.5</ele><time>2026-04-18T14:52:16.317Z</time></trkpt><trkpt lat="43.8949031" lon="8.0745629"><ele>123.0</ele><time>2026-04-18T14:52:17.317Z</time></trkpt><trkpt lat="43.8947949" lon="8.0745094"><ele>127.5</ele><time>2026-04-18T14:52:18.317Z</time></trkpt><trkpt lat="43.8946685" lon="8.0744474"><ele>132.0</ele><time>2026-04-18T14:52:19.317Z</time></trkpt><trkpt lat="43.8945362" lon="8.0743763"><ele>132.0</ele><time>2026-04-18T14:52:20.317Z</time></trkpt><trkpt lat="43.8944214" lon="8.0743043"><ele>132.0</ele><time>2026-04-18T14:52:21.317Z</time></trkpt><trkpt lat="43.8943224" lon="8.0742398"><ele>132.0</ele><time>2026-04-18T14:52:22.316Z</time></trkpt><trkpt lat="43.8942265" lon="8.0741607"><ele>132.0</ele><time>2026-04-18T14:52:23.316Z</time></trkpt><trkpt lat="43.8941316" lon="8.0740664"><ele>136.5</ele><time>2026-04-18T14:52:24.317Z</time></trkpt><trkpt lat="43.8940442" lon="8.0739631"><ele>141.0</ele><time>2026-04-18T14:52:25.316Z</time></trkpt><trkpt lat="43.8939564" lon="8.0738525"><ele>145.5</ele><time>2026-04-18T14:52:26.317Z</time></trkpt><trkpt lat="43.8938729" lon="8.0737465"><ele>150.0</ele><time>2026-04-18T14:52:27.317Z</time></trkpt><trkpt lat="43.8937857" lon="8.0736557"><ele>150.0</ele><time>2026-04-18T14:52:28.322Z</time></trkpt><trkpt lat="43.8936953" lon="8.0735556"><ele>150.0</ele><time>2026-04-18T14:52:29.316Z</time></trkpt><trkpt lat="43.8936056" lon="8.0734506"><ele>150.0</ele><time>2026-04-18T14:52:30.317Z</time></trkpt><trkpt lat="43.8935193" lon="8.0733344"><ele>150.0</ele><time>2026-04-18T14:52:31.317Z</time></trkpt><trkpt lat="43.8934313" lon="8.0732225"><ele>149.6</ele><time>2026-04-18T14:52:32.317Z</time></trkpt><trkpt lat="43.8933406" lon="8.0731203"><ele>149.2</ele><time>2026-04-18T14:52:33.317Z</time></trkpt><trkpt lat="43.8932542" lon="8.0730231"><ele>148.8</ele><time>2026-04-18T14:52:34.317Z</time></trkpt><trkpt lat="43.8931724" lon="8.0729359"><ele>148.4</ele><time>2026-04-18T14:52:35.317Z</time></trkpt><trkpt lat="43.8930881" lon="8.0728431"><ele>148.0</ele><time>2026-04-18T14:52:36.317Z</time></trkpt><trkpt lat="43.8930069" lon="8.0727368"><ele>148.0</ele><time>2026-04-18T14:52:37.317Z</time></trkpt><trkpt lat="43.8929279" lon="8.0726134"><ele>148.0</ele><time>2026-04-18T14:52:38.317Z</time></trkpt><trkpt lat="43.8928499" lon="8.0724693"><ele>148.0</ele><time>2026-04-18T14:52:39.317Z</time></trkpt><trkpt lat="43.8927749" lon="8.072306"><ele>148.0</ele><time>2026-04-18T14:52:40.317Z</time></trkpt><trkpt lat="43.8926999" lon="8.0721222"><ele>146.0</ele><time>2026-04-18T14:52:41.317Z</time></trkpt><trkpt lat="43.8926112" lon="8.0719101"><ele>144.0</ele><time>2026-04-18T14:52:42.317Z</time></trkpt><trkpt lat="43.8925163" lon="8.0716752"><ele>142.0</ele><time>2026-04-18T14:52:43.317Z</time></trkpt><trkpt lat="43.8924323" lon="8.0714336"><ele>142.0</ele><time>2026-04-18T14:52:44.317Z</time></trkpt><trkpt lat="43.8923552" lon="8.0712191"><ele>142.0</ele><time>2026-04-18T14:52:45.316Z</time></trkpt><trkpt lat="43.8922816" lon="8.0710293"><ele>142.0</ele><time>2026-04-18T14:52:46.317Z</time></trkpt><trkpt lat="43.892218" lon="8.0708587"><ele>144.75</ele><time>2026-04-18T14:52:47.317Z</time></trkpt><trkpt lat="43.8921608" lon="8.0707062"><ele>147.5</ele><time>2026-04-18T14:52:48.317Z</time></trkpt><trkpt lat="43.8920965" lon="8.0705577"><ele>150.25</ele><time>2026-04-18T14:52:49.316Z</time></trkpt><trkpt lat="43.8920206" lon="8.0703866"><ele>153.0</ele><time>2026-04-18T14:52:50.317Z</time></trkpt><trkpt lat="43.8919206" lon="8.0702136"><ele>153.0</ele><time>2026-04-18T14:52:51.316Z</time></trkpt><trkpt lat="43.8918079" lon="8.070037"><ele>153.0</ele><time>2026-04-18T14:52:52.317Z</time></trkpt><trkpt lat="43.8916954" lon="8.0698503"><ele>153.0</ele><time>2026-04-18T14:52:53.316Z</time></trkpt><trkpt lat="43.8915993" lon="8.0696557"><ele>149.33333333333334</ele><time>2026-04-18T14:52:54.317Z</time></trkpt><trkpt lat="43.8915075" lon="8.0694562"><ele>145.66666666666669</ele><time>2026-04-18T14:52:55.317Z</time></trkpt><trkpt lat="43.891411" lon="8.0692268"><ele>142.0</ele><time>2026-04-18T14:52:56.317Z</time></trkpt><trkpt lat="43.8913167" lon="8.0689683"><ele>142.0</ele><time>2026-04-18T14:52:57.317Z</time></trkpt><trkpt lat="43.8912216" lon="8.0687005"><ele>142.0</ele><time>2026-04-18T14:52:58.317Z</time></trkpt><trkpt lat="43.8911257" lon="8.0684298"><ele>142.0</ele><time>2026-04-18T14:52:59.317Z</time></trkpt><trkpt lat="43.8910284" lon="8.0681706"><ele>142.33333333333334</ele><time>2026-04-18T14:53:00.316Z</time></trkpt><trkpt lat="43.8909515" lon="8.0679069"><ele>142.66666666666666</ele><time>2026-04-18T14:53:01.317Z</time></trkpt><trkpt lat="43.890904" lon="8.0676204"><ele>143.0</ele><time>2026-04-18T14:53:02.317Z</time></trkpt><trkpt lat="43.8908883" lon="8.0673255"><ele>130.66666666666666</ele><time>2026-04-18T14:53:03.317Z</time></trkpt><trkpt lat="43.8908987" lon="8.0670402"><ele>118.33333333333334</ele><time>2026-04-18T14:53:04.316Z</time></trkpt><trkpt lat="43.8909129" lon="8.0667837"><ele>106.0</ele><time>2026-04-18T14:53:05.317Z</time></trkpt><trkpt lat="43.8909235" lon="8.0665524"><ele>106.0</ele><time>2026-04-18T14:53:06.317Z</time></trkpt><trkpt lat="43.8909022" lon="8.0663413"><ele>106.0</ele><time>2026-04-18T14:53:07.317Z</time></trkpt><trkpt lat="43.8908425" lon="8.066156"><ele>106.0</ele><time>2026-04-18T14:53:08.317Z</time></trkpt><trkpt lat="43.8907311" lon="8.0660028"><ele>106.0</ele><time>2026-04-18T14:53:09.317Z</time></trkpt><trkpt lat="43.8906148" lon="8.0658721"><ele>106.0</ele><time>2026-04-18T14:53:10.317Z</time></trkpt><trkpt lat="43.8905217" lon="8.0657031"><ele>106.0</ele><time>2026-04-18T14:53:11.317Z</time></trkpt><trkpt lat="43.8904494" lon="8.0654627"><ele>108.33333333333334</ele><time>2026-04-18T14:53:12.317Z</time></trkpt><trkpt lat="43.890383" lon="8.0651969"><ele>110.66666666666666</ele><time>2026-04-18T14:53:13.317Z</time></trkpt><trkpt lat="43.8903209" lon="8.0649137"><ele>113.0</ele><time>2026-04-18T14:53:14.317Z</time></trkpt><trkpt lat="43.8902602" lon="8.0646191"><ele>118.5</ele><time>2026-04-18T14:53:15.317Z</time></trkpt><trkpt lat="43.8901945" lon="8.064312"><ele>124.0</ele><time>2026-04-18T14:53:16.317Z</time></trkpt><trkpt lat="43.8901228" lon="8.0639987"><ele>106.0</ele><time>2026-04-18T14:53:17.317Z</time></trkpt><trkpt lat="43.8900421" lon="8.0636934"><ele>88.0</ele><time>2026-04-18T14:53:18.317Z</time></trkpt><trkpt lat="43.8899756" lon="8.0634028"><ele>90.0</ele><time>2026-04-18T14:53:19.317Z</time></trkpt><trkpt lat="43.8899287" lon="8.0631251"><ele>92.0</ele><time>2026-04-18T14:53:20.317Z</time></trkpt><trkpt lat="43.8898803" lon="8.0628573"><ele>94.0</ele><time>2026-04-18T14:53:21.317Z</time></trkpt><trkpt lat="43.8898271" lon="8.0626238"><ele>93.66666666666666</ele><time>2026-04-18T14:53:22.317Z</time></trkpt><trkpt lat="43.8897786" lon="8.0624024"><ele>93.33333333333333</ele><time>2026-04-18T14:53:23.317Z</time></trkpt><trkpt lat="43.889778" lon="8.0621862"><ele>93.0</ele><time>2026-04-18T14:53:24.317Z</time></trkpt><trkpt lat="43.889807" lon="8.061957"><ele>93.0</ele><time>2026-04-18T14:53:25.317Z</time></trkpt><trkpt lat="43.8898217" lon="8.0617349"><ele>93.0</ele><time>2026-04-18T14:53:26.317Z</time></trkpt><trkpt lat="43.8898" lon="8.0615006"><ele>93.0</ele><time>2026-04-18T14:53:27.317Z</time></trkpt><trkpt lat="43.8897212" lon="8.0612737"><ele>94.0</ele><time>2026-04-18T14:53:28.317Z</time></trkpt><trkpt lat="43.8896098" lon="8.0610864"><ele>95.0</ele><time>2026-04-18T14:53:29.317Z</time></trkpt><trkpt lat="43.8895149" lon="8.060907"><ele>96.0</ele><time>2026-04-18T14:53:30.317Z</time></trkpt><trkpt lat="43.8894616" lon="8.0607022"><ele>96.0</ele><time>2026-04-18T14:53:31.317Z</time></trkpt><trkpt lat="43.8894511" lon="8.0604406"><ele>96.0</ele><time>2026-04-18T14:53:32.316Z</time></trkpt><trkpt lat="43.8894608" lon="8.0601599"><ele>96.0</ele><time>2026-04-18T14:53:33.317Z</time></trkpt><trkpt lat="43.8894552" lon="8.0598849"><ele>91.66666666666667</ele><time>2026-04-18T14:53:34.317Z</time></trkpt><trkpt lat="43.8894216" lon="8.0596399"><ele>87.33333333333334</ele><time>2026-04-18T14:53:35.317Z</time></trkpt><trkpt lat="43.8893784" lon="8.0594314"><ele>83.0</ele><time>2026-04-18T14:53:36.317Z</time></trkpt><trkpt lat="43.8893547" lon="8.0592415"><ele>79.25</ele><time>2026-04-18T14:53:37.317Z</time></trkpt><trkpt lat="43.8893762" lon="8.0590653"><ele>75.5</ele><time>2026-04-18T14:53:38.317Z</time></trkpt><trkpt lat="43.8894492" lon="8.0588849"><ele>71.75</ele><time>2026-04-18T14:53:39.316Z</time></trkpt><trkpt lat="43.8895393" lon="8.0587272"><ele>68.0</ele><time>2026-04-18T14:53:40.317Z</time></trkpt><trkpt lat="43.8896442" lon="8.0585946"><ele>68.0</ele><time>2026-04-18T14:53:41.317Z</time></trkpt><trkpt lat="43.889762" lon="8.0584708"><ele>68.0</ele><time>2026-04-18T14:53:42.316Z</time></trkpt><trkpt lat="43.8898851" lon="8.0583475"><ele>68.0</ele><time>2026-04-18T14:53:43.318Z</time></trkpt><trkpt lat="43.8899761" lon="8.0581926"><ele>68.0</ele><time>2026-04-18T14:53:44.317Z</time></trkpt><trkpt lat="43.8900199" lon="8.0579901"><ele>67.5</ele><time>2026-04-18T14:53:45.318Z</time></trkpt><trkpt lat="43.8900153" lon="8.0578177"><ele>67.0</ele><time>2026-04-18T14:53:46.318Z</time></trkpt><trkpt lat="43.8899696" lon="8.0576475"><ele>66.5</ele><time>2026-04-18T14:53:47.318Z</time></trkpt><trkpt lat="43.889885" lon="8.057514"><ele>66.0</ele><time>2026-04-18T14:53:48.318Z</time></trkpt><trkpt lat="43.8897593" lon="8.0574135"><ele>67.0</ele><time>2026-04-18T14:53:49.318Z</time></trkpt><trkpt lat="43.8896561" lon="8.0573277"><ele>68.0</ele><time>2026-04-18T14:53:50.318Z</time></trkpt><trkpt lat="43.8895801" lon="8.0572343"><ele>69.0</ele><time>2026-04-18T14:53:51.317Z</time></trkpt><trkpt lat="43.8895856" lon="8.0570775"><ele>70.0</ele><time>2026-04-18T14:53:52.318Z</time></trkpt><trkpt lat="43.8896389" lon="8.0569346"><ele>70.0</ele><time>2026-04-18T14:53:53.317Z</time></trkpt><trkpt lat="43.8896983" lon="8.0568004"><ele>70.0</ele><time>2026-04-18T14:53:54.317Z</time></trkpt><trkpt lat="43.8897427" lon="8.0566508"><ele>70.0</ele><time>2026-04-18T14:53:55.318Z</time></trkpt><trkpt lat="43.8897372" lon="8.0565014"><ele>70.0</ele><time>2026-04-18T14:53:56.318Z</time></trkpt><trkpt lat="43.889666" lon="8.0563568"><ele>75.66666666666666</ele><time>2026-04-18T14:53:57.318Z</time></trkpt><trkpt lat="43.8895527" lon="8.0562404"><ele>81.33333333333333</ele><time>2026-04-18T14:53:58.318Z</time></trkpt><trkpt lat="43.889419" lon="8.0561351"><ele>87.0</ele><time>2026-04-18T14:53:59.318Z</time></trkpt><trkpt lat="43.8892665" lon="8.0560294"><ele>81.0</ele><time>2026-04-18T14:54:00.318Z</time></trkpt><trkpt lat="43.8891079" lon="8.055934"><ele>75.0</ele><time>2026-04-18T14:54:01.318Z</time></trkpt><trkpt lat="43.8889675" lon="8.05583"><ele>69.0</ele><time>2026-04-18T14:54:02.318Z</time></trkpt><trkpt lat="43.8888435" lon="8.0557264"><ele>69.0</ele><time>2026-04-18T14:54:03.318Z</time></trkpt><trkpt lat="43.8887442" lon="8.0556075"><ele>69.0</ele><time>2026-04-18T14:54:04.317Z</time></trkpt><trkpt lat="43.8886757" lon="8.0554415"><ele>69.0</ele><time>2026-04-18T14:54:05.318Z</time></trkpt><trkpt lat="43.8886407" lon="8.0552492"><ele>69.0</ele><time>2026-04-18T14:54:06.318Z</time></trkpt><trkpt lat="43.8886299" lon="8.0550149"><ele>66.66666666666667</ele><time>2026-04-18T14:54:07.318Z</time></trkpt><trkpt lat="43.8885849" lon="8.054785"><ele>64.33333333333334</ele><time>2026-04-18T14:54:08.318Z</time></trkpt><trkpt lat="43.8885069" lon="8.0545924"><ele>62.0</ele><time>2026-04-18T14:54:09.318Z</time></trkpt><trkpt lat="43.8884182" lon="8.0544148"><ele>55.333333333333336</ele><time>2026-04-18T14:54:10.318Z</time></trkpt><trkpt lat="43.8883526" lon="8.0542231"><ele>48.66666666666667</ele><time>2026-04-18T14:54:11.318Z</time></trkpt><trkpt lat="43.8883395" lon="8.0539978"><ele>42.0</ele><time>2026-04-18T14:54:12.317Z</time></trkpt><trkpt lat="43.8883535" lon="8.0537476"><ele>41.666666666666664</ele><time>2026-04-18T14:54:13.318Z</time></trkpt><trkpt lat="43.8883475" lon="8.0535232"><ele>41.33333333333333</ele><time>2026-04-18T14:54:14.318Z</time></trkpt><trkpt lat="43.8883174" lon="8.0533303"><ele>41.0</ele><time>2026-04-18T14:54:15.318Z</time></trkpt><trkpt lat="43.8882573" lon="8.0531377"><ele>42.33333333333333</ele><time>2026-04-18T14:54:16.317Z</time></trkpt><trkpt lat="43.8881636" lon="8.0529623"><ele>43.666666666666664</ele><time>2026-04-18T14:54:17.318Z</time></trkpt><trkpt lat="43.8880825" lon="8.0527906"><ele>45.0</ele><time>2026-04-18T14:54:18.318Z</time></trkpt><trkpt lat="43.8880474" lon="8.0525952"><ele>45.666666666666664</ele><time>2026-04-18T14:54:19.318Z</time></trkpt><trkpt lat="43.8880553" lon="8.0523598"><ele>46.33333333333333</ele><time>2026-04-18T14:54:20.318Z</time></trkpt><trkpt lat="43.8880647" lon="8.052121"><ele>47.0</ele><time>2026-04-18T14:54:21.318Z</time></trkpt><trkpt lat="43.8880742" lon="8.0518759"><ele>47.0</ele><time>2026-04-18T14:54:22.317Z</time></trkpt><trkpt lat="43.8880789" lon="8.0516294"><ele>47.0</ele><time>2026-04-18T14:54:23.318Z</time></trkpt><trkpt lat="43.8880752" lon="8.0513811"><ele>47.0</ele><time>2026-04-18T14:54:24.318Z</time></trkpt><trkpt lat="43.8880533" lon="8.0511477"><ele>46.666666666666664</ele><time>2026-04-18T14:54:25.318Z</time></trkpt><trkpt lat="43.8880204" lon="8.0509262"><ele>46.333333333333336</ele><time>2026-04-18T14:54:26.318Z</time></trkpt><trkpt lat="43.8879918" lon="8.0507189"><ele>46.0</ele><time>2026-04-18T14:54:27.318Z</time></trkpt><trkpt lat="43.8879837" lon="8.0505168"><ele>44.75</ele><time>2026-04-18T14:54:28.318Z</time></trkpt><trkpt lat="43.8879996" lon="8.0503331"><ele>43.5</ele><time>2026-04-18T14:54:29.317Z</time></trkpt><trkpt lat="43.8880382" lon="8.0501735"><ele>42.25</ele><time>2026-04-18T14:54:30.318Z</time></trkpt><trkpt lat="43.8880882" lon="8.05003"><ele>41.0</ele><time>2026-04-18T14:54:31.318Z</time></trkpt><trkpt lat="43.8881223" lon="8.0498814"><ele>39.199999999999996</ele><time>2026-04-18T14:54:32.317Z</time></trkpt><trkpt lat="43.888131" lon="8.0497327"><ele>37.4</ele><time>2026-04-18T14:54:33.318Z</time></trkpt><trkpt lat="43.8881322" lon="8.0495809"><ele>35.6</ele><time>2026-04-18T14:54:34.318Z</time></trkpt><trkpt lat="43.8881358" lon="8.0494263"><ele>33.8</ele><time>2026-04-18T14:54:35.318Z</time></trkpt><trkpt lat="43.8881409" lon="8.0492691"><ele>32.0</ele><time>2026-04-18T14:54:36.318Z</time></trkpt><trkpt lat="43.8881435" lon="8.0491108"><ele>31.0</ele><time>2026-04-18T14:54:37.318Z</time></trkpt><trkpt lat="43.8881462" lon="8.0489539"><ele>30.000000000000004</ele><time>2026-04-18T14:54:38.318Z</time></trkpt><trkpt lat="43.8881497" lon="8.0488001"><ele>29.000000000000004</ele><time>2026-04-18T14:54:39.318Z</time></trkpt><trkpt lat="43.8881548" lon="8.0486472"><ele>28.0</ele><time>2026-04-18T14:54:40.317Z</time></trkpt><trkpt lat="43.8881605" lon="8.04849"><ele>27.0</ele><time>2026-04-18T14:54:41.318Z</time></trkpt><trkpt lat="43.8881639" lon="8.0483308"><ele>25.400000000000002</ele><time>2026-04-18T14:54:42.317Z</time></trkpt><trkpt lat="43.8881655" lon="8.0481769"><ele>23.800000000000004</ele><time>2026-04-18T14:54:43.318Z</time></trkpt><trkpt lat="43.8881739" lon="8.0480208"><ele>22.2</ele><time>2026-04-18T14:54:44.318Z</time></trkpt><trkpt lat="43.8881852" lon="8.0478699"><ele>20.6</ele><time>2026-04-18T14:54:45.318Z</time></trkpt><trkpt lat="43.8882037" lon="8.0477169"><ele>19.0</ele><time>2026-04-18T14:54:46.318Z</time></trkpt><trkpt lat="43.8882223" lon="8.0475665"><ele>17.8</ele><time>2026-04-18T14:54:47.318Z</time></trkpt><trkpt lat="43.8882469" lon="8.0474192"><ele>16.599999999999998</ele><time>2026-04-18T14:54:48.317Z</time></trkpt><trkpt lat="43.8882677" lon="8.0472714"><ele>15.4</ele><time>2026-04-18T14:54:49.318Z</time></trkpt><trkpt lat="43.8882909" lon="8.0471222"><ele>14.2</ele><time>2026-04-18T14:54:50.318Z</time></trkpt><trkpt lat="43.8883158" lon="8.0469733"><ele>13.0</ele><time>2026-04-18T14:54:51.318Z</time></trkpt><trkpt lat="43.8883443" lon="8.0468166"><ele>13.0</ele><time>2026-04-18T14:54:52.318Z</time></trkpt><trkpt lat="43.8883755" lon="8.0466589"><ele>13.0</ele><time>2026-04-18T14:54:53.317Z</time></trkpt><trkpt lat="43.888405" lon="8.0465094"><ele>13.0</ele><time>2026-04-18T14:54:54.318Z</time></trkpt><trkpt lat="43.8884296" lon="8.0463553"><ele>13.0</ele><time>2026-04-18T14:54:55.318Z</time></trkpt><trkpt lat="43.888461" lon="8.0462038"><ele>13.333333333333332</ele><time>2026-04-18T14:54:56.318Z</time></trkpt><trkpt lat="43.8884907" lon="8.0460631"><ele>13.666666666666666</ele><time>2026-04-18T14:54:57.318Z</time></trkpt><trkpt lat="43.8885141" lon="8.0459298"><ele>14.0</ele><time>2026-04-18T14:54:58.318Z</time></trkpt><trkpt lat="43.8885356" lon="8.0458076"><ele>14.333333333333332</ele><time>2026-04-18T14:54:59.318Z</time></trkpt><trkpt lat="43.8885596" lon="8.0457126"><ele>14.666666666666666</ele><time>2026-04-18T14:55:00.318Z</time></trkpt><trkpt lat="43.8886055" lon="8.0456487"><ele>15.0</ele><time>2026-04-18T14:55:01.318Z</time></trkpt><trkpt lat="43.8887162" lon="8.0456526"><ele>15.0</ele><time>2026-04-18T14:55:03.318Z</time></trkpt><trkpt lat="43.8887782" lon="8.0456922"><ele>15.0</ele><time>2026-04-18T14:55:04.317Z</time></trkpt><trkpt lat="43.8888668" lon="8.0457547"><ele>15.0</ele><time>2026-04-18T14:55:05.317Z</time></trkpt><trkpt lat="43.8889502" lon="8.0458019"><ele>15.0</ele><time>2026-04-18T14:55:06.318Z</time></trkpt><trkpt lat="43.8890346" lon="8.0458101"><ele>15.0</ele><time>2026-04-18T14:55:07.317Z</time></trkpt><trkpt lat="43.8891104" lon="8.0457674"><ele>15.0</ele><time>2026-04-18T14:55:08.318Z</time></trkpt><trkpt lat="43.88918" lon="8.0457096"><ele>15.666666666666666</ele><time>2026-04-18T14:55:09.318Z</time></trkpt><trkpt lat="43.8892352" lon="8.045652"><ele>16.333333333333332</ele><time>2026-04-18T14:55:10.317Z</time></trkpt><trkpt lat="43.8893092" lon="8.0455402"><ele>17.0</ele><time>2026-04-18T14:55:12.317Z</time></trkpt><trkpt lat="43.8893238" lon="8.045454"><ele>17.666666666666664</ele><time>2026-04-18T14:55:13.318Z</time></trkpt><trkpt lat="43.8893207" lon="8.0453481"><ele>18.333333333333332</ele><time>2026-04-18T14:55:14.318Z</time></trkpt><trkpt lat="43.8893264" lon="8.0452242"><ele>19.0</ele><time>2026-04-18T14:55:15.318Z</time></trkpt><trkpt lat="43.8893334" lon="8.0450916"><ele>21.333333333333332</ele><time>2026-04-18T14:55:16.318Z</time></trkpt><trkpt lat="43.8893381" lon="8.0449707"><ele>23.666666666666664</ele><time>2026-04-18T14:55:17.318Z</time></trkpt><trkpt lat="43.8893429" lon="8.0448552"><ele>26.0</ele><time>2026-04-18T14:55:18.318Z</time></trkpt><trkpt lat="43.8893439" lon="8.0447493"><ele>28.333333333333332</ele><time>2026-04-18T14:55:19.318Z</time></trkpt><trkpt lat="43.8893507" lon="8.044636"><ele>30.666666666666668</ele><time>2026-04-18T14:55:20.318Z</time></trkpt><trkpt lat="43.889355" lon="8.0445146"><ele>33.0</ele><time>2026-04-18T14:55:21.318Z</time></trkpt><trkpt lat="43.8893608" lon="8.0443863"><ele>33.333333333333336</ele><time>2026-04-18T14:55:22.317Z</time></trkpt><trkpt lat="43.889367" lon="8.0442707"><ele>33.666666666666664</ele><time>2026-04-18T14:55:23.317Z</time></trkpt><trkpt lat="43.8893829" lon="8.0441759"><ele>34.0</ele><time>2026-04-18T14:55:24.318Z</time></trkpt><trkpt lat="43.8894036" lon="8.0440911"><ele>34.33333333333333</ele><time>2026-04-18T14:55:25.318Z</time></trkpt><trkpt lat="43.8894427" lon="8.0439451"><ele>34.666666666666664</ele><time>2026-04-18T14:55:27.317Z</time></trkpt><trkpt lat="43.8894846" lon="8.0437914"><ele>35.0</ele><time>2026-04-18T14:55:29.318Z</time></trkpt><trkpt lat="43.8895226" lon="8.0436363"><ele>33.2</ele><time>2026-04-18T14:55:31.318Z</time></trkpt><trkpt lat="43.889607" lon="8.043561"><ele>31.4</ele><time>2026-04-18T14:55:33.319Z</time></trkpt><trkpt lat="43.8897482" lon="8.0435437"><ele>29.6</ele><time>2026-04-18T14:55:35.318Z</time></trkpt><trkpt lat="43.8898388" lon="8.0435149"><ele>27.8</ele><time>2026-04-18T14:55:36.319Z</time></trkpt><trkpt lat="43.889946" lon="8.0434739"><ele>26.0</ele><time>2026-04-18T14:55:37.318Z</time></trkpt><trkpt lat="43.8900586" lon="8.0434242"><ele>25.5</ele><time>2026-04-18T14:55:38.319Z</time></trkpt><trkpt lat="43.8901711" lon="8.0433701"><ele>25.0</ele><time>2026-04-18T14:55:39.319Z</time></trkpt><trkpt lat="43.8902908" lon="8.0433127"><ele>24.5</ele><time>2026-04-18T14:55:40.319Z</time></trkpt><trkpt lat="43.890426" lon="8.0432537"><ele>24.0</ele><time>2026-04-18T14:55:41.318Z</time></trkpt><trkpt lat="43.8905639" lon="8.0432124"><ele>24.0</ele><time>2026-04-18T14:55:42.318Z</time></trkpt><trkpt lat="43.8906991" lon="8.0431807"><ele>24.0</ele><time>2026-04-18T14:55:43.318Z</time></trkpt><trkpt lat="43.8908264" lon="8.0431498"><ele>24.0</ele><time>2026-04-18T14:55:44.319Z</time></trkpt><trkpt lat="43.8909429" lon="8.0431244"><ele>24.0</ele><time>2026-04-18T14:55:45.319Z</time></trkpt><trkpt lat="43.8910566" lon="8.0431025"><ele>25.6</ele><time>2026-04-18T14:55:46.319Z</time></trkpt><trkpt lat="43.8911747" lon="8.0430866"><ele>27.2</ele><time>2026-04-18T14:55:47.319Z</time></trkpt><trkpt lat="43.8912929" lon="8.0430754"><ele>28.800000000000004</ele><time>2026-04-18T14:55:48.319Z</time></trkpt><trkpt lat="43.8913877" lon="8.0430434"><ele>30.400000000000002</ele><time>2026-04-18T14:55:49.319Z</time></trkpt><trkpt lat="43.8914591" lon="8.0430062"><ele>32.0</ele><time>2026-04-18T14:55:50.319Z</time></trkpt><trkpt lat="43.8915244" lon="8.0429745"><ele>31.999999999999996</ele><time>2026-04-18T14:55:51.319Z</time></trkpt><trkpt lat="43.8916012" lon="8.0429562"><ele>32.0</ele><time>2026-04-18T14:55:53.318Z</time></trkpt><trkpt lat="43.89161" lon="8.0430599"><ele>32.0</ele><time>2026-04-18T14:55:55.319Z</time></trkpt><trkpt lat="43.8915515" lon="8.0431198"><ele>32.0</ele><time>2026-04-18T14:55:58.319Z</time></trkpt><trkpt lat="43.8914922" lon="8.0431693"><ele>31.999999999999996</ele><time>2026-04-18T14:56:01.319Z</time></trkpt><trkpt lat="43.891418" lon="8.0432232"><ele>32.0</ele><time>2026-04-18T14:56:04.319Z</time></trkpt><trkpt lat="43.8913515" lon="8.0432889"><ele>33.0</ele><time>2026-04-18T14:56:06.319Z</time></trkpt><trkpt lat="43.8912506" lon="8.0433641"><ele>34.0</ele><time>2026-04-18T14:56:08.319Z</time></trkpt><trkpt lat="43.891147" lon="8.0434338"><ele>35.0</ele><time>2026-04-18T14:56:10.319Z</time></trkpt><trkpt lat="43.8910874" lon="8.0434858"><ele>36.0</ele><time>2026-04-18T14:56:11.319Z</time></trkpt><trkpt lat="43.8910245" lon="8.0435486"><ele>37.0</ele><time>2026-04-18T14:56:12.318Z</time></trkpt><trkpt lat="43.8909657" lon="8.0436058"><ele>38.0</ele><time>2026-04-18T14:56:13.319Z</time></trkpt><trkpt lat="43.890915" lon="8.0436684"><ele>38.0</ele><time>2026-04-18T14:56:14.318Z</time></trkpt><trkpt lat="43.8908516" lon="8.0437326"><ele>38.0</ele><time>2026-04-18T14:56:15.319Z</time></trkpt><trkpt lat="43.8907833" lon="8.0438088"><ele>38.0</ele><time>2026-04-18T14:56:16.318Z</time></trkpt><trkpt lat="43.890721" lon="8.0438882"><ele>38.0</ele><time>2026-04-18T14:56:17.319Z</time></trkpt><trkpt lat="43.8906663" lon="8.0439613"><ele>38.0</ele><time>2026-04-18T14:56:18.319Z</time></trkpt><trkpt lat="43.8906132" lon="8.0440495"><ele>38.0</ele><time>2026-04-18T14:56:19.318Z</time></trkpt><trkpt lat="43.8905563" lon="8.0441307"><ele>39.33333333333333</ele><time>2026-04-18T14:56:20.318Z</time></trkpt><trkpt lat="43.8904994" lon="8.0442078"><ele>40.666666666666664</ele><time>2026-04-18T14:56:21.319Z</time></trkpt><trkpt lat="43.8904482" lon="8.0442865"><ele>42.0</ele><time>2026-04-18T14:56:22.319Z</time></trkpt><trkpt lat="43.8904048" lon="8.0443625"><ele>43.333333333333336</ele><time>2026-04-18T14:56:23.319Z</time></trkpt><trkpt lat="43.8903708" lon="8.0445129"><ele>44.66666666666667</ele><time>2026-04-18T14:56:25.318Z</time></trkpt><trkpt lat="43.8903588" lon="8.0446612"><ele>46.0</ele><time>2026-04-18T14:56:27.319Z</time></trkpt><trkpt lat="43.8903546" lon="8.0447999"><ele>46.0</ele><time>2026-04-18T14:56:29.319Z</time></trkpt><trkpt lat="43.8903724" lon="8.0449165"><ele>46.0</ele><time>2026-04-18T14:56:31.319Z</time></trkpt><trkpt lat="43.8904568" lon="8.0449856"><ele>46.0</ele><time>2026-04-18T14:56:33.319Z</time></trkpt><trkpt lat="43.8905583" lon="8.0450267"><ele>46.0</ele><time>2026-04-18T14:56:35.318Z</time></trkpt><trkpt lat="43.890628" lon="8.0450543"><ele>46.0</ele><time>2026-04-18T14:56:36.319Z</time></trkpt><trkpt lat="43.8907049" lon="8.0450726"><ele>46.0</ele><time>2026-04-18T14:56:37.319Z</time></trkpt><trkpt lat="43.89079" lon="8.045092"><ele>46.16666666666667</ele><time>2026-04-18T14:56:38.319Z</time></trkpt><trkpt lat="43.8908704" lon="8.0450842"><ele>46.333333333333336</ele><time>2026-04-18T14:56:39.319Z</time></trkpt><trkpt lat="43.8909489" lon="8.0450871"><ele>46.5</ele><time>2026-04-18T14:56:40.318Z</time></trkpt><trkpt lat="43.8910241" lon="8.0450848"><ele>46.666666666666664</ele><time>2026-04-18T14:56:41.319Z</time></trkpt><trkpt lat="43.8911056" lon="8.0450851"><ele>46.83333333333333</ele><time>2026-04-18T14:56:42.319Z</time></trkpt><trkpt lat="43.8911849" lon="8.0450887"><ele>47.0</ele><time>2026-04-18T14:56:43.318Z</time></trkpt><trkpt lat="43.8912693" lon="8.0450897"><ele>48.0</ele><time>2026-04-18T14:56:44.318Z</time></trkpt><trkpt lat="43.8913475" lon="8.0450948"><ele>49.0</ele><time>2026-04-18T14:56:45.319Z</time></trkpt><trkpt lat="43.8914224" lon="8.045101"><ele>50.0</ele><time>2026-04-18T14:56:46.318Z</time></trkpt><trkpt lat="43.8914957" lon="8.0451134"><ele>51.0</ele><time>2026-04-18T14:56:47.319Z</time></trkpt><trkpt lat="43.8915787" lon="8.0451138"><ele>52.00000000000001</ele><time>2026-04-18T14:56:48.319Z</time></trkpt><trkpt lat="43.8916561" lon="8.0451167"><ele>53.0</ele><time>2026-04-18T14:56:49.319Z</time></trkpt><trkpt lat="43.8917353" lon="8.0451384"><ele>54.50000000000001</ele><time>2026-04-18T14:56:50.319Z</time></trkpt><trkpt lat="43.8918147" lon="8.0451619"><ele>56.0</ele><time>2026-04-18T14:56:51.318Z</time></trkpt><trkpt lat="43.8918912" lon="8.0451919"><ele>57.5</ele><time>2026-04-18T14:56:52.319Z</time></trkpt><trkpt lat="43.8919696" lon="8.0452073"><ele>59.0</ele><time>2026-04-18T14:56:53.319Z</time></trkpt><trkpt lat="43.8920541" lon="8.045264"><ele>60.50000000000001</ele><time>2026-04-18T14:56:54.319Z</time></trkpt><trkpt lat="43.8921339" lon="8.0453322"><ele>62.0</ele><time>2026-04-18T14:56:55.318Z</time></trkpt><trkpt lat="43.8921871" lon="8.0453847"><ele>62.00000000000001</ele><time>2026-04-18T14:56:56.319Z</time></trkpt><trkpt lat="43.892235" lon="8.0454647"><ele>62.0</ele><time>2026-04-18T14:56:57.319Z</time></trkpt><trkpt lat="43.8922729" lon="8.0455604"><ele>62.0</ele><time>2026-04-18T14:56:58.319Z</time></trkpt><trkpt lat="43.8923108" lon="8.0456617"><ele>62.0</ele><time>2026-04-18T14:56:59.319Z</time></trkpt><trkpt lat="43.8923403" lon="8.0457674"><ele>62.00000000000001</ele><time>2026-04-18T14:57:00.318Z</time></trkpt><trkpt lat="43.8923672" lon="8.0458734"><ele>62.0</ele><time>2026-04-18T14:57:01.318Z</time></trkpt><trkpt lat="43.8924011" lon="8.0459772"><ele>62.16666666666667</ele><time>2026-04-18T14:57:02.319Z</time></trkpt><trkpt lat="43.8924444" lon="8.0460754"><ele>62.333333333333336</ele><time>2026-04-18T14:57:03.319Z</time></trkpt><trkpt lat="43.8924965" lon="8.0461722"><ele>62.5</ele><time>2026-04-18T14:57:04.319Z</time></trkpt><trkpt lat="43.892552" lon="8.0462629"><ele>62.66666666666667</ele><time>2026-04-18T14:57:05.319Z</time></trkpt><trkpt lat="43.8926061" lon="8.0463351"><ele>62.833333333333336</ele><time>2026-04-18T14:57:06.319Z</time></trkpt><trkpt lat="43.8927057" lon="8.0464079"><ele>63.0</ele><time>2026-04-18T14:57:08.318Z</time></trkpt><trkpt lat="43.8927904" lon="8.0463604"><ele>63.0</ele><time>2026-04-18T14:57:10.319Z</time></trkpt><trkpt lat="43.892854" lon="8.0462297"><ele>63.0</ele><time>2026-04-18T14:57:12.318Z</time></trkpt><trkpt lat="43.892958" lon="8.0461287"><ele>63.0</ele><time>2026-04-18T14:57:14.319Z</time></trkpt><trkpt lat="43.8930246" lon="8.0461139"><ele>63.0</ele><time>2026-04-18T14:57:15.319Z</time></trkpt><trkpt lat="43.8931494" lon="8.0461457"><ele>63.0</ele><time>2026-04-18T14:57:17.319Z</time></trkpt><trkpt lat="43.8932586" lon="8.0461222"><ele>63.0</ele><time>2026-04-18T14:57:19.319Z</time></trkpt><trkpt lat="43.8932957" lon="8.0460303"><ele>63.0</ele><time>2026-04-18T14:57:21.318Z</time></trkpt></trkseg></trk></gpx>